<?xml version="1.0" encoding="UTF-8"?>
<gpx
version="1.1"
creator="Créé par Mes parcours sur Android."
xmlns="http://www.topografix.com/GPX/1/1"
xmlns:topografix="http://www.topografix.com/GPX/Private/TopoGrafix/0/1"
xmlns:xsi="http://www.w3.org/2001/XMLSchema-instance"
xsi:schemaLocation="http://www.topografix.com/GPX/1/1 http://www.topografix.com/GPX/1/1/gpx.xsd http://www.topografix.com/GPX/Private/TopoGrafix/0/1 http://www.topografix.com/GPX/Private/TopoGrafix/0/1/topografix.xsd">
<metadata>
<name><![CDATA[Lac.de.pareloup_pm]]></name>
<desc><![CDATA[]]></desc>
</metadata>
<trk>
<name><![CDATA[Lac.de.pareloup_pm]]></name>
<desc><![CDATA[]]></desc>
<extensions><topografix:color>c0c0c0</topografix:color></extensions>
<trkseg>
<trkpt lat="44.206448" lon="2.775815">
<ele>873.9</ele>
<time>2013-05-08T12:33:43.595Z</time>
</trkpt>
<trkpt lat="44.206448" lon="2.775815">
<ele>857</ele>
<time>2013-05-08T12:33:58.999Z</time>
</trkpt>
<trkpt lat="44.206337" lon="2.775716">
<ele>857.5</ele>
<time>2013-05-08T12:33:59.999Z</time>
</trkpt>
<trkpt lat="44.206295" lon="2.775719">
<ele>861.5</ele>
<time>2013-05-08T12:34:16.999Z</time>
</trkpt>
<trkpt lat="44.206291" lon="2.77573">
<ele>861.5</ele>
<time>2013-05-08T12:34:17.999Z</time>
</trkpt>
<trkpt lat="44.206272" lon="2.77578">
<ele>861.2</ele>
<time>2013-05-08T12:34:21.999Z</time>
</trkpt>
<trkpt lat="44.206268" lon="2.775792">
<ele>861.1</ele>
<time>2013-05-08T12:34:22.999Z</time>
</trkpt>
<trkpt lat="44.206253" lon="2.775837">
<ele>861</ele>
<time>2013-05-08T12:34:25.999Z</time>
</trkpt>
<trkpt lat="44.206251" lon="2.77585">
<ele>861.1</ele>
<time>2013-05-08T12:34:26.999Z</time>
</trkpt>
<trkpt lat="44.206239" lon="2.775907">
<ele>861.3</ele>
<time>2013-05-08T12:34:29.999Z</time>
</trkpt>
<trkpt lat="44.206237" lon="2.775921">
<ele>861.4</ele>
<time>2013-05-08T12:34:30.999Z</time>
</trkpt>
<trkpt lat="44.206227" lon="2.775969">
<ele>861.6</ele>
<time>2013-05-08T12:34:33.999Z</time>
</trkpt>
<trkpt lat="44.206223" lon="2.775988">
<ele>861.6</ele>
<time>2013-05-08T12:34:34.999Z</time>
</trkpt>
<trkpt lat="44.206201" lon="2.776027">
<ele>861.8</ele>
<time>2013-05-08T12:34:38.999Z</time>
</trkpt>
<trkpt lat="44.206195" lon="2.776039">
<ele>861.9</ele>
<time>2013-05-08T12:34:39.999Z</time>
</trkpt>
<trkpt lat="44.206173" lon="2.776085">
<ele>862</ele>
<time>2013-05-08T12:34:44.999Z</time>
</trkpt>
<trkpt lat="44.206172" lon="2.776094">
<ele>862</ele>
<time>2013-05-08T12:34:45.999Z</time>
</trkpt>
<trkpt lat="44.206186" lon="2.77615">
<ele>862</ele>
<time>2013-05-08T12:34:52.999Z</time>
</trkpt>
<trkpt lat="44.206186" lon="2.776153">
<ele>862</ele>
<time>2013-05-08T12:34:53.999Z</time>
</trkpt>
<trkpt lat="44.20622" lon="2.776115">
<ele>861.7</ele>
<time>2013-05-08T12:35:34.999Z</time>
</trkpt>
<trkpt lat="44.206221" lon="2.776114">
<ele>861.7</ele>
<time>2013-05-08T12:35:35.999Z</time>
</trkpt>
<trkpt lat="44.206182" lon="2.776139">
<ele>861.4</ele>
<time>2013-05-08T12:36:16.999Z</time>
</trkpt>
<trkpt lat="44.206179" lon="2.776138">
<ele>861.4</ele>
<time>2013-05-08T12:36:17.999Z</time>
</trkpt>
<trkpt lat="44.206222" lon="2.776144">
<ele>861.4</ele>
<time>2013-05-08T12:37:14.999Z</time>
</trkpt>
<trkpt lat="44.206226" lon="2.776143">
<ele>861.4</ele>
<time>2013-05-08T12:37:15.999Z</time>
</trkpt>
<trkpt lat="44.206209" lon="2.776087">
<ele>861</ele>
<time>2013-05-08T12:37:41.999Z</time>
</trkpt>
<trkpt lat="44.206207" lon="2.776077">
<ele>861</ele>
<time>2013-05-08T12:37:42.999Z</time>
</trkpt>
<trkpt lat="44.206206" lon="2.776135">
<ele>861.1</ele>
<time>2013-05-08T12:38:17.999Z</time>
</trkpt>
<trkpt lat="44.206206" lon="2.776139">
<ele>861.1</ele>
<time>2013-05-08T12:38:18.999Z</time>
</trkpt>
<trkpt lat="44.206191" lon="2.776105">
<ele>861.4</ele>
<time>2013-05-08T12:38:35.999Z</time>
</trkpt>
<trkpt lat="44.206169" lon="2.776101">
<ele>861.4</ele>
<time>2013-05-08T12:38:36.999Z</time>
</trkpt>
<trkpt lat="44.206118" lon="2.776106">
<ele>861.2</ele>
<time>2013-05-08T12:38:37.999Z</time>
</trkpt>
<trkpt lat="44.206073" lon="2.776139">
<ele>861.1</ele>
<time>2013-05-08T12:38:38.999Z</time>
</trkpt>
<trkpt lat="44.206023" lon="2.776177">
<ele>861.3</ele>
<time>2013-05-08T12:38:39.999Z</time>
</trkpt>
<trkpt lat="44.205961" lon="2.776215">
<ele>861.5</ele>
<time>2013-05-08T12:38:40.999Z</time>
</trkpt>
<trkpt lat="44.20591" lon="2.776247">
<ele>861.7</ele>
<time>2013-05-08T12:38:41.999Z</time>
</trkpt>
<trkpt lat="44.205835" lon="2.776264">
<ele>861.9</ele>
<time>2013-05-08T12:38:42.999Z</time>
</trkpt>
<trkpt lat="44.20576" lon="2.776274">
<ele>862.1</ele>
<time>2013-05-08T12:38:43.999Z</time>
</trkpt>
<trkpt lat="44.205683" lon="2.776272">
<ele>862.1</ele>
<time>2013-05-08T12:38:44.999Z</time>
</trkpt>
<trkpt lat="44.20561" lon="2.776233">
<ele>861.9</ele>
<time>2013-05-08T12:38:45.999Z</time>
</trkpt>
<trkpt lat="44.20553" lon="2.776192">
<ele>861.8</ele>
<time>2013-05-08T12:38:46.999Z</time>
</trkpt>
<trkpt lat="44.205452" lon="2.776169">
<ele>862</ele>
<time>2013-05-08T12:38:47.999Z</time>
</trkpt>
<trkpt lat="44.205375" lon="2.776152">
<ele>862.1</ele>
<time>2013-05-08T12:38:48.999Z</time>
</trkpt>
<trkpt lat="44.205309" lon="2.776167">
<ele>862.2</ele>
<time>2013-05-08T12:38:49.999Z</time>
</trkpt>
<trkpt lat="44.205251" lon="2.776179">
<ele>862.3</ele>
<time>2013-05-08T12:38:50.999Z</time>
</trkpt>
<trkpt lat="44.205185" lon="2.776194">
<ele>862.1</ele>
<time>2013-05-08T12:38:51.999Z</time>
</trkpt>
<trkpt lat="44.205118" lon="2.776209">
<ele>861.9</ele>
<time>2013-05-08T12:38:52.999Z</time>
</trkpt>
<trkpt lat="44.205052" lon="2.77622">
<ele>861.7</ele>
<time>2013-05-08T12:38:53.999Z</time>
</trkpt>
<trkpt lat="44.204985" lon="2.776232">
<ele>861.4</ele>
<time>2013-05-08T12:38:54.999Z</time>
</trkpt>
<trkpt lat="44.204922" lon="2.776248">
<ele>861.1</ele>
<time>2013-05-08T12:38:55.999Z</time>
</trkpt>
<trkpt lat="44.204872" lon="2.77629">
<ele>860.6</ele>
<time>2013-05-08T12:38:56.999Z</time>
</trkpt>
<trkpt lat="44.204838" lon="2.77633">
<ele>860.1</ele>
<time>2013-05-08T12:38:57.999Z</time>
</trkpt>
<trkpt lat="44.204825" lon="2.776378">
<ele>860.1</ele>
<time>2013-05-08T12:38:58.999Z</time>
</trkpt>
<trkpt lat="44.204851" lon="2.776439">
<ele>860.1</ele>
<time>2013-05-08T12:38:59.999Z</time>
</trkpt>
<trkpt lat="44.204882" lon="2.776476">
<ele>860</ele>
<time>2013-05-08T12:39:00.999Z</time>
</trkpt>
<trkpt lat="44.204914" lon="2.776509">
<ele>860</ele>
<time>2013-05-08T12:39:01.999Z</time>
</trkpt>
<trkpt lat="44.20495" lon="2.776545">
<ele>859.9</ele>
<time>2013-05-08T12:39:02.999Z</time>
</trkpt>
<trkpt lat="44.20499" lon="2.776587">
<ele>859.4</ele>
<time>2013-05-08T12:39:03.999Z</time>
</trkpt>
<trkpt lat="44.205029" lon="2.776627">
<ele>858.9</ele>
<time>2013-05-08T12:39:04.999Z</time>
</trkpt>
<trkpt lat="44.205069" lon="2.776668">
<ele>858.6</ele>
<time>2013-05-08T12:39:05.999Z</time>
</trkpt>
<trkpt lat="44.205103" lon="2.776706">
<ele>858.6</ele>
<time>2013-05-08T12:39:06.999Z</time>
</trkpt>
<trkpt lat="44.20514" lon="2.776743">
<ele>858.9</ele>
<time>2013-05-08T12:39:07.999Z</time>
</trkpt>
<trkpt lat="44.205178" lon="2.776783">
<ele>859.2</ele>
<time>2013-05-08T12:39:08.999Z</time>
</trkpt>
<trkpt lat="44.20522" lon="2.776829">
<ele>860</ele>
<time>2013-05-08T12:39:09.999Z</time>
</trkpt>
<trkpt lat="44.20526" lon="2.776876">
<ele>860.8</ele>
<time>2013-05-08T12:39:10.999Z</time>
</trkpt>
<trkpt lat="44.205308" lon="2.776928">
<ele>861.4</ele>
<time>2013-05-08T12:39:11.999Z</time>
</trkpt>
<trkpt lat="44.205361" lon="2.776983">
<ele>861.9</ele>
<time>2013-05-08T12:39:12.999Z</time>
</trkpt>
<trkpt lat="44.205418" lon="2.777041">
<ele>862.2</ele>
<time>2013-05-08T12:39:13.999Z</time>
</trkpt>
<trkpt lat="44.205473" lon="2.777096">
<ele>862.9</ele>
<time>2013-05-08T12:39:14.999Z</time>
</trkpt>
<trkpt lat="44.205526" lon="2.777149">
<ele>863.6</ele>
<time>2013-05-08T12:39:15.999Z</time>
</trkpt>
<trkpt lat="44.205587" lon="2.777174">
<ele>864.6</ele>
<time>2013-05-08T12:39:16.999Z</time>
</trkpt>
<trkpt lat="44.205651" lon="2.777179">
<ele>865.5</ele>
<time>2013-05-08T12:39:17.999Z</time>
</trkpt>
<trkpt lat="44.205722" lon="2.777182">
<ele>866.1</ele>
<time>2013-05-08T12:39:18.999Z</time>
</trkpt>
<trkpt lat="44.205793" lon="2.777185">
<ele>866.3</ele>
<time>2013-05-08T12:39:19.999Z</time>
</trkpt>
<trkpt lat="44.205866" lon="2.77719">
<ele>866.2</ele>
<time>2013-05-08T12:39:20.999Z</time>
</trkpt>
<trkpt lat="44.205951" lon="2.7772">
<ele>866.4</ele>
<time>2013-05-08T12:39:21.999Z</time>
</trkpt>
<trkpt lat="44.206031" lon="2.777216">
<ele>866.5</ele>
<time>2013-05-08T12:39:22.999Z</time>
</trkpt>
<trkpt lat="44.206115" lon="2.777236">
<ele>866.7</ele>
<time>2013-05-08T12:39:23.999Z</time>
</trkpt>
<trkpt lat="44.206193" lon="2.777255">
<ele>866.9</ele>
<time>2013-05-08T12:39:24.999Z</time>
</trkpt>
<trkpt lat="44.206258" lon="2.777277">
<ele>867.1</ele>
<time>2013-05-08T12:39:25.999Z</time>
</trkpt>
<trkpt lat="44.206321" lon="2.777299">
<ele>867.4</ele>
<time>2013-05-08T12:39:26.999Z</time>
</trkpt>
<trkpt lat="44.206386" lon="2.777315">
<ele>867.9</ele>
<time>2013-05-08T12:39:27.999Z</time>
</trkpt>
<trkpt lat="44.206447" lon="2.777324">
<ele>868.5</ele>
<time>2013-05-08T12:39:28.999Z</time>
</trkpt>
<trkpt lat="44.206509" lon="2.777325">
<ele>868.9</ele>
<time>2013-05-08T12:39:29.999Z</time>
</trkpt>
<trkpt lat="44.206573" lon="2.777302">
<ele>869.7</ele>
<time>2013-05-08T12:39:30.999Z</time>
</trkpt>
<trkpt lat="44.206643" lon="2.777276">
<ele>870.6</ele>
<time>2013-05-08T12:39:31.999Z</time>
</trkpt>
<trkpt lat="44.206707" lon="2.77725">
<ele>871.6</ele>
<time>2013-05-08T12:39:32.999Z</time>
</trkpt>
<trkpt lat="44.206765" lon="2.777227">
<ele>872.5</ele>
<time>2013-05-08T12:39:33.999Z</time>
</trkpt>
<trkpt lat="44.20681" lon="2.777227">
<ele>872.6</ele>
<time>2013-05-08T12:39:34.999Z</time>
</trkpt>
<trkpt lat="44.206844" lon="2.77723">
<ele>872.7</ele>
<time>2013-05-08T12:39:35.999Z</time>
</trkpt>
<trkpt lat="44.206863" lon="2.777248">
<ele>872.8</ele>
<time>2013-05-08T12:39:36.999Z</time>
</trkpt>
<trkpt lat="44.20689" lon="2.777288">
<ele>873</ele>
<time>2013-05-08T12:39:38.999Z</time>
</trkpt>
<trkpt lat="44.206895" lon="2.777311">
<ele>873.1</ele>
<time>2013-05-08T12:39:39.999Z</time>
</trkpt>
<trkpt lat="44.206903" lon="2.777353">
<ele>873.2</ele>
<time>2013-05-08T12:39:41.999Z</time>
</trkpt>
<trkpt lat="44.206894" lon="2.777384">
<ele>873.3</ele>
<time>2013-05-08T12:39:42.999Z</time>
</trkpt>
<trkpt lat="44.206882" lon="2.777418">
<ele>873.4</ele>
<time>2013-05-08T12:39:43.999Z</time>
</trkpt>
<trkpt lat="44.206855" lon="2.777447">
<ele>873.5</ele>
<time>2013-05-08T12:39:44.999Z</time>
</trkpt>
<trkpt lat="44.206822" lon="2.777482">
<ele>873.6</ele>
<time>2013-05-08T12:39:45.999Z</time>
</trkpt>
<trkpt lat="44.206775" lon="2.777509">
<ele>874.5</ele>
<time>2013-05-08T12:39:46.999Z</time>
</trkpt>
<trkpt lat="44.206726" lon="2.777531">
<ele>875.1</ele>
<time>2013-05-08T12:39:47.999Z</time>
</trkpt>
<trkpt lat="44.206671" lon="2.777554">
<ele>875.7</ele>
<time>2013-05-08T12:39:48.999Z</time>
</trkpt>
<trkpt lat="44.20662" lon="2.777573">
<ele>876.3</ele>
<time>2013-05-08T12:39:49.999Z</time>
</trkpt>
<trkpt lat="44.206565" lon="2.777592">
<ele>877</ele>
<time>2013-05-08T12:39:50.999Z</time>
</trkpt>
<trkpt lat="44.206507" lon="2.77761">
<ele>878</ele>
<time>2013-05-08T12:39:51.999Z</time>
</trkpt>
<trkpt lat="44.206441" lon="2.777635">
<ele>878.7</ele>
<time>2013-05-08T12:39:52.999Z</time>
</trkpt>
<trkpt lat="44.206362" lon="2.777667">
<ele>879.4</ele>
<time>2013-05-08T12:39:53.999Z</time>
</trkpt>
<trkpt lat="44.206282" lon="2.777698">
<ele>879.7</ele>
<time>2013-05-08T12:39:54.999Z</time>
</trkpt>
<trkpt lat="44.206204" lon="2.77773">
<ele>879.6</ele>
<time>2013-05-08T12:39:55.999Z</time>
</trkpt>
<trkpt lat="44.206126" lon="2.777763">
<ele>879.8</ele>
<time>2013-05-08T12:39:56.999Z</time>
</trkpt>
<trkpt lat="44.206049" lon="2.777796">
<ele>879.9</ele>
<time>2013-05-08T12:39:57.999Z</time>
</trkpt>
<trkpt lat="44.205971" lon="2.777829">
<ele>880.2</ele>
<time>2013-05-08T12:39:58.999Z</time>
</trkpt>
<trkpt lat="44.205889" lon="2.777864">
<ele>880.3</ele>
<time>2013-05-08T12:39:59.999Z</time>
</trkpt>
<trkpt lat="44.205807" lon="2.777895">
<ele>879.9</ele>
<time>2013-05-08T12:40:00.999Z</time>
</trkpt>
<trkpt lat="44.205724" lon="2.777929">
<ele>879.7</ele>
<time>2013-05-08T12:40:01.999Z</time>
</trkpt>
<trkpt lat="44.205641" lon="2.777965">
<ele>879.4</ele>
<time>2013-05-08T12:40:02.999Z</time>
</trkpt>
<trkpt lat="44.205558" lon="2.778004">
<ele>879.3</ele>
<time>2013-05-08T12:40:03.999Z</time>
</trkpt>
<trkpt lat="44.205473" lon="2.778042">
<ele>878.9</ele>
<time>2013-05-08T12:40:04.999Z</time>
</trkpt>
<trkpt lat="44.205383" lon="2.77808">
<ele>878.6</ele>
<time>2013-05-08T12:40:05.999Z</time>
</trkpt>
<trkpt lat="44.20529" lon="2.77812">
<ele>878.5</ele>
<time>2013-05-08T12:40:06.999Z</time>
</trkpt>
<trkpt lat="44.205196" lon="2.778159">
<ele>878</ele>
<time>2013-05-08T12:40:07.999Z</time>
</trkpt>
<trkpt lat="44.205093" lon="2.778204">
<ele>877.8</ele>
<time>2013-05-08T12:40:09.000Z</time>
</trkpt>
<trkpt lat="44.204986" lon="2.778256">
<ele>877.5</ele>
<time>2013-05-08T12:40:10.000Z</time>
</trkpt>
<trkpt lat="44.20487" lon="2.778298">
<ele>877.1</ele>
<time>2013-05-08T12:40:11.000Z</time>
</trkpt>
<trkpt lat="44.204749" lon="2.778328">
<ele>876.9</ele>
<time>2013-05-08T12:40:12.000Z</time>
</trkpt>
<trkpt lat="44.204629" lon="2.778342">
<ele>876.9</ele>
<time>2013-05-08T12:40:13.000Z</time>
</trkpt>
<trkpt lat="44.204508" lon="2.778315">
<ele>877.3</ele>
<time>2013-05-08T12:40:14.000Z</time>
</trkpt>
<trkpt lat="44.20438" lon="2.778279">
<ele>877.9</ele>
<time>2013-05-08T12:40:15.000Z</time>
</trkpt>
<trkpt lat="44.204258" lon="2.778224">
<ele>878.4</ele>
<time>2013-05-08T12:40:16.000Z</time>
</trkpt>
<trkpt lat="44.204138" lon="2.778156">
<ele>878.7</ele>
<time>2013-05-08T12:40:17.000Z</time>
</trkpt>
<trkpt lat="44.204011" lon="2.77809">
<ele>878.9</ele>
<time>2013-05-08T12:40:18.000Z</time>
</trkpt>
<trkpt lat="44.203883" lon="2.778024">
<ele>879</ele>
<time>2013-05-08T12:40:19.000Z</time>
</trkpt>
<trkpt lat="44.203754" lon="2.777958">
<ele>879.2</ele>
<time>2013-05-08T12:40:20.000Z</time>
</trkpt>
<trkpt lat="44.203629" lon="2.777894">
<ele>879.4</ele>
<time>2013-05-08T12:40:21.000Z</time>
</trkpt>
<trkpt lat="44.203506" lon="2.777834">
<ele>879.1</ele>
<time>2013-05-08T12:40:22.000Z</time>
</trkpt>
<trkpt lat="44.203378" lon="2.777774">
<ele>878.5</ele>
<time>2013-05-08T12:40:23.000Z</time>
</trkpt>
<trkpt lat="44.203252" lon="2.777707">
<ele>878.1</ele>
<time>2013-05-08T12:40:24.000Z</time>
</trkpt>
<trkpt lat="44.203128" lon="2.77764">
<ele>877.4</ele>
<time>2013-05-08T12:40:25.000Z</time>
</trkpt>
<trkpt lat="44.202995" lon="2.777587">
<ele>877.2</ele>
<time>2013-05-08T12:40:26.000Z</time>
</trkpt>
<trkpt lat="44.202853" lon="2.777529">
<ele>876</ele>
<time>2013-05-08T12:40:27.000Z</time>
</trkpt>
<trkpt lat="44.20271" lon="2.777469">
<ele>875.1</ele>
<time>2013-05-08T12:40:28.000Z</time>
</trkpt>
<trkpt lat="44.20257" lon="2.777419">
<ele>874.7</ele>
<time>2013-05-08T12:40:29.000Z</time>
</trkpt>
<trkpt lat="44.202425" lon="2.777382">
<ele>874.8</ele>
<time>2013-05-08T12:40:30.000Z</time>
</trkpt>
<trkpt lat="44.202278" lon="2.777359">
<ele>874.9</ele>
<time>2013-05-08T12:40:31.000Z</time>
</trkpt>
<trkpt lat="44.202136" lon="2.777345">
<ele>875.4</ele>
<time>2013-05-08T12:40:32.000Z</time>
</trkpt>
<trkpt lat="44.202001" lon="2.777337">
<ele>875.5</ele>
<time>2013-05-08T12:40:33.000Z</time>
</trkpt>
<trkpt lat="44.201863" lon="2.777337">
<ele>875.4</ele>
<time>2013-05-08T12:40:34.000Z</time>
</trkpt>
<trkpt lat="44.201724" lon="2.777324">
<ele>875.3</ele>
<time>2013-05-08T12:40:35.000Z</time>
</trkpt>
<trkpt lat="44.201596" lon="2.777249">
<ele>875.2</ele>
<time>2013-05-08T12:40:36.000Z</time>
</trkpt>
<trkpt lat="44.201472" lon="2.777161">
<ele>875</ele>
<time>2013-05-08T12:40:37.000Z</time>
</trkpt>
<trkpt lat="44.201359" lon="2.777059">
<ele>874.6</ele>
<time>2013-05-08T12:40:38.000Z</time>
</trkpt>
<trkpt lat="44.201252" lon="2.776948">
<ele>874.1</ele>
<time>2013-05-08T12:40:39.000Z</time>
</trkpt>
<trkpt lat="44.201157" lon="2.776836">
<ele>873.8</ele>
<time>2013-05-08T12:40:40.000Z</time>
</trkpt>
<trkpt lat="44.201066" lon="2.77672">
<ele>873.7</ele>
<time>2013-05-08T12:40:41.000Z</time>
</trkpt>
<trkpt lat="44.200986" lon="2.77661">
<ele>873.9</ele>
<time>2013-05-08T12:40:42.000Z</time>
</trkpt>
<trkpt lat="44.2009" lon="2.776499">
<ele>874</ele>
<time>2013-05-08T12:40:43.000Z</time>
</trkpt>
<trkpt lat="44.200811" lon="2.776397">
<ele>873.9</ele>
<time>2013-05-08T12:40:44.000Z</time>
</trkpt>
<trkpt lat="44.200724" lon="2.776296">
<ele>873.7</ele>
<time>2013-05-08T12:40:45.000Z</time>
</trkpt>
<trkpt lat="44.200631" lon="2.776213">
<ele>873.4</ele>
<time>2013-05-08T12:40:46.000Z</time>
</trkpt>
<trkpt lat="44.200527" lon="2.776135">
<ele>873</ele>
<time>2013-05-08T12:40:47.000Z</time>
</trkpt>
<trkpt lat="44.200417" lon="2.776064">
<ele>872.4</ele>
<time>2013-05-08T12:40:48.000Z</time>
</trkpt>
<trkpt lat="44.2003" lon="2.776001">
<ele>871.9</ele>
<time>2013-05-08T12:40:49.000Z</time>
</trkpt>
<trkpt lat="44.200177" lon="2.775952">
<ele>871.2</ele>
<time>2013-05-08T12:40:50.000Z</time>
</trkpt>
<trkpt lat="44.200042" lon="2.775965">
<ele>870.4</ele>
<time>2013-05-08T12:40:51.000Z</time>
</trkpt>
<trkpt lat="44.199896" lon="2.775985">
<ele>869.7</ele>
<time>2013-05-08T12:40:52.000Z</time>
</trkpt>
<trkpt lat="44.199754" lon="2.776016">
<ele>869.2</ele>
<time>2013-05-08T12:40:53.000Z</time>
</trkpt>
<trkpt lat="44.199616" lon="2.776048">
<ele>869</ele>
<time>2013-05-08T12:40:54.000Z</time>
</trkpt>
<trkpt lat="44.199481" lon="2.776089">
<ele>868.8</ele>
<time>2013-05-08T12:40:55.000Z</time>
</trkpt>
<trkpt lat="44.199337" lon="2.776136">
<ele>868.8</ele>
<time>2013-05-08T12:40:56.000Z</time>
</trkpt>
<trkpt lat="44.199195" lon="2.776185">
<ele>868.9</ele>
<time>2013-05-08T12:40:57.000Z</time>
</trkpt>
<trkpt lat="44.19907" lon="2.776232">
<ele>869</ele>
<time>2013-05-08T12:40:58.000Z</time>
</trkpt>
<trkpt lat="44.19894" lon="2.776239">
<ele>869.1</ele>
<time>2013-05-08T12:40:59.000Z</time>
</trkpt>
<trkpt lat="44.198814" lon="2.776198">
<ele>869</ele>
<time>2013-05-08T12:41:00.000Z</time>
</trkpt>
<trkpt lat="44.198694" lon="2.776117">
<ele>869</ele>
<time>2013-05-08T12:41:01.000Z</time>
</trkpt>
<trkpt lat="44.198573" lon="2.776024">
<ele>869</ele>
<time>2013-05-08T12:41:02.000Z</time>
</trkpt>
<trkpt lat="44.198451" lon="2.775933">
<ele>869.4</ele>
<time>2013-05-08T12:41:03.000Z</time>
</trkpt>
<trkpt lat="44.198324" lon="2.775874">
<ele>869.7</ele>
<time>2013-05-08T12:41:04.000Z</time>
</trkpt>
<trkpt lat="44.198191" lon="2.775828">
<ele>869.9</ele>
<time>2013-05-08T12:41:05.000Z</time>
</trkpt>
<trkpt lat="44.198057" lon="2.775783">
<ele>869.8</ele>
<time>2013-05-08T12:41:06.000Z</time>
</trkpt>
<trkpt lat="44.197921" lon="2.775737">
<ele>869.8</ele>
<time>2013-05-08T12:41:07.000Z</time>
</trkpt>
<trkpt lat="44.197792" lon="2.775678">
<ele>869.8</ele>
<time>2013-05-08T12:41:08.000Z</time>
</trkpt>
<trkpt lat="44.197684" lon="2.775576">
<ele>870</ele>
<time>2013-05-08T12:41:09.000Z</time>
</trkpt>
<trkpt lat="44.197594" lon="2.77544">
<ele>870.4</ele>
<time>2013-05-08T12:41:10.000Z</time>
</trkpt>
<trkpt lat="44.197497" lon="2.775287">
<ele>871.5</ele>
<time>2013-05-08T12:41:11.000Z</time>
</trkpt>
<trkpt lat="44.197379" lon="2.775164">
<ele>872.6</ele>
<time>2013-05-08T12:41:12.000Z</time>
</trkpt>
<trkpt lat="44.197275" lon="2.775063">
<ele>873.3</ele>
<time>2013-05-08T12:41:13.000Z</time>
</trkpt>
<trkpt lat="44.197172" lon="2.775008">
<ele>874.2</ele>
<time>2013-05-08T12:41:14.000Z</time>
</trkpt>
<trkpt lat="44.197074" lon="2.774968">
<ele>874.4</ele>
<time>2013-05-08T12:41:15.000Z</time>
</trkpt>
<trkpt lat="44.196988" lon="2.774943">
<ele>874.3</ele>
<time>2013-05-08T12:41:16.000Z</time>
</trkpt>
<trkpt lat="44.196917" lon="2.774934">
<ele>874</ele>
<time>2013-05-08T12:41:17.000Z</time>
</trkpt>
<trkpt lat="44.196858" lon="2.774932">
<ele>873.8</ele>
<time>2013-05-08T12:41:18.000Z</time>
</trkpt>
<trkpt lat="44.196797" lon="2.774932">
<ele>873.5</ele>
<time>2013-05-08T12:41:19.000Z</time>
</trkpt>
<trkpt lat="44.196748" lon="2.774941">
<ele>873.5</ele>
<time>2013-05-08T12:41:20.000Z</time>
</trkpt>
<trkpt lat="44.196699" lon="2.774951">
<ele>873.7</ele>
<time>2013-05-08T12:41:21.000Z</time>
</trkpt>
<trkpt lat="44.196658" lon="2.774961">
<ele>874</ele>
<time>2013-05-08T12:41:22.000Z</time>
</trkpt>
<trkpt lat="44.196623" lon="2.774972">
<ele>874.1</ele>
<time>2013-05-08T12:41:23.000Z</time>
</trkpt>
<trkpt lat="44.196585" lon="2.774982">
<ele>874.1</ele>
<time>2013-05-08T12:41:24.000Z</time>
</trkpt>
<trkpt lat="44.196554" lon="2.774992">
<ele>874.1</ele>
<time>2013-05-08T12:41:25.000Z</time>
</trkpt>
<trkpt lat="44.196524" lon="2.775001">
<ele>874.2</ele>
<time>2013-05-08T12:41:26.000Z</time>
</trkpt>
<trkpt lat="44.196492" lon="2.77501">
<ele>874.2</ele>
<time>2013-05-08T12:41:27.000Z</time>
</trkpt>
<trkpt lat="44.19645" lon="2.77502">
<ele>874.1</ele>
<time>2013-05-08T12:41:28.000Z</time>
</trkpt>
<trkpt lat="44.196394" lon="2.775035">
<ele>873.9</ele>
<time>2013-05-08T12:41:29.000Z</time>
</trkpt>
<trkpt lat="44.19634" lon="2.77505">
<ele>873.8</ele>
<time>2013-05-08T12:41:30.000Z</time>
</trkpt>
<trkpt lat="44.196283" lon="2.775067">
<ele>873.7</ele>
<time>2013-05-08T12:41:31.000Z</time>
</trkpt>
<trkpt lat="44.196222" lon="2.775084">
<ele>873.7</ele>
<time>2013-05-08T12:41:32.000Z</time>
</trkpt>
<trkpt lat="44.196161" lon="2.7751">
<ele>873.9</ele>
<time>2013-05-08T12:41:33.000Z</time>
</trkpt>
<trkpt lat="44.196098" lon="2.775115">
<ele>873.9</ele>
<time>2013-05-08T12:41:34.000Z</time>
</trkpt>
<trkpt lat="44.196033" lon="2.77513">
<ele>873.8</ele>
<time>2013-05-08T12:41:35.000Z</time>
</trkpt>
<trkpt lat="44.195963" lon="2.775147">
<ele>873.6</ele>
<time>2013-05-08T12:41:36.000Z</time>
</trkpt>
<trkpt lat="44.195888" lon="2.775166">
<ele>873.5</ele>
<time>2013-05-08T12:41:37.000Z</time>
</trkpt>
<trkpt lat="44.19581" lon="2.775185">
<ele>873.4</ele>
<time>2013-05-08T12:41:38.000Z</time>
</trkpt>
<trkpt lat="44.195738" lon="2.775205">
<ele>873.4</ele>
<time>2013-05-08T12:41:39.000Z</time>
</trkpt>
<trkpt lat="44.195667" lon="2.775227">
<ele>873.5</ele>
<time>2013-05-08T12:41:40.000Z</time>
</trkpt>
<trkpt lat="44.195593" lon="2.775251">
<ele>873.5</ele>
<time>2013-05-08T12:41:41.000Z</time>
</trkpt>
<trkpt lat="44.19551" lon="2.775279">
<ele>873.8</ele>
<time>2013-05-08T12:41:42.000Z</time>
</trkpt>
<trkpt lat="44.195426" lon="2.775312">
<ele>873.9</ele>
<time>2013-05-08T12:41:43.000Z</time>
</trkpt>
<trkpt lat="44.195342" lon="2.775348">
<ele>873.8</ele>
<time>2013-05-08T12:41:44.000Z</time>
</trkpt>
<trkpt lat="44.195256" lon="2.775387">
<ele>873.5</ele>
<time>2013-05-08T12:41:45.000Z</time>
</trkpt>
<trkpt lat="44.195171" lon="2.775427">
<ele>873.1</ele>
<time>2013-05-08T12:41:46.000Z</time>
</trkpt>
<trkpt lat="44.195083" lon="2.775474">
<ele>872.9</ele>
<time>2013-05-08T12:41:47.000Z</time>
</trkpt>
<trkpt lat="44.19499" lon="2.775527">
<ele>872.9</ele>
<time>2013-05-08T12:41:48.000Z</time>
</trkpt>
<trkpt lat="44.194898" lon="2.775582">
<ele>873.2</ele>
<time>2013-05-08T12:41:49.000Z</time>
</trkpt>
<trkpt lat="44.194808" lon="2.775641">
<ele>873.5</ele>
<time>2013-05-08T12:41:50.000Z</time>
</trkpt>
<trkpt lat="44.194714" lon="2.775705">
<ele>873.5</ele>
<time>2013-05-08T12:41:51.000Z</time>
</trkpt>
<trkpt lat="44.194625" lon="2.775776">
<ele>873.8</ele>
<time>2013-05-08T12:41:52.000Z</time>
</trkpt>
<trkpt lat="44.194538" lon="2.775861">
<ele>874</ele>
<time>2013-05-08T12:41:53.000Z</time>
</trkpt>
<trkpt lat="44.194461" lon="2.775975">
<ele>873.9</ele>
<time>2013-05-08T12:41:54.000Z</time>
</trkpt>
<trkpt lat="44.194385" lon="2.776097">
<ele>873.6</ele>
<time>2013-05-08T12:41:55.000Z</time>
</trkpt>
<trkpt lat="44.194343" lon="2.776251">
<ele>873.2</ele>
<time>2013-05-08T12:41:56.000Z</time>
</trkpt>
<trkpt lat="44.194314" lon="2.776412">
<ele>872.9</ele>
<time>2013-05-08T12:41:57.000Z</time>
</trkpt>
<trkpt lat="44.194314" lon="2.776595">
<ele>872.3</ele>
<time>2013-05-08T12:41:58.000Z</time>
</trkpt>
<trkpt lat="44.194314" lon="2.776786">
<ele>872</ele>
<time>2013-05-08T12:41:59.000Z</time>
</trkpt>
<trkpt lat="44.194311" lon="2.776978">
<ele>871.6</ele>
<time>2013-05-08T12:42:00.000Z</time>
</trkpt>
<trkpt lat="44.194299" lon="2.777163">
<ele>871.3</ele>
<time>2013-05-08T12:42:01.000Z</time>
</trkpt>
<trkpt lat="44.19428" lon="2.777345">
<ele>871.4</ele>
<time>2013-05-08T12:42:02.000Z</time>
</trkpt>
<trkpt lat="44.194257" lon="2.777539">
<ele>872.2</ele>
<time>2013-05-08T12:42:03.000Z</time>
</trkpt>
<trkpt lat="44.194236" lon="2.777726">
<ele>872.8</ele>
<time>2013-05-08T12:42:04.000Z</time>
</trkpt>
<trkpt lat="44.194226" lon="2.777905">
<ele>873.3</ele>
<time>2013-05-08T12:42:05.000Z</time>
</trkpt>
<trkpt lat="44.194227" lon="2.778078">
<ele>873.6</ele>
<time>2013-05-08T12:42:06.000Z</time>
</trkpt>
<trkpt lat="44.194233" lon="2.778229">
<ele>873.9</ele>
<time>2013-05-08T12:42:07.000Z</time>
</trkpt>
<trkpt lat="44.194231" lon="2.778359">
<ele>874.3</ele>
<time>2013-05-08T12:42:08.000Z</time>
</trkpt>
<trkpt lat="44.194226" lon="2.778483">
<ele>874.7</ele>
<time>2013-05-08T12:42:09.000Z</time>
</trkpt>
<trkpt lat="44.194159" lon="2.77856">
<ele>875</ele>
<time>2013-05-08T12:42:10.000Z</time>
</trkpt>
<trkpt lat="44.194077" lon="2.778643">
<ele>875.4</ele>
<time>2013-05-08T12:42:11.000Z</time>
</trkpt>
<trkpt lat="44.193971" lon="2.778682">
<ele>875.3</ele>
<time>2013-05-08T12:42:12.000Z</time>
</trkpt>
<trkpt lat="44.193861" lon="2.778712">
<ele>874.8</ele>
<time>2013-05-08T12:42:13.000Z</time>
</trkpt>
<trkpt lat="44.193749" lon="2.778752">
<ele>874.4</ele>
<time>2013-05-08T12:42:14.000Z</time>
</trkpt>
<trkpt lat="44.193643" lon="2.778836">
<ele>874.2</ele>
<time>2013-05-08T12:42:15.000Z</time>
</trkpt>
<trkpt lat="44.193554" lon="2.778946">
<ele>874.1</ele>
<time>2013-05-08T12:42:16.000Z</time>
</trkpt>
<trkpt lat="44.193463" lon="2.779076">
<ele>873.8</ele>
<time>2013-05-08T12:42:17.000Z</time>
</trkpt>
<trkpt lat="44.193378" lon="2.77922">
<ele>873.3</ele>
<time>2013-05-08T12:42:18.000Z</time>
</trkpt>
<trkpt lat="44.193298" lon="2.779374">
<ele>873</ele>
<time>2013-05-08T12:42:19.000Z</time>
</trkpt>
<trkpt lat="44.193227" lon="2.779535">
<ele>872.9</ele>
<time>2013-05-08T12:42:20.000Z</time>
</trkpt>
<trkpt lat="44.193157" lon="2.779705">
<ele>872.8</ele>
<time>2013-05-08T12:42:21.000Z</time>
</trkpt>
<trkpt lat="44.193092" lon="2.77988">
<ele>872.8</ele>
<time>2013-05-08T12:42:22.000Z</time>
</trkpt>
<trkpt lat="44.19303" lon="2.780062">
<ele>872.9</ele>
<time>2013-05-08T12:42:23.000Z</time>
</trkpt>
<trkpt lat="44.192977" lon="2.78025">
<ele>873</ele>
<time>2013-05-08T12:42:24.000Z</time>
</trkpt>
<trkpt lat="44.192956" lon="2.780462">
<ele>873</ele>
<time>2013-05-08T12:42:25.000Z</time>
</trkpt>
<trkpt lat="44.192938" lon="2.780679">
<ele>872.9</ele>
<time>2013-05-08T12:42:26.000Z</time>
</trkpt>
<trkpt lat="44.192919" lon="2.7809">
<ele>872.8</ele>
<time>2013-05-08T12:42:27.000Z</time>
</trkpt>
<trkpt lat="44.192899" lon="2.781116">
<ele>872.5</ele>
<time>2013-05-08T12:42:28.000Z</time>
</trkpt>
<trkpt lat="44.192877" lon="2.781326">
<ele>872.3</ele>
<time>2013-05-08T12:42:29.000Z</time>
</trkpt>
<trkpt lat="44.192853" lon="2.781535">
<ele>872.1</ele>
<time>2013-05-08T12:42:30.000Z</time>
</trkpt>
<trkpt lat="44.192824" lon="2.781742">
<ele>871.7</ele>
<time>2013-05-08T12:42:31.000Z</time>
</trkpt>
<trkpt lat="44.192795" lon="2.781945">
<ele>871.2</ele>
<time>2013-05-08T12:42:32.000Z</time>
</trkpt>
<trkpt lat="44.192766" lon="2.782144">
<ele>870.9</ele>
<time>2013-05-08T12:42:33.000Z</time>
</trkpt>
<trkpt lat="44.192744" lon="2.78233">
<ele>870.4</ele>
<time>2013-05-08T12:42:34.000Z</time>
</trkpt>
<trkpt lat="44.192732" lon="2.782516">
<ele>869.8</ele>
<time>2013-05-08T12:42:35.000Z</time>
</trkpt>
<trkpt lat="44.19273" lon="2.782706">
<ele>869.4</ele>
<time>2013-05-08T12:42:36.000Z</time>
</trkpt>
<trkpt lat="44.19274" lon="2.7829">
<ele>869</ele>
<time>2013-05-08T12:42:37.000Z</time>
</trkpt>
<trkpt lat="44.192757" lon="2.783097">
<ele>868.7</ele>
<time>2013-05-08T12:42:38.000Z</time>
</trkpt>
<trkpt lat="44.192779" lon="2.783293">
<ele>868.5</ele>
<time>2013-05-08T12:42:39.000Z</time>
</trkpt>
<trkpt lat="44.192803" lon="2.783492">
<ele>868.4</ele>
<time>2013-05-08T12:42:40.000Z</time>
</trkpt>
<trkpt lat="44.192826" lon="2.78368">
<ele>868.3</ele>
<time>2013-05-08T12:42:41.000Z</time>
</trkpt>
<trkpt lat="44.192849" lon="2.783876">
<ele>868.6</ele>
<time>2013-05-08T12:42:42.000Z</time>
</trkpt>
<trkpt lat="44.192874" lon="2.784066">
<ele>869.2</ele>
<time>2013-05-08T12:42:43.000Z</time>
</trkpt>
<trkpt lat="44.192885" lon="2.784238">
<ele>870</ele>
<time>2013-05-08T12:42:44.000Z</time>
</trkpt>
<trkpt lat="44.192857" lon="2.784402">
<ele>870.9</ele>
<time>2013-05-08T12:42:45.000Z</time>
</trkpt>
<trkpt lat="44.192819" lon="2.784563">
<ele>872</ele>
<time>2013-05-08T12:42:46.000Z</time>
</trkpt>
<trkpt lat="44.192749" lon="2.784717">
<ele>873.4</ele>
<time>2013-05-08T12:42:47.000Z</time>
</trkpt>
<trkpt lat="44.192674" lon="2.784878">
<ele>874.5</ele>
<time>2013-05-08T12:42:48.000Z</time>
</trkpt>
<trkpt lat="44.192591" lon="2.785045">
<ele>875.1</ele>
<time>2013-05-08T12:42:49.000Z</time>
</trkpt>
<trkpt lat="44.192506" lon="2.785221">
<ele>875.7</ele>
<time>2013-05-08T12:42:50.000Z</time>
</trkpt>
<trkpt lat="44.192424" lon="2.785402">
<ele>875.9</ele>
<time>2013-05-08T12:42:51.000Z</time>
</trkpt>
<trkpt lat="44.192345" lon="2.785585">
<ele>876</ele>
<time>2013-05-08T12:42:52.000Z</time>
</trkpt>
<trkpt lat="44.192264" lon="2.785779">
<ele>875.8</ele>
<time>2013-05-08T12:42:53.000Z</time>
</trkpt>
<trkpt lat="44.192186" lon="2.785973">
<ele>875.5</ele>
<time>2013-05-08T12:42:54.000Z</time>
</trkpt>
<trkpt lat="44.19211" lon="2.786164">
<ele>875.2</ele>
<time>2013-05-08T12:42:55.000Z</time>
</trkpt>
<trkpt lat="44.192038" lon="2.786358">
<ele>874.9</ele>
<time>2013-05-08T12:42:56.000Z</time>
</trkpt>
<trkpt lat="44.191967" lon="2.786559">
<ele>874.6</ele>
<time>2013-05-08T12:42:57.000Z</time>
</trkpt>
<trkpt lat="44.191899" lon="2.786757">
<ele>874.3</ele>
<time>2013-05-08T12:42:58.000Z</time>
</trkpt>
<trkpt lat="44.191836" lon="2.786956">
<ele>874.2</ele>
<time>2013-05-08T12:42:59.000Z</time>
</trkpt>
<trkpt lat="44.19178" lon="2.787151">
<ele>874.1</ele>
<time>2013-05-08T12:43:00.000Z</time>
</trkpt>
<trkpt lat="44.191733" lon="2.787337">
<ele>874.1</ele>
<time>2013-05-08T12:43:01.000Z</time>
</trkpt>
<trkpt lat="44.19172" lon="2.787529">
<ele>874</ele>
<time>2013-05-08T12:43:02.000Z</time>
</trkpt>
<trkpt lat="44.191714" lon="2.787727">
<ele>873.7</ele>
<time>2013-05-08T12:43:03.000Z</time>
</trkpt>
<trkpt lat="44.191757" lon="2.787927">
<ele>873.4</ele>
<time>2013-05-08T12:43:04.000Z</time>
</trkpt>
<trkpt lat="44.191802" lon="2.788098">
<ele>872.9</ele>
<time>2013-05-08T12:43:05.000Z</time>
</trkpt>
<trkpt lat="44.191853" lon="2.788284">
<ele>872.3</ele>
<time>2013-05-08T12:43:06.000Z</time>
</trkpt>
<trkpt lat="44.191948" lon="2.788431">
<ele>871.4</ele>
<time>2013-05-08T12:43:07.000Z</time>
</trkpt>
<trkpt lat="44.19206" lon="2.788584">
<ele>870.2</ele>
<time>2013-05-08T12:43:08.000Z</time>
</trkpt>
<trkpt lat="44.192196" lon="2.788648">
<ele>869.3</ele>
<time>2013-05-08T12:43:09.000Z</time>
</trkpt>
<trkpt lat="44.192318" lon="2.788706">
<ele>868.5</ele>
<time>2013-05-08T12:43:10.000Z</time>
</trkpt>
<trkpt lat="44.192421" lon="2.788741">
<ele>867.7</ele>
<time>2013-05-08T12:43:11.000Z</time>
</trkpt>
<trkpt lat="44.192487" lon="2.78877">
<ele>867.2</ele>
<time>2013-05-08T12:43:12.000Z</time>
</trkpt>
<trkpt lat="44.192522" lon="2.788811">
<ele>866.7</ele>
<time>2013-05-08T12:43:13.000Z</time>
</trkpt>
<trkpt lat="44.192517" lon="2.788871">
<ele>865.6</ele>
<time>2013-05-08T12:43:15.000Z</time>
</trkpt>
<trkpt lat="44.19248" lon="2.788896">
<ele>865.2</ele>
<time>2013-05-08T12:43:16.000Z</time>
</trkpt>
<trkpt lat="44.192422" lon="2.788909">
<ele>865</ele>
<time>2013-05-08T12:43:17.000Z</time>
</trkpt>
<trkpt lat="44.192329" lon="2.788929">
<ele>865.1</ele>
<time>2013-05-08T12:43:18.000Z</time>
</trkpt>
<trkpt lat="44.19222" lon="2.788955">
<ele>865</ele>
<time>2013-05-08T12:43:19.000Z</time>
</trkpt>
<trkpt lat="44.192101" lon="2.788987">
<ele>865</ele>
<time>2013-05-08T12:43:20.000Z</time>
</trkpt>
<trkpt lat="44.191988" lon="2.789021">
<ele>865</ele>
<time>2013-05-08T12:43:21.000Z</time>
</trkpt>
<trkpt lat="44.191872" lon="2.789058">
<ele>864.6</ele>
<time>2013-05-08T12:43:22.000Z</time>
</trkpt>
<trkpt lat="44.191763" lon="2.789094">
<ele>864.1</ele>
<time>2013-05-08T12:43:23.000Z</time>
</trkpt>
<trkpt lat="44.191647" lon="2.789131">
<ele>863.5</ele>
<time>2013-05-08T12:43:24.000Z</time>
</trkpt>
<trkpt lat="44.191523" lon="2.789172">
<ele>863</ele>
<time>2013-05-08T12:43:25.000Z</time>
</trkpt>
<trkpt lat="44.191401" lon="2.78921">
<ele>862.3</ele>
<time>2013-05-08T12:43:26.000Z</time>
</trkpt>
<trkpt lat="44.191267" lon="2.789252">
<ele>861.6</ele>
<time>2013-05-08T12:43:27.000Z</time>
</trkpt>
<trkpt lat="44.191134" lon="2.789295">
<ele>861</ele>
<time>2013-05-08T12:43:28.000Z</time>
</trkpt>
<trkpt lat="44.190996" lon="2.78934">
<ele>860.6</ele>
<time>2013-05-08T12:43:29.000Z</time>
</trkpt>
<trkpt lat="44.190856" lon="2.789387">
<ele>860.3</ele>
<time>2013-05-08T12:43:30.000Z</time>
</trkpt>
<trkpt lat="44.190716" lon="2.789438">
<ele>860</ele>
<time>2013-05-08T12:43:31.000Z</time>
</trkpt>
<trkpt lat="44.190571" lon="2.7895">
<ele>859.7</ele>
<time>2013-05-08T12:43:32.000Z</time>
</trkpt>
<trkpt lat="44.190425" lon="2.789571">
<ele>859.5</ele>
<time>2013-05-08T12:43:33.000Z</time>
</trkpt>
<trkpt lat="44.19028" lon="2.789654">
<ele>859.3</ele>
<time>2013-05-08T12:43:34.000Z</time>
</trkpt>
<trkpt lat="44.190133" lon="2.78975">
<ele>859.3</ele>
<time>2013-05-08T12:43:35.000Z</time>
</trkpt>
<trkpt lat="44.189991" lon="2.789851">
<ele>859.4</ele>
<time>2013-05-08T12:43:36.000Z</time>
</trkpt>
<trkpt lat="44.189858" lon="2.789947">
<ele>859.7</ele>
<time>2013-05-08T12:43:37.000Z</time>
</trkpt>
<trkpt lat="44.189722" lon="2.790024">
<ele>860</ele>
<time>2013-05-08T12:43:38.000Z</time>
</trkpt>
<trkpt lat="44.189569" lon="2.790052">
<ele>860.3</ele>
<time>2013-05-08T12:43:39.000Z</time>
</trkpt>
<trkpt lat="44.18942" lon="2.790068">
<ele>860.8</ele>
<time>2013-05-08T12:43:40.000Z</time>
</trkpt>
<trkpt lat="44.189274" lon="2.790076">
<ele>861.1</ele>
<time>2013-05-08T12:43:41.000Z</time>
</trkpt>
<trkpt lat="44.189131" lon="2.790075">
<ele>861.3</ele>
<time>2013-05-08T12:43:42.000Z</time>
</trkpt>
<trkpt lat="44.188991" lon="2.790064">
<ele>861.6</ele>
<time>2013-05-08T12:43:43.000Z</time>
</trkpt>
<trkpt lat="44.188851" lon="2.789989">
<ele>862.3</ele>
<time>2013-05-08T12:43:44.000Z</time>
</trkpt>
<trkpt lat="44.188734" lon="2.789883">
<ele>862.8</ele>
<time>2013-05-08T12:43:45.000Z</time>
</trkpt>
<trkpt lat="44.188629" lon="2.789771">
<ele>862.9</ele>
<time>2013-05-08T12:43:46.000Z</time>
</trkpt>
<trkpt lat="44.188532" lon="2.789654">
<ele>862.4</ele>
<time>2013-05-08T12:43:47.000Z</time>
</trkpt>
<trkpt lat="44.188445" lon="2.789538">
<ele>861.9</ele>
<time>2013-05-08T12:43:48.000Z</time>
</trkpt>
<trkpt lat="44.188356" lon="2.789421">
<ele>861.3</ele>
<time>2013-05-08T12:43:49.000Z</time>
</trkpt>
<trkpt lat="44.188288" lon="2.789318">
<ele>860.8</ele>
<time>2013-05-08T12:43:50.000Z</time>
</trkpt>
<trkpt lat="44.18822" lon="2.789217">
<ele>860.4</ele>
<time>2013-05-08T12:43:51.000Z</time>
</trkpt>
<trkpt lat="44.188177" lon="2.789137">
<ele>860.4</ele>
<time>2013-05-08T12:43:52.000Z</time>
</trkpt>
<trkpt lat="44.188153" lon="2.789056">
<ele>860.8</ele>
<time>2013-05-08T12:43:53.000Z</time>
</trkpt>
<trkpt lat="44.188119" lon="2.788964">
<ele>860.9</ele>
<time>2013-05-08T12:43:54.000Z</time>
</trkpt>
<trkpt lat="44.188098" lon="2.788883">
<ele>861</ele>
<time>2013-05-08T12:43:55.000Z</time>
</trkpt>
<trkpt lat="44.188074" lon="2.7888">
<ele>860.9</ele>
<time>2013-05-08T12:43:56.000Z</time>
</trkpt>
<trkpt lat="44.188045" lon="2.788737">
<ele>860.6</ele>
<time>2013-05-08T12:43:57.000Z</time>
</trkpt>
<trkpt lat="44.188" lon="2.788693">
<ele>860.2</ele>
<time>2013-05-08T12:43:58.000Z</time>
</trkpt>
<trkpt lat="44.187933" lon="2.78864">
<ele>859.8</ele>
<time>2013-05-08T12:43:59.000Z</time>
</trkpt>
<trkpt lat="44.187851" lon="2.788583">
<ele>859.7</ele>
<time>2013-05-08T12:44:00.000Z</time>
</trkpt>
<trkpt lat="44.187748" lon="2.788516">
<ele>859.7</ele>
<time>2013-05-08T12:44:01.000Z</time>
</trkpt>
<trkpt lat="44.18763" lon="2.788446">
<ele>859.5</ele>
<time>2013-05-08T12:44:02.000Z</time>
</trkpt>
<trkpt lat="44.187506" lon="2.788377">
<ele>859.6</ele>
<time>2013-05-08T12:44:03.000Z</time>
</trkpt>
<trkpt lat="44.187376" lon="2.78831">
<ele>859.6</ele>
<time>2013-05-08T12:44:04.000Z</time>
</trkpt>
<trkpt lat="44.187237" lon="2.788245">
<ele>859.8</ele>
<time>2013-05-08T12:44:05.000Z</time>
</trkpt>
<trkpt lat="44.187099" lon="2.788188">
<ele>859.9</ele>
<time>2013-05-08T12:44:06.000Z</time>
</trkpt>
<trkpt lat="44.186969" lon="2.788143">
<ele>859.9</ele>
<time>2013-05-08T12:44:07.000Z</time>
</trkpt>
<trkpt lat="44.186847" lon="2.7881">
<ele>860.3</ele>
<time>2013-05-08T12:44:08.000Z</time>
</trkpt>
<trkpt lat="44.186726" lon="2.788064">
<ele>860.8</ele>
<time>2013-05-08T12:44:09.000Z</time>
</trkpt>
<trkpt lat="44.186596" lon="2.788032">
<ele>861.4</ele>
<time>2013-05-08T12:44:10.000Z</time>
</trkpt>
<trkpt lat="44.186463" lon="2.788005">
<ele>862</ele>
<time>2013-05-08T12:44:11.000Z</time>
</trkpt>
<trkpt lat="44.186319" lon="2.787977">
<ele>862.6</ele>
<time>2013-05-08T12:44:12.000Z</time>
</trkpt>
<trkpt lat="44.186172" lon="2.787948">
<ele>863.7</ele>
<time>2013-05-08T12:44:13.000Z</time>
</trkpt>
<trkpt lat="44.186027" lon="2.78792">
<ele>864.6</ele>
<time>2013-05-08T12:44:14.000Z</time>
</trkpt>
<trkpt lat="44.185887" lon="2.787896">
<ele>865</ele>
<time>2013-05-08T12:44:15.000Z</time>
</trkpt>
<trkpt lat="44.185741" lon="2.78788">
<ele>865.4</ele>
<time>2013-05-08T12:44:16.000Z</time>
</trkpt>
<trkpt lat="44.185598" lon="2.787864">
<ele>865.9</ele>
<time>2013-05-08T12:44:17.000Z</time>
</trkpt>
<trkpt lat="44.18546" lon="2.787843">
<ele>866.4</ele>
<time>2013-05-08T12:44:18.000Z</time>
</trkpt>
<trkpt lat="44.185333" lon="2.787815">
<ele>867.2</ele>
<time>2013-05-08T12:44:19.000Z</time>
</trkpt>
<trkpt lat="44.18522" lon="2.787749">
<ele>868.3</ele>
<time>2013-05-08T12:44:20.000Z</time>
</trkpt>
<trkpt lat="44.185113" lon="2.787678">
<ele>869.5</ele>
<time>2013-05-08T12:44:21.000Z</time>
</trkpt>
<trkpt lat="44.185006" lon="2.787599">
<ele>870.7</ele>
<time>2013-05-08T12:44:22.000Z</time>
</trkpt>
<trkpt lat="44.184913" lon="2.787483">
<ele>872.2</ele>
<time>2013-05-08T12:44:23.000Z</time>
</trkpt>
<trkpt lat="44.184816" lon="2.787353">
<ele>873.6</ele>
<time>2013-05-08T12:44:24.000Z</time>
</trkpt>
<trkpt lat="44.184721" lon="2.787225">
<ele>874.8</ele>
<time>2013-05-08T12:44:25.000Z</time>
</trkpt>
<trkpt lat="44.184628" lon="2.787098">
<ele>875.9</ele>
<time>2013-05-08T12:44:26.000Z</time>
</trkpt>
<trkpt lat="44.184542" lon="2.786983">
<ele>877</ele>
<time>2013-05-08T12:44:27.000Z</time>
</trkpt>
<trkpt lat="44.184461" lon="2.786877">
<ele>877.9</ele>
<time>2013-05-08T12:44:28.000Z</time>
</trkpt>
<trkpt lat="44.184388" lon="2.786777">
<ele>878.6</ele>
<time>2013-05-08T12:44:29.000Z</time>
</trkpt>
<trkpt lat="44.18432" lon="2.786664">
<ele>879</ele>
<time>2013-05-08T12:44:30.000Z</time>
</trkpt>
<trkpt lat="44.184279" lon="2.786531">
<ele>879.4</ele>
<time>2013-05-08T12:44:31.000Z</time>
</trkpt>
<trkpt lat="44.184238" lon="2.786385">
<ele>879.8</ele>
<time>2013-05-08T12:44:32.000Z</time>
</trkpt>
<trkpt lat="44.184201" lon="2.786236">
<ele>880.2</ele>
<time>2013-05-08T12:44:33.000Z</time>
</trkpt>
<trkpt lat="44.184161" lon="2.78608">
<ele>880.6</ele>
<time>2013-05-08T12:44:34.000Z</time>
</trkpt>
<trkpt lat="44.184112" lon="2.785934">
<ele>881.3</ele>
<time>2013-05-08T12:44:35.000Z</time>
</trkpt>
<trkpt lat="44.184057" lon="2.785805">
<ele>882.3</ele>
<time>2013-05-08T12:44:36.000Z</time>
</trkpt>
<trkpt lat="44.183973" lon="2.785705">
<ele>883.2</ele>
<time>2013-05-08T12:44:37.000Z</time>
</trkpt>
<trkpt lat="44.183881" lon="2.785603">
<ele>883.7</ele>
<time>2013-05-08T12:44:38.000Z</time>
</trkpt>
<trkpt lat="44.183786" lon="2.785503">
<ele>884</ele>
<time>2013-05-08T12:44:39.000Z</time>
</trkpt>
<trkpt lat="44.183688" lon="2.785407">
<ele>884</ele>
<time>2013-05-08T12:44:40.000Z</time>
</trkpt>
<trkpt lat="44.183588" lon="2.785322">
<ele>883.7</ele>
<time>2013-05-08T12:44:41.000Z</time>
</trkpt>
<trkpt lat="44.183477" lon="2.785272">
<ele>883.7</ele>
<time>2013-05-08T12:44:42.000Z</time>
</trkpt>
<trkpt lat="44.183365" lon="2.785228">
<ele>883.7</ele>
<time>2013-05-08T12:44:43.000Z</time>
</trkpt>
<trkpt lat="44.183246" lon="2.785193">
<ele>883.9</ele>
<time>2013-05-08T12:44:44.000Z</time>
</trkpt>
<trkpt lat="44.18312" lon="2.78517">
<ele>883.9</ele>
<time>2013-05-08T12:44:45.000Z</time>
</trkpt>
<trkpt lat="44.182996" lon="2.785157">
<ele>884.1</ele>
<time>2013-05-08T12:44:46.000Z</time>
</trkpt>
<trkpt lat="44.18288" lon="2.785158">
<ele>884.3</ele>
<time>2013-05-08T12:44:47.000Z</time>
</trkpt>
<trkpt lat="44.182757" lon="2.785205">
<ele>884.5</ele>
<time>2013-05-08T12:44:48.000Z</time>
</trkpt>
<trkpt lat="44.182627" lon="2.785262">
<ele>884.6</ele>
<time>2013-05-08T12:44:49.000Z</time>
</trkpt>
<trkpt lat="44.18249" lon="2.785328">
<ele>884.7</ele>
<time>2013-05-08T12:44:50.000Z</time>
</trkpt>
<trkpt lat="44.182359" lon="2.785398">
<ele>884.4</ele>
<time>2013-05-08T12:44:51.000Z</time>
</trkpt>
<trkpt lat="44.182258" lon="2.785471">
<ele>884.5</ele>
<time>2013-05-08T12:44:52.000Z</time>
</trkpt>
<trkpt lat="44.182189" lon="2.785569">
<ele>884.4</ele>
<time>2013-05-08T12:44:53.000Z</time>
</trkpt>
<trkpt lat="44.182153" lon="2.785698">
<ele>884.6</ele>
<time>2013-05-08T12:44:54.000Z</time>
</trkpt>
<trkpt lat="44.182156" lon="2.785838">
<ele>884.3</ele>
<time>2013-05-08T12:44:55.000Z</time>
</trkpt>
<trkpt lat="44.182166" lon="2.785976">
<ele>884.6</ele>
<time>2013-05-08T12:44:56.000Z</time>
</trkpt>
<trkpt lat="44.182177" lon="2.786096">
<ele>884.7</ele>
<time>2013-05-08T12:44:57.000Z</time>
</trkpt>
<trkpt lat="44.18218" lon="2.78622">
<ele>884.8</ele>
<time>2013-05-08T12:44:58.000Z</time>
</trkpt>
<trkpt lat="44.182176" lon="2.786336">
<ele>885.1</ele>
<time>2013-05-08T12:44:59.000Z</time>
</trkpt>
<trkpt lat="44.182165" lon="2.786446">
<ele>885.2</ele>
<time>2013-05-08T12:45:00.000Z</time>
</trkpt>
<trkpt lat="44.182154" lon="2.786558">
<ele>885.4</ele>
<time>2013-05-08T12:45:01.000Z</time>
</trkpt>
<trkpt lat="44.182149" lon="2.786666">
<ele>885.6</ele>
<time>2013-05-08T12:45:02.000Z</time>
</trkpt>
<trkpt lat="44.182148" lon="2.786774">
<ele>886.2</ele>
<time>2013-05-08T12:45:03.000Z</time>
</trkpt>
<trkpt lat="44.182151" lon="2.78688">
<ele>887</ele>
<time>2013-05-08T12:45:04.000Z</time>
</trkpt>
<trkpt lat="44.182155" lon="2.786989">
<ele>888</ele>
<time>2013-05-08T12:45:05.000Z</time>
</trkpt>
<trkpt lat="44.18216" lon="2.787094">
<ele>889.1</ele>
<time>2013-05-08T12:45:06.000Z</time>
</trkpt>
<trkpt lat="44.182167" lon="2.787187">
<ele>889.9</ele>
<time>2013-05-08T12:45:07.000Z</time>
</trkpt>
<trkpt lat="44.182174" lon="2.787266">
<ele>890.8</ele>
<time>2013-05-08T12:45:08.000Z</time>
</trkpt>
<trkpt lat="44.182179" lon="2.787339">
<ele>891.8</ele>
<time>2013-05-08T12:45:09.000Z</time>
</trkpt>
<trkpt lat="44.182182" lon="2.787416">
<ele>892.8</ele>
<time>2013-05-08T12:45:10.000Z</time>
</trkpt>
<trkpt lat="44.182186" lon="2.787482">
<ele>893.8</ele>
<time>2013-05-08T12:45:11.000Z</time>
</trkpt>
<trkpt lat="44.18219" lon="2.787556">
<ele>894.8</ele>
<time>2013-05-08T12:45:12.000Z</time>
</trkpt>
<trkpt lat="44.182194" lon="2.787624">
<ele>895.6</ele>
<time>2013-05-08T12:45:13.000Z</time>
</trkpt>
<trkpt lat="44.182198" lon="2.787683">
<ele>896.1</ele>
<time>2013-05-08T12:45:14.000Z</time>
</trkpt>
<trkpt lat="44.182202" lon="2.787746">
<ele>896.3</ele>
<time>2013-05-08T12:45:15.000Z</time>
</trkpt>
<trkpt lat="44.182207" lon="2.787808">
<ele>896.6</ele>
<time>2013-05-08T12:45:16.000Z</time>
</trkpt>
<trkpt lat="44.182214" lon="2.787874">
<ele>897</ele>
<time>2013-05-08T12:45:17.000Z</time>
</trkpt>
<trkpt lat="44.182222" lon="2.787936">
<ele>897.4</ele>
<time>2013-05-08T12:45:18.000Z</time>
</trkpt>
<trkpt lat="44.18223" lon="2.787996">
<ele>897.8</ele>
<time>2013-05-08T12:45:19.000Z</time>
</trkpt>
<trkpt lat="44.182237" lon="2.788051">
<ele>898.6</ele>
<time>2013-05-08T12:45:20.000Z</time>
</trkpt>
<trkpt lat="44.182244" lon="2.788092">
<ele>898.7</ele>
<time>2013-05-08T12:45:21.000Z</time>
</trkpt>
<trkpt lat="44.18225" lon="2.788141">
<ele>898.8</ele>
<time>2013-05-08T12:45:22.000Z</time>
</trkpt>
<trkpt lat="44.182255" lon="2.788179">
<ele>898.8</ele>
<time>2013-05-08T12:45:23.000Z</time>
</trkpt>
<trkpt lat="44.182258" lon="2.788208">
<ele>898.9</ele>
<time>2013-05-08T12:45:24.000Z</time>
</trkpt>
<trkpt lat="44.182265" lon="2.788247">
<ele>899</ele>
<time>2013-05-08T12:45:26.000Z</time>
</trkpt>
<trkpt lat="44.182269" lon="2.788273">
<ele>899.1</ele>
<time>2013-05-08T12:45:27.000Z</time>
</trkpt>
<trkpt lat="44.182277" lon="2.788327">
<ele>899.3</ele>
<time>2013-05-08T12:45:29.000Z</time>
</trkpt>
<trkpt lat="44.18228" lon="2.788358">
<ele>899.4</ele>
<time>2013-05-08T12:45:30.000Z</time>
</trkpt>
<trkpt lat="44.182288" lon="2.788416">
<ele>899.6</ele>
<time>2013-05-08T12:45:32.000Z</time>
</trkpt>
<trkpt lat="44.182293" lon="2.788445">
<ele>899.7</ele>
<time>2013-05-08T12:45:33.000Z</time>
</trkpt>
<trkpt lat="44.182302" lon="2.788505">
<ele>900</ele>
<time>2013-05-08T12:45:35.000Z</time>
</trkpt>
<trkpt lat="44.182305" lon="2.788526">
<ele>900.2</ele>
<time>2013-05-08T12:45:36.000Z</time>
</trkpt>
<trkpt lat="44.18231" lon="2.788569">
<ele>900.5</ele>
<time>2013-05-08T12:45:38.000Z</time>
</trkpt>
<trkpt lat="44.182311" lon="2.78859">
<ele>900.7</ele>
<time>2013-05-08T12:45:39.000Z</time>
</trkpt>
<trkpt lat="44.182313" lon="2.78864">
<ele>901.2</ele>
<time>2013-05-08T12:45:41.000Z</time>
</trkpt>
<trkpt lat="44.182316" lon="2.788666">
<ele>901.4</ele>
<time>2013-05-08T12:45:42.000Z</time>
</trkpt>
<trkpt lat="44.182335" lon="2.788702">
<ele>901.8</ele>
<time>2013-05-08T12:45:44.000Z</time>
</trkpt>
<trkpt lat="44.182349" lon="2.788723">
<ele>902</ele>
<time>2013-05-08T12:45:45.000Z</time>
</trkpt>
<trkpt lat="44.182353" lon="2.788743">
<ele>906.7</ele>
<time>2013-05-08T12:48:19.000Z</time>
</trkpt>
<trkpt lat="44.182362" lon="2.7886">
<ele>906.7</ele>
<time>2013-05-08T12:48:20.000Z</time>
</trkpt>
<trkpt lat="44.182362" lon="2.7886">
<ele>907.4</ele>
<time>2013-05-08T12:49:56.000Z</time>
</trkpt>
<trkpt lat="44.182316" lon="2.788544">
<ele>907.4</ele>
<time>2013-05-08T12:49:57.000Z</time>
</trkpt>
<trkpt lat="44.182354" lon="2.788513">
<ele>907.2</ele>
<time>2013-05-08T12:50:35.000Z</time>
</trkpt>
<trkpt lat="44.182355" lon="2.788513">
<ele>907.2</ele>
<time>2013-05-08T12:50:36.000Z</time>
</trkpt>
<trkpt lat="44.182362" lon="2.788572">
<ele>908.8</ele>
<time>2013-05-08T12:52:04.000Z</time>
</trkpt>
<trkpt lat="44.182362" lon="2.788575">
<ele>908.8</ele>
<time>2013-05-08T12:52:05.000Z</time>
</trkpt>
<trkpt lat="44.182318" lon="2.78858">
<ele>909.8</ele>
<time>2013-05-08T12:54:30.000Z</time>
</trkpt>
<trkpt lat="44.182317" lon="2.788581">
<ele>909.8</ele>
<time>2013-05-08T12:54:31.000Z</time>
</trkpt>
<trkpt lat="44.182356" lon="2.788555">
<ele>910.4</ele>
<time>2013-05-08T12:56:59.000Z</time>
</trkpt>
<trkpt lat="44.182357" lon="2.788553">
<ele>910.4</ele>
<time>2013-05-08T12:57:00.000Z</time>
</trkpt>
<trkpt lat="44.182319" lon="2.788583">
<ele>910.7</ele>
<time>2013-05-08T12:58:04.000Z</time>
</trkpt>
<trkpt lat="44.182317" lon="2.788585">
<ele>910.8</ele>
<time>2013-05-08T12:58:05.000Z</time>
</trkpt>
<trkpt lat="44.182356" lon="2.788561">
<ele>912.1</ele>
<time>2013-05-08T12:59:31.000Z</time>
</trkpt>
<trkpt lat="44.182359" lon="2.788557">
<ele>912.1</ele>
<time>2013-05-08T12:59:32.000Z</time>
</trkpt>
<trkpt lat="44.182326" lon="2.788597">
<ele>910.8</ele>
<time>2013-05-08T13:01:58.000Z</time>
</trkpt>
<trkpt lat="44.182324" lon="2.788601">
<ele>910.8</ele>
<time>2013-05-08T13:01:59.000Z</time>
</trkpt>
<trkpt lat="44.182362" lon="2.788632">
<ele>912.3</ele>
<time>2013-05-08T13:12:15.000Z</time>
</trkpt>
<trkpt lat="44.18237" lon="2.788644">
<ele>912.2</ele>
<time>2013-05-08T13:12:16.000Z</time>
</trkpt>
<trkpt lat="44.182363" lon="2.788704">
<ele>911.4</ele>
<time>2013-05-08T13:13:48.000Z</time>
</trkpt>
<trkpt lat="44.182364" lon="2.788708">
<ele>911.4</ele>
<time>2013-05-08T13:13:49.000Z</time>
</trkpt>
<trkpt lat="44.182408" lon="2.788713">
<ele>911.1</ele>
<time>2013-05-08T13:15:06.999Z</time>
</trkpt>
<trkpt lat="44.182409" lon="2.788713">
<ele>911.1</ele>
<time>2013-05-08T13:15:07.999Z</time>
</trkpt>
<trkpt lat="44.182405" lon="2.788663">
<ele>907.6</ele>
<time>2013-05-08T13:17:09.999Z</time>
</trkpt>
<trkpt lat="44.182398" lon="2.788651">
<ele>907.6</ele>
<time>2013-05-08T13:17:10.999Z</time>
</trkpt>
<trkpt lat="44.182387" lon="2.788633">
<ele>907.5</ele>
<time>2013-05-08T13:17:11.999Z</time>
</trkpt>
<trkpt lat="44.182383" lon="2.788584">
<ele>907.4</ele>
<time>2013-05-08T13:17:12.999Z</time>
</trkpt>
<trkpt lat="44.18238" lon="2.78852">
<ele>907.4</ele>
<time>2013-05-08T13:17:13.999Z</time>
</trkpt>
<trkpt lat="44.182375" lon="2.788455">
<ele>907.7</ele>
<time>2013-05-08T13:17:14.999Z</time>
</trkpt>
<trkpt lat="44.182368" lon="2.788395">
<ele>908.1</ele>
<time>2013-05-08T13:17:15.999Z</time>
</trkpt>
<trkpt lat="44.182356" lon="2.788339">
<ele>908.1</ele>
<time>2013-05-08T13:17:16.999Z</time>
</trkpt>
<trkpt lat="44.182349" lon="2.788284">
<ele>908.1</ele>
<time>2013-05-08T13:17:17.999Z</time>
</trkpt>
<trkpt lat="44.182343" lon="2.788226">
<ele>908.1</ele>
<time>2013-05-08T13:17:18.999Z</time>
</trkpt>
<trkpt lat="44.182333" lon="2.788164">
<ele>908.3</ele>
<time>2013-05-08T13:17:19.999Z</time>
</trkpt>
<trkpt lat="44.18233" lon="2.788108">
<ele>908.7</ele>
<time>2013-05-08T13:17:20.999Z</time>
</trkpt>
<trkpt lat="44.182327" lon="2.788055">
<ele>908.7</ele>
<time>2013-05-08T13:17:21.999Z</time>
</trkpt>
<trkpt lat="44.182319" lon="2.787999">
<ele>908.8</ele>
<time>2013-05-08T13:17:22.999Z</time>
</trkpt>
<trkpt lat="44.182305" lon="2.787929">
<ele>908.7</ele>
<time>2013-05-08T13:17:23.999Z</time>
</trkpt>
<trkpt lat="44.18229" lon="2.787856">
<ele>908.6</ele>
<time>2013-05-08T13:17:24.999Z</time>
</trkpt>
<trkpt lat="44.182277" lon="2.787785">
<ele>908.2</ele>
<time>2013-05-08T13:17:25.999Z</time>
</trkpt>
<trkpt lat="44.182267" lon="2.787704">
<ele>907.8</ele>
<time>2013-05-08T13:17:26.999Z</time>
</trkpt>
<trkpt lat="44.18226" lon="2.787617">
<ele>907.5</ele>
<time>2013-05-08T13:17:27.999Z</time>
</trkpt>
<trkpt lat="44.182253" lon="2.787514">
<ele>907</ele>
<time>2013-05-08T13:17:28.999Z</time>
</trkpt>
<trkpt lat="44.182244" lon="2.787401">
<ele>906.1</ele>
<time>2013-05-08T13:17:29.999Z</time>
</trkpt>
<trkpt lat="44.182233" lon="2.787285">
<ele>905</ele>
<time>2013-05-08T13:17:30.999Z</time>
</trkpt>
<trkpt lat="44.182221" lon="2.787175">
<ele>903.9</ele>
<time>2013-05-08T13:17:31.999Z</time>
</trkpt>
<trkpt lat="44.182207" lon="2.787069">
<ele>902.9</ele>
<time>2013-05-08T13:17:32.999Z</time>
</trkpt>
<trkpt lat="44.182197" lon="2.786972">
<ele>902</ele>
<time>2013-05-08T13:17:33.999Z</time>
</trkpt>
<trkpt lat="44.182187" lon="2.786877">
<ele>901.3</ele>
<time>2013-05-08T13:17:34.999Z</time>
</trkpt>
<trkpt lat="44.182177" lon="2.78679">
<ele>900.4</ele>
<time>2013-05-08T13:17:35.999Z</time>
</trkpt>
<trkpt lat="44.182169" lon="2.786705">
<ele>899.4</ele>
<time>2013-05-08T13:17:36.999Z</time>
</trkpt>
<trkpt lat="44.182161" lon="2.786612">
<ele>898.3</ele>
<time>2013-05-08T13:17:37.999Z</time>
</trkpt>
<trkpt lat="44.182155" lon="2.786518">
<ele>897.2</ele>
<time>2013-05-08T13:17:38.999Z</time>
</trkpt>
<trkpt lat="44.182153" lon="2.786418">
<ele>896.2</ele>
<time>2013-05-08T13:17:39.999Z</time>
</trkpt>
<trkpt lat="44.182169" lon="2.78633">
<ele>894.8</ele>
<time>2013-05-08T13:17:40.999Z</time>
</trkpt>
<trkpt lat="44.182201" lon="2.786266">
<ele>893.3</ele>
<time>2013-05-08T13:17:41.999Z</time>
</trkpt>
<trkpt lat="44.18223" lon="2.78621">
<ele>892.1</ele>
<time>2013-05-08T13:17:42.999Z</time>
</trkpt>
<trkpt lat="44.182246" lon="2.786151">
<ele>891.1</ele>
<time>2013-05-08T13:17:43.999Z</time>
</trkpt>
<trkpt lat="44.18225" lon="2.786082">
<ele>890.4</ele>
<time>2013-05-08T13:17:44.999Z</time>
</trkpt>
<trkpt lat="44.182241" lon="2.786021">
<ele>889.8</ele>
<time>2013-05-08T13:17:45.999Z</time>
</trkpt>
<trkpt lat="44.182229" lon="2.785951">
<ele>889.5</ele>
<time>2013-05-08T13:17:46.999Z</time>
</trkpt>
<trkpt lat="44.182217" lon="2.785872">
<ele>889.4</ele>
<time>2013-05-08T13:17:47.999Z</time>
</trkpt>
<trkpt lat="44.18222" lon="2.785774">
<ele>889.3</ele>
<time>2013-05-08T13:17:48.999Z</time>
</trkpt>
<trkpt lat="44.182261" lon="2.785676">
<ele>889</ele>
<time>2013-05-08T13:17:49.999Z</time>
</trkpt>
<trkpt lat="44.182323" lon="2.785599">
<ele>888.3</ele>
<time>2013-05-08T13:17:50.999Z</time>
</trkpt>
<trkpt lat="44.182389" lon="2.785535">
<ele>887.7</ele>
<time>2013-05-08T13:17:51.999Z</time>
</trkpt>
<trkpt lat="44.182462" lon="2.785469">
<ele>887</ele>
<time>2013-05-08T13:17:52.999Z</time>
</trkpt>
<trkpt lat="44.182541" lon="2.785403">
<ele>886.4</ele>
<time>2013-05-08T13:17:53.999Z</time>
</trkpt>
<trkpt lat="44.182628" lon="2.785339">
<ele>885.8</ele>
<time>2013-05-08T13:17:54.999Z</time>
</trkpt>
<trkpt lat="44.182725" lon="2.785278">
<ele>885.3</ele>
<time>2013-05-08T13:17:55.999Z</time>
</trkpt>
<trkpt lat="44.182844" lon="2.785265">
<ele>884.7</ele>
<time>2013-05-08T13:17:56.999Z</time>
</trkpt>
<trkpt lat="44.182964" lon="2.785253">
<ele>884</ele>
<time>2013-05-08T13:17:57.999Z</time>
</trkpt>
<trkpt lat="44.183088" lon="2.785247">
<ele>883.2</ele>
<time>2013-05-08T13:17:58.999Z</time>
</trkpt>
<trkpt lat="44.183214" lon="2.785246">
<ele>882.6</ele>
<time>2013-05-08T13:17:59.999Z</time>
</trkpt>
<trkpt lat="44.183335" lon="2.785257">
<ele>882.1</ele>
<time>2013-05-08T13:18:00.999Z</time>
</trkpt>
<trkpt lat="44.183453" lon="2.785307">
<ele>881.9</ele>
<time>2013-05-08T13:18:01.999Z</time>
</trkpt>
<trkpt lat="44.183582" lon="2.785369">
<ele>881.7</ele>
<time>2013-05-08T13:18:02.999Z</time>
</trkpt>
<trkpt lat="44.183698" lon="2.785441">
<ele>881.3</ele>
<time>2013-05-08T13:18:03.999Z</time>
</trkpt>
<trkpt lat="44.183819" lon="2.785525">
<ele>880.8</ele>
<time>2013-05-08T13:18:04.999Z</time>
</trkpt>
<trkpt lat="44.183927" lon="2.785613">
<ele>880.3</ele>
<time>2013-05-08T13:18:05.999Z</time>
</trkpt>
<trkpt lat="44.184026" lon="2.785703">
<ele>879.7</ele>
<time>2013-05-08T13:18:06.999Z</time>
</trkpt>
<trkpt lat="44.184109" lon="2.785824">
<ele>879.2</ele>
<time>2013-05-08T13:18:07.999Z</time>
</trkpt>
<trkpt lat="44.184181" lon="2.785959">
<ele>878.8</ele>
<time>2013-05-08T13:18:08.999Z</time>
</trkpt>
<trkpt lat="44.184231" lon="2.786109">
<ele>878.6</ele>
<time>2013-05-08T13:18:09.999Z</time>
</trkpt>
<trkpt lat="44.184278" lon="2.786283">
<ele>878.2</ele>
<time>2013-05-08T13:18:10.999Z</time>
</trkpt>
<trkpt lat="44.184328" lon="2.786466">
<ele>877.9</ele>
<time>2013-05-08T13:18:11.999Z</time>
</trkpt>
<trkpt lat="44.184374" lon="2.786637">
<ele>877.2</ele>
<time>2013-05-08T13:18:12.999Z</time>
</trkpt>
<trkpt lat="44.184428" lon="2.786808">
<ele>876.6</ele>
<time>2013-05-08T13:18:13.999Z</time>
</trkpt>
<trkpt lat="44.184512" lon="2.786957">
<ele>876.2</ele>
<time>2013-05-08T13:18:14.999Z</time>
</trkpt>
<trkpt lat="44.184601" lon="2.787101">
<ele>876.1</ele>
<time>2013-05-08T13:18:15.999Z</time>
</trkpt>
<trkpt lat="44.184696" lon="2.787243">
<ele>876</ele>
<time>2013-05-08T13:18:16.999Z</time>
</trkpt>
<trkpt lat="44.184791" lon="2.787382">
<ele>875.7</ele>
<time>2013-05-08T13:18:17.999Z</time>
</trkpt>
<trkpt lat="44.184887" lon="2.787518">
<ele>875.4</ele>
<time>2013-05-08T13:18:18.999Z</time>
</trkpt>
<trkpt lat="44.18498" lon="2.787654">
<ele>875.1</ele>
<time>2013-05-08T13:18:19.999Z</time>
</trkpt>
<trkpt lat="44.185071" lon="2.78778">
<ele>874.9</ele>
<time>2013-05-08T13:18:20.999Z</time>
</trkpt>
<trkpt lat="44.185171" lon="2.787899">
<ele>874.5</ele>
<time>2013-05-08T13:18:21.999Z</time>
</trkpt>
<trkpt lat="44.185298" lon="2.787976">
<ele>874</ele>
<time>2013-05-08T13:18:22.999Z</time>
</trkpt>
<trkpt lat="44.185426" lon="2.788039">
<ele>873.3</ele>
<time>2013-05-08T13:18:23.999Z</time>
</trkpt>
<trkpt lat="44.185575" lon="2.78806">
<ele>872.6</ele>
<time>2013-05-08T13:18:24.999Z</time>
</trkpt>
<trkpt lat="44.185726" lon="2.788081">
<ele>872</ele>
<time>2013-05-08T13:18:25.999Z</time>
</trkpt>
<trkpt lat="44.185878" lon="2.7881">
<ele>871.4</ele>
<time>2013-05-08T13:18:26.999Z</time>
</trkpt>
<trkpt lat="44.186028" lon="2.788116">
<ele>870.7</ele>
<time>2013-05-08T13:18:27.999Z</time>
</trkpt>
<trkpt lat="44.186178" lon="2.788137">
<ele>870.3</ele>
<time>2013-05-08T13:18:28.999Z</time>
</trkpt>
<trkpt lat="44.186329" lon="2.788163">
<ele>870</ele>
<time>2013-05-08T13:18:29.999Z</time>
</trkpt>
<trkpt lat="44.186471" lon="2.788182">
<ele>869.8</ele>
<time>2013-05-08T13:18:30.999Z</time>
</trkpt>
<trkpt lat="44.186613" lon="2.788201">
<ele>869.4</ele>
<time>2013-05-08T13:18:31.999Z</time>
</trkpt>
<trkpt lat="44.186755" lon="2.788224">
<ele>869</ele>
<time>2013-05-08T13:18:32.999Z</time>
</trkpt>
<trkpt lat="44.186891" lon="2.788248">
<ele>868.5</ele>
<time>2013-05-08T13:18:33.999Z</time>
</trkpt>
<trkpt lat="44.187024" lon="2.78828">
<ele>868.1</ele>
<time>2013-05-08T13:18:34.999Z</time>
</trkpt>
<trkpt lat="44.187152" lon="2.788315">
<ele>867.4</ele>
<time>2013-05-08T13:18:35.999Z</time>
</trkpt>
<trkpt lat="44.187282" lon="2.788359">
<ele>866.7</ele>
<time>2013-05-08T13:18:36.999Z</time>
</trkpt>
<trkpt lat="44.187403" lon="2.788405">
<ele>865.9</ele>
<time>2013-05-08T13:18:37.999Z</time>
</trkpt>
<trkpt lat="44.187515" lon="2.78845">
<ele>865.3</ele>
<time>2013-05-08T13:18:38.999Z</time>
</trkpt>
<trkpt lat="44.187613" lon="2.788491">
<ele>864.8</ele>
<time>2013-05-08T13:18:39.999Z</time>
</trkpt>
<trkpt lat="44.187701" lon="2.788534">
<ele>864.3</ele>
<time>2013-05-08T13:18:40.999Z</time>
</trkpt>
<trkpt lat="44.187784" lon="2.788578">
<ele>863.7</ele>
<time>2013-05-08T13:18:41.999Z</time>
</trkpt>
<trkpt lat="44.187849" lon="2.788666">
<ele>863.4</ele>
<time>2013-05-08T13:18:42.999Z</time>
</trkpt>
<trkpt lat="44.187887" lon="2.788763">
<ele>863.1</ele>
<time>2013-05-08T13:18:43.999Z</time>
</trkpt>
<trkpt lat="44.187916" lon="2.788855">
<ele>862.6</ele>
<time>2013-05-08T13:18:44.999Z</time>
</trkpt>
<trkpt lat="44.187944" lon="2.788949">
<ele>862.3</ele>
<time>2013-05-08T13:18:45.999Z</time>
</trkpt>
<trkpt lat="44.187987" lon="2.789029">
<ele>862</ele>
<time>2013-05-08T13:18:46.999Z</time>
</trkpt>
<trkpt lat="44.188034" lon="2.789071">
<ele>862</ele>
<time>2013-05-08T13:18:47.999Z</time>
</trkpt>
<trkpt lat="44.188081" lon="2.789056">
<ele>862</ele>
<time>2013-05-08T13:18:48.999Z</time>
</trkpt>
<trkpt lat="44.188124" lon="2.789015">
<ele>862</ele>
<time>2013-05-08T13:18:49.999Z</time>
</trkpt>
<trkpt lat="44.18817" lon="2.788948">
<ele>862.3</ele>
<time>2013-05-08T13:18:50.999Z</time>
</trkpt>
<trkpt lat="44.188219" lon="2.78886">
<ele>862.7</ele>
<time>2013-05-08T13:18:51.999Z</time>
</trkpt>
<trkpt lat="44.188278" lon="2.788763">
<ele>863</ele>
<time>2013-05-08T13:18:52.999Z</time>
</trkpt>
<trkpt lat="44.188342" lon="2.788668">
<ele>863.1</ele>
<time>2013-05-08T13:18:53.999Z</time>
</trkpt>
<trkpt lat="44.188441" lon="2.788591">
<ele>863.3</ele>
<time>2013-05-08T13:18:54.999Z</time>
</trkpt>
<trkpt lat="44.188549" lon="2.788517">
<ele>863</ele>
<time>2013-05-08T13:18:55.999Z</time>
</trkpt>
<trkpt lat="44.188667" lon="2.788445">
<ele>862.4</ele>
<time>2013-05-08T13:18:56.999Z</time>
</trkpt>
<trkpt lat="44.188806" lon="2.788373">
<ele>861.8</ele>
<time>2013-05-08T13:18:57.999Z</time>
</trkpt>
<trkpt lat="44.188958" lon="2.788308">
<ele>861.6</ele>
<time>2013-05-08T13:18:58.999Z</time>
</trkpt>
<trkpt lat="44.189117" lon="2.788243">
<ele>861.4</ele>
<time>2013-05-08T13:18:59.999Z</time>
</trkpt>
<trkpt lat="44.18928" lon="2.788157">
<ele>861.5</ele>
<time>2013-05-08T13:19:00.999Z</time>
</trkpt>
<trkpt lat="44.189432" lon="2.788017">
<ele>861.8</ele>
<time>2013-05-08T13:19:01.999Z</time>
</trkpt>
<trkpt lat="44.189577" lon="2.787867">
<ele>861.9</ele>
<time>2013-05-08T13:19:02.999Z</time>
</trkpt>
<trkpt lat="44.189719" lon="2.787714">
<ele>862.1</ele>
<time>2013-05-08T13:19:03.999Z</time>
</trkpt>
<trkpt lat="44.18985" lon="2.787562">
<ele>862.2</ele>
<time>2013-05-08T13:19:04.999Z</time>
</trkpt>
<trkpt lat="44.189976" lon="2.787415">
<ele>862.4</ele>
<time>2013-05-08T13:19:05.999Z</time>
</trkpt>
<trkpt lat="44.190098" lon="2.787274">
<ele>862.4</ele>
<time>2013-05-08T13:19:06.999Z</time>
</trkpt>
<trkpt lat="44.190214" lon="2.787122">
<ele>862.6</ele>
<time>2013-05-08T13:19:07.999Z</time>
</trkpt>
<trkpt lat="44.190322" lon="2.786957">
<ele>863</ele>
<time>2013-05-08T13:19:08.999Z</time>
</trkpt>
<trkpt lat="44.190399" lon="2.786767">
<ele>862.5</ele>
<time>2013-05-08T13:19:09.999Z</time>
</trkpt>
<trkpt lat="44.190476" lon="2.786567">
<ele>862.1</ele>
<time>2013-05-08T13:19:10.999Z</time>
</trkpt>
<trkpt lat="44.190558" lon="2.786362">
<ele>862</ele>
<time>2013-05-08T13:19:11.999Z</time>
</trkpt>
<trkpt lat="44.190641" lon="2.786147">
<ele>862.4</ele>
<time>2013-05-08T13:19:12.999Z</time>
</trkpt>
<trkpt lat="44.190717" lon="2.785903">
<ele>862.8</ele>
<time>2013-05-08T13:19:13.999Z</time>
</trkpt>
<trkpt lat="44.190775" lon="2.785632">
<ele>863.1</ele>
<time>2013-05-08T13:19:14.999Z</time>
</trkpt>
<trkpt lat="44.190824" lon="2.785324">
<ele>863.3</ele>
<time>2013-05-08T13:19:15.999Z</time>
</trkpt>
<trkpt lat="44.190862" lon="2.784991">
<ele>863.3</ele>
<time>2013-05-08T13:19:16.999Z</time>
</trkpt>
<trkpt lat="44.190914" lon="2.784648">
<ele>863.6</ele>
<time>2013-05-08T13:19:17.999Z</time>
</trkpt>
<trkpt lat="44.190975" lon="2.784337">
<ele>863.5</ele>
<time>2013-05-08T13:19:18.999Z</time>
</trkpt>
<trkpt lat="44.191052" lon="2.784036">
<ele>863.7</ele>
<time>2013-05-08T13:19:19.999Z</time>
</trkpt>
<trkpt lat="44.191142" lon="2.78376">
<ele>863.7</ele>
<time>2013-05-08T13:19:20.999Z</time>
</trkpt>
<trkpt lat="44.191249" lon="2.783482">
<ele>863.6</ele>
<time>2013-05-08T13:19:21.999Z</time>
</trkpt>
<trkpt lat="44.191348" lon="2.783214">
<ele>863.3</ele>
<time>2013-05-08T13:19:22.999Z</time>
</trkpt>
<trkpt lat="44.191442" lon="2.782956">
<ele>862.7</ele>
<time>2013-05-08T13:19:23.999Z</time>
</trkpt>
<trkpt lat="44.191527" lon="2.782696">
<ele>862.1</ele>
<time>2013-05-08T13:19:24.999Z</time>
</trkpt>
<trkpt lat="44.191588" lon="2.782429">
<ele>861.1</ele>
<time>2013-05-08T13:19:25.999Z</time>
</trkpt>
<trkpt lat="44.191638" lon="2.782169">
<ele>860.9</ele>
<time>2013-05-08T13:19:26.999Z</time>
</trkpt>
<trkpt lat="44.19167" lon="2.781883">
<ele>860.3</ele>
<time>2013-05-08T13:19:27.999Z</time>
</trkpt>
<trkpt lat="44.191667" lon="2.78157">
<ele>860.2</ele>
<time>2013-05-08T13:19:28.999Z</time>
</trkpt>
<trkpt lat="44.191675" lon="2.781266">
<ele>860.6</ele>
<time>2013-05-08T13:19:29.999Z</time>
</trkpt>
<trkpt lat="44.191696" lon="2.780954">
<ele>861</ele>
<time>2013-05-08T13:19:30.999Z</time>
</trkpt>
<trkpt lat="44.19172" lon="2.780663">
<ele>861.3</ele>
<time>2013-05-08T13:19:31.999Z</time>
</trkpt>
<trkpt lat="44.191752" lon="2.780378">
<ele>861.8</ele>
<time>2013-05-08T13:19:32.999Z</time>
</trkpt>
<trkpt lat="44.191786" lon="2.780091">
<ele>862.3</ele>
<time>2013-05-08T13:19:33.999Z</time>
</trkpt>
<trkpt lat="44.191837" lon="2.779811">
<ele>862.5</ele>
<time>2013-05-08T13:19:34.999Z</time>
</trkpt>
<trkpt lat="44.191897" lon="2.779552">
<ele>862.7</ele>
<time>2013-05-08T13:19:35.999Z</time>
</trkpt>
<trkpt lat="44.191958" lon="2.779298">
<ele>863.3</ele>
<time>2013-05-08T13:19:36.999Z</time>
</trkpt>
<trkpt lat="44.192004" lon="2.779025">
<ele>863.9</ele>
<time>2013-05-08T13:19:37.999Z</time>
</trkpt>
<trkpt lat="44.192034" lon="2.778736">
<ele>864.2</ele>
<time>2013-05-08T13:19:38.999Z</time>
</trkpt>
<trkpt lat="44.192045" lon="2.77847">
<ele>864.6</ele>
<time>2013-05-08T13:19:39.999Z</time>
</trkpt>
<trkpt lat="44.192042" lon="2.778211">
<ele>865.1</ele>
<time>2013-05-08T13:19:40.999Z</time>
</trkpt>
<trkpt lat="44.192042" lon="2.777964">
<ele>865.5</ele>
<time>2013-05-08T13:19:41.999Z</time>
</trkpt>
<trkpt lat="44.192115" lon="2.777502">
<ele>867</ele>
<time>2013-05-08T13:19:43.999Z</time>
</trkpt>
<trkpt lat="44.19221" lon="2.777302">
<ele>867.2</ele>
<time>2013-05-08T13:19:44.999Z</time>
</trkpt>
<trkpt lat="44.19231" lon="2.777112">
<ele>866.8</ele>
<time>2013-05-08T13:19:45.999Z</time>
</trkpt>
<trkpt lat="44.192419" lon="2.776932">
<ele>866.7</ele>
<time>2013-05-08T13:19:46.999Z</time>
</trkpt>
<trkpt lat="44.192527" lon="2.776768">
<ele>866.6</ele>
<time>2013-05-08T13:19:47.999Z</time>
</trkpt>
<trkpt lat="44.192632" lon="2.776607">
<ele>866.3</ele>
<time>2013-05-08T13:19:48.999Z</time>
</trkpt>
<trkpt lat="44.192733" lon="2.776426">
<ele>866</ele>
<time>2013-05-08T13:19:49.999Z</time>
</trkpt>
<trkpt lat="44.192806" lon="2.776206">
<ele>865.8</ele>
<time>2013-05-08T13:19:50.999Z</time>
</trkpt>
<trkpt lat="44.192876" lon="2.775964">
<ele>865.5</ele>
<time>2013-05-08T13:19:51.999Z</time>
</trkpt>
<trkpt lat="44.19294" lon="2.775707">
<ele>865</ele>
<time>2013-05-08T13:19:52.999Z</time>
</trkpt>
<trkpt lat="44.192993" lon="2.775464">
<ele>864.5</ele>
<time>2013-05-08T13:19:53.999Z</time>
</trkpt>
<trkpt lat="44.193018" lon="2.775216">
<ele>864.1</ele>
<time>2013-05-08T13:19:54.999Z</time>
</trkpt>
<trkpt lat="44.193029" lon="2.774991">
<ele>863.7</ele>
<time>2013-05-08T13:19:55.999Z</time>
</trkpt>
<trkpt lat="44.193021" lon="2.774769">
<ele>863.6</ele>
<time>2013-05-08T13:19:56.999Z</time>
</trkpt>
<trkpt lat="44.192989" lon="2.774555">
<ele>863.5</ele>
<time>2013-05-08T13:19:57.999Z</time>
</trkpt>
<trkpt lat="44.192891" lon="2.774384">
<ele>864.1</ele>
<time>2013-05-08T13:19:58.999Z</time>
</trkpt>
<trkpt lat="44.192775" lon="2.774256">
<ele>864.9</ele>
<time>2013-05-08T13:19:59.999Z</time>
</trkpt>
<trkpt lat="44.192651" lon="2.774143">
<ele>865.7</ele>
<time>2013-05-08T13:20:00.999Z</time>
</trkpt>
<trkpt lat="44.1925" lon="2.774066">
<ele>866.1</ele>
<time>2013-05-08T13:20:01.999Z</time>
</trkpt>
<trkpt lat="44.192334" lon="2.774007">
<ele>866.9</ele>
<time>2013-05-08T13:20:02.999Z</time>
</trkpt>
<trkpt lat="44.192145" lon="2.774027">
<ele>867.2</ele>
<time>2013-05-08T13:20:03.999Z</time>
</trkpt>
<trkpt lat="44.191963" lon="2.774068">
<ele>867.2</ele>
<time>2013-05-08T13:20:04.999Z</time>
</trkpt>
<trkpt lat="44.191782" lon="2.774151">
<ele>867</ele>
<time>2013-05-08T13:20:05.999Z</time>
</trkpt>
<trkpt lat="44.191614" lon="2.774217">
<ele>866.3</ele>
<time>2013-05-08T13:20:06.999Z</time>
</trkpt>
<trkpt lat="44.191438" lon="2.774295">
<ele>865.9</ele>
<time>2013-05-08T13:20:07.999Z</time>
</trkpt>
<trkpt lat="44.19126" lon="2.774374">
<ele>866</ele>
<time>2013-05-08T13:20:08.999Z</time>
</trkpt>
<trkpt lat="44.191086" lon="2.774451">
<ele>866.4</ele>
<time>2013-05-08T13:20:09.999Z</time>
</trkpt>
<trkpt lat="44.190909" lon="2.774538">
<ele>866.5</ele>
<time>2013-05-08T13:20:10.999Z</time>
</trkpt>
<trkpt lat="44.19073" lon="2.774638">
<ele>866.2</ele>
<time>2013-05-08T13:20:11.999Z</time>
</trkpt>
<trkpt lat="44.190538" lon="2.774762">
<ele>865.9</ele>
<time>2013-05-08T13:20:12.999Z</time>
</trkpt>
<trkpt lat="44.190362" lon="2.774907">
<ele>865.7</ele>
<time>2013-05-08T13:20:13.999Z</time>
</trkpt>
<trkpt lat="44.190188" lon="2.775054">
<ele>865.4</ele>
<time>2013-05-08T13:20:14.999Z</time>
</trkpt>
<trkpt lat="44.190019" lon="2.775192">
<ele>865.1</ele>
<time>2013-05-08T13:20:15.999Z</time>
</trkpt>
<trkpt lat="44.189857" lon="2.775309">
<ele>864.9</ele>
<time>2013-05-08T13:20:16.999Z</time>
</trkpt>
<trkpt lat="44.189703" lon="2.77541">
<ele>865</ele>
<time>2013-05-08T13:20:17.999Z</time>
</trkpt>
<trkpt lat="44.189557" lon="2.775473">
<ele>865.5</ele>
<time>2013-05-08T13:20:18.999Z</time>
</trkpt>
<trkpt lat="44.189424" lon="2.775515">
<ele>866.3</ele>
<time>2013-05-08T13:20:19.999Z</time>
</trkpt>
<trkpt lat="44.189293" lon="2.775492">
<ele>866.4</ele>
<time>2013-05-08T13:20:20.999Z</time>
</trkpt>
<trkpt lat="44.189183" lon="2.775424">
<ele>866.7</ele>
<time>2013-05-08T13:20:21.999Z</time>
</trkpt>
<trkpt lat="44.189112" lon="2.775312">
<ele>866.7</ele>
<time>2013-05-08T13:20:22.999Z</time>
</trkpt>
<trkpt lat="44.189048" lon="2.775188">
<ele>866.7</ele>
<time>2013-05-08T13:20:23.999Z</time>
</trkpt>
<trkpt lat="44.189034" lon="2.775002">
<ele>866.6</ele>
<time>2013-05-08T13:20:24.999Z</time>
</trkpt>
<trkpt lat="44.189005" lon="2.774814">
<ele>866</ele>
<time>2013-05-08T13:20:25.999Z</time>
</trkpt>
<trkpt lat="44.188984" lon="2.774624">
<ele>866.1</ele>
<time>2013-05-08T13:20:26.999Z</time>
</trkpt>
<trkpt lat="44.188933" lon="2.774458">
<ele>866.5</ele>
<time>2013-05-08T13:20:27.999Z</time>
</trkpt>
<trkpt lat="44.188878" lon="2.774289">
<ele>867</ele>
<time>2013-05-08T13:20:28.999Z</time>
</trkpt>
<trkpt lat="44.188819" lon="2.774152">
<ele>866.8</ele>
<time>2013-05-08T13:20:29.999Z</time>
</trkpt>
<trkpt lat="44.188679" lon="2.774096">
<ele>866.8</ele>
<time>2013-05-08T13:20:30.999Z</time>
</trkpt>
<trkpt lat="44.188534" lon="2.774079">
<ele>866.4</ele>
<time>2013-05-08T13:20:31.999Z</time>
</trkpt>
<trkpt lat="44.188388" lon="2.774105">
<ele>866.2</ele>
<time>2013-05-08T13:20:32.999Z</time>
</trkpt>
<trkpt lat="44.188237" lon="2.774198">
<ele>865.9</ele>
<time>2013-05-08T13:20:33.999Z</time>
</trkpt>
<trkpt lat="44.188069" lon="2.774311">
<ele>865.7</ele>
<time>2013-05-08T13:20:34.999Z</time>
</trkpt>
<trkpt lat="44.187909" lon="2.774426">
<ele>865.8</ele>
<time>2013-05-08T13:20:35.999Z</time>
</trkpt>
<trkpt lat="44.187753" lon="2.77454">
<ele>865.9</ele>
<time>2013-05-08T13:20:36.999Z</time>
</trkpt>
<trkpt lat="44.187599" lon="2.774656">
<ele>866.1</ele>
<time>2013-05-08T13:20:37.999Z</time>
</trkpt>
<trkpt lat="44.187437" lon="2.77478">
<ele>866.4</ele>
<time>2013-05-08T13:20:38.999Z</time>
</trkpt>
<trkpt lat="44.187282" lon="2.774898">
<ele>866.7</ele>
<time>2013-05-08T13:20:39.999Z</time>
</trkpt>
<trkpt lat="44.187133" lon="2.774991">
<ele>866.9</ele>
<time>2013-05-08T13:20:40.999Z</time>
</trkpt>
<trkpt lat="44.186972" lon="2.775013">
<ele>867.2</ele>
<time>2013-05-08T13:20:41.999Z</time>
</trkpt>
<trkpt lat="44.186808" lon="2.775021">
<ele>867.4</ele>
<time>2013-05-08T13:20:42.999Z</time>
</trkpt>
<trkpt lat="44.186638" lon="2.775009">
<ele>867.5</ele>
<time>2013-05-08T13:20:43.999Z</time>
</trkpt>
<trkpt lat="44.186482" lon="2.774947">
<ele>867.3</ele>
<time>2013-05-08T13:20:44.999Z</time>
</trkpt>
<trkpt lat="44.186322" lon="2.774885">
<ele>866.7</ele>
<time>2013-05-08T13:20:45.999Z</time>
</trkpt>
<trkpt lat="44.186159" lon="2.77482">
<ele>866.1</ele>
<time>2013-05-08T13:20:46.999Z</time>
</trkpt>
<trkpt lat="44.185995" lon="2.774769">
<ele>865.5</ele>
<time>2013-05-08T13:20:47.999Z</time>
</trkpt>
<trkpt lat="44.185826" lon="2.774714">
<ele>865.6</ele>
<time>2013-05-08T13:20:48.999Z</time>
</trkpt>
<trkpt lat="44.185643" lon="2.774666">
<ele>865.9</ele>
<time>2013-05-08T13:20:49.999Z</time>
</trkpt>
<trkpt lat="44.185451" lon="2.774666">
<ele>865.8</ele>
<time>2013-05-08T13:20:50.999Z</time>
</trkpt>
<trkpt lat="44.185249" lon="2.774679">
<ele>865.7</ele>
<time>2013-05-08T13:20:51.999Z</time>
</trkpt>
<trkpt lat="44.185044" lon="2.774717">
<ele>865.8</ele>
<time>2013-05-08T13:20:52.999Z</time>
</trkpt>
<trkpt lat="44.184842" lon="2.774762">
<ele>865.8</ele>
<time>2013-05-08T13:20:53.999Z</time>
</trkpt>
<trkpt lat="44.184642" lon="2.774791">
<ele>865.9</ele>
<time>2013-05-08T13:20:54.999Z</time>
</trkpt>
<trkpt lat="44.184436" lon="2.774797">
<ele>866.2</ele>
<time>2013-05-08T13:20:55.999Z</time>
</trkpt>
<trkpt lat="44.184239" lon="2.774766">
<ele>866.4</ele>
<time>2013-05-08T13:20:56.999Z</time>
</trkpt>
<trkpt lat="44.184037" lon="2.774717">
<ele>866.8</ele>
<time>2013-05-08T13:20:57.999Z</time>
</trkpt>
<trkpt lat="44.18384" lon="2.774665">
<ele>866.9</ele>
<time>2013-05-08T13:20:58.999Z</time>
</trkpt>
<trkpt lat="44.183644" lon="2.774618">
<ele>867.3</ele>
<time>2013-05-08T13:20:59.999Z</time>
</trkpt>
<trkpt lat="44.183447" lon="2.774575">
<ele>867.7</ele>
<time>2013-05-08T13:21:00.999Z</time>
</trkpt>
<trkpt lat="44.183258" lon="2.774537">
<ele>867.8</ele>
<time>2013-05-08T13:21:01.999Z</time>
</trkpt>
<trkpt lat="44.183074" lon="2.7745">
<ele>867.8</ele>
<time>2013-05-08T13:21:02.999Z</time>
</trkpt>
<trkpt lat="44.182888" lon="2.774484">
<ele>867.5</ele>
<time>2013-05-08T13:21:03.999Z</time>
</trkpt>
<trkpt lat="44.182703" lon="2.774485">
<ele>866.8</ele>
<time>2013-05-08T13:21:04.999Z</time>
</trkpt>
<trkpt lat="44.182522" lon="2.774506">
<ele>866.4</ele>
<time>2013-05-08T13:21:05.999Z</time>
</trkpt>
<trkpt lat="44.182345" lon="2.774562">
<ele>866.6</ele>
<time>2013-05-08T13:21:06.999Z</time>
</trkpt>
<trkpt lat="44.182171" lon="2.774638">
<ele>866.6</ele>
<time>2013-05-08T13:21:07.999Z</time>
</trkpt>
<trkpt lat="44.181988" lon="2.774716">
<ele>866.5</ele>
<time>2013-05-08T13:21:08.999Z</time>
</trkpt>
<trkpt lat="44.181801" lon="2.774769">
<ele>866.5</ele>
<time>2013-05-08T13:21:09.999Z</time>
</trkpt>
<trkpt lat="44.181618" lon="2.77476">
<ele>866.6</ele>
<time>2013-05-08T13:21:10.999Z</time>
</trkpt>
<trkpt lat="44.181439" lon="2.77472">
<ele>866.5</ele>
<time>2013-05-08T13:21:11.999Z</time>
</trkpt>
<trkpt lat="44.181266" lon="2.77465">
<ele>866.5</ele>
<time>2013-05-08T13:21:12.999Z</time>
</trkpt>
<trkpt lat="44.181104" lon="2.774551">
<ele>866.3</ele>
<time>2013-05-08T13:21:13.999Z</time>
</trkpt>
<trkpt lat="44.180941" lon="2.774457">
<ele>866.4</ele>
<time>2013-05-08T13:21:14.999Z</time>
</trkpt>
<trkpt lat="44.180778" lon="2.774355">
<ele>866.8</ele>
<time>2013-05-08T13:21:15.999Z</time>
</trkpt>
<trkpt lat="44.180617" lon="2.774248">
<ele>867</ele>
<time>2013-05-08T13:21:16.999Z</time>
</trkpt>
<trkpt lat="44.180449" lon="2.774144">
<ele>866.9</ele>
<time>2013-05-08T13:21:17.999Z</time>
</trkpt>
<trkpt lat="44.180275" lon="2.774061">
<ele>866.8</ele>
<time>2013-05-08T13:21:18.999Z</time>
</trkpt>
<trkpt lat="44.180112" lon="2.773989">
<ele>866.9</ele>
<time>2013-05-08T13:21:19.999Z</time>
</trkpt>
<trkpt lat="44.179949" lon="2.773916">
<ele>866.8</ele>
<time>2013-05-08T13:21:20.999Z</time>
</trkpt>
<trkpt lat="44.179787" lon="2.773846">
<ele>866.9</ele>
<time>2013-05-08T13:21:21.999Z</time>
</trkpt>
<trkpt lat="44.179628" lon="2.773785">
<ele>867.4</ele>
<time>2013-05-08T13:21:22.999Z</time>
</trkpt>
<trkpt lat="44.179475" lon="2.77373">
<ele>868.1</ele>
<time>2013-05-08T13:21:23.999Z</time>
</trkpt>
<trkpt lat="44.17931" lon="2.773675">
<ele>868.6</ele>
<time>2013-05-08T13:21:24.999Z</time>
</trkpt>
<trkpt lat="44.179136" lon="2.773617">
<ele>868.7</ele>
<time>2013-05-08T13:21:25.999Z</time>
</trkpt>
<trkpt lat="44.178954" lon="2.773562">
<ele>868.7</ele>
<time>2013-05-08T13:21:26.999Z</time>
</trkpt>
<trkpt lat="44.178766" lon="2.773503">
<ele>868.6</ele>
<time>2013-05-08T13:21:27.999Z</time>
</trkpt>
<trkpt lat="44.178583" lon="2.773437">
<ele>868.6</ele>
<time>2013-05-08T13:21:28.999Z</time>
</trkpt>
<trkpt lat="44.178401" lon="2.773378">
<ele>868.5</ele>
<time>2013-05-08T13:21:29.999Z</time>
</trkpt>
<trkpt lat="44.178225" lon="2.773314">
<ele>868.4</ele>
<time>2013-05-08T13:21:30.999Z</time>
</trkpt>
<trkpt lat="44.178052" lon="2.773245">
<ele>868.3</ele>
<time>2013-05-08T13:21:31.999Z</time>
</trkpt>
<trkpt lat="44.177897" lon="2.773145">
<ele>868.3</ele>
<time>2013-05-08T13:21:32.999Z</time>
</trkpt>
<trkpt lat="44.177735" lon="2.77303">
<ele>868.5</ele>
<time>2013-05-08T13:21:33.999Z</time>
</trkpt>
<trkpt lat="44.177576" lon="2.772905">
<ele>868.8</ele>
<time>2013-05-08T13:21:34.999Z</time>
</trkpt>
<trkpt lat="44.177411" lon="2.772766">
<ele>868.6</ele>
<time>2013-05-08T13:21:35.999Z</time>
</trkpt>
<trkpt lat="44.177247" lon="2.772615">
<ele>868.4</ele>
<time>2013-05-08T13:21:36.999Z</time>
</trkpt>
<trkpt lat="44.177079" lon="2.772462">
<ele>868.1</ele>
<time>2013-05-08T13:21:37.999Z</time>
</trkpt>
<trkpt lat="44.176905" lon="2.772309">
<ele>867.9</ele>
<time>2013-05-08T13:21:38.999Z</time>
</trkpt>
<trkpt lat="44.176731" lon="2.772157">
<ele>867.5</ele>
<time>2013-05-08T13:21:39.999Z</time>
</trkpt>
<trkpt lat="44.176543" lon="2.772023">
<ele>867.4</ele>
<time>2013-05-08T13:21:40.999Z</time>
</trkpt>
<trkpt lat="44.176359" lon="2.771892">
<ele>867.2</ele>
<time>2013-05-08T13:21:41.999Z</time>
</trkpt>
<trkpt lat="44.176173" lon="2.771761">
<ele>866.8</ele>
<time>2013-05-08T13:21:42.999Z</time>
</trkpt>
<trkpt lat="44.175984" lon="2.771631">
<ele>866.5</ele>
<time>2013-05-08T13:21:43.999Z</time>
</trkpt>
<trkpt lat="44.175795" lon="2.771513">
<ele>866.3</ele>
<time>2013-05-08T13:21:44.999Z</time>
</trkpt>
<trkpt lat="44.175614" lon="2.771402">
<ele>866.1</ele>
<time>2013-05-08T13:21:45.999Z</time>
</trkpt>
<trkpt lat="44.175424" lon="2.771329">
<ele>866</ele>
<time>2013-05-08T13:21:46.999Z</time>
</trkpt>
<trkpt lat="44.175237" lon="2.771269">
<ele>866</ele>
<time>2013-05-08T13:21:47.999Z</time>
</trkpt>
<trkpt lat="44.175052" lon="2.771215">
<ele>865.8</ele>
<time>2013-05-08T13:21:48.999Z</time>
</trkpt>
<trkpt lat="44.174881" lon="2.771138">
<ele>865.6</ele>
<time>2013-05-08T13:21:49.999Z</time>
</trkpt>
<trkpt lat="44.174728" lon="2.771026">
<ele>865.2</ele>
<time>2013-05-08T13:21:50.999Z</time>
</trkpt>
<trkpt lat="44.174592" lon="2.770909">
<ele>865</ele>
<time>2013-05-08T13:21:51.999Z</time>
</trkpt>
<trkpt lat="44.174487" lon="2.770743">
<ele>864.7</ele>
<time>2013-05-08T13:21:52.999Z</time>
</trkpt>
<trkpt lat="44.174414" lon="2.770548">
<ele>864.2</ele>
<time>2013-05-08T13:21:53.999Z</time>
</trkpt>
<trkpt lat="44.174349" lon="2.77036">
<ele>863.6</ele>
<time>2013-05-08T13:21:54.999Z</time>
</trkpt>
<trkpt lat="44.174296" lon="2.770154">
<ele>863.2</ele>
<time>2013-05-08T13:21:55.999Z</time>
</trkpt>
<trkpt lat="44.17429" lon="2.769939">
<ele>862.9</ele>
<time>2013-05-08T13:21:56.999Z</time>
</trkpt>
<trkpt lat="44.174294" lon="2.769727">
<ele>863</ele>
<time>2013-05-08T13:21:57.999Z</time>
</trkpt>
<trkpt lat="44.174336" lon="2.769493">
<ele>863.1</ele>
<time>2013-05-08T13:21:58.999Z</time>
</trkpt>
<trkpt lat="44.174383" lon="2.769265">
<ele>863.2</ele>
<time>2013-05-08T13:21:59.999Z</time>
</trkpt>
<trkpt lat="44.174442" lon="2.769034">
<ele>863.1</ele>
<time>2013-05-08T13:22:00.999Z</time>
</trkpt>
<trkpt lat="44.174513" lon="2.76881">
<ele>863</ele>
<time>2013-05-08T13:22:01.999Z</time>
</trkpt>
<trkpt lat="44.174595" lon="2.768585">
<ele>862.9</ele>
<time>2013-05-08T13:22:02.999Z</time>
</trkpt>
<trkpt lat="44.174677" lon="2.768361">
<ele>862.8</ele>
<time>2013-05-08T13:22:03.999Z</time>
</trkpt>
<trkpt lat="44.174763" lon="2.768129">
<ele>863.2</ele>
<time>2013-05-08T13:22:04.999Z</time>
</trkpt>
<trkpt lat="44.174856" lon="2.767879">
<ele>863.7</ele>
<time>2013-05-08T13:22:05.999Z</time>
</trkpt>
<trkpt lat="44.174947" lon="2.76764">
<ele>864.4</ele>
<time>2013-05-08T13:22:06.999Z</time>
</trkpt>
<trkpt lat="44.175071" lon="2.767417">
<ele>865.1</ele>
<time>2013-05-08T13:22:07.999Z</time>
</trkpt>
<trkpt lat="44.175216" lon="2.767213">
<ele>866.2</ele>
<time>2013-05-08T13:22:08.999Z</time>
</trkpt>
<trkpt lat="44.175385" lon="2.767012">
<ele>867.4</ele>
<time>2013-05-08T13:22:09.999Z</time>
</trkpt>
<trkpt lat="44.175557" lon="2.766804">
<ele>868.9</ele>
<time>2013-05-08T13:22:10.999Z</time>
</trkpt>
<trkpt lat="44.175729" lon="2.76661">
<ele>870.4</ele>
<time>2013-05-08T13:22:11.999Z</time>
</trkpt>
<trkpt lat="44.175898" lon="2.766424">
<ele>871.9</ele>
<time>2013-05-08T13:22:12.999Z</time>
</trkpt>
<trkpt lat="44.176059" lon="2.766245">
<ele>873.4</ele>
<time>2013-05-08T13:22:13.999Z</time>
</trkpt>
<trkpt lat="44.176196" lon="2.766074">
<ele>874.8</ele>
<time>2013-05-08T13:22:14.999Z</time>
</trkpt>
<trkpt lat="44.17631" lon="2.765891">
<ele>876</ele>
<time>2013-05-08T13:22:15.999Z</time>
</trkpt>
<trkpt lat="44.17638" lon="2.765687">
<ele>877.3</ele>
<time>2013-05-08T13:22:16.999Z</time>
</trkpt>
<trkpt lat="44.176439" lon="2.765474">
<ele>878.4</ele>
<time>2013-05-08T13:22:17.999Z</time>
</trkpt>
<trkpt lat="44.176448" lon="2.765256">
<ele>879.5</ele>
<time>2013-05-08T13:22:18.999Z</time>
</trkpt>
<trkpt lat="44.176416" lon="2.765032">
<ele>880.7</ele>
<time>2013-05-08T13:22:19.999Z</time>
</trkpt>
<trkpt lat="44.176373" lon="2.764804">
<ele>882</ele>
<time>2013-05-08T13:22:20.999Z</time>
</trkpt>
<trkpt lat="44.176312" lon="2.764588">
<ele>883.2</ele>
<time>2013-05-08T13:22:21.999Z</time>
</trkpt>
<trkpt lat="44.176239" lon="2.764377">
<ele>884.5</ele>
<time>2013-05-08T13:22:22.999Z</time>
</trkpt>
<trkpt lat="44.176126" lon="2.764189">
<ele>885.8</ele>
<time>2013-05-08T13:22:23.999Z</time>
</trkpt>
<trkpt lat="44.176009" lon="2.764003">
<ele>886.9</ele>
<time>2013-05-08T13:22:24.999Z</time>
</trkpt>
<trkpt lat="44.175879" lon="2.763824">
<ele>888.2</ele>
<time>2013-05-08T13:22:25.999Z</time>
</trkpt>
<trkpt lat="44.175743" lon="2.763635">
<ele>889.5</ele>
<time>2013-05-08T13:22:26.999Z</time>
</trkpt>
<trkpt lat="44.175607" lon="2.763466">
<ele>890.8</ele>
<time>2013-05-08T13:22:27.999Z</time>
</trkpt>
<trkpt lat="44.175456" lon="2.763297">
<ele>892.1</ele>
<time>2013-05-08T13:22:28.999Z</time>
</trkpt>
<trkpt lat="44.175298" lon="2.76312">
<ele>893.3</ele>
<time>2013-05-08T13:22:29.999Z</time>
</trkpt>
<trkpt lat="44.175131" lon="2.76295">
<ele>894.3</ele>
<time>2013-05-08T13:22:30.999Z</time>
</trkpt>
<trkpt lat="44.174976" lon="2.762779">
<ele>895.3</ele>
<time>2013-05-08T13:22:31.999Z</time>
</trkpt>
<trkpt lat="44.17482" lon="2.762598">
<ele>896.2</ele>
<time>2013-05-08T13:22:32.999Z</time>
</trkpt>
<trkpt lat="44.174672" lon="2.762419">
<ele>897.3</ele>
<time>2013-05-08T13:22:33.999Z</time>
</trkpt>
<trkpt lat="44.174525" lon="2.762238">
<ele>898.5</ele>
<time>2013-05-08T13:22:34.999Z</time>
</trkpt>
<trkpt lat="44.17438" lon="2.762063">
<ele>899.8</ele>
<time>2013-05-08T13:22:35.999Z</time>
</trkpt>
<trkpt lat="44.174236" lon="2.761889">
<ele>901.2</ele>
<time>2013-05-08T13:22:36.999Z</time>
</trkpt>
<trkpt lat="44.174086" lon="2.761713">
<ele>902.3</ele>
<time>2013-05-08T13:22:37.999Z</time>
</trkpt>
<trkpt lat="44.173941" lon="2.761543">
<ele>903.1</ele>
<time>2013-05-08T13:22:38.999Z</time>
</trkpt>
<trkpt lat="44.173809" lon="2.761383">
<ele>903.9</ele>
<time>2013-05-08T13:22:39.999Z</time>
</trkpt>
<trkpt lat="44.173687" lon="2.761234">
<ele>904.7</ele>
<time>2013-05-08T13:22:40.999Z</time>
</trkpt>
<trkpt lat="44.173577" lon="2.761077">
<ele>905.3</ele>
<time>2013-05-08T13:22:41.999Z</time>
</trkpt>
<trkpt lat="44.17348" lon="2.76092">
<ele>905.6</ele>
<time>2013-05-08T13:22:42.999Z</time>
</trkpt>
<trkpt lat="44.173423" lon="2.760724">
<ele>905.7</ele>
<time>2013-05-08T13:22:43.999Z</time>
</trkpt>
<trkpt lat="44.173375" lon="2.760526">
<ele>905.8</ele>
<time>2013-05-08T13:22:44.999Z</time>
</trkpt>
<trkpt lat="44.173384" lon="2.760291">
<ele>906.2</ele>
<time>2013-05-08T13:22:45.999Z</time>
</trkpt>
<trkpt lat="44.173414" lon="2.760025">
<ele>906.5</ele>
<time>2013-05-08T13:22:46.999Z</time>
</trkpt>
<trkpt lat="44.173486" lon="2.75977">
<ele>906.8</ele>
<time>2013-05-08T13:22:47.999Z</time>
</trkpt>
<trkpt lat="44.173568" lon="2.75951">
<ele>906.9</ele>
<time>2013-05-08T13:22:48.999Z</time>
</trkpt>
<trkpt lat="44.173655" lon="2.759228">
<ele>906.9</ele>
<time>2013-05-08T13:22:49.999Z</time>
</trkpt>
<trkpt lat="44.173745" lon="2.758936">
<ele>906.9</ele>
<time>2013-05-08T13:22:50.999Z</time>
</trkpt>
<trkpt lat="44.173843" lon="2.758626">
<ele>906.7</ele>
<time>2013-05-08T13:22:51.999Z</time>
</trkpt>
<trkpt lat="44.17393" lon="2.758295">
<ele>906.4</ele>
<time>2013-05-08T13:22:52.999Z</time>
</trkpt>
<trkpt lat="44.174019" lon="2.757981">
<ele>905.9</ele>
<time>2013-05-08T13:22:53.999Z</time>
</trkpt>
<trkpt lat="44.174107" lon="2.757691">
<ele>905.3</ele>
<time>2013-05-08T13:22:54.999Z</time>
</trkpt>
<trkpt lat="44.17419" lon="2.757414">
<ele>904.7</ele>
<time>2013-05-08T13:22:55.999Z</time>
</trkpt>
<trkpt lat="44.174266" lon="2.757145">
<ele>903.9</ele>
<time>2013-05-08T13:22:56.999Z</time>
</trkpt>
<trkpt lat="44.174337" lon="2.756896">
<ele>903.1</ele>
<time>2013-05-08T13:22:57.999Z</time>
</trkpt>
<trkpt lat="44.174399" lon="2.756661">
<ele>902.2</ele>
<time>2013-05-08T13:22:58.999Z</time>
</trkpt>
<trkpt lat="44.174481" lon="2.756447">
<ele>900.8</ele>
<time>2013-05-08T13:22:59.999Z</time>
</trkpt>
<trkpt lat="44.174587" lon="2.756243">
<ele>899.3</ele>
<time>2013-05-08T13:23:00.999Z</time>
</trkpt>
<trkpt lat="44.17471" lon="2.756043">
<ele>897.7</ele>
<time>2013-05-08T13:23:01.999Z</time>
</trkpt>
<trkpt lat="44.174859" lon="2.755839">
<ele>896.1</ele>
<time>2013-05-08T13:23:02.999Z</time>
</trkpt>
<trkpt lat="44.175015" lon="2.755634">
<ele>894.3</ele>
<time>2013-05-08T13:23:03.999Z</time>
</trkpt>
<trkpt lat="44.175198" lon="2.755454">
<ele>892.3</ele>
<time>2013-05-08T13:23:04.999Z</time>
</trkpt>
<trkpt lat="44.175385" lon="2.755292">
<ele>890.6</ele>
<time>2013-05-08T13:23:05.999Z</time>
</trkpt>
<trkpt lat="44.175589" lon="2.755138">
<ele>889.2</ele>
<time>2013-05-08T13:23:06.999Z</time>
</trkpt>
<trkpt lat="44.175811" lon="2.754977">
<ele>888.1</ele>
<time>2013-05-08T13:23:07.999Z</time>
</trkpt>
<trkpt lat="44.176041" lon="2.754815">
<ele>887.4</ele>
<time>2013-05-08T13:23:08.999Z</time>
</trkpt>
<trkpt lat="44.176264" lon="2.754661">
<ele>886.4</ele>
<time>2013-05-08T13:23:09.999Z</time>
</trkpt>
<trkpt lat="44.176478" lon="2.754514">
<ele>885.4</ele>
<time>2013-05-08T13:23:10.999Z</time>
</trkpt>
<trkpt lat="44.176681" lon="2.754374">
<ele>884.2</ele>
<time>2013-05-08T13:23:11.999Z</time>
</trkpt>
<trkpt lat="44.176859" lon="2.754248">
<ele>883.3</ele>
<time>2013-05-08T13:23:12.999Z</time>
</trkpt>
<trkpt lat="44.177021" lon="2.754104">
<ele>882.4</ele>
<time>2013-05-08T13:23:13.999Z</time>
</trkpt>
<trkpt lat="44.177149" lon="2.75394">
<ele>881.7</ele>
<time>2013-05-08T13:23:14.999Z</time>
</trkpt>
<trkpt lat="44.177243" lon="2.753748">
<ele>881</ele>
<time>2013-05-08T13:23:15.999Z</time>
</trkpt>
<trkpt lat="44.177293" lon="2.75351">
<ele>880.2</ele>
<time>2013-05-08T13:23:16.999Z</time>
</trkpt>
<trkpt lat="44.177342" lon="2.753263">
<ele>879.4</ele>
<time>2013-05-08T13:23:17.999Z</time>
</trkpt>
<trkpt lat="44.177396" lon="2.753016">
<ele>878.4</ele>
<time>2013-05-08T13:23:18.999Z</time>
</trkpt>
<trkpt lat="44.177456" lon="2.752764">
<ele>877.3</ele>
<time>2013-05-08T13:23:19.999Z</time>
</trkpt>
<trkpt lat="44.177509" lon="2.752512">
<ele>876.3</ele>
<time>2013-05-08T13:23:20.999Z</time>
</trkpt>
<trkpt lat="44.177541" lon="2.752246">
<ele>875.3</ele>
<time>2013-05-08T13:23:21.999Z</time>
</trkpt>
<trkpt lat="44.177542" lon="2.751973">
<ele>874.3</ele>
<time>2013-05-08T13:23:22.999Z</time>
</trkpt>
<trkpt lat="44.177538" lon="2.751722">
<ele>873.6</ele>
<time>2013-05-08T13:23:23.999Z</time>
</trkpt>
<trkpt lat="44.177519" lon="2.751464">
<ele>872.9</ele>
<time>2013-05-08T13:23:24.999Z</time>
</trkpt>
<trkpt lat="44.177469" lon="2.751203">
<ele>871.7</ele>
<time>2013-05-08T13:23:25.999Z</time>
</trkpt>
<trkpt lat="44.177396" lon="2.750951">
<ele>870.7</ele>
<time>2013-05-08T13:23:26.999Z</time>
</trkpt>
<trkpt lat="44.177306" lon="2.750719">
<ele>869.9</ele>
<time>2013-05-08T13:23:27.999Z</time>
</trkpt>
<trkpt lat="44.177208" lon="2.750469">
<ele>869.2</ele>
<time>2013-05-08T13:23:28.999Z</time>
</trkpt>
<trkpt lat="44.177112" lon="2.750221">
<ele>868.4</ele>
<time>2013-05-08T13:23:29.999Z</time>
</trkpt>
<trkpt lat="44.177022" lon="2.749984">
<ele>867.7</ele>
<time>2013-05-08T13:23:30.999Z</time>
</trkpt>
<trkpt lat="44.176938" lon="2.749763">
<ele>867.1</ele>
<time>2013-05-08T13:23:31.999Z</time>
</trkpt>
<trkpt lat="44.176863" lon="2.749543">
<ele>866.3</ele>
<time>2013-05-08T13:23:32.999Z</time>
</trkpt>
<trkpt lat="44.176831" lon="2.749328">
<ele>865.3</ele>
<time>2013-05-08T13:23:33.999Z</time>
</trkpt>
<trkpt lat="44.17685" lon="2.749107">
<ele>864.2</ele>
<time>2013-05-08T13:23:34.999Z</time>
</trkpt>
<trkpt lat="44.176913" lon="2.748894">
<ele>863</ele>
<time>2013-05-08T13:23:35.999Z</time>
</trkpt>
<trkpt lat="44.176983" lon="2.748692">
<ele>862.1</ele>
<time>2013-05-08T13:23:36.999Z</time>
</trkpt>
<trkpt lat="44.17706" lon="2.748497">
<ele>861.5</ele>
<time>2013-05-08T13:23:37.999Z</time>
</trkpt>
<trkpt lat="44.177131" lon="2.748323">
<ele>861.5</ele>
<time>2013-05-08T13:23:38.999Z</time>
</trkpt>
<trkpt lat="44.177167" lon="2.748145">
<ele>861</ele>
<time>2013-05-08T13:23:39.999Z</time>
</trkpt>
<trkpt lat="44.177168" lon="2.747931">
<ele>861</ele>
<time>2013-05-08T13:23:40.999Z</time>
</trkpt>
<trkpt lat="44.177155" lon="2.747675">
<ele>861.5</ele>
<time>2013-05-08T13:23:41.999Z</time>
</trkpt>
<trkpt lat="44.177133" lon="2.747402">
<ele>861.6</ele>
<time>2013-05-08T13:23:42.999Z</time>
</trkpt>
<trkpt lat="44.177103" lon="2.747142">
<ele>861.8</ele>
<time>2013-05-08T13:23:43.999Z</time>
</trkpt>
<trkpt lat="44.17705" lon="2.746888">
<ele>862</ele>
<time>2013-05-08T13:23:44.999Z</time>
</trkpt>
<trkpt lat="44.176977" lon="2.746637">
<ele>862.2</ele>
<time>2013-05-08T13:23:45.999Z</time>
</trkpt>
<trkpt lat="44.176883" lon="2.746381">
<ele>862.4</ele>
<time>2013-05-08T13:23:46.999Z</time>
</trkpt>
<trkpt lat="44.176777" lon="2.74613">
<ele>862.3</ele>
<time>2013-05-08T13:23:47.999Z</time>
</trkpt>
<trkpt lat="44.176652" lon="2.745872">
<ele>862.5</ele>
<time>2013-05-08T13:23:48.999Z</time>
</trkpt>
<trkpt lat="44.17652" lon="2.745612">
<ele>862.9</ele>
<time>2013-05-08T13:23:49.999Z</time>
</trkpt>
<trkpt lat="44.176387" lon="2.745344">
<ele>862.9</ele>
<time>2013-05-08T13:23:50.999Z</time>
</trkpt>
<trkpt lat="44.176255" lon="2.745076">
<ele>863</ele>
<time>2013-05-08T13:23:51.999Z</time>
</trkpt>
<trkpt lat="44.17612" lon="2.744807">
<ele>863</ele>
<time>2013-05-08T13:23:52.999Z</time>
</trkpt>
<trkpt lat="44.175994" lon="2.744536">
<ele>862.8</ele>
<time>2013-05-08T13:23:53.999Z</time>
</trkpt>
<trkpt lat="44.175872" lon="2.744282">
<ele>862.9</ele>
<time>2013-05-08T13:23:54.999Z</time>
</trkpt>
<trkpt lat="44.17576" lon="2.744023">
<ele>862.9</ele>
<time>2013-05-08T13:23:55.999Z</time>
</trkpt>
<trkpt lat="44.175665" lon="2.74377">
<ele>862.7</ele>
<time>2013-05-08T13:23:56.999Z</time>
</trkpt>
<trkpt lat="44.175587" lon="2.743521">
<ele>862.3</ele>
<time>2013-05-08T13:23:57.999Z</time>
</trkpt>
<trkpt lat="44.175516" lon="2.743284">
<ele>861.8</ele>
<time>2013-05-08T13:23:58.999Z</time>
</trkpt>
<trkpt lat="44.175451" lon="2.743068">
<ele>861.3</ele>
<time>2013-05-08T13:23:59.999Z</time>
</trkpt>
<trkpt lat="44.175388" lon="2.742883">
<ele>861</ele>
<time>2013-05-08T13:24:00.999Z</time>
</trkpt>
<trkpt lat="44.175321" lon="2.742701">
<ele>860.9</ele>
<time>2013-05-08T13:24:01.999Z</time>
</trkpt>
<trkpt lat="44.175265" lon="2.742537">
<ele>860.9</ele>
<time>2013-05-08T13:24:02.999Z</time>
</trkpt>
<trkpt lat="44.175248" lon="2.742368">
<ele>860.7</ele>
<time>2013-05-08T13:24:03.999Z</time>
</trkpt>
<trkpt lat="44.175274" lon="2.742215">
<ele>860.7</ele>
<time>2013-05-08T13:24:04.999Z</time>
</trkpt>
<trkpt lat="44.175344" lon="2.742082">
<ele>860.9</ele>
<time>2013-05-08T13:24:05.999Z</time>
</trkpt>
<trkpt lat="44.175433" lon="2.742031">
<ele>860.5</ele>
<time>2013-05-08T13:24:06.999Z</time>
</trkpt>
<trkpt lat="44.175536" lon="2.74198">
<ele>860.4</ele>
<time>2013-05-08T13:24:07.999Z</time>
</trkpt>
<trkpt lat="44.175644" lon="2.741957">
<ele>860.4</ele>
<time>2013-05-08T13:24:08.999Z</time>
</trkpt>
<trkpt lat="44.175755" lon="2.742062">
<ele>860.3</ele>
<time>2013-05-08T13:24:09.999Z</time>
</trkpt>
<trkpt lat="44.175874" lon="2.742169">
<ele>860.3</ele>
<time>2013-05-08T13:24:10.999Z</time>
</trkpt>
<trkpt lat="44.176" lon="2.742315">
<ele>860.4</ele>
<time>2013-05-08T13:24:11.999Z</time>
</trkpt>
<trkpt lat="44.176127" lon="2.742458">
<ele>860.8</ele>
<time>2013-05-08T13:24:12.999Z</time>
</trkpt>
<trkpt lat="44.176253" lon="2.742596">
<ele>861.4</ele>
<time>2013-05-08T13:24:13.999Z</time>
</trkpt>
<trkpt lat="44.176374" lon="2.742737">
<ele>862.3</ele>
<time>2013-05-08T13:24:14.999Z</time>
</trkpt>
<trkpt lat="44.176489" lon="2.742862">
<ele>863.2</ele>
<time>2013-05-08T13:24:15.999Z</time>
</trkpt>
<trkpt lat="44.176607" lon="2.742951">
<ele>864.1</ele>
<time>2013-05-08T13:24:16.999Z</time>
</trkpt>
<trkpt lat="44.176724" lon="2.742994">
<ele>865</ele>
<time>2013-05-08T13:24:17.999Z</time>
</trkpt>
<trkpt lat="44.176844" lon="2.742995">
<ele>866.1</ele>
<time>2013-05-08T13:24:18.999Z</time>
</trkpt>
<trkpt lat="44.17697" lon="2.742928">
<ele>867</ele>
<time>2013-05-08T13:24:19.999Z</time>
</trkpt>
<trkpt lat="44.177068" lon="2.742826">
<ele>867.5</ele>
<time>2013-05-08T13:24:20.999Z</time>
</trkpt>
<trkpt lat="44.177178" lon="2.742682">
<ele>868.4</ele>
<time>2013-05-08T13:24:21.999Z</time>
</trkpt>
<trkpt lat="44.177241" lon="2.742491">
<ele>869.6</ele>
<time>2013-05-08T13:24:22.999Z</time>
</trkpt>
<trkpt lat="44.17728" lon="2.742273">
<ele>870.7</ele>
<time>2013-05-08T13:24:23.999Z</time>
</trkpt>
<trkpt lat="44.177312" lon="2.742047">
<ele>871.6</ele>
<time>2013-05-08T13:24:24.999Z</time>
</trkpt>
<trkpt lat="44.177339" lon="2.741808">
<ele>872.1</ele>
<time>2013-05-08T13:24:25.999Z</time>
</trkpt>
<trkpt lat="44.177359" lon="2.741555">
<ele>872.5</ele>
<time>2013-05-08T13:24:26.999Z</time>
</trkpt>
<trkpt lat="44.177378" lon="2.741315">
<ele>873.2</ele>
<time>2013-05-08T13:24:27.999Z</time>
</trkpt>
<trkpt lat="44.177396" lon="2.741083">
<ele>873.8</ele>
<time>2013-05-08T13:24:28.999Z</time>
</trkpt>
<trkpt lat="44.177419" lon="2.740846">
<ele>874.3</ele>
<time>2013-05-08T13:24:29.999Z</time>
</trkpt>
<trkpt lat="44.177485" lon="2.740643">
<ele>874.9</ele>
<time>2013-05-08T13:24:30.999Z</time>
</trkpt>
<trkpt lat="44.177562" lon="2.740442">
<ele>875.6</ele>
<time>2013-05-08T13:24:31.999Z</time>
</trkpt>
<trkpt lat="44.177673" lon="2.740272">
<ele>876.8</ele>
<time>2013-05-08T13:24:32.999Z</time>
</trkpt>
<trkpt lat="44.177794" lon="2.740097">
<ele>878</ele>
<time>2013-05-08T13:24:33.999Z</time>
</trkpt>
<trkpt lat="44.177918" lon="2.739934">
<ele>879.1</ele>
<time>2013-05-08T13:24:34.999Z</time>
</trkpt>
<trkpt lat="44.178051" lon="2.739792">
<ele>880.8</ele>
<time>2013-05-08T13:24:35.999Z</time>
</trkpt>
<trkpt lat="44.17816" lon="2.73966">
<ele>882.4</ele>
<time>2013-05-08T13:24:36.999Z</time>
</trkpt>
<trkpt lat="44.178206" lon="2.739504">
<ele>883.8</ele>
<time>2013-05-08T13:24:37.999Z</time>
</trkpt>
<trkpt lat="44.178242" lon="2.739352">
<ele>885.1</ele>
<time>2013-05-08T13:24:38.999Z</time>
</trkpt>
<trkpt lat="44.178283" lon="2.739213">
<ele>886.9</ele>
<time>2013-05-08T13:24:39.999Z</time>
</trkpt>
<trkpt lat="44.178241" lon="2.739054">
<ele>888.9</ele>
<time>2013-05-08T13:24:40.999Z</time>
</trkpt>
<trkpt lat="44.178178" lon="2.738891">
<ele>890.9</ele>
<time>2013-05-08T13:24:41.999Z</time>
</trkpt>
<trkpt lat="44.178085" lon="2.73873">
<ele>892.7</ele>
<time>2013-05-08T13:24:42.999Z</time>
</trkpt>
<trkpt lat="44.17799" lon="2.738584">
<ele>894.4</ele>
<time>2013-05-08T13:24:43.999Z</time>
</trkpt>
<trkpt lat="44.177886" lon="2.738438">
<ele>895.9</ele>
<time>2013-05-08T13:24:44.999Z</time>
</trkpt>
<trkpt lat="44.177793" lon="2.73831">
<ele>897.4</ele>
<time>2013-05-08T13:24:45.999Z</time>
</trkpt>
<trkpt lat="44.177702" lon="2.738189">
<ele>899.1</ele>
<time>2013-05-08T13:24:46.999Z</time>
</trkpt>
<trkpt lat="44.177608" lon="2.73806">
<ele>900.4</ele>
<time>2013-05-08T13:24:47.999Z</time>
</trkpt>
<trkpt lat="44.177521" lon="2.73794">
<ele>901.4</ele>
<time>2013-05-08T13:24:48.999Z</time>
</trkpt>
<trkpt lat="44.177446" lon="2.737814">
<ele>902.5</ele>
<time>2013-05-08T13:24:49.999Z</time>
</trkpt>
<trkpt lat="44.177384" lon="2.73768">
<ele>903.4</ele>
<time>2013-05-08T13:24:50.999Z</time>
</trkpt>
<trkpt lat="44.17735" lon="2.737559">
<ele>904.5</ele>
<time>2013-05-08T13:24:51.999Z</time>
</trkpt>
<trkpt lat="44.17732" lon="2.737448">
<ele>905.3</ele>
<time>2013-05-08T13:24:52.999Z</time>
</trkpt>
<trkpt lat="44.177286" lon="2.73735">
<ele>906</ele>
<time>2013-05-08T13:24:53.999Z</time>
</trkpt>
<trkpt lat="44.177249" lon="2.737253">
<ele>906.5</ele>
<time>2013-05-08T13:24:54.999Z</time>
</trkpt>
<trkpt lat="44.177212" lon="2.73716">
<ele>907</ele>
<time>2013-05-08T13:24:55.999Z</time>
</trkpt>
<trkpt lat="44.177181" lon="2.737068">
<ele>907.2</ele>
<time>2013-05-08T13:24:56.999Z</time>
</trkpt>
<trkpt lat="44.177174" lon="2.736964">
<ele>907.5</ele>
<time>2013-05-08T13:24:57.999Z</time>
</trkpt>
<trkpt lat="44.177169" lon="2.736851">
<ele>907.7</ele>
<time>2013-05-08T13:24:58.999Z</time>
</trkpt>
<trkpt lat="44.177166" lon="2.736733">
<ele>907.8</ele>
<time>2013-05-08T13:24:59.999Z</time>
</trkpt>
<trkpt lat="44.177159" lon="2.736602">
<ele>908.3</ele>
<time>2013-05-08T13:25:00.999Z</time>
</trkpt>
<trkpt lat="44.177146" lon="2.73646">
<ele>908.9</ele>
<time>2013-05-08T13:25:01.999Z</time>
</trkpt>
<trkpt lat="44.177078" lon="2.736344">
<ele>909.7</ele>
<time>2013-05-08T13:25:02.999Z</time>
</trkpt>
<trkpt lat="44.177006" lon="2.736239">
<ele>910.6</ele>
<time>2013-05-08T13:25:03.999Z</time>
</trkpt>
<trkpt lat="44.176902" lon="2.73618">
<ele>910.9</ele>
<time>2013-05-08T13:25:04.999Z</time>
</trkpt>
<trkpt lat="44.176791" lon="2.736127">
<ele>911</ele>
<time>2013-05-08T13:25:05.999Z</time>
</trkpt>
<trkpt lat="44.176672" lon="2.736085">
<ele>911.1</ele>
<time>2013-05-08T13:25:06.999Z</time>
</trkpt>
<trkpt lat="44.17655" lon="2.736037">
<ele>911.2</ele>
<time>2013-05-08T13:25:07.999Z</time>
</trkpt>
<trkpt lat="44.176431" lon="2.735989">
<ele>911.1</ele>
<time>2013-05-08T13:25:08.999Z</time>
</trkpt>
<trkpt lat="44.176312" lon="2.735938">
<ele>911</ele>
<time>2013-05-08T13:25:09.999Z</time>
</trkpt>
<trkpt lat="44.176191" lon="2.735885">
<ele>911.2</ele>
<time>2013-05-08T13:25:10.999Z</time>
</trkpt>
<trkpt lat="44.17607" lon="2.735826">
<ele>911.4</ele>
<time>2013-05-08T13:25:11.999Z</time>
</trkpt>
<trkpt lat="44.175944" lon="2.735774">
<ele>911.3</ele>
<time>2013-05-08T13:25:12.999Z</time>
</trkpt>
<trkpt lat="44.17582" lon="2.735734">
<ele>911.6</ele>
<time>2013-05-08T13:25:13.999Z</time>
</trkpt>
<trkpt lat="44.175694" lon="2.735702">
<ele>911.7</ele>
<time>2013-05-08T13:25:14.999Z</time>
</trkpt>
<trkpt lat="44.175571" lon="2.735685">
<ele>911.8</ele>
<time>2013-05-08T13:25:15.999Z</time>
</trkpt>
<trkpt lat="44.175443" lon="2.735674">
<ele>911.9</ele>
<time>2013-05-08T13:25:16.999Z</time>
</trkpt>
<trkpt lat="44.175309" lon="2.735669">
<ele>911.7</ele>
<time>2013-05-08T13:25:17.999Z</time>
</trkpt>
<trkpt lat="44.175169" lon="2.735667">
<ele>911.6</ele>
<time>2013-05-08T13:25:18.999Z</time>
</trkpt>
<trkpt lat="44.175025" lon="2.735668">
<ele>911.5</ele>
<time>2013-05-08T13:25:19.999Z</time>
</trkpt>
<trkpt lat="44.174868" lon="2.735667">
<ele>911.4</ele>
<time>2013-05-08T13:25:20.999Z</time>
</trkpt>
<trkpt lat="44.174697" lon="2.735669">
<ele>911.2</ele>
<time>2013-05-08T13:25:21.999Z</time>
</trkpt>
<trkpt lat="44.174534" lon="2.73568">
<ele>911.1</ele>
<time>2013-05-08T13:25:22.999Z</time>
</trkpt>
<trkpt lat="44.174371" lon="2.73569">
<ele>911</ele>
<time>2013-05-08T13:25:23.999Z</time>
</trkpt>
<trkpt lat="44.174215" lon="2.735713">
<ele>910.9</ele>
<time>2013-05-08T13:25:24.999Z</time>
</trkpt>
<trkpt lat="44.174045" lon="2.735723">
<ele>910.6</ele>
<time>2013-05-08T13:25:25.999Z</time>
</trkpt>
<trkpt lat="44.173901" lon="2.73569">
<ele>910.4</ele>
<time>2013-05-08T13:25:26.999Z</time>
</trkpt>
<trkpt lat="44.173797" lon="2.735628">
<ele>910.4</ele>
<time>2013-05-08T13:25:27.999Z</time>
</trkpt>
<trkpt lat="44.173713" lon="2.735544">
<ele>910</ele>
<time>2013-05-08T13:25:28.999Z</time>
</trkpt>
<trkpt lat="44.173661" lon="2.735423">
<ele>909.7</ele>
<time>2013-05-08T13:25:29.999Z</time>
</trkpt>
<trkpt lat="44.173618" lon="2.735294">
<ele>909.5</ele>
<time>2013-05-08T13:25:30.999Z</time>
</trkpt>
<trkpt lat="44.173619" lon="2.735139">
<ele>909.5</ele>
<time>2013-05-08T13:25:31.999Z</time>
</trkpt>
<trkpt lat="44.173642" lon="2.734976">
<ele>909.2</ele>
<time>2013-05-08T13:25:32.999Z</time>
</trkpt>
<trkpt lat="44.173703" lon="2.734801">
<ele>908.6</ele>
<time>2013-05-08T13:25:33.999Z</time>
</trkpt>
<trkpt lat="44.173781" lon="2.73462">
<ele>908.5</ele>
<time>2013-05-08T13:25:34.999Z</time>
</trkpt>
<trkpt lat="44.173881" lon="2.734426">
<ele>908.8</ele>
<time>2013-05-08T13:25:35.999Z</time>
</trkpt>
<trkpt lat="44.173995" lon="2.734235">
<ele>909.2</ele>
<time>2013-05-08T13:25:36.999Z</time>
</trkpt>
<trkpt lat="44.174113" lon="2.73405">
<ele>909.6</ele>
<time>2013-05-08T13:25:37.999Z</time>
</trkpt>
<trkpt lat="44.174231" lon="2.733878">
<ele>909.9</ele>
<time>2013-05-08T13:25:38.999Z</time>
</trkpt>
<trkpt lat="44.174361" lon="2.733699">
<ele>910</ele>
<time>2013-05-08T13:25:39.999Z</time>
</trkpt>
<trkpt lat="44.174483" lon="2.73351">
<ele>910.1</ele>
<time>2013-05-08T13:25:40.999Z</time>
</trkpt>
<trkpt lat="44.174596" lon="2.733333">
<ele>910.2</ele>
<time>2013-05-08T13:25:41.999Z</time>
</trkpt>
<trkpt lat="44.174699" lon="2.733162">
<ele>910</ele>
<time>2013-05-08T13:25:42.999Z</time>
</trkpt>
<trkpt lat="44.174786" lon="2.732995">
<ele>909.8</ele>
<time>2013-05-08T13:25:43.999Z</time>
</trkpt>
<trkpt lat="44.174863" lon="2.732828">
<ele>909.4</ele>
<time>2013-05-08T13:25:44.999Z</time>
</trkpt>
<trkpt lat="44.174916" lon="2.732702">
<ele>909.1</ele>
<time>2013-05-08T13:25:45.999Z</time>
</trkpt>
<trkpt lat="44.17496" lon="2.732587">
<ele>908.5</ele>
<time>2013-05-08T13:25:46.999Z</time>
</trkpt>
<trkpt lat="44.174989" lon="2.732506">
<ele>908.1</ele>
<time>2013-05-08T13:25:47.999Z</time>
</trkpt>
<trkpt lat="44.175004" lon="2.732452">
<ele>907.7</ele>
<time>2013-05-08T13:25:48.999Z</time>
</trkpt>
<trkpt lat="44.175009" lon="2.732425">
<ele>907.6</ele>
<time>2013-05-08T13:25:49.999Z</time>
</trkpt>
<trkpt lat="44.175015" lon="2.732366">
<ele>907.4</ele>
<time>2013-05-08T13:25:52.999Z</time>
</trkpt>
<trkpt lat="44.175017" lon="2.732342">
<ele>907.4</ele>
<time>2013-05-08T13:25:53.999Z</time>
</trkpt>
<trkpt lat="44.175021" lon="2.732293">
<ele>907.3</ele>
<time>2013-05-08T13:25:55.999Z</time>
</trkpt>
<trkpt lat="44.175027" lon="2.732259">
<ele>907.2</ele>
<time>2013-05-08T13:25:56.999Z</time>
</trkpt>
<trkpt lat="44.175038" lon="2.73221">
<ele>906.9</ele>
<time>2013-05-08T13:25:57.999Z</time>
</trkpt>
<trkpt lat="44.175052" lon="2.732151">
<ele>906.6</ele>
<time>2013-05-08T13:25:58.999Z</time>
</trkpt>
<trkpt lat="44.175068" lon="2.732082">
<ele>906.3</ele>
<time>2013-05-08T13:25:59.999Z</time>
</trkpt>
<trkpt lat="44.175087" lon="2.732003">
<ele>906</ele>
<time>2013-05-08T13:26:00.999Z</time>
</trkpt>
<trkpt lat="44.175109" lon="2.731905">
<ele>905.7</ele>
<time>2013-05-08T13:26:01.999Z</time>
</trkpt>
<trkpt lat="44.175134" lon="2.731799">
<ele>905.4</ele>
<time>2013-05-08T13:26:02.999Z</time>
</trkpt>
<trkpt lat="44.175163" lon="2.731675">
<ele>904.7</ele>
<time>2013-05-08T13:26:03.999Z</time>
</trkpt>
<trkpt lat="44.175201" lon="2.731534">
<ele>904.1</ele>
<time>2013-05-08T13:26:04.999Z</time>
</trkpt>
<trkpt lat="44.175249" lon="2.731383">
<ele>903.7</ele>
<time>2013-05-08T13:26:05.999Z</time>
</trkpt>
<trkpt lat="44.175311" lon="2.731211">
<ele>903.3</ele>
<time>2013-05-08T13:26:06.999Z</time>
</trkpt>
<trkpt lat="44.175385" lon="2.731024">
<ele>902.9</ele>
<time>2013-05-08T13:26:07.999Z</time>
</trkpt>
<trkpt lat="44.175465" lon="2.730829">
<ele>902.3</ele>
<time>2013-05-08T13:26:08.999Z</time>
</trkpt>
<trkpt lat="44.175556" lon="2.730619">
<ele>901.6</ele>
<time>2013-05-08T13:26:09.999Z</time>
</trkpt>
<trkpt lat="44.175665" lon="2.730396">
<ele>901.1</ele>
<time>2013-05-08T13:26:10.999Z</time>
</trkpt>
<trkpt lat="44.175782" lon="2.730192">
<ele>900.3</ele>
<time>2013-05-08T13:26:11.999Z</time>
</trkpt>
<trkpt lat="44.175935" lon="2.730083">
<ele>899.4</ele>
<time>2013-05-08T13:26:12.999Z</time>
</trkpt>
<trkpt lat="44.176101" lon="2.729972">
<ele>898.3</ele>
<time>2013-05-08T13:26:13.999Z</time>
</trkpt>
<trkpt lat="44.176283" lon="2.729913">
<ele>897.4</ele>
<time>2013-05-08T13:26:14.999Z</time>
</trkpt>
<trkpt lat="44.176505" lon="2.729898">
<ele>896.6</ele>
<time>2013-05-08T13:26:15.999Z</time>
</trkpt>
<trkpt lat="44.176732" lon="2.729903">
<ele>895.9</ele>
<time>2013-05-08T13:26:16.999Z</time>
</trkpt>
<trkpt lat="44.176957" lon="2.729899">
<ele>895.4</ele>
<time>2013-05-08T13:26:17.999Z</time>
</trkpt>
<trkpt lat="44.177166" lon="2.729894">
<ele>895.2</ele>
<time>2013-05-08T13:26:18.999Z</time>
</trkpt>
<trkpt lat="44.177366" lon="2.729873">
<ele>895.4</ele>
<time>2013-05-08T13:26:19.999Z</time>
</trkpt>
<trkpt lat="44.177566" lon="2.729852">
<ele>895.7</ele>
<time>2013-05-08T13:26:20.999Z</time>
</trkpt>
<trkpt lat="44.177745" lon="2.729772">
<ele>896.5</ele>
<time>2013-05-08T13:26:21.999Z</time>
</trkpt>
<trkpt lat="44.177913" lon="2.729648">
<ele>897</ele>
<time>2013-05-08T13:26:22.999Z</time>
</trkpt>
<trkpt lat="44.178077" lon="2.729503">
<ele>897.1</ele>
<time>2013-05-08T13:26:23.999Z</time>
</trkpt>
<trkpt lat="44.178218" lon="2.729305">
<ele>897.1</ele>
<time>2013-05-08T13:26:24.999Z</time>
</trkpt>
<trkpt lat="44.17835" lon="2.729076">
<ele>897</ele>
<time>2013-05-08T13:26:25.999Z</time>
</trkpt>
<trkpt lat="44.178494" lon="2.728851">
<ele>896.9</ele>
<time>2013-05-08T13:26:26.999Z</time>
</trkpt>
<trkpt lat="44.178654" lon="2.728645">
<ele>896.7</ele>
<time>2013-05-08T13:26:27.999Z</time>
</trkpt>
<trkpt lat="44.178811" lon="2.728446">
<ele>896.4</ele>
<time>2013-05-08T13:26:28.999Z</time>
</trkpt>
<trkpt lat="44.178971" lon="2.728245">
<ele>896.1</ele>
<time>2013-05-08T13:26:29.999Z</time>
</trkpt>
<trkpt lat="44.179133" lon="2.728053">
<ele>895.8</ele>
<time>2013-05-08T13:26:30.999Z</time>
</trkpt>
<trkpt lat="44.179311" lon="2.727887">
<ele>895.4</ele>
<time>2013-05-08T13:26:31.999Z</time>
</trkpt>
<trkpt lat="44.179501" lon="2.727743">
<ele>894.7</ele>
<time>2013-05-08T13:26:32.999Z</time>
</trkpt>
<trkpt lat="44.179703" lon="2.727609">
<ele>893.9</ele>
<time>2013-05-08T13:26:33.999Z</time>
</trkpt>
<trkpt lat="44.179915" lon="2.727477">
<ele>893.2</ele>
<time>2013-05-08T13:26:34.999Z</time>
</trkpt>
<trkpt lat="44.180138" lon="2.727365">
<ele>892.7</ele>
<time>2013-05-08T13:26:35.999Z</time>
</trkpt>
<trkpt lat="44.180363" lon="2.727256">
<ele>892.3</ele>
<time>2013-05-08T13:26:36.999Z</time>
</trkpt>
<trkpt lat="44.180593" lon="2.727168">
<ele>891.8</ele>
<time>2013-05-08T13:26:37.999Z</time>
</trkpt>
<trkpt lat="44.180829" lon="2.727094">
<ele>891.7</ele>
<time>2013-05-08T13:26:38.999Z</time>
</trkpt>
<trkpt lat="44.181057" lon="2.727034">
<ele>891.8</ele>
<time>2013-05-08T13:26:39.999Z</time>
</trkpt>
<trkpt lat="44.181279" lon="2.726977">
<ele>892.1</ele>
<time>2013-05-08T13:26:40.999Z</time>
</trkpt>
<trkpt lat="44.181483" lon="2.726912">
<ele>892.6</ele>
<time>2013-05-08T13:26:41.999Z</time>
</trkpt>
<trkpt lat="44.181681" lon="2.726852">
<ele>893</ele>
<time>2013-05-08T13:26:42.999Z</time>
</trkpt>
<trkpt lat="44.18187" lon="2.726776">
<ele>893</ele>
<time>2013-05-08T13:26:43.999Z</time>
</trkpt>
<trkpt lat="44.182053" lon="2.726686">
<ele>892.9</ele>
<time>2013-05-08T13:26:44.999Z</time>
</trkpt>
<trkpt lat="44.182231" lon="2.726579">
<ele>892.7</ele>
<time>2013-05-08T13:26:45.999Z</time>
</trkpt>
<trkpt lat="44.182413" lon="2.726458">
<ele>892.6</ele>
<time>2013-05-08T13:26:46.999Z</time>
</trkpt>
<trkpt lat="44.182594" lon="2.726325">
<ele>892.5</ele>
<time>2013-05-08T13:26:47.999Z</time>
</trkpt>
<trkpt lat="44.182775" lon="2.726177">
<ele>892.3</ele>
<time>2013-05-08T13:26:48.999Z</time>
</trkpt>
<trkpt lat="44.182951" lon="2.726018">
<ele>892.1</ele>
<time>2013-05-08T13:26:49.999Z</time>
</trkpt>
<trkpt lat="44.183125" lon="2.725857">
<ele>892</ele>
<time>2013-05-08T13:26:50.999Z</time>
</trkpt>
<trkpt lat="44.183299" lon="2.725696">
<ele>891.9</ele>
<time>2013-05-08T13:26:51.999Z</time>
</trkpt>
<trkpt lat="44.183463" lon="2.725528">
<ele>891.7</ele>
<time>2013-05-08T13:26:52.999Z</time>
</trkpt>
<trkpt lat="44.183623" lon="2.725366">
<ele>891.4</ele>
<time>2013-05-08T13:26:53.999Z</time>
</trkpt>
<trkpt lat="44.183778" lon="2.725213">
<ele>890.9</ele>
<time>2013-05-08T13:26:54.999Z</time>
</trkpt>
<trkpt lat="44.183929" lon="2.725078">
<ele>890.4</ele>
<time>2013-05-08T13:26:55.999Z</time>
</trkpt>
<trkpt lat="44.184084" lon="2.724951">
<ele>889.7</ele>
<time>2013-05-08T13:26:56.999Z</time>
</trkpt>
<trkpt lat="44.184235" lon="2.724851">
<ele>888.9</ele>
<time>2013-05-08T13:26:57.999Z</time>
</trkpt>
<trkpt lat="44.184387" lon="2.724769">
<ele>888.3</ele>
<time>2013-05-08T13:26:58.999Z</time>
</trkpt>
<trkpt lat="44.184531" lon="2.724689">
<ele>887.6</ele>
<time>2013-05-08T13:26:59.999Z</time>
</trkpt>
<trkpt lat="44.18468" lon="2.724633">
<ele>887.2</ele>
<time>2013-05-08T13:27:00.999Z</time>
</trkpt>
<trkpt lat="44.18482" lon="2.724594">
<ele>886</ele>
<time>2013-05-08T13:27:01.999Z</time>
</trkpt>
<trkpt lat="44.184948" lon="2.724532">
<ele>885</ele>
<time>2013-05-08T13:27:02.999Z</time>
</trkpt>
<trkpt lat="44.185045" lon="2.724425">
<ele>884.1</ele>
<time>2013-05-08T13:27:03.999Z</time>
</trkpt>
<trkpt lat="44.185114" lon="2.72427">
<ele>882.9</ele>
<time>2013-05-08T13:27:04.999Z</time>
</trkpt>
<trkpt lat="44.185141" lon="2.724092">
<ele>881.8</ele>
<time>2013-05-08T13:27:05.999Z</time>
</trkpt>
<trkpt lat="44.185155" lon="2.723919">
<ele>880.7</ele>
<time>2013-05-08T13:27:06.999Z</time>
</trkpt>
<trkpt lat="44.18514" lon="2.723752">
<ele>880.2</ele>
<time>2013-05-08T13:27:07.999Z</time>
</trkpt>
<trkpt lat="44.185113" lon="2.723585">
<ele>879.7</ele>
<time>2013-05-08T13:27:08.999Z</time>
</trkpt>
<trkpt lat="44.184996" lon="2.723433">
<ele>879.1</ele>
<time>2013-05-08T13:27:09.999Z</time>
</trkpt>
<trkpt lat="44.184844" lon="2.723335">
<ele>878.4</ele>
<time>2013-05-08T13:27:10.999Z</time>
</trkpt>
<trkpt lat="44.184694" lon="2.723245">
<ele>877.7</ele>
<time>2013-05-08T13:27:11.999Z</time>
</trkpt>
<trkpt lat="44.184531" lon="2.723161">
<ele>877.1</ele>
<time>2013-05-08T13:27:12.999Z</time>
</trkpt>
<trkpt lat="44.184371" lon="2.723078">
<ele>876.5</ele>
<time>2013-05-08T13:27:13.999Z</time>
</trkpt>
<trkpt lat="44.184229" lon="2.723004">
<ele>875.9</ele>
<time>2013-05-08T13:27:14.999Z</time>
</trkpt>
<trkpt lat="44.184092" lon="2.722927">
<ele>875.3</ele>
<time>2013-05-08T13:27:15.999Z</time>
</trkpt>
<trkpt lat="44.183966" lon="2.722842">
<ele>874.8</ele>
<time>2013-05-08T13:27:16.999Z</time>
</trkpt>
<trkpt lat="44.183848" lon="2.72275">
<ele>874.2</ele>
<time>2013-05-08T13:27:17.999Z</time>
</trkpt>
<trkpt lat="44.183773" lon="2.722604">
<ele>873.7</ele>
<time>2013-05-08T13:27:18.999Z</time>
</trkpt>
<trkpt lat="44.183711" lon="2.722451">
<ele>873.5</ele>
<time>2013-05-08T13:27:19.999Z</time>
</trkpt>
<trkpt lat="44.183682" lon="2.722276">
<ele>873.4</ele>
<time>2013-05-08T13:27:20.999Z</time>
</trkpt>
<trkpt lat="44.183669" lon="2.722108">
<ele>873.3</ele>
<time>2013-05-08T13:27:21.999Z</time>
</trkpt>
<trkpt lat="44.183698" lon="2.721925">
<ele>873.4</ele>
<time>2013-05-08T13:27:22.999Z</time>
</trkpt>
<trkpt lat="44.183759" lon="2.721735">
<ele>873.3</ele>
<time>2013-05-08T13:27:23.999Z</time>
</trkpt>
<trkpt lat="44.183826" lon="2.721562">
<ele>873.1</ele>
<time>2013-05-08T13:27:24.999Z</time>
</trkpt>
<trkpt lat="44.183919" lon="2.721408">
<ele>872.8</ele>
<time>2013-05-08T13:27:25.999Z</time>
</trkpt>
<trkpt lat="44.184013" lon="2.721267">
<ele>872.3</ele>
<time>2013-05-08T13:27:26.999Z</time>
</trkpt>
<trkpt lat="44.184108" lon="2.721127">
<ele>871.6</ele>
<time>2013-05-08T13:27:27.999Z</time>
</trkpt>
<trkpt lat="44.184211" lon="2.720973">
<ele>870.6</ele>
<time>2013-05-08T13:27:28.999Z</time>
</trkpt>
<trkpt lat="44.184307" lon="2.720811">
<ele>869.7</ele>
<time>2013-05-08T13:27:29.999Z</time>
</trkpt>
<trkpt lat="44.184392" lon="2.720642">
<ele>869</ele>
<time>2013-05-08T13:27:30.999Z</time>
</trkpt>
<trkpt lat="44.184448" lon="2.720447">
<ele>868.5</ele>
<time>2013-05-08T13:27:31.999Z</time>
</trkpt>
<trkpt lat="44.184487" lon="2.720247">
<ele>867.9</ele>
<time>2013-05-08T13:27:32.999Z</time>
</trkpt>
<trkpt lat="44.18449" lon="2.72004">
<ele>867.6</ele>
<time>2013-05-08T13:27:33.999Z</time>
</trkpt>
<trkpt lat="44.184498" lon="2.719831">
<ele>867.6</ele>
<time>2013-05-08T13:27:34.999Z</time>
</trkpt>
<trkpt lat="44.184495" lon="2.719605">
<ele>867.3</ele>
<time>2013-05-08T13:27:35.999Z</time>
</trkpt>
<trkpt lat="44.184502" lon="2.719374">
<ele>867</ele>
<time>2013-05-08T13:27:36.999Z</time>
</trkpt>
<trkpt lat="44.184526" lon="2.719134">
<ele>866.4</ele>
<time>2013-05-08T13:27:37.999Z</time>
</trkpt>
<trkpt lat="44.184588" lon="2.7189">
<ele>865.8</ele>
<time>2013-05-08T13:27:38.999Z</time>
</trkpt>
<trkpt lat="44.184656" lon="2.71868">
<ele>865.5</ele>
<time>2013-05-08T13:27:39.999Z</time>
</trkpt>
<trkpt lat="44.184766" lon="2.718486">
<ele>865.2</ele>
<time>2013-05-08T13:27:40.999Z</time>
</trkpt>
<trkpt lat="44.184879" lon="2.7183">
<ele>864.6</ele>
<time>2013-05-08T13:27:41.999Z</time>
</trkpt>
<trkpt lat="44.185002" lon="2.718128">
<ele>864.1</ele>
<time>2013-05-08T13:27:42.999Z</time>
</trkpt>
<trkpt lat="44.18514" lon="2.717957">
<ele>863.9</ele>
<time>2013-05-08T13:27:43.999Z</time>
</trkpt>
<trkpt lat="44.185285" lon="2.7178">
<ele>864.2</ele>
<time>2013-05-08T13:27:44.999Z</time>
</trkpt>
<trkpt lat="44.185429" lon="2.717668">
<ele>864.5</ele>
<time>2013-05-08T13:27:45.999Z</time>
</trkpt>
<trkpt lat="44.185565" lon="2.717526">
<ele>865</ele>
<time>2013-05-08T13:27:46.999Z</time>
</trkpt>
<trkpt lat="44.185675" lon="2.717348">
<ele>865.3</ele>
<time>2013-05-08T13:27:47.999Z</time>
</trkpt>
<trkpt lat="44.185737" lon="2.717118">
<ele>865.3</ele>
<time>2013-05-08T13:27:48.999Z</time>
</trkpt>
<trkpt lat="44.18579" lon="2.716867">
<ele>865.2</ele>
<time>2013-05-08T13:27:49.999Z</time>
</trkpt>
<trkpt lat="44.18584" lon="2.716612">
<ele>864.9</ele>
<time>2013-05-08T13:27:50.999Z</time>
</trkpt>
<trkpt lat="44.185895" lon="2.716363">
<ele>864.8</ele>
<time>2013-05-08T13:27:51.999Z</time>
</trkpt>
<trkpt lat="44.185968" lon="2.716124">
<ele>864.6</ele>
<time>2013-05-08T13:27:52.999Z</time>
</trkpt>
<trkpt lat="44.186057" lon="2.715891">
<ele>864.5</ele>
<time>2013-05-08T13:27:53.999Z</time>
</trkpt>
<trkpt lat="44.186163" lon="2.715684">
<ele>864.4</ele>
<time>2013-05-08T13:27:54.999Z</time>
</trkpt>
<trkpt lat="44.186292" lon="2.715509">
<ele>864</ele>
<time>2013-05-08T13:27:55.999Z</time>
</trkpt>
<trkpt lat="44.186425" lon="2.715336">
<ele>863.5</ele>
<time>2013-05-08T13:27:56.999Z</time>
</trkpt>
<trkpt lat="44.186571" lon="2.715163">
<ele>863.3</ele>
<time>2013-05-08T13:27:57.999Z</time>
</trkpt>
<trkpt lat="44.186717" lon="2.714996">
<ele>863.2</ele>
<time>2013-05-08T13:27:58.999Z</time>
</trkpt>
<trkpt lat="44.186862" lon="2.714834">
<ele>863.1</ele>
<time>2013-05-08T13:27:59.999Z</time>
</trkpt>
<trkpt lat="44.187005" lon="2.71468">
<ele>862.9</ele>
<time>2013-05-08T13:28:00.999Z</time>
</trkpt>
<trkpt lat="44.187155" lon="2.714553">
<ele>862.5</ele>
<time>2013-05-08T13:28:01.999Z</time>
</trkpt>
<trkpt lat="44.187303" lon="2.714464">
<ele>862</ele>
<time>2013-05-08T13:28:02.999Z</time>
</trkpt>
<trkpt lat="44.187457" lon="2.714381">
<ele>861.6</ele>
<time>2013-05-08T13:28:03.999Z</time>
</trkpt>
<trkpt lat="44.187614" lon="2.714349">
<ele>861.1</ele>
<time>2013-05-08T13:28:04.999Z</time>
</trkpt>
<trkpt lat="44.187762" lon="2.714387">
<ele>860.8</ele>
<time>2013-05-08T13:28:05.999Z</time>
</trkpt>
<trkpt lat="44.187917" lon="2.714416">
<ele>860.7</ele>
<time>2013-05-08T13:28:06.999Z</time>
</trkpt>
<trkpt lat="44.188093" lon="2.714409">
<ele>860.6</ele>
<time>2013-05-08T13:28:07.999Z</time>
</trkpt>
<trkpt lat="44.188253" lon="2.714381">
<ele>861.1</ele>
<time>2013-05-08T13:28:08.999Z</time>
</trkpt>
<trkpt lat="44.188394" lon="2.714279">
<ele>861.8</ele>
<time>2013-05-08T13:28:09.999Z</time>
</trkpt>
<trkpt lat="44.188538" lon="2.714144">
<ele>862.5</ele>
<time>2013-05-08T13:28:10.999Z</time>
</trkpt>
<trkpt lat="44.188683" lon="2.713989">
<ele>863.4</ele>
<time>2013-05-08T13:28:11.999Z</time>
</trkpt>
<trkpt lat="44.188828" lon="2.713832">
<ele>864.1</ele>
<time>2013-05-08T13:28:12.999Z</time>
</trkpt>
<trkpt lat="44.188975" lon="2.71366">
<ele>864.6</ele>
<time>2013-05-08T13:28:13.999Z</time>
</trkpt>
<trkpt lat="44.18913" lon="2.713467">
<ele>865.1</ele>
<time>2013-05-08T13:28:14.999Z</time>
</trkpt>
<trkpt lat="44.189285" lon="2.713275">
<ele>865.6</ele>
<time>2013-05-08T13:28:15.999Z</time>
</trkpt>
<trkpt lat="44.189441" lon="2.713082">
<ele>866.2</ele>
<time>2013-05-08T13:28:16.999Z</time>
</trkpt>
<trkpt lat="44.189601" lon="2.712899">
<ele>866.6</ele>
<time>2013-05-08T13:28:17.999Z</time>
</trkpt>
<trkpt lat="44.189751" lon="2.712724">
<ele>867</ele>
<time>2013-05-08T13:28:18.999Z</time>
</trkpt>
<trkpt lat="44.189896" lon="2.712556">
<ele>867.5</ele>
<time>2013-05-08T13:28:19.999Z</time>
</trkpt>
<trkpt lat="44.190025" lon="2.71238">
<ele>868.1</ele>
<time>2013-05-08T13:28:20.999Z</time>
</trkpt>
<trkpt lat="44.190131" lon="2.712206">
<ele>868.6</ele>
<time>2013-05-08T13:28:21.999Z</time>
</trkpt>
<trkpt lat="44.190226" lon="2.71202">
<ele>869.2</ele>
<time>2013-05-08T13:28:22.999Z</time>
</trkpt>
<trkpt lat="44.190273" lon="2.711795">
<ele>869.6</ele>
<time>2013-05-08T13:28:23.999Z</time>
</trkpt>
<trkpt lat="44.190264" lon="2.711521">
<ele>869.8</ele>
<time>2013-05-08T13:28:24.999Z</time>
</trkpt>
<trkpt lat="44.190245" lon="2.711267">
<ele>870.1</ele>
<time>2013-05-08T13:28:25.999Z</time>
</trkpt>
<trkpt lat="44.190218" lon="2.711027">
<ele>870.5</ele>
<time>2013-05-08T13:28:26.999Z</time>
</trkpt>
<trkpt lat="44.190184" lon="2.710776">
<ele>870.7</ele>
<time>2013-05-08T13:28:27.999Z</time>
</trkpt>
<trkpt lat="44.190144" lon="2.710536">
<ele>870.8</ele>
<time>2013-05-08T13:28:28.999Z</time>
</trkpt>
<trkpt lat="44.190101" lon="2.710303">
<ele>871</ele>
<time>2013-05-08T13:28:29.999Z</time>
</trkpt>
<trkpt lat="44.190065" lon="2.710076">
<ele>870.9</ele>
<time>2013-05-08T13:28:30.999Z</time>
</trkpt>
<trkpt lat="44.190031" lon="2.709851">
<ele>871</ele>
<time>2013-05-08T13:28:31.999Z</time>
</trkpt>
<trkpt lat="44.190054" lon="2.709646">
<ele>871.1</ele>
<time>2013-05-08T13:28:32.999Z</time>
</trkpt>
<trkpt lat="44.190118" lon="2.709445">
<ele>871</ele>
<time>2013-05-08T13:28:33.999Z</time>
</trkpt>
<trkpt lat="44.190193" lon="2.709256">
<ele>870.7</ele>
<time>2013-05-08T13:28:34.999Z</time>
</trkpt>
<trkpt lat="44.190304" lon="2.709122">
<ele>870.1</ele>
<time>2013-05-08T13:28:35.999Z</time>
</trkpt>
<trkpt lat="44.190439" lon="2.709033">
<ele>869</ele>
<time>2013-05-08T13:28:36.999Z</time>
</trkpt>
<trkpt lat="44.19058" lon="2.708951">
<ele>868.1</ele>
<time>2013-05-08T13:28:37.999Z</time>
</trkpt>
<trkpt lat="44.190746" lon="2.708918">
<ele>867.3</ele>
<time>2013-05-08T13:28:38.999Z</time>
</trkpt>
<trkpt lat="44.190917" lon="2.708887">
<ele>866.7</ele>
<time>2013-05-08T13:28:39.999Z</time>
</trkpt>
<trkpt lat="44.191086" lon="2.708858">
<ele>866.2</ele>
<time>2013-05-08T13:28:40.999Z</time>
</trkpt>
<trkpt lat="44.191259" lon="2.708842">
<ele>865.6</ele>
<time>2013-05-08T13:28:41.999Z</time>
</trkpt>
<trkpt lat="44.191438" lon="2.708841">
<ele>865.3</ele>
<time>2013-05-08T13:28:42.999Z</time>
</trkpt>
<trkpt lat="44.191615" lon="2.708894">
<ele>865.2</ele>
<time>2013-05-08T13:28:43.999Z</time>
</trkpt>
<trkpt lat="44.191802" lon="2.708976">
<ele>865.8</ele>
<time>2013-05-08T13:28:44.999Z</time>
</trkpt>
<trkpt lat="44.191984" lon="2.709068">
<ele>866.4</ele>
<time>2013-05-08T13:28:45.999Z</time>
</trkpt>
<trkpt lat="44.192166" lon="2.709195">
<ele>866.9</ele>
<time>2013-05-08T13:28:46.999Z</time>
</trkpt>
<trkpt lat="44.192329" lon="2.709331">
<ele>867.5</ele>
<time>2013-05-08T13:28:47.999Z</time>
</trkpt>
<trkpt lat="44.192467" lon="2.709439">
<ele>868</ele>
<time>2013-05-08T13:28:48.999Z</time>
</trkpt>
<trkpt lat="44.192599" lon="2.709531">
<ele>868.5</ele>
<time>2013-05-08T13:28:49.999Z</time>
</trkpt>
<trkpt lat="44.192754" lon="2.709584">
<ele>869.1</ele>
<time>2013-05-08T13:28:50.999Z</time>
</trkpt>
<trkpt lat="44.192916" lon="2.709622">
<ele>869.6</ele>
<time>2013-05-08T13:28:51.999Z</time>
</trkpt>
<trkpt lat="44.193078" lon="2.709593">
<ele>870.1</ele>
<time>2013-05-08T13:28:52.999Z</time>
</trkpt>
<trkpt lat="44.193244" lon="2.709544">
<ele>870.2</ele>
<time>2013-05-08T13:28:53.999Z</time>
</trkpt>
<trkpt lat="44.193413" lon="2.70948">
<ele>870</ele>
<time>2013-05-08T13:28:54.999Z</time>
</trkpt>
<trkpt lat="44.193577" lon="2.709407">
<ele>869.6</ele>
<time>2013-05-08T13:28:55.999Z</time>
</trkpt>
<trkpt lat="44.193737" lon="2.709323">
<ele>869.2</ele>
<time>2013-05-08T13:28:56.999Z</time>
</trkpt>
<trkpt lat="44.1939" lon="2.70925">
<ele>868.7</ele>
<time>2013-05-08T13:28:57.999Z</time>
</trkpt>
<trkpt lat="44.194068" lon="2.709231">
<ele>868.3</ele>
<time>2013-05-08T13:28:58.999Z</time>
</trkpt>
<trkpt lat="44.194235" lon="2.709265">
<ele>868</ele>
<time>2013-05-08T13:28:59.999Z</time>
</trkpt>
<trkpt lat="44.194384" lon="2.709317">
<ele>867.9</ele>
<time>2013-05-08T13:29:00.999Z</time>
</trkpt>
<trkpt lat="44.194506" lon="2.709433">
<ele>867.6</ele>
<time>2013-05-08T13:29:01.999Z</time>
</trkpt>
<trkpt lat="44.194631" lon="2.709564">
<ele>867.3</ele>
<time>2013-05-08T13:29:02.999Z</time>
</trkpt>
<trkpt lat="44.194735" lon="2.70975">
<ele>867.4</ele>
<time>2013-05-08T13:29:03.999Z</time>
</trkpt>
<trkpt lat="44.194839" lon="2.709939">
<ele>867.6</ele>
<time>2013-05-08T13:29:04.999Z</time>
</trkpt>
<trkpt lat="44.194941" lon="2.710125">
<ele>867.8</ele>
<time>2013-05-08T13:29:05.999Z</time>
</trkpt>
<trkpt lat="44.195044" lon="2.710314">
<ele>867.9</ele>
<time>2013-05-08T13:29:06.999Z</time>
</trkpt>
<trkpt lat="44.195153" lon="2.710488">
<ele>868</ele>
<time>2013-05-08T13:29:07.999Z</time>
</trkpt>
<trkpt lat="44.195289" lon="2.710614">
<ele>868.2</ele>
<time>2013-05-08T13:29:08.999Z</time>
</trkpt>
<trkpt lat="44.195434" lon="2.710733">
<ele>868.5</ele>
<time>2013-05-08T13:29:09.999Z</time>
</trkpt>
<trkpt lat="44.195599" lon="2.7108">
<ele>868.6</ele>
<time>2013-05-08T13:29:10.999Z</time>
</trkpt>
<trkpt lat="44.19577" lon="2.710844">
<ele>868.8</ele>
<time>2013-05-08T13:29:11.999Z</time>
</trkpt>
<trkpt lat="44.19594" lon="2.710863">
<ele>869.1</ele>
<time>2013-05-08T13:29:12.999Z</time>
</trkpt>
<trkpt lat="44.196119" lon="2.71087">
<ele>869.2</ele>
<time>2013-05-08T13:29:13.999Z</time>
</trkpt>
<trkpt lat="44.196307" lon="2.710876">
<ele>869.2</ele>
<time>2013-05-08T13:29:14.999Z</time>
</trkpt>
<trkpt lat="44.196501" lon="2.710889">
<ele>869.1</ele>
<time>2013-05-08T13:29:15.999Z</time>
</trkpt>
<trkpt lat="44.196699" lon="2.710919">
<ele>869.1</ele>
<time>2013-05-08T13:29:16.999Z</time>
</trkpt>
<trkpt lat="44.196907" lon="2.71095">
<ele>869.3</ele>
<time>2013-05-08T13:29:17.999Z</time>
</trkpt>
<trkpt lat="44.197116" lon="2.710986">
<ele>869.7</ele>
<time>2013-05-08T13:29:18.999Z</time>
</trkpt>
<trkpt lat="44.197332" lon="2.71103">
<ele>870.1</ele>
<time>2013-05-08T13:29:19.999Z</time>
</trkpt>
<trkpt lat="44.197549" lon="2.711058">
<ele>870.5</ele>
<time>2013-05-08T13:29:20.999Z</time>
</trkpt>
<trkpt lat="44.197758" lon="2.711059">
<ele>870.8</ele>
<time>2013-05-08T13:29:21.999Z</time>
</trkpt>
<trkpt lat="44.197972" lon="2.711044">
<ele>871.1</ele>
<time>2013-05-08T13:29:22.999Z</time>
</trkpt>
<trkpt lat="44.198173" lon="2.711018">
<ele>871.4</ele>
<time>2013-05-08T13:29:23.999Z</time>
</trkpt>
<trkpt lat="44.198369" lon="2.710991">
<ele>871.4</ele>
<time>2013-05-08T13:29:24.999Z</time>
</trkpt>
<trkpt lat="44.198563" lon="2.710963">
<ele>871.6</ele>
<time>2013-05-08T13:29:25.999Z</time>
</trkpt>
<trkpt lat="44.198763" lon="2.710916">
<ele>871.9</ele>
<time>2013-05-08T13:29:26.999Z</time>
</trkpt>
<trkpt lat="44.198954" lon="2.710838">
<ele>872</ele>
<time>2013-05-08T13:29:27.999Z</time>
</trkpt>
<trkpt lat="44.199135" lon="2.71073">
<ele>872.8</ele>
<time>2013-05-08T13:29:28.999Z</time>
</trkpt>
<trkpt lat="44.199304" lon="2.710592">
<ele>873.2</ele>
<time>2013-05-08T13:29:29.999Z</time>
</trkpt>
<trkpt lat="44.199458" lon="2.710415">
<ele>873.1</ele>
<time>2013-05-08T13:29:30.999Z</time>
</trkpt>
<trkpt lat="44.199608" lon="2.71022">
<ele>872.9</ele>
<time>2013-05-08T13:29:31.999Z</time>
</trkpt>
<trkpt lat="44.199753" lon="2.71001">
<ele>872.3</ele>
<time>2013-05-08T13:29:32.999Z</time>
</trkpt>
<trkpt lat="44.199896" lon="2.7098">
<ele>871.8</ele>
<time>2013-05-08T13:29:33.999Z</time>
</trkpt>
<trkpt lat="44.200041" lon="2.709604">
<ele>871.5</ele>
<time>2013-05-08T13:29:34.999Z</time>
</trkpt>
<trkpt lat="44.200187" lon="2.709427">
<ele>871.5</ele>
<time>2013-05-08T13:29:35.999Z</time>
</trkpt>
<trkpt lat="44.200326" lon="2.709259">
<ele>871.5</ele>
<time>2013-05-08T13:29:36.999Z</time>
</trkpt>
<trkpt lat="44.200456" lon="2.709092">
<ele>871.5</ele>
<time>2013-05-08T13:29:37.999Z</time>
</trkpt>
<trkpt lat="44.200586" lon="2.708926">
<ele>871.7</ele>
<time>2013-05-08T13:29:38.999Z</time>
</trkpt>
<trkpt lat="44.200686" lon="2.708729">
<ele>872.1</ele>
<time>2013-05-08T13:29:39.999Z</time>
</trkpt>
<trkpt lat="44.20077" lon="2.70849">
<ele>872.3</ele>
<time>2013-05-08T13:29:40.999Z</time>
</trkpt>
<trkpt lat="44.200841" lon="2.708248">
<ele>872.6</ele>
<time>2013-05-08T13:29:41.999Z</time>
</trkpt>
<trkpt lat="44.200872" lon="2.707972">
<ele>872.5</ele>
<time>2013-05-08T13:29:42.999Z</time>
</trkpt>
<trkpt lat="44.200912" lon="2.707703">
<ele>872.9</ele>
<time>2013-05-08T13:29:43.999Z</time>
</trkpt>
<trkpt lat="44.200974" lon="2.707442">
<ele>873.4</ele>
<time>2013-05-08T13:29:44.999Z</time>
</trkpt>
<trkpt lat="44.201049" lon="2.707202">
<ele>873.6</ele>
<time>2013-05-08T13:29:45.999Z</time>
</trkpt>
<trkpt lat="44.201153" lon="2.707008">
<ele>873.7</ele>
<time>2013-05-08T13:29:46.999Z</time>
</trkpt>
<trkpt lat="44.201285" lon="2.706866">
<ele>873.5</ele>
<time>2013-05-08T13:29:47.999Z</time>
</trkpt>
<trkpt lat="44.201435" lon="2.70676">
<ele>872.7</ele>
<time>2013-05-08T13:29:48.999Z</time>
</trkpt>
<trkpt lat="44.201607" lon="2.706665">
<ele>872.3</ele>
<time>2013-05-08T13:29:49.999Z</time>
</trkpt>
<trkpt lat="44.201798" lon="2.706575">
<ele>872.2</ele>
<time>2013-05-08T13:29:50.999Z</time>
</trkpt>
<trkpt lat="44.202002" lon="2.706487">
<ele>872.2</ele>
<time>2013-05-08T13:29:51.999Z</time>
</trkpt>
<trkpt lat="44.202209" lon="2.706386">
<ele>872.1</ele>
<time>2013-05-08T13:29:52.999Z</time>
</trkpt>
<trkpt lat="44.20242" lon="2.706282">
<ele>872.2</ele>
<time>2013-05-08T13:29:53.999Z</time>
</trkpt>
<trkpt lat="44.202642" lon="2.706175">
<ele>872.3</ele>
<time>2013-05-08T13:29:54.999Z</time>
</trkpt>
<trkpt lat="44.202865" lon="2.706055">
<ele>872.7</ele>
<time>2013-05-08T13:29:55.999Z</time>
</trkpt>
<trkpt lat="44.203098" lon="2.705926">
<ele>873.6</ele>
<time>2013-05-08T13:29:56.999Z</time>
</trkpt>
<trkpt lat="44.20333" lon="2.705788">
<ele>874.7</ele>
<time>2013-05-08T13:29:57.999Z</time>
</trkpt>
<trkpt lat="44.203555" lon="2.705647">
<ele>875.9</ele>
<time>2013-05-08T13:29:58.999Z</time>
</trkpt>
<trkpt lat="44.203772" lon="2.705504">
<ele>877.1</ele>
<time>2013-05-08T13:29:59.999Z</time>
</trkpt>
<trkpt lat="44.203984" lon="2.70537">
<ele>878.3</ele>
<time>2013-05-08T13:30:00.999Z</time>
</trkpt>
<trkpt lat="44.204191" lon="2.705239">
<ele>879.5</ele>
<time>2013-05-08T13:30:01.999Z</time>
</trkpt>
<trkpt lat="44.204394" lon="2.705114">
<ele>880.5</ele>
<time>2013-05-08T13:30:02.999Z</time>
</trkpt>
<trkpt lat="44.204594" lon="2.704985">
<ele>881.3</ele>
<time>2013-05-08T13:30:03.999Z</time>
</trkpt>
<trkpt lat="44.204795" lon="2.70486">
<ele>881.8</ele>
<time>2013-05-08T13:30:04.999Z</time>
</trkpt>
<trkpt lat="44.204994" lon="2.704742">
<ele>882.6</ele>
<time>2013-05-08T13:30:05.999Z</time>
</trkpt>
<trkpt lat="44.20519" lon="2.704634">
<ele>883.6</ele>
<time>2013-05-08T13:30:06.999Z</time>
</trkpt>
<trkpt lat="44.205377" lon="2.704526">
<ele>884.4</ele>
<time>2013-05-08T13:30:07.999Z</time>
</trkpt>
<trkpt lat="44.205557" lon="2.704434">
<ele>885.2</ele>
<time>2013-05-08T13:30:08.999Z</time>
</trkpt>
<trkpt lat="44.205729" lon="2.704343">
<ele>886</ele>
<time>2013-05-08T13:30:09.999Z</time>
</trkpt>
<trkpt lat="44.20588" lon="2.704245">
<ele>886.8</ele>
<time>2013-05-08T13:30:10.999Z</time>
</trkpt>
<trkpt lat="44.206025" lon="2.70412">
<ele>887.6</ele>
<time>2013-05-08T13:30:11.999Z</time>
</trkpt>
<trkpt lat="44.206159" lon="2.703956">
<ele>888.5</ele>
<time>2013-05-08T13:30:12.999Z</time>
</trkpt>
<trkpt lat="44.206262" lon="2.703735">
<ele>889.3</ele>
<time>2013-05-08T13:30:13.999Z</time>
</trkpt>
<trkpt lat="44.206359" lon="2.703502">
<ele>890.1</ele>
<time>2013-05-08T13:30:14.999Z</time>
</trkpt>
<trkpt lat="44.206453" lon="2.703259">
<ele>890.9</ele>
<time>2013-05-08T13:30:15.999Z</time>
</trkpt>
<trkpt lat="44.206543" lon="2.703021">
<ele>891.7</ele>
<time>2013-05-08T13:30:16.999Z</time>
</trkpt>
<trkpt lat="44.206631" lon="2.702778">
<ele>892.5</ele>
<time>2013-05-08T13:30:17.999Z</time>
</trkpt>
<trkpt lat="44.206689" lon="2.702543">
<ele>892.9</ele>
<time>2013-05-08T13:30:18.999Z</time>
</trkpt>
<trkpt lat="44.206741" lon="2.702312">
<ele>893</ele>
<time>2013-05-08T13:30:19.999Z</time>
</trkpt>
<trkpt lat="44.206751" lon="2.702066">
<ele>893.2</ele>
<time>2013-05-08T13:30:20.999Z</time>
</trkpt>
<trkpt lat="44.20675" lon="2.701823">
<ele>893.5</ele>
<time>2013-05-08T13:30:21.999Z</time>
</trkpt>
<trkpt lat="44.206704" lon="2.701584">
<ele>893.6</ele>
<time>2013-05-08T13:30:22.999Z</time>
</trkpt>
<trkpt lat="44.20665" lon="2.701352">
<ele>893.8</ele>
<time>2013-05-08T13:30:23.999Z</time>
</trkpt>
<trkpt lat="44.206583" lon="2.70114">
<ele>893.8</ele>
<time>2013-05-08T13:30:24.999Z</time>
</trkpt>
<trkpt lat="44.206467" lon="2.700937">
<ele>893.7</ele>
<time>2013-05-08T13:30:25.999Z</time>
</trkpt>
<trkpt lat="44.206337" lon="2.700728">
<ele>893.9</ele>
<time>2013-05-08T13:30:26.999Z</time>
</trkpt>
<trkpt lat="44.206184" lon="2.700597">
<ele>894.2</ele>
<time>2013-05-08T13:30:27.999Z</time>
</trkpt>
<trkpt lat="44.206026" lon="2.700472">
<ele>894.4</ele>
<time>2013-05-08T13:30:28.999Z</time>
</trkpt>
<trkpt lat="44.205852" lon="2.700369">
<ele>894.6</ele>
<time>2013-05-08T13:30:29.999Z</time>
</trkpt>
<trkpt lat="44.205671" lon="2.700266">
<ele>894.4</ele>
<time>2013-05-08T13:30:30.999Z</time>
</trkpt>
<trkpt lat="44.205497" lon="2.700164">
<ele>894.2</ele>
<time>2013-05-08T13:30:31.999Z</time>
</trkpt>
<trkpt lat="44.20534" lon="2.700036">
<ele>894.2</ele>
<time>2013-05-08T13:30:32.999Z</time>
</trkpt>
<trkpt lat="44.205218" lon="2.699869">
<ele>894.2</ele>
<time>2013-05-08T13:30:33.999Z</time>
</trkpt>
<trkpt lat="44.20511" lon="2.699686">
<ele>894.4</ele>
<time>2013-05-08T13:30:34.999Z</time>
</trkpt>
<trkpt lat="44.205044" lon="2.699462">
<ele>894.2</ele>
<time>2013-05-08T13:30:35.999Z</time>
</trkpt>
<trkpt lat="44.205017" lon="2.699217">
<ele>893.9</ele>
<time>2013-05-08T13:30:36.999Z</time>
</trkpt>
<trkpt lat="44.205007" lon="2.698961">
<ele>893.6</ele>
<time>2013-05-08T13:30:37.999Z</time>
</trkpt>
<trkpt lat="44.20504" lon="2.698714">
<ele>893.2</ele>
<time>2013-05-08T13:30:38.999Z</time>
</trkpt>
<trkpt lat="44.205089" lon="2.698457">
<ele>893</ele>
<time>2013-05-08T13:30:39.999Z</time>
</trkpt>
<trkpt lat="44.205137" lon="2.698181">
<ele>892.7</ele>
<time>2013-05-08T13:30:40.999Z</time>
</trkpt>
<trkpt lat="44.205188" lon="2.697901">
<ele>892.5</ele>
<time>2013-05-08T13:30:41.999Z</time>
</trkpt>
<trkpt lat="44.205238" lon="2.697628">
<ele>892.2</ele>
<time>2013-05-08T13:30:42.999Z</time>
</trkpt>
<trkpt lat="44.205289" lon="2.69735">
<ele>891.5</ele>
<time>2013-05-08T13:30:43.999Z</time>
</trkpt>
<trkpt lat="44.205336" lon="2.697077">
<ele>890.9</ele>
<time>2013-05-08T13:30:44.999Z</time>
</trkpt>
<trkpt lat="44.205378" lon="2.696815">
<ele>890.3</ele>
<time>2013-05-08T13:30:45.999Z</time>
</trkpt>
<trkpt lat="44.205403" lon="2.696564">
<ele>889.9</ele>
<time>2013-05-08T13:30:46.999Z</time>
</trkpt>
<trkpt lat="44.205404" lon="2.696321">
<ele>889.7</ele>
<time>2013-05-08T13:30:47.999Z</time>
</trkpt>
<trkpt lat="44.205384" lon="2.69608">
<ele>889.7</ele>
<time>2013-05-08T13:30:48.999Z</time>
</trkpt>
<trkpt lat="44.205319" lon="2.69585">
<ele>889.7</ele>
<time>2013-05-08T13:30:49.999Z</time>
</trkpt>
<trkpt lat="44.205216" lon="2.695654">
<ele>889.5</ele>
<time>2013-05-08T13:30:50.999Z</time>
</trkpt>
<trkpt lat="44.205105" lon="2.695471">
<ele>889.2</ele>
<time>2013-05-08T13:30:51.999Z</time>
</trkpt>
<trkpt lat="44.204976" lon="2.695298">
<ele>888.8</ele>
<time>2013-05-08T13:30:52.999Z</time>
</trkpt>
<trkpt lat="44.204839" lon="2.69513">
<ele>888.5</ele>
<time>2013-05-08T13:30:53.999Z</time>
</trkpt>
<trkpt lat="44.204693" lon="2.694954">
<ele>887.7</ele>
<time>2013-05-08T13:30:54.999Z</time>
</trkpt>
<trkpt lat="44.204536" lon="2.694794">
<ele>886.5</ele>
<time>2013-05-08T13:30:55.999Z</time>
</trkpt>
<trkpt lat="44.204377" lon="2.694631">
<ele>885</ele>
<time>2013-05-08T13:30:56.999Z</time>
</trkpt>
<trkpt lat="44.204221" lon="2.694471">
<ele>883.5</ele>
<time>2013-05-08T13:30:57.999Z</time>
</trkpt>
<trkpt lat="44.20408" lon="2.694297">
<ele>882.2</ele>
<time>2013-05-08T13:30:58.999Z</time>
</trkpt>
<trkpt lat="44.203944" lon="2.694127">
<ele>881.2</ele>
<time>2013-05-08T13:30:59.999Z</time>
</trkpt>
<trkpt lat="44.20383" lon="2.693967">
<ele>880.3</ele>
<time>2013-05-08T13:31:00.999Z</time>
</trkpt>
<trkpt lat="44.203767" lon="2.693802">
<ele>879</ele>
<time>2013-05-08T13:31:01.999Z</time>
</trkpt>
<trkpt lat="44.203712" lon="2.693615">
<ele>877.4</ele>
<time>2013-05-08T13:31:02.999Z</time>
</trkpt>
<trkpt lat="44.203697" lon="2.693404">
<ele>876.1</ele>
<time>2013-05-08T13:31:03.999Z</time>
</trkpt>
<trkpt lat="44.203692" lon="2.693175">
<ele>874.8</ele>
<time>2013-05-08T13:31:04.999Z</time>
</trkpt>
<trkpt lat="44.203732" lon="2.692957">
<ele>873.8</ele>
<time>2013-05-08T13:31:05.999Z</time>
</trkpt>
<trkpt lat="44.20378" lon="2.692731">
<ele>873.1</ele>
<time>2013-05-08T13:31:06.999Z</time>
</trkpt>
<trkpt lat="44.203841" lon="2.692485">
<ele>872.8</ele>
<time>2013-05-08T13:31:07.999Z</time>
</trkpt>
<trkpt lat="44.203913" lon="2.692225">
<ele>872.9</ele>
<time>2013-05-08T13:31:08.999Z</time>
</trkpt>
<trkpt lat="44.204012" lon="2.691987">
<ele>873.1</ele>
<time>2013-05-08T13:31:09.999Z</time>
</trkpt>
<trkpt lat="44.204141" lon="2.691766">
<ele>873.5</ele>
<time>2013-05-08T13:31:10.999Z</time>
</trkpt>
<trkpt lat="44.204264" lon="2.691512">
<ele>873.7</ele>
<time>2013-05-08T13:31:11.999Z</time>
</trkpt>
<trkpt lat="44.204375" lon="2.691245">
<ele>873.8</ele>
<time>2013-05-08T13:31:12.999Z</time>
</trkpt>
<trkpt lat="44.20449" lon="2.690972">
<ele>873.8</ele>
<time>2013-05-08T13:31:13.999Z</time>
</trkpt>
<trkpt lat="44.204608" lon="2.690693">
<ele>873.7</ele>
<time>2013-05-08T13:31:14.999Z</time>
</trkpt>
<trkpt lat="44.204722" lon="2.690418">
<ele>873.7</ele>
<time>2013-05-08T13:31:15.999Z</time>
</trkpt>
<trkpt lat="44.204835" lon="2.690154">
<ele>873.9</ele>
<time>2013-05-08T13:31:16.999Z</time>
</trkpt>
<trkpt lat="44.204938" lon="2.689886">
<ele>873.9</ele>
<time>2013-05-08T13:31:17.999Z</time>
</trkpt>
<trkpt lat="44.205026" lon="2.689633">
<ele>874.5</ele>
<time>2013-05-08T13:31:18.999Z</time>
</trkpt>
<trkpt lat="44.205105" lon="2.689378">
<ele>874.8</ele>
<time>2013-05-08T13:31:19.999Z</time>
</trkpt>
<trkpt lat="44.205171" lon="2.689111">
<ele>874.8</ele>
<time>2013-05-08T13:31:20.999Z</time>
</trkpt>
<trkpt lat="44.205214" lon="2.68884">
<ele>875.3</ele>
<time>2013-05-08T13:31:21.999Z</time>
</trkpt>
<trkpt lat="44.205209" lon="2.688579">
<ele>875.3</ele>
<time>2013-05-08T13:31:22.999Z</time>
</trkpt>
<trkpt lat="44.205168" lon="2.688311">
<ele>874.4</ele>
<time>2013-05-08T13:31:23.999Z</time>
</trkpt>
<trkpt lat="44.205107" lon="2.688039">
<ele>873.7</ele>
<time>2013-05-08T13:31:24.999Z</time>
</trkpt>
<trkpt lat="44.205034" lon="2.687762">
<ele>873.6</ele>
<time>2013-05-08T13:31:25.999Z</time>
</trkpt>
<trkpt lat="44.204943" lon="2.687487">
<ele>872.7</ele>
<time>2013-05-08T13:31:26.999Z</time>
</trkpt>
<trkpt lat="44.204833" lon="2.687212">
<ele>872</ele>
<time>2013-05-08T13:31:27.999Z</time>
</trkpt>
<trkpt lat="44.204698" lon="2.686939">
<ele>871.3</ele>
<time>2013-05-08T13:31:28.999Z</time>
</trkpt>
<trkpt lat="44.204533" lon="2.686681">
<ele>870.7</ele>
<time>2013-05-08T13:31:29.999Z</time>
</trkpt>
<trkpt lat="44.204364" lon="2.686423">
<ele>869.7</ele>
<time>2013-05-08T13:31:30.999Z</time>
</trkpt>
<trkpt lat="44.204202" lon="2.686162">
<ele>868.9</ele>
<time>2013-05-08T13:31:31.999Z</time>
</trkpt>
<trkpt lat="44.204052" lon="2.68589">
<ele>868</ele>
<time>2013-05-08T13:31:32.999Z</time>
</trkpt>
<trkpt lat="44.203907" lon="2.685619">
<ele>866.8</ele>
<time>2013-05-08T13:31:33.999Z</time>
</trkpt>
<trkpt lat="44.203762" lon="2.685352">
<ele>865.7</ele>
<time>2013-05-08T13:31:34.999Z</time>
</trkpt>
<trkpt lat="44.203617" lon="2.685087">
<ele>864.8</ele>
<time>2013-05-08T13:31:35.999Z</time>
</trkpt>
<trkpt lat="44.203475" lon="2.684831">
<ele>864.1</ele>
<time>2013-05-08T13:31:36.999Z</time>
</trkpt>
<trkpt lat="44.203337" lon="2.684599">
<ele>863.3</ele>
<time>2013-05-08T13:31:37.999Z</time>
</trkpt>
<trkpt lat="44.2032" lon="2.6844">
<ele>862</ele>
<time>2013-05-08T13:31:38.999Z</time>
</trkpt>
<trkpt lat="44.203075" lon="2.684211">
<ele>861</ele>
<time>2013-05-08T13:31:39.999Z</time>
</trkpt>
<trkpt lat="44.202945" lon="2.684038">
<ele>860</ele>
<time>2013-05-08T13:31:40.999Z</time>
</trkpt>
<trkpt lat="44.20283" lon="2.683835">
<ele>859.5</ele>
<time>2013-05-08T13:31:41.999Z</time>
</trkpt>
<trkpt lat="44.202729" lon="2.68361">
<ele>859.2</ele>
<time>2013-05-08T13:31:42.999Z</time>
</trkpt>
<trkpt lat="44.20265" lon="2.68339">
<ele>858.6</ele>
<time>2013-05-08T13:31:43.999Z</time>
</trkpt>
<trkpt lat="44.202585" lon="2.683165">
<ele>856.9</ele>
<time>2013-05-08T13:31:44.999Z</time>
</trkpt>
<trkpt lat="44.202579" lon="2.682935">
<ele>855.2</ele>
<time>2013-05-08T13:31:45.999Z</time>
</trkpt>
<trkpt lat="44.202577" lon="2.68269">
<ele>852.5</ele>
<time>2013-05-08T13:31:46.999Z</time>
</trkpt>
<trkpt lat="44.202595" lon="2.682437">
<ele>850.1</ele>
<time>2013-05-08T13:31:47.999Z</time>
</trkpt>
<trkpt lat="44.202626" lon="2.682183">
<ele>848.1</ele>
<time>2013-05-08T13:31:48.999Z</time>
</trkpt>
<trkpt lat="44.202663" lon="2.681916">
<ele>846.6</ele>
<time>2013-05-08T13:31:49.999Z</time>
</trkpt>
<trkpt lat="44.202719" lon="2.681628">
<ele>845.5</ele>
<time>2013-05-08T13:31:50.999Z</time>
</trkpt>
<trkpt lat="44.202777" lon="2.681327">
<ele>844.9</ele>
<time>2013-05-08T13:31:51.999Z</time>
</trkpt>
<trkpt lat="44.202839" lon="2.681014">
<ele>844.5</ele>
<time>2013-05-08T13:31:52.999Z</time>
</trkpt>
<trkpt lat="44.202901" lon="2.680706">
<ele>844.4</ele>
<time>2013-05-08T13:31:53.999Z</time>
</trkpt>
<trkpt lat="44.202961" lon="2.680394">
<ele>844.3</ele>
<time>2013-05-08T13:31:54.999Z</time>
</trkpt>
<trkpt lat="44.203023" lon="2.68009">
<ele>844.6</ele>
<time>2013-05-08T13:31:55.999Z</time>
</trkpt>
<trkpt lat="44.203097" lon="2.679797">
<ele>845.1</ele>
<time>2013-05-08T13:31:56.999Z</time>
</trkpt>
<trkpt lat="44.203187" lon="2.679514">
<ele>845.4</ele>
<time>2013-05-08T13:31:57.999Z</time>
</trkpt>
<trkpt lat="44.203291" lon="2.679242">
<ele>845.5</ele>
<time>2013-05-08T13:31:58.999Z</time>
</trkpt>
<trkpt lat="44.203414" lon="2.678976">
<ele>845.7</ele>
<time>2013-05-08T13:31:59.999Z</time>
</trkpt>
<trkpt lat="44.203548" lon="2.678713">
<ele>846.1</ele>
<time>2013-05-08T13:32:00.999Z</time>
</trkpt>
<trkpt lat="44.20368" lon="2.678455">
<ele>846.7</ele>
<time>2013-05-08T13:32:01.999Z</time>
</trkpt>
<trkpt lat="44.203809" lon="2.678211">
<ele>847.5</ele>
<time>2013-05-08T13:32:02.999Z</time>
</trkpt>
<trkpt lat="44.203939" lon="2.677973">
<ele>848.3</ele>
<time>2013-05-08T13:32:03.999Z</time>
</trkpt>
<trkpt lat="44.20407" lon="2.677735">
<ele>849.1</ele>
<time>2013-05-08T13:32:04.999Z</time>
</trkpt>
<trkpt lat="44.20419" lon="2.677515">
<ele>849.8</ele>
<time>2013-05-08T13:32:05.999Z</time>
</trkpt>
<trkpt lat="44.204291" lon="2.677306">
<ele>850.5</ele>
<time>2013-05-08T13:32:06.999Z</time>
</trkpt>
<trkpt lat="44.204375" lon="2.677083">
<ele>851.1</ele>
<time>2013-05-08T13:32:07.999Z</time>
</trkpt>
<trkpt lat="44.204422" lon="2.676858">
<ele>851.8</ele>
<time>2013-05-08T13:32:08.999Z</time>
</trkpt>
<trkpt lat="44.204461" lon="2.676632">
<ele>852.8</ele>
<time>2013-05-08T13:32:09.999Z</time>
</trkpt>
<trkpt lat="44.204464" lon="2.676423">
<ele>853.8</ele>
<time>2013-05-08T13:32:10.999Z</time>
</trkpt>
<trkpt lat="44.204459" lon="2.676249">
<ele>854.6</ele>
<time>2013-05-08T13:32:11.999Z</time>
</trkpt>
<trkpt lat="44.20445" lon="2.676085">
<ele>855.2</ele>
<time>2013-05-08T13:32:12.999Z</time>
</trkpt>
<trkpt lat="44.204438" lon="2.675937">
<ele>855.1</ele>
<time>2013-05-08T13:32:13.999Z</time>
</trkpt>
<trkpt lat="44.204426" lon="2.675811">
<ele>855.1</ele>
<time>2013-05-08T13:32:14.999Z</time>
</trkpt>
<trkpt lat="44.204417" lon="2.675706">
<ele>855.1</ele>
<time>2013-05-08T13:32:15.999Z</time>
</trkpt>
<trkpt lat="44.204413" lon="2.67562">
<ele>855</ele>
<time>2013-05-08T13:32:16.999Z</time>
</trkpt>
<trkpt lat="44.204419" lon="2.675559">
<ele>854.7</ele>
<time>2013-05-08T13:32:17.999Z</time>
</trkpt>
<trkpt lat="44.204428" lon="2.675511">
<ele>854.7</ele>
<time>2013-05-08T13:32:18.999Z</time>
</trkpt>
<trkpt lat="44.204438" lon="2.675467">
<ele>854.8</ele>
<time>2013-05-08T13:32:29.999Z</time>
</trkpt>
<trkpt lat="44.204424" lon="2.675431">
<ele>855.6</ele>
<time>2013-05-08T13:32:30.999Z</time>
</trkpt>
<trkpt lat="44.204394" lon="2.675387">
<ele>856.2</ele>
<time>2013-05-08T13:32:31.999Z</time>
</trkpt>
<trkpt lat="44.204318" lon="2.675315">
<ele>856.8</ele>
<time>2013-05-08T13:32:32.999Z</time>
</trkpt>
<trkpt lat="44.204224" lon="2.675242">
<ele>857.2</ele>
<time>2013-05-08T13:32:33.999Z</time>
</trkpt>
<trkpt lat="44.204114" lon="2.675154">
<ele>857.4</ele>
<time>2013-05-08T13:32:34.999Z</time>
</trkpt>
<trkpt lat="44.204001" lon="2.675065">
<ele>857.2</ele>
<time>2013-05-08T13:32:35.999Z</time>
</trkpt>
<trkpt lat="44.20385" lon="2.674927">
<ele>857.1</ele>
<time>2013-05-08T13:32:36.999Z</time>
</trkpt>
<trkpt lat="44.2037" lon="2.674764">
<ele>857.1</ele>
<time>2013-05-08T13:32:37.999Z</time>
</trkpt>
<trkpt lat="44.203577" lon="2.674517">
<ele>856.6</ele>
<time>2013-05-08T13:32:38.999Z</time>
</trkpt>
<trkpt lat="44.203452" lon="2.674239">
<ele>856.1</ele>
<time>2013-05-08T13:32:39.999Z</time>
</trkpt>
<trkpt lat="44.20334" lon="2.673962">
<ele>855.7</ele>
<time>2013-05-08T13:32:40.999Z</time>
</trkpt>
<trkpt lat="44.203207" lon="2.673663">
<ele>855.2</ele>
<time>2013-05-08T13:32:41.999Z</time>
</trkpt>
<trkpt lat="44.203062" lon="2.673352">
<ele>854.8</ele>
<time>2013-05-08T13:32:42.999Z</time>
</trkpt>
<trkpt lat="44.20292" lon="2.67305">
<ele>853.9</ele>
<time>2013-05-08T13:32:43.999Z</time>
</trkpt>
<trkpt lat="44.202789" lon="2.672743">
<ele>852.6</ele>
<time>2013-05-08T13:32:44.999Z</time>
</trkpt>
<trkpt lat="44.202667" lon="2.672436">
<ele>851.1</ele>
<time>2013-05-08T13:32:45.999Z</time>
</trkpt>
<trkpt lat="44.20256" lon="2.672127">
<ele>849.6</ele>
<time>2013-05-08T13:32:46.999Z</time>
</trkpt>
<trkpt lat="44.202482" lon="2.671823">
<ele>848.3</ele>
<time>2013-05-08T13:32:47.999Z</time>
</trkpt>
<trkpt lat="44.202437" lon="2.671496">
<ele>847</ele>
<time>2013-05-08T13:32:48.999Z</time>
</trkpt>
<trkpt lat="44.202408" lon="2.671176">
<ele>846.2</ele>
<time>2013-05-08T13:32:49.999Z</time>
</trkpt>
<trkpt lat="44.202398" lon="2.670842">
<ele>845.2</ele>
<time>2013-05-08T13:32:50.999Z</time>
</trkpt>
<trkpt lat="44.202431" lon="2.670499">
<ele>844.2</ele>
<time>2013-05-08T13:32:51.999Z</time>
</trkpt>
<trkpt lat="44.202485" lon="2.670158">
<ele>842.9</ele>
<time>2013-05-08T13:32:52.999Z</time>
</trkpt>
<trkpt lat="44.202572" lon="2.669842">
<ele>841.3</ele>
<time>2013-05-08T13:32:53.999Z</time>
</trkpt>
<trkpt lat="44.20268" lon="2.669558">
<ele>840</ele>
<time>2013-05-08T13:32:54.999Z</time>
</trkpt>
<trkpt lat="44.202808" lon="2.669323">
<ele>840.1</ele>
<time>2013-05-08T13:32:55.999Z</time>
</trkpt>
<trkpt lat="44.202905" lon="2.669072">
<ele>839.8</ele>
<time>2013-05-08T13:32:56.999Z</time>
</trkpt>
<trkpt lat="44.202996" lon="2.66886">
<ele>840</ele>
<time>2013-05-08T13:32:57.999Z</time>
</trkpt>
<trkpt lat="44.203052" lon="2.668624">
<ele>840.5</ele>
<time>2013-05-08T13:32:58.999Z</time>
</trkpt>
<trkpt lat="44.203099" lon="2.668392">
<ele>840</ele>
<time>2013-05-08T13:32:59.999Z</time>
</trkpt>
<trkpt lat="44.203065" lon="2.668096">
<ele>839.6</ele>
<time>2013-05-08T13:33:00.999Z</time>
</trkpt>
<trkpt lat="44.203021" lon="2.667802">
<ele>839.8</ele>
<time>2013-05-08T13:33:01.999Z</time>
</trkpt>
<trkpt lat="44.202976" lon="2.667496">
<ele>839.5</ele>
<time>2013-05-08T13:33:02.999Z</time>
</trkpt>
<trkpt lat="44.202931" lon="2.667208">
<ele>838.9</ele>
<time>2013-05-08T13:33:03.999Z</time>
</trkpt>
<trkpt lat="44.202897" lon="2.666926">
<ele>838</ele>
<time>2013-05-08T13:33:04.999Z</time>
</trkpt>
<trkpt lat="44.202884" lon="2.66665">
<ele>837.4</ele>
<time>2013-05-08T13:33:05.999Z</time>
</trkpt>
<trkpt lat="44.202916" lon="2.666399">
<ele>836.6</ele>
<time>2013-05-08T13:33:06.999Z</time>
</trkpt>
<trkpt lat="44.202978" lon="2.666155">
<ele>836.3</ele>
<time>2013-05-08T13:33:07.999Z</time>
</trkpt>
<trkpt lat="44.203083" lon="2.665924">
<ele>836.3</ele>
<time>2013-05-08T13:33:08.999Z</time>
</trkpt>
<trkpt lat="44.203206" lon="2.665709">
<ele>836.2</ele>
<time>2013-05-08T13:33:09.999Z</time>
</trkpt>
<trkpt lat="44.203324" lon="2.665505">
<ele>835.9</ele>
<time>2013-05-08T13:33:10.999Z</time>
</trkpt>
<trkpt lat="44.203422" lon="2.665301">
<ele>835.5</ele>
<time>2013-05-08T13:33:11.999Z</time>
</trkpt>
<trkpt lat="44.203509" lon="2.665104">
<ele>834.7</ele>
<time>2013-05-08T13:33:12.999Z</time>
</trkpt>
<trkpt lat="44.203528" lon="2.66489">
<ele>833.6</ele>
<time>2013-05-08T13:33:13.999Z</time>
</trkpt>
<trkpt lat="44.203506" lon="2.664677">
<ele>832.6</ele>
<time>2013-05-08T13:33:14.999Z</time>
</trkpt>
<trkpt lat="44.203488" lon="2.664466">
<ele>831.8</ele>
<time>2013-05-08T13:33:15.999Z</time>
</trkpt>
<trkpt lat="44.203412" lon="2.664279">
<ele>831.1</ele>
<time>2013-05-08T13:33:16.999Z</time>
</trkpt>
<trkpt lat="44.20327" lon="2.664138">
<ele>830.5</ele>
<time>2013-05-08T13:33:17.999Z</time>
</trkpt>
<trkpt lat="44.203102" lon="2.663996">
<ele>829.8</ele>
<time>2013-05-08T13:33:18.999Z</time>
</trkpt>
<trkpt lat="44.202922" lon="2.663861">
<ele>829.3</ele>
<time>2013-05-08T13:33:19.999Z</time>
</trkpt>
<trkpt lat="44.202727" lon="2.663727">
<ele>828.7</ele>
<time>2013-05-08T13:33:20.999Z</time>
</trkpt>
<trkpt lat="44.202529" lon="2.663579">
<ele>827.8</ele>
<time>2013-05-08T13:33:21.999Z</time>
</trkpt>
<trkpt lat="44.202346" lon="2.663381">
<ele>827.3</ele>
<time>2013-05-08T13:33:22.999Z</time>
</trkpt>
<trkpt lat="44.202183" lon="2.66316">
<ele>826.8</ele>
<time>2013-05-08T13:33:23.999Z</time>
</trkpt>
<trkpt lat="44.202039" lon="2.66292">
<ele>826.3</ele>
<time>2013-05-08T13:33:24.999Z</time>
</trkpt>
<trkpt lat="44.201921" lon="2.662659">
<ele>825.6</ele>
<time>2013-05-08T13:33:25.999Z</time>
</trkpt>
<trkpt lat="44.201813" lon="2.662382">
<ele>824.9</ele>
<time>2013-05-08T13:33:26.999Z</time>
</trkpt>
<trkpt lat="44.201711" lon="2.662085">
<ele>824.6</ele>
<time>2013-05-08T13:33:27.999Z</time>
</trkpt>
<trkpt lat="44.201608" lon="2.661781">
<ele>824.5</ele>
<time>2013-05-08T13:33:28.999Z</time>
</trkpt>
<trkpt lat="44.201505" lon="2.661475">
<ele>824.6</ele>
<time>2013-05-08T13:33:29.999Z</time>
</trkpt>
<trkpt lat="44.201405" lon="2.661173">
<ele>824.5</ele>
<time>2013-05-08T13:33:30.999Z</time>
</trkpt>
<trkpt lat="44.201308" lon="2.66088">
<ele>824.4</ele>
<time>2013-05-08T13:33:31.999Z</time>
</trkpt>
<trkpt lat="44.201215" lon="2.660592">
<ele>824.1</ele>
<time>2013-05-08T13:33:32.999Z</time>
</trkpt>
<trkpt lat="44.201121" lon="2.660306">
<ele>823.7</ele>
<time>2013-05-08T13:33:33.999Z</time>
</trkpt>
<trkpt lat="44.201037" lon="2.660035">
<ele>823.2</ele>
<time>2013-05-08T13:33:34.999Z</time>
</trkpt>
<trkpt lat="44.200962" lon="2.659786">
<ele>822.8</ele>
<time>2013-05-08T13:33:35.999Z</time>
</trkpt>
<trkpt lat="44.200893" lon="2.659577">
<ele>822.4</ele>
<time>2013-05-08T13:33:36.999Z</time>
</trkpt>
<trkpt lat="44.200828" lon="2.659376">
<ele>822</ele>
<time>2013-05-08T13:33:37.999Z</time>
</trkpt>
<trkpt lat="44.200767" lon="2.659224">
<ele>821.6</ele>
<time>2013-05-08T13:33:38.999Z</time>
</trkpt>
<trkpt lat="44.20067" lon="2.65911">
<ele>821.5</ele>
<time>2013-05-08T13:33:39.999Z</time>
</trkpt>
<trkpt lat="44.20056" lon="2.659051">
<ele>821.4</ele>
<time>2013-05-08T13:33:40.999Z</time>
</trkpt>
<trkpt lat="44.200433" lon="2.659045">
<ele>821</ele>
<time>2013-05-08T13:33:41.999Z</time>
</trkpt>
<trkpt lat="44.200282" lon="2.659071">
<ele>820.7</ele>
<time>2013-05-08T13:33:42.999Z</time>
</trkpt>
<trkpt lat="44.200118" lon="2.659106">
<ele>820.4</ele>
<time>2013-05-08T13:33:43.999Z</time>
</trkpt>
<trkpt lat="44.199947" lon="2.659141">
<ele>819.5</ele>
<time>2013-05-08T13:33:44.999Z</time>
</trkpt>
<trkpt lat="44.199772" lon="2.659173">
<ele>818.6</ele>
<time>2013-05-08T13:33:45.999Z</time>
</trkpt>
<trkpt lat="44.1996" lon="2.659204">
<ele>817.6</ele>
<time>2013-05-08T13:33:46.999Z</time>
</trkpt>
<trkpt lat="44.199431" lon="2.659233">
<ele>816.5</ele>
<time>2013-05-08T13:33:47.999Z</time>
</trkpt>
<trkpt lat="44.199248" lon="2.659265">
<ele>815.6</ele>
<time>2013-05-08T13:33:48.999Z</time>
</trkpt>
<trkpt lat="44.199046" lon="2.659303">
<ele>814.7</ele>
<time>2013-05-08T13:33:49.999Z</time>
</trkpt>
<trkpt lat="44.19884" lon="2.659358">
<ele>813.4</ele>
<time>2013-05-08T13:33:50.999Z</time>
</trkpt>
<trkpt lat="44.198637" lon="2.659429">
<ele>812</ele>
<time>2013-05-08T13:33:51.999Z</time>
</trkpt>
<trkpt lat="44.198439" lon="2.659524">
<ele>810.5</ele>
<time>2013-05-08T13:33:52.999Z</time>
</trkpt>
<trkpt lat="44.198237" lon="2.659613">
<ele>809.3</ele>
<time>2013-05-08T13:33:53.999Z</time>
</trkpt>
<trkpt lat="44.198023" lon="2.659683">
<ele>808</ele>
<time>2013-05-08T13:33:54.999Z</time>
</trkpt>
<trkpt lat="44.197791" lon="2.65973">
<ele>806.6</ele>
<time>2013-05-08T13:33:55.999Z</time>
</trkpt>
<trkpt lat="44.197559" lon="2.659773">
<ele>804.9</ele>
<time>2013-05-08T13:33:56.999Z</time>
</trkpt>
<trkpt lat="44.197326" lon="2.659806">
<ele>803</ele>
<time>2013-05-08T13:33:57.999Z</time>
</trkpt>
<trkpt lat="44.197098" lon="2.659836">
<ele>801</ele>
<time>2013-05-08T13:33:58.999Z</time>
</trkpt>
<trkpt lat="44.196877" lon="2.659881">
<ele>798.7</ele>
<time>2013-05-08T13:33:59.999Z</time>
</trkpt>
<trkpt lat="44.196669" lon="2.65994">
<ele>796.2</ele>
<time>2013-05-08T13:34:00.999Z</time>
</trkpt>
<trkpt lat="44.196468" lon="2.660002">
<ele>794</ele>
<time>2013-05-08T13:34:01.999Z</time>
</trkpt>
<trkpt lat="44.19627" lon="2.660039">
<ele>792.3</ele>
<time>2013-05-08T13:34:02.999Z</time>
</trkpt>
<trkpt lat="44.196084" lon="2.660056">
<ele>790.9</ele>
<time>2013-05-08T13:34:03.999Z</time>
</trkpt>
<trkpt lat="44.195913" lon="2.660059">
<ele>789.7</ele>
<time>2013-05-08T13:34:04.999Z</time>
</trkpt>
<trkpt lat="44.195761" lon="2.660062">
<ele>788.7</ele>
<time>2013-05-08T13:34:05.999Z</time>
</trkpt>
<trkpt lat="44.195615" lon="2.660064">
<ele>787.8</ele>
<time>2013-05-08T13:34:06.999Z</time>
</trkpt>
<trkpt lat="44.195476" lon="2.660066">
<ele>787</ele>
<time>2013-05-08T13:34:07.999Z</time>
</trkpt>
<trkpt lat="44.195351" lon="2.660062">
<ele>786.2</ele>
<time>2013-05-08T13:34:08.999Z</time>
</trkpt>
<trkpt lat="44.195234" lon="2.66006">
<ele>785.4</ele>
<time>2013-05-08T13:34:09.999Z</time>
</trkpt>
<trkpt lat="44.195121" lon="2.66006">
<ele>784.4</ele>
<time>2013-05-08T13:34:10.999Z</time>
</trkpt>
<trkpt lat="44.195007" lon="2.660055">
<ele>783.6</ele>
<time>2013-05-08T13:34:11.999Z</time>
</trkpt>
<trkpt lat="44.194908" lon="2.660054">
<ele>782.9</ele>
<time>2013-05-08T13:34:12.999Z</time>
</trkpt>
<trkpt lat="44.194816" lon="2.660057">
<ele>782.1</ele>
<time>2013-05-08T13:34:13.999Z</time>
</trkpt>
<trkpt lat="44.194716" lon="2.660056">
<ele>781.3</ele>
<time>2013-05-08T13:34:14.999Z</time>
</trkpt>
<trkpt lat="44.19461" lon="2.660056">
<ele>780.7</ele>
<time>2013-05-08T13:34:15.999Z</time>
</trkpt>
<trkpt lat="44.194504" lon="2.660063">
<ele>780</ele>
<time>2013-05-08T13:34:16.999Z</time>
</trkpt>
<trkpt lat="44.194394" lon="2.660083">
<ele>779.2</ele>
<time>2013-05-08T13:34:17.999Z</time>
</trkpt>
<trkpt lat="44.194282" lon="2.660105">
<ele>778.3</ele>
<time>2013-05-08T13:34:18.999Z</time>
</trkpt>
<trkpt lat="44.194171" lon="2.660134">
<ele>777.5</ele>
<time>2013-05-08T13:34:19.999Z</time>
</trkpt>
<trkpt lat="44.194064" lon="2.660168">
<ele>776.6</ele>
<time>2013-05-08T13:34:20.999Z</time>
</trkpt>
<trkpt lat="44.193954" lon="2.660204">
<ele>775.8</ele>
<time>2013-05-08T13:34:21.999Z</time>
</trkpt>
<trkpt lat="44.19385" lon="2.660246">
<ele>775.3</ele>
<time>2013-05-08T13:34:22.999Z</time>
</trkpt>
<trkpt lat="44.193744" lon="2.660294">
<ele>774.8</ele>
<time>2013-05-08T13:34:23.999Z</time>
</trkpt>
<trkpt lat="44.19363" lon="2.660341">
<ele>774.3</ele>
<time>2013-05-08T13:34:24.999Z</time>
</trkpt>
<trkpt lat="44.193518" lon="2.660389">
<ele>773.8</ele>
<time>2013-05-08T13:34:25.999Z</time>
</trkpt>
<trkpt lat="44.19341" lon="2.660436">
<ele>773.4</ele>
<time>2013-05-08T13:34:26.999Z</time>
</trkpt>
<trkpt lat="44.193302" lon="2.66048">
<ele>772.8</ele>
<time>2013-05-08T13:34:27.999Z</time>
</trkpt>
<trkpt lat="44.193193" lon="2.660522">
<ele>771.8</ele>
<time>2013-05-08T13:34:28.999Z</time>
</trkpt>
<trkpt lat="44.193093" lon="2.660559">
<ele>770.7</ele>
<time>2013-05-08T13:34:29.999Z</time>
</trkpt>
<trkpt lat="44.193013" lon="2.660592">
<ele>769.6</ele>
<time>2013-05-08T13:34:30.999Z</time>
</trkpt>
<trkpt lat="44.19295" lon="2.660617">
<ele>768.7</ele>
<time>2013-05-08T13:34:31.999Z</time>
</trkpt>
<trkpt lat="44.192903" lon="2.66064">
<ele>768</ele>
<time>2013-05-08T13:34:32.999Z</time>
</trkpt>
<trkpt lat="44.192869" lon="2.660659">
<ele>767.4</ele>
<time>2013-05-08T13:34:33.999Z</time>
</trkpt>
<trkpt lat="44.192836" lon="2.660675">
<ele>767.3</ele>
<time>2013-05-08T13:34:34.999Z</time>
</trkpt>
<trkpt lat="44.192813" lon="2.660689">
<ele>767.3</ele>
<time>2013-05-08T13:34:35.999Z</time>
</trkpt>
<trkpt lat="44.192791" lon="2.660701">
<ele>767.3</ele>
<time>2013-05-08T13:34:36.999Z</time>
</trkpt>
<trkpt lat="44.192749" lon="2.660719">
<ele>767.2</ele>
<time>2013-05-08T13:34:38.999Z</time>
</trkpt>
<trkpt lat="44.192739" lon="2.660723">
<ele>767.1</ele>
<time>2013-05-08T13:34:39.999Z</time>
</trkpt>
<trkpt lat="44.192716" lon="2.660722">
<ele>767.1</ele>
<time>2013-05-08T13:34:51.999Z</time>
</trkpt>
<trkpt lat="44.192685" lon="2.66074">
<ele>767</ele>
<time>2013-05-08T13:34:52.999Z</time>
</trkpt>
<trkpt lat="44.192645" lon="2.660762">
<ele>766.5</ele>
<time>2013-05-08T13:34:53.999Z</time>
</trkpt>
<trkpt lat="44.19259" lon="2.660795">
<ele>766</ele>
<time>2013-05-08T13:34:54.999Z</time>
</trkpt>
<trkpt lat="44.192523" lon="2.660836">
<ele>765.4</ele>
<time>2013-05-08T13:34:55.999Z</time>
</trkpt>
<trkpt lat="44.19246" lon="2.660898">
<ele>765.2</ele>
<time>2013-05-08T13:34:56.999Z</time>
</trkpt>
<trkpt lat="44.192397" lon="2.660959">
<ele>764.9</ele>
<time>2013-05-08T13:34:57.999Z</time>
</trkpt>
<trkpt lat="44.192317" lon="2.661021">
<ele>765.1</ele>
<time>2013-05-08T13:34:58.999Z</time>
</trkpt>
<trkpt lat="44.192213" lon="2.661062">
<ele>765.4</ele>
<time>2013-05-08T13:34:59.999Z</time>
</trkpt>
<trkpt lat="44.192114" lon="2.661074">
<ele>765.4</ele>
<time>2013-05-08T13:35:00.999Z</time>
</trkpt>
<trkpt lat="44.192011" lon="2.661067">
<ele>764.6</ele>
<time>2013-05-08T13:35:01.999Z</time>
</trkpt>
<trkpt lat="44.191906" lon="2.661061">
<ele>763.8</ele>
<time>2013-05-08T13:35:02.999Z</time>
</trkpt>
<trkpt lat="44.191793" lon="2.661085">
<ele>763.2</ele>
<time>2013-05-08T13:35:03.999Z</time>
</trkpt>
<trkpt lat="44.191673" lon="2.661118">
<ele>762.8</ele>
<time>2013-05-08T13:35:04.999Z</time>
</trkpt>
<trkpt lat="44.191549" lon="2.661155">
<ele>762.4</ele>
<time>2013-05-08T13:35:05.999Z</time>
</trkpt>
<trkpt lat="44.191433" lon="2.661196">
<ele>762.4</ele>
<time>2013-05-08T13:35:06.999Z</time>
</trkpt>
<trkpt lat="44.191322" lon="2.661239">
<ele>762.2</ele>
<time>2013-05-08T13:35:07.999Z</time>
</trkpt>
<trkpt lat="44.191214" lon="2.66128">
<ele>762.1</ele>
<time>2013-05-08T13:35:08.999Z</time>
</trkpt>
<trkpt lat="44.191118" lon="2.661317">
<ele>762.4</ele>
<time>2013-05-08T13:35:09.999Z</time>
</trkpt>
<trkpt lat="44.191026" lon="2.661348">
<ele>762.7</ele>
<time>2013-05-08T13:35:10.999Z</time>
</trkpt>
<trkpt lat="44.190934" lon="2.661381">
<ele>762.8</ele>
<time>2013-05-08T13:35:11.999Z</time>
</trkpt>
<trkpt lat="44.190842" lon="2.661414">
<ele>762.9</ele>
<time>2013-05-08T13:35:12.999Z</time>
</trkpt>
<trkpt lat="44.190753" lon="2.661489">
<ele>763.2</ele>
<time>2013-05-08T13:35:13.999Z</time>
</trkpt>
<trkpt lat="44.190669" lon="2.661568">
<ele>763.3</ele>
<time>2013-05-08T13:35:14.999Z</time>
</trkpt>
<trkpt lat="44.19058" lon="2.661653">
<ele>763.4</ele>
<time>2013-05-08T13:35:15.999Z</time>
</trkpt>
<trkpt lat="44.190489" lon="2.661731">
<ele>763.5</ele>
<time>2013-05-08T13:35:16.999Z</time>
</trkpt>
<trkpt lat="44.190389" lon="2.661772">
<ele>764</ele>
<time>2013-05-08T13:35:17.999Z</time>
</trkpt>
<trkpt lat="44.190278" lon="2.661749">
<ele>764.6</ele>
<time>2013-05-08T13:35:18.999Z</time>
</trkpt>
<trkpt lat="44.190166" lon="2.661715">
<ele>765.1</ele>
<time>2013-05-08T13:35:19.999Z</time>
</trkpt>
<trkpt lat="44.190049" lon="2.661676">
<ele>765.3</ele>
<time>2013-05-08T13:35:20.999Z</time>
</trkpt>
<trkpt lat="44.18993" lon="2.661627">
<ele>765.6</ele>
<time>2013-05-08T13:35:21.999Z</time>
</trkpt>
<trkpt lat="44.189809" lon="2.661573">
<ele>766</ele>
<time>2013-05-08T13:35:22.999Z</time>
</trkpt>
<trkpt lat="44.189697" lon="2.661517">
<ele>766.9</ele>
<time>2013-05-08T13:35:23.999Z</time>
</trkpt>
<trkpt lat="44.18959" lon="2.661462">
<ele>767.9</ele>
<time>2013-05-08T13:35:24.999Z</time>
</trkpt>
<trkpt lat="44.189489" lon="2.661408">
<ele>768.9</ele>
<time>2013-05-08T13:35:25.999Z</time>
</trkpt>
<trkpt lat="44.189407" lon="2.661333">
<ele>769.7</ele>
<time>2013-05-08T13:35:26.999Z</time>
</trkpt>
<trkpt lat="44.189343" lon="2.661242">
<ele>770.2</ele>
<time>2013-05-08T13:35:27.999Z</time>
</trkpt>
<trkpt lat="44.189317" lon="2.661154">
<ele>770.6</ele>
<time>2013-05-08T13:35:28.999Z</time>
</trkpt>
<trkpt lat="44.189324" lon="2.661085">
<ele>771</ele>
<time>2013-05-08T13:35:29.999Z</time>
</trkpt>
<trkpt lat="44.189335" lon="2.661011">
<ele>771.9</ele>
<time>2013-05-08T13:35:30.999Z</time>
</trkpt>
<trkpt lat="44.189348" lon="2.660926">
<ele>772.6</ele>
<time>2013-05-08T13:35:31.999Z</time>
</trkpt>
<trkpt lat="44.18936" lon="2.660821">
<ele>772.9</ele>
<time>2013-05-08T13:35:32.999Z</time>
</trkpt>
<trkpt lat="44.189374" lon="2.660693">
<ele>773</ele>
<time>2013-05-08T13:35:33.999Z</time>
</trkpt>
<trkpt lat="44.189387" lon="2.660544">
<ele>772.6</ele>
<time>2013-05-08T13:35:34.999Z</time>
</trkpt>
<trkpt lat="44.189406" lon="2.660392">
<ele>772.4</ele>
<time>2013-05-08T13:35:35.999Z</time>
</trkpt>
<trkpt lat="44.189426" lon="2.660239">
<ele>772</ele>
<time>2013-05-08T13:35:36.999Z</time>
</trkpt>
<trkpt lat="44.189445" lon="2.660074">
<ele>771.6</ele>
<time>2013-05-08T13:35:37.999Z</time>
</trkpt>
<trkpt lat="44.189462" lon="2.659903">
<ele>771.4</ele>
<time>2013-05-08T13:35:38.999Z</time>
</trkpt>
<trkpt lat="44.189444" lon="2.659742">
<ele>771.5</ele>
<time>2013-05-08T13:35:39.999Z</time>
</trkpt>
<trkpt lat="44.189415" lon="2.659574">
<ele>772</ele>
<time>2013-05-08T13:35:40.999Z</time>
</trkpt>
<trkpt lat="44.189376" lon="2.659394">
<ele>772.2</ele>
<time>2013-05-08T13:35:41.999Z</time>
</trkpt>
<trkpt lat="44.189329" lon="2.659215">
<ele>772.4</ele>
<time>2013-05-08T13:35:42.999Z</time>
</trkpt>
<trkpt lat="44.189277" lon="2.659044">
<ele>772.7</ele>
<time>2013-05-08T13:35:43.999Z</time>
</trkpt>
<trkpt lat="44.189192" lon="2.658892">
<ele>773.1</ele>
<time>2013-05-08T13:35:44.999Z</time>
</trkpt>
<trkpt lat="44.18909" lon="2.658771">
<ele>773.4</ele>
<time>2013-05-08T13:35:45.999Z</time>
</trkpt>
<trkpt lat="44.188987" lon="2.658669">
<ele>773.9</ele>
<time>2013-05-08T13:35:46.999Z</time>
</trkpt>
<trkpt lat="44.188853" lon="2.65864">
<ele>774.4</ele>
<time>2013-05-08T13:35:47.999Z</time>
</trkpt>
<trkpt lat="44.188701" lon="2.658629">
<ele>774.7</ele>
<time>2013-05-08T13:35:48.999Z</time>
</trkpt>
<trkpt lat="44.18855" lon="2.658628">
<ele>775.1</ele>
<time>2013-05-08T13:35:49.999Z</time>
</trkpt>
<trkpt lat="44.188407" lon="2.658675">
<ele>775.7</ele>
<time>2013-05-08T13:35:50.999Z</time>
</trkpt>
<trkpt lat="44.188256" lon="2.658727">
<ele>776.1</ele>
<time>2013-05-08T13:35:51.999Z</time>
</trkpt>
<trkpt lat="44.188122" lon="2.658782">
<ele>777</ele>
<time>2013-05-08T13:35:52.999Z</time>
</trkpt>
<trkpt lat="44.18798" lon="2.658849">
<ele>777.1</ele>
<time>2013-05-08T13:35:53.999Z</time>
</trkpt>
<trkpt lat="44.187842" lon="2.658923">
<ele>777.2</ele>
<time>2013-05-08T13:35:54.999Z</time>
</trkpt>
<trkpt lat="44.187703" lon="2.659009">
<ele>777.3</ele>
<time>2013-05-08T13:35:55.999Z</time>
</trkpt>
<trkpt lat="44.187559" lon="2.659116">
<ele>777.7</ele>
<time>2013-05-08T13:35:56.999Z</time>
</trkpt>
<trkpt lat="44.187434" lon="2.659271">
<ele>777.8</ele>
<time>2013-05-08T13:35:57.999Z</time>
</trkpt>
<trkpt lat="44.187316" lon="2.659428">
<ele>777.8</ele>
<time>2013-05-08T13:35:58.999Z</time>
</trkpt>
<trkpt lat="44.187194" lon="2.659575">
<ele>777.9</ele>
<time>2013-05-08T13:35:59.999Z</time>
</trkpt>
<trkpt lat="44.187064" lon="2.659718">
<ele>777.8</ele>
<time>2013-05-08T13:36:00.999Z</time>
</trkpt>
<trkpt lat="44.186931" lon="2.659854">
<ele>777.9</ele>
<time>2013-05-08T13:36:01.999Z</time>
</trkpt>
<trkpt lat="44.186794" lon="2.659968">
<ele>778.1</ele>
<time>2013-05-08T13:36:02.999Z</time>
</trkpt>
<trkpt lat="44.186656" lon="2.660068">
<ele>778.2</ele>
<time>2013-05-08T13:36:03.999Z</time>
</trkpt>
<trkpt lat="44.186522" lon="2.660078">
<ele>778.4</ele>
<time>2013-05-08T13:36:04.999Z</time>
</trkpt>
<trkpt lat="44.186398" lon="2.660041">
<ele>778.6</ele>
<time>2013-05-08T13:36:05.999Z</time>
</trkpt>
<trkpt lat="44.186289" lon="2.659991">
<ele>778.9</ele>
<time>2013-05-08T13:36:06.999Z</time>
</trkpt>
<trkpt lat="44.18622" lon="2.65983">
<ele>779.4</ele>
<time>2013-05-08T13:36:07.999Z</time>
</trkpt>
<trkpt lat="44.18615" lon="2.659651">
<ele>780.1</ele>
<time>2013-05-08T13:36:08.999Z</time>
</trkpt>
<trkpt lat="44.186074" lon="2.659473">
<ele>781</ele>
<time>2013-05-08T13:36:09.999Z</time>
</trkpt>
<trkpt lat="44.185985" lon="2.659299">
<ele>781.9</ele>
<time>2013-05-08T13:36:10.999Z</time>
</trkpt>
<trkpt lat="44.185883" lon="2.659128">
<ele>782.8</ele>
<time>2013-05-08T13:36:11.999Z</time>
</trkpt>
<trkpt lat="44.18577" lon="2.658963">
<ele>783.7</ele>
<time>2013-05-08T13:36:12.999Z</time>
</trkpt>
<trkpt lat="44.185646" lon="2.6588">
<ele>784.5</ele>
<time>2013-05-08T13:36:13.999Z</time>
</trkpt>
<trkpt lat="44.185516" lon="2.658638">
<ele>785.4</ele>
<time>2013-05-08T13:36:14.999Z</time>
</trkpt>
<trkpt lat="44.185373" lon="2.65847">
<ele>786.2</ele>
<time>2013-05-08T13:36:15.999Z</time>
</trkpt>
<trkpt lat="44.185232" lon="2.658304">
<ele>786.7</ele>
<time>2013-05-08T13:36:16.999Z</time>
</trkpt>
<trkpt lat="44.185085" lon="2.658153">
<ele>787.5</ele>
<time>2013-05-08T13:36:17.999Z</time>
</trkpt>
<trkpt lat="44.184944" lon="2.65801">
<ele>788.2</ele>
<time>2013-05-08T13:36:18.999Z</time>
</trkpt>
<trkpt lat="44.184813" lon="2.657889">
<ele>788.7</ele>
<time>2013-05-08T13:36:19.999Z</time>
</trkpt>
<trkpt lat="44.184684" lon="2.657786">
<ele>789.4</ele>
<time>2013-05-08T13:36:20.999Z</time>
</trkpt>
<trkpt lat="44.18454" lon="2.657743">
<ele>790.2</ele>
<time>2013-05-08T13:36:21.999Z</time>
</trkpt>
<trkpt lat="44.184396" lon="2.657721">
<ele>791</ele>
<time>2013-05-08T13:36:22.999Z</time>
</trkpt>
<trkpt lat="44.184233" lon="2.657744">
<ele>792</ele>
<time>2013-05-08T13:36:23.999Z</time>
</trkpt>
<trkpt lat="44.184068" lon="2.657776">
<ele>793</ele>
<time>2013-05-08T13:36:24.999Z</time>
</trkpt>
<trkpt lat="44.183901" lon="2.657818">
<ele>794.1</ele>
<time>2013-05-08T13:36:25.999Z</time>
</trkpt>
<trkpt lat="44.183728" lon="2.657866">
<ele>795.2</ele>
<time>2013-05-08T13:36:26.999Z</time>
</trkpt>
<trkpt lat="44.183555" lon="2.657917">
<ele>796.3</ele>
<time>2013-05-08T13:36:27.999Z</time>
</trkpt>
<trkpt lat="44.183374" lon="2.657968">
<ele>797.7</ele>
<time>2013-05-08T13:36:28.999Z</time>
</trkpt>
<trkpt lat="44.183191" lon="2.658009">
<ele>799.1</ele>
<time>2013-05-08T13:36:29.999Z</time>
</trkpt>
<trkpt lat="44.183014" lon="2.657982">
<ele>800.4</ele>
<time>2013-05-08T13:36:30.999Z</time>
</trkpt>
<trkpt lat="44.182845" lon="2.657958">
<ele>801.4</ele>
<time>2013-05-08T13:36:31.999Z</time>
</trkpt>
<trkpt lat="44.182673" lon="2.657935">
<ele>802.2</ele>
<time>2013-05-08T13:36:32.999Z</time>
</trkpt>
<trkpt lat="44.1825" lon="2.657903">
<ele>802.9</ele>
<time>2013-05-08T13:36:33.999Z</time>
</trkpt>
<trkpt lat="44.182332" lon="2.657863">
<ele>803.4</ele>
<time>2013-05-08T13:36:34.999Z</time>
</trkpt>
<trkpt lat="44.182181" lon="2.657811">
<ele>803.6</ele>
<time>2013-05-08T13:36:35.999Z</time>
</trkpt>
<trkpt lat="44.182052" lon="2.657701">
<ele>803.9</ele>
<time>2013-05-08T13:36:36.999Z</time>
</trkpt>
<trkpt lat="44.181937" lon="2.657546">
<ele>804.2</ele>
<time>2013-05-08T13:36:37.999Z</time>
</trkpt>
<trkpt lat="44.181816" lon="2.657372">
<ele>804.7</ele>
<time>2013-05-08T13:36:38.999Z</time>
</trkpt>
<trkpt lat="44.181689" lon="2.657183">
<ele>805.3</ele>
<time>2013-05-08T13:36:39.999Z</time>
</trkpt>
<trkpt lat="44.181558" lon="2.656986">
<ele>806.1</ele>
<time>2013-05-08T13:36:40.999Z</time>
</trkpt>
<trkpt lat="44.181423" lon="2.656792">
<ele>806.9</ele>
<time>2013-05-08T13:36:41.999Z</time>
</trkpt>
<trkpt lat="44.181292" lon="2.656584">
<ele>807.6</ele>
<time>2013-05-08T13:36:42.999Z</time>
</trkpt>
<trkpt lat="44.181155" lon="2.656366">
<ele>808.3</ele>
<time>2013-05-08T13:36:43.999Z</time>
</trkpt>
<trkpt lat="44.181011" lon="2.656157">
<ele>809</ele>
<time>2013-05-08T13:36:44.999Z</time>
</trkpt>
<trkpt lat="44.180848" lon="2.655946">
<ele>809.8</ele>
<time>2013-05-08T13:36:45.999Z</time>
</trkpt>
<trkpt lat="44.18068" lon="2.655756">
<ele>810.6</ele>
<time>2013-05-08T13:36:46.999Z</time>
</trkpt>
<trkpt lat="44.180505" lon="2.655596">
<ele>811.6</ele>
<time>2013-05-08T13:36:47.999Z</time>
</trkpt>
<trkpt lat="44.180322" lon="2.655464">
<ele>813</ele>
<time>2013-05-08T13:36:48.999Z</time>
</trkpt>
<trkpt lat="44.180157" lon="2.655377">
<ele>813.7</ele>
<time>2013-05-08T13:36:49.999Z</time>
</trkpt>
<trkpt lat="44.179994" lon="2.655298">
<ele>814.8</ele>
<time>2013-05-08T13:36:50.999Z</time>
</trkpt>
<trkpt lat="44.179849" lon="2.65522">
<ele>816.1</ele>
<time>2013-05-08T13:36:51.999Z</time>
</trkpt>
<trkpt lat="44.179732" lon="2.655084">
<ele>816.9</ele>
<time>2013-05-08T13:36:52.999Z</time>
</trkpt>
<trkpt lat="44.179608" lon="2.654939">
<ele>817.8</ele>
<time>2013-05-08T13:36:53.999Z</time>
</trkpt>
<trkpt lat="44.179492" lon="2.654789">
<ele>818</ele>
<time>2013-05-08T13:36:54.999Z</time>
</trkpt>
<trkpt lat="44.179371" lon="2.654623">
<ele>818.5</ele>
<time>2013-05-08T13:36:55.999Z</time>
</trkpt>
<trkpt lat="44.179225" lon="2.654452">
<ele>818.8</ele>
<time>2013-05-08T13:36:56.999Z</time>
</trkpt>
<trkpt lat="44.179047" lon="2.654328">
<ele>819.5</ele>
<time>2013-05-08T13:36:57.999Z</time>
</trkpt>
<trkpt lat="44.178865" lon="2.654208">
<ele>820.1</ele>
<time>2013-05-08T13:36:58.999Z</time>
</trkpt>
<trkpt lat="44.17869" lon="2.654094">
<ele>821.1</ele>
<time>2013-05-08T13:36:59.999Z</time>
</trkpt>
<trkpt lat="44.178517" lon="2.653988">
<ele>822</ele>
<time>2013-05-08T13:37:00.999Z</time>
</trkpt>
<trkpt lat="44.178354" lon="2.65389">
<ele>823</ele>
<time>2013-05-08T13:37:01.999Z</time>
</trkpt>
<trkpt lat="44.1782" lon="2.653785">
<ele>824.1</ele>
<time>2013-05-08T13:37:02.999Z</time>
</trkpt>
<trkpt lat="44.178062" lon="2.653679">
<ele>825.3</ele>
<time>2013-05-08T13:37:03.999Z</time>
</trkpt>
<trkpt lat="44.177971" lon="2.653533">
<ele>826.6</ele>
<time>2013-05-08T13:37:04.999Z</time>
</trkpt>
<trkpt lat="44.177876" lon="2.653374">
<ele>827.8</ele>
<time>2013-05-08T13:37:05.999Z</time>
</trkpt>
<trkpt lat="44.177788" lon="2.653207">
<ele>828.9</ele>
<time>2013-05-08T13:37:06.999Z</time>
</trkpt>
<trkpt lat="44.177666" lon="2.653104">
<ele>830</ele>
<time>2013-05-08T13:37:07.999Z</time>
</trkpt>
<trkpt lat="44.177537" lon="2.65303">
<ele>830.5</ele>
<time>2013-05-08T13:37:08.999Z</time>
</trkpt>
<trkpt lat="44.1774" lon="2.653001">
<ele>830.6</ele>
<time>2013-05-08T13:37:09.999Z</time>
</trkpt>
<trkpt lat="44.177262" lon="2.652978">
<ele>830.7</ele>
<time>2013-05-08T13:37:10.999Z</time>
</trkpt>
<trkpt lat="44.177119" lon="2.652959">
<ele>831.4</ele>
<time>2013-05-08T13:37:11.999Z</time>
</trkpt>
<trkpt lat="44.176985" lon="2.652935">
<ele>832.3</ele>
<time>2013-05-08T13:37:12.999Z</time>
</trkpt>
<trkpt lat="44.176845" lon="2.652911">
<ele>833.1</ele>
<time>2013-05-08T13:37:13.999Z</time>
</trkpt>
<trkpt lat="44.176705" lon="2.652885">
<ele>833.8</ele>
<time>2013-05-08T13:37:14.999Z</time>
</trkpt>
<trkpt lat="44.17657" lon="2.652858">
<ele>834.3</ele>
<time>2013-05-08T13:37:15.999Z</time>
</trkpt>
<trkpt lat="44.176438" lon="2.652837">
<ele>834.9</ele>
<time>2013-05-08T13:37:16.999Z</time>
</trkpt>
<trkpt lat="44.176311" lon="2.652865">
<ele>835.4</ele>
<time>2013-05-08T13:37:17.999Z</time>
</trkpt>
<trkpt lat="44.176172" lon="2.652908">
<ele>835.9</ele>
<time>2013-05-08T13:37:18.999Z</time>
</trkpt>
<trkpt lat="44.176055" lon="2.652976">
<ele>835.8</ele>
<time>2013-05-08T13:37:19.999Z</time>
</trkpt>
<trkpt lat="44.17593" lon="2.653111">
<ele>835.4</ele>
<time>2013-05-08T13:37:20.999Z</time>
</trkpt>
<trkpt lat="44.175838" lon="2.653304">
<ele>835.2</ele>
<time>2013-05-08T13:37:21.999Z</time>
</trkpt>
<trkpt lat="44.175738" lon="2.653531">
<ele>835.8</ele>
<time>2013-05-08T13:37:22.999Z</time>
</trkpt>
<trkpt lat="44.175646" lon="2.653767">
<ele>836.3</ele>
<time>2013-05-08T13:37:23.999Z</time>
</trkpt>
<trkpt lat="44.175567" lon="2.654018">
<ele>837</ele>
<time>2013-05-08T13:37:24.999Z</time>
</trkpt>
<trkpt lat="44.175516" lon="2.654279">
<ele>837.5</ele>
<time>2013-05-08T13:37:25.999Z</time>
</trkpt>
<trkpt lat="44.175488" lon="2.654528">
<ele>838.1</ele>
<time>2013-05-08T13:37:26.999Z</time>
</trkpt>
<trkpt lat="44.175483" lon="2.654781">
<ele>838.2</ele>
<time>2013-05-08T13:37:27.999Z</time>
</trkpt>
<trkpt lat="44.175513" lon="2.655025">
<ele>838.4</ele>
<time>2013-05-08T13:37:28.999Z</time>
</trkpt>
<trkpt lat="44.1756" lon="2.655263">
<ele>839.2</ele>
<time>2013-05-08T13:37:29.999Z</time>
</trkpt>
<trkpt lat="44.175691" lon="2.655498">
<ele>840</ele>
<time>2013-05-08T13:37:30.999Z</time>
</trkpt>
<trkpt lat="44.175773" lon="2.655696">
<ele>841.3</ele>
<time>2013-05-08T13:37:31.999Z</time>
</trkpt>
<trkpt lat="44.175851" lon="2.655892">
<ele>842.7</ele>
<time>2013-05-08T13:37:32.999Z</time>
</trkpt>
<trkpt lat="44.175856" lon="2.656095">
<ele>844.4</ele>
<time>2013-05-08T13:37:33.999Z</time>
</trkpt>
<trkpt lat="44.175842" lon="2.656255">
<ele>845.9</ele>
<time>2013-05-08T13:37:34.999Z</time>
</trkpt>
<trkpt lat="44.175776" lon="2.656408">
<ele>847.2</ele>
<time>2013-05-08T13:37:35.999Z</time>
</trkpt>
<trkpt lat="44.175688" lon="2.656578">
<ele>848.4</ele>
<time>2013-05-08T13:37:36.999Z</time>
</trkpt>
<trkpt lat="44.175584" lon="2.656765">
<ele>849.5</ele>
<time>2013-05-08T13:37:37.999Z</time>
</trkpt>
<trkpt lat="44.175474" lon="2.656962">
<ele>850.6</ele>
<time>2013-05-08T13:37:38.999Z</time>
</trkpt>
<trkpt lat="44.175352" lon="2.657168">
<ele>851.6</ele>
<time>2013-05-08T13:37:39.999Z</time>
</trkpt>
<trkpt lat="44.17523" lon="2.657364">
<ele>852.8</ele>
<time>2013-05-08T13:37:40.999Z</time>
</trkpt>
<trkpt lat="44.175079" lon="2.657512">
<ele>853.8</ele>
<time>2013-05-08T13:37:41.999Z</time>
</trkpt>
<trkpt lat="44.174907" lon="2.657631">
<ele>854.9</ele>
<time>2013-05-08T13:37:42.999Z</time>
</trkpt>
<trkpt lat="44.174731" lon="2.657731">
<ele>856.3</ele>
<time>2013-05-08T13:37:43.999Z</time>
</trkpt>
<trkpt lat="44.174544" lon="2.657775">
<ele>857.4</ele>
<time>2013-05-08T13:37:44.999Z</time>
</trkpt>
<trkpt lat="44.174367" lon="2.657795">
<ele>858.5</ele>
<time>2013-05-08T13:37:45.999Z</time>
</trkpt>
<trkpt lat="44.174187" lon="2.657793">
<ele>859.6</ele>
<time>2013-05-08T13:37:46.999Z</time>
</trkpt>
<trkpt lat="44.173993" lon="2.657782">
<ele>860.2</ele>
<time>2013-05-08T13:37:47.999Z</time>
</trkpt>
<trkpt lat="44.173799" lon="2.657764">
<ele>860.6</ele>
<time>2013-05-08T13:37:48.999Z</time>
</trkpt>
<trkpt lat="44.173604" lon="2.657762">
<ele>860.9</ele>
<time>2013-05-08T13:37:49.999Z</time>
</trkpt>
<trkpt lat="44.173408" lon="2.657778">
<ele>861.1</ele>
<time>2013-05-08T13:37:50.999Z</time>
</trkpt>
<trkpt lat="44.173208" lon="2.657808">
<ele>861.3</ele>
<time>2013-05-08T13:37:51.999Z</time>
</trkpt>
<trkpt lat="44.172999" lon="2.657865">
<ele>861.4</ele>
<time>2013-05-08T13:37:52.999Z</time>
</trkpt>
<trkpt lat="44.172798" lon="2.657936">
<ele>861.5</ele>
<time>2013-05-08T13:37:53.999Z</time>
</trkpt>
<trkpt lat="44.172609" lon="2.65802">
<ele>861.6</ele>
<time>2013-05-08T13:37:54.999Z</time>
</trkpt>
<trkpt lat="44.172425" lon="2.658107">
<ele>862</ele>
<time>2013-05-08T13:37:55.999Z</time>
</trkpt>
<trkpt lat="44.172246" lon="2.658195">
<ele>862.6</ele>
<time>2013-05-08T13:37:56.999Z</time>
</trkpt>
<trkpt lat="44.172087" lon="2.658302">
<ele>863.3</ele>
<time>2013-05-08T13:37:57.999Z</time>
</trkpt>
<trkpt lat="44.171945" lon="2.658429">
<ele>863.8</ele>
<time>2013-05-08T13:37:58.999Z</time>
</trkpt>
<trkpt lat="44.171823" lon="2.65856">
<ele>864</ele>
<time>2013-05-08T13:37:59.999Z</time>
</trkpt>
<trkpt lat="44.171721" lon="2.658744">
<ele>863.8</ele>
<time>2013-05-08T13:38:00.999Z</time>
</trkpt>
<trkpt lat="44.171636" lon="2.658998">
<ele>864.6</ele>
<time>2013-05-08T13:38:01.999Z</time>
</trkpt>
<trkpt lat="44.17154" lon="2.659255">
<ele>865</ele>
<time>2013-05-08T13:38:02.999Z</time>
</trkpt>
<trkpt lat="44.171445" lon="2.659513">
<ele>864.9</ele>
<time>2013-05-08T13:38:03.999Z</time>
</trkpt>
<trkpt lat="44.171349" lon="2.659792">
<ele>865.4</ele>
<time>2013-05-08T13:38:04.999Z</time>
</trkpt>
<trkpt lat="44.171246" lon="2.660074">
<ele>866</ele>
<time>2013-05-08T13:38:05.999Z</time>
</trkpt>
<trkpt lat="44.171145" lon="2.660338">
<ele>866.5</ele>
<time>2013-05-08T13:38:06.999Z</time>
</trkpt>
<trkpt lat="44.171054" lon="2.660595">
<ele>866.8</ele>
<time>2013-05-08T13:38:07.999Z</time>
</trkpt>
<trkpt lat="44.170974" lon="2.660824">
<ele>867.7</ele>
<time>2013-05-08T13:38:08.999Z</time>
</trkpt>
<trkpt lat="44.170898" lon="2.661005">
<ele>868.8</ele>
<time>2013-05-08T13:38:09.999Z</time>
</trkpt>
<trkpt lat="44.170797" lon="2.661131">
<ele>870.5</ele>
<time>2013-05-08T13:38:10.999Z</time>
</trkpt>
<trkpt lat="44.170697" lon="2.661241">
<ele>872.6</ele>
<time>2013-05-08T13:38:11.999Z</time>
</trkpt>
<trkpt lat="44.170568" lon="2.661229">
<ele>874.2</ele>
<time>2013-05-08T13:38:12.999Z</time>
</trkpt>
<trkpt lat="44.170443" lon="2.661217">
<ele>875.2</ele>
<time>2013-05-08T13:38:13.999Z</time>
</trkpt>
<trkpt lat="44.170303" lon="2.661175">
<ele>875.7</ele>
<time>2013-05-08T13:38:14.999Z</time>
</trkpt>
<trkpt lat="44.170151" lon="2.661116">
<ele>876.3</ele>
<time>2013-05-08T13:38:15.999Z</time>
</trkpt>
<trkpt lat="44.169985" lon="2.661126">
<ele>876.6</ele>
<time>2013-05-08T13:38:16.999Z</time>
</trkpt>
<trkpt lat="44.169811" lon="2.661156">
<ele>877</ele>
<time>2013-05-08T13:38:17.999Z</time>
</trkpt>
<trkpt lat="44.16964" lon="2.661239">
<ele>877.4</ele>
<time>2013-05-08T13:38:18.999Z</time>
</trkpt>
<trkpt lat="44.169452" lon="2.661336">
<ele>877.9</ele>
<time>2013-05-08T13:38:19.999Z</time>
</trkpt>
<trkpt lat="44.169261" lon="2.661444">
<ele>878.5</ele>
<time>2013-05-08T13:38:20.999Z</time>
</trkpt>
<trkpt lat="44.169071" lon="2.661555">
<ele>879</ele>
<time>2013-05-08T13:38:21.999Z</time>
</trkpt>
<trkpt lat="44.168882" lon="2.661661">
<ele>879.5</ele>
<time>2013-05-08T13:38:22.999Z</time>
</trkpt>
<trkpt lat="44.168696" lon="2.661768">
<ele>880</ele>
<time>2013-05-08T13:38:23.999Z</time>
</trkpt>
<trkpt lat="44.168522" lon="2.661875">
<ele>880.4</ele>
<time>2013-05-08T13:38:24.999Z</time>
</trkpt>
<trkpt lat="44.168349" lon="2.661973">
<ele>880.8</ele>
<time>2013-05-08T13:38:25.999Z</time>
</trkpt>
<trkpt lat="44.168176" lon="2.662058">
<ele>881</ele>
<time>2013-05-08T13:38:26.999Z</time>
</trkpt>
<trkpt lat="44.167999" lon="2.662102">
<ele>881.7</ele>
<time>2013-05-08T13:38:27.999Z</time>
</trkpt>
<trkpt lat="44.167821" lon="2.66211">
<ele>882.7</ele>
<time>2013-05-08T13:38:28.999Z</time>
</trkpt>
<trkpt lat="44.167644" lon="2.6621">
<ele>883.9</ele>
<time>2013-05-08T13:38:29.999Z</time>
</trkpt>
<trkpt lat="44.167457" lon="2.662073">
<ele>885</ele>
<time>2013-05-08T13:38:30.999Z</time>
</trkpt>
<trkpt lat="44.167256" lon="2.662011">
<ele>885.6</ele>
<time>2013-05-08T13:38:31.999Z</time>
</trkpt>
<trkpt lat="44.16705" lon="2.661961">
<ele>886</ele>
<time>2013-05-08T13:38:32.999Z</time>
</trkpt>
<trkpt lat="44.166833" lon="2.661896">
<ele>886.4</ele>
<time>2013-05-08T13:38:33.999Z</time>
</trkpt>
<trkpt lat="44.166606" lon="2.661825">
<ele>886.5</ele>
<time>2013-05-08T13:38:34.999Z</time>
</trkpt>
<trkpt lat="44.166378" lon="2.661748">
<ele>886.5</ele>
<time>2013-05-08T13:38:35.999Z</time>
</trkpt>
<trkpt lat="44.166157" lon="2.661663">
<ele>886.3</ele>
<time>2013-05-08T13:38:36.999Z</time>
</trkpt>
<trkpt lat="44.165943" lon="2.661578">
<ele>886.1</ele>
<time>2013-05-08T13:38:37.999Z</time>
</trkpt>
<trkpt lat="44.165736" lon="2.661491">
<ele>886</ele>
<time>2013-05-08T13:38:38.999Z</time>
</trkpt>
<trkpt lat="44.165532" lon="2.661405">
<ele>886.2</ele>
<time>2013-05-08T13:38:39.999Z</time>
</trkpt>
<trkpt lat="44.165335" lon="2.661359">
<ele>886.5</ele>
<time>2013-05-08T13:38:40.999Z</time>
</trkpt>
<trkpt lat="44.165132" lon="2.661357">
<ele>887.2</ele>
<time>2013-05-08T13:38:41.999Z</time>
</trkpt>
<trkpt lat="44.164922" lon="2.661376">
<ele>888</ele>
<time>2013-05-08T13:38:42.999Z</time>
</trkpt>
<trkpt lat="44.164707" lon="2.661402">
<ele>888.9</ele>
<time>2013-05-08T13:38:43.999Z</time>
</trkpt>
<trkpt lat="44.164486" lon="2.661438">
<ele>889.7</ele>
<time>2013-05-08T13:38:44.999Z</time>
</trkpt>
<trkpt lat="44.164258" lon="2.661474">
<ele>890.5</ele>
<time>2013-05-08T13:38:45.999Z</time>
</trkpt>
<trkpt lat="44.164028" lon="2.661522">
<ele>891.3</ele>
<time>2013-05-08T13:38:46.999Z</time>
</trkpt>
<trkpt lat="44.163794" lon="2.661579">
<ele>892.3</ele>
<time>2013-05-08T13:38:47.999Z</time>
</trkpt>
<trkpt lat="44.163565" lon="2.661651">
<ele>893.2</ele>
<time>2013-05-08T13:38:48.999Z</time>
</trkpt>
<trkpt lat="44.163333" lon="2.661739">
<ele>894.1</ele>
<time>2013-05-08T13:38:49.999Z</time>
</trkpt>
<trkpt lat="44.163089" lon="2.661848">
<ele>894.8</ele>
<time>2013-05-08T13:38:50.999Z</time>
</trkpt>
<trkpt lat="44.16284" lon="2.66197">
<ele>895.2</ele>
<time>2013-05-08T13:38:51.999Z</time>
</trkpt>
<trkpt lat="44.162586" lon="2.662093">
<ele>895.5</ele>
<time>2013-05-08T13:38:52.999Z</time>
</trkpt>
<trkpt lat="44.162329" lon="2.662224">
<ele>896</ele>
<time>2013-05-08T13:38:53.999Z</time>
</trkpt>
<trkpt lat="44.162076" lon="2.662359">
<ele>896.9</ele>
<time>2013-05-08T13:38:54.999Z</time>
</trkpt>
<trkpt lat="44.161828" lon="2.662493">
<ele>897.7</ele>
<time>2013-05-08T13:38:55.999Z</time>
</trkpt>
<trkpt lat="44.161591" lon="2.662616">
<ele>898.6</ele>
<time>2013-05-08T13:38:56.999Z</time>
</trkpt>
<trkpt lat="44.161362" lon="2.662743">
<ele>899.6</ele>
<time>2013-05-08T13:38:57.999Z</time>
</trkpt>
<trkpt lat="44.161138" lon="2.662867">
<ele>900.7</ele>
<time>2013-05-08T13:38:58.999Z</time>
</trkpt>
<trkpt lat="44.160924" lon="2.662983">
<ele>901.5</ele>
<time>2013-05-08T13:38:59.999Z</time>
</trkpt>
<trkpt lat="44.160707" lon="2.663099">
<ele>902.4</ele>
<time>2013-05-08T13:39:00.999Z</time>
</trkpt>
<trkpt lat="44.160499" lon="2.663206">
<ele>903.2</ele>
<time>2013-05-08T13:39:01.999Z</time>
</trkpt>
<trkpt lat="44.160297" lon="2.663312">
<ele>904.1</ele>
<time>2013-05-08T13:39:02.999Z</time>
</trkpt>
<trkpt lat="44.160109" lon="2.663413">
<ele>905</ele>
<time>2013-05-08T13:39:03.999Z</time>
</trkpt>
<trkpt lat="44.159931" lon="2.663509">
<ele>906</ele>
<time>2013-05-08T13:39:04.999Z</time>
</trkpt>
<trkpt lat="44.159761" lon="2.663596">
<ele>907</ele>
<time>2013-05-08T13:39:05.999Z</time>
</trkpt>
<trkpt lat="44.15962" lon="2.663641">
<ele>907.9</ele>
<time>2013-05-08T13:39:06.999Z</time>
</trkpt>
<trkpt lat="44.159468" lon="2.663647">
<ele>908.6</ele>
<time>2013-05-08T13:39:07.999Z</time>
</trkpt>
<trkpt lat="44.159303" lon="2.663625">
<ele>909.8</ele>
<time>2013-05-08T13:39:08.999Z</time>
</trkpt>
<trkpt lat="44.159169" lon="2.663503">
<ele>910.8</ele>
<time>2013-05-08T13:39:09.999Z</time>
</trkpt>
<trkpt lat="44.159068" lon="2.66331">
<ele>911.6</ele>
<time>2013-05-08T13:39:10.999Z</time>
</trkpt>
<trkpt lat="44.158978" lon="2.663109">
<ele>911.9</ele>
<time>2013-05-08T13:39:11.999Z</time>
</trkpt>
<trkpt lat="44.158941" lon="2.662889">
<ele>911.7</ele>
<time>2013-05-08T13:39:12.999Z</time>
</trkpt>
<trkpt lat="44.158935" lon="2.662656">
<ele>911.3</ele>
<time>2013-05-08T13:39:13.999Z</time>
</trkpt>
<trkpt lat="44.158934" lon="2.662432">
<ele>911.2</ele>
<time>2013-05-08T13:39:14.999Z</time>
</trkpt>
<trkpt lat="44.158923" lon="2.662224">
<ele>911.3</ele>
<time>2013-05-08T13:39:15.999Z</time>
</trkpt>
<trkpt lat="44.158865" lon="2.662033">
<ele>911.2</ele>
<time>2013-05-08T13:39:16.999Z</time>
</trkpt>
<trkpt lat="44.158806" lon="2.661849">
<ele>910.7</ele>
<time>2013-05-08T13:39:17.999Z</time>
</trkpt>
<trkpt lat="44.158689" lon="2.661695">
<ele>909.8</ele>
<time>2013-05-08T13:39:18.999Z</time>
</trkpt>
<trkpt lat="44.158565" lon="2.66156">
<ele>909</ele>
<time>2013-05-08T13:39:19.999Z</time>
</trkpt>
<trkpt lat="44.158452" lon="2.661424">
<ele>908.4</ele>
<time>2013-05-08T13:39:20.999Z</time>
</trkpt>
<trkpt lat="44.158384" lon="2.661231">
<ele>907.7</ele>
<time>2013-05-08T13:39:21.999Z</time>
</trkpt>
<trkpt lat="44.158318" lon="2.66101">
<ele>907.4</ele>
<time>2013-05-08T13:39:22.999Z</time>
</trkpt>
<trkpt lat="44.158247" lon="2.660804">
<ele>906.9</ele>
<time>2013-05-08T13:39:23.999Z</time>
</trkpt>
<trkpt lat="44.158171" lon="2.660582">
<ele>906.8</ele>
<time>2013-05-08T13:39:24.999Z</time>
</trkpt>
<trkpt lat="44.158079" lon="2.660364">
<ele>906.7</ele>
<time>2013-05-08T13:39:25.999Z</time>
</trkpt>
<trkpt lat="44.157987" lon="2.660159">
<ele>906.1</ele>
<time>2013-05-08T13:39:26.999Z</time>
</trkpt>
<trkpt lat="44.157849" lon="2.659999">
<ele>905.2</ele>
<time>2013-05-08T13:39:27.999Z</time>
</trkpt>
<trkpt lat="44.157714" lon="2.659856">
<ele>904.2</ele>
<time>2013-05-08T13:39:28.999Z</time>
</trkpt>
<trkpt lat="44.157534" lon="2.659773">
<ele>903</ele>
<time>2013-05-08T13:39:29.999Z</time>
</trkpt>
<trkpt lat="44.157349" lon="2.659691">
<ele>901.6</ele>
<time>2013-05-08T13:39:30.999Z</time>
</trkpt>
<trkpt lat="44.157152" lon="2.659625">
<ele>900.4</ele>
<time>2013-05-08T13:39:31.999Z</time>
</trkpt>
<trkpt lat="44.156959" lon="2.659553">
<ele>899.4</ele>
<time>2013-05-08T13:39:32.999Z</time>
</trkpt>
<trkpt lat="44.156786" lon="2.659445">
<ele>898.9</ele>
<time>2013-05-08T13:39:33.999Z</time>
</trkpt>
<trkpt lat="44.156632" lon="2.659331">
<ele>898.9</ele>
<time>2013-05-08T13:39:34.999Z</time>
</trkpt>
<trkpt lat="44.156508" lon="2.659226">
<ele>899.1</ele>
<time>2013-05-08T13:39:35.999Z</time>
</trkpt>
<trkpt lat="44.156399" lon="2.65912">
<ele>899.2</ele>
<time>2013-05-08T13:39:36.999Z</time>
</trkpt>
<trkpt lat="44.156298" lon="2.659014">
<ele>899.2</ele>
<time>2013-05-08T13:39:37.999Z</time>
</trkpt>
<trkpt lat="44.156203" lon="2.6589">
<ele>899.2</ele>
<time>2013-05-08T13:39:38.999Z</time>
</trkpt>
<trkpt lat="44.156141" lon="2.658736">
<ele>899.5</ele>
<time>2013-05-08T13:39:39.999Z</time>
</trkpt>
<trkpt lat="44.156083" lon="2.658556">
<ele>899.5</ele>
<time>2013-05-08T13:39:40.999Z</time>
</trkpt>
<trkpt lat="44.156025" lon="2.658351">
<ele>899.3</ele>
<time>2013-05-08T13:39:41.999Z</time>
</trkpt>
<trkpt lat="44.155967" lon="2.65813">
<ele>899.2</ele>
<time>2013-05-08T13:39:42.999Z</time>
</trkpt>
<trkpt lat="44.155909" lon="2.657897">
<ele>899.1</ele>
<time>2013-05-08T13:39:43.999Z</time>
</trkpt>
<trkpt lat="44.155817" lon="2.65771">
<ele>898.8</ele>
<time>2013-05-08T13:39:44.999Z</time>
</trkpt>
<trkpt lat="44.155718" lon="2.657518">
<ele>898.8</ele>
<time>2013-05-08T13:39:45.999Z</time>
</trkpt>
<trkpt lat="44.155584" lon="2.657388">
<ele>898.6</ele>
<time>2013-05-08T13:39:46.999Z</time>
</trkpt>
<trkpt lat="44.155426" lon="2.657258">
<ele>897.8</ele>
<time>2013-05-08T13:39:47.999Z</time>
</trkpt>
<trkpt lat="44.155236" lon="2.657129">
<ele>897.6</ele>
<time>2013-05-08T13:39:48.999Z</time>
</trkpt>
<trkpt lat="44.155037" lon="2.65702">
<ele>897.3</ele>
<time>2013-05-08T13:39:49.999Z</time>
</trkpt>
<trkpt lat="44.15483" lon="2.65691">
<ele>897.1</ele>
<time>2013-05-08T13:39:50.999Z</time>
</trkpt>
<trkpt lat="44.15462" lon="2.656803">
<ele>896.7</ele>
<time>2013-05-08T13:39:51.999Z</time>
</trkpt>
<trkpt lat="44.154412" lon="2.656693">
<ele>896.6</ele>
<time>2013-05-08T13:39:52.999Z</time>
</trkpt>
<trkpt lat="44.154207" lon="2.656582">
<ele>896.3</ele>
<time>2013-05-08T13:39:53.999Z</time>
</trkpt>
<trkpt lat="44.154015" lon="2.656478">
<ele>896.1</ele>
<time>2013-05-08T13:39:54.999Z</time>
</trkpt>
<trkpt lat="44.153829" lon="2.656415">
<ele>895.4</ele>
<time>2013-05-08T13:39:55.999Z</time>
</trkpt>
<trkpt lat="44.153625" lon="2.656371">
<ele>894.3</ele>
<time>2013-05-08T13:39:56.999Z</time>
</trkpt>
<trkpt lat="44.153423" lon="2.656379">
<ele>893.6</ele>
<time>2013-05-08T13:39:57.999Z</time>
</trkpt>
<trkpt lat="44.15321" lon="2.656377">
<ele>893.2</ele>
<time>2013-05-08T13:39:58.999Z</time>
</trkpt>
<trkpt lat="44.15299" lon="2.656382">
<ele>892.7</ele>
<time>2013-05-08T13:39:59.999Z</time>
</trkpt>
<trkpt lat="44.152772" lon="2.65637">
<ele>892.2</ele>
<time>2013-05-08T13:40:00.999Z</time>
</trkpt>
<trkpt lat="44.152586" lon="2.65635">
<ele>891.7</ele>
<time>2013-05-08T13:40:01.999Z</time>
</trkpt>
<trkpt lat="44.15242" lon="2.656341">
<ele>890.9</ele>
<time>2013-05-08T13:40:02.999Z</time>
</trkpt>
<trkpt lat="44.152278" lon="2.656339">
<ele>890.3</ele>
<time>2013-05-08T13:40:03.999Z</time>
</trkpt>
<trkpt lat="44.152148" lon="2.656387">
<ele>889.8</ele>
<time>2013-05-08T13:40:04.999Z</time>
</trkpt>
<trkpt lat="44.152012" lon="2.656446">
<ele>889.5</ele>
<time>2013-05-08T13:40:05.999Z</time>
</trkpt>
<trkpt lat="44.151863" lon="2.656528">
<ele>889</ele>
<time>2013-05-08T13:40:06.999Z</time>
</trkpt>
<trkpt lat="44.151715" lon="2.656618">
<ele>888.5</ele>
<time>2013-05-08T13:40:07.999Z</time>
</trkpt>
<trkpt lat="44.151561" lon="2.656715">
<ele>888.1</ele>
<time>2013-05-08T13:40:08.999Z</time>
</trkpt>
<trkpt lat="44.151408" lon="2.656812">
<ele>888.1</ele>
<time>2013-05-08T13:40:09.999Z</time>
</trkpt>
<trkpt lat="44.151264" lon="2.656902">
<ele>888.1</ele>
<time>2013-05-08T13:40:10.999Z</time>
</trkpt>
<trkpt lat="44.151128" lon="2.656976">
<ele>887.9</ele>
<time>2013-05-08T13:40:11.999Z</time>
</trkpt>
<trkpt lat="44.150995" lon="2.656981">
<ele>887.8</ele>
<time>2013-05-08T13:40:12.999Z</time>
</trkpt>
<trkpt lat="44.150869" lon="2.656935">
<ele>887.9</ele>
<time>2013-05-08T13:40:13.999Z</time>
</trkpt>
<trkpt lat="44.150757" lon="2.65683">
<ele>888.3</ele>
<time>2013-05-08T13:40:14.999Z</time>
</trkpt>
<trkpt lat="44.150652" lon="2.656681">
<ele>888.8</ele>
<time>2013-05-08T13:40:15.999Z</time>
</trkpt>
<trkpt lat="44.150548" lon="2.656528">
<ele>889.3</ele>
<time>2013-05-08T13:40:16.999Z</time>
</trkpt>
<trkpt lat="44.150443" lon="2.656359">
<ele>889.5</ele>
<time>2013-05-08T13:40:17.999Z</time>
</trkpt>
<trkpt lat="44.15033" lon="2.656175">
<ele>889.4</ele>
<time>2013-05-08T13:40:18.999Z</time>
</trkpt>
<trkpt lat="44.150213" lon="2.655981">
<ele>888.8</ele>
<time>2013-05-08T13:40:19.999Z</time>
</trkpt>
<trkpt lat="44.150099" lon="2.655789">
<ele>888.4</ele>
<time>2013-05-08T13:40:20.999Z</time>
</trkpt>
<trkpt lat="44.149986" lon="2.6556">
<ele>888</ele>
<time>2013-05-08T13:40:21.999Z</time>
</trkpt>
<trkpt lat="44.149882" lon="2.655423">
<ele>887.5</ele>
<time>2013-05-08T13:40:22.999Z</time>
</trkpt>
<trkpt lat="44.149784" lon="2.655269">
<ele>887.1</ele>
<time>2013-05-08T13:40:23.999Z</time>
</trkpt>
<trkpt lat="44.149687" lon="2.655124">
<ele>886.6</ele>
<time>2013-05-08T13:40:24.999Z</time>
</trkpt>
<trkpt lat="44.149552" lon="2.655026">
<ele>885.8</ele>
<time>2013-05-08T13:40:25.999Z</time>
</trkpt>
<trkpt lat="44.149393" lon="2.654972">
<ele>884.9</ele>
<time>2013-05-08T13:40:26.999Z</time>
</trkpt>
<trkpt lat="44.14922" lon="2.654923">
<ele>883.7</ele>
<time>2013-05-08T13:40:27.999Z</time>
</trkpt>
<trkpt lat="44.149036" lon="2.654875">
<ele>882.6</ele>
<time>2013-05-08T13:40:28.999Z</time>
</trkpt>
<trkpt lat="44.148849" lon="2.654833">
<ele>881.7</ele>
<time>2013-05-08T13:40:29.999Z</time>
</trkpt>
<trkpt lat="44.148658" lon="2.654808">
<ele>880.7</ele>
<time>2013-05-08T13:40:30.999Z</time>
</trkpt>
<trkpt lat="44.148466" lon="2.6548">
<ele>879.9</ele>
<time>2013-05-08T13:40:31.999Z</time>
</trkpt>
<trkpt lat="44.148265" lon="2.654799">
<ele>879.4</ele>
<time>2013-05-08T13:40:32.999Z</time>
</trkpt>
<trkpt lat="44.148058" lon="2.654797">
<ele>879.1</ele>
<time>2013-05-08T13:40:33.999Z</time>
</trkpt>
<trkpt lat="44.147841" lon="2.65481">
<ele>879.3</ele>
<time>2013-05-08T13:40:34.999Z</time>
</trkpt>
<trkpt lat="44.14762" lon="2.654833">
<ele>879.7</ele>
<time>2013-05-08T13:40:35.999Z</time>
</trkpt>
<trkpt lat="44.147394" lon="2.654855">
<ele>880.3</ele>
<time>2013-05-08T13:40:36.999Z</time>
</trkpt>
<trkpt lat="44.147179" lon="2.654887">
<ele>880.7</ele>
<time>2013-05-08T13:40:37.999Z</time>
</trkpt>
<trkpt lat="44.146964" lon="2.654923">
<ele>880.9</ele>
<time>2013-05-08T13:40:38.999Z</time>
</trkpt>
<trkpt lat="44.146753" lon="2.654959">
<ele>881</ele>
<time>2013-05-08T13:40:39.999Z</time>
</trkpt>
<trkpt lat="44.146546" lon="2.654982">
<ele>880.9</ele>
<time>2013-05-08T13:40:40.999Z</time>
</trkpt>
<trkpt lat="44.146347" lon="2.65497">
<ele>880.8</ele>
<time>2013-05-08T13:40:41.999Z</time>
</trkpt>
<trkpt lat="44.146162" lon="2.654929">
<ele>881.1</ele>
<time>2013-05-08T13:40:42.999Z</time>
</trkpt>
<trkpt lat="44.145987" lon="2.65487">
<ele>881.5</ele>
<time>2013-05-08T13:40:43.999Z</time>
</trkpt>
<trkpt lat="44.14583" lon="2.654811">
<ele>881.7</ele>
<time>2013-05-08T13:40:44.999Z</time>
</trkpt>
<trkpt lat="44.14568" lon="2.654743">
<ele>881.7</ele>
<time>2013-05-08T13:40:45.999Z</time>
</trkpt>
<trkpt lat="44.145527" lon="2.654664">
<ele>881.7</ele>
<time>2013-05-08T13:40:46.999Z</time>
</trkpt>
<trkpt lat="44.145377" lon="2.654583">
<ele>881.8</ele>
<time>2013-05-08T13:40:47.999Z</time>
</trkpt>
<trkpt lat="44.145222" lon="2.654501">
<ele>881.8</ele>
<time>2013-05-08T13:40:48.999Z</time>
</trkpt>
<trkpt lat="44.145063" lon="2.654419">
<ele>881.7</ele>
<time>2013-05-08T13:40:49.999Z</time>
</trkpt>
<trkpt lat="44.14491" lon="2.654347">
<ele>881.7</ele>
<time>2013-05-08T13:40:50.999Z</time>
</trkpt>
<trkpt lat="44.144769" lon="2.654282">
<ele>882</ele>
<time>2013-05-08T13:40:51.999Z</time>
</trkpt>
<trkpt lat="44.144633" lon="2.654229">
<ele>882.3</ele>
<time>2013-05-08T13:40:52.999Z</time>
</trkpt>
<trkpt lat="44.144492" lon="2.654172">
<ele>882.5</ele>
<time>2013-05-08T13:40:53.999Z</time>
</trkpt>
<trkpt lat="44.144353" lon="2.654116">
<ele>882.7</ele>
<time>2013-05-08T13:40:54.999Z</time>
</trkpt>
<trkpt lat="44.144218" lon="2.654051">
<ele>882.8</ele>
<time>2013-05-08T13:40:55.999Z</time>
</trkpt>
<trkpt lat="44.144104" lon="2.653939">
<ele>882.7</ele>
<time>2013-05-08T13:40:56.999Z</time>
</trkpt>
<trkpt lat="44.143991" lon="2.653814">
<ele>882.4</ele>
<time>2013-05-08T13:40:57.999Z</time>
</trkpt>
<trkpt lat="44.143873" lon="2.653668">
<ele>882.5</ele>
<time>2013-05-08T13:40:58.999Z</time>
</trkpt>
<trkpt lat="44.143754" lon="2.653507">
<ele>882.8</ele>
<time>2013-05-08T13:40:59.999Z</time>
</trkpt>
<trkpt lat="44.143629" lon="2.653326">
<ele>883</ele>
<time>2013-05-08T13:41:00.999Z</time>
</trkpt>
<trkpt lat="44.143489" lon="2.653131">
<ele>883</ele>
<time>2013-05-08T13:41:01.999Z</time>
</trkpt>
<trkpt lat="44.143343" lon="2.652907">
<ele>883</ele>
<time>2013-05-08T13:41:02.999Z</time>
</trkpt>
<trkpt lat="44.143195" lon="2.652682">
<ele>882.9</ele>
<time>2013-05-08T13:41:03.999Z</time>
</trkpt>
<trkpt lat="44.143039" lon="2.652476">
<ele>882.8</ele>
<time>2013-05-08T13:41:04.999Z</time>
</trkpt>
<trkpt lat="44.142874" lon="2.652277">
<ele>882.8</ele>
<time>2013-05-08T13:41:05.999Z</time>
</trkpt>
<trkpt lat="44.142705" lon="2.652094">
<ele>882.8</ele>
<time>2013-05-08T13:41:06.999Z</time>
</trkpt>
<trkpt lat="44.142532" lon="2.651925">
<ele>882.6</ele>
<time>2013-05-08T13:41:07.999Z</time>
</trkpt>
<trkpt lat="44.142353" lon="2.651783">
<ele>882.3</ele>
<time>2013-05-08T13:41:08.999Z</time>
</trkpt>
<trkpt lat="44.142187" lon="2.651681">
<ele>882</ele>
<time>2013-05-08T13:41:09.999Z</time>
</trkpt>
<trkpt lat="44.14203" lon="2.651599">
<ele>881.7</ele>
<time>2013-05-08T13:41:10.999Z</time>
</trkpt>
<trkpt lat="44.141899" lon="2.651548">
<ele>881.6</ele>
<time>2013-05-08T13:41:11.999Z</time>
</trkpt>
<trkpt lat="44.141801" lon="2.651506">
<ele>881.4</ele>
<time>2013-05-08T13:41:12.999Z</time>
</trkpt>
<trkpt lat="44.141712" lon="2.651453">
<ele>881.2</ele>
<time>2013-05-08T13:41:13.999Z</time>
</trkpt>
<trkpt lat="44.141642" lon="2.65139">
<ele>881.1</ele>
<time>2013-05-08T13:41:14.999Z</time>
</trkpt>
<trkpt lat="44.1416" lon="2.651342">
<ele>881.4</ele>
<time>2013-05-08T13:41:15.999Z</time>
</trkpt>
<trkpt lat="44.141565" lon="2.651304">
<ele>881.5</ele>
<time>2013-05-08T13:41:16.999Z</time>
</trkpt>
<trkpt lat="44.141537" lon="2.651268">
<ele>881.7</ele>
<time>2013-05-08T13:41:17.999Z</time>
</trkpt>
<trkpt lat="44.14151" lon="2.651234">
<ele>881.7</ele>
<time>2013-05-08T13:41:18.999Z</time>
</trkpt>
<trkpt lat="44.141483" lon="2.651198">
<ele>881.8</ele>
<time>2013-05-08T13:41:19.999Z</time>
</trkpt>
<trkpt lat="44.141442" lon="2.651196">
<ele>881.8</ele>
<time>2013-05-08T13:41:20.999Z</time>
</trkpt>
<trkpt lat="44.141397" lon="2.651227">
<ele>881.9</ele>
<time>2013-05-08T13:41:21.999Z</time>
</trkpt>
<trkpt lat="44.141346" lon="2.651271">
<ele>882</ele>
<time>2013-05-08T13:41:22.999Z</time>
</trkpt>
<trkpt lat="44.141284" lon="2.651394">
<ele>882</ele>
<time>2013-05-08T13:41:23.999Z</time>
</trkpt>
<trkpt lat="44.141203" lon="2.651556">
<ele>882.3</ele>
<time>2013-05-08T13:41:24.999Z</time>
</trkpt>
<trkpt lat="44.141105" lon="2.651734">
<ele>882.5</ele>
<time>2013-05-08T13:41:25.999Z</time>
</trkpt>
<trkpt lat="44.140993" lon="2.651909">
<ele>882.6</ele>
<time>2013-05-08T13:41:26.999Z</time>
</trkpt>
<trkpt lat="44.140857" lon="2.652094">
<ele>883</ele>
<time>2013-05-08T13:41:27.999Z</time>
</trkpt>
<trkpt lat="44.140703" lon="2.65227">
<ele>883.3</ele>
<time>2013-05-08T13:41:28.999Z</time>
</trkpt>
<trkpt lat="44.140532" lon="2.652433">
<ele>883.7</ele>
<time>2013-05-08T13:41:29.999Z</time>
</trkpt>
<trkpt lat="44.140351" lon="2.652556">
<ele>884.1</ele>
<time>2013-05-08T13:41:30.999Z</time>
</trkpt>
<trkpt lat="44.140154" lon="2.65267">
<ele>884.5</ele>
<time>2013-05-08T13:41:31.999Z</time>
</trkpt>
<trkpt lat="44.139967" lon="2.652795">
<ele>885.2</ele>
<time>2013-05-08T13:41:32.999Z</time>
</trkpt>
<trkpt lat="44.139784" lon="2.652913">
<ele>885.6</ele>
<time>2013-05-08T13:41:33.999Z</time>
</trkpt>
<trkpt lat="44.139611" lon="2.65305">
<ele>886</ele>
<time>2013-05-08T13:41:34.999Z</time>
</trkpt>
<trkpt lat="44.139447" lon="2.653217">
<ele>886.1</ele>
<time>2013-05-08T13:41:35.999Z</time>
</trkpt>
<trkpt lat="44.139301" lon="2.653404">
<ele>886.2</ele>
<time>2013-05-08T13:41:36.999Z</time>
</trkpt>
<trkpt lat="44.139166" lon="2.653614">
<ele>886.5</ele>
<time>2013-05-08T13:41:37.999Z</time>
</trkpt>
<trkpt lat="44.139059" lon="2.653844">
<ele>886.8</ele>
<time>2013-05-08T13:41:38.999Z</time>
</trkpt>
<trkpt lat="44.13897" lon="2.654082">
<ele>886.9</ele>
<time>2013-05-08T13:41:39.999Z</time>
</trkpt>
<trkpt lat="44.138886" lon="2.654323">
<ele>887.2</ele>
<time>2013-05-08T13:41:40.999Z</time>
</trkpt>
<trkpt lat="44.138773" lon="2.654525">
<ele>887</ele>
<time>2013-05-08T13:41:41.999Z</time>
</trkpt>
<trkpt lat="44.138645" lon="2.654723">
<ele>886.7</ele>
<time>2013-05-08T13:41:42.999Z</time>
</trkpt>
<trkpt lat="44.138496" lon="2.6549">
<ele>886.1</ele>
<time>2013-05-08T13:41:43.999Z</time>
</trkpt>
<trkpt lat="44.138332" lon="2.65507">
<ele>885.6</ele>
<time>2013-05-08T13:41:44.999Z</time>
</trkpt>
<trkpt lat="44.138168" lon="2.655236">
<ele>885.1</ele>
<time>2013-05-08T13:41:45.999Z</time>
</trkpt>
<trkpt lat="44.137997" lon="2.655398">
<ele>884.5</ele>
<time>2013-05-08T13:41:46.999Z</time>
</trkpt>
<trkpt lat="44.137836" lon="2.655564">
<ele>884</ele>
<time>2013-05-08T13:41:47.999Z</time>
</trkpt>
<trkpt lat="44.137687" lon="2.655723">
<ele>883.5</ele>
<time>2013-05-08T13:41:48.999Z</time>
</trkpt>
<trkpt lat="44.13753" lon="2.655838">
<ele>883</ele>
<time>2013-05-08T13:41:49.999Z</time>
</trkpt>
<trkpt lat="44.137368" lon="2.655918">
<ele>882.6</ele>
<time>2013-05-08T13:41:50.999Z</time>
</trkpt>
<trkpt lat="44.137196" lon="2.655932">
<ele>882.1</ele>
<time>2013-05-08T13:41:51.999Z</time>
</trkpt>
<trkpt lat="44.13704" lon="2.655923">
<ele>882.1</ele>
<time>2013-05-08T13:41:52.999Z</time>
</trkpt>
<trkpt lat="44.136893" lon="2.65583">
<ele>882.2</ele>
<time>2013-05-08T13:41:53.999Z</time>
</trkpt>
<trkpt lat="44.136742" lon="2.655737">
<ele>882</ele>
<time>2013-05-08T13:41:54.999Z</time>
</trkpt>
<trkpt lat="44.136599" lon="2.655651">
<ele>882.1</ele>
<time>2013-05-08T13:41:55.999Z</time>
</trkpt>
<trkpt lat="44.13646" lon="2.655584">
<ele>881.8</ele>
<time>2013-05-08T13:41:56.999Z</time>
</trkpt>
<trkpt lat="44.136315" lon="2.655527">
<ele>881.4</ele>
<time>2013-05-08T13:41:57.999Z</time>
</trkpt>
<trkpt lat="44.136176" lon="2.655497">
<ele>881</ele>
<time>2013-05-08T13:41:58.999Z</time>
</trkpt>
<trkpt lat="44.13606" lon="2.655499">
<ele>880.5</ele>
<time>2013-05-08T13:41:59.999Z</time>
</trkpt>
<trkpt lat="44.13594" lon="2.655503">
<ele>880.1</ele>
<time>2013-05-08T13:42:00.999Z</time>
</trkpt>
<trkpt lat="44.135734" lon="2.655633">
<ele>879.7</ele>
<time>2013-05-08T13:42:01.999Z</time>
</trkpt>
<trkpt lat="44.135534" lon="2.655796">
<ele>879.3</ele>
<time>2013-05-08T13:42:02.999Z</time>
</trkpt>
<trkpt lat="44.13536" lon="2.655914">
<ele>878.3</ele>
<time>2013-05-08T13:42:03.999Z</time>
</trkpt>
<trkpt lat="44.135206" lon="2.656016">
<ele>877.4</ele>
<time>2013-05-08T13:42:04.999Z</time>
</trkpt>
<trkpt lat="44.135068" lon="2.656105">
<ele>876.4</ele>
<time>2013-05-08T13:42:05.999Z</time>
</trkpt>
<trkpt lat="44.134938" lon="2.656179">
<ele>875.2</ele>
<time>2013-05-08T13:42:06.999Z</time>
</trkpt>
<trkpt lat="44.13483" lon="2.656305">
<ele>874.2</ele>
<time>2013-05-08T13:42:07.999Z</time>
</trkpt>
<trkpt lat="44.13474" lon="2.656478">
<ele>873.4</ele>
<time>2013-05-08T13:42:08.999Z</time>
</trkpt>
<trkpt lat="44.134661" lon="2.656664">
<ele>872.8</ele>
<time>2013-05-08T13:42:09.999Z</time>
</trkpt>
<trkpt lat="44.134598" lon="2.656883">
<ele>872.6</ele>
<time>2013-05-08T13:42:10.999Z</time>
</trkpt>
<trkpt lat="44.134605" lon="2.657112">
<ele>872</ele>
<time>2013-05-08T13:42:11.999Z</time>
</trkpt>
<trkpt lat="44.134612" lon="2.657334">
<ele>871.6</ele>
<time>2013-05-08T13:42:12.999Z</time>
</trkpt>
<trkpt lat="44.134611" lon="2.657553">
<ele>871.5</ele>
<time>2013-05-08T13:42:13.999Z</time>
</trkpt>
<trkpt lat="44.134569" lon="2.657759">
<ele>871.4</ele>
<time>2013-05-08T13:42:14.999Z</time>
</trkpt>
<trkpt lat="44.134532" lon="2.657957">
<ele>871.4</ele>
<time>2013-05-08T13:42:15.999Z</time>
</trkpt>
<trkpt lat="44.134433" lon="2.658095">
<ele>871.5</ele>
<time>2013-05-08T13:42:16.999Z</time>
</trkpt>
<trkpt lat="44.134317" lon="2.658208">
<ele>871.6</ele>
<time>2013-05-08T13:42:17.999Z</time>
</trkpt>
<trkpt lat="44.134185" lon="2.658316">
<ele>871.5</ele>
<time>2013-05-08T13:42:18.999Z</time>
</trkpt>
<trkpt lat="44.134034" lon="2.658404">
<ele>870.8</ele>
<time>2013-05-08T13:42:19.999Z</time>
</trkpt>
<trkpt lat="44.133874" lon="2.658475">
<ele>869.9</ele>
<time>2013-05-08T13:42:20.999Z</time>
</trkpt>
<trkpt lat="44.133712" lon="2.658541">
<ele>869</ele>
<time>2013-05-08T13:42:21.999Z</time>
</trkpt>
<trkpt lat="44.13355" lon="2.658607">
<ele>868.2</ele>
<time>2013-05-08T13:42:22.999Z</time>
</trkpt>
<trkpt lat="44.133411" lon="2.658716">
<ele>867.1</ele>
<time>2013-05-08T13:42:23.999Z</time>
</trkpt>
<trkpt lat="44.133288" lon="2.658836">
<ele>866.3</ele>
<time>2013-05-08T13:42:24.999Z</time>
</trkpt>
<trkpt lat="44.133163" lon="2.658984">
<ele>864.9</ele>
<time>2013-05-08T13:42:25.999Z</time>
</trkpt>
<trkpt lat="44.133116" lon="2.659193">
<ele>863.1</ele>
<time>2013-05-08T13:42:26.999Z</time>
</trkpt>
<trkpt lat="44.133078" lon="2.659433">
<ele>861.5</ele>
<time>2013-05-08T13:42:27.999Z</time>
</trkpt>
<trkpt lat="44.133049" lon="2.659683">
<ele>860.1</ele>
<time>2013-05-08T13:42:28.999Z</time>
</trkpt>
<trkpt lat="44.133016" lon="2.659925">
<ele>859</ele>
<time>2013-05-08T13:42:29.999Z</time>
</trkpt>
<trkpt lat="44.132984" lon="2.660171">
<ele>857.8</ele>
<time>2013-05-08T13:42:30.999Z</time>
</trkpt>
<trkpt lat="44.132885" lon="2.660361">
<ele>857.2</ele>
<time>2013-05-08T13:42:31.999Z</time>
</trkpt>
<trkpt lat="44.132749" lon="2.660496">
<ele>857</ele>
<time>2013-05-08T13:42:32.999Z</time>
</trkpt>
<trkpt lat="44.132611" lon="2.660627">
<ele>856.8</ele>
<time>2013-05-08T13:42:33.999Z</time>
</trkpt>
<trkpt lat="44.132467" lon="2.66075">
<ele>856.8</ele>
<time>2013-05-08T13:42:34.999Z</time>
</trkpt>
<trkpt lat="44.132298" lon="2.660812">
<ele>856.6</ele>
<time>2013-05-08T13:42:35.999Z</time>
</trkpt>
<trkpt lat="44.13211" lon="2.66077">
<ele>856.5</ele>
<time>2013-05-08T13:42:36.999Z</time>
</trkpt>
<trkpt lat="44.131921" lon="2.660752">
<ele>856.5</ele>
<time>2013-05-08T13:42:37.999Z</time>
</trkpt>
<trkpt lat="44.131725" lon="2.660706">
<ele>856.4</ele>
<time>2013-05-08T13:42:38.999Z</time>
</trkpt>
<trkpt lat="44.131524" lon="2.660659">
<ele>855.2</ele>
<time>2013-05-08T13:42:39.999Z</time>
</trkpt>
<trkpt lat="44.131314" lon="2.660617">
<ele>853.3</ele>
<time>2013-05-08T13:42:40.999Z</time>
</trkpt>
<trkpt lat="44.131126" lon="2.660628">
<ele>851.7</ele>
<time>2013-05-08T13:42:41.999Z</time>
</trkpt>
<trkpt lat="44.130967" lon="2.66071">
<ele>849.8</ele>
<time>2013-05-08T13:42:42.999Z</time>
</trkpt>
<trkpt lat="44.130822" lon="2.660822">
<ele>848.1</ele>
<time>2013-05-08T13:42:43.999Z</time>
</trkpt>
<trkpt lat="44.130707" lon="2.661022">
<ele>846.8</ele>
<time>2013-05-08T13:42:44.999Z</time>
</trkpt>
<trkpt lat="44.1306" lon="2.661254">
<ele>846.1</ele>
<time>2013-05-08T13:42:45.999Z</time>
</trkpt>
<trkpt lat="44.130547" lon="2.661522">
<ele>845.5</ele>
<time>2013-05-08T13:42:46.999Z</time>
</trkpt>
<trkpt lat="44.130497" lon="2.661784">
<ele>844.8</ele>
<time>2013-05-08T13:42:47.999Z</time>
</trkpt>
<trkpt lat="44.13046" lon="2.662068">
<ele>844.1</ele>
<time>2013-05-08T13:42:48.999Z</time>
</trkpt>
<trkpt lat="44.130432" lon="2.662344">
<ele>843.4</ele>
<time>2013-05-08T13:42:49.999Z</time>
</trkpt>
<trkpt lat="44.130391" lon="2.662617">
<ele>842.7</ele>
<time>2013-05-08T13:42:50.999Z</time>
</trkpt>
<trkpt lat="44.130336" lon="2.662877">
<ele>842.7</ele>
<time>2013-05-08T13:42:51.999Z</time>
</trkpt>
<trkpt lat="44.13027" lon="2.663123">
<ele>842.7</ele>
<time>2013-05-08T13:42:52.999Z</time>
</trkpt>
<trkpt lat="44.130197" lon="2.663373">
<ele>842.7</ele>
<time>2013-05-08T13:42:53.999Z</time>
</trkpt>
<trkpt lat="44.1301" lon="2.663558">
<ele>842.6</ele>
<time>2013-05-08T13:42:54.999Z</time>
</trkpt>
<trkpt lat="44.129997" lon="2.663755">
<ele>842.7</ele>
<time>2013-05-08T13:42:55.999Z</time>
</trkpt>
<trkpt lat="44.129864" lon="2.663968">
<ele>842.5</ele>
<time>2013-05-08T13:42:56.999Z</time>
</trkpt>
<trkpt lat="44.129722" lon="2.664196">
<ele>842.4</ele>
<time>2013-05-08T13:42:57.999Z</time>
</trkpt>
<trkpt lat="44.129562" lon="2.664391">
<ele>842.5</ele>
<time>2013-05-08T13:42:58.999Z</time>
</trkpt>
<trkpt lat="44.129387" lon="2.664595">
<ele>842.2</ele>
<time>2013-05-08T13:42:59.999Z</time>
</trkpt>
<trkpt lat="44.129217" lon="2.6648">
<ele>841.2</ele>
<time>2013-05-08T13:43:00.999Z</time>
</trkpt>
<trkpt lat="44.129042" lon="2.665011">
<ele>840.2</ele>
<time>2013-05-08T13:43:01.999Z</time>
</trkpt>
<trkpt lat="44.128866" lon="2.665215">
<ele>839.3</ele>
<time>2013-05-08T13:43:02.999Z</time>
</trkpt>
<trkpt lat="44.128705" lon="2.665382">
<ele>838.9</ele>
<time>2013-05-08T13:43:03.999Z</time>
</trkpt>
<trkpt lat="44.128543" lon="2.66551">
<ele>838.4</ele>
<time>2013-05-08T13:43:04.999Z</time>
</trkpt>
<trkpt lat="44.128368" lon="2.665581">
<ele>837.8</ele>
<time>2013-05-08T13:43:05.999Z</time>
</trkpt>
<trkpt lat="44.128199" lon="2.665601">
<ele>837.3</ele>
<time>2013-05-08T13:43:06.999Z</time>
</trkpt>
<trkpt lat="44.128033" lon="2.665599">
<ele>836.7</ele>
<time>2013-05-08T13:43:07.999Z</time>
</trkpt>
<trkpt lat="44.127876" lon="2.665514">
<ele>836.3</ele>
<time>2013-05-08T13:43:08.999Z</time>
</trkpt>
<trkpt lat="44.127714" lon="2.665409">
<ele>835.9</ele>
<time>2013-05-08T13:43:09.999Z</time>
</trkpt>
<trkpt lat="44.12755" lon="2.665289">
<ele>835.4</ele>
<time>2013-05-08T13:43:10.999Z</time>
</trkpt>
<trkpt lat="44.127383" lon="2.665156">
<ele>834.9</ele>
<time>2013-05-08T13:43:11.999Z</time>
</trkpt>
<trkpt lat="44.127224" lon="2.665026">
<ele>834.3</ele>
<time>2013-05-08T13:43:12.999Z</time>
</trkpt>
<trkpt lat="44.127063" lon="2.664959">
<ele>833.8</ele>
<time>2013-05-08T13:43:13.999Z</time>
</trkpt>
<trkpt lat="44.1269" lon="2.664916">
<ele>833.1</ele>
<time>2013-05-08T13:43:14.999Z</time>
</trkpt>
<trkpt lat="44.126741" lon="2.664944">
<ele>832.5</ele>
<time>2013-05-08T13:43:15.999Z</time>
</trkpt>
<trkpt lat="44.12659" lon="2.665021">
<ele>832.1</ele>
<time>2013-05-08T13:43:16.999Z</time>
</trkpt>
<trkpt lat="44.126459" lon="2.665145">
<ele>831.9</ele>
<time>2013-05-08T13:43:17.999Z</time>
</trkpt>
<trkpt lat="44.126334" lon="2.665267">
<ele>831.9</ele>
<time>2013-05-08T13:43:18.999Z</time>
</trkpt>
<trkpt lat="44.126266" lon="2.665477">
<ele>831.6</ele>
<time>2013-05-08T13:43:19.999Z</time>
</trkpt>
<trkpt lat="44.126203" lon="2.665717">
<ele>831.1</ele>
<time>2013-05-08T13:43:20.999Z</time>
</trkpt>
<trkpt lat="44.126144" lon="2.665964">
<ele>830.4</ele>
<time>2013-05-08T13:43:21.999Z</time>
</trkpt>
<trkpt lat="44.126084" lon="2.666214">
<ele>830.3</ele>
<time>2013-05-08T13:43:22.999Z</time>
</trkpt>
<trkpt lat="44.126036" lon="2.666468">
<ele>830.8</ele>
<time>2013-05-08T13:43:23.999Z</time>
</trkpt>
<trkpt lat="44.12599" lon="2.666686">
<ele>830.2</ele>
<time>2013-05-08T13:43:24.999Z</time>
</trkpt>
<trkpt lat="44.12594" lon="2.666913">
<ele>830.1</ele>
<time>2013-05-08T13:43:25.999Z</time>
</trkpt>
<trkpt lat="44.125844" lon="2.667116">
<ele>830.3</ele>
<time>2013-05-08T13:43:26.999Z</time>
</trkpt>
<trkpt lat="44.125741" lon="2.66731">
<ele>830.5</ele>
<time>2013-05-08T13:43:27.999Z</time>
</trkpt>
<trkpt lat="44.125629" lon="2.6675">
<ele>830.3</ele>
<time>2013-05-08T13:43:28.999Z</time>
</trkpt>
<trkpt lat="44.125517" lon="2.667696">
<ele>829.7</ele>
<time>2013-05-08T13:43:29.999Z</time>
</trkpt>
<trkpt lat="44.12541" lon="2.667905">
<ele>829.3</ele>
<time>2013-05-08T13:43:30.999Z</time>
</trkpt>
<trkpt lat="44.125327" lon="2.668149">
<ele>829.3</ele>
<time>2013-05-08T13:43:31.999Z</time>
</trkpt>
<trkpt lat="44.125285" lon="2.668418">
<ele>828.9</ele>
<time>2013-05-08T13:43:32.999Z</time>
</trkpt>
<trkpt lat="44.125252" lon="2.668682">
<ele>828.5</ele>
<time>2013-05-08T13:43:33.999Z</time>
</trkpt>
<trkpt lat="44.12524" lon="2.668938">
<ele>827.9</ele>
<time>2013-05-08T13:43:34.999Z</time>
</trkpt>
<trkpt lat="44.125223" lon="2.669191">
<ele>827.3</ele>
<time>2013-05-08T13:43:35.999Z</time>
</trkpt>
<trkpt lat="44.125211" lon="2.669424">
<ele>826.5</ele>
<time>2013-05-08T13:43:36.999Z</time>
</trkpt>
<trkpt lat="44.1252" lon="2.669652">
<ele>825.9</ele>
<time>2013-05-08T13:43:37.999Z</time>
</trkpt>
<trkpt lat="44.125187" lon="2.669856">
<ele>825.6</ele>
<time>2013-05-08T13:43:38.999Z</time>
</trkpt>
<trkpt lat="44.125167" lon="2.670047">
<ele>825.4</ele>
<time>2013-05-08T13:43:39.999Z</time>
</trkpt>
<trkpt lat="44.125121" lon="2.670215">
<ele>825.2</ele>
<time>2013-05-08T13:43:40.999Z</time>
</trkpt>
<trkpt lat="44.125075" lon="2.670363">
<ele>825</ele>
<time>2013-05-08T13:43:41.999Z</time>
</trkpt>
<trkpt lat="44.125012" lon="2.670483">
<ele>824.8</ele>
<time>2013-05-08T13:43:42.999Z</time>
</trkpt>
<trkpt lat="44.124948" lon="2.670603">
<ele>824.7</ele>
<time>2013-05-08T13:43:43.999Z</time>
</trkpt>
<trkpt lat="44.124874" lon="2.670656">
<ele>824.8</ele>
<time>2013-05-08T13:43:44.999Z</time>
</trkpt>
<trkpt lat="44.124791" lon="2.670672">
<ele>824.9</ele>
<time>2013-05-08T13:43:45.999Z</time>
</trkpt>
<trkpt lat="44.124705" lon="2.670684">
<ele>825.1</ele>
<time>2013-05-08T13:43:46.999Z</time>
</trkpt>
<trkpt lat="44.124609" lon="2.670658">
<ele>825.1</ele>
<time>2013-05-08T13:43:47.999Z</time>
</trkpt>
<trkpt lat="44.124507" lon="2.670624">
<ele>824.3</ele>
<time>2013-05-08T13:43:48.999Z</time>
</trkpt>
<trkpt lat="44.124395" lon="2.670582">
<ele>823.5</ele>
<time>2013-05-08T13:43:49.999Z</time>
</trkpt>
<trkpt lat="44.124279" lon="2.670536">
<ele>822.9</ele>
<time>2013-05-08T13:43:50.999Z</time>
</trkpt>
<trkpt lat="44.124161" lon="2.670484">
<ele>821.9</ele>
<time>2013-05-08T13:43:51.999Z</time>
</trkpt>
<trkpt lat="44.124026" lon="2.670425">
<ele>820.9</ele>
<time>2013-05-08T13:43:52.999Z</time>
</trkpt>
<trkpt lat="44.123896" lon="2.670378">
<ele>819.8</ele>
<time>2013-05-08T13:43:53.999Z</time>
</trkpt>
<trkpt lat="44.123769" lon="2.670409">
<ele>818.5</ele>
<time>2013-05-08T13:43:54.999Z</time>
</trkpt>
<trkpt lat="44.123633" lon="2.670461">
<ele>817.4</ele>
<time>2013-05-08T13:43:55.999Z</time>
</trkpt>
<trkpt lat="44.12349" lon="2.670544">
<ele>816.3</ele>
<time>2013-05-08T13:43:56.999Z</time>
</trkpt>
<trkpt lat="44.123358" lon="2.670681">
<ele>815</ele>
<time>2013-05-08T13:43:57.999Z</time>
</trkpt>
<trkpt lat="44.123228" lon="2.67084">
<ele>813.6</ele>
<time>2013-05-08T13:43:58.999Z</time>
</trkpt>
<trkpt lat="44.123102" lon="2.671002">
<ele>812.2</ele>
<time>2013-05-08T13:43:59.999Z</time>
</trkpt>
<trkpt lat="44.122986" lon="2.671172">
<ele>810.8</ele>
<time>2013-05-08T13:44:00.999Z</time>
</trkpt>
<trkpt lat="44.122869" lon="2.671361">
<ele>809.8</ele>
<time>2013-05-08T13:44:01.999Z</time>
</trkpt>
<trkpt lat="44.122755" lon="2.671564">
<ele>809</ele>
<time>2013-05-08T13:44:02.999Z</time>
</trkpt>
<trkpt lat="44.122649" lon="2.671775">
<ele>808.4</ele>
<time>2013-05-08T13:44:03.999Z</time>
</trkpt>
<trkpt lat="44.122554" lon="2.67197">
<ele>807.7</ele>
<time>2013-05-08T13:44:04.999Z</time>
</trkpt>
<trkpt lat="44.122468" lon="2.672157">
<ele>807.3</ele>
<time>2013-05-08T13:44:05.999Z</time>
</trkpt>
<trkpt lat="44.122375" lon="2.672349">
<ele>807.3</ele>
<time>2013-05-08T13:44:06.999Z</time>
</trkpt>
<trkpt lat="44.122278" lon="2.672532">
<ele>807.4</ele>
<time>2013-05-08T13:44:07.999Z</time>
</trkpt>
<trkpt lat="44.122176" lon="2.6727">
<ele>807.4</ele>
<time>2013-05-08T13:44:08.999Z</time>
</trkpt>
<trkpt lat="44.122065" lon="2.672848">
<ele>807.6</ele>
<time>2013-05-08T13:44:09.999Z</time>
</trkpt>
<trkpt lat="44.12195" lon="2.672983">
<ele>807.7</ele>
<time>2013-05-08T13:44:10.999Z</time>
</trkpt>
<trkpt lat="44.121833" lon="2.673106">
<ele>807.5</ele>
<time>2013-05-08T13:44:11.999Z</time>
</trkpt>
<trkpt lat="44.121743" lon="2.673288">
<ele>807.9</ele>
<time>2013-05-08T13:44:12.999Z</time>
</trkpt>
<trkpt lat="44.121658" lon="2.673494">
<ele>807.9</ele>
<time>2013-05-08T13:44:13.999Z</time>
</trkpt>
<trkpt lat="44.121605" lon="2.673733">
<ele>808</ele>
<time>2013-05-08T13:44:14.999Z</time>
</trkpt>
<trkpt lat="44.121566" lon="2.673979">
<ele>807.7</ele>
<time>2013-05-08T13:44:15.999Z</time>
</trkpt>
<trkpt lat="44.121569" lon="2.674238">
<ele>807</ele>
<time>2013-05-08T13:44:16.999Z</time>
</trkpt>
<trkpt lat="44.121573" lon="2.674499">
<ele>806.7</ele>
<time>2013-05-08T13:44:17.999Z</time>
</trkpt>
<trkpt lat="44.121584" lon="2.674767">
<ele>806</ele>
<time>2013-05-08T13:44:18.999Z</time>
</trkpt>
<trkpt lat="44.1216" lon="2.675031">
<ele>805.3</ele>
<time>2013-05-08T13:44:19.999Z</time>
</trkpt>
<trkpt lat="44.121616" lon="2.675302">
<ele>804.7</ele>
<time>2013-05-08T13:44:20.999Z</time>
</trkpt>
<trkpt lat="44.121627" lon="2.675586">
<ele>804.2</ele>
<time>2013-05-08T13:44:21.999Z</time>
</trkpt>
<trkpt lat="44.121635" lon="2.675874">
<ele>803.5</ele>
<time>2013-05-08T13:44:22.999Z</time>
</trkpt>
<trkpt lat="44.121648" lon="2.676151">
<ele>803</ele>
<time>2013-05-08T13:44:23.999Z</time>
</trkpt>
<trkpt lat="44.12166" lon="2.676439">
<ele>802.5</ele>
<time>2013-05-08T13:44:24.999Z</time>
</trkpt>
<trkpt lat="44.121674" lon="2.676728">
<ele>802</ele>
<time>2013-05-08T13:44:25.999Z</time>
</trkpt>
<trkpt lat="44.121686" lon="2.677028">
<ele>801.4</ele>
<time>2013-05-08T13:44:26.999Z</time>
</trkpt>
<trkpt lat="44.121667" lon="2.677307">
<ele>800.8</ele>
<time>2013-05-08T13:44:27.999Z</time>
</trkpt>
<trkpt lat="44.121611" lon="2.677576">
<ele>800.2</ele>
<time>2013-05-08T13:44:28.999Z</time>
</trkpt>
<trkpt lat="44.12153" lon="2.677834">
<ele>799.6</ele>
<time>2013-05-08T13:44:29.999Z</time>
</trkpt>
<trkpt lat="44.121421" lon="2.678083">
<ele>799</ele>
<time>2013-05-08T13:44:30.999Z</time>
</trkpt>
<trkpt lat="44.121291" lon="2.678309">
<ele>798.5</ele>
<time>2013-05-08T13:44:31.999Z</time>
</trkpt>
<trkpt lat="44.121146" lon="2.678531">
<ele>798.3</ele>
<time>2013-05-08T13:44:32.999Z</time>
</trkpt>
<trkpt lat="44.120994" lon="2.678748">
<ele>798.2</ele>
<time>2013-05-08T13:44:33.999Z</time>
</trkpt>
<trkpt lat="44.120836" lon="2.678963">
<ele>798.2</ele>
<time>2013-05-08T13:44:34.999Z</time>
</trkpt>
<trkpt lat="44.120681" lon="2.67918">
<ele>798</ele>
<time>2013-05-08T13:44:35.999Z</time>
</trkpt>
<trkpt lat="44.12053" lon="2.679391">
<ele>797.8</ele>
<time>2013-05-08T13:44:36.999Z</time>
</trkpt>
<trkpt lat="44.12037" lon="2.679601">
<ele>797.3</ele>
<time>2013-05-08T13:44:37.999Z</time>
</trkpt>
<trkpt lat="44.12021" lon="2.679808">
<ele>796.7</ele>
<time>2013-05-08T13:44:38.999Z</time>
</trkpt>
<trkpt lat="44.120063" lon="2.680028">
<ele>796</ele>
<time>2013-05-08T13:44:39.999Z</time>
</trkpt>
<trkpt lat="44.119928" lon="2.680263">
<ele>795.6</ele>
<time>2013-05-08T13:44:40.999Z</time>
</trkpt>
<trkpt lat="44.119798" lon="2.680513">
<ele>795.4</ele>
<time>2013-05-08T13:44:41.999Z</time>
</trkpt>
<trkpt lat="44.119693" lon="2.680784">
<ele>795.2</ele>
<time>2013-05-08T13:44:42.999Z</time>
</trkpt>
<trkpt lat="44.11961" lon="2.681073">
<ele>794.7</ele>
<time>2013-05-08T13:44:43.999Z</time>
</trkpt>
<trkpt lat="44.119528" lon="2.681374">
<ele>794.2</ele>
<time>2013-05-08T13:44:44.999Z</time>
</trkpt>
<trkpt lat="44.119453" lon="2.681678">
<ele>793.5</ele>
<time>2013-05-08T13:44:45.999Z</time>
</trkpt>
<trkpt lat="44.119374" lon="2.681993">
<ele>792.7</ele>
<time>2013-05-08T13:44:46.999Z</time>
</trkpt>
<trkpt lat="44.119294" lon="2.682303">
<ele>792</ele>
<time>2013-05-08T13:44:47.999Z</time>
</trkpt>
<trkpt lat="44.119216" lon="2.682616">
<ele>791.3</ele>
<time>2013-05-08T13:44:48.999Z</time>
</trkpt>
<trkpt lat="44.11914" lon="2.682918">
<ele>790.8</ele>
<time>2013-05-08T13:44:49.999Z</time>
</trkpt>
<trkpt lat="44.119059" lon="2.683206">
<ele>790.4</ele>
<time>2013-05-08T13:44:50.999Z</time>
</trkpt>
<trkpt lat="44.118969" lon="2.683477">
<ele>790.3</ele>
<time>2013-05-08T13:44:51.999Z</time>
</trkpt>
<trkpt lat="44.118862" lon="2.683736">
<ele>790.3</ele>
<time>2013-05-08T13:44:52.999Z</time>
</trkpt>
<trkpt lat="44.118729" lon="2.683976">
<ele>790.4</ele>
<time>2013-05-08T13:44:53.999Z</time>
</trkpt>
<trkpt lat="44.118569" lon="2.684201">
<ele>790.6</ele>
<time>2013-05-08T13:44:54.999Z</time>
</trkpt>
<trkpt lat="44.118385" lon="2.684409">
<ele>790.5</ele>
<time>2013-05-08T13:44:55.999Z</time>
</trkpt>
<trkpt lat="44.118183" lon="2.684589">
<ele>790.3</ele>
<time>2013-05-08T13:44:56.999Z</time>
</trkpt>
<trkpt lat="44.117976" lon="2.684762">
<ele>790.1</ele>
<time>2013-05-08T13:44:57.999Z</time>
</trkpt>
<trkpt lat="44.11777" lon="2.684931">
<ele>790.2</ele>
<time>2013-05-08T13:44:58.999Z</time>
</trkpt>
<trkpt lat="44.117565" lon="2.6851">
<ele>790.2</ele>
<time>2013-05-08T13:44:59.999Z</time>
</trkpt>
<trkpt lat="44.117353" lon="2.685262">
<ele>790.2</ele>
<time>2013-05-08T13:45:00.999Z</time>
</trkpt>
<trkpt lat="44.117141" lon="2.685425">
<ele>790.2</ele>
<time>2013-05-08T13:45:01.999Z</time>
</trkpt>
<trkpt lat="44.116928" lon="2.685585">
<ele>790.1</ele>
<time>2013-05-08T13:45:02.999Z</time>
</trkpt>
<trkpt lat="44.116711" lon="2.68575">
<ele>790.3</ele>
<time>2013-05-08T13:45:03.999Z</time>
</trkpt>
<trkpt lat="44.116499" lon="2.685912">
<ele>790.4</ele>
<time>2013-05-08T13:45:04.999Z</time>
</trkpt>
<trkpt lat="44.116295" lon="2.686066">
<ele>790.1</ele>
<time>2013-05-08T13:45:05.999Z</time>
</trkpt>
<trkpt lat="44.116092" lon="2.686219">
<ele>789.7</ele>
<time>2013-05-08T13:45:06.999Z</time>
</trkpt>
<trkpt lat="44.115892" lon="2.68637">
<ele>789.2</ele>
<time>2013-05-08T13:45:07.999Z</time>
</trkpt>
<trkpt lat="44.115694" lon="2.686525">
<ele>788.8</ele>
<time>2013-05-08T13:45:08.999Z</time>
</trkpt>
<trkpt lat="44.115498" lon="2.686673">
<ele>788.5</ele>
<time>2013-05-08T13:45:09.999Z</time>
</trkpt>
<trkpt lat="44.115316" lon="2.686816">
<ele>788.3</ele>
<time>2013-05-08T13:45:10.999Z</time>
</trkpt>
<trkpt lat="44.115145" lon="2.686958">
<ele>788.2</ele>
<time>2013-05-08T13:45:11.999Z</time>
</trkpt>
<trkpt lat="44.114975" lon="2.687099">
<ele>788</ele>
<time>2013-05-08T13:45:12.999Z</time>
</trkpt>
<trkpt lat="44.114803" lon="2.687244">
<ele>787.9</ele>
<time>2013-05-08T13:45:13.999Z</time>
</trkpt>
<trkpt lat="44.114624" lon="2.687389">
<ele>787.8</ele>
<time>2013-05-08T13:45:14.999Z</time>
</trkpt>
<trkpt lat="44.114435" lon="2.687542">
<ele>787.6</ele>
<time>2013-05-08T13:45:15.999Z</time>
</trkpt>
<trkpt lat="44.114237" lon="2.687695">
<ele>787.4</ele>
<time>2013-05-08T13:45:16.999Z</time>
</trkpt>
<trkpt lat="44.114022" lon="2.687858">
<ele>787.2</ele>
<time>2013-05-08T13:45:17.999Z</time>
</trkpt>
<trkpt lat="44.11379" lon="2.688042">
<ele>786.9</ele>
<time>2013-05-08T13:45:18.999Z</time>
</trkpt>
<trkpt lat="44.113548" lon="2.688241">
<ele>786.4</ele>
<time>2013-05-08T13:45:19.999Z</time>
</trkpt>
<trkpt lat="44.113302" lon="2.688438">
<ele>786.1</ele>
<time>2013-05-08T13:45:20.999Z</time>
</trkpt>
<trkpt lat="44.113056" lon="2.688641">
<ele>785.9</ele>
<time>2013-05-08T13:45:21.999Z</time>
</trkpt>
<trkpt lat="44.112812" lon="2.688835">
<ele>785.7</ele>
<time>2013-05-08T13:45:22.999Z</time>
</trkpt>
<trkpt lat="44.112574" lon="2.689031">
<ele>785.7</ele>
<time>2013-05-08T13:45:23.999Z</time>
</trkpt>
<trkpt lat="44.112342" lon="2.689216">
<ele>785.7</ele>
<time>2013-05-08T13:45:24.999Z</time>
</trkpt>
<trkpt lat="44.112117" lon="2.689398">
<ele>786</ele>
<time>2013-05-08T13:45:25.999Z</time>
</trkpt>
<trkpt lat="44.111898" lon="2.689576">
<ele>786.1</ele>
<time>2013-05-08T13:45:26.999Z</time>
</trkpt>
<trkpt lat="44.111695" lon="2.689747">
<ele>786.1</ele>
<time>2013-05-08T13:45:27.999Z</time>
</trkpt>
<trkpt lat="44.111494" lon="2.689915">
<ele>786.3</ele>
<time>2013-05-08T13:45:28.999Z</time>
</trkpt>
<trkpt lat="44.111287" lon="2.690054">
<ele>786.6</ele>
<time>2013-05-08T13:45:29.999Z</time>
</trkpt>
<trkpt lat="44.111066" lon="2.690171">
<ele>787.2</ele>
<time>2013-05-08T13:45:30.999Z</time>
</trkpt>
<trkpt lat="44.110838" lon="2.690276">
<ele>787.9</ele>
<time>2013-05-08T13:45:31.999Z</time>
</trkpt>
<trkpt lat="44.1106" lon="2.69035">
<ele>788.5</ele>
<time>2013-05-08T13:45:32.999Z</time>
</trkpt>
<trkpt lat="44.110361" lon="2.690423">
<ele>789</ele>
<time>2013-05-08T13:45:33.999Z</time>
</trkpt>
<trkpt lat="44.110123" lon="2.690489">
<ele>789.2</ele>
<time>2013-05-08T13:45:34.999Z</time>
</trkpt>
<trkpt lat="44.10989" lon="2.690554">
<ele>789.2</ele>
<time>2013-05-08T13:45:35.999Z</time>
</trkpt>
<trkpt lat="44.109661" lon="2.69061">
<ele>789.1</ele>
<time>2013-05-08T13:45:36.999Z</time>
</trkpt>
<trkpt lat="44.109436" lon="2.690671">
<ele>788.9</ele>
<time>2013-05-08T13:45:37.999Z</time>
</trkpt>
<trkpt lat="44.109226" lon="2.690727">
<ele>788.8</ele>
<time>2013-05-08T13:45:38.999Z</time>
</trkpt>
<trkpt lat="44.109017" lon="2.690788">
<ele>788.5</ele>
<time>2013-05-08T13:45:39.999Z</time>
</trkpt>
<trkpt lat="44.108809" lon="2.690835">
<ele>788.3</ele>
<time>2013-05-08T13:45:40.999Z</time>
</trkpt>
<trkpt lat="44.108595" lon="2.690858">
<ele>788.3</ele>
<time>2013-05-08T13:45:41.999Z</time>
</trkpt>
<trkpt lat="44.10838" lon="2.690851">
<ele>788.6</ele>
<time>2013-05-08T13:45:42.999Z</time>
</trkpt>
<trkpt lat="44.108161" lon="2.690826">
<ele>788.9</ele>
<time>2013-05-08T13:45:43.999Z</time>
</trkpt>
<trkpt lat="44.107955" lon="2.690752">
<ele>789.3</ele>
<time>2013-05-08T13:45:44.999Z</time>
</trkpt>
<trkpt lat="44.107763" lon="2.690653">
<ele>789.5</ele>
<time>2013-05-08T13:45:45.999Z</time>
</trkpt>
<trkpt lat="44.107592" lon="2.690531">
<ele>789.6</ele>
<time>2013-05-08T13:45:46.999Z</time>
</trkpt>
<trkpt lat="44.107442" lon="2.690382">
<ele>789.6</ele>
<time>2013-05-08T13:45:47.999Z</time>
</trkpt>
<trkpt lat="44.107303" lon="2.690223">
<ele>789.8</ele>
<time>2013-05-08T13:45:48.999Z</time>
</trkpt>
<trkpt lat="44.107165" lon="2.690053">
<ele>790.2</ele>
<time>2013-05-08T13:45:49.999Z</time>
</trkpt>
<trkpt lat="44.107033" lon="2.689872">
<ele>790.2</ele>
<time>2013-05-08T13:45:50.999Z</time>
</trkpt>
<trkpt lat="44.106906" lon="2.689697">
<ele>790</ele>
<time>2013-05-08T13:45:51.999Z</time>
</trkpt>
<trkpt lat="44.106786" lon="2.689519">
<ele>790</ele>
<time>2013-05-08T13:45:52.999Z</time>
</trkpt>
<trkpt lat="44.106664" lon="2.689335">
<ele>790</ele>
<time>2013-05-08T13:45:53.999Z</time>
</trkpt>
<trkpt lat="44.106543" lon="2.689139">
<ele>790.1</ele>
<time>2013-05-08T13:45:54.999Z</time>
</trkpt>
<trkpt lat="44.10644" lon="2.688929">
<ele>790.1</ele>
<time>2013-05-08T13:45:55.999Z</time>
</trkpt>
<trkpt lat="44.106347" lon="2.688699">
<ele>790.1</ele>
<time>2013-05-08T13:45:56.999Z</time>
</trkpt>
<trkpt lat="44.106266" lon="2.688449">
<ele>790.1</ele>
<time>2013-05-08T13:45:57.999Z</time>
</trkpt>
<trkpt lat="44.106205" lon="2.688173">
<ele>790.1</ele>
<time>2013-05-08T13:45:58.999Z</time>
</trkpt>
<trkpt lat="44.106168" lon="2.687885">
<ele>789.7</ele>
<time>2013-05-08T13:45:59.999Z</time>
</trkpt>
<trkpt lat="44.10615" lon="2.687593">
<ele>789.3</ele>
<time>2013-05-08T13:46:00.999Z</time>
</trkpt>
<trkpt lat="44.106155" lon="2.687301">
<ele>788.6</ele>
<time>2013-05-08T13:46:01.999Z</time>
</trkpt>
<trkpt lat="44.106177" lon="2.687003">
<ele>787.9</ele>
<time>2013-05-08T13:46:02.999Z</time>
</trkpt>
<trkpt lat="44.10621" lon="2.6867">
<ele>787.1</ele>
<time>2013-05-08T13:46:03.999Z</time>
</trkpt>
<trkpt lat="44.106245" lon="2.686405">
<ele>786.7</ele>
<time>2013-05-08T13:46:04.999Z</time>
</trkpt>
<trkpt lat="44.106275" lon="2.686119">
<ele>786.1</ele>
<time>2013-05-08T13:46:05.999Z</time>
</trkpt>
<trkpt lat="44.106297" lon="2.685843">
<ele>785.8</ele>
<time>2013-05-08T13:46:06.999Z</time>
</trkpt>
<trkpt lat="44.10632" lon="2.685572">
<ele>785.5</ele>
<time>2013-05-08T13:46:07.999Z</time>
</trkpt>
<trkpt lat="44.106343" lon="2.685305">
<ele>785.2</ele>
<time>2013-05-08T13:46:08.999Z</time>
</trkpt>
<trkpt lat="44.106367" lon="2.685043">
<ele>784.7</ele>
<time>2013-05-08T13:46:09.999Z</time>
</trkpt>
<trkpt lat="44.106384" lon="2.684803">
<ele>784.1</ele>
<time>2013-05-08T13:46:10.999Z</time>
</trkpt>
<trkpt lat="44.106385" lon="2.684567">
<ele>783.8</ele>
<time>2013-05-08T13:46:11.999Z</time>
</trkpt>
<trkpt lat="44.106378" lon="2.684356">
<ele>783.6</ele>
<time>2013-05-08T13:46:12.999Z</time>
</trkpt>
<trkpt lat="44.106327" lon="2.684152">
<ele>783.5</ele>
<time>2013-05-08T13:46:13.999Z</time>
</trkpt>
<trkpt lat="44.10626" lon="2.683934">
<ele>783.6</ele>
<time>2013-05-08T13:46:14.999Z</time>
</trkpt>
<trkpt lat="44.106178" lon="2.683727">
<ele>783.6</ele>
<time>2013-05-08T13:46:15.999Z</time>
</trkpt>
<trkpt lat="44.106034" lon="2.683577">
<ele>783.7</ele>
<time>2013-05-08T13:46:16.999Z</time>
</trkpt>
<trkpt lat="44.105872" lon="2.683481">
<ele>783.5</ele>
<time>2013-05-08T13:46:17.999Z</time>
</trkpt>
<trkpt lat="44.105704" lon="2.68341">
<ele>783.2</ele>
<time>2013-05-08T13:46:18.999Z</time>
</trkpt>
<trkpt lat="44.105518" lon="2.683399">
<ele>782.8</ele>
<time>2013-05-08T13:46:19.999Z</time>
</trkpt>
<trkpt lat="44.105342" lon="2.683405">
<ele>782.4</ele>
<time>2013-05-08T13:46:20.999Z</time>
</trkpt>
<trkpt lat="44.105169" lon="2.683483">
<ele>782.4</ele>
<time>2013-05-08T13:46:21.999Z</time>
</trkpt>
<trkpt lat="44.105" lon="2.683579">
<ele>782.6</ele>
<time>2013-05-08T13:46:22.999Z</time>
</trkpt>
<trkpt lat="44.104867" lon="2.683734">
<ele>782.7</ele>
<time>2013-05-08T13:46:23.999Z</time>
</trkpt>
<trkpt lat="44.10477" lon="2.683918">
<ele>782.5</ele>
<time>2013-05-08T13:46:24.999Z</time>
</trkpt>
<trkpt lat="44.104675" lon="2.684119">
<ele>782.7</ele>
<time>2013-05-08T13:46:25.999Z</time>
</trkpt>
<trkpt lat="44.104585" lon="2.684341">
<ele>782.7</ele>
<time>2013-05-08T13:46:26.999Z</time>
</trkpt>
<trkpt lat="44.104538" lon="2.68459">
<ele>783.1</ele>
<time>2013-05-08T13:46:27.999Z</time>
</trkpt>
<trkpt lat="44.104505" lon="2.684838">
<ele>783.6</ele>
<time>2013-05-08T13:46:28.999Z</time>
</trkpt>
<trkpt lat="44.10449" lon="2.685076">
<ele>784.4</ele>
<time>2013-05-08T13:46:29.999Z</time>
</trkpt>
<trkpt lat="44.104486" lon="2.685322">
<ele>785</ele>
<time>2013-05-08T13:46:30.999Z</time>
</trkpt>
<trkpt lat="44.104489" lon="2.685591">
<ele>785.8</ele>
<time>2013-05-08T13:46:31.999Z</time>
</trkpt>
<trkpt lat="44.104501" lon="2.685866">
<ele>786.5</ele>
<time>2013-05-08T13:46:32.999Z</time>
</trkpt>
<trkpt lat="44.104517" lon="2.68612">
<ele>787.1</ele>
<time>2013-05-08T13:46:33.999Z</time>
</trkpt>
<trkpt lat="44.104521" lon="2.686382">
<ele>788.1</ele>
<time>2013-05-08T13:46:34.999Z</time>
</trkpt>
<trkpt lat="44.104509" lon="2.686653">
<ele>788.7</ele>
<time>2013-05-08T13:46:35.999Z</time>
</trkpt>
<trkpt lat="44.104498" lon="2.686926">
<ele>788.8</ele>
<time>2013-05-08T13:46:36.999Z</time>
</trkpt>
<trkpt lat="44.104435" lon="2.687208">
<ele>788.4</ele>
<time>2013-05-08T13:46:37.999Z</time>
</trkpt>
<trkpt lat="44.104361" lon="2.687493">
<ele>788.2</ele>
<time>2013-05-08T13:46:38.999Z</time>
</trkpt>
<trkpt lat="44.104273" lon="2.687748">
<ele>788.4</ele>
<time>2013-05-08T13:46:39.999Z</time>
</trkpt>
<trkpt lat="44.104174" lon="2.688012">
<ele>789.1</ele>
<time>2013-05-08T13:46:40.999Z</time>
</trkpt>
<trkpt lat="44.104058" lon="2.688246">
<ele>789.8</ele>
<time>2013-05-08T13:46:41.999Z</time>
</trkpt>
<trkpt lat="44.103918" lon="2.688458">
<ele>790.8</ele>
<time>2013-05-08T13:46:42.999Z</time>
</trkpt>
<trkpt lat="44.103779" lon="2.688661">
<ele>791.2</ele>
<time>2013-05-08T13:46:43.999Z</time>
</trkpt>
<trkpt lat="44.10362" lon="2.688838">
<ele>791.3</ele>
<time>2013-05-08T13:46:44.999Z</time>
</trkpt>
<trkpt lat="44.103446" lon="2.688993">
<ele>791.7</ele>
<time>2013-05-08T13:46:45.999Z</time>
</trkpt>
<trkpt lat="44.10327" lon="2.689128">
<ele>791.8</ele>
<time>2013-05-08T13:46:46.999Z</time>
</trkpt>
<trkpt lat="44.103073" lon="2.689235">
<ele>792.3</ele>
<time>2013-05-08T13:46:47.999Z</time>
</trkpt>
<trkpt lat="44.10288" lon="2.689335">
<ele>792.3</ele>
<time>2013-05-08T13:46:48.999Z</time>
</trkpt>
<trkpt lat="44.102684" lon="2.68946">
<ele>792.4</ele>
<time>2013-05-08T13:46:49.999Z</time>
</trkpt>
<trkpt lat="44.102495" lon="2.689609">
<ele>792.3</ele>
<time>2013-05-08T13:46:50.999Z</time>
</trkpt>
<trkpt lat="44.102299" lon="2.689753">
<ele>792.1</ele>
<time>2013-05-08T13:46:51.999Z</time>
</trkpt>
<trkpt lat="44.102101" lon="2.689897">
<ele>791.4</ele>
<time>2013-05-08T13:46:52.999Z</time>
</trkpt>
<trkpt lat="44.101905" lon="2.690053">
<ele>790.4</ele>
<time>2013-05-08T13:46:53.999Z</time>
</trkpt>
<trkpt lat="44.101709" lon="2.690212">
<ele>789.5</ele>
<time>2013-05-08T13:46:54.999Z</time>
</trkpt>
<trkpt lat="44.101513" lon="2.690378">
<ele>788.5</ele>
<time>2013-05-08T13:46:55.999Z</time>
</trkpt>
<trkpt lat="44.101319" lon="2.690541">
<ele>787.4</ele>
<time>2013-05-08T13:46:56.999Z</time>
</trkpt>
<trkpt lat="44.101133" lon="2.690711">
<ele>785.7</ele>
<time>2013-05-08T13:46:57.999Z</time>
</trkpt>
<trkpt lat="44.100953" lon="2.690881">
<ele>783.9</ele>
<time>2013-05-08T13:46:58.999Z</time>
</trkpt>
<trkpt lat="44.100779" lon="2.69104">
<ele>782.5</ele>
<time>2013-05-08T13:46:59.999Z</time>
</trkpt>
<trkpt lat="44.100598" lon="2.691197">
<ele>781.8</ele>
<time>2013-05-08T13:47:00.999Z</time>
</trkpt>
<trkpt lat="44.100424" lon="2.691354">
<ele>781.5</ele>
<time>2013-05-08T13:47:01.999Z</time>
</trkpt>
<trkpt lat="44.100265" lon="2.691505">
<ele>782</ele>
<time>2013-05-08T13:47:02.999Z</time>
</trkpt>
<trkpt lat="44.100119" lon="2.691641">
<ele>782.5</ele>
<time>2013-05-08T13:47:03.999Z</time>
</trkpt>
<trkpt lat="44.099976" lon="2.691783">
<ele>783.1</ele>
<time>2013-05-08T13:47:04.999Z</time>
</trkpt>
<trkpt lat="44.099836" lon="2.69192">
<ele>783.6</ele>
<time>2013-05-08T13:47:05.999Z</time>
</trkpt>
<trkpt lat="44.099697" lon="2.692054">
<ele>783.9</ele>
<time>2013-05-08T13:47:06.999Z</time>
</trkpt>
<trkpt lat="44.099551" lon="2.692187">
<ele>784.2</ele>
<time>2013-05-08T13:47:07.999Z</time>
</trkpt>
<trkpt lat="44.099403" lon="2.692319">
<ele>784.6</ele>
<time>2013-05-08T13:47:08.999Z</time>
</trkpt>
<trkpt lat="44.099251" lon="2.692458">
<ele>785.2</ele>
<time>2013-05-08T13:47:09.999Z</time>
</trkpt>
<trkpt lat="44.099094" lon="2.692599">
<ele>785.5</ele>
<time>2013-05-08T13:47:10.999Z</time>
</trkpt>
<trkpt lat="44.098937" lon="2.692744">
<ele>786</ele>
<time>2013-05-08T13:47:11.999Z</time>
</trkpt>
<trkpt lat="44.098771" lon="2.692887">
<ele>786.4</ele>
<time>2013-05-08T13:47:12.999Z</time>
</trkpt>
<trkpt lat="44.098591" lon="2.692999">
<ele>787.2</ele>
<time>2013-05-08T13:47:13.999Z</time>
</trkpt>
<trkpt lat="44.098409" lon="2.693073">
<ele>787.8</ele>
<time>2013-05-08T13:47:14.999Z</time>
</trkpt>
<trkpt lat="44.098216" lon="2.693108">
<ele>788.2</ele>
<time>2013-05-08T13:47:15.999Z</time>
</trkpt>
<trkpt lat="44.098021" lon="2.693134">
<ele>788.7</ele>
<time>2013-05-08T13:47:16.999Z</time>
</trkpt>
<trkpt lat="44.09783" lon="2.693156">
<ele>789.3</ele>
<time>2013-05-08T13:47:17.999Z</time>
</trkpt>
<trkpt lat="44.09764" lon="2.693209">
<ele>789.6</ele>
<time>2013-05-08T13:47:18.999Z</time>
</trkpt>
<trkpt lat="44.097459" lon="2.693318">
<ele>789.4</ele>
<time>2013-05-08T13:47:19.999Z</time>
</trkpt>
<trkpt lat="44.097289" lon="2.69347">
<ele>789.4</ele>
<time>2013-05-08T13:47:20.999Z</time>
</trkpt>
<trkpt lat="44.097132" lon="2.693653">
<ele>789.6</ele>
<time>2013-05-08T13:47:21.999Z</time>
</trkpt>
<trkpt lat="44.096988" lon="2.693859">
<ele>789.8</ele>
<time>2013-05-08T13:47:22.999Z</time>
</trkpt>
<trkpt lat="44.096851" lon="2.69406">
<ele>789.8</ele>
<time>2013-05-08T13:47:23.999Z</time>
</trkpt>
<trkpt lat="44.096712" lon="2.694229">
<ele>789.8</ele>
<time>2013-05-08T13:47:24.999Z</time>
</trkpt>
<trkpt lat="44.096562" lon="2.694375">
<ele>789.8</ele>
<time>2013-05-08T13:47:25.999Z</time>
</trkpt>
<trkpt lat="44.096406" lon="2.694498">
<ele>789.8</ele>
<time>2013-05-08T13:47:26.999Z</time>
</trkpt>
<trkpt lat="44.096247" lon="2.694589">
<ele>789.7</ele>
<time>2013-05-08T13:47:27.999Z</time>
</trkpt>
<trkpt lat="44.096085" lon="2.694653">
<ele>789.7</ele>
<time>2013-05-08T13:47:28.999Z</time>
</trkpt>
<trkpt lat="44.095923" lon="2.694708">
<ele>789.6</ele>
<time>2013-05-08T13:47:29.999Z</time>
</trkpt>
<trkpt lat="44.095752" lon="2.69476">
<ele>789.5</ele>
<time>2013-05-08T13:47:31.000Z</time>
</trkpt>
<trkpt lat="44.095589" lon="2.694808">
<ele>789.5</ele>
<time>2013-05-08T13:47:32.000Z</time>
</trkpt>
<trkpt lat="44.095433" lon="2.694917">
<ele>789.4</ele>
<time>2013-05-08T13:47:33.000Z</time>
</trkpt>
<trkpt lat="44.09528" lon="2.695034">
<ele>788.8</ele>
<time>2013-05-08T13:47:34.000Z</time>
</trkpt>
<trkpt lat="44.095144" lon="2.695155">
<ele>788</ele>
<time>2013-05-08T13:47:35.000Z</time>
</trkpt>
<trkpt lat="44.095019" lon="2.69531">
<ele>787.4</ele>
<time>2013-05-08T13:47:36.000Z</time>
</trkpt>
<trkpt lat="44.094971" lon="2.695565">
<ele>786.6</ele>
<time>2013-05-08T13:47:37.000Z</time>
</trkpt>
<trkpt lat="44.094924" lon="2.695822">
<ele>785.5</ele>
<time>2013-05-08T13:47:38.000Z</time>
</trkpt>
<trkpt lat="44.094873" lon="2.696079">
<ele>784.3</ele>
<time>2013-05-08T13:47:39.000Z</time>
</trkpt>
<trkpt lat="44.094829" lon="2.696323">
<ele>783.5</ele>
<time>2013-05-08T13:47:40.000Z</time>
</trkpt>
<trkpt lat="44.094791" lon="2.696541">
<ele>782.9</ele>
<time>2013-05-08T13:47:41.000Z</time>
</trkpt>
<trkpt lat="44.094726" lon="2.696725">
<ele>782.6</ele>
<time>2013-05-08T13:47:42.000Z</time>
</trkpt>
<trkpt lat="44.09465" lon="2.696897">
<ele>782.5</ele>
<time>2013-05-08T13:47:43.000Z</time>
</trkpt>
<trkpt lat="44.094551" lon="2.697038">
<ele>782.4</ele>
<time>2013-05-08T13:47:44.000Z</time>
</trkpt>
<trkpt lat="44.094446" lon="2.697167">
<ele>782.2</ele>
<time>2013-05-08T13:47:45.000Z</time>
</trkpt>
<trkpt lat="44.094313" lon="2.697252">
<ele>782</ele>
<time>2013-05-08T13:47:46.000Z</time>
</trkpt>
<trkpt lat="44.094172" lon="2.697339">
<ele>781.7</ele>
<time>2013-05-08T13:47:47.000Z</time>
</trkpt>
<trkpt lat="44.094035" lon="2.697415">
<ele>781.5</ele>
<time>2013-05-08T13:47:48.000Z</time>
</trkpt>
<trkpt lat="44.093896" lon="2.697478">
<ele>781.5</ele>
<time>2013-05-08T13:47:49.000Z</time>
</trkpt>
<trkpt lat="44.093753" lon="2.697542">
<ele>781.8</ele>
<time>2013-05-08T13:47:50.000Z</time>
</trkpt>
<trkpt lat="44.093604" lon="2.697607">
<ele>782.1</ele>
<time>2013-05-08T13:47:51.000Z</time>
</trkpt>
<trkpt lat="44.093459" lon="2.697672">
<ele>782.1</ele>
<time>2013-05-08T13:47:52.000Z</time>
</trkpt>
<trkpt lat="44.093311" lon="2.69775">
<ele>781.9</ele>
<time>2013-05-08T13:47:53.000Z</time>
</trkpt>
<trkpt lat="44.093167" lon="2.697834">
<ele>781.8</ele>
<time>2013-05-08T13:47:54.000Z</time>
</trkpt>
<trkpt lat="44.093029" lon="2.69793">
<ele>782.5</ele>
<time>2013-05-08T13:47:55.000Z</time>
</trkpt>
<trkpt lat="44.092893" lon="2.698043">
<ele>783.5</ele>
<time>2013-05-08T13:47:56.000Z</time>
</trkpt>
<trkpt lat="44.092761" lon="2.698164">
<ele>784.5</ele>
<time>2013-05-08T13:47:57.000Z</time>
</trkpt>
<trkpt lat="44.092635" lon="2.698284">
<ele>785.4</ele>
<time>2013-05-08T13:47:58.000Z</time>
</trkpt>
<trkpt lat="44.092511" lon="2.698409">
<ele>786.1</ele>
<time>2013-05-08T13:47:59.000Z</time>
</trkpt>
<trkpt lat="44.092389" lon="2.698531">
<ele>786.5</ele>
<time>2013-05-08T13:48:00.000Z</time>
</trkpt>
<trkpt lat="44.092267" lon="2.698663">
<ele>786.9</ele>
<time>2013-05-08T13:48:01.000Z</time>
</trkpt>
<trkpt lat="44.09215" lon="2.698792">
<ele>787.3</ele>
<time>2013-05-08T13:48:02.000Z</time>
</trkpt>
<trkpt lat="44.092028" lon="2.698922">
<ele>787.2</ele>
<time>2013-05-08T13:48:03.000Z</time>
</trkpt>
<trkpt lat="44.091913" lon="2.699051">
<ele>786.9</ele>
<time>2013-05-08T13:48:04.000Z</time>
</trkpt>
<trkpt lat="44.091798" lon="2.699185">
<ele>786.5</ele>
<time>2013-05-08T13:48:05.000Z</time>
</trkpt>
<trkpt lat="44.09168" lon="2.699313">
<ele>786.3</ele>
<time>2013-05-08T13:48:06.000Z</time>
</trkpt>
<trkpt lat="44.091561" lon="2.699442">
<ele>786.1</ele>
<time>2013-05-08T13:48:07.000Z</time>
</trkpt>
<trkpt lat="44.09144" lon="2.699573">
<ele>786</ele>
<time>2013-05-08T13:48:08.000Z</time>
</trkpt>
<trkpt lat="44.091324" lon="2.699696">
<ele>786</ele>
<time>2013-05-08T13:48:09.000Z</time>
</trkpt>
<trkpt lat="44.091217" lon="2.69981">
<ele>785.9</ele>
<time>2013-05-08T13:48:10.000Z</time>
</trkpt>
<trkpt lat="44.091108" lon="2.699927">
<ele>785.8</ele>
<time>2013-05-08T13:48:11.000Z</time>
</trkpt>
<trkpt lat="44.091" lon="2.700044">
<ele>785.5</ele>
<time>2013-05-08T13:48:12.000Z</time>
</trkpt>
<trkpt lat="44.090896" lon="2.700162">
<ele>785.1</ele>
<time>2013-05-08T13:48:13.000Z</time>
</trkpt>
<trkpt lat="44.090793" lon="2.700279">
<ele>784.7</ele>
<time>2013-05-08T13:48:14.000Z</time>
</trkpt>
<trkpt lat="44.090694" lon="2.700398">
<ele>784.3</ele>
<time>2013-05-08T13:48:15.000Z</time>
</trkpt>
<trkpt lat="44.090615" lon="2.700513">
<ele>784</ele>
<time>2013-05-08T13:48:16.000Z</time>
</trkpt>
<trkpt lat="44.090546" lon="2.700613">
<ele>782.9</ele>
<time>2013-05-08T13:48:17.000Z</time>
</trkpt>
<trkpt lat="44.090479" lon="2.70072">
<ele>781.8</ele>
<time>2013-05-08T13:48:18.000Z</time>
</trkpt>
<trkpt lat="44.090413" lon="2.700831">
<ele>781.2</ele>
<time>2013-05-08T13:48:19.000Z</time>
</trkpt>
<trkpt lat="44.090348" lon="2.700939">
<ele>780.6</ele>
<time>2013-05-08T13:48:20.000Z</time>
</trkpt>
<trkpt lat="44.090284" lon="2.701044">
<ele>780</ele>
<time>2013-05-08T13:48:21.000Z</time>
</trkpt>
<trkpt lat="44.090225" lon="2.701147">
<ele>779.5</ele>
<time>2013-05-08T13:48:22.000Z</time>
</trkpt>
<trkpt lat="44.090167" lon="2.701245">
<ele>779.2</ele>
<time>2013-05-08T13:48:23.000Z</time>
</trkpt>
<trkpt lat="44.09011" lon="2.701338">
<ele>778.8</ele>
<time>2013-05-08T13:48:24.000Z</time>
</trkpt>
<trkpt lat="44.09005" lon="2.70144">
<ele>778.5</ele>
<time>2013-05-08T13:48:25.000Z</time>
</trkpt>
<trkpt lat="44.089988" lon="2.701544">
<ele>778.3</ele>
<time>2013-05-08T13:48:26.000Z</time>
</trkpt>
<trkpt lat="44.089923" lon="2.701653">
<ele>777.8</ele>
<time>2013-05-08T13:48:27.000Z</time>
</trkpt>
<trkpt lat="44.089854" lon="2.701769">
<ele>777.3</ele>
<time>2013-05-08T13:48:28.000Z</time>
</trkpt>
<trkpt lat="44.089777" lon="2.701895">
<ele>776.9</ele>
<time>2013-05-08T13:48:29.000Z</time>
</trkpt>
<trkpt lat="44.089702" lon="2.702018">
<ele>776.2</ele>
<time>2013-05-08T13:48:30.000Z</time>
</trkpt>
<trkpt lat="44.089626" lon="2.702148">
<ele>775.8</ele>
<time>2013-05-08T13:48:31.000Z</time>
</trkpt>
<trkpt lat="44.089546" lon="2.702295">
<ele>775.5</ele>
<time>2013-05-08T13:48:32.000Z</time>
</trkpt>
<trkpt lat="44.08945" lon="2.70245">
<ele>775.1</ele>
<time>2013-05-08T13:48:33.000Z</time>
</trkpt>
<trkpt lat="44.089358" lon="2.702594">
<ele>774.9</ele>
<time>2013-05-08T13:48:34.000Z</time>
</trkpt>
<trkpt lat="44.089251" lon="2.702731">
<ele>774.5</ele>
<time>2013-05-08T13:48:35.000Z</time>
</trkpt>
<trkpt lat="44.089094" lon="2.702796">
<ele>773.8</ele>
<time>2013-05-08T13:48:36.000Z</time>
</trkpt>
<trkpt lat="44.088937" lon="2.70286">
<ele>773.1</ele>
<time>2013-05-08T13:48:37.000Z</time>
</trkpt>
<trkpt lat="44.088791" lon="2.702926">
<ele>772.3</ele>
<time>2013-05-08T13:48:38.000Z</time>
</trkpt>
<trkpt lat="44.08866" lon="2.702985">
<ele>771.5</ele>
<time>2013-05-08T13:48:39.000Z</time>
</trkpt>
<trkpt lat="44.088531" lon="2.703034">
<ele>771</ele>
<time>2013-05-08T13:48:40.000Z</time>
</trkpt>
<trkpt lat="44.088405" lon="2.70308">
<ele>770.6</ele>
<time>2013-05-08T13:48:41.000Z</time>
</trkpt>
<trkpt lat="44.088276" lon="2.703134">
<ele>770.3</ele>
<time>2013-05-08T13:48:42.000Z</time>
</trkpt>
<trkpt lat="44.08815" lon="2.703197">
<ele>769.7</ele>
<time>2013-05-08T13:48:43.000Z</time>
</trkpt>
<trkpt lat="44.088036" lon="2.703279">
<ele>768.6</ele>
<time>2013-05-08T13:48:44.000Z</time>
</trkpt>
<trkpt lat="44.08793" lon="2.703369">
<ele>767.6</ele>
<time>2013-05-08T13:48:45.000Z</time>
</trkpt>
<trkpt lat="44.087841" lon="2.703453">
<ele>766.8</ele>
<time>2013-05-08T13:48:46.000Z</time>
</trkpt>
<trkpt lat="44.087773" lon="2.703524">
<ele>766.1</ele>
<time>2013-05-08T13:48:47.000Z</time>
</trkpt>
<trkpt lat="44.087725" lon="2.703574">
<ele>765.6</ele>
<time>2013-05-08T13:48:48.000Z</time>
</trkpt>
<trkpt lat="44.087692" lon="2.703613">
<ele>765</ele>
<time>2013-05-08T13:48:49.000Z</time>
</trkpt>
<trkpt lat="44.087666" lon="2.703642">
<ele>765</ele>
<time>2013-05-08T13:48:50.000Z</time>
</trkpt>
<trkpt lat="44.087647" lon="2.703675">
<ele>764.9</ele>
<time>2013-05-08T13:48:51.000Z</time>
</trkpt>
<trkpt lat="44.087637" lon="2.703724">
<ele>764.2</ele>
<time>2013-05-08T13:48:52.000Z</time>
</trkpt>
<trkpt lat="44.087625" lon="2.703803">
<ele>764.7</ele>
<time>2013-05-08T13:48:53.000Z</time>
</trkpt>
<trkpt lat="44.087651" lon="2.703877">
<ele>765.6</ele>
<time>2013-05-08T13:48:54.000Z</time>
</trkpt>
<trkpt lat="44.087683" lon="2.70396">
<ele>766</ele>
<time>2013-05-08T13:48:55.000Z</time>
</trkpt>
<trkpt lat="44.087741" lon="2.704062">
<ele>766.3</ele>
<time>2013-05-08T13:48:56.000Z</time>
</trkpt>
<trkpt lat="44.087795" lon="2.704166">
<ele>766.6</ele>
<time>2013-05-08T13:48:57.000Z</time>
</trkpt>
<trkpt lat="44.087838" lon="2.704256">
<ele>766.8</ele>
<time>2013-05-08T13:48:58.000Z</time>
</trkpt>
<trkpt lat="44.087856" lon="2.70435">
<ele>767.1</ele>
<time>2013-05-08T13:48:59.000Z</time>
</trkpt>
<trkpt lat="44.087815" lon="2.704435">
<ele>767.5</ele>
<time>2013-05-08T13:49:00.000Z</time>
</trkpt>
<trkpt lat="44.087743" lon="2.704485">
<ele>767.9</ele>
<time>2013-05-08T13:49:01.000Z</time>
</trkpt>
<trkpt lat="44.087668" lon="2.704543">
<ele>768.4</ele>
<time>2013-05-08T13:49:02.000Z</time>
</trkpt>
<trkpt lat="44.087574" lon="2.704593">
<ele>768.5</ele>
<time>2013-05-08T13:49:03.000Z</time>
</trkpt>
<trkpt lat="44.087476" lon="2.70464">
<ele>768.5</ele>
<time>2013-05-08T13:49:04.000Z</time>
</trkpt>
<trkpt lat="44.087363" lon="2.704693">
<ele>768.5</ele>
<time>2013-05-08T13:49:05.000Z</time>
</trkpt>
<trkpt lat="44.087249" lon="2.704749">
<ele>769</ele>
<time>2013-05-08T13:49:06.000Z</time>
</trkpt>
<trkpt lat="44.087136" lon="2.704793">
<ele>768.9</ele>
<time>2013-05-08T13:49:07.000Z</time>
</trkpt>
<trkpt lat="44.08702" lon="2.704789">
<ele>768.7</ele>
<time>2013-05-08T13:49:08.000Z</time>
</trkpt>
<trkpt lat="44.086904" lon="2.70479">
<ele>768.4</ele>
<time>2013-05-08T13:49:09.000Z</time>
</trkpt>
<trkpt lat="44.086794" lon="2.704824">
<ele>768.3</ele>
<time>2013-05-08T13:49:10.000Z</time>
</trkpt>
<trkpt lat="44.086693" lon="2.704868">
<ele>767.8</ele>
<time>2013-05-08T13:49:11.000Z</time>
</trkpt>
<trkpt lat="44.086591" lon="2.704905">
<ele>767.4</ele>
<time>2013-05-08T13:49:12.000Z</time>
</trkpt>
<trkpt lat="44.086481" lon="2.704935">
<ele>766.8</ele>
<time>2013-05-08T13:49:13.000Z</time>
</trkpt>
<trkpt lat="44.086365" lon="2.704943">
<ele>766.3</ele>
<time>2013-05-08T13:49:14.000Z</time>
</trkpt>
<trkpt lat="44.086224" lon="2.704948">
<ele>765.9</ele>
<time>2013-05-08T13:49:15.000Z</time>
</trkpt>
<trkpt lat="44.086074" lon="2.704954">
<ele>766</ele>
<time>2013-05-08T13:49:16.000Z</time>
</trkpt>
<trkpt lat="44.08593" lon="2.704956">
<ele>766.4</ele>
<time>2013-05-08T13:49:17.000Z</time>
</trkpt>
<trkpt lat="44.08578" lon="2.704954">
<ele>767.1</ele>
<time>2013-05-08T13:49:18.000Z</time>
</trkpt>
<trkpt lat="44.085626" lon="2.70495">
<ele>767.6</ele>
<time>2013-05-08T13:49:19.000Z</time>
</trkpt>
<trkpt lat="44.085472" lon="2.704945">
<ele>768</ele>
<time>2013-05-08T13:49:20.000Z</time>
</trkpt>
<trkpt lat="44.085318" lon="2.70494">
<ele>768.2</ele>
<time>2013-05-08T13:49:21.000Z</time>
</trkpt>
<trkpt lat="44.08516" lon="2.704933">
<ele>768.4</ele>
<time>2013-05-08T13:49:22.000Z</time>
</trkpt>
<trkpt lat="44.085008" lon="2.704921">
<ele>768.5</ele>
<time>2013-05-08T13:49:23.000Z</time>
</trkpt>
<trkpt lat="44.08486" lon="2.704909">
<ele>768.9</ele>
<time>2013-05-08T13:49:24.000Z</time>
</trkpt>
<trkpt lat="44.084715" lon="2.704903">
<ele>769.6</ele>
<time>2013-05-08T13:49:25.000Z</time>
</trkpt>
<trkpt lat="44.084568" lon="2.7049">
<ele>770.4</ele>
<time>2013-05-08T13:49:26.000Z</time>
</trkpt>
<trkpt lat="44.084427" lon="2.704897">
<ele>771.4</ele>
<time>2013-05-08T13:49:27.000Z</time>
</trkpt>
<trkpt lat="44.084285" lon="2.704896">
<ele>772.2</ele>
<time>2013-05-08T13:49:28.000Z</time>
</trkpt>
<trkpt lat="44.084138" lon="2.7049">
<ele>773.3</ele>
<time>2013-05-08T13:49:29.000Z</time>
</trkpt>
<trkpt lat="44.084004" lon="2.704922">
<ele>774.3</ele>
<time>2013-05-08T13:49:30.000Z</time>
</trkpt>
<trkpt lat="44.083872" lon="2.704999">
<ele>775.6</ele>
<time>2013-05-08T13:49:31.000Z</time>
</trkpt>
<trkpt lat="44.083737" lon="2.705084">
<ele>777.1</ele>
<time>2013-05-08T13:49:32.000Z</time>
</trkpt>
<trkpt lat="44.083596" lon="2.705167">
<ele>778.1</ele>
<time>2013-05-08T13:49:33.000Z</time>
</trkpt>
<trkpt lat="44.083462" lon="2.705204">
<ele>779.3</ele>
<time>2013-05-08T13:49:34.000Z</time>
</trkpt>
<trkpt lat="44.083325" lon="2.705231">
<ele>780.4</ele>
<time>2013-05-08T13:49:35.000Z</time>
</trkpt>
<trkpt lat="44.083174" lon="2.705172">
<ele>781.4</ele>
<time>2013-05-08T13:49:36.000Z</time>
</trkpt>
<trkpt lat="44.083023" lon="2.705089">
<ele>782.5</ele>
<time>2013-05-08T13:49:37.000Z</time>
</trkpt>
<trkpt lat="44.082875" lon="2.704963">
<ele>783</ele>
<time>2013-05-08T13:49:38.000Z</time>
</trkpt>
<trkpt lat="44.082733" lon="2.704821">
<ele>783.2</ele>
<time>2013-05-08T13:49:39.000Z</time>
</trkpt>
<trkpt lat="44.0826" lon="2.704663">
<ele>783.5</ele>
<time>2013-05-08T13:49:40.000Z</time>
</trkpt>
<trkpt lat="44.082479" lon="2.704502">
<ele>784.4</ele>
<time>2013-05-08T13:49:41.000Z</time>
</trkpt>
<trkpt lat="44.082369" lon="2.704328">
<ele>785.7</ele>
<time>2013-05-08T13:49:42.000Z</time>
</trkpt>
<trkpt lat="44.082247" lon="2.704204">
<ele>786.2</ele>
<time>2013-05-08T13:49:43.000Z</time>
</trkpt>
<trkpt lat="44.082104" lon="2.704118">
<ele>785.8</ele>
<time>2013-05-08T13:49:44.000Z</time>
</trkpt>
<trkpt lat="44.081936" lon="2.70412">
<ele>785.7</ele>
<time>2013-05-08T13:49:45.000Z</time>
</trkpt>
<trkpt lat="44.081762" lon="2.704129">
<ele>786</ele>
<time>2013-05-08T13:49:46.000Z</time>
</trkpt>
<trkpt lat="44.081586" lon="2.704125">
<ele>786.4</ele>
<time>2013-05-08T13:49:47.000Z</time>
</trkpt>
<trkpt lat="44.081408" lon="2.704104">
<ele>787</ele>
<time>2013-05-08T13:49:48.000Z</time>
</trkpt>
<trkpt lat="44.081231" lon="2.70407">
<ele>787.8</ele>
<time>2013-05-08T13:49:49.000Z</time>
</trkpt>
<trkpt lat="44.081059" lon="2.70403">
<ele>788.6</ele>
<time>2013-05-08T13:49:50.000Z</time>
</trkpt>
<trkpt lat="44.080894" lon="2.704011">
<ele>789.7</ele>
<time>2013-05-08T13:49:51.000Z</time>
</trkpt>
<trkpt lat="44.080732" lon="2.704009">
<ele>790.6</ele>
<time>2013-05-08T13:49:52.000Z</time>
</trkpt>
<trkpt lat="44.08058" lon="2.704084">
<ele>792</ele>
<time>2013-05-08T13:49:53.000Z</time>
</trkpt>
<trkpt lat="44.08043" lon="2.704171">
<ele>793.7</ele>
<time>2013-05-08T13:49:54.000Z</time>
</trkpt>
<trkpt lat="44.080282" lon="2.704274">
<ele>795.5</ele>
<time>2013-05-08T13:49:55.000Z</time>
</trkpt>
<trkpt lat="44.080143" lon="2.70439">
<ele>796.9</ele>
<time>2013-05-08T13:49:56.000Z</time>
</trkpt>
<trkpt lat="44.080033" lon="2.704559">
<ele>798.2</ele>
<time>2013-05-08T13:49:57.000Z</time>
</trkpt>
<trkpt lat="44.079918" lon="2.704736">
<ele>799.7</ele>
<time>2013-05-08T13:49:58.000Z</time>
</trkpt>
<trkpt lat="44.079819" lon="2.704901">
<ele>801.1</ele>
<time>2013-05-08T13:49:59.000Z</time>
</trkpt>
<trkpt lat="44.079728" lon="2.70507">
<ele>802.5</ele>
<time>2013-05-08T13:50:00.000Z</time>
</trkpt>
<trkpt lat="44.079637" lon="2.705249">
<ele>803.9</ele>
<time>2013-05-08T13:50:01.000Z</time>
</trkpt>
<trkpt lat="44.07955" lon="2.705429">
<ele>805.1</ele>
<time>2013-05-08T13:50:02.000Z</time>
</trkpt>
<trkpt lat="44.07946" lon="2.705613">
<ele>806.1</ele>
<time>2013-05-08T13:50:03.000Z</time>
</trkpt>
<trkpt lat="44.079375" lon="2.705793">
<ele>807</ele>
<time>2013-05-08T13:50:04.000Z</time>
</trkpt>
<trkpt lat="44.079292" lon="2.705972">
<ele>807.7</ele>
<time>2013-05-08T13:50:05.000Z</time>
</trkpt>
<trkpt lat="44.079213" lon="2.706142">
<ele>807.9</ele>
<time>2013-05-08T13:50:06.000Z</time>
</trkpt>
<trkpt lat="44.079134" lon="2.70631">
<ele>808.1</ele>
<time>2013-05-08T13:50:07.000Z</time>
</trkpt>
<trkpt lat="44.079054" lon="2.706479">
<ele>808.2</ele>
<time>2013-05-08T13:50:08.000Z</time>
</trkpt>
<trkpt lat="44.078977" lon="2.706646">
<ele>808.2</ele>
<time>2013-05-08T13:50:09.000Z</time>
</trkpt>
<trkpt lat="44.078896" lon="2.706825">
<ele>808.3</ele>
<time>2013-05-08T13:50:10.000Z</time>
</trkpt>
<trkpt lat="44.078804" lon="2.707004">
<ele>808.4</ele>
<time>2013-05-08T13:50:11.000Z</time>
</trkpt>
<trkpt lat="44.078685" lon="2.707139">
<ele>808.6</ele>
<time>2013-05-08T13:50:12.000Z</time>
</trkpt>
<trkpt lat="44.078559" lon="2.707261">
<ele>809.1</ele>
<time>2013-05-08T13:50:13.000Z</time>
</trkpt>
<trkpt lat="44.078412" lon="2.707337">
<ele>809.7</ele>
<time>2013-05-08T13:50:14.000Z</time>
</trkpt>
<trkpt lat="44.078261" lon="2.707408">
<ele>810.3</ele>
<time>2013-05-08T13:50:15.000Z</time>
</trkpt>
<trkpt lat="44.078102" lon="2.707477">
<ele>810.7</ele>
<time>2013-05-08T13:50:16.000Z</time>
</trkpt>
<trkpt lat="44.077938" lon="2.707544">
<ele>810.8</ele>
<time>2013-05-08T13:50:17.000Z</time>
</trkpt>
<trkpt lat="44.077773" lon="2.707607">
<ele>811.1</ele>
<time>2013-05-08T13:50:18.000Z</time>
</trkpt>
<trkpt lat="44.077608" lon="2.707669">
<ele>811.3</ele>
<time>2013-05-08T13:50:19.000Z</time>
</trkpt>
<trkpt lat="44.077438" lon="2.70773">
<ele>811.4</ele>
<time>2013-05-08T13:50:20.000Z</time>
</trkpt>
<trkpt lat="44.077271" lon="2.707789">
<ele>811.4</ele>
<time>2013-05-08T13:50:21.000Z</time>
</trkpt>
<trkpt lat="44.077104" lon="2.707848">
<ele>811.3</ele>
<time>2013-05-08T13:50:22.000Z</time>
</trkpt>
<trkpt lat="44.076939" lon="2.707896">
<ele>811.2</ele>
<time>2013-05-08T13:50:23.000Z</time>
</trkpt>
<trkpt lat="44.076775" lon="2.707941">
<ele>811</ele>
<time>2013-05-08T13:50:24.000Z</time>
</trkpt>
<trkpt lat="44.076613" lon="2.707987">
<ele>810.8</ele>
<time>2013-05-08T13:50:25.000Z</time>
</trkpt>
<trkpt lat="44.076447" lon="2.708038">
<ele>810.6</ele>
<time>2013-05-08T13:50:26.000Z</time>
</trkpt>
<trkpt lat="44.076278" lon="2.708093">
<ele>810.4</ele>
<time>2013-05-08T13:50:27.000Z</time>
</trkpt>
<trkpt lat="44.076103" lon="2.708143">
<ele>810.6</ele>
<time>2013-05-08T13:50:28.000Z</time>
</trkpt>
<trkpt lat="44.075924" lon="2.708179">
<ele>811.1</ele>
<time>2013-05-08T13:50:29.000Z</time>
</trkpt>
<trkpt lat="44.075728" lon="2.708137">
<ele>811.7</ele>
<time>2013-05-08T13:50:30.000Z</time>
</trkpt>
<trkpt lat="44.075535" lon="2.70807">
<ele>812.3</ele>
<time>2013-05-08T13:50:31.000Z</time>
</trkpt>
<trkpt lat="44.075338" lon="2.707997">
<ele>812.6</ele>
<time>2013-05-08T13:50:32.000Z</time>
</trkpt>
<trkpt lat="44.075131" lon="2.707871">
<ele>812.8</ele>
<time>2013-05-08T13:50:33.000Z</time>
</trkpt>
<trkpt lat="44.074931" lon="2.707753">
<ele>813.2</ele>
<time>2013-05-08T13:50:34.000Z</time>
</trkpt>
<trkpt lat="44.074729" lon="2.707616">
<ele>813.3</ele>
<time>2013-05-08T13:50:35.000Z</time>
</trkpt>
<trkpt lat="44.074522" lon="2.70748">
<ele>813.1</ele>
<time>2013-05-08T13:50:36.000Z</time>
</trkpt>
<trkpt lat="44.074312" lon="2.707352">
<ele>812.9</ele>
<time>2013-05-08T13:50:37.000Z</time>
</trkpt>
<trkpt lat="44.074103" lon="2.70723">
<ele>812.8</ele>
<time>2013-05-08T13:50:38.000Z</time>
</trkpt>
<trkpt lat="44.073901" lon="2.707146">
<ele>812.5</ele>
<time>2013-05-08T13:50:39.000Z</time>
</trkpt>
<trkpt lat="44.073706" lon="2.707093">
<ele>812</ele>
<time>2013-05-08T13:50:40.000Z</time>
</trkpt>
<trkpt lat="44.073505" lon="2.707073">
<ele>811.6</ele>
<time>2013-05-08T13:50:41.000Z</time>
</trkpt>
<trkpt lat="44.07332" lon="2.7071">
<ele>811.4</ele>
<time>2013-05-08T13:50:42.000Z</time>
</trkpt>
<trkpt lat="44.073142" lon="2.707163">
<ele>811.1</ele>
<time>2013-05-08T13:50:43.000Z</time>
</trkpt>
<trkpt lat="44.072956" lon="2.707252">
<ele>810.6</ele>
<time>2013-05-08T13:50:44.000Z</time>
</trkpt>
<trkpt lat="44.072767" lon="2.707339">
<ele>810.2</ele>
<time>2013-05-08T13:50:45.000Z</time>
</trkpt>
<trkpt lat="44.072592" lon="2.707503">
<ele>809.9</ele>
<time>2013-05-08T13:50:46.000Z</time>
</trkpt>
<trkpt lat="44.072423" lon="2.70769">
<ele>809.7</ele>
<time>2013-05-08T13:50:47.000Z</time>
</trkpt>
<trkpt lat="44.07225" lon="2.707872">
<ele>809.7</ele>
<time>2013-05-08T13:50:48.000Z</time>
</trkpt>
<trkpt lat="44.072088" lon="2.708057">
<ele>809.6</ele>
<time>2013-05-08T13:50:49.000Z</time>
</trkpt>
<trkpt lat="44.071927" lon="2.708235">
<ele>808.8</ele>
<time>2013-05-08T13:50:50.000Z</time>
</trkpt>
<trkpt lat="44.071763" lon="2.708405">
<ele>808.5</ele>
<time>2013-05-08T13:50:51.000Z</time>
</trkpt>
<trkpt lat="44.071599" lon="2.70856">
<ele>808.3</ele>
<time>2013-05-08T13:50:52.000Z</time>
</trkpt>
<trkpt lat="44.071436" lon="2.708674">
<ele>807.5</ele>
<time>2013-05-08T13:50:53.000Z</time>
</trkpt>
<trkpt lat="44.071263" lon="2.708725">
<ele>806.7</ele>
<time>2013-05-08T13:50:54.000Z</time>
</trkpt>
<trkpt lat="44.071082" lon="2.708713">
<ele>805.5</ele>
<time>2013-05-08T13:50:55.000Z</time>
</trkpt>
<trkpt lat="44.070902" lon="2.708713">
<ele>804.2</ele>
<time>2013-05-08T13:50:56.000Z</time>
</trkpt>
<trkpt lat="44.070733" lon="2.708776">
<ele>802.8</ele>
<time>2013-05-08T13:50:57.000Z</time>
</trkpt>
<trkpt lat="44.070574" lon="2.708864">
<ele>801.5</ele>
<time>2013-05-08T13:50:58.000Z</time>
</trkpt>
<trkpt lat="44.07041" lon="2.708985">
<ele>800.7</ele>
<time>2013-05-08T13:50:59.000Z</time>
</trkpt>
<trkpt lat="44.070299" lon="2.70916">
<ele>799.9</ele>
<time>2013-05-08T13:51:00.000Z</time>
</trkpt>
<trkpt lat="44.070197" lon="2.70935">
<ele>798.9</ele>
<time>2013-05-08T13:51:01.000Z</time>
</trkpt>
<trkpt lat="44.070104" lon="2.709537">
<ele>798.1</ele>
<time>2013-05-08T13:51:02.000Z</time>
</trkpt>
<trkpt lat="44.070022" lon="2.709713">
<ele>797.2</ele>
<time>2013-05-08T13:51:03.000Z</time>
</trkpt>
<trkpt lat="44.069905" lon="2.70982">
<ele>795.9</ele>
<time>2013-05-08T13:51:04.000Z</time>
</trkpt>
<trkpt lat="44.069796" lon="2.709905">
<ele>794.5</ele>
<time>2013-05-08T13:51:05.000Z</time>
</trkpt>
<trkpt lat="44.069673" lon="2.709973">
<ele>793.3</ele>
<time>2013-05-08T13:51:06.000Z</time>
</trkpt>
<trkpt lat="44.069544" lon="2.7099">
<ele>792.4</ele>
<time>2013-05-08T13:51:07.000Z</time>
</trkpt>
<trkpt lat="44.069405" lon="2.709808">
<ele>791.5</ele>
<time>2013-05-08T13:51:08.000Z</time>
</trkpt>
<trkpt lat="44.069258" lon="2.709705">
<ele>791.3</ele>
<time>2013-05-08T13:51:09.000Z</time>
</trkpt>
<trkpt lat="44.069112" lon="2.709589">
<ele>790.9</ele>
<time>2013-05-08T13:51:10.000Z</time>
</trkpt>
<trkpt lat="44.068966" lon="2.709466">
<ele>790.2</ele>
<time>2013-05-08T13:51:11.000Z</time>
</trkpt>
<trkpt lat="44.068823" lon="2.709344">
<ele>789.2</ele>
<time>2013-05-08T13:51:12.000Z</time>
</trkpt>
<trkpt lat="44.068687" lon="2.709217">
<ele>787.8</ele>
<time>2013-05-08T13:51:13.000Z</time>
</trkpt>
<trkpt lat="44.068546" lon="2.709088">
<ele>786.3</ele>
<time>2013-05-08T13:51:14.000Z</time>
</trkpt>
<trkpt lat="44.068408" lon="2.708955">
<ele>784.7</ele>
<time>2013-05-08T13:51:15.000Z</time>
</trkpt>
<trkpt lat="44.068266" lon="2.708821">
<ele>783.3</ele>
<time>2013-05-08T13:51:16.000Z</time>
</trkpt>
<trkpt lat="44.068125" lon="2.708678">
<ele>782.2</ele>
<time>2013-05-08T13:51:17.000Z</time>
</trkpt>
<trkpt lat="44.067987" lon="2.708526">
<ele>781.5</ele>
<time>2013-05-08T13:51:18.000Z</time>
</trkpt>
<trkpt lat="44.067863" lon="2.708386">
<ele>781.1</ele>
<time>2013-05-08T13:51:19.000Z</time>
</trkpt>
<trkpt lat="44.067744" lon="2.708255">
<ele>780.8</ele>
<time>2013-05-08T13:51:20.000Z</time>
</trkpt>
<trkpt lat="44.067615" lon="2.708134">
<ele>780.4</ele>
<time>2013-05-08T13:51:21.000Z</time>
</trkpt>
<trkpt lat="44.067466" lon="2.708101">
<ele>780</ele>
<time>2013-05-08T13:51:22.000Z</time>
</trkpt>
<trkpt lat="44.067312" lon="2.708088">
<ele>779.9</ele>
<time>2013-05-08T13:51:23.000Z</time>
</trkpt>
<trkpt lat="44.067149" lon="2.708094">
<ele>779.9</ele>
<time>2013-05-08T13:51:24.000Z</time>
</trkpt>
<trkpt lat="44.066972" lon="2.708113">
<ele>779.9</ele>
<time>2013-05-08T13:51:25.000Z</time>
</trkpt>
<trkpt lat="44.066781" lon="2.708143">
<ele>779.6</ele>
<time>2013-05-08T13:51:26.000Z</time>
</trkpt>
<trkpt lat="44.066582" lon="2.708193">
<ele>778.7</ele>
<time>2013-05-08T13:51:27.000Z</time>
</trkpt>
<trkpt lat="44.066378" lon="2.708244">
<ele>777.6</ele>
<time>2013-05-08T13:51:28.000Z</time>
</trkpt>
<trkpt lat="44.066172" lon="2.708296">
<ele>776.5</ele>
<time>2013-05-08T13:51:29.000Z</time>
</trkpt>
<trkpt lat="44.065969" lon="2.708334">
<ele>775.6</ele>
<time>2013-05-08T13:51:30.000Z</time>
</trkpt>
<trkpt lat="44.065776" lon="2.708355">
<ele>774.5</ele>
<time>2013-05-08T13:51:31.000Z</time>
</trkpt>
<trkpt lat="44.065594" lon="2.708369">
<ele>773.4</ele>
<time>2013-05-08T13:51:32.000Z</time>
</trkpt>
<trkpt lat="44.065419" lon="2.708394">
<ele>772.4</ele>
<time>2013-05-08T13:51:33.000Z</time>
</trkpt>
<trkpt lat="44.065254" lon="2.708434">
<ele>771.3</ele>
<time>2013-05-08T13:51:34.000Z</time>
</trkpt>
<trkpt lat="44.065099" lon="2.708547">
<ele>770.2</ele>
<time>2013-05-08T13:51:35.000Z</time>
</trkpt>
<trkpt lat="44.064947" lon="2.708678">
<ele>769.1</ele>
<time>2013-05-08T13:51:36.000Z</time>
</trkpt>
<trkpt lat="44.064811" lon="2.708864">
<ele>768.1</ele>
<time>2013-05-08T13:51:37.000Z</time>
</trkpt>
<trkpt lat="44.064676" lon="2.709061">
<ele>766.8</ele>
<time>2013-05-08T13:51:38.000Z</time>
</trkpt>
<trkpt lat="44.064558" lon="2.709262">
<ele>765.5</ele>
<time>2013-05-08T13:51:39.000Z</time>
</trkpt>
<trkpt lat="44.064476" lon="2.709491">
<ele>764.2</ele>
<time>2013-05-08T13:51:40.000Z</time>
</trkpt>
<trkpt lat="44.064424" lon="2.709753">
<ele>763.3</ele>
<time>2013-05-08T13:51:41.000Z</time>
</trkpt>
<trkpt lat="44.064397" lon="2.710032">
<ele>762.4</ele>
<time>2013-05-08T13:51:42.000Z</time>
</trkpt>
<trkpt lat="44.064377" lon="2.710311">
<ele>761.6</ele>
<time>2013-05-08T13:51:43.000Z</time>
</trkpt>
<trkpt lat="44.064354" lon="2.710566">
<ele>761.2</ele>
<time>2013-05-08T13:51:44.000Z</time>
</trkpt>
<trkpt lat="44.064324" lon="2.710808">
<ele>760.6</ele>
<time>2013-05-08T13:51:45.000Z</time>
</trkpt>
<trkpt lat="44.06425" lon="2.71101">
<ele>759.5</ele>
<time>2013-05-08T13:51:46.000Z</time>
</trkpt>
<trkpt lat="44.064139" lon="2.711165">
<ele>758.4</ele>
<time>2013-05-08T13:51:47.000Z</time>
</trkpt>
<trkpt lat="44.064011" lon="2.711262">
<ele>757.6</ele>
<time>2013-05-08T13:51:48.000Z</time>
</trkpt>
<trkpt lat="44.063874" lon="2.711352">
<ele>757.7</ele>
<time>2013-05-08T13:51:49.000Z</time>
</trkpt>
<trkpt lat="44.063717" lon="2.711389">
<ele>757.6</ele>
<time>2013-05-08T13:51:50.000Z</time>
</trkpt>
<trkpt lat="44.063555" lon="2.711409">
<ele>757.7</ele>
<time>2013-05-08T13:51:51.000Z</time>
</trkpt>
<trkpt lat="44.063383" lon="2.711361">
<ele>757.9</ele>
<time>2013-05-08T13:51:52.000Z</time>
</trkpt>
<trkpt lat="44.063219" lon="2.711292">
<ele>757.8</ele>
<time>2013-05-08T13:51:53.000Z</time>
</trkpt>
<trkpt lat="44.063064" lon="2.711171">
<ele>758</ele>
<time>2013-05-08T13:51:54.000Z</time>
</trkpt>
<trkpt lat="44.06291" lon="2.711044">
<ele>757.7</ele>
<time>2013-05-08T13:51:55.000Z</time>
</trkpt>
<trkpt lat="44.062786" lon="2.710853">
<ele>757.4</ele>
<time>2013-05-08T13:51:56.000Z</time>
</trkpt>
<trkpt lat="44.062676" lon="2.710666">
<ele>757</ele>
<time>2013-05-08T13:51:57.000Z</time>
</trkpt>
<trkpt lat="44.062609" lon="2.710444">
<ele>756.8</ele>
<time>2013-05-08T13:51:58.000Z</time>
</trkpt>
<trkpt lat="44.062555" lon="2.710223">
<ele>757.2</ele>
<time>2013-05-08T13:51:59.000Z</time>
</trkpt>
<trkpt lat="44.062541" lon="2.709987">
<ele>756.9</ele>
<time>2013-05-08T13:52:00.000Z</time>
</trkpt>
<trkpt lat="44.062529" lon="2.709749">
<ele>756.4</ele>
<time>2013-05-08T13:52:01.000Z</time>
</trkpt>
<trkpt lat="44.062518" lon="2.709487">
<ele>755.2</ele>
<time>2013-05-08T13:52:02.000Z</time>
</trkpt>
<trkpt lat="44.062509" lon="2.709224">
<ele>754.7</ele>
<time>2013-05-08T13:52:03.000Z</time>
</trkpt>
<trkpt lat="44.0625" lon="2.708947">
<ele>754.6</ele>
<time>2013-05-08T13:52:04.000Z</time>
</trkpt>
<trkpt lat="44.06248" lon="2.708672">
<ele>754.9</ele>
<time>2013-05-08T13:52:05.000Z</time>
</trkpt>
<trkpt lat="44.062443" lon="2.708386">
<ele>755.5</ele>
<time>2013-05-08T13:52:06.000Z</time>
</trkpt>
<trkpt lat="44.062387" lon="2.708092">
<ele>756.6</ele>
<time>2013-05-08T13:52:07.000Z</time>
</trkpt>
<trkpt lat="44.062314" lon="2.707809">
<ele>757.7</ele>
<time>2013-05-08T13:52:08.000Z</time>
</trkpt>
<trkpt lat="44.062247" lon="2.707543">
<ele>759</ele>
<time>2013-05-08T13:52:09.000Z</time>
</trkpt>
<trkpt lat="44.062179" lon="2.707289">
<ele>760.3</ele>
<time>2013-05-08T13:52:10.000Z</time>
</trkpt>
<trkpt lat="44.062111" lon="2.70705">
<ele>761.3</ele>
<time>2013-05-08T13:52:11.000Z</time>
</trkpt>
<trkpt lat="44.062031" lon="2.706849">
<ele>762.4</ele>
<time>2013-05-08T13:52:12.000Z</time>
</trkpt>
<trkpt lat="44.061946" lon="2.706679">
<ele>763.5</ele>
<time>2013-05-08T13:52:13.000Z</time>
</trkpt>
<trkpt lat="44.06181" lon="2.706569">
<ele>764.6</ele>
<time>2013-05-08T13:52:14.000Z</time>
</trkpt>
<trkpt lat="44.06166" lon="2.706469">
<ele>765.5</ele>
<time>2013-05-08T13:52:15.000Z</time>
</trkpt>
<trkpt lat="44.061479" lon="2.706414">
<ele>766.4</ele>
<time>2013-05-08T13:52:16.000Z</time>
</trkpt>
<trkpt lat="44.06129" lon="2.706367">
<ele>767.1</ele>
<time>2013-05-08T13:52:17.000Z</time>
</trkpt>
<trkpt lat="44.061079" lon="2.706325">
<ele>767.8</ele>
<time>2013-05-08T13:52:18.000Z</time>
</trkpt>
<trkpt lat="44.060867" lon="2.706285">
<ele>768.7</ele>
<time>2013-05-08T13:52:19.000Z</time>
</trkpt>
<trkpt lat="44.06066" lon="2.706243">
<ele>770</ele>
<time>2013-05-08T13:52:20.000Z</time>
</trkpt>
<trkpt lat="44.060443" lon="2.706199">
<ele>770.9</ele>
<time>2013-05-08T13:52:21.000Z</time>
</trkpt>
<trkpt lat="44.060233" lon="2.706164">
<ele>771.6</ele>
<time>2013-05-08T13:52:22.000Z</time>
</trkpt>
<trkpt lat="44.060048" lon="2.70614">
<ele>772.3</ele>
<time>2013-05-08T13:52:23.000Z</time>
</trkpt>
<trkpt lat="44.059891" lon="2.706118">
<ele>773.1</ele>
<time>2013-05-08T13:52:24.000Z</time>
</trkpt>
<trkpt lat="44.059772" lon="2.706106">
<ele>774.1</ele>
<time>2013-05-08T13:52:25.000Z</time>
</trkpt>
<trkpt lat="44.059673" lon="2.706089">
<ele>775.2</ele>
<time>2013-05-08T13:52:26.000Z</time>
</trkpt>
<trkpt lat="44.059582" lon="2.706078">
<ele>776.2</ele>
<time>2013-05-08T13:52:27.000Z</time>
</trkpt>
<trkpt lat="44.059499" lon="2.706066">
<ele>777.1</ele>
<time>2013-05-08T13:52:28.000Z</time>
</trkpt>
<trkpt lat="44.059419" lon="2.706053">
<ele>778</ele>
<time>2013-05-08T13:52:29.000Z</time>
</trkpt>
<trkpt lat="44.059342" lon="2.706037">
<ele>778.8</ele>
<time>2013-05-08T13:52:30.000Z</time>
</trkpt>
<trkpt lat="44.059272" lon="2.706022">
<ele>779.5</ele>
<time>2013-05-08T13:52:31.000Z</time>
</trkpt>
<trkpt lat="44.059205" lon="2.706013">
<ele>780.5</ele>
<time>2013-05-08T13:52:32.000Z</time>
</trkpt>
<trkpt lat="44.059145" lon="2.706044">
<ele>781.4</ele>
<time>2013-05-08T13:52:33.000Z</time>
</trkpt>
<trkpt lat="44.059093" lon="2.706109">
<ele>782.5</ele>
<time>2013-05-08T13:52:34.000Z</time>
</trkpt>
<trkpt lat="44.059062" lon="2.706205">
<ele>783.1</ele>
<time>2013-05-08T13:52:35.000Z</time>
</trkpt>
<trkpt lat="44.059035" lon="2.706324">
<ele>783.4</ele>
<time>2013-05-08T13:52:36.000Z</time>
</trkpt>
<trkpt lat="44.05901" lon="2.706462">
<ele>783.3</ele>
<time>2013-05-08T13:52:37.000Z</time>
</trkpt>
<trkpt lat="44.058982" lon="2.706623">
<ele>783.1</ele>
<time>2013-05-08T13:52:38.000Z</time>
</trkpt>
<trkpt lat="44.05895" lon="2.7068">
<ele>782.6</ele>
<time>2013-05-08T13:52:39.000Z</time>
</trkpt>
<trkpt lat="44.058917" lon="2.706986">
<ele>782</ele>
<time>2013-05-08T13:52:40.000Z</time>
</trkpt>
<trkpt lat="44.058881" lon="2.70719">
<ele>781.6</ele>
<time>2013-05-08T13:52:41.000Z</time>
</trkpt>
<trkpt lat="44.058844" lon="2.707406">
<ele>781.3</ele>
<time>2013-05-08T13:52:42.000Z</time>
</trkpt>
<trkpt lat="44.058802" lon="2.70763">
<ele>780.9</ele>
<time>2013-05-08T13:52:43.000Z</time>
</trkpt>
<trkpt lat="44.058757" lon="2.70787">
<ele>780.6</ele>
<time>2013-05-08T13:52:44.000Z</time>
</trkpt>
<trkpt lat="44.05871" lon="2.708125">
<ele>780.1</ele>
<time>2013-05-08T13:52:45.000Z</time>
</trkpt>
<trkpt lat="44.058664" lon="2.708364">
<ele>779.9</ele>
<time>2013-05-08T13:52:46.000Z</time>
</trkpt>
<trkpt lat="44.058614" lon="2.708616">
<ele>779.9</ele>
<time>2013-05-08T13:52:47.000Z</time>
</trkpt>
<trkpt lat="44.058563" lon="2.708869">
<ele>779.8</ele>
<time>2013-05-08T13:52:48.000Z</time>
</trkpt>
<trkpt lat="44.0585" lon="2.709112">
<ele>779.7</ele>
<time>2013-05-08T13:52:49.000Z</time>
</trkpt>
<trkpt lat="44.058424" lon="2.709348">
<ele>779.7</ele>
<time>2013-05-08T13:52:50.000Z</time>
</trkpt>
<trkpt lat="44.05835" lon="2.709575">
<ele>779.5</ele>
<time>2013-05-08T13:52:51.000Z</time>
</trkpt>
<trkpt lat="44.058269" lon="2.709811">
<ele>779.4</ele>
<time>2013-05-08T13:52:52.000Z</time>
</trkpt>
<trkpt lat="44.058186" lon="2.71004">
<ele>779.3</ele>
<time>2013-05-08T13:52:53.000Z</time>
</trkpt>
<trkpt lat="44.058101" lon="2.710265">
<ele>779.1</ele>
<time>2013-05-08T13:52:54.000Z</time>
</trkpt>
<trkpt lat="44.05802" lon="2.71049">
<ele>778.8</ele>
<time>2013-05-08T13:52:55.000Z</time>
</trkpt>
<trkpt lat="44.05796" lon="2.710721">
<ele>778.7</ele>
<time>2013-05-08T13:52:56.000Z</time>
</trkpt>
<trkpt lat="44.057909" lon="2.710954">
<ele>778.8</ele>
<time>2013-05-08T13:52:57.000Z</time>
</trkpt>
<trkpt lat="44.057893" lon="2.711196">
<ele>778.3</ele>
<time>2013-05-08T13:52:58.000Z</time>
</trkpt>
<trkpt lat="44.057929" lon="2.711456">
<ele>777.9</ele>
<time>2013-05-08T13:52:59.000Z</time>
</trkpt>
<trkpt lat="44.057969" lon="2.71173">
<ele>777.4</ele>
<time>2013-05-08T13:53:00.000Z</time>
</trkpt>
<trkpt lat="44.058009" lon="2.712003">
<ele>776.4</ele>
<time>2013-05-08T13:53:01.000Z</time>
</trkpt>
<trkpt lat="44.058057" lon="2.712263">
<ele>775.3</ele>
<time>2013-05-08T13:53:02.000Z</time>
</trkpt>
<trkpt lat="44.058101" lon="2.712519">
<ele>774.3</ele>
<time>2013-05-08T13:53:03.000Z</time>
</trkpt>
<trkpt lat="44.058143" lon="2.712785">
<ele>773.4</ele>
<time>2013-05-08T13:53:04.000Z</time>
</trkpt>
<trkpt lat="44.058153" lon="2.713046">
<ele>772.5</ele>
<time>2013-05-08T13:53:05.000Z</time>
</trkpt>
<trkpt lat="44.058134" lon="2.713279">
<ele>771.6</ele>
<time>2013-05-08T13:53:06.000Z</time>
</trkpt>
<trkpt lat="44.058089" lon="2.7135">
<ele>770.8</ele>
<time>2013-05-08T13:53:07.000Z</time>
</trkpt>
<trkpt lat="44.057959" lon="2.713675">
<ele>769.9</ele>
<time>2013-05-08T13:53:08.000Z</time>
</trkpt>
<trkpt lat="44.057818" lon="2.713826">
<ele>769.2</ele>
<time>2013-05-08T13:53:09.000Z</time>
</trkpt>
<trkpt lat="44.057671" lon="2.713967">
<ele>768.7</ele>
<time>2013-05-08T13:53:10.000Z</time>
</trkpt>
<trkpt lat="44.057513" lon="2.714095">
<ele>768.1</ele>
<time>2013-05-08T13:53:11.000Z</time>
</trkpt>
<trkpt lat="44.057357" lon="2.714218">
<ele>767.6</ele>
<time>2013-05-08T13:53:12.000Z</time>
</trkpt>
<trkpt lat="44.057201" lon="2.714332">
<ele>767</ele>
<time>2013-05-08T13:53:13.000Z</time>
</trkpt>
<trkpt lat="44.057043" lon="2.714437">
<ele>766.3</ele>
<time>2013-05-08T13:53:14.000Z</time>
</trkpt>
<trkpt lat="44.056885" lon="2.714542">
<ele>765.8</ele>
<time>2013-05-08T13:53:15.000Z</time>
</trkpt>
<trkpt lat="44.056744" lon="2.714671">
<ele>765.8</ele>
<time>2013-05-08T13:53:16.000Z</time>
</trkpt>
<trkpt lat="44.056653" lon="2.71486">
<ele>765.7</ele>
<time>2013-05-08T13:53:17.000Z</time>
</trkpt>
<trkpt lat="44.05658" lon="2.715058">
<ele>765.5</ele>
<time>2013-05-08T13:53:18.000Z</time>
</trkpt>
<trkpt lat="44.056549" lon="2.715256">
<ele>764.8</ele>
<time>2013-05-08T13:53:19.000Z</time>
</trkpt>
<trkpt lat="44.056529" lon="2.715409">
<ele>764</ele>
<time>2013-05-08T13:53:20.000Z</time>
</trkpt>
<trkpt lat="44.056512" lon="2.715503">
<ele>763.1</ele>
<time>2013-05-08T13:53:21.000Z</time>
</trkpt>
<trkpt lat="44.056474" lon="2.715595">
<ele>761.9</ele>
<time>2013-05-08T13:53:22.000Z</time>
</trkpt>
<trkpt lat="44.056415" lon="2.71566">
<ele>760.8</ele>
<time>2013-05-08T13:53:23.000Z</time>
</trkpt>
<trkpt lat="44.056336" lon="2.715704">
<ele>759.8</ele>
<time>2013-05-08T13:53:24.000Z</time>
</trkpt>
<trkpt lat="44.056245" lon="2.715747">
<ele>759.6</ele>
<time>2013-05-08T13:53:25.000Z</time>
</trkpt>
<trkpt lat="44.056133" lon="2.715785">
<ele>759.3</ele>
<time>2013-05-08T13:53:26.000Z</time>
</trkpt>
<trkpt lat="44.056016" lon="2.715822">
<ele>758.8</ele>
<time>2013-05-08T13:53:27.000Z</time>
</trkpt>
<trkpt lat="44.055887" lon="2.715865">
<ele>757.9</ele>
<time>2013-05-08T13:53:28.000Z</time>
</trkpt>
<trkpt lat="44.055755" lon="2.715915">
<ele>756.7</ele>
<time>2013-05-08T13:53:29.000Z</time>
</trkpt>
<trkpt lat="44.055628" lon="2.716007">
<ele>755.6</ele>
<time>2013-05-08T13:53:30.000Z</time>
</trkpt>
<trkpt lat="44.055497" lon="2.716117">
<ele>754.5</ele>
<time>2013-05-08T13:53:31.000Z</time>
</trkpt>
<trkpt lat="44.055368" lon="2.716272">
<ele>753.5</ele>
<time>2013-05-08T13:53:32.000Z</time>
</trkpt>
<trkpt lat="44.055238" lon="2.71643">
<ele>752.5</ele>
<time>2013-05-08T13:53:33.000Z</time>
</trkpt>
<trkpt lat="44.055103" lon="2.716601">
<ele>752.1</ele>
<time>2013-05-08T13:53:34.000Z</time>
</trkpt>
<trkpt lat="44.054973" lon="2.716779">
<ele>752</ele>
<time>2013-05-08T13:53:35.000Z</time>
</trkpt>
<trkpt lat="44.054842" lon="2.716953">
<ele>752.1</ele>
<time>2013-05-08T13:53:36.000Z</time>
</trkpt>
<trkpt lat="44.054718" lon="2.717122">
<ele>751.7</ele>
<time>2013-05-08T13:53:37.000Z</time>
</trkpt>
<trkpt lat="44.054597" lon="2.717286">
<ele>751</ele>
<time>2013-05-08T13:53:38.000Z</time>
</trkpt>
<trkpt lat="44.054477" lon="2.717439">
<ele>750</ele>
<time>2013-05-08T13:53:39.000Z</time>
</trkpt>
<trkpt lat="44.054358" lon="2.71759">
<ele>748.8</ele>
<time>2013-05-08T13:53:40.000Z</time>
</trkpt>
<trkpt lat="44.054247" lon="2.717727">
<ele>747.3</ele>
<time>2013-05-08T13:53:41.000Z</time>
</trkpt>
<trkpt lat="44.054136" lon="2.717856">
<ele>745.8</ele>
<time>2013-05-08T13:53:42.000Z</time>
</trkpt>
<trkpt lat="44.053998" lon="2.717903">
<ele>744.6</ele>
<time>2013-05-08T13:53:43.000Z</time>
</trkpt>
<trkpt lat="44.053864" lon="2.717888">
<ele>744</ele>
<time>2013-05-08T13:53:44.000Z</time>
</trkpt>
<trkpt lat="44.053738" lon="2.717827">
<ele>743.6</ele>
<time>2013-05-08T13:53:45.000Z</time>
</trkpt>
<trkpt lat="44.053613" lon="2.717754">
<ele>743</ele>
<time>2013-05-08T13:53:46.000Z</time>
</trkpt>
<trkpt lat="44.053482" lon="2.717672">
<ele>742.3</ele>
<time>2013-05-08T13:53:47.000Z</time>
</trkpt>
<trkpt lat="44.053337" lon="2.717584">
<ele>742</ele>
<time>2013-05-08T13:53:48.000Z</time>
</trkpt>
<trkpt lat="44.053185" lon="2.717486">
<ele>741.4</ele>
<time>2013-05-08T13:53:49.000Z</time>
</trkpt>
<trkpt lat="44.053034" lon="2.717397">
<ele>740.6</ele>
<time>2013-05-08T13:53:50.000Z</time>
</trkpt>
<trkpt lat="44.052881" lon="2.717375">
<ele>740</ele>
<time>2013-05-08T13:53:51.000Z</time>
</trkpt>
<trkpt lat="44.052731" lon="2.717405">
<ele>739.3</ele>
<time>2013-05-08T13:53:52.000Z</time>
</trkpt>
<trkpt lat="44.052561" lon="2.717443">
<ele>738.2</ele>
<time>2013-05-08T13:53:53.000Z</time>
</trkpt>
<trkpt lat="44.052376" lon="2.717495">
<ele>737</ele>
<time>2013-05-08T13:53:54.000Z</time>
</trkpt>
<trkpt lat="44.052189" lon="2.717548">
<ele>735.9</ele>
<time>2013-05-08T13:53:55.000Z</time>
</trkpt>
<trkpt lat="44.052006" lon="2.71758">
<ele>735</ele>
<time>2013-05-08T13:53:56.000Z</time>
</trkpt>
<trkpt lat="44.051806" lon="2.717593">
<ele>733.9</ele>
<time>2013-05-08T13:53:57.000Z</time>
</trkpt>
<trkpt lat="44.051604" lon="2.717593">
<ele>733.3</ele>
<time>2013-05-08T13:53:58.000Z</time>
</trkpt>
<trkpt lat="44.051404" lon="2.717586">
<ele>732.5</ele>
<time>2013-05-08T13:53:59.000Z</time>
</trkpt>
<trkpt lat="44.05121" lon="2.71758">
<ele>731.4</ele>
<time>2013-05-08T13:54:00.000Z</time>
</trkpt>
<trkpt lat="44.051015" lon="2.717577">
<ele>730.4</ele>
<time>2013-05-08T13:54:01.000Z</time>
</trkpt>
<trkpt lat="44.050824" lon="2.717575">
<ele>729.2</ele>
<time>2013-05-08T13:54:02.000Z</time>
</trkpt>
<trkpt lat="44.050638" lon="2.717572">
<ele>728.1</ele>
<time>2013-05-08T13:54:03.000Z</time>
</trkpt>
<trkpt lat="44.050466" lon="2.717596">
<ele>727.1</ele>
<time>2013-05-08T13:54:04.000Z</time>
</trkpt>
<trkpt lat="44.050304" lon="2.717646">
<ele>726</ele>
<time>2013-05-08T13:54:05.000Z</time>
</trkpt>
<trkpt lat="44.050142" lon="2.717723">
<ele>725.1</ele>
<time>2013-05-08T13:54:06.000Z</time>
</trkpt>
<trkpt lat="44.04998" lon="2.717855">
<ele>724.5</ele>
<time>2013-05-08T13:54:07.000Z</time>
</trkpt>
<trkpt lat="44.049838" lon="2.718008">
<ele>723.7</ele>
<time>2013-05-08T13:54:08.000Z</time>
</trkpt>
<trkpt lat="44.04974" lon="2.718195">
<ele>722.9</ele>
<time>2013-05-08T13:54:09.000Z</time>
</trkpt>
<trkpt lat="44.049656" lon="2.718392">
<ele>722</ele>
<time>2013-05-08T13:54:10.000Z</time>
</trkpt>
<trkpt lat="44.049594" lon="2.718625">
<ele>721.3</ele>
<time>2013-05-08T13:54:11.000Z</time>
</trkpt>
<trkpt lat="44.049527" lon="2.71886">
<ele>720.5</ele>
<time>2013-05-08T13:54:12.000Z</time>
</trkpt>
<trkpt lat="44.049473" lon="2.71909">
<ele>719.7</ele>
<time>2013-05-08T13:54:13.000Z</time>
</trkpt>
<trkpt lat="44.049419" lon="2.719336">
<ele>719.3</ele>
<time>2013-05-08T13:54:14.000Z</time>
</trkpt>
<trkpt lat="44.049371" lon="2.719566">
<ele>718.7</ele>
<time>2013-05-08T13:54:15.000Z</time>
</trkpt>
<trkpt lat="44.049323" lon="2.719789">
<ele>717.9</ele>
<time>2013-05-08T13:54:16.000Z</time>
</trkpt>
<trkpt lat="44.049272" lon="2.720005">
<ele>716.9</ele>
<time>2013-05-08T13:54:17.000Z</time>
</trkpt>
<trkpt lat="44.049215" lon="2.720205">
<ele>715.8</ele>
<time>2013-05-08T13:54:18.000Z</time>
</trkpt>
<trkpt lat="44.049141" lon="2.720402">
<ele>714.7</ele>
<time>2013-05-08T13:54:19.000Z</time>
</trkpt>
<trkpt lat="44.049034" lon="2.720568">
<ele>713.7</ele>
<time>2013-05-08T13:54:20.000Z</time>
</trkpt>
<trkpt lat="44.048923" lon="2.720735">
<ele>712.7</ele>
<time>2013-05-08T13:54:21.000Z</time>
</trkpt>
<trkpt lat="44.048783" lon="2.720871">
<ele>711.7</ele>
<time>2013-05-08T13:54:22.000Z</time>
</trkpt>
<trkpt lat="44.048633" lon="2.720999">
<ele>711.2</ele>
<time>2013-05-08T13:54:23.000Z</time>
</trkpt>
<trkpt lat="44.048484" lon="2.721101">
<ele>711</ele>
<time>2013-05-08T13:54:24.000Z</time>
</trkpt>
<trkpt lat="44.048323" lon="2.72119">
<ele>710.7</ele>
<time>2013-05-08T13:54:25.000Z</time>
</trkpt>
<trkpt lat="44.048162" lon="2.721265">
<ele>710.5</ele>
<time>2013-05-08T13:54:26.000Z</time>
</trkpt>
<trkpt lat="44.048004" lon="2.721328">
<ele>709.9</ele>
<time>2013-05-08T13:54:27.000Z</time>
</trkpt>
<trkpt lat="44.047845" lon="2.721383">
<ele>708.9</ele>
<time>2013-05-08T13:54:28.000Z</time>
</trkpt>
<trkpt lat="44.047703" lon="2.721435">
<ele>707.8</ele>
<time>2013-05-08T13:54:29.000Z</time>
</trkpt>
<trkpt lat="44.047575" lon="2.721474">
<ele>706.5</ele>
<time>2013-05-08T13:54:30.000Z</time>
</trkpt>
<trkpt lat="44.047467" lon="2.721501">
<ele>705.2</ele>
<time>2013-05-08T13:54:31.000Z</time>
</trkpt>
<trkpt lat="44.047374" lon="2.721519">
<ele>703.9</ele>
<time>2013-05-08T13:54:32.000Z</time>
</trkpt>
<trkpt lat="44.047278" lon="2.721545">
<ele>702.7</ele>
<time>2013-05-08T13:54:33.000Z</time>
</trkpt>
<trkpt lat="44.04718" lon="2.721585">
<ele>701.6</ele>
<time>2013-05-08T13:54:34.000Z</time>
</trkpt>
<trkpt lat="44.047101" lon="2.721651">
<ele>700.7</ele>
<time>2013-05-08T13:54:35.000Z</time>
</trkpt>
<trkpt lat="44.047045" lon="2.721745">
<ele>700</ele>
<time>2013-05-08T13:54:36.000Z</time>
</trkpt>
<trkpt lat="44.04701" lon="2.72185">
<ele>699.3</ele>
<time>2013-05-08T13:54:37.000Z</time>
</trkpt>
<trkpt lat="44.046977" lon="2.72197">
<ele>698.8</ele>
<time>2013-05-08T13:54:38.000Z</time>
</trkpt>
<trkpt lat="44.046981" lon="2.722087">
<ele>698.3</ele>
<time>2013-05-08T13:54:39.000Z</time>
</trkpt>
<trkpt lat="44.047017" lon="2.722206">
<ele>697.9</ele>
<time>2013-05-08T13:54:40.000Z</time>
</trkpt>
<trkpt lat="44.047085" lon="2.722311">
<ele>697.6</ele>
<time>2013-05-08T13:54:41.000Z</time>
</trkpt>
<trkpt lat="44.047166" lon="2.722417">
<ele>697.4</ele>
<time>2013-05-08T13:54:42.000Z</time>
</trkpt>
<trkpt lat="44.047249" lon="2.722501">
<ele>696.8</ele>
<time>2013-05-08T13:54:43.000Z</time>
</trkpt>
<trkpt lat="44.047326" lon="2.722563">
<ele>696.3</ele>
<time>2013-05-08T13:54:44.000Z</time>
</trkpt>
<trkpt lat="44.047393" lon="2.722621">
<ele>695.6</ele>
<time>2013-05-08T13:54:45.000Z</time>
</trkpt>
<trkpt lat="44.047458" lon="2.722684">
<ele>695</ele>
<time>2013-05-08T13:54:46.000Z</time>
</trkpt>
<trkpt lat="44.047525" lon="2.722761">
<ele>694.6</ele>
<time>2013-05-08T13:54:47.000Z</time>
</trkpt>
<trkpt lat="44.047576" lon="2.722876">
<ele>694.6</ele>
<time>2013-05-08T13:54:48.000Z</time>
</trkpt>
<trkpt lat="44.047621" lon="2.722994">
<ele>694.7</ele>
<time>2013-05-08T13:54:49.000Z</time>
</trkpt>
<trkpt lat="44.047633" lon="2.723138">
<ele>694.7</ele>
<time>2013-05-08T13:54:50.000Z</time>
</trkpt>
<trkpt lat="44.047637" lon="2.723294">
<ele>694.4</ele>
<time>2013-05-08T13:54:51.000Z</time>
</trkpt>
<trkpt lat="44.047611" lon="2.723462">
<ele>694</ele>
<time>2013-05-08T13:54:52.000Z</time>
</trkpt>
<trkpt lat="44.047581" lon="2.723647">
<ele>693.5</ele>
<time>2013-05-08T13:54:53.000Z</time>
</trkpt>
<trkpt lat="44.047542" lon="2.723854">
<ele>692.7</ele>
<time>2013-05-08T13:54:54.000Z</time>
</trkpt>
<trkpt lat="44.0475" lon="2.724063">
<ele>691.6</ele>
<time>2013-05-08T13:54:55.000Z</time>
</trkpt>
<trkpt lat="44.047456" lon="2.724281">
<ele>690.6</ele>
<time>2013-05-08T13:54:56.000Z</time>
</trkpt>
<trkpt lat="44.047404" lon="2.724509">
<ele>689.9</ele>
<time>2013-05-08T13:54:57.000Z</time>
</trkpt>
<trkpt lat="44.04735" lon="2.72475">
<ele>689.3</ele>
<time>2013-05-08T13:54:58.000Z</time>
</trkpt>
<trkpt lat="44.047297" lon="2.724998">
<ele>688.8</ele>
<time>2013-05-08T13:54:59.000Z</time>
</trkpt>
<trkpt lat="44.047251" lon="2.725259">
<ele>688.1</ele>
<time>2013-05-08T13:55:00.000Z</time>
</trkpt>
<trkpt lat="44.047215" lon="2.725506">
<ele>687.4</ele>
<time>2013-05-08T13:55:01.000Z</time>
</trkpt>
<trkpt lat="44.047189" lon="2.725762">
<ele>686.5</ele>
<time>2013-05-08T13:55:02.000Z</time>
</trkpt>
<trkpt lat="44.047189" lon="2.726008">
<ele>685.4</ele>
<time>2013-05-08T13:55:03.000Z</time>
</trkpt>
<trkpt lat="44.047203" lon="2.726239">
<ele>684.4</ele>
<time>2013-05-08T13:55:04.000Z</time>
</trkpt>
<trkpt lat="44.047224" lon="2.726443">
<ele>683.2</ele>
<time>2013-05-08T13:55:05.000Z</time>
</trkpt>
<trkpt lat="44.047251" lon="2.726639">
<ele>682.3</ele>
<time>2013-05-08T13:55:06.000Z</time>
</trkpt>
<trkpt lat="44.047308" lon="2.726793">
<ele>681.7</ele>
<time>2013-05-08T13:55:07.000Z</time>
</trkpt>
<trkpt lat="44.047392" lon="2.726902">
<ele>680.9</ele>
<time>2013-05-08T13:55:08.000Z</time>
</trkpt>
<trkpt lat="44.047519" lon="2.726987">
<ele>680.3</ele>
<time>2013-05-08T13:55:09.000Z</time>
</trkpt>
<trkpt lat="44.04767" lon="2.727019">
<ele>679.7</ele>
<time>2013-05-08T13:55:10.000Z</time>
</trkpt>
<trkpt lat="44.04783" lon="2.727037">
<ele>679</ele>
<time>2013-05-08T13:55:11.000Z</time>
</trkpt>
<trkpt lat="44.047985" lon="2.727043">
<ele>678.3</ele>
<time>2013-05-08T13:55:12.000Z</time>
</trkpt>
<trkpt lat="44.048138" lon="2.727048">
<ele>677.4</ele>
<time>2013-05-08T13:55:13.000Z</time>
</trkpt>
<trkpt lat="44.048281" lon="2.727056">
<ele>676.7</ele>
<time>2013-05-08T13:55:14.000Z</time>
</trkpt>
<trkpt lat="44.048408" lon="2.727072">
<ele>676</ele>
<time>2013-05-08T13:55:15.000Z</time>
</trkpt>
<trkpt lat="44.048509" lon="2.727088">
<ele>675.3</ele>
<time>2013-05-08T13:55:16.000Z</time>
</trkpt>
<trkpt lat="44.048594" lon="2.727109">
<ele>674.6</ele>
<time>2013-05-08T13:55:17.000Z</time>
</trkpt>
<trkpt lat="44.048648" lon="2.727202">
<ele>674</ele>
<time>2013-05-08T13:55:18.000Z</time>
</trkpt>
<trkpt lat="44.048686" lon="2.727291">
<ele>673.6</ele>
<time>2013-05-08T13:55:19.000Z</time>
</trkpt>
<trkpt lat="44.048646" lon="2.727445">
<ele>673.3</ele>
<time>2013-05-08T13:55:20.000Z</time>
</trkpt>
<trkpt lat="44.048591" lon="2.727609">
<ele>673.3</ele>
<time>2013-05-08T13:55:21.000Z</time>
</trkpt>
<trkpt lat="44.048529" lon="2.727765">
<ele>673.4</ele>
<time>2013-05-08T13:55:22.000Z</time>
</trkpt>
<trkpt lat="44.048457" lon="2.727952">
<ele>673.1</ele>
<time>2013-05-08T13:55:23.000Z</time>
</trkpt>
<trkpt lat="44.048384" lon="2.728166">
<ele>673.5</ele>
<time>2013-05-08T13:55:24.000Z</time>
</trkpt>
<trkpt lat="44.0483" lon="2.728374">
<ele>673.7</ele>
<time>2013-05-08T13:55:25.000Z</time>
</trkpt>
<trkpt lat="44.048218" lon="2.728591">
<ele>674</ele>
<time>2013-05-08T13:55:26.000Z</time>
</trkpt>
<trkpt lat="44.048137" lon="2.728804">
<ele>673.6</ele>
<time>2013-05-08T13:55:27.000Z</time>
</trkpt>
<trkpt lat="44.048059" lon="2.729015">
<ele>672.8</ele>
<time>2013-05-08T13:55:28.000Z</time>
</trkpt>
<trkpt lat="44.04799" lon="2.729211">
<ele>671.8</ele>
<time>2013-05-08T13:55:29.000Z</time>
</trkpt>
<trkpt lat="44.047928" lon="2.729385">
<ele>670.7</ele>
<time>2013-05-08T13:55:30.000Z</time>
</trkpt>
<trkpt lat="44.047873" lon="2.729565">
<ele>669.8</ele>
<time>2013-05-08T13:55:31.000Z</time>
</trkpt>
<trkpt lat="44.047821" lon="2.729748">
<ele>668.9</ele>
<time>2013-05-08T13:55:32.000Z</time>
</trkpt>
<trkpt lat="44.047774" lon="2.72994">
<ele>668</ele>
<time>2013-05-08T13:55:33.000Z</time>
</trkpt>
<trkpt lat="44.047764" lon="2.730126">
<ele>666.8</ele>
<time>2013-05-08T13:55:34.000Z</time>
</trkpt>
<trkpt lat="44.047766" lon="2.730293">
<ele>665.2</ele>
<time>2013-05-08T13:55:35.000Z</time>
</trkpt>
<trkpt lat="44.047767" lon="2.730437">
<ele>663.9</ele>
<time>2013-05-08T13:55:36.000Z</time>
</trkpt>
<trkpt lat="44.047767" lon="2.730547">
<ele>662.9</ele>
<time>2013-05-08T13:55:37.000Z</time>
</trkpt>
<trkpt lat="44.047767" lon="2.730631">
<ele>661.4</ele>
<time>2013-05-08T13:55:38.000Z</time>
</trkpt>
<trkpt lat="44.047768" lon="2.730711">
<ele>659.9</ele>
<time>2013-05-08T13:55:39.000Z</time>
</trkpt>
<trkpt lat="44.047768" lon="2.730785">
<ele>658.8</ele>
<time>2013-05-08T13:55:40.000Z</time>
</trkpt>
<trkpt lat="44.04777" lon="2.730838">
<ele>658</ele>
<time>2013-05-08T13:55:41.000Z</time>
</trkpt>
<trkpt lat="44.047772" lon="2.7309">
<ele>657.2</ele>
<time>2013-05-08T13:55:42.000Z</time>
</trkpt>
<trkpt lat="44.047784" lon="2.730954">
<ele>656.5</ele>
<time>2013-05-08T13:55:43.000Z</time>
</trkpt>
<trkpt lat="44.047797" lon="2.731016">
<ele>655.9</ele>
<time>2013-05-08T13:55:44.000Z</time>
</trkpt>
<trkpt lat="44.047821" lon="2.731065">
<ele>655.4</ele>
<time>2013-05-08T13:55:45.000Z</time>
</trkpt>
<trkpt lat="44.047848" lon="2.731096">
<ele>655.3</ele>
<time>2013-05-08T13:55:46.000Z</time>
</trkpt>
<trkpt lat="44.047876" lon="2.731122">
<ele>655.2</ele>
<time>2013-05-08T13:55:47.000Z</time>
</trkpt>
<trkpt lat="44.047895" lon="2.731135">
<ele>655.1</ele>
<time>2013-05-08T13:55:48.000Z</time>
</trkpt>
<trkpt lat="44.047923" lon="2.731147">
<ele>655</ele>
<time>2013-05-08T13:55:49.000Z</time>
</trkpt>
<trkpt lat="44.047943" lon="2.73115">
<ele>654.9</ele>
<time>2013-05-08T13:55:50.000Z</time>
</trkpt>
<trkpt lat="44.047973" lon="2.731155">
<ele>654.9</ele>
<time>2013-05-08T13:55:51.000Z</time>
</trkpt>
<trkpt lat="44.048001" lon="2.731158">
<ele>654.8</ele>
<time>2013-05-08T13:55:52.000Z</time>
</trkpt>
<trkpt lat="44.048029" lon="2.731165">
<ele>654.7</ele>
<time>2013-05-08T13:55:53.000Z</time>
</trkpt>
<trkpt lat="44.048057" lon="2.731174">
<ele>654.7</ele>
<time>2013-05-08T13:55:54.000Z</time>
</trkpt>
<trkpt lat="44.048097" lon="2.731146">
<ele>652.6</ele>
<time>2013-05-08T14:00:55.000Z</time>
</trkpt>
<trkpt lat="44.048098" lon="2.731143">
<ele>652.5</ele>
<time>2013-05-08T14:00:56.000Z</time>
</trkpt>
<trkpt lat="44.048066" lon="2.7311">
<ele>651.5</ele>
<time>2013-05-08T14:03:36.000Z</time>
</trkpt>
<trkpt lat="44.048064" lon="2.731099">
<ele>651.6</ele>
<time>2013-05-08T14:03:37.000Z</time>
</trkpt>
<trkpt lat="44.048099" lon="2.731134">
<ele>653.5</ele>
<time>2013-05-08T14:06:12.000Z</time>
</trkpt>
<trkpt lat="44.048102" lon="2.731135">
<ele>653.5</ele>
<time>2013-05-08T14:06:13.000Z</time>
</trkpt>
<trkpt lat="44.048139" lon="2.731114">
<ele>653.2</ele>
<time>2013-05-08T14:06:28.000Z</time>
</trkpt>
<trkpt lat="44.048175" lon="2.731089">
<ele>653.1</ele>
<time>2013-05-08T14:06:29.000Z</time>
</trkpt>
<trkpt lat="44.048217" lon="2.731062">
<ele>652</ele>
<time>2013-05-08T14:06:30.000Z</time>
</trkpt>
<trkpt lat="44.048254" lon="2.731039">
<ele>651.1</ele>
<time>2013-05-08T14:06:31.000Z</time>
</trkpt>
<trkpt lat="44.048284" lon="2.731016">
<ele>651</ele>
<time>2013-05-08T14:06:32.000Z</time>
</trkpt>
<trkpt lat="44.048307" lon="2.731005">
<ele>651</ele>
<time>2013-05-08T14:06:33.000Z</time>
</trkpt>
<trkpt lat="44.048338" lon="2.730979">
<ele>650.7</ele>
<time>2013-05-08T14:06:34.000Z</time>
</trkpt>
<trkpt lat="44.048382" lon="2.730938">
<ele>650.5</ele>
<time>2013-05-08T14:06:35.000Z</time>
</trkpt>
<trkpt lat="44.048432" lon="2.7309">
<ele>650.1</ele>
<time>2013-05-08T14:06:36.000Z</time>
</trkpt>
<trkpt lat="44.048492" lon="2.730838">
<ele>649.7</ele>
<time>2013-05-08T14:06:37.000Z</time>
</trkpt>
<trkpt lat="44.048554" lon="2.730767">
<ele>649.2</ele>
<time>2013-05-08T14:06:38.000Z</time>
</trkpt>
<trkpt lat="44.048623" lon="2.730703">
<ele>648.6</ele>
<time>2013-05-08T14:06:39.000Z</time>
</trkpt>
<trkpt lat="44.048701" lon="2.730631">
<ele>648.2</ele>
<time>2013-05-08T14:06:40.000Z</time>
</trkpt>
<trkpt lat="44.048794" lon="2.730595">
<ele>647.3</ele>
<time>2013-05-08T14:06:41.000Z</time>
</trkpt>
<trkpt lat="44.048882" lon="2.730559">
<ele>646.5</ele>
<time>2013-05-08T14:06:42.000Z</time>
</trkpt>
<trkpt lat="44.04898" lon="2.730587">
<ele>645.9</ele>
<time>2013-05-08T14:06:43.000Z</time>
</trkpt>
<trkpt lat="44.049087" lon="2.730638">
<ele>645.5</ele>
<time>2013-05-08T14:06:44.000Z</time>
</trkpt>
<trkpt lat="44.049186" lon="2.730727">
<ele>645.2</ele>
<time>2013-05-08T14:06:45.000Z</time>
</trkpt>
<trkpt lat="44.049281" lon="2.730822">
<ele>644.3</ele>
<time>2013-05-08T14:06:46.000Z</time>
</trkpt>
<trkpt lat="44.049368" lon="2.73091">
<ele>643.1</ele>
<time>2013-05-08T14:06:47.000Z</time>
</trkpt>
<trkpt lat="44.049456" lon="2.73095">
<ele>641.6</ele>
<time>2013-05-08T14:06:48.000Z</time>
</trkpt>
<trkpt lat="44.049554" lon="2.73095">
<ele>639.9</ele>
<time>2013-05-08T14:06:49.000Z</time>
</trkpt>
<trkpt lat="44.049649" lon="2.730915">
<ele>638.6</ele>
<time>2013-05-08T14:06:50.000Z</time>
</trkpt>
<trkpt lat="44.049744" lon="2.730872">
<ele>637.7</ele>
<time>2013-05-08T14:06:51.000Z</time>
</trkpt>
<trkpt lat="44.049841" lon="2.730817">
<ele>636.9</ele>
<time>2013-05-08T14:06:52.000Z</time>
</trkpt>
<trkpt lat="44.049946" lon="2.730763">
<ele>636.1</ele>
<time>2013-05-08T14:06:53.000Z</time>
</trkpt>
<trkpt lat="44.050055" lon="2.730725">
<ele>635.6</ele>
<time>2013-05-08T14:06:54.000Z</time>
</trkpt>
<trkpt lat="44.050168" lon="2.730691">
<ele>635.2</ele>
<time>2013-05-08T14:06:55.000Z</time>
</trkpt>
<trkpt lat="44.050287" lon="2.730671">
<ele>634.9</ele>
<time>2013-05-08T14:06:56.000Z</time>
</trkpt>
<trkpt lat="44.050402" lon="2.730684">
<ele>634.6</ele>
<time>2013-05-08T14:06:57.000Z</time>
</trkpt>
<trkpt lat="44.050516" lon="2.730681">
<ele>634.2</ele>
<time>2013-05-08T14:06:58.000Z</time>
</trkpt>
<trkpt lat="44.050636" lon="2.730663">
<ele>633.5</ele>
<time>2013-05-08T14:06:59.000Z</time>
</trkpt>
<trkpt lat="44.05075" lon="2.730573">
<ele>632.9</ele>
<time>2013-05-08T14:07:00.000Z</time>
</trkpt>
<trkpt lat="44.05086" lon="2.730472">
<ele>632.5</ele>
<time>2013-05-08T14:07:01.000Z</time>
</trkpt>
<trkpt lat="44.050966" lon="2.730358">
<ele>632.1</ele>
<time>2013-05-08T14:07:02.000Z</time>
</trkpt>
<trkpt lat="44.051069" lon="2.730234">
<ele>631.4</ele>
<time>2013-05-08T14:07:03.000Z</time>
</trkpt>
<trkpt lat="44.051166" lon="2.730106">
<ele>630.8</ele>
<time>2013-05-08T14:07:04.000Z</time>
</trkpt>
<trkpt lat="44.05126" lon="2.729964">
<ele>630.2</ele>
<time>2013-05-08T14:07:05.000Z</time>
</trkpt>
<trkpt lat="44.05135" lon="2.729813">
<ele>629.5</ele>
<time>2013-05-08T14:07:06.000Z</time>
</trkpt>
<trkpt lat="44.051431" lon="2.729652">
<ele>629.2</ele>
<time>2013-05-08T14:07:07.000Z</time>
</trkpt>
<trkpt lat="44.051508" lon="2.729485">
<ele>628.9</ele>
<time>2013-05-08T14:07:08.000Z</time>
</trkpt>
<trkpt lat="44.051585" lon="2.729314">
<ele>628.9</ele>
<time>2013-05-08T14:07:09.000Z</time>
</trkpt>
<trkpt lat="44.051671" lon="2.729135">
<ele>628.9</ele>
<time>2013-05-08T14:07:10.000Z</time>
</trkpt>
<trkpt lat="44.051764" lon="2.728953">
<ele>628.7</ele>
<time>2013-05-08T14:07:11.000Z</time>
</trkpt>
<trkpt lat="44.051856" lon="2.728765">
<ele>628.8</ele>
<time>2013-05-08T14:07:12.000Z</time>
</trkpt>
<trkpt lat="44.051953" lon="2.728596">
<ele>628.9</ele>
<time>2013-05-08T14:07:13.000Z</time>
</trkpt>
<trkpt lat="44.052053" lon="2.72844">
<ele>628.8</ele>
<time>2013-05-08T14:07:14.000Z</time>
</trkpt>
<trkpt lat="44.052146" lon="2.728298">
<ele>628.5</ele>
<time>2013-05-08T14:07:15.000Z</time>
</trkpt>
<trkpt lat="44.052223" lon="2.728179">
<ele>628.2</ele>
<time>2013-05-08T14:07:16.000Z</time>
</trkpt>
<trkpt lat="44.052295" lon="2.728082">
<ele>627.8</ele>
<time>2013-05-08T14:07:17.000Z</time>
</trkpt>
<trkpt lat="44.052361" lon="2.727996">
<ele>627.2</ele>
<time>2013-05-08T14:07:18.000Z</time>
</trkpt>
<trkpt lat="44.052435" lon="2.72793">
<ele>627</ele>
<time>2013-05-08T14:07:19.000Z</time>
</trkpt>
<trkpt lat="44.052533" lon="2.728047">
<ele>626.7</ele>
<time>2013-05-08T14:07:20.000Z</time>
</trkpt>
<trkpt lat="44.052606" lon="2.728207">
<ele>626.1</ele>
<time>2013-05-08T14:07:21.000Z</time>
</trkpt>
<trkpt lat="44.052676" lon="2.728384">
<ele>625.4</ele>
<time>2013-05-08T14:07:22.000Z</time>
</trkpt>
<trkpt lat="44.052744" lon="2.728565">
<ele>624.5</ele>
<time>2013-05-08T14:07:23.000Z</time>
</trkpt>
<trkpt lat="44.052814" lon="2.728749">
<ele>623.5</ele>
<time>2013-05-08T14:07:24.000Z</time>
</trkpt>
<trkpt lat="44.052885" lon="2.728918">
<ele>622.7</ele>
<time>2013-05-08T14:07:25.000Z</time>
</trkpt>
<trkpt lat="44.052954" lon="2.729068">
<ele>621.8</ele>
<time>2013-05-08T14:07:26.000Z</time>
</trkpt>
<trkpt lat="44.053027" lon="2.729202">
<ele>620.7</ele>
<time>2013-05-08T14:07:27.000Z</time>
</trkpt>
<trkpt lat="44.053123" lon="2.729292">
<ele>619.7</ele>
<time>2013-05-08T14:07:28.000Z</time>
</trkpt>
<trkpt lat="44.053215" lon="2.729367">
<ele>618.7</ele>
<time>2013-05-08T14:07:29.000Z</time>
</trkpt>
<trkpt lat="44.053336" lon="2.72936">
<ele>617.9</ele>
<time>2013-05-08T14:07:30.000Z</time>
</trkpt>
<trkpt lat="44.053461" lon="2.729341">
<ele>617.3</ele>
<time>2013-05-08T14:07:31.000Z</time>
</trkpt>
<trkpt lat="44.053586" lon="2.729318">
<ele>616.6</ele>
<time>2013-05-08T14:07:32.000Z</time>
</trkpt>
<trkpt lat="44.053708" lon="2.729295">
<ele>615.8</ele>
<time>2013-05-08T14:07:33.000Z</time>
</trkpt>
<trkpt lat="44.053815" lon="2.729278">
<ele>615</ele>
<time>2013-05-08T14:07:34.000Z</time>
</trkpt>
<trkpt lat="44.053899" lon="2.729262">
<ele>613.9</ele>
<time>2013-05-08T14:07:35.000Z</time>
</trkpt>
<trkpt lat="44.05397" lon="2.729236">
<ele>613.2</ele>
<time>2013-05-08T14:07:36.000Z</time>
</trkpt>
<trkpt lat="44.054033" lon="2.72922">
<ele>612.6</ele>
<time>2013-05-08T14:07:37.000Z</time>
</trkpt>
<trkpt lat="44.054062" lon="2.729257">
<ele>611.8</ele>
<time>2013-05-08T14:07:38.000Z</time>
</trkpt>
<trkpt lat="44.054063" lon="2.729306">
<ele>611.6</ele>
<time>2013-05-08T14:07:39.000Z</time>
</trkpt>
<trkpt lat="44.054039" lon="2.729353">
<ele>611.3</ele>
<time>2013-05-08T14:07:40.000Z</time>
</trkpt>
<trkpt lat="44.053989" lon="2.72937">
<ele>611</ele>
<time>2013-05-08T14:07:41.000Z</time>
</trkpt>
<trkpt lat="44.053915" lon="2.729372">
<ele>610.6</ele>
<time>2013-05-08T14:07:42.000Z</time>
</trkpt>
<trkpt lat="44.053824" lon="2.729374">
<ele>610.3</ele>
<time>2013-05-08T14:07:43.000Z</time>
</trkpt>
<trkpt lat="44.05372" lon="2.729379">
<ele>609.7</ele>
<time>2013-05-08T14:07:44.000Z</time>
</trkpt>
<trkpt lat="44.053612" lon="2.72939">
<ele>608.9</ele>
<time>2013-05-08T14:07:45.000Z</time>
</trkpt>
<trkpt lat="44.053497" lon="2.729397">
<ele>608.1</ele>
<time>2013-05-08T14:07:46.000Z</time>
</trkpt>
<trkpt lat="44.053382" lon="2.729455">
<ele>607.2</ele>
<time>2013-05-08T14:07:47.000Z</time>
</trkpt>
<trkpt lat="44.053277" lon="2.729514">
<ele>606.1</ele>
<time>2013-05-08T14:07:48.000Z</time>
</trkpt>
<trkpt lat="44.053169" lon="2.729525">
<ele>605.4</ele>
<time>2013-05-08T14:07:49.000Z</time>
</trkpt>
<trkpt lat="44.053062" lon="2.729473">
<ele>605</ele>
<time>2013-05-08T14:07:50.000Z</time>
</trkpt>
<trkpt lat="44.052961" lon="2.729409">
<ele>604.3</ele>
<time>2013-05-08T14:07:51.000Z</time>
</trkpt>
<trkpt lat="44.052855" lon="2.72933">
<ele>603.8</ele>
<time>2013-05-08T14:07:52.000Z</time>
</trkpt>
<trkpt lat="44.052749" lon="2.729233">
<ele>603</ele>
<time>2013-05-08T14:07:53.000Z</time>
</trkpt>
<trkpt lat="44.052648" lon="2.729125">
<ele>601.9</ele>
<time>2013-05-08T14:07:54.000Z</time>
</trkpt>
<trkpt lat="44.05257" lon="2.729004">
<ele>601</ele>
<time>2013-05-08T14:07:55.000Z</time>
</trkpt>
<trkpt lat="44.0525" lon="2.728907">
<ele>600.5</ele>
<time>2013-05-08T14:07:56.000Z</time>
</trkpt>
<trkpt lat="44.052398" lon="2.72888">
<ele>599.6</ele>
<time>2013-05-08T14:07:57.000Z</time>
</trkpt>
<trkpt lat="44.05231" lon="2.728867">
<ele>599.3</ele>
<time>2013-05-08T14:07:58.000Z</time>
</trkpt>
<trkpt lat="44.052224" lon="2.728862">
<ele>598.7</ele>
<time>2013-05-08T14:07:59.000Z</time>
</trkpt>
<trkpt lat="44.052129" lon="2.72896">
<ele>598.5</ele>
<time>2013-05-08T14:08:00.000Z</time>
</trkpt>
<trkpt lat="44.052041" lon="2.729123">
<ele>598.3</ele>
<time>2013-05-08T14:08:01.000Z</time>
</trkpt>
<trkpt lat="44.051992" lon="2.729317">
<ele>598.5</ele>
<time>2013-05-08T14:08:02.000Z</time>
</trkpt>
<trkpt lat="44.051965" lon="2.729546">
<ele>598.6</ele>
<time>2013-05-08T14:08:03.000Z</time>
</trkpt>
<trkpt lat="44.051931" lon="2.729798">
<ele>598.6</ele>
<time>2013-05-08T14:08:04.000Z</time>
</trkpt>
<trkpt lat="44.051879" lon="2.730052">
<ele>598.4</ele>
<time>2013-05-08T14:08:05.000Z</time>
</trkpt>
<trkpt lat="44.051812" lon="2.730309">
<ele>598.1</ele>
<time>2013-05-08T14:08:06.000Z</time>
</trkpt>
<trkpt lat="44.05174" lon="2.730564">
<ele>597.9</ele>
<time>2013-05-08T14:08:07.000Z</time>
</trkpt>
<trkpt lat="44.051673" lon="2.730809">
<ele>597.7</ele>
<time>2013-05-08T14:08:08.000Z</time>
</trkpt>
<trkpt lat="44.051604" lon="2.731043">
<ele>597.3</ele>
<time>2013-05-08T14:08:09.000Z</time>
</trkpt>
<trkpt lat="44.051536" lon="2.731252">
<ele>597.3</ele>
<time>2013-05-08T14:08:10.000Z</time>
</trkpt>
<trkpt lat="44.051449" lon="2.731458">
<ele>597.2</ele>
<time>2013-05-08T14:08:11.000Z</time>
</trkpt>
<trkpt lat="44.051357" lon="2.731648">
<ele>596.9</ele>
<time>2013-05-08T14:08:12.000Z</time>
</trkpt>
<trkpt lat="44.05127" lon="2.7318">
<ele>596</ele>
<time>2013-05-08T14:08:13.000Z</time>
</trkpt>
<trkpt lat="44.051187" lon="2.731925">
<ele>595.1</ele>
<time>2013-05-08T14:08:14.000Z</time>
</trkpt>
<trkpt lat="44.051086" lon="2.732023">
<ele>593.8</ele>
<time>2013-05-08T14:08:15.000Z</time>
</trkpt>
<trkpt lat="44.050981" lon="2.732065">
<ele>592.4</ele>
<time>2013-05-08T14:08:16.000Z</time>
</trkpt>
<trkpt lat="44.05088" lon="2.732107">
<ele>591.2</ele>
<time>2013-05-08T14:08:17.000Z</time>
</trkpt>
<trkpt lat="44.050762" lon="2.732135">
<ele>590.2</ele>
<time>2013-05-08T14:08:18.000Z</time>
</trkpt>
<trkpt lat="44.05065" lon="2.732174">
<ele>589.3</ele>
<time>2013-05-08T14:08:19.000Z</time>
</trkpt>
<trkpt lat="44.050539" lon="2.732222">
<ele>588.7</ele>
<time>2013-05-08T14:08:20.000Z</time>
</trkpt>
<trkpt lat="44.05043" lon="2.732265">
<ele>588.5</ele>
<time>2013-05-08T14:08:21.000Z</time>
</trkpt>
<trkpt lat="44.050342" lon="2.732378">
<ele>588.3</ele>
<time>2013-05-08T14:08:22.000Z</time>
</trkpt>
<trkpt lat="44.050282" lon="2.732542">
<ele>586.9</ele>
<time>2013-05-08T14:08:23.000Z</time>
</trkpt>
<trkpt lat="44.050219" lon="2.7327">
<ele>585.9</ele>
<time>2013-05-08T14:08:24.000Z</time>
</trkpt>
<trkpt lat="44.050162" lon="2.732843">
<ele>584.8</ele>
<time>2013-05-08T14:08:25.000Z</time>
</trkpt>
<trkpt lat="44.05011" lon="2.732975">
<ele>583.7</ele>
<time>2013-05-08T14:08:26.000Z</time>
</trkpt>
<trkpt lat="44.050041" lon="2.733058">
<ele>582.6</ele>
<time>2013-05-08T14:08:27.000Z</time>
</trkpt>
<trkpt lat="44.049984" lon="2.733127">
<ele>581.6</ele>
<time>2013-05-08T14:08:28.000Z</time>
</trkpt>
<trkpt lat="44.049902" lon="2.733194">
<ele>581.2</ele>
<time>2013-05-08T14:08:29.000Z</time>
</trkpt>
<trkpt lat="44.04979" lon="2.733123">
<ele>580.8</ele>
<time>2013-05-08T14:08:30.000Z</time>
</trkpt>
<trkpt lat="44.049675" lon="2.733045">
<ele>580.1</ele>
<time>2013-05-08T14:08:31.000Z</time>
</trkpt>
<trkpt lat="44.049553" lon="2.732975">
<ele>578.9</ele>
<time>2013-05-08T14:08:32.000Z</time>
</trkpt>
<trkpt lat="44.049427" lon="2.732913">
<ele>577.9</ele>
<time>2013-05-08T14:08:33.000Z</time>
</trkpt>
<trkpt lat="44.049299" lon="2.732858">
<ele>577.1</ele>
<time>2013-05-08T14:08:34.000Z</time>
</trkpt>
<trkpt lat="44.049176" lon="2.732841">
<ele>576</ele>
<time>2013-05-08T14:08:35.000Z</time>
</trkpt>
<trkpt lat="44.049057" lon="2.732831">
<ele>574.9</ele>
<time>2013-05-08T14:08:36.000Z</time>
</trkpt>
<trkpt lat="44.048939" lon="2.732848">
<ele>574</ele>
<time>2013-05-08T14:08:37.000Z</time>
</trkpt>
<trkpt lat="44.048841" lon="2.732968">
<ele>573.4</ele>
<time>2013-05-08T14:08:38.000Z</time>
</trkpt>
<trkpt lat="44.048764" lon="2.733105">
<ele>572.7</ele>
<time>2013-05-08T14:08:39.000Z</time>
</trkpt>
<trkpt lat="44.048734" lon="2.733283">
<ele>572.2</ele>
<time>2013-05-08T14:08:40.000Z</time>
</trkpt>
<trkpt lat="44.048707" lon="2.733483">
<ele>572</ele>
<time>2013-05-08T14:08:41.000Z</time>
</trkpt>
<trkpt lat="44.048712" lon="2.733709">
<ele>571.6</ele>
<time>2013-05-08T14:08:42.000Z</time>
</trkpt>
<trkpt lat="44.048722" lon="2.73395">
<ele>571.3</ele>
<time>2013-05-08T14:08:43.000Z</time>
</trkpt>
<trkpt lat="44.04873" lon="2.734213">
<ele>571</ele>
<time>2013-05-08T14:08:44.000Z</time>
</trkpt>
<trkpt lat="44.04874" lon="2.734466">
<ele>570.5</ele>
<time>2013-05-08T14:08:45.000Z</time>
</trkpt>
<trkpt lat="44.048745" lon="2.734706">
<ele>570</ele>
<time>2013-05-08T14:08:46.000Z</time>
</trkpt>
<trkpt lat="44.048755" lon="2.734926">
<ele>568.6</ele>
<time>2013-05-08T14:08:47.000Z</time>
</trkpt>
<trkpt lat="44.04876" lon="2.735151">
<ele>567.4</ele>
<time>2013-05-08T14:08:48.000Z</time>
</trkpt>
<trkpt lat="44.048756" lon="2.73536">
<ele>566.3</ele>
<time>2013-05-08T14:08:49.000Z</time>
</trkpt>
<trkpt lat="44.048706" lon="2.735548">
<ele>565.6</ele>
<time>2013-05-08T14:08:50.000Z</time>
</trkpt>
<trkpt lat="44.048649" lon="2.735737">
<ele>564.2</ele>
<time>2013-05-08T14:08:51.000Z</time>
</trkpt>
<trkpt lat="44.048579" lon="2.73592">
<ele>562.7</ele>
<time>2013-05-08T14:08:52.000Z</time>
</trkpt>
<trkpt lat="44.048502" lon="2.736082">
<ele>561</ele>
<time>2013-05-08T14:08:53.000Z</time>
</trkpt>
<trkpt lat="44.048416" lon="2.736238">
<ele>559.4</ele>
<time>2013-05-08T14:08:54.000Z</time>
</trkpt>
<trkpt lat="44.0483" lon="2.736346">
<ele>558</ele>
<time>2013-05-08T14:08:55.000Z</time>
</trkpt>
<trkpt lat="44.048176" lon="2.736451">
<ele>556.5</ele>
<time>2013-05-08T14:08:56.000Z</time>
</trkpt>
<trkpt lat="44.048047" lon="2.736552">
<ele>555.6</ele>
<time>2013-05-08T14:08:57.000Z</time>
</trkpt>
<trkpt lat="44.047911" lon="2.736638">
<ele>554.9</ele>
<time>2013-05-08T14:08:58.000Z</time>
</trkpt>
<trkpt lat="44.047773" lon="2.736706">
<ele>554.2</ele>
<time>2013-05-08T14:08:59.000Z</time>
</trkpt>
<trkpt lat="44.047635" lon="2.736768">
<ele>553.3</ele>
<time>2013-05-08T14:09:00.000Z</time>
</trkpt>
<trkpt lat="44.047503" lon="2.736824">
<ele>552.2</ele>
<time>2013-05-08T14:09:01.000Z</time>
</trkpt>
<trkpt lat="44.047377" lon="2.736876">
<ele>550.9</ele>
<time>2013-05-08T14:09:02.000Z</time>
</trkpt>
<trkpt lat="44.047251" lon="2.736876">
<ele>549.8</ele>
<time>2013-05-08T14:09:03.000Z</time>
</trkpt>
<trkpt lat="44.047133" lon="2.736831">
<ele>549</ele>
<time>2013-05-08T14:09:04.000Z</time>
</trkpt>
<trkpt lat="44.047014" lon="2.736766">
<ele>548.3</ele>
<time>2013-05-08T14:09:05.000Z</time>
</trkpt>
<trkpt lat="44.046939" lon="2.736599">
<ele>546.7</ele>
<time>2013-05-08T14:09:06.000Z</time>
</trkpt>
<trkpt lat="44.046883" lon="2.736413">
<ele>545.6</ele>
<time>2013-05-08T14:09:07.000Z</time>
</trkpt>
<trkpt lat="44.046834" lon="2.736214">
<ele>544.3</ele>
<time>2013-05-08T14:09:08.000Z</time>
</trkpt>
<trkpt lat="44.046793" lon="2.736026">
<ele>543.4</ele>
<time>2013-05-08T14:09:09.000Z</time>
</trkpt>
<trkpt lat="44.046752" lon="2.735824">
<ele>542.5</ele>
<time>2013-05-08T14:09:10.000Z</time>
</trkpt>
<trkpt lat="44.046715" lon="2.73563">
<ele>541.7</ele>
<time>2013-05-08T14:09:11.000Z</time>
</trkpt>
<trkpt lat="44.046681" lon="2.735455">
<ele>540.7</ele>
<time>2013-05-08T14:09:12.000Z</time>
</trkpt>
<trkpt lat="44.046651" lon="2.735292">
<ele>539.6</ele>
<time>2013-05-08T14:09:13.000Z</time>
</trkpt>
<trkpt lat="44.046598" lon="2.735178">
<ele>538.9</ele>
<time>2013-05-08T14:09:14.000Z</time>
</trkpt>
<trkpt lat="44.046515" lon="2.735104">
<ele>538</ele>
<time>2013-05-08T14:09:15.000Z</time>
</trkpt>
<trkpt lat="44.046421" lon="2.73508">
<ele>537</ele>
<time>2013-05-08T14:09:16.000Z</time>
</trkpt>
<trkpt lat="44.046317" lon="2.735092">
<ele>535.9</ele>
<time>2013-05-08T14:09:17.000Z</time>
</trkpt>
<trkpt lat="44.046202" lon="2.735147">
<ele>534.7</ele>
<time>2013-05-08T14:09:18.000Z</time>
</trkpt>
<trkpt lat="44.046072" lon="2.735222">
<ele>533.8</ele>
<time>2013-05-08T14:09:19.000Z</time>
</trkpt>
<trkpt lat="44.045935" lon="2.735301">
<ele>533.2</ele>
<time>2013-05-08T14:09:20.000Z</time>
</trkpt>
<trkpt lat="44.045778" lon="2.735388">
<ele>532.5</ele>
<time>2013-05-08T14:09:21.000Z</time>
</trkpt>
<trkpt lat="44.045614" lon="2.735467">
<ele>531.9</ele>
<time>2013-05-08T14:09:22.000Z</time>
</trkpt>
<trkpt lat="44.04544" lon="2.735536">
<ele>531.1</ele>
<time>2013-05-08T14:09:23.000Z</time>
</trkpt>
<trkpt lat="44.04527" lon="2.735593">
<ele>530.4</ele>
<time>2013-05-08T14:09:24.000Z</time>
</trkpt>
<trkpt lat="44.045105" lon="2.735646">
<ele>529</ele>
<time>2013-05-08T14:09:25.000Z</time>
</trkpt>
<trkpt lat="44.044959" lon="2.735705">
<ele>527.8</ele>
<time>2013-05-08T14:09:26.000Z</time>
</trkpt>
<trkpt lat="44.044833" lon="2.735769">
<ele>526.9</ele>
<time>2013-05-08T14:09:27.000Z</time>
</trkpt>
<trkpt lat="44.044723" lon="2.73584">
<ele>526.3</ele>
<time>2013-05-08T14:09:28.000Z</time>
</trkpt>
<trkpt lat="44.044625" lon="2.735912">
<ele>525.8</ele>
<time>2013-05-08T14:09:29.000Z</time>
</trkpt>
<trkpt lat="44.044533" lon="2.735978">
<ele>525.5</ele>
<time>2013-05-08T14:09:30.000Z</time>
</trkpt>
<trkpt lat="44.044441" lon="2.735995">
<ele>525</ele>
<time>2013-05-08T14:09:31.000Z</time>
</trkpt>
<trkpt lat="44.044366" lon="2.735999">
<ele>524.5</ele>
<time>2013-05-08T14:09:32.000Z</time>
</trkpt>
<trkpt lat="44.044301" lon="2.735996">
<ele>524.1</ele>
<time>2013-05-08T14:09:33.000Z</time>
</trkpt>
<trkpt lat="44.04424" lon="2.735994">
<ele>523.6</ele>
<time>2013-05-08T14:09:34.000Z</time>
</trkpt>
<trkpt lat="44.044189" lon="2.736014">
<ele>523</ele>
<time>2013-05-08T14:09:35.000Z</time>
</trkpt>
<trkpt lat="44.044154" lon="2.736067">
<ele>522.5</ele>
<time>2013-05-08T14:09:36.000Z</time>
</trkpt>
<trkpt lat="44.044143" lon="2.736134">
<ele>522.3</ele>
<time>2013-05-08T14:09:37.000Z</time>
</trkpt>
<trkpt lat="44.044155" lon="2.73619">
<ele>522.2</ele>
<time>2013-05-08T14:09:38.000Z</time>
</trkpt>
<trkpt lat="44.04418" lon="2.736232">
<ele>522.6</ele>
<time>2013-05-08T14:09:39.000Z</time>
</trkpt>
<trkpt lat="44.04422" lon="2.736263">
<ele>523.1</ele>
<time>2013-05-08T14:09:40.000Z</time>
</trkpt>
<trkpt lat="44.044278" lon="2.736287">
<ele>523.2</ele>
<time>2013-05-08T14:09:41.000Z</time>
</trkpt>
<trkpt lat="44.044348" lon="2.7363">
<ele>523.2</ele>
<time>2013-05-08T14:09:42.000Z</time>
</trkpt>
<trkpt lat="44.044424" lon="2.736288">
<ele>523.1</ele>
<time>2013-05-08T14:09:43.000Z</time>
</trkpt>
<trkpt lat="44.044505" lon="2.736272">
<ele>522.9</ele>
<time>2013-05-08T14:09:44.000Z</time>
</trkpt>
<trkpt lat="44.044588" lon="2.73625">
<ele>522.7</ele>
<time>2013-05-08T14:09:45.000Z</time>
</trkpt>
<trkpt lat="44.044672" lon="2.736222">
<ele>522.5</ele>
<time>2013-05-08T14:09:46.000Z</time>
</trkpt>
<trkpt lat="44.044756" lon="2.736193">
<ele>522.1</ele>
<time>2013-05-08T14:09:47.000Z</time>
</trkpt>
<trkpt lat="44.044842" lon="2.736157">
<ele>521.9</ele>
<time>2013-05-08T14:09:48.000Z</time>
</trkpt>
<trkpt lat="44.044933" lon="2.736119">
<ele>521.6</ele>
<time>2013-05-08T14:09:49.000Z</time>
</trkpt>
<trkpt lat="44.045031" lon="2.736087">
<ele>521.2</ele>
<time>2013-05-08T14:09:50.000Z</time>
</trkpt>
<trkpt lat="44.045149" lon="2.73606">
<ele>520.5</ele>
<time>2013-05-08T14:09:51.000Z</time>
</trkpt>
<trkpt lat="44.045273" lon="2.73604">
<ele>519.7</ele>
<time>2013-05-08T14:09:52.000Z</time>
</trkpt>
<trkpt lat="44.045403" lon="2.736023">
<ele>518.7</ele>
<time>2013-05-08T14:09:53.000Z</time>
</trkpt>
<trkpt lat="44.045536" lon="2.736006">
<ele>517.7</ele>
<time>2013-05-08T14:09:54.000Z</time>
</trkpt>
<trkpt lat="44.045667" lon="2.735996">
<ele>516.7</ele>
<time>2013-05-08T14:09:55.000Z</time>
</trkpt>
<trkpt lat="44.045792" lon="2.735988">
<ele>515.9</ele>
<time>2013-05-08T14:09:56.000Z</time>
</trkpt>
<trkpt lat="44.045916" lon="2.735981">
<ele>515.1</ele>
<time>2013-05-08T14:09:57.000Z</time>
</trkpt>
<trkpt lat="44.046029" lon="2.735979">
<ele>514.5</ele>
<time>2013-05-08T14:09:58.000Z</time>
</trkpt>
<trkpt lat="44.04615" lon="2.736022">
<ele>513.6</ele>
<time>2013-05-08T14:09:59.000Z</time>
</trkpt>
<trkpt lat="44.046221" lon="2.736126">
<ele>512.5</ele>
<time>2013-05-08T14:10:00.000Z</time>
</trkpt>
<trkpt lat="44.046256" lon="2.736254">
<ele>511.3</ele>
<time>2013-05-08T14:10:01.000Z</time>
</trkpt>
<trkpt lat="44.046265" lon="2.736426">
<ele>510.5</ele>
<time>2013-05-08T14:10:02.000Z</time>
</trkpt>
<trkpt lat="44.046266" lon="2.736615">
<ele>509.8</ele>
<time>2013-05-08T14:10:03.000Z</time>
</trkpt>
<trkpt lat="44.046262" lon="2.7368">
<ele>509.5</ele>
<time>2013-05-08T14:10:04.000Z</time>
</trkpt>
<trkpt lat="44.046257" lon="2.736986">
<ele>508.9</ele>
<time>2013-05-08T14:10:05.000Z</time>
</trkpt>
<trkpt lat="44.046249" lon="2.737157">
<ele>508.3</ele>
<time>2013-05-08T14:10:06.000Z</time>
</trkpt>
<trkpt lat="44.046238" lon="2.737324">
<ele>507.6</ele>
<time>2013-05-08T14:10:07.000Z</time>
</trkpt>
<trkpt lat="44.046232" lon="2.737485">
<ele>506.6</ele>
<time>2013-05-08T14:10:08.000Z</time>
</trkpt>
<trkpt lat="44.046229" lon="2.737627">
<ele>505.7</ele>
<time>2013-05-08T14:10:09.000Z</time>
</trkpt>
<trkpt lat="44.046226" lon="2.737749">
<ele>505.1</ele>
<time>2013-05-08T14:10:10.000Z</time>
</trkpt>
<trkpt lat="44.046224" lon="2.737872">
<ele>504.3</ele>
<time>2013-05-08T14:10:11.000Z</time>
</trkpt>
<trkpt lat="44.046253" lon="2.737973">
<ele>503.3</ele>
<time>2013-05-08T14:10:12.000Z</time>
</trkpt>
<trkpt lat="44.046302" lon="2.738065">
<ele>502.2</ele>
<time>2013-05-08T14:10:13.000Z</time>
</trkpt>
<trkpt lat="44.046373" lon="2.73814">
<ele>501.4</ele>
<time>2013-05-08T14:10:14.000Z</time>
</trkpt>
<trkpt lat="44.046463" lon="2.738193">
<ele>500.6</ele>
<time>2013-05-08T14:10:15.000Z</time>
</trkpt>
<trkpt lat="44.046567" lon="2.738201">
<ele>500</ele>
<time>2013-05-08T14:10:16.000Z</time>
</trkpt>
<trkpt lat="44.046683" lon="2.738174">
<ele>499.4</ele>
<time>2013-05-08T14:10:17.000Z</time>
</trkpt>
<trkpt lat="44.046807" lon="2.738138">
<ele>498.6</ele>
<time>2013-05-08T14:10:18.000Z</time>
</trkpt>
<trkpt lat="44.046937" lon="2.73809">
<ele>497.4</ele>
<time>2013-05-08T14:10:19.000Z</time>
</trkpt>
<trkpt lat="44.047066" lon="2.738023">
<ele>496.4</ele>
<time>2013-05-08T14:10:20.000Z</time>
</trkpt>
<trkpt lat="44.047191" lon="2.73795">
<ele>495.5</ele>
<time>2013-05-08T14:10:21.000Z</time>
</trkpt>
<trkpt lat="44.047316" lon="2.737876">
<ele>494.7</ele>
<time>2013-05-08T14:10:22.000Z</time>
</trkpt>
<trkpt lat="44.047445" lon="2.737812">
<ele>494.3</ele>
<time>2013-05-08T14:10:23.000Z</time>
</trkpt>
<trkpt lat="44.047571" lon="2.737764">
<ele>494.1</ele>
<time>2013-05-08T14:10:24.000Z</time>
</trkpt>
<trkpt lat="44.0477" lon="2.73777">
<ele>494</ele>
<time>2013-05-08T14:10:25.000Z</time>
</trkpt>
<trkpt lat="44.047833" lon="2.737791">
<ele>494</ele>
<time>2013-05-08T14:10:26.000Z</time>
</trkpt>
<trkpt lat="44.047969" lon="2.737824">
<ele>494</ele>
<time>2013-05-08T14:10:27.000Z</time>
</trkpt>
<trkpt lat="44.048104" lon="2.737864">
<ele>493.8</ele>
<time>2013-05-08T14:10:28.000Z</time>
</trkpt>
<trkpt lat="44.048237" lon="2.737908">
<ele>493.4</ele>
<time>2013-05-08T14:10:29.000Z</time>
</trkpt>
<trkpt lat="44.048357" lon="2.737946">
<ele>493.1</ele>
<time>2013-05-08T14:10:30.000Z</time>
</trkpt>
<trkpt lat="44.048467" lon="2.737975">
<ele>492.8</ele>
<time>2013-05-08T14:10:31.000Z</time>
</trkpt>
<trkpt lat="44.048571" lon="2.737933">
<ele>492.1</ele>
<time>2013-05-08T14:10:32.000Z</time>
</trkpt>
<trkpt lat="44.048672" lon="2.737854">
<ele>491.6</ele>
<time>2013-05-08T14:10:33.000Z</time>
</trkpt>
<trkpt lat="44.048767" lon="2.737766">
<ele>491</ele>
<time>2013-05-08T14:10:34.000Z</time>
</trkpt>
<trkpt lat="44.048859" lon="2.737655">
<ele>490.6</ele>
<time>2013-05-08T14:10:35.000Z</time>
</trkpt>
<trkpt lat="44.048971" lon="2.737522">
<ele>490.7</ele>
<time>2013-05-08T14:10:36.000Z</time>
</trkpt>
<trkpt lat="44.049092" lon="2.737382">
<ele>490.9</ele>
<time>2013-05-08T14:10:37.000Z</time>
</trkpt>
<trkpt lat="44.04922" lon="2.737251">
<ele>491</ele>
<time>2013-05-08T14:10:38.000Z</time>
</trkpt>
<trkpt lat="44.049359" lon="2.737132">
<ele>491</ele>
<time>2013-05-08T14:10:39.000Z</time>
</trkpt>
<trkpt lat="44.049509" lon="2.737052">
<ele>490.9</ele>
<time>2013-05-08T14:10:40.000Z</time>
</trkpt>
<trkpt lat="44.049658" lon="2.736966">
<ele>490.8</ele>
<time>2013-05-08T14:10:41.000Z</time>
</trkpt>
<trkpt lat="44.049803" lon="2.736896">
<ele>490.4</ele>
<time>2013-05-08T14:10:42.000Z</time>
</trkpt>
<trkpt lat="44.049942" lon="2.736832">
<ele>489.2</ele>
<time>2013-05-08T14:10:43.000Z</time>
</trkpt>
<trkpt lat="44.05007" lon="2.736772">
<ele>487.3</ele>
<time>2013-05-08T14:10:44.000Z</time>
</trkpt>
<trkpt lat="44.050176" lon="2.736678">
<ele>485.1</ele>
<time>2013-05-08T14:10:45.000Z</time>
</trkpt>
<trkpt lat="44.050248" lon="2.736545">
<ele>483.4</ele>
<time>2013-05-08T14:10:46.000Z</time>
</trkpt>
<trkpt lat="44.050314" lon="2.736401">
<ele>482</ele>
<time>2013-05-08T14:10:47.000Z</time>
</trkpt>
<trkpt lat="44.050358" lon="2.736228">
<ele>480.9</ele>
<time>2013-05-08T14:10:48.000Z</time>
</trkpt>
<trkpt lat="44.050399" lon="2.736049">
<ele>480</ele>
<time>2013-05-08T14:10:49.000Z</time>
</trkpt>
<trkpt lat="44.050407" lon="2.73587">
<ele>479.2</ele>
<time>2013-05-08T14:10:50.000Z</time>
</trkpt>
<trkpt lat="44.050408" lon="2.735699">
<ele>478.9</ele>
<time>2013-05-08T14:10:51.000Z</time>
</trkpt>
<trkpt lat="44.050399" lon="2.735544">
<ele>477.9</ele>
<time>2013-05-08T14:10:52.000Z</time>
</trkpt>
<trkpt lat="44.050414" lon="2.735405">
<ele>476.9</ele>
<time>2013-05-08T14:10:53.000Z</time>
</trkpt>
<trkpt lat="44.050455" lon="2.735276">
<ele>476.1</ele>
<time>2013-05-08T14:10:54.000Z</time>
</trkpt>
<trkpt lat="44.050532" lon="2.735196">
<ele>475.2</ele>
<time>2013-05-08T14:10:55.000Z</time>
</trkpt>
<trkpt lat="44.050623" lon="2.735165">
<ele>474.2</ele>
<time>2013-05-08T14:10:56.000Z</time>
</trkpt>
<trkpt lat="44.050723" lon="2.735142">
<ele>473.3</ele>
<time>2013-05-08T14:10:57.000Z</time>
</trkpt>
<trkpt lat="44.050819" lon="2.735122">
<ele>472.5</ele>
<time>2013-05-08T14:10:58.000Z</time>
</trkpt>
<trkpt lat="44.050915" lon="2.735067">
<ele>472.1</ele>
<time>2013-05-08T14:10:59.000Z</time>
</trkpt>
<trkpt lat="44.051015" lon="2.735001">
<ele>471.7</ele>
<time>2013-05-08T14:11:00.000Z</time>
</trkpt>
<trkpt lat="44.051131" lon="2.734917">
<ele>471.6</ele>
<time>2013-05-08T14:11:01.000Z</time>
</trkpt>
<trkpt lat="44.051256" lon="2.734822">
<ele>471.5</ele>
<time>2013-05-08T14:11:02.000Z</time>
</trkpt>
<trkpt lat="44.051387" lon="2.734723">
<ele>471.2</ele>
<time>2013-05-08T14:11:03.000Z</time>
</trkpt>
<trkpt lat="44.051513" lon="2.734619">
<ele>470.9</ele>
<time>2013-05-08T14:11:04.000Z</time>
</trkpt>
<trkpt lat="44.051632" lon="2.734519">
<ele>470.6</ele>
<time>2013-05-08T14:11:05.000Z</time>
</trkpt>
<trkpt lat="44.051743" lon="2.734433">
<ele>470.7</ele>
<time>2013-05-08T14:11:06.000Z</time>
</trkpt>
<trkpt lat="44.051836" lon="2.734366">
<ele>470.8</ele>
<time>2013-05-08T14:11:07.000Z</time>
</trkpt>
<trkpt lat="44.051911" lon="2.73427">
<ele>470.8</ele>
<time>2013-05-08T14:11:08.000Z</time>
</trkpt>
<trkpt lat="44.051972" lon="2.73419">
<ele>470.8</ele>
<time>2013-05-08T14:11:09.000Z</time>
</trkpt>
<trkpt lat="44.052043" lon="2.734144">
<ele>470.6</ele>
<time>2013-05-08T14:11:10.000Z</time>
</trkpt>
<trkpt lat="44.052107" lon="2.734115">
<ele>470.5</ele>
<time>2013-05-08T14:11:11.000Z</time>
</trkpt>
<trkpt lat="44.052169" lon="2.734098">
<ele>470.3</ele>
<time>2013-05-08T14:11:12.000Z</time>
</trkpt>
<trkpt lat="44.052192" lon="2.734242">
<ele>470.9</ele>
<time>2013-05-08T14:11:13.000Z</time>
</trkpt>
<trkpt lat="44.052147" lon="2.734385">
<ele>471.1</ele>
<time>2013-05-08T14:11:14.000Z</time>
</trkpt>
<trkpt lat="44.052087" lon="2.73453">
<ele>471.4</ele>
<time>2013-05-08T14:11:15.000Z</time>
</trkpt>
<trkpt lat="44.051984" lon="2.734683">
<ele>471.4</ele>
<time>2013-05-08T14:11:16.000Z</time>
</trkpt>
<trkpt lat="44.051871" lon="2.734848">
<ele>471.6</ele>
<time>2013-05-08T14:11:17.000Z</time>
</trkpt>
<trkpt lat="44.051762" lon="2.735024">
<ele>471.9</ele>
<time>2013-05-08T14:11:18.000Z</time>
</trkpt>
<trkpt lat="44.051654" lon="2.735197">
<ele>472.2</ele>
<time>2013-05-08T14:11:19.000Z</time>
</trkpt>
<trkpt lat="44.051549" lon="2.735366">
<ele>472.5</ele>
<time>2013-05-08T14:11:20.000Z</time>
</trkpt>
<trkpt lat="44.051449" lon="2.735538">
<ele>472.3</ele>
<time>2013-05-08T14:11:21.000Z</time>
</trkpt>
<trkpt lat="44.05136" lon="2.735694">
<ele>472.1</ele>
<time>2013-05-08T14:11:22.000Z</time>
</trkpt>
<trkpt lat="44.051275" lon="2.735854">
<ele>471.8</ele>
<time>2013-05-08T14:11:23.000Z</time>
</trkpt>
<trkpt lat="44.051233" lon="2.736041">
<ele>471.7</ele>
<time>2013-05-08T14:11:24.000Z</time>
</trkpt>
<trkpt lat="44.051196" lon="2.73625">
<ele>471.4</ele>
<time>2013-05-08T14:11:25.000Z</time>
</trkpt>
<trkpt lat="44.051196" lon="2.736478">
<ele>471</ele>
<time>2013-05-08T14:11:26.000Z</time>
</trkpt>
<trkpt lat="44.051198" lon="2.736701">
<ele>470.6</ele>
<time>2013-05-08T14:11:27.000Z</time>
</trkpt>
<trkpt lat="44.051205" lon="2.736918">
<ele>469.8</ele>
<time>2013-05-08T14:11:28.000Z</time>
</trkpt>
<trkpt lat="44.051226" lon="2.73712">
<ele>468.5</ele>
<time>2013-05-08T14:11:29.000Z</time>
</trkpt>
<trkpt lat="44.051253" lon="2.737312">
<ele>467</ele>
<time>2013-05-08T14:11:30.000Z</time>
</trkpt>
<trkpt lat="44.051267" lon="2.737491">
<ele>465</ele>
<time>2013-05-08T14:11:31.000Z</time>
</trkpt>
<trkpt lat="44.05122" lon="2.737624">
<ele>462.8</ele>
<time>2013-05-08T14:11:32.000Z</time>
</trkpt>
<trkpt lat="44.051133" lon="2.73773">
<ele>460.5</ele>
<time>2013-05-08T14:11:33.000Z</time>
</trkpt>
<trkpt lat="44.051022" lon="2.737851">
<ele>458.3</ele>
<time>2013-05-08T14:11:34.000Z</time>
</trkpt>
<trkpt lat="44.050901" lon="2.737967">
<ele>455.9</ele>
<time>2013-05-08T14:11:35.000Z</time>
</trkpt>
<trkpt lat="44.050775" lon="2.73808">
<ele>453.8</ele>
<time>2013-05-08T14:11:36.000Z</time>
</trkpt>
<trkpt lat="44.050644" lon="2.738179">
<ele>452.2</ele>
<time>2013-05-08T14:11:37.000Z</time>
</trkpt>
<trkpt lat="44.050506" lon="2.73823">
<ele>450.9</ele>
<time>2013-05-08T14:11:38.000Z</time>
</trkpt>
<trkpt lat="44.05037" lon="2.738271">
<ele>449.8</ele>
<time>2013-05-08T14:11:39.000Z</time>
</trkpt>
<trkpt lat="44.050248" lon="2.738313">
<ele>448.5</ele>
<time>2013-05-08T14:11:40.000Z</time>
</trkpt>
<trkpt lat="44.050114" lon="2.738365">
<ele>447.5</ele>
<time>2013-05-08T14:11:41.000Z</time>
</trkpt>
<trkpt lat="44.050037" lon="2.738539">
<ele>446.5</ele>
<time>2013-05-08T14:11:42.000Z</time>
</trkpt>
<trkpt lat="44.049968" lon="2.738734">
<ele>445.2</ele>
<time>2013-05-08T14:11:43.000Z</time>
</trkpt>
<trkpt lat="44.049934" lon="2.738978">
<ele>444.1</ele>
<time>2013-05-08T14:11:44.000Z</time>
</trkpt>
<trkpt lat="44.049897" lon="2.739221">
<ele>443.2</ele>
<time>2013-05-08T14:11:45.000Z</time>
</trkpt>
<trkpt lat="44.049866" lon="2.739462">
<ele>442.6</ele>
<time>2013-05-08T14:11:46.000Z</time>
</trkpt>
<trkpt lat="44.049833" lon="2.739702">
<ele>442</ele>
<time>2013-05-08T14:11:47.000Z</time>
</trkpt>
<trkpt lat="44.049777" lon="2.739902">
<ele>441.3</ele>
<time>2013-05-08T14:11:48.000Z</time>
</trkpt>
<trkpt lat="44.049695" lon="2.740048">
<ele>440.6</ele>
<time>2013-05-08T14:11:49.000Z</time>
</trkpt>
<trkpt lat="44.049606" lon="2.740193">
<ele>440</ele>
<time>2013-05-08T14:11:50.000Z</time>
</trkpt>
<trkpt lat="44.04946" lon="2.740276">
<ele>439.6</ele>
<time>2013-05-08T14:11:51.000Z</time>
</trkpt>
<trkpt lat="44.049305" lon="2.740354">
<ele>439.1</ele>
<time>2013-05-08T14:11:52.000Z</time>
</trkpt>
<trkpt lat="44.049146" lon="2.740422">
<ele>438.9</ele>
<time>2013-05-08T14:11:53.000Z</time>
</trkpt>
<trkpt lat="44.048987" lon="2.740474">
<ele>438.4</ele>
<time>2013-05-08T14:11:54.000Z</time>
</trkpt>
<trkpt lat="44.048829" lon="2.740512">
<ele>437.6</ele>
<time>2013-05-08T14:11:55.000Z</time>
</trkpt>
<trkpt lat="44.048677" lon="2.740537">
<ele>437.2</ele>
<time>2013-05-08T14:11:56.000Z</time>
</trkpt>
<trkpt lat="44.048528" lon="2.740584">
<ele>436.8</ele>
<time>2013-05-08T14:11:57.000Z</time>
</trkpt>
<trkpt lat="44.048388" lon="2.740627">
<ele>436.7</ele>
<time>2013-05-08T14:11:58.000Z</time>
</trkpt>
<trkpt lat="44.048249" lon="2.740683">
<ele>436.5</ele>
<time>2013-05-08T14:11:59.000Z</time>
</trkpt>
<trkpt lat="44.048114" lon="2.74075">
<ele>436</ele>
<time>2013-05-08T14:12:00.000Z</time>
</trkpt>
<trkpt lat="44.047985" lon="2.740866">
<ele>435.1</ele>
<time>2013-05-08T14:12:01.000Z</time>
</trkpt>
<trkpt lat="44.047851" lon="2.740985">
<ele>433.9</ele>
<time>2013-05-08T14:12:02.000Z</time>
</trkpt>
<trkpt lat="44.047745" lon="2.741137">
<ele>432.4</ele>
<time>2013-05-08T14:12:03.000Z</time>
</trkpt>
<trkpt lat="44.047634" lon="2.741285">
<ele>431.1</ele>
<time>2013-05-08T14:12:04.000Z</time>
</trkpt>
<trkpt lat="44.047517" lon="2.741419">
<ele>429.9</ele>
<time>2013-05-08T14:12:05.000Z</time>
</trkpt>
<trkpt lat="44.047393" lon="2.741546">
<ele>428.9</ele>
<time>2013-05-08T14:12:06.000Z</time>
</trkpt>
<trkpt lat="44.047259" lon="2.741659">
<ele>427.5</ele>
<time>2013-05-08T14:12:07.000Z</time>
</trkpt>
<trkpt lat="44.047121" lon="2.741776">
<ele>426.2</ele>
<time>2013-05-08T14:12:08.000Z</time>
</trkpt>
<trkpt lat="44.04701" lon="2.741937">
<ele>424.8</ele>
<time>2013-05-08T14:12:09.000Z</time>
</trkpt>
<trkpt lat="44.046906" lon="2.742109">
<ele>423.6</ele>
<time>2013-05-08T14:12:10.000Z</time>
</trkpt>
<trkpt lat="44.046817" lon="2.742262">
<ele>422.2</ele>
<time>2013-05-08T14:12:11.000Z</time>
</trkpt>
<trkpt lat="44.04673" lon="2.742397">
<ele>420.9</ele>
<time>2013-05-08T14:12:12.000Z</time>
</trkpt>
<trkpt lat="44.046645" lon="2.742529">
<ele>419.8</ele>
<time>2013-05-08T14:12:13.000Z</time>
</trkpt>
<trkpt lat="44.046592" lon="2.742683">
<ele>418.7</ele>
<time>2013-05-08T14:12:14.000Z</time>
</trkpt>
<trkpt lat="44.046603" lon="2.742861">
<ele>417.3</ele>
<time>2013-05-08T14:12:15.000Z</time>
</trkpt>
<trkpt lat="44.046615" lon="2.743041">
<ele>416.2</ele>
<time>2013-05-08T14:12:16.000Z</time>
</trkpt>
<trkpt lat="44.046666" lon="2.743232">
<ele>414.9</ele>
<time>2013-05-08T14:12:17.000Z</time>
</trkpt>
<trkpt lat="44.046729" lon="2.743438">
<ele>413.8</ele>
<time>2013-05-08T14:12:18.000Z</time>
</trkpt>
<trkpt lat="44.046799" lon="2.743653">
<ele>412.6</ele>
<time>2013-05-08T14:12:19.000Z</time>
</trkpt>
<trkpt lat="44.04687" lon="2.743869">
<ele>411.3</ele>
<time>2013-05-08T14:12:20.000Z</time>
</trkpt>
<trkpt lat="44.046941" lon="2.74408">
<ele>409.7</ele>
<time>2013-05-08T14:12:21.000Z</time>
</trkpt>
<trkpt lat="44.047013" lon="2.744279">
<ele>408.1</ele>
<time>2013-05-08T14:12:22.000Z</time>
</trkpt>
<trkpt lat="44.047082" lon="2.744478">
<ele>406.8</ele>
<time>2013-05-08T14:12:23.000Z</time>
</trkpt>
<trkpt lat="44.047113" lon="2.744685">
<ele>405.6</ele>
<time>2013-05-08T14:12:24.000Z</time>
</trkpt>
<trkpt lat="44.04713" lon="2.744883">
<ele>404.1</ele>
<time>2013-05-08T14:12:25.000Z</time>
</trkpt>
<trkpt lat="44.047134" lon="2.745069">
<ele>403</ele>
<time>2013-05-08T14:12:26.000Z</time>
</trkpt>
<trkpt lat="44.047108" lon="2.745242">
<ele>401.8</ele>
<time>2013-05-08T14:12:27.000Z</time>
</trkpt>
<trkpt lat="44.047082" lon="2.745417">
<ele>400.9</ele>
<time>2013-05-08T14:12:28.000Z</time>
</trkpt>
<trkpt lat="44.04706" lon="2.745589">
<ele>400.2</ele>
<time>2013-05-08T14:12:29.000Z</time>
</trkpt>
<trkpt lat="44.047057" lon="2.745768">
<ele>399.6</ele>
<time>2013-05-08T14:12:30.000Z</time>
</trkpt>
<trkpt lat="44.04706" lon="2.745955">
<ele>399.1</ele>
<time>2013-05-08T14:12:31.000Z</time>
</trkpt>
<trkpt lat="44.047066" lon="2.746151">
<ele>399.1</ele>
<time>2013-05-08T14:12:32.000Z</time>
</trkpt>
<trkpt lat="44.047079" lon="2.746352">
<ele>398.9</ele>
<time>2013-05-08T14:12:33.000Z</time>
</trkpt>
<trkpt lat="44.047105" lon="2.746544">
<ele>398.5</ele>
<time>2013-05-08T14:12:34.000Z</time>
</trkpt>
<trkpt lat="44.047161" lon="2.746714">
<ele>397.7</ele>
<time>2013-05-08T14:12:35.000Z</time>
</trkpt>
<trkpt lat="44.047223" lon="2.746879">
<ele>396.4</ele>
<time>2013-05-08T14:12:36.000Z</time>
</trkpt>
<trkpt lat="44.047293" lon="2.747044">
<ele>394.8</ele>
<time>2013-05-08T14:12:37.000Z</time>
</trkpt>
<trkpt lat="44.047369" lon="2.747201">
<ele>393.2</ele>
<time>2013-05-08T14:12:38.000Z</time>
</trkpt>
<trkpt lat="44.04745" lon="2.74737">
<ele>391.3</ele>
<time>2013-05-08T14:12:39.000Z</time>
</trkpt>
<trkpt lat="44.047525" lon="2.747544">
<ele>389.6</ele>
<time>2013-05-08T14:12:40.000Z</time>
</trkpt>
<trkpt lat="44.047558" lon="2.747722">
<ele>388.2</ele>
<time>2013-05-08T14:12:41.000Z</time>
</trkpt>
<trkpt lat="44.047584" lon="2.747901">
<ele>387</ele>
<time>2013-05-08T14:12:42.000Z</time>
</trkpt>
<trkpt lat="44.047612" lon="2.748079">
<ele>386.1</ele>
<time>2013-05-08T14:12:43.000Z</time>
</trkpt>
<trkpt lat="44.047672" lon="2.748253">
<ele>385.2</ele>
<time>2013-05-08T14:12:44.000Z</time>
</trkpt>
<trkpt lat="44.04774" lon="2.748446">
<ele>384.6</ele>
<time>2013-05-08T14:12:45.000Z</time>
</trkpt>
<trkpt lat="44.0478" lon="2.74865">
<ele>384</ele>
<time>2013-05-08T14:12:46.000Z</time>
</trkpt>
<trkpt lat="44.047854" lon="2.748856">
<ele>383.5</ele>
<time>2013-05-08T14:12:47.000Z</time>
</trkpt>
<trkpt lat="44.04791" lon="2.749066">
<ele>382.8</ele>
<time>2013-05-08T14:12:48.000Z</time>
</trkpt>
<trkpt lat="44.047982" lon="2.749292">
<ele>381.9</ele>
<time>2013-05-08T14:12:49.000Z</time>
</trkpt>
<trkpt lat="44.048061" lon="2.749523">
<ele>380.6</ele>
<time>2013-05-08T14:12:50.000Z</time>
</trkpt>
<trkpt lat="44.048141" lon="2.749752">
<ele>379</ele>
<time>2013-05-08T14:12:51.000Z</time>
</trkpt>
<trkpt lat="44.04823" lon="2.749972">
<ele>377.4</ele>
<time>2013-05-08T14:12:52.000Z</time>
</trkpt>
<trkpt lat="44.048319" lon="2.750186">
<ele>375.8</ele>
<time>2013-05-08T14:12:53.000Z</time>
</trkpt>
<trkpt lat="44.048402" lon="2.750397">
<ele>374</ele>
<time>2013-05-08T14:12:54.000Z</time>
</trkpt>
<trkpt lat="44.048481" lon="2.750595">
<ele>372.7</ele>
<time>2013-05-08T14:12:55.000Z</time>
</trkpt>
<trkpt lat="44.048559" lon="2.750792">
<ele>371.6</ele>
<time>2013-05-08T14:12:56.000Z</time>
</trkpt>
<trkpt lat="44.048635" lon="2.750988">
<ele>370.7</ele>
<time>2013-05-08T14:12:57.000Z</time>
</trkpt>
<trkpt lat="44.048716" lon="2.751165">
<ele>370.1</ele>
<time>2013-05-08T14:12:58.000Z</time>
</trkpt>
<trkpt lat="44.048802" lon="2.751332">
<ele>369.5</ele>
<time>2013-05-08T14:12:59.000Z</time>
</trkpt>
<trkpt lat="44.048887" lon="2.751499">
<ele>368.8</ele>
<time>2013-05-08T14:13:00.000Z</time>
</trkpt>
<trkpt lat="44.048958" lon="2.751659">
<ele>368.2</ele>
<time>2013-05-08T14:13:01.000Z</time>
</trkpt>
<trkpt lat="44.049017" lon="2.751824">
<ele>367.4</ele>
<time>2013-05-08T14:13:02.000Z</time>
</trkpt>
<trkpt lat="44.049064" lon="2.751993">
<ele>366.8</ele>
<time>2013-05-08T14:13:03.000Z</time>
</trkpt>
<trkpt lat="44.049104" lon="2.752163">
<ele>366.4</ele>
<time>2013-05-08T14:13:04.000Z</time>
</trkpt>
<trkpt lat="44.049139" lon="2.752339">
<ele>365.8</ele>
<time>2013-05-08T14:13:05.000Z</time>
</trkpt>
<trkpt lat="44.049169" lon="2.752509">
<ele>365.2</ele>
<time>2013-05-08T14:13:06.000Z</time>
</trkpt>
<trkpt lat="44.049196" lon="2.752662">
<ele>364.6</ele>
<time>2013-05-08T14:13:07.000Z</time>
</trkpt>
<trkpt lat="44.049219" lon="2.752806">
<ele>364.3</ele>
<time>2013-05-08T14:13:08.000Z</time>
</trkpt>
<trkpt lat="44.049242" lon="2.75295">
<ele>363.9</ele>
<time>2013-05-08T14:13:09.000Z</time>
</trkpt>
<trkpt lat="44.049262" lon="2.753095">
<ele>363.6</ele>
<time>2013-05-08T14:13:10.000Z</time>
</trkpt>
<trkpt lat="44.049282" lon="2.753226">
<ele>363</ele>
<time>2013-05-08T14:13:11.000Z</time>
</trkpt>
<trkpt lat="44.049302" lon="2.753359">
<ele>362</ele>
<time>2013-05-08T14:13:12.000Z</time>
</trkpt>
<trkpt lat="44.049324" lon="2.75349">
<ele>360.9</ele>
<time>2013-05-08T14:13:13.000Z</time>
</trkpt>
<trkpt lat="44.049345" lon="2.753618">
<ele>359.7</ele>
<time>2013-05-08T14:13:14.000Z</time>
</trkpt>
<trkpt lat="44.04937" lon="2.753745">
<ele>358.5</ele>
<time>2013-05-08T14:13:15.000Z</time>
</trkpt>
<trkpt lat="44.049424" lon="2.753846">
<ele>357.4</ele>
<time>2013-05-08T14:13:16.000Z</time>
</trkpt>
<trkpt lat="44.049502" lon="2.753931">
<ele>356.4</ele>
<time>2013-05-08T14:13:17.000Z</time>
</trkpt>
<trkpt lat="44.049579" lon="2.753997">
<ele>355.7</ele>
<time>2013-05-08T14:13:18.000Z</time>
</trkpt>
<trkpt lat="44.049657" lon="2.754052">
<ele>355.2</ele>
<time>2013-05-08T14:13:19.000Z</time>
</trkpt>
<trkpt lat="44.049753" lon="2.75408">
<ele>354.9</ele>
<time>2013-05-08T14:13:20.000Z</time>
</trkpt>
<trkpt lat="44.049856" lon="2.754109">
<ele>354.8</ele>
<time>2013-05-08T14:13:21.000Z</time>
</trkpt>
<trkpt lat="44.049952" lon="2.754136">
<ele>354.8</ele>
<time>2013-05-08T14:13:22.000Z</time>
</trkpt>
<trkpt lat="44.050044" lon="2.754172">
<ele>354.8</ele>
<time>2013-05-08T14:13:23.000Z</time>
</trkpt>
<trkpt lat="44.050096" lon="2.754252">
<ele>354</ele>
<time>2013-05-08T14:13:24.000Z</time>
</trkpt>
<trkpt lat="44.050094" lon="2.754366">
<ele>353.5</ele>
<time>2013-05-08T14:13:25.000Z</time>
</trkpt>
<trkpt lat="44.050089" lon="2.754478">
<ele>352.9</ele>
<time>2013-05-08T14:13:26.000Z</time>
</trkpt>
<trkpt lat="44.050038" lon="2.754591">
<ele>353</ele>
<time>2013-05-08T14:13:27.000Z</time>
</trkpt>
<trkpt lat="44.049984" lon="2.7547">
<ele>352.8</ele>
<time>2013-05-08T14:13:28.000Z</time>
</trkpt>
<trkpt lat="44.04993" lon="2.754815">
<ele>352.4</ele>
<time>2013-05-08T14:13:29.000Z</time>
</trkpt>
<trkpt lat="44.049873" lon="2.754943">
<ele>352.1</ele>
<time>2013-05-08T14:13:30.000Z</time>
</trkpt>
<trkpt lat="44.049812" lon="2.755069">
<ele>352.3</ele>
<time>2013-05-08T14:13:31.000Z</time>
</trkpt>
<trkpt lat="44.049751" lon="2.755193">
<ele>351.8</ele>
<time>2013-05-08T14:13:32.000Z</time>
</trkpt>
<trkpt lat="44.049688" lon="2.755313">
<ele>350.7</ele>
<time>2013-05-08T14:13:33.000Z</time>
</trkpt>
<trkpt lat="44.04963" lon="2.75544">
<ele>349.5</ele>
<time>2013-05-08T14:13:34.000Z</time>
</trkpt>
<trkpt lat="44.049588" lon="2.75558">
<ele>349</ele>
<time>2013-05-08T14:13:35.000Z</time>
</trkpt>
<trkpt lat="44.049551" lon="2.755715">
<ele>348.8</ele>
<time>2013-05-08T14:13:36.000Z</time>
</trkpt>
<trkpt lat="44.049536" lon="2.755863">
<ele>348.8</ele>
<time>2013-05-08T14:13:37.000Z</time>
</trkpt>
<trkpt lat="44.049559" lon="2.756031">
<ele>349.5</ele>
<time>2013-05-08T14:13:38.000Z</time>
</trkpt>
<trkpt lat="44.049586" lon="2.75619">
<ele>350</ele>
<time>2013-05-08T14:13:39.000Z</time>
</trkpt>
<trkpt lat="44.049621" lon="2.756362">
<ele>350</ele>
<time>2013-05-08T14:13:40.000Z</time>
</trkpt>
<trkpt lat="44.049647" lon="2.756525">
<ele>350.1</ele>
<time>2013-05-08T14:13:41.000Z</time>
</trkpt>
<trkpt lat="44.049662" lon="2.756691">
<ele>350</ele>
<time>2013-05-08T14:13:42.000Z</time>
</trkpt>
<trkpt lat="44.049654" lon="2.75686">
<ele>349.7</ele>
<time>2013-05-08T14:13:43.000Z</time>
</trkpt>
<trkpt lat="44.049644" lon="2.757022">
<ele>349.2</ele>
<time>2013-05-08T14:13:44.000Z</time>
</trkpt>
<trkpt lat="44.049642" lon="2.75718">
<ele>348.6</ele>
<time>2013-05-08T14:13:45.000Z</time>
</trkpt>
<trkpt lat="44.049674" lon="2.757327">
<ele>347.3</ele>
<time>2013-05-08T14:13:46.000Z</time>
</trkpt>
<trkpt lat="44.049713" lon="2.757482">
<ele>346.3</ele>
<time>2013-05-08T14:13:47.000Z</time>
</trkpt>
<trkpt lat="44.049761" lon="2.75764">
<ele>345.2</ele>
<time>2013-05-08T14:13:48.000Z</time>
</trkpt>
<trkpt lat="44.049815" lon="2.757814">
<ele>344.3</ele>
<time>2013-05-08T14:13:49.000Z</time>
</trkpt>
<trkpt lat="44.049872" lon="2.758004">
<ele>343.6</ele>
<time>2013-05-08T14:13:50.000Z</time>
</trkpt>
<trkpt lat="44.049925" lon="2.758205">
<ele>342.7</ele>
<time>2013-05-08T14:13:51.000Z</time>
</trkpt>
<trkpt lat="44.04998" lon="2.758423">
<ele>341.9</ele>
<time>2013-05-08T14:13:52.000Z</time>
</trkpt>
<trkpt lat="44.050036" lon="2.758658">
<ele>341.3</ele>
<time>2013-05-08T14:13:53.000Z</time>
</trkpt>
<trkpt lat="44.050092" lon="2.758904">
<ele>340.6</ele>
<time>2013-05-08T14:13:54.000Z</time>
</trkpt>
<trkpt lat="44.050144" lon="2.759148">
<ele>340</ele>
<time>2013-05-08T14:13:55.000Z</time>
</trkpt>
<trkpt lat="44.050194" lon="2.759385">
<ele>339.5</ele>
<time>2013-05-08T14:13:56.000Z</time>
</trkpt>
<trkpt lat="44.050242" lon="2.759609">
<ele>339</ele>
<time>2013-05-08T14:13:57.000Z</time>
</trkpt>
<trkpt lat="44.050282" lon="2.75982">
<ele>338.3</ele>
<time>2013-05-08T14:13:58.000Z</time>
</trkpt>
<trkpt lat="44.050317" lon="2.760021">
<ele>337.6</ele>
<time>2013-05-08T14:13:59.000Z</time>
</trkpt>
<trkpt lat="44.050344" lon="2.760217">
<ele>336.8</ele>
<time>2013-05-08T14:14:00.000Z</time>
</trkpt>
<trkpt lat="44.05036" lon="2.760411">
<ele>336.2</ele>
<time>2013-05-08T14:14:01.000Z</time>
</trkpt>
<trkpt lat="44.050366" lon="2.760602">
<ele>335.7</ele>
<time>2013-05-08T14:14:02.000Z</time>
</trkpt>
<trkpt lat="44.050333" lon="2.760793">
<ele>334.9</ele>
<time>2013-05-08T14:14:03.000Z</time>
</trkpt>
<trkpt lat="44.050289" lon="2.760973">
<ele>334.3</ele>
<time>2013-05-08T14:14:04.000Z</time>
</trkpt>
<trkpt lat="44.050231" lon="2.761157">
<ele>333.4</ele>
<time>2013-05-08T14:14:05.000Z</time>
</trkpt>
<trkpt lat="44.050137" lon="2.761335">
<ele>332.7</ele>
<time>2013-05-08T14:14:06.000Z</time>
</trkpt>
<trkpt lat="44.050046" lon="2.761507">
<ele>332.1</ele>
<time>2013-05-08T14:14:07.000Z</time>
</trkpt>
<trkpt lat="44.049956" lon="2.761674">
<ele>332.2</ele>
<time>2013-05-08T14:14:08.000Z</time>
</trkpt>
<trkpt lat="44.049874" lon="2.761818">
<ele>332.2</ele>
<time>2013-05-08T14:14:09.000Z</time>
</trkpt>
<trkpt lat="44.049806" lon="2.761935">
<ele>331.9</ele>
<time>2013-05-08T14:14:10.000Z</time>
</trkpt>
<trkpt lat="44.049747" lon="2.76203">
<ele>332.2</ele>
<time>2013-05-08T14:14:11.000Z</time>
</trkpt>
<trkpt lat="44.049692" lon="2.762116">
<ele>332.8</ele>
<time>2013-05-08T14:14:12.000Z</time>
</trkpt>
<trkpt lat="44.049645" lon="2.762185">
<ele>333.1</ele>
<time>2013-05-08T14:14:13.000Z</time>
</trkpt>
<trkpt lat="44.049601" lon="2.762254">
<ele>333.3</ele>
<time>2013-05-08T14:14:14.000Z</time>
</trkpt>
<trkpt lat="44.049553" lon="2.762327">
<ele>333.6</ele>
<time>2013-05-08T14:14:15.000Z</time>
</trkpt>
<trkpt lat="44.049502" lon="2.762402">
<ele>333.9</ele>
<time>2013-05-08T14:14:16.000Z</time>
</trkpt>
<trkpt lat="44.04946" lon="2.762467">
<ele>333.4</ele>
<time>2013-05-08T14:14:17.000Z</time>
</trkpt>
<trkpt lat="44.049424" lon="2.762527">
<ele>332.3</ele>
<time>2013-05-08T14:14:18.000Z</time>
</trkpt>
<trkpt lat="44.049386" lon="2.76259">
<ele>331.2</ele>
<time>2013-05-08T14:14:19.000Z</time>
</trkpt>
<trkpt lat="44.049351" lon="2.762649">
<ele>329.9</ele>
<time>2013-05-08T14:14:20.000Z</time>
</trkpt>
<trkpt lat="44.049309" lon="2.762717">
<ele>329.2</ele>
<time>2013-05-08T14:14:21.000Z</time>
</trkpt>
<trkpt lat="44.049265" lon="2.762789">
<ele>328.3</ele>
<time>2013-05-08T14:14:22.000Z</time>
</trkpt>
<trkpt lat="44.049219" lon="2.762866">
<ele>327.3</ele>
<time>2013-05-08T14:14:23.000Z</time>
</trkpt>
<trkpt lat="44.049176" lon="2.762952">
<ele>326.5</ele>
<time>2013-05-08T14:14:24.000Z</time>
</trkpt>
<trkpt lat="44.049132" lon="2.763049">
<ele>326.1</ele>
<time>2013-05-08T14:14:25.000Z</time>
</trkpt>
<trkpt lat="44.049121" lon="2.763161">
<ele>326</ele>
<time>2013-05-08T14:14:26.000Z</time>
</trkpt>
<trkpt lat="44.04916" lon="2.763294">
<ele>325.7</ele>
<time>2013-05-08T14:14:27.000Z</time>
</trkpt>
<trkpt lat="44.049222" lon="2.763426">
<ele>325.1</ele>
<time>2013-05-08T14:14:28.000Z</time>
</trkpt>
<trkpt lat="44.049308" lon="2.763537">
<ele>324.9</ele>
<time>2013-05-08T14:14:29.000Z</time>
</trkpt>
<trkpt lat="44.049394" lon="2.76364">
<ele>324.8</ele>
<time>2013-05-08T14:14:30.000Z</time>
</trkpt>
<trkpt lat="44.049483" lon="2.763743">
<ele>324.7</ele>
<time>2013-05-08T14:14:31.000Z</time>
</trkpt>
<trkpt lat="44.049565" lon="2.763826">
<ele>324.8</ele>
<time>2013-05-08T14:14:32.000Z</time>
</trkpt>
<trkpt lat="44.049638" lon="2.763888">
<ele>325.1</ele>
<time>2013-05-08T14:14:33.000Z</time>
</trkpt>
<trkpt lat="44.049709" lon="2.763942">
<ele>325.6</ele>
<time>2013-05-08T14:14:34.000Z</time>
</trkpt>
<trkpt lat="44.049787" lon="2.763996">
<ele>326.2</ele>
<time>2013-05-08T14:14:35.000Z</time>
</trkpt>
<trkpt lat="44.049866" lon="2.764047">
<ele>326.7</ele>
<time>2013-05-08T14:14:36.000Z</time>
</trkpt>
<trkpt lat="44.049946" lon="2.764098">
<ele>327.2</ele>
<time>2013-05-08T14:14:37.000Z</time>
</trkpt>
<trkpt lat="44.050038" lon="2.764155">
<ele>327.6</ele>
<time>2013-05-08T14:14:38.000Z</time>
</trkpt>
<trkpt lat="44.050133" lon="2.764212">
<ele>327.9</ele>
<time>2013-05-08T14:14:39.000Z</time>
</trkpt>
<trkpt lat="44.050243" lon="2.764275">
<ele>328.1</ele>
<time>2013-05-08T14:14:40.000Z</time>
</trkpt>
<trkpt lat="44.050362" lon="2.764342">
<ele>328.2</ele>
<time>2013-05-08T14:14:41.000Z</time>
</trkpt>
<trkpt lat="44.050481" lon="2.7644">
<ele>328</ele>
<time>2013-05-08T14:14:42.000Z</time>
</trkpt>
<trkpt lat="44.050608" lon="2.764454">
<ele>328.3</ele>
<time>2013-05-08T14:14:43.000Z</time>
</trkpt>
<trkpt lat="44.050739" lon="2.764499">
<ele>328.8</ele>
<time>2013-05-08T14:14:44.000Z</time>
</trkpt>
<trkpt lat="44.050875" lon="2.764532">
<ele>329.5</ele>
<time>2013-05-08T14:14:45.000Z</time>
</trkpt>
<trkpt lat="44.051008" lon="2.764557">
<ele>330</ele>
<time>2013-05-08T14:14:46.000Z</time>
</trkpt>
<trkpt lat="44.051127" lon="2.764579">
<ele>330.5</ele>
<time>2013-05-08T14:14:47.000Z</time>
</trkpt>
<trkpt lat="44.051224" lon="2.764603">
<ele>330.5</ele>
<time>2013-05-08T14:14:48.000Z</time>
</trkpt>
<trkpt lat="44.051298" lon="2.764626">
<ele>330.3</ele>
<time>2013-05-08T14:14:49.000Z</time>
</trkpt>
<trkpt lat="44.051364" lon="2.764646">
<ele>329.9</ele>
<time>2013-05-08T14:14:50.000Z</time>
</trkpt>
<trkpt lat="44.051436" lon="2.764642">
<ele>329.6</ele>
<time>2013-05-08T14:14:51.000Z</time>
</trkpt>
<trkpt lat="44.051513" lon="2.764632">
<ele>329.2</ele>
<time>2013-05-08T14:14:52.000Z</time>
</trkpt>
<trkpt lat="44.051601" lon="2.764619">
<ele>328.7</ele>
<time>2013-05-08T14:14:53.000Z</time>
</trkpt>
<trkpt lat="44.051697" lon="2.764608">
<ele>327.7</ele>
<time>2013-05-08T14:14:54.000Z</time>
</trkpt>
<trkpt lat="44.05181" lon="2.764607">
<ele>327.2</ele>
<time>2013-05-08T14:14:55.000Z</time>
</trkpt>
<trkpt lat="44.051925" lon="2.764614">
<ele>326.4</ele>
<time>2013-05-08T14:14:56.000Z</time>
</trkpt>
<trkpt lat="44.052049" lon="2.764627">
<ele>325.8</ele>
<time>2013-05-08T14:14:57.000Z</time>
</trkpt>
<trkpt lat="44.052179" lon="2.764646">
<ele>325.5</ele>
<time>2013-05-08T14:14:58.000Z</time>
</trkpt>
<trkpt lat="44.052324" lon="2.764664">
<ele>325.3</ele>
<time>2013-05-08T14:14:59.000Z</time>
</trkpt>
<trkpt lat="44.05247" lon="2.764682">
<ele>325.1</ele>
<time>2013-05-08T14:15:00.000Z</time>
</trkpt>
<trkpt lat="44.052615" lon="2.764706">
<ele>324.9</ele>
<time>2013-05-08T14:15:01.000Z</time>
</trkpt>
<trkpt lat="44.052756" lon="2.764737">
<ele>324.8</ele>
<time>2013-05-08T14:15:02.000Z</time>
</trkpt>
<trkpt lat="44.052891" lon="2.764775">
<ele>324.7</ele>
<time>2013-05-08T14:15:03.000Z</time>
</trkpt>
<trkpt lat="44.053034" lon="2.764826">
<ele>324.5</ele>
<time>2013-05-08T14:15:04.000Z</time>
</trkpt>
<trkpt lat="44.053184" lon="2.764893">
<ele>324.1</ele>
<time>2013-05-08T14:15:05.000Z</time>
</trkpt>
<trkpt lat="44.053338" lon="2.764974">
<ele>323.9</ele>
<time>2013-05-08T14:15:06.000Z</time>
</trkpt>
<trkpt lat="44.053495" lon="2.765069">
<ele>323.6</ele>
<time>2013-05-08T14:15:07.000Z</time>
</trkpt>
<trkpt lat="44.05365" lon="2.765178">
<ele>323.7</ele>
<time>2013-05-08T14:15:08.000Z</time>
</trkpt>
<trkpt lat="44.053803" lon="2.765299">
<ele>323.7</ele>
<time>2013-05-08T14:15:09.000Z</time>
</trkpt>
<trkpt lat="44.053959" lon="2.765423">
<ele>323.7</ele>
<time>2013-05-08T14:15:10.000Z</time>
</trkpt>
<trkpt lat="44.054121" lon="2.765546">
<ele>323.7</ele>
<time>2013-05-08T14:15:11.000Z</time>
</trkpt>
<trkpt lat="44.05429" lon="2.765674">
<ele>323.8</ele>
<time>2013-05-08T14:15:12.000Z</time>
</trkpt>
<trkpt lat="44.054461" lon="2.765803">
<ele>324.1</ele>
<time>2013-05-08T14:15:13.000Z</time>
</trkpt>
<trkpt lat="44.054626" lon="2.765942">
<ele>324.5</ele>
<time>2013-05-08T14:15:14.000Z</time>
</trkpt>
<trkpt lat="44.054783" lon="2.766074">
<ele>325</ele>
<time>2013-05-08T14:15:15.000Z</time>
</trkpt>
<trkpt lat="44.054944" lon="2.766217">
<ele>325.7</ele>
<time>2013-05-08T14:15:16.000Z</time>
</trkpt>
<trkpt lat="44.055114" lon="2.76636">
<ele>326.2</ele>
<time>2013-05-08T14:15:17.000Z</time>
</trkpt>
<trkpt lat="44.055278" lon="2.766499">
<ele>326.2</ele>
<time>2013-05-08T14:15:18.000Z</time>
</trkpt>
<trkpt lat="44.055442" lon="2.766634">
<ele>326.1</ele>
<time>2013-05-08T14:15:19.000Z</time>
</trkpt>
<trkpt lat="44.055607" lon="2.766759">
<ele>325.9</ele>
<time>2013-05-08T14:15:20.000Z</time>
</trkpt>
<trkpt lat="44.055783" lon="2.766871">
<ele>325.7</ele>
<time>2013-05-08T14:15:21.000Z</time>
</trkpt>
<trkpt lat="44.055954" lon="2.766969">
<ele>325.6</ele>
<time>2013-05-08T14:15:22.000Z</time>
</trkpt>
<trkpt lat="44.056122" lon="2.767038">
<ele>325.4</ele>
<time>2013-05-08T14:15:23.000Z</time>
</trkpt>
<trkpt lat="44.056279" lon="2.7671">
<ele>325.3</ele>
<time>2013-05-08T14:15:24.000Z</time>
</trkpt>
<trkpt lat="44.056422" lon="2.767164">
<ele>325.4</ele>
<time>2013-05-08T14:15:25.000Z</time>
</trkpt>
<trkpt lat="44.056549" lon="2.767227">
<ele>326.2</ele>
<time>2013-05-08T14:15:26.000Z</time>
</trkpt>
<trkpt lat="44.056651" lon="2.767328">
<ele>327.5</ele>
<time>2013-05-08T14:15:27.000Z</time>
</trkpt>
<trkpt lat="44.056745" lon="2.767436">
<ele>329.2</ele>
<time>2013-05-08T14:15:28.000Z</time>
</trkpt>
<trkpt lat="44.056839" lon="2.767566">
<ele>330.7</ele>
<time>2013-05-08T14:15:29.000Z</time>
</trkpt>
<trkpt lat="44.056932" lon="2.767709">
<ele>332.2</ele>
<time>2013-05-08T14:15:30.000Z</time>
</trkpt>
<trkpt lat="44.057022" lon="2.767861">
<ele>333.5</ele>
<time>2013-05-08T14:15:31.000Z</time>
</trkpt>
<trkpt lat="44.057122" lon="2.768026">
<ele>334.8</ele>
<time>2013-05-08T14:15:32.000Z</time>
</trkpt>
<trkpt lat="44.057232" lon="2.7682">
<ele>335.8</ele>
<time>2013-05-08T14:15:33.000Z</time>
</trkpt>
<trkpt lat="44.057354" lon="2.768378">
<ele>336.5</ele>
<time>2013-05-08T14:15:34.000Z</time>
</trkpt>
<trkpt lat="44.057488" lon="2.76856">
<ele>337.2</ele>
<time>2013-05-08T14:15:35.000Z</time>
</trkpt>
<trkpt lat="44.057625" lon="2.768735">
<ele>337.5</ele>
<time>2013-05-08T14:15:36.000Z</time>
</trkpt>
<trkpt lat="44.057767" lon="2.768915">
<ele>337.9</ele>
<time>2013-05-08T14:15:37.000Z</time>
</trkpt>
<trkpt lat="44.057921" lon="2.76909">
<ele>338.6</ele>
<time>2013-05-08T14:15:38.000Z</time>
</trkpt>
<trkpt lat="44.05808" lon="2.76927">
<ele>339.4</ele>
<time>2013-05-08T14:15:39.000Z</time>
</trkpt>
<trkpt lat="44.058236" lon="2.769465">
<ele>340.4</ele>
<time>2013-05-08T14:15:40.000Z</time>
</trkpt>
<trkpt lat="44.058389" lon="2.769659">
<ele>341.8</ele>
<time>2013-05-08T14:15:41.000Z</time>
</trkpt>
<trkpt lat="44.058536" lon="2.769845">
<ele>343.3</ele>
<time>2013-05-08T14:15:42.000Z</time>
</trkpt>
<trkpt lat="44.05867" lon="2.770012">
<ele>345</ele>
<time>2013-05-08T14:15:43.000Z</time>
</trkpt>
<trkpt lat="44.058798" lon="2.770172">
<ele>346.9</ele>
<time>2013-05-08T14:15:44.000Z</time>
</trkpt>
<trkpt lat="44.058917" lon="2.770315">
<ele>348.8</ele>
<time>2013-05-08T14:15:45.000Z</time>
</trkpt>
<trkpt lat="44.059022" lon="2.770444">
<ele>350.5</ele>
<time>2013-05-08T14:15:46.000Z</time>
</trkpt>
<trkpt lat="44.059122" lon="2.770559">
<ele>351.8</ele>
<time>2013-05-08T14:15:47.000Z</time>
</trkpt>
<trkpt lat="44.059247" lon="2.770642">
<ele>353.6</ele>
<time>2013-05-08T14:15:48.000Z</time>
</trkpt>
<trkpt lat="44.059371" lon="2.770713">
<ele>355.4</ele>
<time>2013-05-08T14:15:49.000Z</time>
</trkpt>
<trkpt lat="44.059515" lon="2.770738">
<ele>357.3</ele>
<time>2013-05-08T14:15:50.000Z</time>
</trkpt>
<trkpt lat="44.059661" lon="2.770749">
<ele>359.1</ele>
<time>2013-05-08T14:15:51.000Z</time>
</trkpt>
<trkpt lat="44.059804" lon="2.770745">
<ele>360.7</ele>
<time>2013-05-08T14:15:52.000Z</time>
</trkpt>
<trkpt lat="44.059944" lon="2.770737">
<ele>362</ele>
<time>2013-05-08T14:15:53.000Z</time>
</trkpt>
<trkpt lat="44.060081" lon="2.770736">
<ele>363</ele>
<time>2013-05-08T14:15:54.000Z</time>
</trkpt>
<trkpt lat="44.060221" lon="2.770751">
<ele>363.8</ele>
<time>2013-05-08T14:15:55.000Z</time>
</trkpt>
<trkpt lat="44.060362" lon="2.770785">
<ele>364.8</ele>
<time>2013-05-08T14:15:56.000Z</time>
</trkpt>
<trkpt lat="44.060509" lon="2.770834">
<ele>365.4</ele>
<time>2013-05-08T14:15:57.000Z</time>
</trkpt>
<trkpt lat="44.060657" lon="2.770885">
<ele>366</ele>
<time>2013-05-08T14:15:58.000Z</time>
</trkpt>
<trkpt lat="44.060804" lon="2.770922">
<ele>366.3</ele>
<time>2013-05-08T14:15:59.000Z</time>
</trkpt>
<trkpt lat="44.060947" lon="2.77095">
<ele>366.3</ele>
<time>2013-05-08T14:16:00.000Z</time>
</trkpt>
<trkpt lat="44.061075" lon="2.770986">
<ele>366.4</ele>
<time>2013-05-08T14:16:01.000Z</time>
</trkpt>
<trkpt lat="44.061178" lon="2.771082">
<ele>365.8</ele>
<time>2013-05-08T14:16:02.000Z</time>
</trkpt>
<trkpt lat="44.061247" lon="2.771228">
<ele>365.1</ele>
<time>2013-05-08T14:16:03.000Z</time>
</trkpt>
<trkpt lat="44.061324" lon="2.771408">
<ele>364.9</ele>
<time>2013-05-08T14:16:04.000Z</time>
</trkpt>
<trkpt lat="44.061397" lon="2.771614">
<ele>364.9</ele>
<time>2013-05-08T14:16:05.000Z</time>
</trkpt>
<trkpt lat="44.061465" lon="2.771842">
<ele>365.1</ele>
<time>2013-05-08T14:16:06.000Z</time>
</trkpt>
<trkpt lat="44.061529" lon="2.772099">
<ele>365.5</ele>
<time>2013-05-08T14:16:07.000Z</time>
</trkpt>
<trkpt lat="44.061581" lon="2.772366">
<ele>366.1</ele>
<time>2013-05-08T14:16:08.000Z</time>
</trkpt>
<trkpt lat="44.061592" lon="2.772643">
<ele>366.7</ele>
<time>2013-05-08T14:16:09.000Z</time>
</trkpt>
<trkpt lat="44.061584" lon="2.772926">
<ele>367.2</ele>
<time>2013-05-08T14:16:10.000Z</time>
</trkpt>
<trkpt lat="44.061566" lon="2.773192">
<ele>367.6</ele>
<time>2013-05-08T14:16:11.000Z</time>
</trkpt>
<trkpt lat="44.061533" lon="2.773447">
<ele>368</ele>
<time>2013-05-08T14:16:12.000Z</time>
</trkpt>
<trkpt lat="44.061491" lon="2.773699">
<ele>367.9</ele>
<time>2013-05-08T14:16:13.000Z</time>
</trkpt>
<trkpt lat="44.06144" lon="2.773954">
<ele>367.9</ele>
<time>2013-05-08T14:16:14.000Z</time>
</trkpt>
<trkpt lat="44.061382" lon="2.774197">
<ele>368</ele>
<time>2013-05-08T14:16:15.000Z</time>
</trkpt>
<trkpt lat="44.061325" lon="2.774439">
<ele>368.5</ele>
<time>2013-05-08T14:16:16.000Z</time>
</trkpt>
<trkpt lat="44.061269" lon="2.774677">
<ele>369.1</ele>
<time>2013-05-08T14:16:17.000Z</time>
</trkpt>
<trkpt lat="44.06122" lon="2.774902">
<ele>369.7</ele>
<time>2013-05-08T14:16:18.000Z</time>
</trkpt>
<trkpt lat="44.061169" lon="2.775113">
<ele>370.1</ele>
<time>2013-05-08T14:16:19.000Z</time>
</trkpt>
<trkpt lat="44.06111" lon="2.775327">
<ele>370.2</ele>
<time>2013-05-08T14:16:20.000Z</time>
</trkpt>
<trkpt lat="44.061036" lon="2.775555">
<ele>370.3</ele>
<time>2013-05-08T14:16:21.000Z</time>
</trkpt>
<trkpt lat="44.06095" lon="2.775786">
<ele>370.5</ele>
<time>2013-05-08T14:16:22.000Z</time>
</trkpt>
<trkpt lat="44.060856" lon="2.776012">
<ele>370.6</ele>
<time>2013-05-08T14:16:23.000Z</time>
</trkpt>
<trkpt lat="44.060748" lon="2.776219">
<ele>370.8</ele>
<time>2013-05-08T14:16:24.000Z</time>
</trkpt>
<trkpt lat="44.060645" lon="2.776428">
<ele>371.1</ele>
<time>2013-05-08T14:16:25.000Z</time>
</trkpt>
<trkpt lat="44.060556" lon="2.77663">
<ele>371.3</ele>
<time>2013-05-08T14:16:26.000Z</time>
</trkpt>
<trkpt lat="44.060476" lon="2.776822">
<ele>371.7</ele>
<time>2013-05-08T14:16:27.000Z</time>
</trkpt>
<trkpt lat="44.060406" lon="2.777003">
<ele>371.7</ele>
<time>2013-05-08T14:16:28.000Z</time>
</trkpt>
<trkpt lat="44.06036" lon="2.777171">
<ele>371.5</ele>
<time>2013-05-08T14:16:29.000Z</time>
</trkpt>
<trkpt lat="44.06035" lon="2.777374">
<ele>371.2</ele>
<time>2013-05-08T14:16:30.000Z</time>
</trkpt>
<trkpt lat="44.060352" lon="2.777585">
<ele>370.9</ele>
<time>2013-05-08T14:16:31.000Z</time>
</trkpt>
<trkpt lat="44.060365" lon="2.777792">
<ele>370.6</ele>
<time>2013-05-08T14:16:32.000Z</time>
</trkpt>
<trkpt lat="44.060414" lon="2.777986">
<ele>370.1</ele>
<time>2013-05-08T14:16:33.000Z</time>
</trkpt>
<trkpt lat="44.060495" lon="2.778149">
<ele>369.2</ele>
<time>2013-05-08T14:16:34.000Z</time>
</trkpt>
<trkpt lat="44.060587" lon="2.778304">
<ele>368.3</ele>
<time>2013-05-08T14:16:35.000Z</time>
</trkpt>
<trkpt lat="44.060681" lon="2.778456">
<ele>367.9</ele>
<time>2013-05-08T14:16:36.000Z</time>
</trkpt>
<trkpt lat="44.060781" lon="2.77862">
<ele>367.5</ele>
<time>2013-05-08T14:16:37.000Z</time>
</trkpt>
<trkpt lat="44.060883" lon="2.778783">
<ele>366.7</ele>
<time>2013-05-08T14:16:38.000Z</time>
</trkpt>
<trkpt lat="44.060984" lon="2.778931">
<ele>366.1</ele>
<time>2013-05-08T14:16:39.000Z</time>
</trkpt>
<trkpt lat="44.061084" lon="2.779081">
<ele>365.5</ele>
<time>2013-05-08T14:16:40.000Z</time>
</trkpt>
<trkpt lat="44.061184" lon="2.779237">
<ele>364.8</ele>
<time>2013-05-08T14:16:41.000Z</time>
</trkpt>
<trkpt lat="44.061275" lon="2.779389">
<ele>363.8</ele>
<time>2013-05-08T14:16:42.000Z</time>
</trkpt>
<trkpt lat="44.061369" lon="2.77954">
<ele>362.7</ele>
<time>2013-05-08T14:16:43.000Z</time>
</trkpt>
<trkpt lat="44.061484" lon="2.779657">
<ele>361.6</ele>
<time>2013-05-08T14:16:44.000Z</time>
</trkpt>
<trkpt lat="44.061601" lon="2.779758">
<ele>360.4</ele>
<time>2013-05-08T14:16:45.000Z</time>
</trkpt>
<trkpt lat="44.061721" lon="2.779846">
<ele>359.5</ele>
<time>2013-05-08T14:16:46.000Z</time>
</trkpt>
<trkpt lat="44.061863" lon="2.779884">
<ele>359</ele>
<time>2013-05-08T14:16:47.000Z</time>
</trkpt>
<trkpt lat="44.062011" lon="2.779936">
<ele>358.5</ele>
<time>2013-05-08T14:16:48.000Z</time>
</trkpt>
<trkpt lat="44.062146" lon="2.780042">
<ele>358.2</ele>
<time>2013-05-08T14:16:49.000Z</time>
</trkpt>
<trkpt lat="44.062275" lon="2.780144">
<ele>357.7</ele>
<time>2013-05-08T14:16:50.000Z</time>
</trkpt>
<trkpt lat="44.0624" lon="2.780235">
<ele>357.4</ele>
<time>2013-05-08T14:16:51.000Z</time>
</trkpt>
<trkpt lat="44.062525" lon="2.780332">
<ele>357.1</ele>
<time>2013-05-08T14:16:52.000Z</time>
</trkpt>
<trkpt lat="44.062619" lon="2.780462">
<ele>357.1</ele>
<time>2013-05-08T14:16:53.000Z</time>
</trkpt>
<trkpt lat="44.062711" lon="2.780607">
<ele>357.2</ele>
<time>2013-05-08T14:16:54.000Z</time>
</trkpt>
<trkpt lat="44.062801" lon="2.780765">
<ele>357.6</ele>
<time>2013-05-08T14:16:55.000Z</time>
</trkpt>
<trkpt lat="44.062895" lon="2.780926">
<ele>358.1</ele>
<time>2013-05-08T14:16:56.000Z</time>
</trkpt>
<trkpt lat="44.062987" lon="2.781084">
<ele>358.7</ele>
<time>2013-05-08T14:16:57.000Z</time>
</trkpt>
<trkpt lat="44.06308" lon="2.781238">
<ele>359</ele>
<time>2013-05-08T14:16:58.000Z</time>
</trkpt>
<trkpt lat="44.063173" lon="2.781382">
<ele>359.5</ele>
<time>2013-05-08T14:16:59.000Z</time>
</trkpt>
<trkpt lat="44.063268" lon="2.781534">
<ele>359.8</ele>
<time>2013-05-08T14:17:00.000Z</time>
</trkpt>
<trkpt lat="44.063357" lon="2.781695">
<ele>360.1</ele>
<time>2013-05-08T14:17:01.000Z</time>
</trkpt>
<trkpt lat="44.06344" lon="2.78186">
<ele>360.1</ele>
<time>2013-05-08T14:17:02.000Z</time>
</trkpt>
<trkpt lat="44.06352" lon="2.782033">
<ele>359.7</ele>
<time>2013-05-08T14:17:03.000Z</time>
</trkpt>
<trkpt lat="44.063593" lon="2.782215">
<ele>359.1</ele>
<time>2013-05-08T14:17:04.000Z</time>
</trkpt>
<trkpt lat="44.063635" lon="2.782422">
<ele>358.7</ele>
<time>2013-05-08T14:17:05.000Z</time>
</trkpt>
<trkpt lat="44.063673" lon="2.782636">
<ele>358.3</ele>
<time>2013-05-08T14:17:06.000Z</time>
</trkpt>
<trkpt lat="44.063706" lon="2.782847">
<ele>358.2</ele>
<time>2013-05-08T14:17:07.000Z</time>
</trkpt>
<trkpt lat="44.063728" lon="2.78305">
<ele>358.2</ele>
<time>2013-05-08T14:17:08.000Z</time>
</trkpt>
<trkpt lat="44.063716" lon="2.783258">
<ele>358.3</ele>
<time>2013-05-08T14:17:09.000Z</time>
</trkpt>
<trkpt lat="44.063697" lon="2.783482">
<ele>358.4</ele>
<time>2013-05-08T14:17:10.000Z</time>
</trkpt>
<trkpt lat="44.063673" lon="2.783698">
<ele>358.5</ele>
<time>2013-05-08T14:17:11.000Z</time>
</trkpt>
<trkpt lat="44.063644" lon="2.78392">
<ele>358.7</ele>
<time>2013-05-08T14:17:12.000Z</time>
</trkpt>
<trkpt lat="44.063607" lon="2.784145">
<ele>358.7</ele>
<time>2013-05-08T14:17:13.000Z</time>
</trkpt>
<trkpt lat="44.063557" lon="2.784397">
<ele>358.7</ele>
<time>2013-05-08T14:17:14.000Z</time>
</trkpt>
<trkpt lat="44.063501" lon="2.784653">
<ele>358.3</ele>
<time>2013-05-08T14:17:15.000Z</time>
</trkpt>
<trkpt lat="44.063431" lon="2.784929">
<ele>358.3</ele>
<time>2013-05-08T14:17:16.000Z</time>
</trkpt>
<trkpt lat="44.063329" lon="2.785182">
<ele>358.1</ele>
<time>2013-05-08T14:17:17.000Z</time>
</trkpt>
<trkpt lat="44.063202" lon="2.785433">
<ele>358.6</ele>
<time>2013-05-08T14:17:18.000Z</time>
</trkpt>
<trkpt lat="44.063069" lon="2.785653">
<ele>359.2</ele>
<time>2013-05-08T14:17:19.000Z</time>
</trkpt>
<trkpt lat="44.062935" lon="2.785848">
<ele>359.8</ele>
<time>2013-05-08T14:17:20.000Z</time>
</trkpt>
<trkpt lat="44.062785" lon="2.786018">
<ele>360.2</ele>
<time>2013-05-08T14:17:21.000Z</time>
</trkpt>
<trkpt lat="44.062616" lon="2.78616">
<ele>360.9</ele>
<time>2013-05-08T14:17:22.000Z</time>
</trkpt>
<trkpt lat="44.062429" lon="2.786297">
<ele>361.7</ele>
<time>2013-05-08T14:17:23.000Z</time>
</trkpt>
<trkpt lat="44.062239" lon="2.786414">
<ele>362.6</ele>
<time>2013-05-08T14:17:24.000Z</time>
</trkpt>
<trkpt lat="44.062057" lon="2.786534">
<ele>363.5</ele>
<time>2013-05-08T14:17:25.000Z</time>
</trkpt>
<trkpt lat="44.061887" lon="2.786651">
<ele>364</ele>
<time>2013-05-08T14:17:26.000Z</time>
</trkpt>
<trkpt lat="44.061734" lon="2.786758">
<ele>364.5</ele>
<time>2013-05-08T14:17:27.000Z</time>
</trkpt>
<trkpt lat="44.061598" lon="2.786847">
<ele>364.9</ele>
<time>2013-05-08T14:17:28.000Z</time>
</trkpt>
<trkpt lat="44.061466" lon="2.786883">
<ele>365.1</ele>
<time>2013-05-08T14:17:29.000Z</time>
</trkpt>
<trkpt lat="44.06134" lon="2.786879">
<ele>365.9</ele>
<time>2013-05-08T14:17:30.000Z</time>
</trkpt>
<trkpt lat="44.061208" lon="2.78683">
<ele>366.8</ele>
<time>2013-05-08T14:17:31.000Z</time>
</trkpt>
<trkpt lat="44.061083" lon="2.786734">
<ele>367.7</ele>
<time>2013-05-08T14:17:32.000Z</time>
</trkpt>
<trkpt lat="44.06095" lon="2.786608">
<ele>368.7</ele>
<time>2013-05-08T14:17:33.000Z</time>
</trkpt>
<trkpt lat="44.06082" lon="2.786457">
<ele>369.6</ele>
<time>2013-05-08T14:17:34.000Z</time>
</trkpt>
<trkpt lat="44.060703" lon="2.786304">
<ele>370.1</ele>
<time>2013-05-08T14:17:35.000Z</time>
</trkpt>
<trkpt lat="44.060579" lon="2.786141">
<ele>370.5</ele>
<time>2013-05-08T14:17:36.000Z</time>
</trkpt>
<trkpt lat="44.060451" lon="2.785974">
<ele>370.6</ele>
<time>2013-05-08T14:17:37.000Z</time>
</trkpt>
<trkpt lat="44.060332" lon="2.785816">
<ele>370.8</ele>
<time>2013-05-08T14:17:38.000Z</time>
</trkpt>
<trkpt lat="44.060217" lon="2.785672">
<ele>371.2</ele>
<time>2013-05-08T14:17:39.000Z</time>
</trkpt>
<trkpt lat="44.060107" lon="2.785548">
<ele>371.3</ele>
<time>2013-05-08T14:17:40.000Z</time>
</trkpt>
<trkpt lat="44.059997" lon="2.785436">
<ele>371.2</ele>
<time>2013-05-08T14:17:41.000Z</time>
</trkpt>
<trkpt lat="44.059862" lon="2.785359">
<ele>371.6</ele>
<time>2013-05-08T14:17:42.000Z</time>
</trkpt>
<trkpt lat="44.059727" lon="2.785298">
<ele>371.9</ele>
<time>2013-05-08T14:17:43.000Z</time>
</trkpt>
<trkpt lat="44.059582" lon="2.785296">
<ele>372</ele>
<time>2013-05-08T14:17:44.000Z</time>
</trkpt>
<trkpt lat="44.059433" lon="2.7853">
<ele>371.9</ele>
<time>2013-05-08T14:17:45.000Z</time>
</trkpt>
<trkpt lat="44.059285" lon="2.785314">
<ele>371.6</ele>
<time>2013-05-08T14:17:46.000Z</time>
</trkpt>
<trkpt lat="44.05914" lon="2.785344">
<ele>371.2</ele>
<time>2013-05-08T14:17:47.000Z</time>
</trkpt>
<trkpt lat="44.058987" lon="2.785442">
<ele>370.9</ele>
<time>2013-05-08T14:17:48.000Z</time>
</trkpt>
<trkpt lat="44.058836" lon="2.785555">
<ele>370.5</ele>
<time>2013-05-08T14:17:49.000Z</time>
</trkpt>
<trkpt lat="44.058699" lon="2.785721">
<ele>370.3</ele>
<time>2013-05-08T14:17:50.000Z</time>
</trkpt>
<trkpt lat="44.058562" lon="2.785887">
<ele>370.3</ele>
<time>2013-05-08T14:17:51.000Z</time>
</trkpt>
<trkpt lat="44.058435" lon="2.786052">
<ele>370.4</ele>
<time>2013-05-08T14:17:52.000Z</time>
</trkpt>
<trkpt lat="44.058316" lon="2.786216">
<ele>370.7</ele>
<time>2013-05-08T14:17:53.000Z</time>
</trkpt>
<trkpt lat="44.058203" lon="2.78637">
<ele>371.1</ele>
<time>2013-05-08T14:17:54.000Z</time>
</trkpt>
<trkpt lat="44.058097" lon="2.786511">
<ele>371.6</ele>
<time>2013-05-08T14:17:55.000Z</time>
</trkpt>
<trkpt lat="44.058024" lon="2.78666">
<ele>372</ele>
<time>2013-05-08T14:17:56.000Z</time>
</trkpt>
<trkpt lat="44.05798" lon="2.786821">
<ele>372</ele>
<time>2013-05-08T14:17:57.000Z</time>
</trkpt>
<trkpt lat="44.057947" lon="2.786979">
<ele>372.2</ele>
<time>2013-05-08T14:17:58.000Z</time>
</trkpt>
<trkpt lat="44.057918" lon="2.787144">
<ele>372.4</ele>
<time>2013-05-08T14:17:59.000Z</time>
</trkpt>
<trkpt lat="44.057914" lon="2.787305">
<ele>372</ele>
<time>2013-05-08T14:18:00.000Z</time>
</trkpt>
<trkpt lat="44.057914" lon="2.78743">
<ele>371.2</ele>
<time>2013-05-08T14:18:01.000Z</time>
</trkpt>
<trkpt lat="44.057914" lon="2.787537">
<ele>370.2</ele>
<time>2013-05-08T14:18:02.000Z</time>
</trkpt>
<trkpt lat="44.057917" lon="2.787641">
<ele>369.1</ele>
<time>2013-05-08T14:18:03.000Z</time>
</trkpt>
<trkpt lat="44.057922" lon="2.787733">
<ele>367.9</ele>
<time>2013-05-08T14:18:04.000Z</time>
</trkpt>
<trkpt lat="44.057928" lon="2.787821">
<ele>366.4</ele>
<time>2013-05-08T14:18:05.000Z</time>
</trkpt>
<trkpt lat="44.057918" lon="2.787903">
<ele>365.2</ele>
<time>2013-05-08T14:18:06.000Z</time>
</trkpt>
<trkpt lat="44.057906" lon="2.787984">
<ele>364.1</ele>
<time>2013-05-08T14:18:07.000Z</time>
</trkpt>
<trkpt lat="44.057895" lon="2.788048">
<ele>363</ele>
<time>2013-05-08T14:18:08.000Z</time>
</trkpt>
<trkpt lat="44.057884" lon="2.788107">
<ele>362</ele>
<time>2013-05-08T14:18:09.000Z</time>
</trkpt>
<trkpt lat="44.057872" lon="2.788164">
<ele>361.1</ele>
<time>2013-05-08T14:18:10.000Z</time>
</trkpt>
<trkpt lat="44.057855" lon="2.788247">
<ele>360.4</ele>
<time>2013-05-08T14:18:11.000Z</time>
</trkpt>
<trkpt lat="44.057835" lon="2.788357">
<ele>359.9</ele>
<time>2013-05-08T14:18:12.000Z</time>
</trkpt>
<trkpt lat="44.057815" lon="2.788478">
<ele>359.5</ele>
<time>2013-05-08T14:18:13.000Z</time>
</trkpt>
<trkpt lat="44.057796" lon="2.788622">
<ele>358.9</ele>
<time>2013-05-08T14:18:14.000Z</time>
</trkpt>
<trkpt lat="44.057778" lon="2.788773">
<ele>358.5</ele>
<time>2013-05-08T14:18:15.000Z</time>
</trkpt>
<trkpt lat="44.057763" lon="2.788931">
<ele>358</ele>
<time>2013-05-08T14:18:16.000Z</time>
</trkpt>
<trkpt lat="44.057752" lon="2.789098">
<ele>357.3</ele>
<time>2013-05-08T14:18:17.000Z</time>
</trkpt>
<trkpt lat="44.057746" lon="2.78927">
<ele>356.6</ele>
<time>2013-05-08T14:18:18.000Z</time>
</trkpt>
<trkpt lat="44.057745" lon="2.789447">
<ele>356</ele>
<time>2013-05-08T14:18:19.000Z</time>
</trkpt>
<trkpt lat="44.057751" lon="2.789627">
<ele>355.3</ele>
<time>2013-05-08T14:18:20.000Z</time>
</trkpt>
<trkpt lat="44.057788" lon="2.789801">
<ele>354.3</ele>
<time>2013-05-08T14:18:21.000Z</time>
</trkpt>
<trkpt lat="44.057827" lon="2.789974">
<ele>353.4</ele>
<time>2013-05-08T14:18:22.000Z</time>
</trkpt>
<trkpt lat="44.057872" lon="2.790151">
<ele>353</ele>
<time>2013-05-08T14:18:23.000Z</time>
</trkpt>
<trkpt lat="44.057928" lon="2.790329">
<ele>352.5</ele>
<time>2013-05-08T14:18:24.000Z</time>
</trkpt>
<trkpt lat="44.058024" lon="2.790497">
<ele>352.1</ele>
<time>2013-05-08T14:18:25.000Z</time>
</trkpt>
<trkpt lat="44.058129" lon="2.790673">
<ele>351.6</ele>
<time>2013-05-08T14:18:26.000Z</time>
</trkpt>
<trkpt lat="44.058233" lon="2.790856">
<ele>351.3</ele>
<time>2013-05-08T14:18:27.000Z</time>
</trkpt>
<trkpt lat="44.058324" lon="2.791048">
<ele>351.1</ele>
<time>2013-05-08T14:18:28.000Z</time>
</trkpt>
<trkpt lat="44.058384" lon="2.79128">
<ele>350.9</ele>
<time>2013-05-08T14:18:29.000Z</time>
</trkpt>
<trkpt lat="44.058439" lon="2.791517">
<ele>350.8</ele>
<time>2013-05-08T14:18:30.000Z</time>
</trkpt>
<trkpt lat="44.058491" lon="2.791768">
<ele>351</ele>
<time>2013-05-08T14:18:31.000Z</time>
</trkpt>
<trkpt lat="44.05854" lon="2.792015">
<ele>351.2</ele>
<time>2013-05-08T14:18:32.000Z</time>
</trkpt>
<trkpt lat="44.058583" lon="2.792275">
<ele>351.5</ele>
<time>2013-05-08T14:18:33.000Z</time>
</trkpt>
<trkpt lat="44.058626" lon="2.792535">
<ele>351.9</ele>
<time>2013-05-08T14:18:34.000Z</time>
</trkpt>
<trkpt lat="44.058669" lon="2.792797">
<ele>352.5</ele>
<time>2013-05-08T14:18:35.000Z</time>
</trkpt>
<trkpt lat="44.058713" lon="2.793051">
<ele>353</ele>
<time>2013-05-08T14:18:36.000Z</time>
</trkpt>
<trkpt lat="44.058757" lon="2.793304">
<ele>353.6</ele>
<time>2013-05-08T14:18:37.000Z</time>
</trkpt>
<trkpt lat="44.05879" lon="2.793557">
<ele>354.3</ele>
<time>2013-05-08T14:18:38.000Z</time>
</trkpt>
<trkpt lat="44.058803" lon="2.793812">
<ele>355.1</ele>
<time>2013-05-08T14:18:39.000Z</time>
</trkpt>
<trkpt lat="44.058799" lon="2.794068">
<ele>355.7</ele>
<time>2013-05-08T14:18:40.000Z</time>
</trkpt>
<trkpt lat="44.058762" lon="2.794313">
<ele>356.4</ele>
<time>2013-05-08T14:18:41.000Z</time>
</trkpt>
<trkpt lat="44.058709" lon="2.79453">
<ele>357</ele>
<time>2013-05-08T14:18:42.000Z</time>
</trkpt>
<trkpt lat="44.058648" lon="2.794738">
<ele>357.9</ele>
<time>2013-05-08T14:18:43.000Z</time>
</trkpt>
<trkpt lat="44.05859" lon="2.794946">
<ele>359.4</ele>
<time>2013-05-08T14:18:44.000Z</time>
</trkpt>
<trkpt lat="44.058585" lon="2.795154">
<ele>360.8</ele>
<time>2013-05-08T14:18:45.000Z</time>
</trkpt>
<trkpt lat="44.058624" lon="2.795336">
<ele>362.2</ele>
<time>2013-05-08T14:18:46.000Z</time>
</trkpt>
<trkpt lat="44.0587" lon="2.795519">
<ele>364.1</ele>
<time>2013-05-08T14:18:47.000Z</time>
</trkpt>
<trkpt lat="44.058787" lon="2.795679">
<ele>366</ele>
<time>2013-05-08T14:18:48.000Z</time>
</trkpt>
<trkpt lat="44.058913" lon="2.79581">
<ele>367.9</ele>
<time>2013-05-08T14:18:49.000Z</time>
</trkpt>
<trkpt lat="44.059042" lon="2.795938">
<ele>369.7</ele>
<time>2013-05-08T14:18:50.000Z</time>
</trkpt>
<trkpt lat="44.059173" lon="2.796093">
<ele>371.6</ele>
<time>2013-05-08T14:18:51.000Z</time>
</trkpt>
<trkpt lat="44.059297" lon="2.796261">
<ele>373.3</ele>
<time>2013-05-08T14:18:52.000Z</time>
</trkpt>
<trkpt lat="44.059386" lon="2.796455">
<ele>375</ele>
<time>2013-05-08T14:18:53.000Z</time>
</trkpt>
<trkpt lat="44.059477" lon="2.796673">
<ele>376.7</ele>
<time>2013-05-08T14:18:54.000Z</time>
</trkpt>
<trkpt lat="44.059563" lon="2.796905">
<ele>378.2</ele>
<time>2013-05-08T14:18:55.000Z</time>
</trkpt>
<trkpt lat="44.05964" lon="2.797144">
<ele>379.6</ele>
<time>2013-05-08T14:18:56.000Z</time>
</trkpt>
<trkpt lat="44.0597" lon="2.797382">
<ele>381</ele>
<time>2013-05-08T14:18:57.000Z</time>
</trkpt>
<trkpt lat="44.059769" lon="2.797592">
<ele>382.2</ele>
<time>2013-05-08T14:18:58.000Z</time>
</trkpt>
<trkpt lat="44.059858" lon="2.797782">
<ele>383.5</ele>
<time>2013-05-08T14:18:59.000Z</time>
</trkpt>
<trkpt lat="44.059961" lon="2.797957">
<ele>385.1</ele>
<time>2013-05-08T14:19:00.000Z</time>
</trkpt>
<trkpt lat="44.060083" lon="2.798132">
<ele>386.8</ele>
<time>2013-05-08T14:19:01.000Z</time>
</trkpt>
<trkpt lat="44.060207" lon="2.798302">
<ele>388.4</ele>
<time>2013-05-08T14:19:02.000Z</time>
</trkpt>
<trkpt lat="44.060319" lon="2.798476">
<ele>389.8</ele>
<time>2013-05-08T14:19:03.000Z</time>
</trkpt>
<trkpt lat="44.060419" lon="2.798647">
<ele>391.1</ele>
<time>2013-05-08T14:19:04.000Z</time>
</trkpt>
<trkpt lat="44.060468" lon="2.798867">
<ele>392.5</ele>
<time>2013-05-08T14:19:05.000Z</time>
</trkpt>
<trkpt lat="44.060509" lon="2.799113">
<ele>393.7</ele>
<time>2013-05-08T14:19:06.000Z</time>
</trkpt>
<trkpt lat="44.060501" lon="2.799362">
<ele>394.9</ele>
<time>2013-05-08T14:19:07.000Z</time>
</trkpt>
<trkpt lat="44.060486" lon="2.799609">
<ele>396.1</ele>
<time>2013-05-08T14:19:08.000Z</time>
</trkpt>
<trkpt lat="44.060471" lon="2.799855">
<ele>397.2</ele>
<time>2013-05-08T14:19:09.000Z</time>
</trkpt>
<trkpt lat="44.060459" lon="2.80011">
<ele>398.3</ele>
<time>2013-05-08T14:19:10.000Z</time>
</trkpt>
<trkpt lat="44.060476" lon="2.80038">
<ele>399.7</ele>
<time>2013-05-08T14:19:11.000Z</time>
</trkpt>
<trkpt lat="44.060513" lon="2.800647">
<ele>401.2</ele>
<time>2013-05-08T14:19:12.000Z</time>
</trkpt>
<trkpt lat="44.060555" lon="2.800909">
<ele>402.6</ele>
<time>2013-05-08T14:19:13.000Z</time>
</trkpt>
<trkpt lat="44.060619" lon="2.801164">
<ele>403.9</ele>
<time>2013-05-08T14:19:14.000Z</time>
</trkpt>
<trkpt lat="44.060682" lon="2.801411">
<ele>405.3</ele>
<time>2013-05-08T14:19:15.000Z</time>
</trkpt>
<trkpt lat="44.060732" lon="2.801672">
<ele>406.9</ele>
<time>2013-05-08T14:19:16.000Z</time>
</trkpt>
<trkpt lat="44.060744" lon="2.80192">
<ele>408.4</ele>
<time>2013-05-08T14:19:17.000Z</time>
</trkpt>
<trkpt lat="44.060746" lon="2.802152">
<ele>409.7</ele>
<time>2013-05-08T14:19:18.000Z</time>
</trkpt>
<trkpt lat="44.060746" lon="2.802382">
<ele>410.9</ele>
<time>2013-05-08T14:19:19.000Z</time>
</trkpt>
<trkpt lat="44.060753" lon="2.802606">
<ele>412.3</ele>
<time>2013-05-08T14:19:20.000Z</time>
</trkpt>
<trkpt lat="44.060769" lon="2.802834">
<ele>414</ele>
<time>2013-05-08T14:19:21.000Z</time>
</trkpt>
<trkpt lat="44.060871" lon="2.803024">
<ele>415.4</ele>
<time>2013-05-08T14:19:22.000Z</time>
</trkpt>
<trkpt lat="44.060986" lon="2.803204">
<ele>416.8</ele>
<time>2013-05-08T14:19:23.000Z</time>
</trkpt>
<trkpt lat="44.061106" lon="2.803386">
<ele>418.2</ele>
<time>2013-05-08T14:19:24.000Z</time>
</trkpt>
<trkpt lat="44.061218" lon="2.803553">
<ele>419.5</ele>
<time>2013-05-08T14:19:25.000Z</time>
</trkpt>
<trkpt lat="44.061292" lon="2.803726">
<ele>420.8</ele>
<time>2013-05-08T14:19:26.000Z</time>
</trkpt>
<trkpt lat="44.06135" lon="2.803876">
<ele>422.1</ele>
<time>2013-05-08T14:19:27.000Z</time>
</trkpt>
<trkpt lat="44.061394" lon="2.803993">
<ele>423.3</ele>
<time>2013-05-08T14:19:28.000Z</time>
</trkpt>
<trkpt lat="44.061425" lon="2.804083">
<ele>424.5</ele>
<time>2013-05-08T14:19:29.000Z</time>
</trkpt>
<trkpt lat="44.061442" lon="2.804134">
<ele>425.8</ele>
<time>2013-05-08T14:19:30.000Z</time>
</trkpt>
<trkpt lat="44.061454" lon="2.804173">
<ele>426</ele>
<time>2013-05-08T14:19:31.000Z</time>
</trkpt>
<trkpt lat="44.061456" lon="2.804203">
<ele>426.2</ele>
<time>2013-05-08T14:19:45.999Z</time>
</trkpt>
<trkpt lat="44.061447" lon="2.804238">
<ele>426.3</ele>
<time>2013-05-08T14:19:46.999Z</time>
</trkpt>
<trkpt lat="44.061428" lon="2.804253">
<ele>426.4</ele>
<time>2013-05-08T14:19:47.999Z</time>
</trkpt>
<trkpt lat="44.061397" lon="2.804261">
<ele>426.5</ele>
<time>2013-05-08T14:19:48.999Z</time>
</trkpt>
<trkpt lat="44.061354" lon="2.804211">
<ele>427.5</ele>
<time>2013-05-08T14:19:49.999Z</time>
</trkpt>
<trkpt lat="44.061324" lon="2.804122">
<ele>428.7</ele>
<time>2013-05-08T14:19:50.999Z</time>
</trkpt>
<trkpt lat="44.061285" lon="2.804015">
<ele>429.5</ele>
<time>2013-05-08T14:19:51.999Z</time>
</trkpt>
<trkpt lat="44.061236" lon="2.803892">
<ele>429.9</ele>
<time>2013-05-08T14:19:52.999Z</time>
</trkpt>
<trkpt lat="44.061172" lon="2.803746">
<ele>431</ele>
<time>2013-05-08T14:19:53.999Z</time>
</trkpt>
<trkpt lat="44.061101" lon="2.8036">
<ele>431.6</ele>
<time>2013-05-08T14:19:54.999Z</time>
</trkpt>
<trkpt lat="44.061027" lon="2.803465">
<ele>431.9</ele>
<time>2013-05-08T14:19:55.999Z</time>
</trkpt>
<trkpt lat="44.060949" lon="2.803353">
<ele>432.4</ele>
<time>2013-05-08T14:19:56.999Z</time>
</trkpt>
<trkpt lat="44.060853" lon="2.803295">
<ele>433.1</ele>
<time>2013-05-08T14:19:57.999Z</time>
</trkpt>
<trkpt lat="44.060743" lon="2.803236">
<ele>433.8</ele>
<time>2013-05-08T14:19:58.999Z</time>
</trkpt>
<trkpt lat="44.060635" lon="2.803182">
<ele>434.5</ele>
<time>2013-05-08T14:19:59.999Z</time>
</trkpt>
<trkpt lat="44.06053" lon="2.803128">
<ele>435.2</ele>
<time>2013-05-08T14:20:00.999Z</time>
</trkpt>
<trkpt lat="44.060422" lon="2.803073">
<ele>436.2</ele>
<time>2013-05-08T14:20:01.999Z</time>
</trkpt>
<trkpt lat="44.06034" lon="2.802968">
<ele>437.6</ele>
<time>2013-05-08T14:20:02.999Z</time>
</trkpt>
<trkpt lat="44.060262" lon="2.802852">
<ele>439.7</ele>
<time>2013-05-08T14:20:03.999Z</time>
</trkpt>
<trkpt lat="44.060219" lon="2.802719">
<ele>442.2</ele>
<time>2013-05-08T14:20:04.999Z</time>
</trkpt>
<trkpt lat="44.060183" lon="2.802561">
<ele>444.5</ele>
<time>2013-05-08T14:20:05.999Z</time>
</trkpt>
<trkpt lat="44.060149" lon="2.802397">
<ele>446.7</ele>
<time>2013-05-08T14:20:06.999Z</time>
</trkpt>
<trkpt lat="44.060123" lon="2.802246">
<ele>448.4</ele>
<time>2013-05-08T14:20:07.999Z</time>
</trkpt>
<trkpt lat="44.060107" lon="2.802094">
<ele>449.5</ele>
<time>2013-05-08T14:20:08.999Z</time>
</trkpt>
<trkpt lat="44.060059" lon="2.80194">
<ele>450.5</ele>
<time>2013-05-08T14:20:09.999Z</time>
</trkpt>
<trkpt lat="44.059997" lon="2.801777">
<ele>451.4</ele>
<time>2013-05-08T14:20:10.999Z</time>
</trkpt>
<trkpt lat="44.059921" lon="2.801614">
<ele>452</ele>
<time>2013-05-08T14:20:11.999Z</time>
</trkpt>
<trkpt lat="44.059834" lon="2.801442">
<ele>452.5</ele>
<time>2013-05-08T14:20:12.999Z</time>
</trkpt>
<trkpt lat="44.059752" lon="2.801262">
<ele>453.4</ele>
<time>2013-05-08T14:20:13.999Z</time>
</trkpt>
<trkpt lat="44.059679" lon="2.80108">
<ele>454.5</ele>
<time>2013-05-08T14:20:14.999Z</time>
</trkpt>
<trkpt lat="44.059654" lon="2.800893">
<ele>455.6</ele>
<time>2013-05-08T14:20:15.999Z</time>
</trkpt>
<trkpt lat="44.059633" lon="2.800717">
<ele>456.7</ele>
<time>2013-05-08T14:20:16.999Z</time>
</trkpt>
<trkpt lat="44.059607" lon="2.800556">
<ele>458</ele>
<time>2013-05-08T14:20:17.999Z</time>
</trkpt>
<trkpt lat="44.05955" lon="2.800408">
<ele>459.2</ele>
<time>2013-05-08T14:20:18.999Z</time>
</trkpt>
<trkpt lat="44.05949" lon="2.800251">
<ele>460.6</ele>
<time>2013-05-08T14:20:19.999Z</time>
</trkpt>
<trkpt lat="44.05943" lon="2.800087">
<ele>461.9</ele>
<time>2013-05-08T14:20:20.999Z</time>
</trkpt>
<trkpt lat="44.059368" lon="2.799927">
<ele>463</ele>
<time>2013-05-08T14:20:21.999Z</time>
</trkpt>
<trkpt lat="44.05931" lon="2.799783">
<ele>463.5</ele>
<time>2013-05-08T14:20:22.999Z</time>
</trkpt>
<trkpt lat="44.059245" lon="2.799654">
<ele>463.8</ele>
<time>2013-05-08T14:20:23.999Z</time>
</trkpt>
<trkpt lat="44.059146" lon="2.799577">
<ele>463.5</ele>
<time>2013-05-08T14:20:24.999Z</time>
</trkpt>
<trkpt lat="44.05905" lon="2.799514">
<ele>463.2</ele>
<time>2013-05-08T14:20:25.999Z</time>
</trkpt>
<trkpt lat="44.058951" lon="2.799461">
<ele>463.2</ele>
<time>2013-05-08T14:20:26.999Z</time>
</trkpt>
<trkpt lat="44.058845" lon="2.799409">
<ele>463.1</ele>
<time>2013-05-08T14:20:27.999Z</time>
</trkpt>
<trkpt lat="44.05876" lon="2.799328">
<ele>463.3</ele>
<time>2013-05-08T14:20:28.999Z</time>
</trkpt>
<trkpt lat="44.058705" lon="2.799218">
<ele>463.9</ele>
<time>2013-05-08T14:20:29.999Z</time>
</trkpt>
<trkpt lat="44.058654" lon="2.799113">
<ele>464.9</ele>
<time>2013-05-08T14:20:30.999Z</time>
</trkpt>
<trkpt lat="44.058617" lon="2.798999">
<ele>465.7</ele>
<time>2013-05-08T14:20:31.999Z</time>
</trkpt>
<trkpt lat="44.058579" lon="2.79889">
<ele>466.4</ele>
<time>2013-05-08T14:20:32.999Z</time>
</trkpt>
<trkpt lat="44.058547" lon="2.798827">
<ele>467.4</ele>
<time>2013-05-08T14:20:33.999Z</time>
</trkpt>
<trkpt lat="44.058503" lon="2.79879">
<ele>467.8</ele>
<time>2013-05-08T14:20:34.999Z</time>
</trkpt>
<trkpt lat="44.058458" lon="2.798782">
<ele>468.9</ele>
<time>2013-05-08T14:20:35.999Z</time>
</trkpt>
<trkpt lat="44.058404" lon="2.798806">
<ele>470</ele>
<time>2013-05-08T14:20:36.999Z</time>
</trkpt>
<trkpt lat="44.058376" lon="2.798916">
<ele>471.3</ele>
<time>2013-05-08T14:20:37.999Z</time>
</trkpt>
<trkpt lat="44.058348" lon="2.799038">
<ele>472.1</ele>
<time>2013-05-08T14:20:38.999Z</time>
</trkpt>
<trkpt lat="44.058315" lon="2.799179">
<ele>472.9</ele>
<time>2013-05-08T14:20:39.999Z</time>
</trkpt>
<trkpt lat="44.058282" lon="2.799334">
<ele>474.3</ele>
<time>2013-05-08T14:20:40.999Z</time>
</trkpt>
<trkpt lat="44.058233" lon="2.799498">
<ele>475.7</ele>
<time>2013-05-08T14:20:41.999Z</time>
</trkpt>
<trkpt lat="44.058174" lon="2.799667">
<ele>477.1</ele>
<time>2013-05-08T14:20:42.999Z</time>
</trkpt>
<trkpt lat="44.058103" lon="2.799837">
<ele>478.8</ele>
<time>2013-05-08T14:20:43.999Z</time>
</trkpt>
<trkpt lat="44.058027" lon="2.8">
<ele>480.9</ele>
<time>2013-05-08T14:20:44.999Z</time>
</trkpt>
<trkpt lat="44.057943" lon="2.800161">
<ele>483</ele>
<time>2013-05-08T14:20:45.999Z</time>
</trkpt>
<trkpt lat="44.057841" lon="2.800329">
<ele>484.8</ele>
<time>2013-05-08T14:20:46.999Z</time>
</trkpt>
<trkpt lat="44.057736" lon="2.800483">
<ele>486.4</ele>
<time>2013-05-08T14:20:47.999Z</time>
</trkpt>
<trkpt lat="44.057631" lon="2.800634">
<ele>487.8</ele>
<time>2013-05-08T14:20:48.999Z</time>
</trkpt>
<trkpt lat="44.057522" lon="2.800791">
<ele>489.2</ele>
<time>2013-05-08T14:20:49.999Z</time>
</trkpt>
<trkpt lat="44.057416" lon="2.800962">
<ele>490.7</ele>
<time>2013-05-08T14:20:50.999Z</time>
</trkpt>
<trkpt lat="44.05731" lon="2.801138">
<ele>492.2</ele>
<time>2013-05-08T14:20:51.999Z</time>
</trkpt>
<trkpt lat="44.05721" lon="2.801314">
<ele>493.3</ele>
<time>2013-05-08T14:20:52.999Z</time>
</trkpt>
<trkpt lat="44.057106" lon="2.8015">
<ele>494.4</ele>
<time>2013-05-08T14:20:53.999Z</time>
</trkpt>
<trkpt lat="44.057003" lon="2.801684">
<ele>495.8</ele>
<time>2013-05-08T14:20:54.999Z</time>
</trkpt>
<trkpt lat="44.056913" lon="2.801863">
<ele>497.2</ele>
<time>2013-05-08T14:20:55.999Z</time>
</trkpt>
<trkpt lat="44.056825" lon="2.802046">
<ele>498.6</ele>
<time>2013-05-08T14:20:56.999Z</time>
</trkpt>
<trkpt lat="44.056739" lon="2.802253">
<ele>500.1</ele>
<time>2013-05-08T14:20:57.999Z</time>
</trkpt>
<trkpt lat="44.056663" lon="2.802459">
<ele>501.7</ele>
<time>2013-05-08T14:20:58.999Z</time>
</trkpt>
<trkpt lat="44.056594" lon="2.802666">
<ele>503.4</ele>
<time>2013-05-08T14:20:59.999Z</time>
</trkpt>
<trkpt lat="44.056531" lon="2.802866">
<ele>505</ele>
<time>2013-05-08T14:21:00.999Z</time>
</trkpt>
<trkpt lat="44.056479" lon="2.803055">
<ele>506.6</ele>
<time>2013-05-08T14:21:01.999Z</time>
</trkpt>
<trkpt lat="44.056434" lon="2.803215">
<ele>508</ele>
<time>2013-05-08T14:21:02.999Z</time>
</trkpt>
<trkpt lat="44.056372" lon="2.803328">
<ele>509.2</ele>
<time>2013-05-08T14:21:03.999Z</time>
</trkpt>
<trkpt lat="44.056291" lon="2.8034">
<ele>510.4</ele>
<time>2013-05-08T14:21:04.999Z</time>
</trkpt>
<trkpt lat="44.056209" lon="2.803462">
<ele>511.3</ele>
<time>2013-05-08T14:21:05.999Z</time>
</trkpt>
<trkpt lat="44.056116" lon="2.803536">
<ele>512</ele>
<time>2013-05-08T14:21:06.999Z</time>
</trkpt>
<trkpt lat="44.056015" lon="2.80362">
<ele>512.8</ele>
<time>2013-05-08T14:21:07.999Z</time>
</trkpt>
<trkpt lat="44.055908" lon="2.803716">
<ele>513.4</ele>
<time>2013-05-08T14:21:08.999Z</time>
</trkpt>
<trkpt lat="44.055788" lon="2.803831">
<ele>514.1</ele>
<time>2013-05-08T14:21:09.999Z</time>
</trkpt>
<trkpt lat="44.055655" lon="2.803957">
<ele>515</ele>
<time>2013-05-08T14:21:10.999Z</time>
</trkpt>
<trkpt lat="44.055527" lon="2.804085">
<ele>516.3</ele>
<time>2013-05-08T14:21:11.999Z</time>
</trkpt>
<trkpt lat="44.055411" lon="2.80421">
<ele>517.7</ele>
<time>2013-05-08T14:21:12.999Z</time>
</trkpt>
<trkpt lat="44.055305" lon="2.804346">
<ele>519.4</ele>
<time>2013-05-08T14:21:13.999Z</time>
</trkpt>
<trkpt lat="44.055219" lon="2.804509">
<ele>521.4</ele>
<time>2013-05-08T14:21:14.999Z</time>
</trkpt>
<trkpt lat="44.055135" lon="2.804657">
<ele>522.9</ele>
<time>2013-05-08T14:21:15.999Z</time>
</trkpt>
<trkpt lat="44.05502" lon="2.804752">
<ele>524.4</ele>
<time>2013-05-08T14:21:16.999Z</time>
</trkpt>
<trkpt lat="44.054905" lon="2.804838">
<ele>525.7</ele>
<time>2013-05-08T14:21:17.999Z</time>
</trkpt>
<trkpt lat="44.054793" lon="2.804918">
<ele>526.9</ele>
<time>2013-05-08T14:21:18.999Z</time>
</trkpt>
<trkpt lat="44.054689" lon="2.804993">
<ele>528</ele>
<time>2013-05-08T14:21:19.999Z</time>
</trkpt>
<trkpt lat="44.054591" lon="2.805068">
<ele>528.9</ele>
<time>2013-05-08T14:21:20.999Z</time>
</trkpt>
<trkpt lat="44.054491" lon="2.805167">
<ele>529.2</ele>
<time>2013-05-08T14:21:21.999Z</time>
</trkpt>
<trkpt lat="44.054402" lon="2.805324">
<ele>529.2</ele>
<time>2013-05-08T14:21:22.999Z</time>
</trkpt>
<trkpt lat="44.054348" lon="2.8055">
<ele>530</ele>
<time>2013-05-08T14:21:23.999Z</time>
</trkpt>
<trkpt lat="44.054307" lon="2.805681">
<ele>530.8</ele>
<time>2013-05-08T14:21:24.999Z</time>
</trkpt>
<trkpt lat="44.054266" lon="2.805852">
<ele>531.4</ele>
<time>2013-05-08T14:21:25.999Z</time>
</trkpt>
<trkpt lat="44.054222" lon="2.806005">
<ele>532</ele>
<time>2013-05-08T14:21:26.999Z</time>
</trkpt>
<trkpt lat="44.054185" lon="2.806149">
<ele>533.1</ele>
<time>2013-05-08T14:21:27.999Z</time>
</trkpt>
<trkpt lat="44.054173" lon="2.80632">
<ele>533.8</ele>
<time>2013-05-08T14:21:28.999Z</time>
</trkpt>
<trkpt lat="44.054167" lon="2.806449">
<ele>534.3</ele>
<time>2013-05-08T14:21:29.999Z</time>
</trkpt>
<trkpt lat="44.05416" lon="2.806556">
<ele>534.6</ele>
<time>2013-05-08T14:21:30.999Z</time>
</trkpt>
<trkpt lat="44.054105" lon="2.806572">
<ele>535.1</ele>
<time>2013-05-08T14:21:31.999Z</time>
</trkpt>
<trkpt lat="44.054039" lon="2.80654">
<ele>535.5</ele>
<time>2013-05-08T14:21:32.999Z</time>
</trkpt>
<trkpt lat="44.053968" lon="2.806474">
<ele>536</ele>
<time>2013-05-08T14:21:33.999Z</time>
</trkpt>
<trkpt lat="44.053904" lon="2.806354">
<ele>536.7</ele>
<time>2013-05-08T14:21:34.999Z</time>
</trkpt>
<trkpt lat="44.053857" lon="2.806183">
<ele>537.6</ele>
<time>2013-05-08T14:21:35.999Z</time>
</trkpt>
<trkpt lat="44.053809" lon="2.805988">
<ele>538.6</ele>
<time>2013-05-08T14:21:36.999Z</time>
</trkpt>
<trkpt lat="44.053765" lon="2.805801">
<ele>539.6</ele>
<time>2013-05-08T14:21:37.999Z</time>
</trkpt>
<trkpt lat="44.053723" lon="2.805618">
<ele>540.2</ele>
<time>2013-05-08T14:21:38.999Z</time>
</trkpt>
<trkpt lat="44.053663" lon="2.80545">
<ele>540.4</ele>
<time>2013-05-08T14:21:39.999Z</time>
</trkpt>
<trkpt lat="44.053589" lon="2.805279">
<ele>540.1</ele>
<time>2013-05-08T14:21:40.999Z</time>
</trkpt>
<trkpt lat="44.053494" lon="2.805144">
<ele>539.9</ele>
<time>2013-05-08T14:21:41.999Z</time>
</trkpt>
<trkpt lat="44.053407" lon="2.80503">
<ele>539.9</ele>
<time>2013-05-08T14:21:42.999Z</time>
</trkpt>
<trkpt lat="44.053294" lon="2.804956">
<ele>539.4</ele>
<time>2013-05-08T14:21:43.999Z</time>
</trkpt>
<trkpt lat="44.053156" lon="2.804888">
<ele>539</ele>
<time>2013-05-08T14:21:44.999Z</time>
</trkpt>
<trkpt lat="44.053024" lon="2.80483">
<ele>539.3</ele>
<time>2013-05-08T14:21:45.999Z</time>
</trkpt>
<trkpt lat="44.0529" lon="2.804812">
<ele>539.9</ele>
<time>2013-05-08T14:21:46.999Z</time>
</trkpt>
<trkpt lat="44.052796" lon="2.804796">
<ele>540.7</ele>
<time>2013-05-08T14:21:47.999Z</time>
</trkpt>
<trkpt lat="44.052735" lon="2.804739">
<ele>541.6</ele>
<time>2013-05-08T14:21:48.999Z</time>
</trkpt>
<trkpt lat="44.0527" lon="2.804652">
<ele>543.7</ele>
<time>2013-05-08T14:21:49.999Z</time>
</trkpt>
<trkpt lat="44.0527" lon="2.804556">
<ele>545.9</ele>
<time>2013-05-08T14:21:50.999Z</time>
</trkpt>
<trkpt lat="44.052734" lon="2.80447">
<ele>548.2</ele>
<time>2013-05-08T14:21:51.999Z</time>
</trkpt>
<trkpt lat="44.052782" lon="2.804367">
<ele>550.4</ele>
<time>2013-05-08T14:21:52.999Z</time>
</trkpt>
<trkpt lat="44.052844" lon="2.804228">
<ele>552</ele>
<time>2013-05-08T14:21:53.999Z</time>
</trkpt>
<trkpt lat="44.052899" lon="2.804081">
<ele>553.4</ele>
<time>2013-05-08T14:21:54.999Z</time>
</trkpt>
<trkpt lat="44.05295" lon="2.803899">
<ele>554.5</ele>
<time>2013-05-08T14:21:55.999Z</time>
</trkpt>
<trkpt lat="44.052964" lon="2.803719">
<ele>555.5</ele>
<time>2013-05-08T14:21:56.999Z</time>
</trkpt>
<trkpt lat="44.052985" lon="2.803527">
<ele>557.5</ele>
<time>2013-05-08T14:21:57.999Z</time>
</trkpt>
<trkpt lat="44.053009" lon="2.803314">
<ele>559</ele>
<time>2013-05-08T14:21:58.999Z</time>
</trkpt>
<trkpt lat="44.053027" lon="2.803105">
<ele>560.2</ele>
<time>2013-05-08T14:21:59.999Z</time>
</trkpt>
<trkpt lat="44.053043" lon="2.802908">
<ele>561.1</ele>
<time>2013-05-08T14:22:00.999Z</time>
</trkpt>
<trkpt lat="44.053059" lon="2.80272">
<ele>561.9</ele>
<time>2013-05-08T14:22:01.999Z</time>
</trkpt>
<trkpt lat="44.053042" lon="2.802581">
<ele>562.5</ele>
<time>2013-05-08T14:22:02.999Z</time>
</trkpt>
<trkpt lat="44.053009" lon="2.802472">
<ele>563.1</ele>
<time>2013-05-08T14:22:03.999Z</time>
</trkpt>
<trkpt lat="44.052973" lon="2.802396">
<ele>563.8</ele>
<time>2013-05-08T14:22:04.999Z</time>
</trkpt>
<trkpt lat="44.05292" lon="2.802395">
<ele>565.1</ele>
<time>2013-05-08T14:22:05.999Z</time>
</trkpt>
<trkpt lat="44.052863" lon="2.802442">
<ele>566.4</ele>
<time>2013-05-08T14:22:06.999Z</time>
</trkpt>
<trkpt lat="44.052843" lon="2.802566">
<ele>567.7</ele>
<time>2013-05-08T14:22:07.999Z</time>
</trkpt>
<trkpt lat="44.05282" lon="2.802722">
<ele>569</ele>
<time>2013-05-08T14:22:08.999Z</time>
</trkpt>
<trkpt lat="44.05277" lon="2.802872">
<ele>570.5</ele>
<time>2013-05-08T14:22:09.999Z</time>
</trkpt>
<trkpt lat="44.0527" lon="2.803079">
<ele>572</ele>
<time>2013-05-08T14:22:10.999Z</time>
</trkpt>
<trkpt lat="44.052636" lon="2.80326">
<ele>573.3</ele>
<time>2013-05-08T14:22:11.999Z</time>
</trkpt>
<trkpt lat="44.052567" lon="2.80346">
<ele>574.8</ele>
<time>2013-05-08T14:22:12.999Z</time>
</trkpt>
<trkpt lat="44.052488" lon="2.80366">
<ele>576.6</ele>
<time>2013-05-08T14:22:13.999Z</time>
</trkpt>
<trkpt lat="44.052402" lon="2.80388">
<ele>578.6</ele>
<time>2013-05-08T14:22:14.999Z</time>
</trkpt>
<trkpt lat="44.052309" lon="2.804104">
<ele>580.6</ele>
<time>2013-05-08T14:22:15.999Z</time>
</trkpt>
<trkpt lat="44.052202" lon="2.804344">
<ele>582</ele>
<time>2013-05-08T14:22:16.999Z</time>
</trkpt>
<trkpt lat="44.05209" lon="2.804563">
<ele>583.4</ele>
<time>2013-05-08T14:22:17.999Z</time>
</trkpt>
<trkpt lat="44.051976" lon="2.804758">
<ele>584.8</ele>
<time>2013-05-08T14:22:18.999Z</time>
</trkpt>
<trkpt lat="44.051865" lon="2.804931">
<ele>586</ele>
<time>2013-05-08T14:22:19.999Z</time>
</trkpt>
<trkpt lat="44.051757" lon="2.805103">
<ele>587.6</ele>
<time>2013-05-08T14:22:20.999Z</time>
</trkpt>
<trkpt lat="44.051654" lon="2.805269">
<ele>589.5</ele>
<time>2013-05-08T14:22:21.999Z</time>
</trkpt>
<trkpt lat="44.05156" lon="2.805421">
<ele>591.6</ele>
<time>2013-05-08T14:22:22.999Z</time>
</trkpt>
<trkpt lat="44.051477" lon="2.805547">
<ele>593.7</ele>
<time>2013-05-08T14:22:23.999Z</time>
</trkpt>
<trkpt lat="44.051402" lon="2.805657">
<ele>595.9</ele>
<time>2013-05-08T14:22:24.999Z</time>
</trkpt>
<trkpt lat="44.05133" lon="2.805751">
<ele>597.7</ele>
<time>2013-05-08T14:22:25.999Z</time>
</trkpt>
<trkpt lat="44.051254" lon="2.805846">
<ele>599.4</ele>
<time>2013-05-08T14:22:26.999Z</time>
</trkpt>
<trkpt lat="44.051172" lon="2.80594">
<ele>601.1</ele>
<time>2013-05-08T14:22:27.999Z</time>
</trkpt>
<trkpt lat="44.051088" lon="2.80602">
<ele>602.7</ele>
<time>2013-05-08T14:22:28.999Z</time>
</trkpt>
<trkpt lat="44.051018" lon="2.806123">
<ele>603.8</ele>
<time>2013-05-08T14:22:29.999Z</time>
</trkpt>
<trkpt lat="44.050978" lon="2.806276">
<ele>604.6</ele>
<time>2013-05-08T14:22:30.999Z</time>
</trkpt>
<trkpt lat="44.050946" lon="2.806424">
<ele>605</ele>
<time>2013-05-08T14:22:31.999Z</time>
</trkpt>
<trkpt lat="44.050941" lon="2.806588">
<ele>605</ele>
<time>2013-05-08T14:22:32.999Z</time>
</trkpt>
<trkpt lat="44.050943" lon="2.806742">
<ele>605</ele>
<time>2013-05-08T14:22:33.999Z</time>
</trkpt>
<trkpt lat="44.05097" lon="2.806871">
<ele>604.9</ele>
<time>2013-05-08T14:22:34.999Z</time>
</trkpt>
<trkpt lat="44.051002" lon="2.806979">
<ele>604.6</ele>
<time>2013-05-08T14:22:35.999Z</time>
</trkpt>
<trkpt lat="44.051032" lon="2.807056">
<ele>604.6</ele>
<time>2013-05-08T14:22:36.999Z</time>
</trkpt>
<trkpt lat="44.05106" lon="2.807131">
<ele>604.7</ele>
<time>2013-05-08T14:22:37.999Z</time>
</trkpt>
<trkpt lat="44.051074" lon="2.807209">
<ele>604.6</ele>
<time>2013-05-08T14:22:38.999Z</time>
</trkpt>
<trkpt lat="44.051081" lon="2.807288">
<ele>604.7</ele>
<time>2013-05-08T14:22:39.999Z</time>
</trkpt>
<trkpt lat="44.051093" lon="2.807377">
<ele>604.3</ele>
<time>2013-05-08T14:22:40.999Z</time>
</trkpt>
<trkpt lat="44.051159" lon="2.807494">
<ele>604.3</ele>
<time>2013-05-08T14:22:41.999Z</time>
</trkpt>
<trkpt lat="44.051241" lon="2.807626">
<ele>604.3</ele>
<time>2013-05-08T14:22:42.999Z</time>
</trkpt>
<trkpt lat="44.051342" lon="2.807793">
<ele>604.1</ele>
<time>2013-05-08T14:22:43.999Z</time>
</trkpt>
<trkpt lat="44.051438" lon="2.807953">
<ele>604.1</ele>
<time>2013-05-08T14:22:44.999Z</time>
</trkpt>
<trkpt lat="44.051505" lon="2.808147">
<ele>604.3</ele>
<time>2013-05-08T14:22:45.999Z</time>
</trkpt>
<trkpt lat="44.051561" lon="2.808366">
<ele>604.3</ele>
<time>2013-05-08T14:22:46.999Z</time>
</trkpt>
<trkpt lat="44.051581" lon="2.808609">
<ele>604.3</ele>
<time>2013-05-08T14:22:47.999Z</time>
</trkpt>
<trkpt lat="44.051593" lon="2.808846">
<ele>604.5</ele>
<time>2013-05-08T14:22:48.999Z</time>
</trkpt>
<trkpt lat="44.05156" lon="2.809077">
<ele>604.9</ele>
<time>2013-05-08T14:22:49.999Z</time>
</trkpt>
<trkpt lat="44.051519" lon="2.809298">
<ele>605.6</ele>
<time>2013-05-08T14:22:50.999Z</time>
</trkpt>
<trkpt lat="44.051478" lon="2.8095">
<ele>606.3</ele>
<time>2013-05-08T14:22:51.999Z</time>
</trkpt>
<trkpt lat="44.051449" lon="2.809708">
<ele>607.4</ele>
<time>2013-05-08T14:22:52.999Z</time>
</trkpt>
<trkpt lat="44.051466" lon="2.809917">
<ele>609.1</ele>
<time>2013-05-08T14:22:53.999Z</time>
</trkpt>
<trkpt lat="44.05149" lon="2.810101">
<ele>610.9</ele>
<time>2013-05-08T14:22:54.999Z</time>
</trkpt>
<trkpt lat="44.051547" lon="2.810281">
<ele>612.4</ele>
<time>2013-05-08T14:22:55.999Z</time>
</trkpt>
<trkpt lat="44.051708" lon="2.810393">
<ele>613.4</ele>
<time>2013-05-08T14:22:56.999Z</time>
</trkpt>
<trkpt lat="44.051875" lon="2.810515">
<ele>614.1</ele>
<time>2013-05-08T14:22:57.999Z</time>
</trkpt>
<trkpt lat="44.052023" lon="2.810648">
<ele>614.4</ele>
<time>2013-05-08T14:22:58.999Z</time>
</trkpt>
<trkpt lat="44.052135" lon="2.810826">
<ele>614.5</ele>
<time>2013-05-08T14:22:59.999Z</time>
</trkpt>
<trkpt lat="44.052234" lon="2.81102">
<ele>614.4</ele>
<time>2013-05-08T14:23:00.999Z</time>
</trkpt>
<trkpt lat="44.052317" lon="2.811201">
<ele>613.1</ele>
<time>2013-05-08T14:23:01.999Z</time>
</trkpt>
<trkpt lat="44.052407" lon="2.811414">
<ele>612.3</ele>
<time>2013-05-08T14:23:02.999Z</time>
</trkpt>
<trkpt lat="44.052503" lon="2.811642">
<ele>612.8</ele>
<time>2013-05-08T14:23:03.999Z</time>
</trkpt>
<trkpt lat="44.052625" lon="2.811837">
<ele>614.1</ele>
<time>2013-05-08T14:23:04.999Z</time>
</trkpt>
<trkpt lat="44.052756" lon="2.812014">
<ele>615.6</ele>
<time>2013-05-08T14:23:05.999Z</time>
</trkpt>
<trkpt lat="44.052882" lon="2.812194">
<ele>617.4</ele>
<time>2013-05-08T14:23:06.999Z</time>
</trkpt>
<trkpt lat="44.053003" lon="2.812388">
<ele>619.6</ele>
<time>2013-05-08T14:23:07.999Z</time>
</trkpt>
<trkpt lat="44.053074" lon="2.812607">
<ele>621.3</ele>
<time>2013-05-08T14:23:08.999Z</time>
</trkpt>
<trkpt lat="44.053105" lon="2.81283">
<ele>622.7</ele>
<time>2013-05-08T14:23:09.999Z</time>
</trkpt>
<trkpt lat="44.053128" lon="2.813073">
<ele>624.2</ele>
<time>2013-05-08T14:23:10.999Z</time>
</trkpt>
<trkpt lat="44.053132" lon="2.813317">
<ele>625.5</ele>
<time>2013-05-08T14:23:11.999Z</time>
</trkpt>
<trkpt lat="44.053091" lon="2.813564">
<ele>627</ele>
<time>2013-05-08T14:23:12.999Z</time>
</trkpt>
<trkpt lat="44.053041" lon="2.8138">
<ele>628.6</ele>
<time>2013-05-08T14:23:13.999Z</time>
</trkpt>
<trkpt lat="44.053" lon="2.814017">
<ele>629.8</ele>
<time>2013-05-08T14:23:14.999Z</time>
</trkpt>
<trkpt lat="44.052972" lon="2.814217">
<ele>630.8</ele>
<time>2013-05-08T14:23:15.999Z</time>
</trkpt>
<trkpt lat="44.052979" lon="2.814427">
<ele>632.2</ele>
<time>2013-05-08T14:23:16.999Z</time>
</trkpt>
<trkpt lat="44.052994" lon="2.81463">
<ele>633.5</ele>
<time>2013-05-08T14:23:17.999Z</time>
</trkpt>
<trkpt lat="44.053028" lon="2.814822">
<ele>634.9</ele>
<time>2013-05-08T14:23:18.999Z</time>
</trkpt>
<trkpt lat="44.053167" lon="2.814966">
<ele>635.9</ele>
<time>2013-05-08T14:23:19.999Z</time>
</trkpt>
<trkpt lat="44.053309" lon="2.815113">
<ele>636.8</ele>
<time>2013-05-08T14:23:20.999Z</time>
</trkpt>
<trkpt lat="44.053459" lon="2.81524">
<ele>637.1</ele>
<time>2013-05-08T14:23:21.999Z</time>
</trkpt>
<trkpt lat="44.053533" lon="2.815389">
<ele>637.3</ele>
<time>2013-05-08T14:23:22.999Z</time>
</trkpt>
<trkpt lat="44.053546" lon="2.815538">
<ele>638.2</ele>
<time>2013-05-08T14:23:23.999Z</time>
</trkpt>
<trkpt lat="44.053531" lon="2.815698">
<ele>639.2</ele>
<time>2013-05-08T14:23:24.999Z</time>
</trkpt>
<trkpt lat="44.053509" lon="2.815855">
<ele>639.9</ele>
<time>2013-05-08T14:23:25.999Z</time>
</trkpt>
<trkpt lat="44.05348" lon="2.816018">
<ele>640.5</ele>
<time>2013-05-08T14:23:26.999Z</time>
</trkpt>
<trkpt lat="44.053449" lon="2.816208">
<ele>641.1</ele>
<time>2013-05-08T14:23:27.999Z</time>
</trkpt>
<trkpt lat="44.05343" lon="2.81641">
<ele>641.9</ele>
<time>2013-05-08T14:23:28.999Z</time>
</trkpt>
<trkpt lat="44.053451" lon="2.816652">
<ele>642.4</ele>
<time>2013-05-08T14:23:29.999Z</time>
</trkpt>
<trkpt lat="44.053521" lon="2.816896">
<ele>643</ele>
<time>2013-05-08T14:23:30.999Z</time>
</trkpt>
<trkpt lat="44.053591" lon="2.817138">
<ele>643.6</ele>
<time>2013-05-08T14:23:31.999Z</time>
</trkpt>
<trkpt lat="44.053621" lon="2.817413">
<ele>644.3</ele>
<time>2013-05-08T14:23:32.999Z</time>
</trkpt>
<trkpt lat="44.053644" lon="2.817693">
<ele>644.8</ele>
<time>2013-05-08T14:23:33.999Z</time>
</trkpt>
<trkpt lat="44.053647" lon="2.81798">
<ele>645.8</ele>
<time>2013-05-08T14:23:34.999Z</time>
</trkpt>
<trkpt lat="44.053651" lon="2.818295">
<ele>646.8</ele>
<time>2013-05-08T14:23:35.999Z</time>
</trkpt>
<trkpt lat="44.053645" lon="2.818623">
<ele>647.9</ele>
<time>2013-05-08T14:23:36.999Z</time>
</trkpt>
<trkpt lat="44.053632" lon="2.81897">
<ele>649.7</ele>
<time>2013-05-08T14:23:37.999Z</time>
</trkpt>
<trkpt lat="44.053626" lon="2.81932">
<ele>651.8</ele>
<time>2013-05-08T14:23:38.999Z</time>
</trkpt>
<trkpt lat="44.053617" lon="2.819671">
<ele>653.5</ele>
<time>2013-05-08T14:23:39.999Z</time>
</trkpt>
<trkpt lat="44.053603" lon="2.819988">
<ele>654.8</ele>
<time>2013-05-08T14:23:40.999Z</time>
</trkpt>
<trkpt lat="44.053576" lon="2.820275">
<ele>656</ele>
<time>2013-05-08T14:23:41.999Z</time>
</trkpt>
<trkpt lat="44.053525" lon="2.820556">
<ele>657.6</ele>
<time>2013-05-08T14:23:42.999Z</time>
</trkpt>
<trkpt lat="44.053485" lon="2.82082">
<ele>659.2</ele>
<time>2013-05-08T14:23:43.999Z</time>
</trkpt>
<trkpt lat="44.053462" lon="2.821084">
<ele>661</ele>
<time>2013-05-08T14:23:44.999Z</time>
</trkpt>
<trkpt lat="44.053449" lon="2.821318">
<ele>662.6</ele>
<time>2013-05-08T14:23:45.999Z</time>
</trkpt>
<trkpt lat="44.053429" lon="2.821527">
<ele>663.7</ele>
<time>2013-05-08T14:23:46.999Z</time>
</trkpt>
<trkpt lat="44.053356" lon="2.821713">
<ele>664.4</ele>
<time>2013-05-08T14:23:47.999Z</time>
</trkpt>
<trkpt lat="44.053248" lon="2.82188">
<ele>665.3</ele>
<time>2013-05-08T14:23:48.999Z</time>
</trkpt>
<trkpt lat="44.053102" lon="2.82201">
<ele>666.2</ele>
<time>2013-05-08T14:23:49.999Z</time>
</trkpt>
<trkpt lat="44.052943" lon="2.822126">
<ele>667</ele>
<time>2013-05-08T14:23:50.999Z</time>
</trkpt>
<trkpt lat="44.052766" lon="2.822227">
<ele>667.6</ele>
<time>2013-05-08T14:23:51.999Z</time>
</trkpt>
<trkpt lat="44.052582" lon="2.822314">
<ele>668.3</ele>
<time>2013-05-08T14:23:52.999Z</time>
</trkpt>
<trkpt lat="44.052393" lon="2.822387">
<ele>668.7</ele>
<time>2013-05-08T14:23:53.999Z</time>
</trkpt>
<trkpt lat="44.052211" lon="2.822457">
<ele>668.8</ele>
<time>2013-05-08T14:23:54.999Z</time>
</trkpt>
<trkpt lat="44.052042" lon="2.82251">
<ele>669.8</ele>
<time>2013-05-08T14:23:55.999Z</time>
</trkpt>
<trkpt lat="44.05189" lon="2.822593">
<ele>670.7</ele>
<time>2013-05-08T14:23:56.999Z</time>
</trkpt>
<trkpt lat="44.05174" lon="2.822684">
<ele>671.5</ele>
<time>2013-05-08T14:23:57.999Z</time>
</trkpt>
<trkpt lat="44.051592" lon="2.822821">
<ele>672.1</ele>
<time>2013-05-08T14:23:58.999Z</time>
</trkpt>
<trkpt lat="44.051454" lon="2.822985">
<ele>672.8</ele>
<time>2013-05-08T14:23:59.999Z</time>
</trkpt>
<trkpt lat="44.051308" lon="2.823165">
<ele>673.4</ele>
<time>2013-05-08T14:24:00.999Z</time>
</trkpt>
<trkpt lat="44.051163" lon="2.823337">
<ele>674</ele>
<time>2013-05-08T14:24:01.999Z</time>
</trkpt>
<trkpt lat="44.05102" lon="2.823482">
<ele>674.8</ele>
<time>2013-05-08T14:24:02.999Z</time>
</trkpt>
<trkpt lat="44.050885" lon="2.823616">
<ele>675.7</ele>
<time>2013-05-08T14:24:03.999Z</time>
</trkpt>
<trkpt lat="44.050778" lon="2.823738">
<ele>676.9</ele>
<time>2013-05-08T14:24:04.999Z</time>
</trkpt>
<trkpt lat="44.050705" lon="2.823888">
<ele>677.6</ele>
<time>2013-05-08T14:24:05.999Z</time>
</trkpt>
<trkpt lat="44.050634" lon="2.824047">
<ele>678.9</ele>
<time>2013-05-08T14:24:06.999Z</time>
</trkpt>
<trkpt lat="44.050606" lon="2.824219">
<ele>679.8</ele>
<time>2013-05-08T14:24:07.999Z</time>
</trkpt>
<trkpt lat="44.050587" lon="2.824356">
<ele>680.8</ele>
<time>2013-05-08T14:24:08.999Z</time>
</trkpt>
<trkpt lat="44.050579" lon="2.824472">
<ele>681.6</ele>
<time>2013-05-08T14:24:09.999Z</time>
</trkpt>
<trkpt lat="44.050557" lon="2.824563">
<ele>682.7</ele>
<time>2013-05-08T14:24:10.999Z</time>
</trkpt>
<trkpt lat="44.050515" lon="2.824593">
<ele>683.7</ele>
<time>2013-05-08T14:24:11.999Z</time>
</trkpt>
<trkpt lat="44.050461" lon="2.824602">
<ele>684.8</ele>
<time>2013-05-08T14:24:12.999Z</time>
</trkpt>
<trkpt lat="44.050387" lon="2.824604">
<ele>685.5</ele>
<time>2013-05-08T14:24:13.999Z</time>
</trkpt>
<trkpt lat="44.050286" lon="2.824608">
<ele>686.3</ele>
<time>2013-05-08T14:24:14.999Z</time>
</trkpt>
<trkpt lat="44.050166" lon="2.824618">
<ele>687</ele>
<time>2013-05-08T14:24:15.999Z</time>
</trkpt>
<trkpt lat="44.050032" lon="2.82463">
<ele>687.6</ele>
<time>2013-05-08T14:24:16.999Z</time>
</trkpt>
<trkpt lat="44.049891" lon="2.824657">
<ele>688.2</ele>
<time>2013-05-08T14:24:17.999Z</time>
</trkpt>
<trkpt lat="44.04973" lon="2.824693">
<ele>688.9</ele>
<time>2013-05-08T14:24:18.999Z</time>
</trkpt>
<trkpt lat="44.04957" lon="2.824745">
<ele>689.8</ele>
<time>2013-05-08T14:24:19.999Z</time>
</trkpt>
<trkpt lat="44.049397" lon="2.824818">
<ele>690.4</ele>
<time>2013-05-08T14:24:20.999Z</time>
</trkpt>
<trkpt lat="44.049218" lon="2.824908">
<ele>690.6</ele>
<time>2013-05-08T14:24:21.999Z</time>
</trkpt>
<trkpt lat="44.049044" lon="2.825014">
<ele>690.6</ele>
<time>2013-05-08T14:24:22.999Z</time>
</trkpt>
<trkpt lat="44.048871" lon="2.825122">
<ele>690.6</ele>
<time>2013-05-08T14:24:23.999Z</time>
</trkpt>
<trkpt lat="44.048692" lon="2.825236">
<ele>690.6</ele>
<time>2013-05-08T14:24:24.999Z</time>
</trkpt>
<trkpt lat="44.048509" lon="2.825356">
<ele>690.4</ele>
<time>2013-05-08T14:24:25.999Z</time>
</trkpt>
<trkpt lat="44.048332" lon="2.82548">
<ele>690.1</ele>
<time>2013-05-08T14:24:26.999Z</time>
</trkpt>
<trkpt lat="44.048162" lon="2.825597">
<ele>690</ele>
<time>2013-05-08T14:24:27.999Z</time>
</trkpt>
<trkpt lat="44.048006" lon="2.825735">
<ele>689.9</ele>
<time>2013-05-08T14:24:28.999Z</time>
</trkpt>
<trkpt lat="44.047876" lon="2.825923">
<ele>689.9</ele>
<time>2013-05-08T14:24:29.999Z</time>
</trkpt>
<trkpt lat="44.047757" lon="2.826127">
<ele>690.3</ele>
<time>2013-05-08T14:24:30.999Z</time>
</trkpt>
<trkpt lat="44.047644" lon="2.826352">
<ele>690.7</ele>
<time>2013-05-08T14:24:31.999Z</time>
</trkpt>
<trkpt lat="44.047526" lon="2.826576">
<ele>690.8</ele>
<time>2013-05-08T14:24:32.999Z</time>
</trkpt>
<trkpt lat="44.047392" lon="2.826801">
<ele>691.1</ele>
<time>2013-05-08T14:24:33.999Z</time>
</trkpt>
<trkpt lat="44.047248" lon="2.827019">
<ele>691.5</ele>
<time>2013-05-08T14:24:34.999Z</time>
</trkpt>
<trkpt lat="44.047099" lon="2.827239">
<ele>691.8</ele>
<time>2013-05-08T14:24:35.999Z</time>
</trkpt>
<trkpt lat="44.046948" lon="2.827456">
<ele>692.1</ele>
<time>2013-05-08T14:24:36.999Z</time>
</trkpt>
<trkpt lat="44.046791" lon="2.827656">
<ele>692.1</ele>
<time>2013-05-08T14:24:37.999Z</time>
</trkpt>
<trkpt lat="44.046622" lon="2.827832">
<ele>691.8</ele>
<time>2013-05-08T14:24:38.999Z</time>
</trkpt>
<trkpt lat="44.046448" lon="2.827992">
<ele>691.4</ele>
<time>2013-05-08T14:24:39.999Z</time>
</trkpt>
<trkpt lat="44.04627" lon="2.828152">
<ele>690.9</ele>
<time>2013-05-08T14:24:40.999Z</time>
</trkpt>
<trkpt lat="44.046068" lon="2.828223">
<ele>690.1</ele>
<time>2013-05-08T14:24:41.999Z</time>
</trkpt>
<trkpt lat="44.045864" lon="2.828307">
<ele>689.2</ele>
<time>2013-05-08T14:24:42.999Z</time>
</trkpt>
<trkpt lat="44.045653" lon="2.828389">
<ele>688.6</ele>
<time>2013-05-08T14:24:43.999Z</time>
</trkpt>
<trkpt lat="44.045457" lon="2.828458">
<ele>688</ele>
<time>2013-05-08T14:24:44.999Z</time>
</trkpt>
<trkpt lat="44.045267" lon="2.828518">
<ele>687.5</ele>
<time>2013-05-08T14:24:45.999Z</time>
</trkpt>
<trkpt lat="44.045091" lon="2.828548">
<ele>687.3</ele>
<time>2013-05-08T14:24:46.999Z</time>
</trkpt>
<trkpt lat="44.044924" lon="2.828553">
<ele>687.5</ele>
<time>2013-05-08T14:24:47.999Z</time>
</trkpt>
<trkpt lat="44.044762" lon="2.828514">
<ele>687.8</ele>
<time>2013-05-08T14:24:48.999Z</time>
</trkpt>
<trkpt lat="44.044607" lon="2.828454">
<ele>687.8</ele>
<time>2013-05-08T14:24:49.999Z</time>
</trkpt>
<trkpt lat="44.04445" lon="2.828381">
<ele>688</ele>
<time>2013-05-08T14:24:50.999Z</time>
</trkpt>
<trkpt lat="44.044299" lon="2.828273">
<ele>688.2</ele>
<time>2013-05-08T14:24:51.999Z</time>
</trkpt>
<trkpt lat="44.044157" lon="2.828152">
<ele>687.9</ele>
<time>2013-05-08T14:24:52.999Z</time>
</trkpt>
<trkpt lat="44.044031" lon="2.82801">
<ele>687.1</ele>
<time>2013-05-08T14:24:53.999Z</time>
</trkpt>
<trkpt lat="44.043877" lon="2.827949">
<ele>686.3</ele>
<time>2013-05-08T14:24:54.999Z</time>
</trkpt>
<trkpt lat="44.04371" lon="2.827905">
<ele>685.1</ele>
<time>2013-05-08T14:24:55.999Z</time>
</trkpt>
<trkpt lat="44.043541" lon="2.827904">
<ele>683.6</ele>
<time>2013-05-08T14:24:56.999Z</time>
</trkpt>
<trkpt lat="44.043373" lon="2.827978">
<ele>682.1</ele>
<time>2013-05-08T14:24:57.999Z</time>
</trkpt>
<trkpt lat="44.043213" lon="2.828088">
<ele>680.8</ele>
<time>2013-05-08T14:24:58.999Z</time>
</trkpt>
<trkpt lat="44.043068" lon="2.828228">
<ele>679.4</ele>
<time>2013-05-08T14:24:59.999Z</time>
</trkpt>
<trkpt lat="44.042919" lon="2.828385">
<ele>678.4</ele>
<time>2013-05-08T14:25:00.999Z</time>
</trkpt>
<trkpt lat="44.042842" lon="2.828639">
<ele>677.8</ele>
<time>2013-05-08T14:25:01.999Z</time>
</trkpt>
<trkpt lat="44.04277" lon="2.828886">
<ele>677.2</ele>
<time>2013-05-08T14:25:02.999Z</time>
</trkpt>
<trkpt lat="44.042716" lon="2.829171">
<ele>677.4</ele>
<time>2013-05-08T14:25:03.999Z</time>
</trkpt>
<trkpt lat="44.042677" lon="2.829472">
<ele>678.1</ele>
<time>2013-05-08T14:25:04.999Z</time>
</trkpt>
<trkpt lat="44.042656" lon="2.829791">
<ele>678.6</ele>
<time>2013-05-08T14:25:05.999Z</time>
</trkpt>
<trkpt lat="44.042663" lon="2.830104">
<ele>678.9</ele>
<time>2013-05-08T14:25:06.999Z</time>
</trkpt>
<trkpt lat="44.042671" lon="2.830399">
<ele>679.3</ele>
<time>2013-05-08T14:25:07.999Z</time>
</trkpt>
<trkpt lat="44.042668" lon="2.830658">
<ele>679.6</ele>
<time>2013-05-08T14:25:08.999Z</time>
</trkpt>
<trkpt lat="44.042637" lon="2.830908">
<ele>679.7</ele>
<time>2013-05-08T14:25:09.999Z</time>
</trkpt>
<trkpt lat="44.042572" lon="2.831147">
<ele>679.8</ele>
<time>2013-05-08T14:25:10.999Z</time>
</trkpt>
<trkpt lat="44.042474" lon="2.831364">
<ele>680</ele>
<time>2013-05-08T14:25:11.999Z</time>
</trkpt>
<trkpt lat="44.042337" lon="2.831555">
<ele>680.4</ele>
<time>2013-05-08T14:25:12.999Z</time>
</trkpt>
<trkpt lat="44.042189" lon="2.831736">
<ele>681</ele>
<time>2013-05-08T14:25:13.999Z</time>
</trkpt>
<trkpt lat="44.042005" lon="2.831864">
<ele>681.5</ele>
<time>2013-05-08T14:25:14.999Z</time>
</trkpt>
<trkpt lat="44.041814" lon="2.83195">
<ele>681.9</ele>
<time>2013-05-08T14:25:15.999Z</time>
</trkpt>
<trkpt lat="44.041619" lon="2.831985">
<ele>682.2</ele>
<time>2013-05-08T14:25:16.999Z</time>
</trkpt>
<trkpt lat="44.041429" lon="2.831987">
<ele>683</ele>
<time>2013-05-08T14:25:17.999Z</time>
</trkpt>
<trkpt lat="44.041249" lon="2.831913">
<ele>684.1</ele>
<time>2013-05-08T14:25:18.999Z</time>
</trkpt>
<trkpt lat="44.041076" lon="2.831802">
<ele>684.7</ele>
<time>2013-05-08T14:25:19.999Z</time>
</trkpt>
<trkpt lat="44.040916" lon="2.831666">
<ele>685</ele>
<time>2013-05-08T14:25:20.999Z</time>
</trkpt>
<trkpt lat="44.040752" lon="2.83153">
<ele>685.4</ele>
<time>2013-05-08T14:25:21.999Z</time>
</trkpt>
<trkpt lat="44.04059" lon="2.831413">
<ele>685.4</ele>
<time>2013-05-08T14:25:22.999Z</time>
</trkpt>
<trkpt lat="44.040413" lon="2.831316">
<ele>685.6</ele>
<time>2013-05-08T14:25:23.999Z</time>
</trkpt>
<trkpt lat="44.040224" lon="2.831233">
<ele>685.5</ele>
<time>2013-05-08T14:25:24.999Z</time>
</trkpt>
<trkpt lat="44.040024" lon="2.831175">
<ele>685.6</ele>
<time>2013-05-08T14:25:25.999Z</time>
</trkpt>
<trkpt lat="44.039812" lon="2.831112">
<ele>685.5</ele>
<time>2013-05-08T14:25:26.999Z</time>
</trkpt>
<trkpt lat="44.039595" lon="2.831048">
<ele>685.7</ele>
<time>2013-05-08T14:25:27.999Z</time>
</trkpt>
<trkpt lat="44.039363" lon="2.830981">
<ele>685.4</ele>
<time>2013-05-08T14:25:28.999Z</time>
</trkpt>
<trkpt lat="44.039135" lon="2.830911">
<ele>684.7</ele>
<time>2013-05-08T14:25:29.999Z</time>
</trkpt>
<trkpt lat="44.038911" lon="2.830844">
<ele>683.8</ele>
<time>2013-05-08T14:25:30.999Z</time>
</trkpt>
<trkpt lat="44.038689" lon="2.830784">
<ele>682.7</ele>
<time>2013-05-08T14:25:31.999Z</time>
</trkpt>
<trkpt lat="44.038478" lon="2.830748">
<ele>681.9</ele>
<time>2013-05-08T14:25:32.999Z</time>
</trkpt>
<trkpt lat="44.038281" lon="2.830743">
<ele>681.2</ele>
<time>2013-05-08T14:25:33.999Z</time>
</trkpt>
<trkpt lat="44.038087" lon="2.830767">
<ele>680.4</ele>
<time>2013-05-08T14:25:34.999Z</time>
</trkpt>
<trkpt lat="44.037896" lon="2.830862">
<ele>679.4</ele>
<time>2013-05-08T14:25:35.999Z</time>
</trkpt>
<trkpt lat="44.037705" lon="2.831019">
<ele>678.7</ele>
<time>2013-05-08T14:25:36.999Z</time>
</trkpt>
<trkpt lat="44.037522" lon="2.831195">
<ele>678.2</ele>
<time>2013-05-08T14:25:37.999Z</time>
</trkpt>
<trkpt lat="44.037344" lon="2.831381">
<ele>677.8</ele>
<time>2013-05-08T14:25:38.999Z</time>
</trkpt>
<trkpt lat="44.037169" lon="2.831578">
<ele>677.7</ele>
<time>2013-05-08T14:25:39.999Z</time>
</trkpt>
<trkpt lat="44.037001" lon="2.831782">
<ele>677.9</ele>
<time>2013-05-08T14:25:40.999Z</time>
</trkpt>
<trkpt lat="44.036861" lon="2.832043">
<ele>678.1</ele>
<time>2013-05-08T14:25:41.999Z</time>
</trkpt>
<trkpt lat="44.036734" lon="2.832325">
<ele>678.6</ele>
<time>2013-05-08T14:25:42.999Z</time>
</trkpt>
<trkpt lat="44.036605" lon="2.832626">
<ele>678.9</ele>
<time>2013-05-08T14:25:43.999Z</time>
</trkpt>
<trkpt lat="44.036483" lon="2.832922">
<ele>679.2</ele>
<time>2013-05-08T14:25:44.999Z</time>
</trkpt>
<trkpt lat="44.036367" lon="2.833221">
<ele>679.7</ele>
<time>2013-05-08T14:25:45.999Z</time>
</trkpt>
<trkpt lat="44.036247" lon="2.833521">
<ele>680.3</ele>
<time>2013-05-08T14:25:46.999Z</time>
</trkpt>
<trkpt lat="44.036106" lon="2.83382">
<ele>680.9</ele>
<time>2013-05-08T14:25:47.999Z</time>
</trkpt>
<trkpt lat="44.035955" lon="2.834105">
<ele>681.6</ele>
<time>2013-05-08T14:25:48.999Z</time>
</trkpt>
<trkpt lat="44.035775" lon="2.834353">
<ele>682.4</ele>
<time>2013-05-08T14:25:49.999Z</time>
</trkpt>
<trkpt lat="44.035591" lon="2.83457">
<ele>683</ele>
<time>2013-05-08T14:25:50.999Z</time>
</trkpt>
<trkpt lat="44.035419" lon="2.834792">
<ele>683.4</ele>
<time>2013-05-08T14:25:51.999Z</time>
</trkpt>
<trkpt lat="44.035264" lon="2.835015">
<ele>683.9</ele>
<time>2013-05-08T14:25:52.999Z</time>
</trkpt>
<trkpt lat="44.035138" lon="2.835253">
<ele>684.2</ele>
<time>2013-05-08T14:25:53.999Z</time>
</trkpt>
<trkpt lat="44.035031" lon="2.835505">
<ele>684.7</ele>
<time>2013-05-08T14:25:54.999Z</time>
</trkpt>
<trkpt lat="44.034944" lon="2.835778">
<ele>685.2</ele>
<time>2013-05-08T14:25:55.999Z</time>
</trkpt>
<trkpt lat="44.034896" lon="2.836069">
<ele>685.4</ele>
<time>2013-05-08T14:25:56.999Z</time>
</trkpt>
<trkpt lat="44.034864" lon="2.83637">
<ele>685.4</ele>
<time>2013-05-08T14:25:57.999Z</time>
</trkpt>
<trkpt lat="44.034826" lon="2.836692">
<ele>685.4</ele>
<time>2013-05-08T14:25:58.999Z</time>
</trkpt>
<trkpt lat="44.034772" lon="2.836999">
<ele>685</ele>
<time>2013-05-08T14:25:59.999Z</time>
</trkpt>
<trkpt lat="44.034706" lon="2.837305">
<ele>684.9</ele>
<time>2013-05-08T14:26:00.999Z</time>
</trkpt>
<trkpt lat="44.034608" lon="2.837592">
<ele>684.7</ele>
<time>2013-05-08T14:26:01.999Z</time>
</trkpt>
<trkpt lat="44.034498" lon="2.83788">
<ele>684.9</ele>
<time>2013-05-08T14:26:02.999Z</time>
</trkpt>
<trkpt lat="44.034385" lon="2.838163">
<ele>685</ele>
<time>2013-05-08T14:26:03.999Z</time>
</trkpt>
<trkpt lat="44.03427" lon="2.838442">
<ele>685.3</ele>
<time>2013-05-08T14:26:04.999Z</time>
</trkpt>
<trkpt lat="44.034145" lon="2.83872">
<ele>685.5</ele>
<time>2013-05-08T14:26:05.999Z</time>
</trkpt>
<trkpt lat="44.034019" lon="2.838998">
<ele>685.7</ele>
<time>2013-05-08T14:26:06.999Z</time>
</trkpt>
<trkpt lat="44.033892" lon="2.83928">
<ele>685.9</ele>
<time>2013-05-08T14:26:07.999Z</time>
</trkpt>
<trkpt lat="44.033768" lon="2.839559">
<ele>686.2</ele>
<time>2013-05-08T14:26:08.999Z</time>
</trkpt>
<trkpt lat="44.033631" lon="2.839825">
<ele>686.3</ele>
<time>2013-05-08T14:26:09.999Z</time>
</trkpt>
<trkpt lat="44.033526" lon="2.840071">
<ele>686.9</ele>
<time>2013-05-08T14:26:10.999Z</time>
</trkpt>
<trkpt lat="44.033427" lon="2.840291">
<ele>687.4</ele>
<time>2013-05-08T14:26:11.999Z</time>
</trkpt>
<trkpt lat="44.033328" lon="2.840486">
<ele>687.7</ele>
<time>2013-05-08T14:26:12.999Z</time>
</trkpt>
<trkpt lat="44.033216" lon="2.840634">
<ele>687.7</ele>
<time>2013-05-08T14:26:13.999Z</time>
</trkpt>
<trkpt lat="44.033094" lon="2.840754">
<ele>687.6</ele>
<time>2013-05-08T14:26:14.999Z</time>
</trkpt>
<trkpt lat="44.03297" lon="2.840849">
<ele>687.6</ele>
<time>2013-05-08T14:26:15.999Z</time>
</trkpt>
<trkpt lat="44.032825" lon="2.840904">
<ele>687.5</ele>
<time>2013-05-08T14:26:16.999Z</time>
</trkpt>
<trkpt lat="44.032668" lon="2.840954">
<ele>687.1</ele>
<time>2013-05-08T14:26:17.999Z</time>
</trkpt>
<trkpt lat="44.032503" lon="2.840985">
<ele>686.6</ele>
<time>2013-05-08T14:26:18.999Z</time>
</trkpt>
<trkpt lat="44.032327" lon="2.84101">
<ele>686.7</ele>
<time>2013-05-08T14:26:19.999Z</time>
</trkpt>
<trkpt lat="44.03214" lon="2.841028">
<ele>687.2</ele>
<time>2013-05-08T14:26:20.999Z</time>
</trkpt>
<trkpt lat="44.031956" lon="2.841061">
<ele>687.7</ele>
<time>2013-05-08T14:26:21.999Z</time>
</trkpt>
<trkpt lat="44.031785" lon="2.841161">
<ele>687.6</ele>
<time>2013-05-08T14:26:22.999Z</time>
</trkpt>
<trkpt lat="44.03162" lon="2.841264">
<ele>687.5</ele>
<time>2013-05-08T14:26:23.999Z</time>
</trkpt>
<trkpt lat="44.03146" lon="2.841449">
<ele>687.6</ele>
<time>2013-05-08T14:26:24.999Z</time>
</trkpt>
<trkpt lat="44.031302" lon="2.841658">
<ele>687.7</ele>
<time>2013-05-08T14:26:25.999Z</time>
</trkpt>
<trkpt lat="44.031145" lon="2.841892">
<ele>688</ele>
<time>2013-05-08T14:26:26.999Z</time>
</trkpt>
<trkpt lat="44.030978" lon="2.842164">
<ele>688.4</ele>
<time>2013-05-08T14:26:27.999Z</time>
</trkpt>
<trkpt lat="44.030803" lon="2.842454">
<ele>688.9</ele>
<time>2013-05-08T14:26:28.999Z</time>
</trkpt>
<trkpt lat="44.030625" lon="2.842755">
<ele>689.6</ele>
<time>2013-05-08T14:26:29.999Z</time>
</trkpt>
<trkpt lat="44.030449" lon="2.843048">
<ele>690.5</ele>
<time>2013-05-08T14:26:30.999Z</time>
</trkpt>
<trkpt lat="44.030275" lon="2.843335">
<ele>691.6</ele>
<time>2013-05-08T14:26:31.999Z</time>
</trkpt>
<trkpt lat="44.030104" lon="2.843613">
<ele>692.6</ele>
<time>2013-05-08T14:26:32.999Z</time>
</trkpt>
<trkpt lat="44.029934" lon="2.843887">
<ele>693.5</ele>
<time>2013-05-08T14:26:33.999Z</time>
</trkpt>
<trkpt lat="44.02977" lon="2.844159">
<ele>694</ele>
<time>2013-05-08T14:26:34.999Z</time>
</trkpt>
<trkpt lat="44.029607" lon="2.844441">
<ele>694</ele>
<time>2013-05-08T14:26:35.999Z</time>
</trkpt>
<trkpt lat="44.029442" lon="2.844731">
<ele>694</ele>
<time>2013-05-08T14:26:36.999Z</time>
</trkpt>
<trkpt lat="44.029277" lon="2.845017">
<ele>693.8</ele>
<time>2013-05-08T14:26:37.999Z</time>
</trkpt>
<trkpt lat="44.02911" lon="2.8453">
<ele>693.3</ele>
<time>2013-05-08T14:26:38.999Z</time>
</trkpt>
<trkpt lat="44.028948" lon="2.845581">
<ele>692.9</ele>
<time>2013-05-08T14:26:39.999Z</time>
</trkpt>
<trkpt lat="44.028789" lon="2.845854">
<ele>692.5</ele>
<time>2013-05-08T14:26:40.999Z</time>
</trkpt>
<trkpt lat="44.028632" lon="2.846114">
<ele>692.1</ele>
<time>2013-05-08T14:26:41.999Z</time>
</trkpt>
<trkpt lat="44.028482" lon="2.846358">
<ele>691.8</ele>
<time>2013-05-08T14:26:42.999Z</time>
</trkpt>
<trkpt lat="44.028353" lon="2.846605">
<ele>691.8</ele>
<time>2013-05-08T14:26:43.999Z</time>
</trkpt>
<trkpt lat="44.028242" lon="2.846848">
<ele>691.8</ele>
<time>2013-05-08T14:26:44.999Z</time>
</trkpt>
<trkpt lat="44.028146" lon="2.847103">
<ele>691.8</ele>
<time>2013-05-08T14:26:45.999Z</time>
</trkpt>
<trkpt lat="44.028061" lon="2.847367">
<ele>691.8</ele>
<time>2013-05-08T14:26:46.999Z</time>
</trkpt>
<trkpt lat="44.027986" lon="2.847635">
<ele>691.9</ele>
<time>2013-05-08T14:26:47.999Z</time>
</trkpt>
<trkpt lat="44.027902" lon="2.84789">
<ele>692.1</ele>
<time>2013-05-08T14:26:48.999Z</time>
</trkpt>
<trkpt lat="44.027796" lon="2.848117">
<ele>692.2</ele>
<time>2013-05-08T14:26:49.999Z</time>
</trkpt>
<trkpt lat="44.027677" lon="2.848309">
<ele>692.1</ele>
<time>2013-05-08T14:26:50.999Z</time>
</trkpt>
<trkpt lat="44.027536" lon="2.848462">
<ele>692.2</ele>
<time>2013-05-08T14:26:51.999Z</time>
</trkpt>
<trkpt lat="44.027399" lon="2.848624">
<ele>692.6</ele>
<time>2013-05-08T14:26:52.999Z</time>
</trkpt>
<trkpt lat="44.027222" lon="2.848704">
<ele>693</ele>
<time>2013-05-08T14:26:53.999Z</time>
</trkpt>
<trkpt lat="44.027027" lon="2.848747">
<ele>693.3</ele>
<time>2013-05-08T14:26:54.999Z</time>
</trkpt>
<trkpt lat="44.026831" lon="2.848765">
<ele>693.3</ele>
<time>2013-05-08T14:26:55.999Z</time>
</trkpt>
<trkpt lat="44.026629" lon="2.848764">
<ele>693.6</ele>
<time>2013-05-08T14:26:56.999Z</time>
</trkpt>
<trkpt lat="44.026424" lon="2.848745">
<ele>693.8</ele>
<time>2013-05-08T14:26:57.999Z</time>
</trkpt>
<trkpt lat="44.026222" lon="2.84875">
<ele>693.9</ele>
<time>2013-05-08T14:26:58.999Z</time>
</trkpt>
<trkpt lat="44.026015" lon="2.848803">
<ele>693.8</ele>
<time>2013-05-08T14:26:59.999Z</time>
</trkpt>
<trkpt lat="44.025806" lon="2.848866">
<ele>693.3</ele>
<time>2013-05-08T14:27:00.999Z</time>
</trkpt>
<trkpt lat="44.025602" lon="2.848969">
<ele>692.2</ele>
<time>2013-05-08T14:27:01.999Z</time>
</trkpt>
<trkpt lat="44.025394" lon="2.849096">
<ele>690.8</ele>
<time>2013-05-08T14:27:02.999Z</time>
</trkpt>
<trkpt lat="44.025215" lon="2.849304">
<ele>689.8</ele>
<time>2013-05-08T14:27:03.999Z</time>
</trkpt>
<trkpt lat="44.025053" lon="2.849552">
<ele>688.9</ele>
<time>2013-05-08T14:27:04.999Z</time>
</trkpt>
<trkpt lat="44.024898" lon="2.849826">
<ele>688.3</ele>
<time>2013-05-08T14:27:05.999Z</time>
</trkpt>
<trkpt lat="44.024748" lon="2.850102">
<ele>687.9</ele>
<time>2013-05-08T14:27:06.999Z</time>
</trkpt>
<trkpt lat="44.024597" lon="2.850397">
<ele>687.7</ele>
<time>2013-05-08T14:27:07.999Z</time>
</trkpt>
<trkpt lat="44.02445" lon="2.850673">
<ele>687.6</ele>
<time>2013-05-08T14:27:08.999Z</time>
</trkpt>
<trkpt lat="44.024305" lon="2.850955">
<ele>687.4</ele>
<time>2013-05-08T14:27:09.999Z</time>
</trkpt>
<trkpt lat="44.024167" lon="2.851218">
<ele>687.2</ele>
<time>2013-05-08T14:27:10.999Z</time>
</trkpt>
<trkpt lat="44.024039" lon="2.851477">
<ele>687.1</ele>
<time>2013-05-08T14:27:11.999Z</time>
</trkpt>
<trkpt lat="44.023913" lon="2.851726">
<ele>687.3</ele>
<time>2013-05-08T14:27:12.999Z</time>
</trkpt>
<trkpt lat="44.023798" lon="2.85196">
<ele>687.7</ele>
<time>2013-05-08T14:27:13.999Z</time>
</trkpt>
<trkpt lat="44.02369" lon="2.852184">
<ele>688.4</ele>
<time>2013-05-08T14:27:14.999Z</time>
</trkpt>
<trkpt lat="44.023578" lon="2.85238">
<ele>689.3</ele>
<time>2013-05-08T14:27:15.999Z</time>
</trkpt>
<trkpt lat="44.023456" lon="2.852547">
<ele>689.7</ele>
<time>2013-05-08T14:27:16.999Z</time>
</trkpt>
<trkpt lat="44.023322" lon="2.852707">
<ele>689.9</ele>
<time>2013-05-08T14:27:17.999Z</time>
</trkpt>
<trkpt lat="44.023184" lon="2.852869">
<ele>690.1</ele>
<time>2013-05-08T14:27:18.999Z</time>
</trkpt>
<trkpt lat="44.02303" lon="2.853032">
<ele>690.2</ele>
<time>2013-05-08T14:27:19.999Z</time>
</trkpt>
<trkpt lat="44.022863" lon="2.853207">
<ele>690.1</ele>
<time>2013-05-08T14:27:20.999Z</time>
</trkpt>
<trkpt lat="44.022697" lon="2.853393">
<ele>689.8</ele>
<time>2013-05-08T14:27:21.999Z</time>
</trkpt>
<trkpt lat="44.022502" lon="2.853615">
<ele>689.1</ele>
<time>2013-05-08T14:27:22.999Z</time>
</trkpt>
<trkpt lat="44.022305" lon="2.853831">
<ele>688.2</ele>
<time>2013-05-08T14:27:23.999Z</time>
</trkpt>
<trkpt lat="44.022109" lon="2.854048">
<ele>687.4</ele>
<time>2013-05-08T14:27:24.999Z</time>
</trkpt>
<trkpt lat="44.021926" lon="2.854265">
<ele>686.7</ele>
<time>2013-05-08T14:27:25.999Z</time>
</trkpt>
<trkpt lat="44.02176" lon="2.854487">
<ele>686.2</ele>
<time>2013-05-08T14:27:26.999Z</time>
</trkpt>
<trkpt lat="44.021609" lon="2.854728">
<ele>686</ele>
<time>2013-05-08T14:27:27.999Z</time>
</trkpt>
<trkpt lat="44.021483" lon="2.85499">
<ele>685.7</ele>
<time>2013-05-08T14:27:28.999Z</time>
</trkpt>
<trkpt lat="44.021384" lon="2.855275">
<ele>685.7</ele>
<time>2013-05-08T14:27:29.999Z</time>
</trkpt>
<trkpt lat="44.021308" lon="2.855577">
<ele>685.6</ele>
<time>2013-05-08T14:27:30.999Z</time>
</trkpt>
<trkpt lat="44.021265" lon="2.855895">
<ele>685</ele>
<time>2013-05-08T14:27:31.999Z</time>
</trkpt>
<trkpt lat="44.021251" lon="2.856216">
<ele>684</ele>
<time>2013-05-08T14:27:32.999Z</time>
</trkpt>
<trkpt lat="44.021254" lon="2.856539">
<ele>682.5</ele>
<time>2013-05-08T14:27:33.999Z</time>
</trkpt>
<trkpt lat="44.021292" lon="2.856877">
<ele>681.3</ele>
<time>2013-05-08T14:27:34.999Z</time>
</trkpt>
<trkpt lat="44.021352" lon="2.857236">
<ele>680.2</ele>
<time>2013-05-08T14:27:35.999Z</time>
</trkpt>
<trkpt lat="44.021415" lon="2.857587">
<ele>679.3</ele>
<time>2013-05-08T14:27:36.999Z</time>
</trkpt>
<trkpt lat="44.021473" lon="2.857928">
<ele>678.8</ele>
<time>2013-05-08T14:27:37.999Z</time>
</trkpt>
<trkpt lat="44.021535" lon="2.858268">
<ele>678.6</ele>
<time>2013-05-08T14:27:38.999Z</time>
</trkpt>
<trkpt lat="44.021598" lon="2.858602">
<ele>678.5</ele>
<time>2013-05-08T14:27:39.999Z</time>
</trkpt>
<trkpt lat="44.021656" lon="2.85894">
<ele>678.6</ele>
<time>2013-05-08T14:27:40.999Z</time>
</trkpt>
<trkpt lat="44.021713" lon="2.859267">
<ele>678.9</ele>
<time>2013-05-08T14:27:41.999Z</time>
</trkpt>
<trkpt lat="44.021768" lon="2.859588">
<ele>679.2</ele>
<time>2013-05-08T14:27:42.999Z</time>
</trkpt>
<trkpt lat="44.021827" lon="2.859893">
<ele>679.6</ele>
<time>2013-05-08T14:27:43.999Z</time>
</trkpt>
<trkpt lat="44.021893" lon="2.860191">
<ele>679.6</ele>
<time>2013-05-08T14:27:44.999Z</time>
</trkpt>
<trkpt lat="44.021966" lon="2.860476">
<ele>679.8</ele>
<time>2013-05-08T14:27:45.999Z</time>
</trkpt>
<trkpt lat="44.022037" lon="2.860775">
<ele>680</ele>
<time>2013-05-08T14:27:46.999Z</time>
</trkpt>
<trkpt lat="44.022098" lon="2.861091">
<ele>680.1</ele>
<time>2013-05-08T14:27:47.999Z</time>
</trkpt>
<trkpt lat="44.022143" lon="2.861406">
<ele>680.3</ele>
<time>2013-05-08T14:27:48.999Z</time>
</trkpt>
<trkpt lat="44.022163" lon="2.861759">
<ele>680.4</ele>
<time>2013-05-08T14:27:49.999Z</time>
</trkpt>
<trkpt lat="44.022157" lon="2.862096">
<ele>680.5</ele>
<time>2013-05-08T14:27:50.999Z</time>
</trkpt>
<trkpt lat="44.022119" lon="2.862433">
<ele>680.6</ele>
<time>2013-05-08T14:27:51.999Z</time>
</trkpt>
<trkpt lat="44.022063" lon="2.862771">
<ele>680.8</ele>
<time>2013-05-08T14:27:52.999Z</time>
</trkpt>
<trkpt lat="44.021977" lon="2.863114">
<ele>681.1</ele>
<time>2013-05-08T14:27:53.999Z</time>
</trkpt>
<trkpt lat="44.021887" lon="2.863444">
<ele>680.9</ele>
<time>2013-05-08T14:27:54.999Z</time>
</trkpt>
<trkpt lat="44.021788" lon="2.863768">
<ele>680.6</ele>
<time>2013-05-08T14:27:55.999Z</time>
</trkpt>
<trkpt lat="44.021682" lon="2.8641">
<ele>680.6</ele>
<time>2013-05-08T14:27:56.999Z</time>
</trkpt>
<trkpt lat="44.021577" lon="2.864425">
<ele>680.6</ele>
<time>2013-05-08T14:27:57.999Z</time>
</trkpt>
<trkpt lat="44.021469" lon="2.864758">
<ele>680.7</ele>
<time>2013-05-08T14:27:58.999Z</time>
</trkpt>
<trkpt lat="44.02136" lon="2.865096">
<ele>680.8</ele>
<time>2013-05-08T14:27:59.999Z</time>
</trkpt>
<trkpt lat="44.021253" lon="2.865436">
<ele>681</ele>
<time>2013-05-08T14:28:00.999Z</time>
</trkpt>
<trkpt lat="44.021148" lon="2.865778">
<ele>681.5</ele>
<time>2013-05-08T14:28:01.999Z</time>
</trkpt>
<trkpt lat="44.021047" lon="2.866112">
<ele>681.9</ele>
<time>2013-05-08T14:28:02.999Z</time>
</trkpt>
<trkpt lat="44.020945" lon="2.866455">
<ele>682.5</ele>
<time>2013-05-08T14:28:03.999Z</time>
</trkpt>
<trkpt lat="44.020847" lon="2.8668">
<ele>683.1</ele>
<time>2013-05-08T14:28:04.999Z</time>
</trkpt>
<trkpt lat="44.020744" lon="2.867144">
<ele>683.6</ele>
<time>2013-05-08T14:28:05.999Z</time>
</trkpt>
<trkpt lat="44.020625" lon="2.86747">
<ele>684.1</ele>
<time>2013-05-08T14:28:06.999Z</time>
</trkpt>
<trkpt lat="44.020491" lon="2.86778">
<ele>684.9</ele>
<time>2013-05-08T14:28:07.999Z</time>
</trkpt>
<trkpt lat="44.020359" lon="2.868086">
<ele>685.8</ele>
<time>2013-05-08T14:28:08.999Z</time>
</trkpt>
<trkpt lat="44.02022" lon="2.868386">
<ele>686.8</ele>
<time>2013-05-08T14:28:09.999Z</time>
</trkpt>
<trkpt lat="44.020084" lon="2.868675">
<ele>687.9</ele>
<time>2013-05-08T14:28:10.999Z</time>
</trkpt>
<trkpt lat="44.019949" lon="2.86896">
<ele>689.1</ele>
<time>2013-05-08T14:28:11.999Z</time>
</trkpt>
<trkpt lat="44.019818" lon="2.869239">
<ele>690.7</ele>
<time>2013-05-08T14:28:12.999Z</time>
</trkpt>
<trkpt lat="44.019693" lon="2.86951">
<ele>692.4</ele>
<time>2013-05-08T14:28:13.999Z</time>
</trkpt>
<trkpt lat="44.019565" lon="2.869786">
<ele>693.8</ele>
<time>2013-05-08T14:28:14.999Z</time>
</trkpt>
<trkpt lat="44.019439" lon="2.870066">
<ele>695</ele>
<time>2013-05-08T14:28:15.999Z</time>
</trkpt>
<trkpt lat="44.019331" lon="2.87035">
<ele>695.9</ele>
<time>2013-05-08T14:28:16.999Z</time>
</trkpt>
<trkpt lat="44.019241" lon="2.870646">
<ele>696.7</ele>
<time>2013-05-08T14:28:17.999Z</time>
</trkpt>
<trkpt lat="44.019165" lon="2.870955">
<ele>697.4</ele>
<time>2013-05-08T14:28:18.999Z</time>
</trkpt>
<trkpt lat="44.019108" lon="2.871268">
<ele>698</ele>
<time>2013-05-08T14:28:19.999Z</time>
</trkpt>
<trkpt lat="44.019064" lon="2.871576">
<ele>698.5</ele>
<time>2013-05-08T14:28:20.999Z</time>
</trkpt>
<trkpt lat="44.019035" lon="2.871877">
<ele>698.9</ele>
<time>2013-05-08T14:28:21.999Z</time>
</trkpt>
<trkpt lat="44.019012" lon="2.872188">
<ele>699.3</ele>
<time>2013-05-08T14:28:22.999Z</time>
</trkpt>
<trkpt lat="44.018985" lon="2.872497">
<ele>699.5</ele>
<time>2013-05-08T14:28:23.999Z</time>
</trkpt>
<trkpt lat="44.018955" lon="2.872797">
<ele>699.6</ele>
<time>2013-05-08T14:28:24.999Z</time>
</trkpt>
<trkpt lat="44.018915" lon="2.87308">
<ele>699.7</ele>
<time>2013-05-08T14:28:25.999Z</time>
</trkpt>
<trkpt lat="44.01886" lon="2.873339">
<ele>699.8</ele>
<time>2013-05-08T14:28:26.999Z</time>
</trkpt>
<trkpt lat="44.018796" lon="2.873581">
<ele>700.3</ele>
<time>2013-05-08T14:28:27.999Z</time>
</trkpt>
<trkpt lat="44.018681" lon="2.873791">
<ele>700.8</ele>
<time>2013-05-08T14:28:28.999Z</time>
</trkpt>
<trkpt lat="44.018544" lon="2.873976">
<ele>701.5</ele>
<time>2013-05-08T14:28:29.999Z</time>
</trkpt>
<trkpt lat="44.018392" lon="2.874157">
<ele>701.8</ele>
<time>2013-05-08T14:28:30.999Z</time>
</trkpt>
<trkpt lat="44.018209" lon="2.874307">
<ele>702.5</ele>
<time>2013-05-08T14:28:31.999Z</time>
</trkpt>
<trkpt lat="44.018007" lon="2.874397">
<ele>703.2</ele>
<time>2013-05-08T14:28:32.999Z</time>
</trkpt>
<trkpt lat="44.017811" lon="2.874505">
<ele>703.5</ele>
<time>2013-05-08T14:28:33.999Z</time>
</trkpt>
<trkpt lat="44.017614" lon="2.874616">
<ele>703.9</ele>
<time>2013-05-08T14:28:34.999Z</time>
</trkpt>
<trkpt lat="44.017423" lon="2.874733">
<ele>704</ele>
<time>2013-05-08T14:28:35.999Z</time>
</trkpt>
<trkpt lat="44.017237" lon="2.87486">
<ele>704</ele>
<time>2013-05-08T14:28:36.999Z</time>
</trkpt>
<trkpt lat="44.017059" lon="2.874992">
<ele>703.6</ele>
<time>2013-05-08T14:28:37.999Z</time>
</trkpt>
<trkpt lat="44.016882" lon="2.875194">
<ele>703.3</ele>
<time>2013-05-08T14:28:38.999Z</time>
</trkpt>
<trkpt lat="44.016695" lon="2.875407">
<ele>702.6</ele>
<time>2013-05-08T14:28:39.999Z</time>
</trkpt>
<trkpt lat="44.016503" lon="2.875639">
<ele>702.1</ele>
<time>2013-05-08T14:28:40.999Z</time>
</trkpt>
<trkpt lat="44.016304" lon="2.87588">
<ele>701.8</ele>
<time>2013-05-08T14:28:41.999Z</time>
</trkpt>
<trkpt lat="44.0161" lon="2.876126">
<ele>702.1</ele>
<time>2013-05-08T14:28:42.999Z</time>
</trkpt>
<trkpt lat="44.015886" lon="2.87637">
<ele>702.7</ele>
<time>2013-05-08T14:28:43.999Z</time>
</trkpt>
<trkpt lat="44.015681" lon="2.876603">
<ele>703.3</ele>
<time>2013-05-08T14:28:44.999Z</time>
</trkpt>
<trkpt lat="44.01549" lon="2.876836">
<ele>703.9</ele>
<time>2013-05-08T14:28:45.999Z</time>
</trkpt>
<trkpt lat="44.015332" lon="2.877075">
<ele>704.2</ele>
<time>2013-05-08T14:28:46.999Z</time>
</trkpt>
<trkpt lat="44.015185" lon="2.877316">
<ele>704.2</ele>
<time>2013-05-08T14:28:47.999Z</time>
</trkpt>
<trkpt lat="44.015047" lon="2.877585">
<ele>704.2</ele>
<time>2013-05-08T14:28:48.999Z</time>
</trkpt>
<trkpt lat="44.014921" lon="2.877876">
<ele>704.2</ele>
<time>2013-05-08T14:28:49.999Z</time>
</trkpt>
<trkpt lat="44.014796" lon="2.878167">
<ele>704.7</ele>
<time>2013-05-08T14:28:50.999Z</time>
</trkpt>
<trkpt lat="44.014675" lon="2.878456">
<ele>705.5</ele>
<time>2013-05-08T14:28:51.999Z</time>
</trkpt>
<trkpt lat="44.014562" lon="2.878733">
<ele>706</ele>
<time>2013-05-08T14:28:52.999Z</time>
</trkpt>
<trkpt lat="44.014451" lon="2.879005">
<ele>706.3</ele>
<time>2013-05-08T14:28:53.999Z</time>
</trkpt>
<trkpt lat="44.014342" lon="2.879275">
<ele>706.4</ele>
<time>2013-05-08T14:28:54.999Z</time>
</trkpt>
<trkpt lat="44.01424" lon="2.879545">
<ele>706.2</ele>
<time>2013-05-08T14:28:55.999Z</time>
</trkpt>
<trkpt lat="44.014131" lon="2.879822">
<ele>705.7</ele>
<time>2013-05-08T14:28:56.999Z</time>
</trkpt>
<trkpt lat="44.014012" lon="2.880115">
<ele>705.1</ele>
<time>2013-05-08T14:28:57.999Z</time>
</trkpt>
<trkpt lat="44.013888" lon="2.880415">
<ele>704.2</ele>
<time>2013-05-08T14:28:58.999Z</time>
</trkpt>
<trkpt lat="44.013762" lon="2.880716">
<ele>703.4</ele>
<time>2013-05-08T14:28:59.999Z</time>
</trkpt>
<trkpt lat="44.013637" lon="2.881007">
<ele>702.3</ele>
<time>2013-05-08T14:29:00.999Z</time>
</trkpt>
<trkpt lat="44.013513" lon="2.881304">
<ele>701.5</ele>
<time>2013-05-08T14:29:01.999Z</time>
</trkpt>
<trkpt lat="44.013388" lon="2.881608">
<ele>700.5</ele>
<time>2013-05-08T14:29:02.999Z</time>
</trkpt>
<trkpt lat="44.013266" lon="2.881909">
<ele>699.7</ele>
<time>2013-05-08T14:29:03.999Z</time>
</trkpt>
<trkpt lat="44.013129" lon="2.882199">
<ele>699.1</ele>
<time>2013-05-08T14:29:04.999Z</time>
</trkpt>
<trkpt lat="44.012967" lon="2.882466">
<ele>698.9</ele>
<time>2013-05-08T14:29:05.999Z</time>
</trkpt>
<trkpt lat="44.012776" lon="2.882667">
<ele>699</ele>
<time>2013-05-08T14:29:06.999Z</time>
</trkpt>
<trkpt lat="44.012578" lon="2.882816">
<ele>698.8</ele>
<time>2013-05-08T14:29:07.999Z</time>
</trkpt>
<trkpt lat="44.012378" lon="2.882931">
<ele>698.6</ele>
<time>2013-05-08T14:29:08.999Z</time>
</trkpt>
<trkpt lat="44.012175" lon="2.883007">
<ele>698.8</ele>
<time>2013-05-08T14:29:09.999Z</time>
</trkpt>
<trkpt lat="44.011956" lon="2.883065">
<ele>698.7</ele>
<time>2013-05-08T14:29:10.999Z</time>
</trkpt>
<trkpt lat="44.011734" lon="2.883114">
<ele>698.7</ele>
<time>2013-05-08T14:29:11.999Z</time>
</trkpt>
<trkpt lat="44.011508" lon="2.883147">
<ele>698.6</ele>
<time>2013-05-08T14:29:12.999Z</time>
</trkpt>
<trkpt lat="44.011278" lon="2.883184">
<ele>698.5</ele>
<time>2013-05-08T14:29:13.999Z</time>
</trkpt>
<trkpt lat="44.011046" lon="2.883227">
<ele>698.2</ele>
<time>2013-05-08T14:29:14.999Z</time>
</trkpt>
<trkpt lat="44.010809" lon="2.883274">
<ele>697.9</ele>
<time>2013-05-08T14:29:15.999Z</time>
</trkpt>
<trkpt lat="44.010575" lon="2.883325">
<ele>697.8</ele>
<time>2013-05-08T14:29:16.999Z</time>
</trkpt>
<trkpt lat="44.010325" lon="2.883378">
<ele>697</ele>
<time>2013-05-08T14:29:17.999Z</time>
</trkpt>
<trkpt lat="44.01007" lon="2.883431">
<ele>696.1</ele>
<time>2013-05-08T14:29:18.999Z</time>
</trkpt>
<trkpt lat="44.009822" lon="2.883479">
<ele>695.2</ele>
<time>2013-05-08T14:29:19.999Z</time>
</trkpt>
<trkpt lat="44.009577" lon="2.883532">
<ele>694.7</ele>
<time>2013-05-08T14:29:20.999Z</time>
</trkpt>
<trkpt lat="44.009332" lon="2.883584">
<ele>694.5</ele>
<time>2013-05-08T14:29:21.999Z</time>
</trkpt>
<trkpt lat="44.009097" lon="2.88364">
<ele>694.2</ele>
<time>2013-05-08T14:29:22.999Z</time>
</trkpt>
<trkpt lat="44.008855" lon="2.883698">
<ele>694.2</ele>
<time>2013-05-08T14:29:23.999Z</time>
</trkpt>
<trkpt lat="44.008619" lon="2.88377">
<ele>694.4</ele>
<time>2013-05-08T14:29:24.999Z</time>
</trkpt>
<trkpt lat="44.008386" lon="2.883848">
<ele>694.7</ele>
<time>2013-05-08T14:29:25.999Z</time>
</trkpt>
<trkpt lat="44.008154" lon="2.883941">
<ele>695</ele>
<time>2013-05-08T14:29:26.999Z</time>
</trkpt>
<trkpt lat="44.007926" lon="2.884034">
<ele>695.6</ele>
<time>2013-05-08T14:29:27.999Z</time>
</trkpt>
<trkpt lat="44.007701" lon="2.88414">
<ele>696.5</ele>
<time>2013-05-08T14:29:28.999Z</time>
</trkpt>
<trkpt lat="44.007474" lon="2.884249">
<ele>697.3</ele>
<time>2013-05-08T14:29:29.999Z</time>
</trkpt>
<trkpt lat="44.007252" lon="2.884367">
<ele>698.1</ele>
<time>2013-05-08T14:29:30.999Z</time>
</trkpt>
<trkpt lat="44.007031" lon="2.88448">
<ele>698.6</ele>
<time>2013-05-08T14:29:31.999Z</time>
</trkpt>
<trkpt lat="44.006813" lon="2.884598">
<ele>699.3</ele>
<time>2013-05-08T14:29:32.999Z</time>
</trkpt>
<trkpt lat="44.006606" lon="2.884722">
<ele>700.1</ele>
<time>2013-05-08T14:29:33.999Z</time>
</trkpt>
<trkpt lat="44.006402" lon="2.884854">
<ele>701</ele>
<time>2013-05-08T14:29:34.999Z</time>
</trkpt>
<trkpt lat="44.006209" lon="2.885006">
<ele>701.9</ele>
<time>2013-05-08T14:29:35.999Z</time>
</trkpt>
<trkpt lat="44.006032" lon="2.885234">
<ele>702.3</ele>
<time>2013-05-08T14:29:36.999Z</time>
</trkpt>
<trkpt lat="44.005881" lon="2.885517">
<ele>702.9</ele>
<time>2013-05-08T14:29:37.999Z</time>
</trkpt>
<trkpt lat="44.005736" lon="2.885794">
<ele>703.4</ele>
<time>2013-05-08T14:29:38.999Z</time>
</trkpt>
<trkpt lat="44.00559" lon="2.886067">
<ele>703.8</ele>
<time>2013-05-08T14:29:39.999Z</time>
</trkpt>
<trkpt lat="44.005445" lon="2.88633">
<ele>704.6</ele>
<time>2013-05-08T14:29:40.999Z</time>
</trkpt>
<trkpt lat="44.005282" lon="2.886584">
<ele>706.1</ele>
<time>2013-05-08T14:29:41.999Z</time>
</trkpt>
<trkpt lat="44.005112" lon="2.886812">
<ele>707.5</ele>
<time>2013-05-08T14:29:42.999Z</time>
</trkpt>
<trkpt lat="44.004942" lon="2.887027">
<ele>708.8</ele>
<time>2013-05-08T14:29:43.999Z</time>
</trkpt>
<trkpt lat="44.004768" lon="2.887236">
<ele>709.8</ele>
<time>2013-05-08T14:29:44.999Z</time>
</trkpt>
<trkpt lat="44.004609" lon="2.887456">
<ele>710.7</ele>
<time>2013-05-08T14:29:45.999Z</time>
</trkpt>
<trkpt lat="44.004455" lon="2.887684">
<ele>711.5</ele>
<time>2013-05-08T14:29:46.999Z</time>
</trkpt>
<trkpt lat="44.00431" lon="2.887922">
<ele>712</ele>
<time>2013-05-08T14:29:47.999Z</time>
</trkpt>
<trkpt lat="44.004175" lon="2.888166">
<ele>712.5</ele>
<time>2013-05-08T14:29:48.999Z</time>
</trkpt>
<trkpt lat="44.004054" lon="2.888419">
<ele>712.8</ele>
<time>2013-05-08T14:29:49.999Z</time>
</trkpt>
<trkpt lat="44.003961" lon="2.888687">
<ele>713.3</ele>
<time>2013-05-08T14:29:50.999Z</time>
</trkpt>
<trkpt lat="44.003902" lon="2.88897">
<ele>713.5</ele>
<time>2013-05-08T14:29:51.999Z</time>
</trkpt>
<trkpt lat="44.003866" lon="2.889265">
<ele>713.6</ele>
<time>2013-05-08T14:29:52.999Z</time>
</trkpt>
<trkpt lat="44.003862" lon="2.889571">
<ele>713.6</ele>
<time>2013-05-08T14:29:53.999Z</time>
</trkpt>
<trkpt lat="44.003852" lon="2.889872">
<ele>713.8</ele>
<time>2013-05-08T14:29:54.999Z</time>
</trkpt>
<trkpt lat="44.003923" lon="2.890184">
<ele>714</ele>
<time>2013-05-08T14:29:55.999Z</time>
</trkpt>
<trkpt lat="44.004012" lon="2.890516">
<ele>713.6</ele>
<time>2013-05-08T14:29:56.999Z</time>
</trkpt>
<trkpt lat="44.004085" lon="2.890838">
<ele>713</ele>
<time>2013-05-08T14:29:57.999Z</time>
</trkpt>
<trkpt lat="44.004154" lon="2.891155">
<ele>712.5</ele>
<time>2013-05-08T14:29:58.999Z</time>
</trkpt>
<trkpt lat="44.004227" lon="2.891472">
<ele>712.1</ele>
<time>2013-05-08T14:29:59.999Z</time>
</trkpt>
<trkpt lat="44.004252" lon="2.891778">
<ele>711.3</ele>
<time>2013-05-08T14:30:00.999Z</time>
</trkpt>
<trkpt lat="44.004236" lon="2.892084">
<ele>710.1</ele>
<time>2013-05-08T14:30:01.999Z</time>
</trkpt>
<trkpt lat="44.004211" lon="2.892384">
<ele>708.8</ele>
<time>2013-05-08T14:30:02.999Z</time>
</trkpt>
<trkpt lat="44.004169" lon="2.892692">
<ele>707.6</ele>
<time>2013-05-08T14:30:03.999Z</time>
</trkpt>
<trkpt lat="44.004116" lon="2.893011">
<ele>707</ele>
<time>2013-05-08T14:30:04.999Z</time>
</trkpt>
<trkpt lat="44.004057" lon="2.893335">
<ele>707</ele>
<time>2013-05-08T14:30:05.999Z</time>
</trkpt>
<trkpt lat="44.003995" lon="2.893649">
<ele>706.7</ele>
<time>2013-05-08T14:30:06.999Z</time>
</trkpt>
<trkpt lat="44.003941" lon="2.89395">
<ele>706.3</ele>
<time>2013-05-08T14:30:07.999Z</time>
</trkpt>
<trkpt lat="44.003886" lon="2.894239">
<ele>705.9</ele>
<time>2013-05-08T14:30:08.999Z</time>
</trkpt>
<trkpt lat="44.003837" lon="2.894513">
<ele>705.6</ele>
<time>2013-05-08T14:30:09.999Z</time>
</trkpt>
<trkpt lat="44.003797" lon="2.894757">
<ele>705.3</ele>
<time>2013-05-08T14:30:10.999Z</time>
</trkpt>
<trkpt lat="44.003761" lon="2.894984">
<ele>704.7</ele>
<time>2013-05-08T14:30:11.999Z</time>
</trkpt>
<trkpt lat="44.003731" lon="2.895206">
<ele>704.3</ele>
<time>2013-05-08T14:30:12.999Z</time>
</trkpt>
<trkpt lat="44.003698" lon="2.895424">
<ele>704</ele>
<time>2013-05-08T14:30:13.999Z</time>
</trkpt>
<trkpt lat="44.003665" lon="2.895644">
<ele>703.9</ele>
<time>2013-05-08T14:30:14.999Z</time>
</trkpt>
<trkpt lat="44.00362" lon="2.895869">
<ele>703.9</ele>
<time>2013-05-08T14:30:15.999Z</time>
</trkpt>
<trkpt lat="44.003517" lon="2.896087">
<ele>703.9</ele>
<time>2013-05-08T14:30:16.999Z</time>
</trkpt>
<trkpt lat="44.00341" lon="2.896294">
<ele>703.8</ele>
<time>2013-05-08T14:30:17.999Z</time>
</trkpt>
<trkpt lat="44.003308" lon="2.896471">
<ele>703.6</ele>
<time>2013-05-08T14:30:18.999Z</time>
</trkpt>
<trkpt lat="44.003215" lon="2.896625">
<ele>703.6</ele>
<time>2013-05-08T14:30:19.999Z</time>
</trkpt>
<trkpt lat="44.003128" lon="2.896762">
<ele>703.4</ele>
<time>2013-05-08T14:30:20.999Z</time>
</trkpt>
<trkpt lat="44.003051" lon="2.89688">
<ele>703</ele>
<time>2013-05-08T14:30:21.999Z</time>
</trkpt>
<trkpt lat="44.002981" lon="2.896982">
<ele>702.3</ele>
<time>2013-05-08T14:30:22.999Z</time>
</trkpt>
<trkpt lat="44.002918" lon="2.897071">
<ele>701.7</ele>
<time>2013-05-08T14:30:23.999Z</time>
</trkpt>
<trkpt lat="44.002861" lon="2.897153">
<ele>701.1</ele>
<time>2013-05-08T14:30:24.999Z</time>
</trkpt>
<trkpt lat="44.002812" lon="2.897223">
<ele>700.6</ele>
<time>2013-05-08T14:30:25.999Z</time>
</trkpt>
<trkpt lat="44.002766" lon="2.897283">
<ele>700.2</ele>
<time>2013-05-08T14:30:26.999Z</time>
</trkpt>
<trkpt lat="44.00272" lon="2.897344">
<ele>699.7</ele>
<time>2013-05-08T14:30:27.999Z</time>
</trkpt>
<trkpt lat="44.002676" lon="2.897403">
<ele>699.4</ele>
<time>2013-05-08T14:30:28.999Z</time>
</trkpt>
<trkpt lat="44.002634" lon="2.897458">
<ele>699.2</ele>
<time>2013-05-08T14:30:29.999Z</time>
</trkpt>
<trkpt lat="44.002593" lon="2.897515">
<ele>699</ele>
<time>2013-05-08T14:30:30.999Z</time>
</trkpt>
<trkpt lat="44.002554" lon="2.897568">
<ele>698.8</ele>
<time>2013-05-08T14:30:31.999Z</time>
</trkpt>
<trkpt lat="44.002528" lon="2.897603">
<ele>698.6</ele>
<time>2013-05-08T14:30:32.999Z</time>
</trkpt>
<trkpt lat="44.002509" lon="2.897627">
<ele>698.6</ele>
<time>2013-05-08T14:30:33.999Z</time>
</trkpt>
<trkpt lat="44.002478" lon="2.897669">
<ele>698.6</ele>
<time>2013-05-08T14:30:35.999Z</time>
</trkpt>
<trkpt lat="44.002467" lon="2.897687">
<ele>698.6</ele>
<time>2013-05-08T14:30:36.999Z</time>
</trkpt>
<trkpt lat="44.002443" lon="2.897722">
<ele>698.9</ele>
<time>2013-05-08T14:30:48.999Z</time>
</trkpt>
<trkpt lat="44.002442" lon="2.897755">
<ele>699</ele>
<time>2013-05-08T14:30:49.999Z</time>
</trkpt>
<trkpt lat="44.002474" lon="2.897749">
<ele>699.1</ele>
<time>2013-05-08T14:30:51.999Z</time>
</trkpt>
<trkpt lat="44.002508" lon="2.897701">
<ele>699.5</ele>
<time>2013-05-08T14:30:52.999Z</time>
</trkpt>
<trkpt lat="44.002559" lon="2.897622">
<ele>699.9</ele>
<time>2013-05-08T14:30:53.999Z</time>
</trkpt>
<trkpt lat="44.002624" lon="2.897519">
<ele>700.1</ele>
<time>2013-05-08T14:30:54.999Z</time>
</trkpt>
<trkpt lat="44.002698" lon="2.897402">
<ele>700</ele>
<time>2013-05-08T14:30:55.999Z</time>
</trkpt>
<trkpt lat="44.00278" lon="2.897264">
<ele>700.1</ele>
<time>2013-05-08T14:30:56.999Z</time>
</trkpt>
<trkpt lat="44.002872" lon="2.897112">
<ele>700.1</ele>
<time>2013-05-08T14:30:57.999Z</time>
</trkpt>
<trkpt lat="44.002969" lon="2.896955">
<ele>700.1</ele>
<time>2013-05-08T14:30:58.999Z</time>
</trkpt>
<trkpt lat="44.003071" lon="2.896797">
<ele>700.1</ele>
<time>2013-05-08T14:30:59.999Z</time>
</trkpt>
<trkpt lat="44.003172" lon="2.896641">
<ele>699.9</ele>
<time>2013-05-08T14:31:00.999Z</time>
</trkpt>
<trkpt lat="44.003272" lon="2.896485">
<ele>699.7</ele>
<time>2013-05-08T14:31:01.999Z</time>
</trkpt>
<trkpt lat="44.003362" lon="2.896346">
<ele>699.3</ele>
<time>2013-05-08T14:31:02.999Z</time>
</trkpt>
<trkpt lat="44.00344" lon="2.896223">
<ele>698.5</ele>
<time>2013-05-08T14:31:03.999Z</time>
</trkpt>
<trkpt lat="44.003503" lon="2.896124">
<ele>697.8</ele>
<time>2013-05-08T14:31:04.999Z</time>
</trkpt>
<trkpt lat="44.003556" lon="2.896034">
<ele>697</ele>
<time>2013-05-08T14:31:05.999Z</time>
</trkpt>
<trkpt lat="44.003575" lon="2.895971">
<ele>696.4</ele>
<time>2013-05-08T14:31:06.999Z</time>
</trkpt>
<trkpt lat="44.003595" lon="2.895909">
<ele>695.9</ele>
<time>2013-05-08T14:31:07.999Z</time>
</trkpt>
<trkpt lat="44.0036" lon="2.895856">
<ele>695.8</ele>
<time>2013-05-08T14:31:08.999Z</time>
</trkpt>
<trkpt lat="44.003585" lon="2.895827">
<ele>695.7</ele>
<time>2013-05-08T14:31:09.999Z</time>
</trkpt>
<trkpt lat="44.003554" lon="2.895807">
<ele>695.7</ele>
<time>2013-05-08T14:31:10.999Z</time>
</trkpt>
<trkpt lat="44.003523" lon="2.895792">
<ele>695.7</ele>
<time>2013-05-08T14:31:11.999Z</time>
</trkpt>
<trkpt lat="44.003482" lon="2.895785">
<ele>695.4</ele>
<time>2013-05-08T14:31:12.999Z</time>
</trkpt>
<trkpt lat="44.003437" lon="2.895775">
<ele>695.3</ele>
<time>2013-05-08T14:31:13.999Z</time>
</trkpt>
<trkpt lat="44.00338" lon="2.895762">
<ele>695.4</ele>
<time>2013-05-08T14:31:14.999Z</time>
</trkpt>
<trkpt lat="44.003311" lon="2.895744">
<ele>695.7</ele>
<time>2013-05-08T14:31:15.999Z</time>
</trkpt>
<trkpt lat="44.00323" lon="2.895724">
<ele>695.8</ele>
<time>2013-05-08T14:31:16.999Z</time>
</trkpt>
<trkpt lat="44.003146" lon="2.895703">
<ele>696</ele>
<time>2013-05-08T14:31:17.999Z</time>
</trkpt>
<trkpt lat="44.003041" lon="2.895679">
<ele>695.8</ele>
<time>2013-05-08T14:31:18.999Z</time>
</trkpt>
<trkpt lat="44.002917" lon="2.895652">
<ele>695.7</ele>
<time>2013-05-08T14:31:19.999Z</time>
</trkpt>
<trkpt lat="44.002783" lon="2.895616">
<ele>695.7</ele>
<time>2013-05-08T14:31:20.999Z</time>
</trkpt>
<trkpt lat="44.002648" lon="2.895578">
<ele>695.6</ele>
<time>2013-05-08T14:31:21.999Z</time>
</trkpt>
<trkpt lat="44.00251" lon="2.895533">
<ele>695.5</ele>
<time>2013-05-08T14:31:22.999Z</time>
</trkpt>
<trkpt lat="44.002373" lon="2.89549">
<ele>695.3</ele>
<time>2013-05-08T14:31:23.999Z</time>
</trkpt>
<trkpt lat="44.002235" lon="2.895446">
<ele>694.9</ele>
<time>2013-05-08T14:31:24.999Z</time>
</trkpt>
<trkpt lat="44.002099" lon="2.895404">
<ele>694.5</ele>
<time>2013-05-08T14:31:25.999Z</time>
</trkpt>
<trkpt lat="44.00197" lon="2.895375">
<ele>694.1</ele>
<time>2013-05-08T14:31:26.999Z</time>
</trkpt>
<trkpt lat="44.001842" lon="2.895383">
<ele>693.5</ele>
<time>2013-05-08T14:31:27.999Z</time>
</trkpt>
<trkpt lat="44.001717" lon="2.89546">
<ele>692.7</ele>
<time>2013-05-08T14:31:28.999Z</time>
</trkpt>
<trkpt lat="44.001591" lon="2.895548">
<ele>692</ele>
<time>2013-05-08T14:31:29.999Z</time>
</trkpt>
<trkpt lat="44.001465" lon="2.895642">
<ele>691.2</ele>
<time>2013-05-08T14:31:30.999Z</time>
</trkpt>
<trkpt lat="44.001335" lon="2.895784">
<ele>690.3</ele>
<time>2013-05-08T14:31:31.999Z</time>
</trkpt>
<trkpt lat="44.001192" lon="2.895939">
<ele>689.6</ele>
<time>2013-05-08T14:31:32.999Z</time>
</trkpt>
<trkpt lat="44.001041" lon="2.896107">
<ele>688.8</ele>
<time>2013-05-08T14:31:33.999Z</time>
</trkpt>
<trkpt lat="44.000887" lon="2.896278">
<ele>688.2</ele>
<time>2013-05-08T14:31:34.999Z</time>
</trkpt>
<trkpt lat="44.000729" lon="2.896442">
<ele>687.7</ele>
<time>2013-05-08T14:31:35.999Z</time>
</trkpt>
<trkpt lat="44.000571" lon="2.896606">
<ele>687.7</ele>
<time>2013-05-08T14:31:36.999Z</time>
</trkpt>
<trkpt lat="44.000415" lon="2.896748">
<ele>687.3</ele>
<time>2013-05-08T14:31:37.999Z</time>
</trkpt>
<trkpt lat="44.000258" lon="2.896893">
<ele>686.9</ele>
<time>2013-05-08T14:31:38.999Z</time>
</trkpt>
<trkpt lat="44.000103" lon="2.897031">
<ele>686.3</ele>
<time>2013-05-08T14:31:39.999Z</time>
</trkpt>
<trkpt lat="43.999946" lon="2.897164">
<ele>685.6</ele>
<time>2013-05-08T14:31:40.999Z</time>
</trkpt>
<trkpt lat="43.99979" lon="2.897303">
<ele>685</ele>
<time>2013-05-08T14:31:41.999Z</time>
</trkpt>
<trkpt lat="43.999645" lon="2.897451">
<ele>684.3</ele>
<time>2013-05-08T14:31:42.999Z</time>
</trkpt>
<trkpt lat="43.9995" lon="2.897613">
<ele>684</ele>
<time>2013-05-08T14:31:43.999Z</time>
</trkpt>
<trkpt lat="43.999362" lon="2.897785">
<ele>682.5</ele>
<time>2013-05-08T14:31:44.999Z</time>
</trkpt>
<trkpt lat="43.999226" lon="2.897978">
<ele>680.5</ele>
<time>2013-05-08T14:31:45.999Z</time>
</trkpt>
<trkpt lat="43.999088" lon="2.898172">
<ele>678.7</ele>
<time>2013-05-08T14:31:46.999Z</time>
</trkpt>
<trkpt lat="43.998953" lon="2.898376">
<ele>676.6</ele>
<time>2013-05-08T14:31:47.999Z</time>
</trkpt>
<trkpt lat="43.998814" lon="2.898582">
<ele>674.6</ele>
<time>2013-05-08T14:31:48.999Z</time>
</trkpt>
<trkpt lat="43.998678" lon="2.898784">
<ele>673</ele>
<time>2013-05-08T14:31:49.999Z</time>
</trkpt>
<trkpt lat="43.998547" lon="2.898982">
<ele>671.8</ele>
<time>2013-05-08T14:31:50.999Z</time>
</trkpt>
<trkpt lat="43.998419" lon="2.899182">
<ele>670.9</ele>
<time>2013-05-08T14:31:51.999Z</time>
</trkpt>
<trkpt lat="43.998264" lon="2.89933">
<ele>670.1</ele>
<time>2013-05-08T14:31:52.999Z</time>
</trkpt>
<trkpt lat="43.9981" lon="2.899411">
<ele>669.9</ele>
<time>2013-05-08T14:31:53.999Z</time>
</trkpt>
<trkpt lat="43.997928" lon="2.899403">
<ele>669.2</ele>
<time>2013-05-08T14:31:54.999Z</time>
</trkpt>
<trkpt lat="43.997768" lon="2.89943">
<ele>668.2</ele>
<time>2013-05-08T14:31:55.999Z</time>
</trkpt>
<trkpt lat="43.997618" lon="2.899483">
<ele>667</ele>
<time>2013-05-08T14:31:56.999Z</time>
</trkpt>
<trkpt lat="43.997482" lon="2.899533">
<ele>665.2</ele>
<time>2013-05-08T14:31:57.999Z</time>
</trkpt>
<trkpt lat="43.997357" lon="2.899607">
<ele>663.7</ele>
<time>2013-05-08T14:31:58.999Z</time>
</trkpt>
<trkpt lat="43.997247" lon="2.899676">
<ele>662.2</ele>
<time>2013-05-08T14:31:59.999Z</time>
</trkpt>
<trkpt lat="43.997136" lon="2.899743">
<ele>660.7</ele>
<time>2013-05-08T14:32:00.999Z</time>
</trkpt>
<trkpt lat="43.997019" lon="2.899734">
<ele>659.3</ele>
<time>2013-05-08T14:32:01.999Z</time>
</trkpt>
<trkpt lat="43.996919" lon="2.899672">
<ele>658.3</ele>
<time>2013-05-08T14:32:02.999Z</time>
</trkpt>
<trkpt lat="43.996827" lon="2.899579">
<ele>657.5</ele>
<time>2013-05-08T14:32:03.999Z</time>
</trkpt>
<trkpt lat="43.996738" lon="2.89949">
<ele>656.5</ele>
<time>2013-05-08T14:32:04.999Z</time>
</trkpt>
<trkpt lat="43.996647" lon="2.899393">
<ele>655.9</ele>
<time>2013-05-08T14:32:05.999Z</time>
</trkpt>
<trkpt lat="43.996544" lon="2.899297">
<ele>655.4</ele>
<time>2013-05-08T14:32:06.999Z</time>
</trkpt>
<trkpt lat="43.996427" lon="2.899214">
<ele>655.1</ele>
<time>2013-05-08T14:32:07.999Z</time>
</trkpt>
<trkpt lat="43.996253" lon="2.899214">
<ele>654.9</ele>
<time>2013-05-08T14:32:08.999Z</time>
</trkpt>
<trkpt lat="43.99607" lon="2.89923">
<ele>654.3</ele>
<time>2013-05-08T14:32:09.999Z</time>
</trkpt>
<trkpt lat="43.995891" lon="2.899253">
<ele>653.5</ele>
<time>2013-05-08T14:32:10.999Z</time>
</trkpt>
<trkpt lat="43.995713" lon="2.899282">
<ele>652.7</ele>
<time>2013-05-08T14:32:11.999Z</time>
</trkpt>
<trkpt lat="43.995545" lon="2.899298">
<ele>651.9</ele>
<time>2013-05-08T14:32:12.999Z</time>
</trkpt>
<trkpt lat="43.995379" lon="2.899303">
<ele>650.8</ele>
<time>2013-05-08T14:32:13.999Z</time>
</trkpt>
<trkpt lat="43.995242" lon="2.899209">
<ele>650.2</ele>
<time>2013-05-08T14:32:14.999Z</time>
</trkpt>
<trkpt lat="43.995109" lon="2.899107">
<ele>649.3</ele>
<time>2013-05-08T14:32:15.999Z</time>
</trkpt>
<trkpt lat="43.994981" lon="2.899003">
<ele>648.5</ele>
<time>2013-05-08T14:32:16.999Z</time>
</trkpt>
<trkpt lat="43.994845" lon="2.898906">
<ele>647.6</ele>
<time>2013-05-08T14:32:17.999Z</time>
</trkpt>
<trkpt lat="43.994689" lon="2.898858">
<ele>646.8</ele>
<time>2013-05-08T14:32:18.999Z</time>
</trkpt>
<trkpt lat="43.994532" lon="2.89883">
<ele>645.9</ele>
<time>2013-05-08T14:32:19.999Z</time>
</trkpt>
<trkpt lat="43.994373" lon="2.898868">
<ele>645</ele>
<time>2013-05-08T14:32:20.999Z</time>
</trkpt>
<trkpt lat="43.994208" lon="2.898917">
<ele>644.1</ele>
<time>2013-05-08T14:32:21.999Z</time>
</trkpt>
<trkpt lat="43.994032" lon="2.89897">
<ele>643.4</ele>
<time>2013-05-08T14:32:22.999Z</time>
</trkpt>
<trkpt lat="43.993842" lon="2.899028">
<ele>642.8</ele>
<time>2013-05-08T14:32:23.999Z</time>
</trkpt>
<trkpt lat="43.993649" lon="2.899086">
<ele>642.2</ele>
<time>2013-05-08T14:32:24.999Z</time>
</trkpt>
<trkpt lat="43.993459" lon="2.899136">
<ele>641.6</ele>
<time>2013-05-08T14:32:25.999Z</time>
</trkpt>
<trkpt lat="43.993274" lon="2.899193">
<ele>640.8</ele>
<time>2013-05-08T14:32:26.999Z</time>
</trkpt>
<trkpt lat="43.993106" lon="2.899258">
<ele>639.5</ele>
<time>2013-05-08T14:32:27.999Z</time>
</trkpt>
<trkpt lat="43.992948" lon="2.899333">
<ele>637.9</ele>
<time>2013-05-08T14:32:28.999Z</time>
</trkpt>
<trkpt lat="43.992809" lon="2.899401">
<ele>636.5</ele>
<time>2013-05-08T14:32:29.999Z</time>
</trkpt>
<trkpt lat="43.992691" lon="2.899466">
<ele>635.4</ele>
<time>2013-05-08T14:32:30.999Z</time>
</trkpt>
<trkpt lat="43.992575" lon="2.89949">
<ele>634.6</ele>
<time>2013-05-08T14:32:31.999Z</time>
</trkpt>
<trkpt lat="43.992463" lon="2.899465">
<ele>634.1</ele>
<time>2013-05-08T14:32:32.999Z</time>
</trkpt>
<trkpt lat="43.992353" lon="2.899427">
<ele>633.8</ele>
<time>2013-05-08T14:32:33.999Z</time>
</trkpt>
<trkpt lat="43.992255" lon="2.899349">
<ele>633.9</ele>
<time>2013-05-08T14:32:34.999Z</time>
</trkpt>
<trkpt lat="43.992146" lon="2.899266">
<ele>633.9</ele>
<time>2013-05-08T14:32:35.999Z</time>
</trkpt>
<trkpt lat="43.992041" lon="2.899189">
<ele>633.5</ele>
<time>2013-05-08T14:32:36.999Z</time>
</trkpt>
<trkpt lat="43.991915" lon="2.899168">
<ele>632.9</ele>
<time>2013-05-08T14:32:37.999Z</time>
</trkpt>
<trkpt lat="43.991774" lon="2.899152">
<ele>632.6</ele>
<time>2013-05-08T14:32:38.999Z</time>
</trkpt>
<trkpt lat="43.991637" lon="2.89914">
<ele>632.6</ele>
<time>2013-05-08T14:32:39.999Z</time>
</trkpt>
<trkpt lat="43.991505" lon="2.899135">
<ele>632.1</ele>
<time>2013-05-08T14:32:40.999Z</time>
</trkpt>
<trkpt lat="43.991377" lon="2.899138">
<ele>631.5</ele>
<time>2013-05-08T14:32:41.999Z</time>
</trkpt>
<trkpt lat="43.991252" lon="2.899216">
<ele>631.3</ele>
<time>2013-05-08T14:32:42.999Z</time>
</trkpt>
<trkpt lat="43.991131" lon="2.899312">
<ele>630.9</ele>
<time>2013-05-08T14:32:43.999Z</time>
</trkpt>
<trkpt lat="43.991016" lon="2.899471">
<ele>630.5</ele>
<time>2013-05-08T14:32:44.999Z</time>
</trkpt>
<trkpt lat="43.990881" lon="2.899665">
<ele>629.7</ele>
<time>2013-05-08T14:32:45.999Z</time>
</trkpt>
<trkpt lat="43.990737" lon="2.899879">
<ele>628.9</ele>
<time>2013-05-08T14:32:46.999Z</time>
</trkpt>
<trkpt lat="43.990595" lon="2.900088">
<ele>627.9</ele>
<time>2013-05-08T14:32:47.999Z</time>
</trkpt>
<trkpt lat="43.990457" lon="2.900301">
<ele>627</ele>
<time>2013-05-08T14:32:48.999Z</time>
</trkpt>
<trkpt lat="43.990324" lon="2.900498">
<ele>626.1</ele>
<time>2013-05-08T14:32:49.999Z</time>
</trkpt>
<trkpt lat="43.990201" lon="2.900667">
<ele>625.4</ele>
<time>2013-05-08T14:32:50.999Z</time>
</trkpt>
<trkpt lat="43.990092" lon="2.900805">
<ele>624.8</ele>
<time>2013-05-08T14:32:51.999Z</time>
</trkpt>
<trkpt lat="43.989985" lon="2.900934">
<ele>624.2</ele>
<time>2013-05-08T14:32:52.999Z</time>
</trkpt>
<trkpt lat="43.989885" lon="2.901058">
<ele>623.4</ele>
<time>2013-05-08T14:32:53.999Z</time>
</trkpt>
<trkpt lat="43.989779" lon="2.901171">
<ele>622.8</ele>
<time>2013-05-08T14:32:54.999Z</time>
</trkpt>
<trkpt lat="43.989656" lon="2.901286">
<ele>622.3</ele>
<time>2013-05-08T14:32:55.999Z</time>
</trkpt>
<trkpt lat="43.989502" lon="2.901407">
<ele>622</ele>
<time>2013-05-08T14:32:56.999Z</time>
</trkpt>
<trkpt lat="43.989315" lon="2.901533">
<ele>621.9</ele>
<time>2013-05-08T14:32:57.999Z</time>
</trkpt>
<trkpt lat="43.989113" lon="2.901648">
<ele>621.7</ele>
<time>2013-05-08T14:32:58.999Z</time>
</trkpt>
<trkpt lat="43.988905" lon="2.901723">
<ele>621</ele>
<time>2013-05-08T14:32:59.999Z</time>
</trkpt>
<trkpt lat="43.988704" lon="2.901793">
<ele>620.2</ele>
<time>2013-05-08T14:33:00.999Z</time>
</trkpt>
<trkpt lat="43.988508" lon="2.901851">
<ele>619.4</ele>
<time>2013-05-08T14:33:01.999Z</time>
</trkpt>
<trkpt lat="43.988301" lon="2.901877">
<ele>618.6</ele>
<time>2013-05-08T14:33:02.999Z</time>
</trkpt>
<trkpt lat="43.988092" lon="2.901896">
<ele>617.5</ele>
<time>2013-05-08T14:33:03.999Z</time>
</trkpt>
<trkpt lat="43.987861" lon="2.901917">
<ele>616.6</ele>
<time>2013-05-08T14:33:04.999Z</time>
</trkpt>
<trkpt lat="43.987618" lon="2.901942">
<ele>615.6</ele>
<time>2013-05-08T14:33:05.999Z</time>
</trkpt>
<trkpt lat="43.987366" lon="2.901956">
<ele>614.8</ele>
<time>2013-05-08T14:33:06.999Z</time>
</trkpt>
<trkpt lat="43.987126" lon="2.901971">
<ele>613.7</ele>
<time>2013-05-08T14:33:07.999Z</time>
</trkpt>
<trkpt lat="43.986903" lon="2.90198">
<ele>611.9</ele>
<time>2013-05-08T14:33:08.999Z</time>
</trkpt>
<trkpt lat="43.986684" lon="2.901983">
<ele>610.4</ele>
<time>2013-05-08T14:33:09.999Z</time>
</trkpt>
<trkpt lat="43.986491" lon="2.901975">
<ele>609</ele>
<time>2013-05-08T14:33:10.999Z</time>
</trkpt>
<trkpt lat="43.986293" lon="2.90195">
<ele>606.9</ele>
<time>2013-05-08T14:33:11.999Z</time>
</trkpt>
<trkpt lat="43.986114" lon="2.901941">
<ele>604.1</ele>
<time>2013-05-08T14:33:12.999Z</time>
</trkpt>
<trkpt lat="43.985948" lon="2.901982">
<ele>601.2</ele>
<time>2013-05-08T14:33:13.999Z</time>
</trkpt>
<trkpt lat="43.98578" lon="2.902033">
<ele>598.9</ele>
<time>2013-05-08T14:33:14.999Z</time>
</trkpt>
<trkpt lat="43.985622" lon="2.902097">
<ele>597</ele>
<time>2013-05-08T14:33:15.999Z</time>
</trkpt>
<trkpt lat="43.98547" lon="2.902184">
<ele>595.4</ele>
<time>2013-05-08T14:33:16.999Z</time>
</trkpt>
<trkpt lat="43.985318" lon="2.902272">
<ele>594</ele>
<time>2013-05-08T14:33:17.999Z</time>
</trkpt>
<trkpt lat="43.985165" lon="2.902309">
<ele>592.7</ele>
<time>2013-05-08T14:33:18.999Z</time>
</trkpt>
<trkpt lat="43.98502" lon="2.902337">
<ele>591.7</ele>
<time>2013-05-08T14:33:19.999Z</time>
</trkpt>
<trkpt lat="43.984891" lon="2.902382">
<ele>590.5</ele>
<time>2013-05-08T14:33:20.999Z</time>
</trkpt>
<trkpt lat="43.984748" lon="2.902432">
<ele>589.4</ele>
<time>2013-05-08T14:33:21.999Z</time>
</trkpt>
<trkpt lat="43.984606" lon="2.902495">
<ele>588.5</ele>
<time>2013-05-08T14:33:22.999Z</time>
</trkpt>
<trkpt lat="43.984468" lon="2.902573">
<ele>587.8</ele>
<time>2013-05-08T14:33:23.999Z</time>
</trkpt>
<trkpt lat="43.984324" lon="2.90266">
<ele>587.2</ele>
<time>2013-05-08T14:33:24.999Z</time>
</trkpt>
<trkpt lat="43.984174" lon="2.902753">
<ele>586.7</ele>
<time>2013-05-08T14:33:25.999Z</time>
</trkpt>
<trkpt lat="43.98401" lon="2.902856">
<ele>586.1</ele>
<time>2013-05-08T14:33:26.999Z</time>
</trkpt>
<trkpt lat="43.983842" lon="2.902966">
<ele>584.8</ele>
<time>2013-05-08T14:33:27.999Z</time>
</trkpt>
<trkpt lat="43.983671" lon="2.903093">
<ele>583.4</ele>
<time>2013-05-08T14:33:28.999Z</time>
</trkpt>
<trkpt lat="43.983511" lon="2.903246">
<ele>582</ele>
<time>2013-05-08T14:33:29.999Z</time>
</trkpt>
<trkpt lat="43.983347" lon="2.903396">
<ele>580.9</ele>
<time>2013-05-08T14:33:30.999Z</time>
</trkpt>
<trkpt lat="43.983177" lon="2.903485">
<ele>580</ele>
<time>2013-05-08T14:33:31.999Z</time>
</trkpt>
<trkpt lat="43.983009" lon="2.903546">
<ele>579.2</ele>
<time>2013-05-08T14:33:32.999Z</time>
</trkpt>
<trkpt lat="43.982846" lon="2.903539">
<ele>578.7</ele>
<time>2013-05-08T14:33:33.999Z</time>
</trkpt>
<trkpt lat="43.982676" lon="2.903508">
<ele>578.3</ele>
<time>2013-05-08T14:33:34.999Z</time>
</trkpt>
<trkpt lat="43.98254" lon="2.903359">
<ele>578</ele>
<time>2013-05-08T14:33:35.999Z</time>
</trkpt>
<trkpt lat="43.982413" lon="2.903182">
<ele>577.7</ele>
<time>2013-05-08T14:33:36.999Z</time>
</trkpt>
<trkpt lat="43.982288" lon="2.903016">
<ele>577.3</ele>
<time>2013-05-08T14:33:37.999Z</time>
</trkpt>
<trkpt lat="43.982175" lon="2.902883">
<ele>575.6</ele>
<time>2013-05-08T14:33:38.999Z</time>
</trkpt>
<trkpt lat="43.982057" lon="2.902716">
<ele>572.7</ele>
<time>2013-05-08T14:33:39.999Z</time>
</trkpt>
<trkpt lat="43.981963" lon="2.902503">
<ele>569.9</ele>
<time>2013-05-08T14:33:40.999Z</time>
</trkpt>
<trkpt lat="43.981871" lon="2.902275">
<ele>567.5</ele>
<time>2013-05-08T14:33:41.999Z</time>
</trkpt>
<trkpt lat="43.981782" lon="2.90204">
<ele>565.1</ele>
<time>2013-05-08T14:33:42.999Z</time>
</trkpt>
<trkpt lat="43.981692" lon="2.901807">
<ele>562.7</ele>
<time>2013-05-08T14:33:43.999Z</time>
</trkpt>
<trkpt lat="43.981584" lon="2.901593">
<ele>560.3</ele>
<time>2013-05-08T14:33:44.999Z</time>
</trkpt>
<trkpt lat="43.981455" lon="2.901409">
<ele>558</ele>
<time>2013-05-08T14:33:45.999Z</time>
</trkpt>
<trkpt lat="43.98133" lon="2.90125">
<ele>555.9</ele>
<time>2013-05-08T14:33:46.999Z</time>
</trkpt>
<trkpt lat="43.981196" lon="2.901121">
<ele>554.4</ele>
<time>2013-05-08T14:33:47.999Z</time>
</trkpt>
<trkpt lat="43.981042" lon="2.901054">
<ele>553.5</ele>
<time>2013-05-08T14:33:48.999Z</time>
</trkpt>
<trkpt lat="43.980892" lon="2.901003">
<ele>552.7</ele>
<time>2013-05-08T14:33:49.999Z</time>
</trkpt>
<trkpt lat="43.980738" lon="2.900946">
<ele>551.7</ele>
<time>2013-05-08T14:33:50.999Z</time>
</trkpt>
<trkpt lat="43.980591" lon="2.900881">
<ele>550.9</ele>
<time>2013-05-08T14:33:51.999Z</time>
</trkpt>
<trkpt lat="43.980484" lon="2.900756">
<ele>550.5</ele>
<time>2013-05-08T14:33:52.999Z</time>
</trkpt>
<trkpt lat="43.980399" lon="2.900599">
<ele>550.4</ele>
<time>2013-05-08T14:33:53.999Z</time>
</trkpt>
<trkpt lat="43.980313" lon="2.900419">
<ele>550.1</ele>
<time>2013-05-08T14:33:54.999Z</time>
</trkpt>
<trkpt lat="43.980224" lon="2.90023">
<ele>549.9</ele>
<time>2013-05-08T14:33:55.999Z</time>
</trkpt>
<trkpt lat="43.98014" lon="2.900039">
<ele>549.9</ele>
<time>2013-05-08T14:33:56.999Z</time>
</trkpt>
<trkpt lat="43.980049" lon="2.899854">
<ele>549.7</ele>
<time>2013-05-08T14:33:57.999Z</time>
</trkpt>
<trkpt lat="43.979946" lon="2.899674">
<ele>549.6</ele>
<time>2013-05-08T14:33:58.999Z</time>
</trkpt>
<trkpt lat="43.979803" lon="2.899581">
<ele>549.5</ele>
<time>2013-05-08T14:33:59.999Z</time>
</trkpt>
<trkpt lat="43.979654" lon="2.899506">
<ele>549.5</ele>
<time>2013-05-08T14:34:00.999Z</time>
</trkpt>
<trkpt lat="43.979509" lon="2.899422">
<ele>549.2</ele>
<time>2013-05-08T14:34:01.999Z</time>
</trkpt>
<trkpt lat="43.979381" lon="2.899278">
<ele>548.5</ele>
<time>2013-05-08T14:34:02.999Z</time>
</trkpt>
<trkpt lat="43.979249" lon="2.899115">
<ele>548.1</ele>
<time>2013-05-08T14:34:03.999Z</time>
</trkpt>
<trkpt lat="43.979119" lon="2.898942">
<ele>547.7</ele>
<time>2013-05-08T14:34:04.999Z</time>
</trkpt>
<trkpt lat="43.978992" lon="2.898771">
<ele>547.1</ele>
<time>2013-05-08T14:34:05.999Z</time>
</trkpt>
<trkpt lat="43.978859" lon="2.898603">
<ele>546.5</ele>
<time>2013-05-08T14:34:06.999Z</time>
</trkpt>
<trkpt lat="43.978705" lon="2.898489">
<ele>546</ele>
<time>2013-05-08T14:34:07.999Z</time>
</trkpt>
<trkpt lat="43.978546" lon="2.898386">
<ele>545.4</ele>
<time>2013-05-08T14:34:08.999Z</time>
</trkpt>
<trkpt lat="43.978371" lon="2.898298">
<ele>544.9</ele>
<time>2013-05-08T14:34:09.999Z</time>
</trkpt>
<trkpt lat="43.978177" lon="2.898226">
<ele>544.2</ele>
<time>2013-05-08T14:34:10.999Z</time>
</trkpt>
<trkpt lat="43.977967" lon="2.89821">
<ele>543.7</ele>
<time>2013-05-08T14:34:11.999Z</time>
</trkpt>
<trkpt lat="43.977765" lon="2.898198">
<ele>543.4</ele>
<time>2013-05-08T14:34:12.999Z</time>
</trkpt>
<trkpt lat="43.977568" lon="2.898189">
<ele>543</ele>
<time>2013-05-08T14:34:13.999Z</time>
</trkpt>
<trkpt lat="43.977378" lon="2.898193">
<ele>542.5</ele>
<time>2013-05-08T14:34:14.999Z</time>
</trkpt>
<trkpt lat="43.977183" lon="2.898238">
<ele>542</ele>
<time>2013-05-08T14:34:15.999Z</time>
</trkpt>
<trkpt lat="43.97699" lon="2.898313">
<ele>541.1</ele>
<time>2013-05-08T14:34:16.999Z</time>
</trkpt>
<trkpt lat="43.976794" lon="2.898408">
<ele>539.9</ele>
<time>2013-05-08T14:34:17.999Z</time>
</trkpt>
<trkpt lat="43.976589" lon="2.898506">
<ele>539.2</ele>
<time>2013-05-08T14:34:18.999Z</time>
</trkpt>
<trkpt lat="43.976377" lon="2.898578">
<ele>538.6</ele>
<time>2013-05-08T14:34:19.999Z</time>
</trkpt>
<trkpt lat="43.976158" lon="2.898619">
<ele>538.6</ele>
<time>2013-05-08T14:34:20.999Z</time>
</trkpt>
<trkpt lat="43.975937" lon="2.898625">
<ele>539.1</ele>
<time>2013-05-08T14:34:21.999Z</time>
</trkpt>
<trkpt lat="43.975727" lon="2.898607">
<ele>539.8</ele>
<time>2013-05-08T14:34:22.999Z</time>
</trkpt>
<trkpt lat="43.975523" lon="2.898587">
<ele>540.8</ele>
<time>2013-05-08T14:34:23.999Z</time>
</trkpt>
<trkpt lat="43.975332" lon="2.898563">
<ele>541.8</ele>
<time>2013-05-08T14:34:24.999Z</time>
</trkpt>
<trkpt lat="43.975151" lon="2.898523">
<ele>542.4</ele>
<time>2013-05-08T14:34:25.999Z</time>
</trkpt>
<trkpt lat="43.974981" lon="2.898447">
<ele>541.5</ele>
<time>2013-05-08T14:34:26.999Z</time>
</trkpt>
<trkpt lat="43.974821" lon="2.898347">
<ele>539.8</ele>
<time>2013-05-08T14:34:27.999Z</time>
</trkpt>
<trkpt lat="43.97466" lon="2.898248">
<ele>538.5</ele>
<time>2013-05-08T14:34:28.999Z</time>
</trkpt>
<trkpt lat="43.974498" lon="2.898143">
<ele>537.2</ele>
<time>2013-05-08T14:34:29.999Z</time>
</trkpt>
<trkpt lat="43.97435" lon="2.898046">
<ele>535.5</ele>
<time>2013-05-08T14:34:30.999Z</time>
</trkpt>
<trkpt lat="43.974208" lon="2.897966">
<ele>534.1</ele>
<time>2013-05-08T14:34:31.999Z</time>
</trkpt>
<trkpt lat="43.974063" lon="2.897956">
<ele>532.7</ele>
<time>2013-05-08T14:34:32.999Z</time>
</trkpt>
<trkpt lat="43.973943" lon="2.897959">
<ele>531.1</ele>
<time>2013-05-08T14:34:33.999Z</time>
</trkpt>
<trkpt lat="43.973835" lon="2.898058">
<ele>529.5</ele>
<time>2013-05-08T14:34:34.999Z</time>
</trkpt>
<trkpt lat="43.973741" lon="2.898192">
<ele>528.1</ele>
<time>2013-05-08T14:34:35.999Z</time>
</trkpt>
<trkpt lat="43.973656" lon="2.898315">
<ele>527.4</ele>
<time>2013-05-08T14:34:36.999Z</time>
</trkpt>
<trkpt lat="43.973569" lon="2.898452">
<ele>526.5</ele>
<time>2013-05-08T14:34:37.999Z</time>
</trkpt>
<trkpt lat="43.973456" lon="2.898542">
<ele>525.6</ele>
<time>2013-05-08T14:34:38.999Z</time>
</trkpt>
<trkpt lat="43.973332" lon="2.898587">
<ele>524.7</ele>
<time>2013-05-08T14:34:39.999Z</time>
</trkpt>
<trkpt lat="43.973198" lon="2.898622">
<ele>524.2</ele>
<time>2013-05-08T14:34:40.999Z</time>
</trkpt>
<trkpt lat="43.973052" lon="2.898647">
<ele>524</ele>
<time>2013-05-08T14:34:41.999Z</time>
</trkpt>
<trkpt lat="43.972897" lon="2.898659">
<ele>523.5</ele>
<time>2013-05-08T14:34:42.999Z</time>
</trkpt>
<trkpt lat="43.972718" lon="2.89867">
<ele>523.1</ele>
<time>2013-05-08T14:34:43.999Z</time>
</trkpt>
<trkpt lat="43.972536" lon="2.898666">
<ele>522.3</ele>
<time>2013-05-08T14:34:44.999Z</time>
</trkpt>
<trkpt lat="43.972349" lon="2.898654">
<ele>521.2</ele>
<time>2013-05-08T14:34:45.999Z</time>
</trkpt>
<trkpt lat="43.97216" lon="2.898631">
<ele>520</ele>
<time>2013-05-08T14:34:46.999Z</time>
</trkpt>
<trkpt lat="43.971965" lon="2.898575">
<ele>519</ele>
<time>2013-05-08T14:34:47.999Z</time>
</trkpt>
<trkpt lat="43.971772" lon="2.898497">
<ele>518.4</ele>
<time>2013-05-08T14:34:48.999Z</time>
</trkpt>
<trkpt lat="43.971585" lon="2.89841">
<ele>517.9</ele>
<time>2013-05-08T14:34:49.999Z</time>
</trkpt>
<trkpt lat="43.971413" lon="2.898331">
<ele>517.3</ele>
<time>2013-05-08T14:34:50.999Z</time>
</trkpt>
<trkpt lat="43.971243" lon="2.898238">
<ele>517.1</ele>
<time>2013-05-08T14:34:51.999Z</time>
</trkpt>
<trkpt lat="43.971073" lon="2.898135">
<ele>516.7</ele>
<time>2013-05-08T14:34:52.999Z</time>
</trkpt>
<trkpt lat="43.970933" lon="2.897995">
<ele>516.4</ele>
<time>2013-05-08T14:34:53.999Z</time>
</trkpt>
<trkpt lat="43.970805" lon="2.897854">
<ele>516.2</ele>
<time>2013-05-08T14:34:54.999Z</time>
</trkpt>
<trkpt lat="43.970704" lon="2.897669">
<ele>515.7</ele>
<time>2013-05-08T14:34:55.999Z</time>
</trkpt>
<trkpt lat="43.970613" lon="2.897487">
<ele>515.1</ele>
<time>2013-05-08T14:34:56.999Z</time>
</trkpt>
<trkpt lat="43.970566" lon="2.897285">
<ele>514.4</ele>
<time>2013-05-08T14:34:57.999Z</time>
</trkpt>
<trkpt lat="43.970528" lon="2.897087">
<ele>513</ele>
<time>2013-05-08T14:34:58.999Z</time>
</trkpt>
<trkpt lat="43.970494" lon="2.896899">
<ele>511.5</ele>
<time>2013-05-08T14:34:59.999Z</time>
</trkpt>
<trkpt lat="43.970436" lon="2.89674">
<ele>509.9</ele>
<time>2013-05-08T14:35:00.999Z</time>
</trkpt>
<trkpt lat="43.970365" lon="2.896574">
<ele>508.6</ele>
<time>2013-05-08T14:35:01.999Z</time>
</trkpt>
<trkpt lat="43.970256" lon="2.896448">
<ele>507.4</ele>
<time>2013-05-08T14:35:02.999Z</time>
</trkpt>
<trkpt lat="43.970126" lon="2.896304">
<ele>505.9</ele>
<time>2013-05-08T14:35:03.999Z</time>
</trkpt>
<trkpt lat="43.969977" lon="2.896159">
<ele>504.3</ele>
<time>2013-05-08T14:35:04.999Z</time>
</trkpt>
<trkpt lat="43.969835" lon="2.89601">
<ele>502.7</ele>
<time>2013-05-08T14:35:05.999Z</time>
</trkpt>
<trkpt lat="43.969688" lon="2.895845">
<ele>501.5</ele>
<time>2013-05-08T14:35:06.999Z</time>
</trkpt>
<trkpt lat="43.969559" lon="2.895651">
<ele>500.3</ele>
<time>2013-05-08T14:35:07.999Z</time>
</trkpt>
<trkpt lat="43.969428" lon="2.895444">
<ele>499.1</ele>
<time>2013-05-08T14:35:08.999Z</time>
</trkpt>
<trkpt lat="43.969296" lon="2.895233">
<ele>498.1</ele>
<time>2013-05-08T14:35:09.999Z</time>
</trkpt>
<trkpt lat="43.969167" lon="2.895026">
<ele>497</ele>
<time>2013-05-08T14:35:10.999Z</time>
</trkpt>
<trkpt lat="43.969032" lon="2.894824">
<ele>496.2</ele>
<time>2013-05-08T14:35:11.999Z</time>
</trkpt>
<trkpt lat="43.968892" lon="2.894635">
<ele>495.6</ele>
<time>2013-05-08T14:35:12.999Z</time>
</trkpt>
<trkpt lat="43.968751" lon="2.894446">
<ele>494.9</ele>
<time>2013-05-08T14:35:13.999Z</time>
</trkpt>
<trkpt lat="43.968617" lon="2.894265">
<ele>494.2</ele>
<time>2013-05-08T14:35:14.999Z</time>
</trkpt>
<trkpt lat="43.968471" lon="2.894115">
<ele>493.4</ele>
<time>2013-05-08T14:35:15.999Z</time>
</trkpt>
<trkpt lat="43.968334" lon="2.893954">
<ele>492</ele>
<time>2013-05-08T14:35:16.999Z</time>
</trkpt>
<trkpt lat="43.968208" lon="2.89379">
<ele>490.3</ele>
<time>2013-05-08T14:35:17.999Z</time>
</trkpt>
<trkpt lat="43.968097" lon="2.893611">
<ele>488.6</ele>
<time>2013-05-08T14:35:18.999Z</time>
</trkpt>
<trkpt lat="43.96799" lon="2.893438">
<ele>486.7</ele>
<time>2013-05-08T14:35:19.999Z</time>
</trkpt>
<trkpt lat="43.967892" lon="2.893283">
<ele>484.9</ele>
<time>2013-05-08T14:35:20.999Z</time>
</trkpt>
<trkpt lat="43.967799" lon="2.89315">
<ele>483.1</ele>
<time>2013-05-08T14:35:21.999Z</time>
</trkpt>
<trkpt lat="43.967706" lon="2.893068">
<ele>481.4</ele>
<time>2013-05-08T14:35:22.999Z</time>
</trkpt>
<trkpt lat="43.9676" lon="2.893023">
<ele>480.1</ele>
<time>2013-05-08T14:35:23.999Z</time>
</trkpt>
<trkpt lat="43.967493" lon="2.893006">
<ele>479.1</ele>
<time>2013-05-08T14:35:24.999Z</time>
</trkpt>
<trkpt lat="43.967387" lon="2.892984">
<ele>477.9</ele>
<time>2013-05-08T14:35:25.999Z</time>
</trkpt>
<trkpt lat="43.967302" lon="2.892909">
<ele>476.6</ele>
<time>2013-05-08T14:35:26.999Z</time>
</trkpt>
<trkpt lat="43.967241" lon="2.892807">
<ele>475.4</ele>
<time>2013-05-08T14:35:27.999Z</time>
</trkpt>
<trkpt lat="43.967207" lon="2.892689">
<ele>474.5</ele>
<time>2013-05-08T14:35:28.999Z</time>
</trkpt>
<trkpt lat="43.967208" lon="2.892578">
<ele>473.9</ele>
<time>2013-05-08T14:35:29.999Z</time>
</trkpt>
<trkpt lat="43.967201" lon="2.892419">
<ele>472.8</ele>
<time>2013-05-08T14:35:30.999Z</time>
</trkpt>
<trkpt lat="43.9672" lon="2.892247">
<ele>471.3</ele>
<time>2013-05-08T14:35:31.999Z</time>
</trkpt>
<trkpt lat="43.9672" lon="2.892084">
<ele>469.5</ele>
<time>2013-05-08T14:35:32.999Z</time>
</trkpt>
<trkpt lat="43.967208" lon="2.891949">
<ele>467.4</ele>
<time>2013-05-08T14:35:33.999Z</time>
</trkpt>
<trkpt lat="43.967253" lon="2.89185">
<ele>465.8</ele>
<time>2013-05-08T14:35:34.999Z</time>
</trkpt>
<trkpt lat="43.967302" lon="2.891788">
<ele>464.9</ele>
<time>2013-05-08T14:35:35.999Z</time>
</trkpt>
<trkpt lat="43.967399" lon="2.891726">
<ele>464</ele>
<time>2013-05-08T14:35:36.999Z</time>
</trkpt>
<trkpt lat="43.967514" lon="2.891848">
<ele>463.3</ele>
<time>2013-05-08T14:35:37.999Z</time>
</trkpt>
<trkpt lat="43.967626" lon="2.891988">
<ele>462.8</ele>
<time>2013-05-08T14:35:38.999Z</time>
</trkpt>
<trkpt lat="43.967742" lon="2.892131">
<ele>462.3</ele>
<time>2013-05-08T14:35:39.999Z</time>
</trkpt>
<trkpt lat="43.967851" lon="2.892274">
<ele>461.8</ele>
<time>2013-05-08T14:35:40.999Z</time>
</trkpt>
<trkpt lat="43.967954" lon="2.892409">
<ele>461.5</ele>
<time>2013-05-08T14:35:41.999Z</time>
</trkpt>
<trkpt lat="43.968053" lon="2.89253">
<ele>461</ele>
<time>2013-05-08T14:35:42.999Z</time>
</trkpt>
<trkpt lat="43.968153" lon="2.892637">
<ele>460.5</ele>
<time>2013-05-08T14:35:43.999Z</time>
</trkpt>
<trkpt lat="43.968274" lon="2.892674">
<ele>459.7</ele>
<time>2013-05-08T14:35:44.999Z</time>
</trkpt>
<trkpt lat="43.968381" lon="2.892681">
<ele>458.7</ele>
<time>2013-05-08T14:35:45.999Z</time>
</trkpt>
<trkpt lat="43.968479" lon="2.892624">
<ele>458.1</ele>
<time>2013-05-08T14:35:46.999Z</time>
</trkpt>
<trkpt lat="43.968549" lon="2.892535">
<ele>457.2</ele>
<time>2013-05-08T14:35:47.999Z</time>
</trkpt>
<trkpt lat="43.968542" lon="2.892399">
<ele>456.8</ele>
<time>2013-05-08T14:35:48.999Z</time>
</trkpt>
<trkpt lat="43.968485" lon="2.892252">
<ele>456.4</ele>
<time>2013-05-08T14:35:49.999Z</time>
</trkpt>
<trkpt lat="43.968413" lon="2.892085">
<ele>456</ele>
<time>2013-05-08T14:35:50.999Z</time>
</trkpt>
<trkpt lat="43.968332" lon="2.891902">
<ele>455.1</ele>
<time>2013-05-08T14:35:51.999Z</time>
</trkpt>
<trkpt lat="43.968243" lon="2.891716">
<ele>454</ele>
<time>2013-05-08T14:35:52.999Z</time>
</trkpt>
<trkpt lat="43.968151" lon="2.891545">
<ele>452.8</ele>
<time>2013-05-08T14:35:53.999Z</time>
</trkpt>
<trkpt lat="43.968013" lon="2.891417">
<ele>451.5</ele>
<time>2013-05-08T14:35:54.999Z</time>
</trkpt>
<trkpt lat="43.967872" lon="2.891294">
<ele>449.9</ele>
<time>2013-05-08T14:35:55.999Z</time>
</trkpt>
<trkpt lat="43.967726" lon="2.891167">
<ele>447.9</ele>
<time>2013-05-08T14:35:56.999Z</time>
</trkpt>
<trkpt lat="43.967571" lon="2.891037">
<ele>446.3</ele>
<time>2013-05-08T14:35:57.999Z</time>
</trkpt>
<trkpt lat="43.967423" lon="2.890912">
<ele>445.1</ele>
<time>2013-05-08T14:35:58.999Z</time>
</trkpt>
<trkpt lat="43.967276" lon="2.890788">
<ele>444.3</ele>
<time>2013-05-08T14:35:59.999Z</time>
</trkpt>
<trkpt lat="43.96714" lon="2.890658">
<ele>443.5</ele>
<time>2013-05-08T14:36:00.999Z</time>
</trkpt>
<trkpt lat="43.967037" lon="2.890508">
<ele>442.6</ele>
<time>2013-05-08T14:36:01.999Z</time>
</trkpt>
<trkpt lat="43.966952" lon="2.890374">
<ele>441.5</ele>
<time>2013-05-08T14:36:02.999Z</time>
</trkpt>
<trkpt lat="43.966902" lon="2.890234">
<ele>440.6</ele>
<time>2013-05-08T14:36:03.999Z</time>
</trkpt>
<trkpt lat="43.966851" lon="2.890117">
<ele>439.8</ele>
<time>2013-05-08T14:36:04.999Z</time>
</trkpt>
<trkpt lat="43.966771" lon="2.890048">
<ele>439</ele>
<time>2013-05-08T14:36:05.999Z</time>
</trkpt>
<trkpt lat="43.96668" lon="2.889999">
<ele>438.3</ele>
<time>2013-05-08T14:36:06.999Z</time>
</trkpt>
<trkpt lat="43.966596" lon="2.889959">
<ele>437.8</ele>
<time>2013-05-08T14:36:07.999Z</time>
</trkpt>
<trkpt lat="43.966488" lon="2.889987">
<ele>437</ele>
<time>2013-05-08T14:36:08.999Z</time>
</trkpt>
<trkpt lat="43.966374" lon="2.890018">
<ele>436.5</ele>
<time>2013-05-08T14:36:09.999Z</time>
</trkpt>
<trkpt lat="43.96626" lon="2.890048">
<ele>436</ele>
<time>2013-05-08T14:36:10.999Z</time>
</trkpt>
<trkpt lat="43.966142" lon="2.890086">
<ele>435.3</ele>
<time>2013-05-08T14:36:11.999Z</time>
</trkpt>
<trkpt lat="43.96602" lon="2.890119">
<ele>434.6</ele>
<time>2013-05-08T14:36:12.999Z</time>
</trkpt>
<trkpt lat="43.965888" lon="2.890106">
<ele>433.2</ele>
<time>2013-05-08T14:36:13.999Z</time>
</trkpt>
<trkpt lat="43.965747" lon="2.890085">
<ele>431.9</ele>
<time>2013-05-08T14:36:14.999Z</time>
</trkpt>
<trkpt lat="43.965603" lon="2.890051">
<ele>431.1</ele>
<time>2013-05-08T14:36:15.999Z</time>
</trkpt>
<trkpt lat="43.965459" lon="2.890008">
<ele>430.2</ele>
<time>2013-05-08T14:36:16.999Z</time>
</trkpt>
<trkpt lat="43.965314" lon="2.889957">
<ele>429.3</ele>
<time>2013-05-08T14:36:17.999Z</time>
</trkpt>
<trkpt lat="43.965169" lon="2.889901">
<ele>427.8</ele>
<time>2013-05-08T14:36:18.999Z</time>
</trkpt>
<trkpt lat="43.965028" lon="2.889846">
<ele>426.2</ele>
<time>2013-05-08T14:36:19.999Z</time>
</trkpt>
<trkpt lat="43.964888" lon="2.889787">
<ele>424.6</ele>
<time>2013-05-08T14:36:20.999Z</time>
</trkpt>
<trkpt lat="43.964752" lon="2.889731">
<ele>423</ele>
<time>2013-05-08T14:36:21.999Z</time>
</trkpt>
<trkpt lat="43.964622" lon="2.889686">
<ele>421.7</ele>
<time>2013-05-08T14:36:22.999Z</time>
</trkpt>
<trkpt lat="43.964489" lon="2.889653">
<ele>420.6</ele>
<time>2013-05-08T14:36:23.999Z</time>
</trkpt>
<trkpt lat="43.964351" lon="2.889624">
<ele>419.4</ele>
<time>2013-05-08T14:36:24.999Z</time>
</trkpt>
<trkpt lat="43.964211" lon="2.889599">
<ele>418</ele>
<time>2013-05-08T14:36:25.999Z</time>
</trkpt>
<trkpt lat="43.964072" lon="2.889577">
<ele>416.6</ele>
<time>2013-05-08T14:36:26.999Z</time>
</trkpt>
<trkpt lat="43.963926" lon="2.889556">
<ele>415.4</ele>
<time>2013-05-08T14:36:27.999Z</time>
</trkpt>
<trkpt lat="43.963777" lon="2.889519">
<ele>414.4</ele>
<time>2013-05-08T14:36:28.999Z</time>
</trkpt>
<trkpt lat="43.963638" lon="2.889429">
<ele>413.3</ele>
<time>2013-05-08T14:36:29.999Z</time>
</trkpt>
<trkpt lat="43.963498" lon="2.889329">
<ele>412.3</ele>
<time>2013-05-08T14:36:30.999Z</time>
</trkpt>
<trkpt lat="43.96337" lon="2.889227">
<ele>411</ele>
<time>2013-05-08T14:36:31.999Z</time>
</trkpt>
<trkpt lat="43.963254" lon="2.889117">
<ele>409.6</ele>
<time>2013-05-08T14:36:32.999Z</time>
</trkpt>
<trkpt lat="43.963149" lon="2.889006">
<ele>408.3</ele>
<time>2013-05-08T14:36:33.999Z</time>
</trkpt>
<trkpt lat="43.963047" lon="2.888894">
<ele>407</ele>
<time>2013-05-08T14:36:34.999Z</time>
</trkpt>
<trkpt lat="43.962941" lon="2.888774">
<ele>406.1</ele>
<time>2013-05-08T14:36:35.999Z</time>
</trkpt>
<trkpt lat="43.962824" lon="2.888643">
<ele>405.3</ele>
<time>2013-05-08T14:36:36.999Z</time>
</trkpt>
<trkpt lat="43.962704" lon="2.888507">
<ele>404.9</ele>
<time>2013-05-08T14:36:37.999Z</time>
</trkpt>
<trkpt lat="43.962589" lon="2.888379">
<ele>404.7</ele>
<time>2013-05-08T14:36:38.999Z</time>
</trkpt>
<trkpt lat="43.962471" lon="2.888251">
<ele>404.7</ele>
<time>2013-05-08T14:36:39.999Z</time>
</trkpt>
<trkpt lat="43.962344" lon="2.888115">
<ele>404.6</ele>
<time>2013-05-08T14:36:40.999Z</time>
</trkpt>
<trkpt lat="43.962207" lon="2.887969">
<ele>404.3</ele>
<time>2013-05-08T14:36:41.999Z</time>
</trkpt>
<trkpt lat="43.962071" lon="2.887826">
<ele>403.8</ele>
<time>2013-05-08T14:36:42.999Z</time>
</trkpt>
<trkpt lat="43.961934" lon="2.88768">
<ele>403</ele>
<time>2013-05-08T14:36:43.999Z</time>
</trkpt>
<trkpt lat="43.961799" lon="2.887538">
<ele>402.1</ele>
<time>2013-05-08T14:36:44.999Z</time>
</trkpt>
<trkpt lat="43.961673" lon="2.887402">
<ele>401.5</ele>
<time>2013-05-08T14:36:45.999Z</time>
</trkpt>
<trkpt lat="43.961556" lon="2.887275">
<ele>401.1</ele>
<time>2013-05-08T14:36:46.999Z</time>
</trkpt>
<trkpt lat="43.961439" lon="2.887145">
<ele>400.1</ele>
<time>2013-05-08T14:36:47.999Z</time>
</trkpt>
<trkpt lat="43.961328" lon="2.887015">
<ele>398.9</ele>
<time>2013-05-08T14:36:48.999Z</time>
</trkpt>
<trkpt lat="43.961219" lon="2.886888">
<ele>398.1</ele>
<time>2013-05-08T14:36:49.999Z</time>
</trkpt>
<trkpt lat="43.961143" lon="2.886744">
<ele>397.4</ele>
<time>2013-05-08T14:36:50.999Z</time>
</trkpt>
<trkpt lat="43.961098" lon="2.886608">
<ele>397.1</ele>
<time>2013-05-08T14:36:51.999Z</time>
</trkpt>
<trkpt lat="43.961058" lon="2.886473">
<ele>396.8</ele>
<time>2013-05-08T14:36:52.999Z</time>
</trkpt>
<trkpt lat="43.961021" lon="2.88633">
<ele>396.2</ele>
<time>2013-05-08T14:36:53.999Z</time>
</trkpt>
<trkpt lat="43.960976" lon="2.886179">
<ele>395.1</ele>
<time>2013-05-08T14:36:54.999Z</time>
</trkpt>
<trkpt lat="43.960911" lon="2.886056">
<ele>394.4</ele>
<time>2013-05-08T14:36:55.999Z</time>
</trkpt>
<trkpt lat="43.960847" lon="2.885941">
<ele>393.9</ele>
<time>2013-05-08T14:36:56.999Z</time>
</trkpt>
<trkpt lat="43.960781" lon="2.885842">
<ele>393.5</ele>
<time>2013-05-08T14:36:57.999Z</time>
</trkpt>
<trkpt lat="43.960703" lon="2.885735">
<ele>393.1</ele>
<time>2013-05-08T14:36:58.999Z</time>
</trkpt>
<trkpt lat="43.960624" lon="2.885626">
<ele>392.4</ele>
<time>2013-05-08T14:36:59.999Z</time>
</trkpt>
<trkpt lat="43.960563" lon="2.885506">
<ele>391.4</ele>
<time>2013-05-08T14:37:00.999Z</time>
</trkpt>
<trkpt lat="43.960508" lon="2.885398">
<ele>390.3</ele>
<time>2013-05-08T14:37:01.999Z</time>
</trkpt>
<trkpt lat="43.960459" lon="2.885311">
<ele>389.2</ele>
<time>2013-05-08T14:37:02.999Z</time>
</trkpt>
<trkpt lat="43.960398" lon="2.885261">
<ele>388.1</ele>
<time>2013-05-08T14:37:03.999Z</time>
</trkpt>
<trkpt lat="43.960329" lon="2.885216">
<ele>387.1</ele>
<time>2013-05-08T14:37:04.999Z</time>
</trkpt>
<trkpt lat="43.960246" lon="2.885196">
<ele>386.4</ele>
<time>2013-05-08T14:37:05.999Z</time>
</trkpt>
<trkpt lat="43.960157" lon="2.885181">
<ele>386.1</ele>
<time>2013-05-08T14:37:06.999Z</time>
</trkpt>
<trkpt lat="43.960072" lon="2.885178">
<ele>386.6</ele>
<time>2013-05-08T14:37:07.999Z</time>
</trkpt>
<trkpt lat="43.959998" lon="2.885184">
<ele>387.1</ele>
<time>2013-05-08T14:37:08.999Z</time>
</trkpt>
<trkpt lat="43.959936" lon="2.885217">
<ele>387.6</ele>
<time>2013-05-08T14:37:09.999Z</time>
</trkpt>
<trkpt lat="43.959878" lon="2.885245">
<ele>388.2</ele>
<time>2013-05-08T14:37:10.999Z</time>
</trkpt>
<trkpt lat="43.959823" lon="2.885272">
<ele>388.6</ele>
<time>2013-05-08T14:37:11.999Z</time>
</trkpt>
<trkpt lat="43.959769" lon="2.885299">
<ele>388.8</ele>
<time>2013-05-08T14:37:12.999Z</time>
</trkpt>
<trkpt lat="43.959717" lon="2.885325">
<ele>388.9</ele>
<time>2013-05-08T14:37:13.999Z</time>
</trkpt>
<trkpt lat="43.959662" lon="2.885355">
<ele>388.8</ele>
<time>2013-05-08T14:37:14.999Z</time>
</trkpt>
<trkpt lat="43.959608" lon="2.885391">
<ele>388.6</ele>
<time>2013-05-08T14:37:15.999Z</time>
</trkpt>
<trkpt lat="43.959556" lon="2.885435">
<ele>388.4</ele>
<time>2013-05-08T14:37:16.999Z</time>
</trkpt>
<trkpt lat="43.959506" lon="2.885486">
<ele>388.2</ele>
<time>2013-05-08T14:37:17.999Z</time>
</trkpt>
<trkpt lat="43.959471" lon="2.885554">
<ele>387.6</ele>
<time>2013-05-08T14:37:18.999Z</time>
</trkpt>
<trkpt lat="43.959434" lon="2.885626">
<ele>387.1</ele>
<time>2013-05-08T14:37:19.999Z</time>
</trkpt>
<trkpt lat="43.959391" lon="2.885706">
<ele>386.4</ele>
<time>2013-05-08T14:37:20.999Z</time>
</trkpt>
<trkpt lat="43.959349" lon="2.885782">
<ele>385.7</ele>
<time>2013-05-08T14:37:21.999Z</time>
</trkpt>
<trkpt lat="43.959304" lon="2.885854">
<ele>385</ele>
<time>2013-05-08T14:37:22.999Z</time>
</trkpt>
<trkpt lat="43.959259" lon="2.885928">
<ele>384.6</ele>
<time>2013-05-08T14:37:23.999Z</time>
</trkpt>
<trkpt lat="43.959224" lon="2.885994">
<ele>384.3</ele>
<time>2013-05-08T14:37:24.999Z</time>
</trkpt>
<trkpt lat="43.959195" lon="2.886055">
<ele>383.7</ele>
<time>2013-05-08T14:37:25.999Z</time>
</trkpt>
<trkpt lat="43.959165" lon="2.886122">
<ele>383.2</ele>
<time>2013-05-08T14:37:26.999Z</time>
</trkpt>
<trkpt lat="43.959143" lon="2.886178">
<ele>383.1</ele>
<time>2013-05-08T14:37:27.999Z</time>
</trkpt>
<trkpt lat="43.959112" lon="2.886244">
<ele>382.6</ele>
<time>2013-05-08T14:37:28.999Z</time>
</trkpt>
<trkpt lat="43.959085" lon="2.886309">
<ele>382.5</ele>
<time>2013-05-08T14:37:29.999Z</time>
</trkpt>
<trkpt lat="43.959055" lon="2.886387">
<ele>382.9</ele>
<time>2013-05-08T14:37:30.999Z</time>
</trkpt>
<trkpt lat="43.959014" lon="2.886468">
<ele>383.6</ele>
<time>2013-05-08T14:37:31.999Z</time>
</trkpt>
<trkpt lat="43.95896" lon="2.886535">
<ele>384.4</ele>
<time>2013-05-08T14:37:32.999Z</time>
</trkpt>
<trkpt lat="43.958911" lon="2.886578">
<ele>384.5</ele>
<time>2013-05-08T14:37:33.999Z</time>
</trkpt>
<trkpt lat="43.95887" lon="2.886603">
<ele>384.6</ele>
<time>2013-05-08T14:37:34.999Z</time>
</trkpt>
<trkpt lat="43.958837" lon="2.886618">
<ele>384.7</ele>
<time>2013-05-08T14:37:35.999Z</time>
</trkpt>
<trkpt lat="43.958796" lon="2.886622">
<ele>385.1</ele>
<time>2013-05-08T14:37:40.999Z</time>
</trkpt>
<trkpt lat="43.958779" lon="2.886616">
<ele>385.2</ele>
<time>2013-05-08T14:37:41.999Z</time>
</trkpt>
<trkpt lat="43.958764" lon="2.886598">
<ele>385.2</ele>
<time>2013-05-08T14:37:42.999Z</time>
</trkpt>
<trkpt lat="43.958743" lon="2.886574">
<ele>385.2</ele>
<time>2013-05-08T14:37:43.999Z</time>
</trkpt>
<trkpt lat="43.958718" lon="2.886542">
<ele>385.2</ele>
<time>2013-05-08T14:37:44.999Z</time>
</trkpt>
<trkpt lat="43.958696" lon="2.886498">
<ele>384.5</ele>
<time>2013-05-08T14:37:45.999Z</time>
</trkpt>
<trkpt lat="43.958675" lon="2.886439">
<ele>383.8</ele>
<time>2013-05-08T14:37:46.999Z</time>
</trkpt>
<trkpt lat="43.958653" lon="2.886372">
<ele>383.2</ele>
<time>2013-05-08T14:37:47.999Z</time>
</trkpt>
<trkpt lat="43.958632" lon="2.8863">
<ele>382.8</ele>
<time>2013-05-08T14:37:48.999Z</time>
</trkpt>
<trkpt lat="43.958621" lon="2.886217">
<ele>382.5</ele>
<time>2013-05-08T14:37:49.999Z</time>
</trkpt>
<trkpt lat="43.958618" lon="2.886134">
<ele>382.1</ele>
<time>2013-05-08T14:37:50.999Z</time>
</trkpt>
<trkpt lat="43.958616" lon="2.886044">
<ele>381.8</ele>
<time>2013-05-08T14:37:51.999Z</time>
</trkpt>
<trkpt lat="43.95861" lon="2.885957">
<ele>381.6</ele>
<time>2013-05-08T14:37:52.999Z</time>
</trkpt>
<trkpt lat="43.958596" lon="2.885872">
<ele>381.5</ele>
<time>2013-05-08T14:37:53.999Z</time>
</trkpt>
<trkpt lat="43.958581" lon="2.885783">
<ele>381.4</ele>
<time>2013-05-08T14:37:54.999Z</time>
</trkpt>
<trkpt lat="43.958569" lon="2.885695">
<ele>381.1</ele>
<time>2013-05-08T14:37:55.999Z</time>
</trkpt>
<trkpt lat="43.958559" lon="2.885604">
<ele>380.8</ele>
<time>2013-05-08T14:37:56.999Z</time>
</trkpt>
<trkpt lat="43.95855" lon="2.885509">
<ele>380.5</ele>
<time>2013-05-08T14:37:57.999Z</time>
</trkpt>
<trkpt lat="43.958539" lon="2.885418">
<ele>380</ele>
<time>2013-05-08T14:37:58.999Z</time>
</trkpt>
<trkpt lat="43.958526" lon="2.885315">
<ele>379.7</ele>
<time>2013-05-08T14:37:59.999Z</time>
</trkpt>
<trkpt lat="43.958512" lon="2.885211">
<ele>379.4</ele>
<time>2013-05-08T14:38:00.999Z</time>
</trkpt>
<trkpt lat="43.958491" lon="2.885109">
<ele>379.2</ele>
<time>2013-05-08T14:38:01.999Z</time>
</trkpt>
<trkpt lat="43.958464" lon="2.884991">
<ele>378.9</ele>
<time>2013-05-08T14:38:02.999Z</time>
</trkpt>
<trkpt lat="43.958436" lon="2.884851">
<ele>378.8</ele>
<time>2013-05-08T14:38:03.999Z</time>
</trkpt>
<trkpt lat="43.958409" lon="2.884719">
<ele>378.8</ele>
<time>2013-05-08T14:38:04.999Z</time>
</trkpt>
<trkpt lat="43.958382" lon="2.884609">
<ele>378.8</ele>
<time>2013-05-08T14:38:05.999Z</time>
</trkpt>
<trkpt lat="43.958358" lon="2.88452">
<ele>378.7</ele>
<time>2013-05-08T14:38:06.999Z</time>
</trkpt>
<trkpt lat="43.958343" lon="2.88445">
<ele>378.7</ele>
<time>2013-05-08T14:38:07.999Z</time>
</trkpt>
<trkpt lat="43.958328" lon="2.884405">
<ele>378.7</ele>
<time>2013-05-08T14:38:08.999Z</time>
</trkpt>
<trkpt lat="43.958315" lon="2.884367">
<ele>378.7</ele>
<time>2013-05-08T14:38:09.999Z</time>
</trkpt>
<trkpt lat="43.958303" lon="2.884326">
<ele>378.7</ele>
<time>2013-05-08T14:38:10.999Z</time>
</trkpt>
<trkpt lat="43.958289" lon="2.884279">
<ele>378.7</ele>
<time>2013-05-08T14:38:11.999Z</time>
</trkpt>
<trkpt lat="43.958273" lon="2.884236">
<ele>378.7</ele>
<time>2013-05-08T14:38:12.999Z</time>
</trkpt>
<trkpt lat="43.958256" lon="2.884193">
<ele>378.8</ele>
<time>2013-05-08T14:38:13.999Z</time>
</trkpt>
<trkpt lat="43.95824" lon="2.884149">
<ele>378.8</ele>
<time>2013-05-08T14:38:14.999Z</time>
</trkpt>
<trkpt lat="43.958225" lon="2.884103">
<ele>378.7</ele>
<time>2013-05-08T14:38:15.999Z</time>
</trkpt>
<trkpt lat="43.958212" lon="2.884063">
<ele>378.7</ele>
<time>2013-05-08T14:38:16.999Z</time>
</trkpt>
<trkpt lat="43.958205" lon="2.884032">
<ele>378.7</ele>
<time>2013-05-08T14:38:17.999Z</time>
</trkpt>
<trkpt lat="43.958187" lon="2.883981">
<ele>378.6</ele>
<time>2013-05-08T14:38:20.999Z</time>
</trkpt>
<trkpt lat="43.95818" lon="2.883967">
<ele>378.6</ele>
<time>2013-05-08T14:38:21.999Z</time>
</trkpt>
<trkpt lat="43.958174" lon="2.883931">
<ele>378.5</ele>
<time>2013-05-08T14:38:23.999Z</time>
</trkpt>
<trkpt lat="43.95817" lon="2.883902">
<ele>378.5</ele>
<time>2013-05-08T14:38:24.999Z</time>
</trkpt>
<trkpt lat="43.958163" lon="2.88386">
<ele>378.4</ele>
<time>2013-05-08T14:38:25.999Z</time>
</trkpt>
<trkpt lat="43.958154" lon="2.883811">
<ele>378.4</ele>
<time>2013-05-08T14:38:26.999Z</time>
</trkpt>
<trkpt lat="43.958147" lon="2.883764">
<ele>378.3</ele>
<time>2013-05-08T14:38:27.999Z</time>
</trkpt>
<trkpt lat="43.95814" lon="2.883717">
<ele>378.3</ele>
<time>2013-05-08T14:38:28.999Z</time>
</trkpt>
<trkpt lat="43.958132" lon="2.88367">
<ele>378.2</ele>
<time>2013-05-08T14:38:29.999Z</time>
</trkpt>
<trkpt lat="43.958125" lon="2.883625">
<ele>378.2</ele>
<time>2013-05-08T14:38:30.999Z</time>
</trkpt>
<trkpt lat="43.958118" lon="2.883578">
<ele>378.1</ele>
<time>2013-05-08T14:38:31.999Z</time>
</trkpt>
<trkpt lat="43.958111" lon="2.883527">
<ele>378.1</ele>
<time>2013-05-08T14:38:32.999Z</time>
</trkpt>
<trkpt lat="43.958104" lon="2.883478">
<ele>378</ele>
<time>2013-05-08T14:38:33.999Z</time>
</trkpt>
<trkpt lat="43.958097" lon="2.883423">
<ele>377.9</ele>
<time>2013-05-08T14:38:34.999Z</time>
</trkpt>
<trkpt lat="43.958089" lon="2.883366">
<ele>377.8</ele>
<time>2013-05-08T14:38:35.999Z</time>
</trkpt>
<trkpt lat="43.958083" lon="2.883314">
<ele>377.8</ele>
<time>2013-05-08T14:38:36.999Z</time>
</trkpt>
<trkpt lat="43.958078" lon="2.883267">
<ele>377.7</ele>
<time>2013-05-08T14:38:37.999Z</time>
</trkpt>
<trkpt lat="43.958075" lon="2.883228">
<ele>377.7</ele>
<time>2013-05-08T14:38:38.999Z</time>
</trkpt>
<trkpt lat="43.958071" lon="2.883194">
<ele>377.7</ele>
<time>2013-05-08T14:38:39.999Z</time>
</trkpt>
<trkpt lat="43.958069" lon="2.883161">
<ele>377.6</ele>
<time>2013-05-08T14:38:40.999Z</time>
</trkpt>
<trkpt lat="43.958061" lon="2.883103">
<ele>377.5</ele>
<time>2013-05-08T14:38:42.999Z</time>
</trkpt>
<trkpt lat="43.958058" lon="2.883083">
<ele>377.5</ele>
<time>2013-05-08T14:38:43.999Z</time>
</trkpt>
<trkpt lat="43.958029" lon="2.883078">
<ele>376.1</ele>
<time>2013-05-08T14:40:47.999Z</time>
</trkpt>
<trkpt lat="43.958009" lon="2.8831">
<ele>376.1</ele>
<time>2013-05-08T14:40:48.999Z</time>
</trkpt>
<trkpt lat="43.957985" lon="2.883123">
<ele>376.1</ele>
<time>2013-05-08T14:40:49.999Z</time>
</trkpt>
<trkpt lat="43.957958" lon="2.883129">
<ele>376.1</ele>
<time>2013-05-08T14:40:50.999Z</time>
</trkpt>
<trkpt lat="43.957923" lon="2.883137">
<ele>376.5</ele>
<time>2013-05-08T14:41:04.999Z</time>
</trkpt>
<trkpt lat="43.957891" lon="2.883198">
<ele>376.5</ele>
<time>2013-05-08T14:41:05.999Z</time>
</trkpt>
<trkpt lat="43.957891" lon="2.883198">
<ele>376.5</ele>
<time>2013-05-08T14:41:57.999Z</time>
</trkpt>
<trkpt lat="43.957964" lon="2.883253">
<ele>376.5</ele>
<time>2013-05-08T14:41:58.999Z</time>
</trkpt>
<trkpt lat="43.957964" lon="2.883253">
<ele>376</ele>
<time>2013-05-08T14:42:12.999Z</time>
</trkpt>
<trkpt lat="43.958023" lon="2.883398">
<ele>376</ele>
<time>2013-05-08T14:42:13.999Z</time>
</trkpt>
<trkpt lat="43.958023" lon="2.883398">
<ele>375.8</ele>
<time>2013-05-08T14:42:35.999Z</time>
</trkpt>
<trkpt lat="43.958081" lon="2.8835">
<ele>375.7</ele>
<time>2013-05-08T14:42:36.999Z</time>
</trkpt>
<trkpt lat="43.958081" lon="2.8835">
<ele>375.1</ele>
<time>2013-05-08T14:43:06.999Z</time>
</trkpt>
<trkpt lat="43.958008" lon="2.883472">
<ele>375</ele>
<time>2013-05-08T14:43:07.999Z</time>
</trkpt>
<trkpt lat="43.958043" lon="2.883493">
<ele>374.9</ele>
<time>2013-05-08T14:44:22.999Z</time>
</trkpt>
<trkpt lat="43.958051" lon="2.88349">
<ele>375</ele>
<time>2013-05-08T14:44:23.999Z</time>
</trkpt>
<trkpt lat="43.958088" lon="2.883482">
<ele>374.5</ele>
<time>2013-05-08T14:44:50.999Z</time>
</trkpt>
<trkpt lat="43.958097" lon="2.883479">
<ele>374.3</ele>
<time>2013-05-08T14:44:51.999Z</time>
</trkpt>
<trkpt lat="43.958139" lon="2.883477">
<ele>374</ele>
<time>2013-05-08T14:45:01.999Z</time>
</trkpt>
<trkpt lat="43.958145" lon="2.883482">
<ele>374</ele>
<time>2013-05-08T14:45:02.999Z</time>
</trkpt>
<trkpt lat="43.958167" lon="2.883507">
<ele>374.4</ele>
<time>2013-05-08T14:47:04.999Z</time>
</trkpt>
<trkpt lat="43.958083" lon="2.883725">
<ele>374.4</ele>
<time>2013-05-08T14:47:11.999Z</time>
</trkpt>
<trkpt lat="43.958098" lon="2.883667">
<ele>374.3</ele>
<time>2013-05-08T14:47:13.999Z</time>
</trkpt>
<trkpt lat="43.958095" lon="2.883656">
<ele>374.3</ele>
<time>2013-05-08T14:47:14.999Z</time>
</trkpt>
<trkpt lat="43.958113" lon="2.8836">
<ele>374.2</ele>
<time>2013-05-08T14:47:20.999Z</time>
</trkpt>
<trkpt lat="43.958125" lon="2.883588">
<ele>374.1</ele>
<time>2013-05-08T14:47:21.999Z</time>
</trkpt>
<trkpt lat="43.958152" lon="2.883556">
<ele>374.1</ele>
<time>2013-05-08T14:47:25.999Z</time>
</trkpt>
<trkpt lat="43.958159" lon="2.883545">
<ele>374</ele>
<time>2013-05-08T14:47:26.999Z</time>
</trkpt>
<trkpt lat="43.958201" lon="2.883533">
<ele>373.2</ele>
<time>2013-05-08T14:47:40.999Z</time>
</trkpt>
<trkpt lat="43.958205" lon="2.883529">
<ele>373.1</ele>
<time>2013-05-08T14:47:41.999Z</time>
</trkpt>
<trkpt lat="43.95821" lon="2.883519">
<ele>373</ele>
<time>2013-05-08T14:47:46.999Z</time>
</trkpt>
<trkpt lat="43.958096" lon="2.883539">
<ele>385.8</ele>
<time>2013-05-08T14:50:55.999Z</time>
</trkpt>
<trkpt lat="43.958085" lon="2.883493">
<ele>385.8</ele>
<time>2013-05-08T14:51:19.999Z</time>
</trkpt>
<trkpt lat="43.957968" lon="2.883746">
<ele>385.7</ele>
<time>2013-05-08T14:51:41.999Z</time>
</trkpt>
<trkpt lat="43.957956" lon="2.883728">
<ele>385.7</ele>
<time>2013-05-08T14:51:44.999Z</time>
</trkpt>
<trkpt lat="43.958037" lon="2.883352">
<ele>385.8</ele>
<time>2013-05-08T14:52:00.999Z</time>
</trkpt>
<trkpt lat="43.958041" lon="2.88329">
<ele>385.8</ele>
<time>2013-05-08T14:52:05.999Z</time>
</trkpt>
<trkpt lat="43.957991" lon="2.883343">
<ele>385.3</ele>
<time>2013-05-08T14:53:11.999Z</time>
</trkpt>
<trkpt lat="43.957995" lon="2.883347">
<ele>385.2</ele>
<time>2013-05-08T14:53:31.000Z</time>
</trkpt>
<trkpt lat="43.958087" lon="2.883523">
<ele>366.9</ele>
<time>2013-05-08T14:54:10.000Z</time>
</trkpt>
<trkpt lat="43.958122" lon="2.883559">
<ele>367.7</ele>
<time>2013-05-08T14:54:31.000Z</time>
</trkpt>
<trkpt lat="43.958133" lon="2.883567">
<ele>367.8</ele>
<time>2013-05-08T14:54:32.000Z</time>
</trkpt>
<trkpt lat="43.958171" lon="2.883546">
<ele>364.7</ele>
<time>2013-05-08T14:55:23.000Z</time>
</trkpt>
<trkpt lat="43.958176" lon="2.883532">
<ele>364.6</ele>
<time>2013-05-08T14:55:24.000Z</time>
</trkpt>
<trkpt lat="43.958191" lon="2.883481">
<ele>364.7</ele>
<time>2013-05-08T14:55:29.000Z</time>
</trkpt>
<trkpt lat="43.958202" lon="2.88345">
<ele>364.7</ele>
<time>2013-05-08T14:55:30.000Z</time>
</trkpt>
<trkpt lat="43.958207" lon="2.883454">
<ele>365</ele>
<time>2013-05-08T14:56:08.000Z</time>
</trkpt>
<trkpt lat="43.957957" lon="2.883424">
<ele>372.7</ele>
<time>2013-05-08T14:57:59.000Z</time>
</trkpt>
<trkpt lat="43.957952" lon="2.88344">
<ele>372.7</ele>
<time>2013-05-08T14:58:00.000Z</time>
</trkpt>
<trkpt lat="43.957946" lon="2.883487">
<ele>372.7</ele>
<time>2013-05-08T14:58:01.000Z</time>
</trkpt>
<trkpt lat="43.957941" lon="2.883548">
<ele>372.7</ele>
<time>2013-05-08T14:58:06.000Z</time>
</trkpt>
<trkpt lat="43.957946" lon="2.883574">
<ele>372.7</ele>
<time>2013-05-08T14:58:07.000Z</time>
</trkpt>
<trkpt lat="43.957968" lon="2.883594">
<ele>372.8</ele>
<time>2013-05-08T14:58:11.000Z</time>
</trkpt>
<trkpt lat="43.958045" lon="2.88355">
<ele>372.7</ele>
<time>2013-05-08T14:58:38.000Z</time>
</trkpt>
<trkpt lat="43.958062" lon="2.883506">
<ele>372.7</ele>
<time>2013-05-08T14:58:40.000Z</time>
</trkpt>
<trkpt lat="43.958084" lon="2.883503">
<ele>372.7</ele>
<time>2013-05-08T14:58:41.000Z</time>
</trkpt>
<trkpt lat="43.958115" lon="2.883464">
<ele>373.2</ele>
<time>2013-05-08T14:59:00.000Z</time>
</trkpt>
<trkpt lat="43.958119" lon="2.883461">
<ele>373.3</ele>
<time>2013-05-08T14:59:01.000Z</time>
</trkpt>
<trkpt lat="43.95813" lon="2.883514">
<ele>374.3</ele>
<time>2013-05-08T15:00:39.000Z</time>
</trkpt>
<trkpt lat="43.958134" lon="2.883526">
<ele>374.3</ele>
<time>2013-05-08T15:00:40.000Z</time>
</trkpt>
<trkpt lat="43.958103" lon="2.883523">
<ele>374.2</ele>
<time>2013-05-08T15:01:12.000Z</time>
</trkpt>
<trkpt lat="43.958081" lon="2.883491">
<ele>374.3</ele>
<time>2013-05-08T15:01:14.000Z</time>
</trkpt>
<trkpt lat="43.95805" lon="2.883494">
<ele>374.6</ele>
<time>2013-05-08T15:01:28.000Z</time>
</trkpt>
<trkpt lat="43.958019" lon="2.883538">
<ele>375</ele>
<time>2013-05-08T15:01:37.000Z</time>
</trkpt>
<trkpt lat="43.958024" lon="2.883486">
<ele>375.1</ele>
<time>2013-05-08T15:01:40.000Z</time>
</trkpt>
<trkpt lat="43.958032" lon="2.883477">
<ele>375.2</ele>
<time>2013-05-08T15:01:41.000Z</time>
</trkpt>
<trkpt lat="43.958072" lon="2.883464">
<ele>375.4</ele>
<time>2013-05-08T15:01:45.000Z</time>
</trkpt>
<trkpt lat="43.958081" lon="2.88347">
<ele>375.4</ele>
<time>2013-05-08T15:01:46.000Z</time>
</trkpt>
<trkpt lat="43.958113" lon="2.883502">
<ele>375.6</ele>
<time>2013-05-08T15:01:50.000Z</time>
</trkpt>
<trkpt lat="43.958118" lon="2.883505">
<ele>375.6</ele>
<time>2013-05-08T15:01:51.000Z</time>
</trkpt>
<trkpt lat="43.95814" lon="2.883454">
<ele>377</ele>
<time>2013-05-08T15:03:51.000Z</time>
</trkpt>
<trkpt lat="43.958146" lon="2.88344">
<ele>377.2</ele>
<time>2013-05-08T15:03:52.000Z</time>
</trkpt>
<trkpt lat="43.958106" lon="2.883455">
<ele>378.5</ele>
<time>2013-05-08T15:04:54.000Z</time>
</trkpt>
<trkpt lat="43.958109" lon="2.883486">
<ele>378.6</ele>
<time>2013-05-08T15:04:55.000Z</time>
</trkpt>
<trkpt lat="43.958142" lon="2.883447">
<ele>380</ele>
<time>2013-05-08T15:06:51.000Z</time>
</trkpt>
<trkpt lat="43.958146" lon="2.88343">
<ele>380</ele>
<time>2013-05-08T15:06:52.000Z</time>
</trkpt>
<trkpt lat="43.958132" lon="2.883481">
<ele>380.3</ele>
<time>2013-05-08T15:07:55.000Z</time>
</trkpt>
<trkpt lat="43.958129" lon="2.883488">
<ele>380.3</ele>
<time>2013-05-08T15:07:56.000Z</time>
</trkpt>
<trkpt lat="43.958094" lon="2.883523">
<ele>380.9</ele>
<time>2013-05-08T15:08:02.000Z</time>
</trkpt>
<trkpt lat="43.958088" lon="2.883524">
<ele>381.2</ele>
<time>2013-05-08T15:08:03.000Z</time>
</trkpt>
<trkpt lat="43.958105" lon="2.88348">
<ele>379.4</ele>
<time>2013-05-08T15:10:04.000Z</time>
</trkpt>
<trkpt lat="43.958108" lon="2.883465">
<ele>379.4</ele>
<time>2013-05-08T15:10:05.000Z</time>
</trkpt>
<trkpt lat="43.958108" lon="2.883526">
<ele>378.4</ele>
<time>2013-05-08T15:11:33.000Z</time>
</trkpt>
<trkpt lat="43.958111" lon="2.883528">
<ele>378.4</ele>
<time>2013-05-08T15:11:34.000Z</time>
</trkpt>
<trkpt lat="43.958107" lon="2.883466">
<ele>377.7</ele>
<time>2013-05-08T15:12:02.000Z</time>
</trkpt>
<trkpt lat="43.958105" lon="2.883462">
<ele>377.7</ele>
<time>2013-05-08T15:12:03.000Z</time>
</trkpt>
<trkpt lat="43.958119" lon="2.883518">
<ele>375.4</ele>
<time>2013-05-08T15:13:05.000Z</time>
</trkpt>
<trkpt lat="43.958115" lon="2.883527">
<ele>375.1</ele>
<time>2013-05-08T15:13:06.000Z</time>
</trkpt>
<trkpt lat="43.958098" lon="2.88348">
<ele>368.3</ele>
<time>2013-05-08T15:16:10.000Z</time>
</trkpt>
<trkpt lat="43.958093" lon="2.883469">
<ele>368.3</ele>
<time>2013-05-08T15:16:11.000Z</time>
</trkpt>
<trkpt lat="43.958074" lon="2.883415">
<ele>368.2</ele>
<time>2013-05-08T15:16:25.000Z</time>
</trkpt>
<trkpt lat="43.958073" lon="2.883412">
<ele>368.2</ele>
<time>2013-05-08T15:16:26.000Z</time>
</trkpt>
<trkpt lat="43.958074" lon="2.883473">
<ele>365.8</ele>
<time>2013-05-08T15:17:10.000Z</time>
</trkpt>
<trkpt lat="43.958076" lon="2.88348">
<ele>365.8</ele>
<time>2013-05-08T15:17:11.000Z</time>
</trkpt>
<trkpt lat="43.958091" lon="2.883536">
<ele>366</ele>
<time>2013-05-08T15:19:32.000Z</time>
</trkpt>
<trkpt lat="43.958094" lon="2.883537">
<ele>366</ele>
<time>2013-05-08T15:19:33.000Z</time>
</trkpt>
<trkpt lat="43.958092" lon="2.883479">
<ele>368.1</ele>
<time>2013-05-08T15:20:26.000Z</time>
</trkpt>
<trkpt lat="43.958091" lon="2.883463">
<ele>368.3</ele>
<time>2013-05-08T15:20:27.000Z</time>
</trkpt>
<trkpt lat="43.958084" lon="2.883402">
<ele>369</ele>
<time>2013-05-08T15:20:30.000Z</time>
</trkpt>
<trkpt lat="43.958082" lon="2.883385">
<ele>369.2</ele>
<time>2013-05-08T15:20:31.000Z</time>
</trkpt>
<trkpt lat="43.958051" lon="2.883363">
<ele>370.2</ele>
<time>2013-05-08T15:20:35.000Z</time>
</trkpt>
<trkpt lat="43.958039" lon="2.883357">
<ele>370.3</ele>
<time>2013-05-08T15:20:36.000Z</time>
</trkpt>
<trkpt lat="43.958" lon="2.883332">
<ele>371.1</ele>
<time>2013-05-08T15:20:40.000Z</time>
</trkpt>
<trkpt lat="43.95799" lon="2.883328">
<ele>371.4</ele>
<time>2013-05-08T15:20:41.000Z</time>
</trkpt>
<trkpt lat="43.957947" lon="2.883317">
<ele>373.5</ele>
<time>2013-05-08T15:20:48.000Z</time>
</trkpt>
<trkpt lat="43.957938" lon="2.883312">
<ele>373.9</ele>
<time>2013-05-08T15:20:49.000Z</time>
</trkpt>
<trkpt lat="43.957908" lon="2.883273">
<ele>374.8</ele>
<time>2013-05-08T15:20:53.000Z</time>
</trkpt>
<trkpt lat="43.957903" lon="2.883257">
<ele>375</ele>
<time>2013-05-08T15:20:54.000Z</time>
</trkpt>
<trkpt lat="43.957891" lon="2.883205">
<ele>375.8</ele>
<time>2013-05-08T15:21:09.000Z</time>
</trkpt>
<trkpt lat="43.957885" lon="2.883198">
<ele>375.8</ele>
<time>2013-05-08T15:21:10.000Z</time>
</trkpt>
<trkpt lat="43.957878" lon="2.883254">
<ele>376.4</ele>
<time>2013-05-08T15:22:27.000Z</time>
</trkpt>
<trkpt lat="43.957872" lon="2.883261">
<ele>376.4</ele>
<time>2013-05-08T15:22:28.000Z</time>
</trkpt>
<trkpt lat="43.957912" lon="2.88324">
<ele>376.6</ele>
<time>2013-05-08T15:23:03.000Z</time>
</trkpt>
<trkpt lat="43.957919" lon="2.88324">
<ele>376.6</ele>
<time>2013-05-08T15:23:04.000Z</time>
</trkpt>
<trkpt lat="43.957878" lon="2.883219">
<ele>376.5</ele>
<time>2013-05-08T15:23:18.000Z</time>
</trkpt>
<trkpt lat="43.957875" lon="2.883206">
<ele>376.4</ele>
<time>2013-05-08T15:23:19.000Z</time>
</trkpt>
<trkpt lat="43.957877" lon="2.883166">
<ele>376.4</ele>
<time>2013-05-08T15:23:21.000Z</time>
</trkpt>
<trkpt lat="43.957884" lon="2.88314">
<ele>376.4</ele>
<time>2013-05-08T15:23:22.000Z</time>
</trkpt>
<trkpt lat="43.957887" lon="2.883116">
<ele>376.4</ele>
<time>2013-05-08T15:23:23.000Z</time>
</trkpt>
<trkpt lat="43.957882" lon="2.883076">
<ele>376.5</ele>
<time>2013-05-08T15:23:24.000Z</time>
</trkpt>
<trkpt lat="43.957921" lon="2.883061">
<ele>377.3</ele>
<time>2013-05-08T15:23:42.000Z</time>
</trkpt>
<trkpt lat="43.957929" lon="2.883058">
<ele>377.3</ele>
<time>2013-05-08T15:23:43.000Z</time>
</trkpt>
<trkpt lat="43.957965" lon="2.883027">
<ele>377.5</ele>
<time>2013-05-08T15:23:52.000Z</time>
</trkpt>
<trkpt lat="43.957969" lon="2.883021">
<ele>377.6</ele>
<time>2013-05-08T15:23:53.000Z</time>
</trkpt>
<trkpt lat="43.958008" lon="2.882996">
<ele>378.2</ele>
<time>2013-05-08T15:24:05.000Z</time>
</trkpt>
<trkpt lat="43.958013" lon="2.882995">
<ele>378.2</ele>
<time>2013-05-08T15:24:06.000Z</time>
</trkpt>
<trkpt lat="43.95805" lon="2.882968">
<ele>378.3</ele>
<time>2013-05-08T15:24:14.000Z</time>
</trkpt>
<trkpt lat="43.958052" lon="2.882964">
<ele>378.3</ele>
<time>2013-05-08T15:24:15.000Z</time>
</trkpt>
<trkpt lat="43.958077" lon="2.88293">
<ele>378.6</ele>
<time>2013-05-08T15:24:29.000Z</time>
</trkpt>
<trkpt lat="43.95807" lon="2.882888">
<ele>378.6</ele>
<time>2013-05-08T15:24:30.000Z</time>
</trkpt>
<trkpt lat="43.958062" lon="2.882827">
<ele>378.8</ele>
<time>2013-05-08T15:24:31.000Z</time>
</trkpt>
<trkpt lat="43.958049" lon="2.88278">
<ele>378.8</ele>
<time>2013-05-08T15:24:32.000Z</time>
</trkpt>
<trkpt lat="43.958038" lon="2.882736">
<ele>378.8</ele>
<time>2013-05-08T15:24:33.000Z</time>
</trkpt>
<trkpt lat="43.958031" lon="2.882695">
<ele>378.7</ele>
<time>2013-05-08T15:24:34.000Z</time>
</trkpt>
<trkpt lat="43.958028" lon="2.882653">
<ele>378.7</ele>
<time>2013-05-08T15:24:35.000Z</time>
</trkpt>
<trkpt lat="43.958017" lon="2.88261">
<ele>378.7</ele>
<time>2013-05-08T15:24:36.000Z</time>
</trkpt>
<trkpt lat="43.958003" lon="2.88255">
<ele>378.2</ele>
<time>2013-05-08T15:24:37.000Z</time>
</trkpt>
<trkpt lat="43.957986" lon="2.882485">
<ele>377.9</ele>
<time>2013-05-08T15:24:38.000Z</time>
</trkpt>
<trkpt lat="43.957971" lon="2.882421">
<ele>377.9</ele>
<time>2013-05-08T15:24:39.000Z</time>
</trkpt>
<trkpt lat="43.957957" lon="2.882351">
<ele>378.1</ele>
<time>2013-05-08T15:24:39.999Z</time>
</trkpt>
<trkpt lat="43.957949" lon="2.882294">
<ele>378.3</ele>
<time>2013-05-08T15:24:40.999Z</time>
</trkpt>
<trkpt lat="43.95794" lon="2.882239">
<ele>378.3</ele>
<time>2013-05-08T15:24:41.999Z</time>
</trkpt>
<trkpt lat="43.957932" lon="2.882197">
<ele>378.3</ele>
<time>2013-05-08T15:24:42.999Z</time>
</trkpt>
<trkpt lat="43.957919" lon="2.882153">
<ele>378.2</ele>
<time>2013-05-08T15:24:43.999Z</time>
</trkpt>
<trkpt lat="43.957903" lon="2.882104">
<ele>378.2</ele>
<time>2013-05-08T15:24:44.999Z</time>
</trkpt>
<trkpt lat="43.957894" lon="2.882055">
<ele>378.1</ele>
<time>2013-05-08T15:24:45.999Z</time>
</trkpt>
<trkpt lat="43.957884" lon="2.881997">
<ele>378.1</ele>
<time>2013-05-08T15:24:46.999Z</time>
</trkpt>
<trkpt lat="43.957883" lon="2.881939">
<ele>378</ele>
<time>2013-05-08T15:24:47.999Z</time>
</trkpt>
<trkpt lat="43.957876" lon="2.881876">
<ele>377.4</ele>
<time>2013-05-08T15:24:48.999Z</time>
</trkpt>
<trkpt lat="43.957869" lon="2.881799">
<ele>376.8</ele>
<time>2013-05-08T15:24:49.999Z</time>
</trkpt>
<trkpt lat="43.957861" lon="2.881721">
<ele>376.4</ele>
<time>2013-05-08T15:24:50.999Z</time>
</trkpt>
<trkpt lat="43.957843" lon="2.881648">
<ele>375.8</ele>
<time>2013-05-08T15:24:51.999Z</time>
</trkpt>
<trkpt lat="43.957822" lon="2.881569">
<ele>375.1</ele>
<time>2013-05-08T15:24:52.999Z</time>
</trkpt>
<trkpt lat="43.957796" lon="2.881485">
<ele>374.4</ele>
<time>2013-05-08T15:24:53.999Z</time>
</trkpt>
<trkpt lat="43.957766" lon="2.881413">
<ele>374</ele>
<time>2013-05-08T15:24:54.999Z</time>
</trkpt>
<trkpt lat="43.95773" lon="2.881347">
<ele>373.9</ele>
<time>2013-05-08T15:24:55.999Z</time>
</trkpt>
<trkpt lat="43.957707" lon="2.88132">
<ele>373.9</ele>
<time>2013-05-08T15:24:56.999Z</time>
</trkpt>
<trkpt lat="43.95769" lon="2.881306">
<ele>373.9</ele>
<time>2013-05-08T15:24:57.999Z</time>
</trkpt>
<trkpt lat="43.957664" lon="2.881255">
<ele>373.8</ele>
<time>2013-05-08T15:25:00.999Z</time>
</trkpt>
<trkpt lat="43.957648" lon="2.881226">
<ele>373.9</ele>
<time>2013-05-08T15:25:01.999Z</time>
</trkpt>
<trkpt lat="43.957634" lon="2.881167">
<ele>375</ele>
<time>2013-05-08T15:25:02.999Z</time>
</trkpt>
<trkpt lat="43.957617" lon="2.88108">
<ele>375.7</ele>
<time>2013-05-08T15:25:03.999Z</time>
</trkpt>
<trkpt lat="43.957595" lon="2.880978">
<ele>376.2</ele>
<time>2013-05-08T15:25:04.999Z</time>
</trkpt>
<trkpt lat="43.957578" lon="2.880858">
<ele>376.2</ele>
<time>2013-05-08T15:25:05.999Z</time>
</trkpt>
<trkpt lat="43.957541" lon="2.880681">
<ele>376</ele>
<time>2013-05-08T15:25:06.999Z</time>
</trkpt>
<trkpt lat="43.957509" lon="2.880488">
<ele>376</ele>
<time>2013-05-08T15:25:07.999Z</time>
</trkpt>
<trkpt lat="43.957482" lon="2.880292">
<ele>375.6</ele>
<time>2013-05-08T15:25:08.999Z</time>
</trkpt>
<trkpt lat="43.957447" lon="2.880105">
<ele>375.2</ele>
<time>2013-05-08T15:25:09.999Z</time>
</trkpt>
<trkpt lat="43.95741" lon="2.879929">
<ele>375</ele>
<time>2013-05-08T15:25:10.999Z</time>
</trkpt>
<trkpt lat="43.957373" lon="2.879754">
<ele>375</ele>
<time>2013-05-08T15:25:11.999Z</time>
</trkpt>
<trkpt lat="43.957329" lon="2.879562">
<ele>375.3</ele>
<time>2013-05-08T15:25:12.999Z</time>
</trkpt>
<trkpt lat="43.957283" lon="2.879372">
<ele>374.8</ele>
<time>2013-05-08T15:25:13.999Z</time>
</trkpt>
<trkpt lat="43.957236" lon="2.879167">
<ele>373.6</ele>
<time>2013-05-08T15:25:14.999Z</time>
</trkpt>
<trkpt lat="43.957192" lon="2.878962">
<ele>372.8</ele>
<time>2013-05-08T15:25:15.999Z</time>
</trkpt>
<trkpt lat="43.957143" lon="2.878764">
<ele>372.4</ele>
<time>2013-05-08T15:25:16.999Z</time>
</trkpt>
<trkpt lat="43.957115" lon="2.8786">
<ele>371.3</ele>
<time>2013-05-08T15:25:17.999Z</time>
</trkpt>
<trkpt lat="43.957092" lon="2.878455">
<ele>370.5</ele>
<time>2013-05-08T15:25:18.999Z</time>
</trkpt>
<trkpt lat="43.95707" lon="2.878332">
<ele>369.9</ele>
<time>2013-05-08T15:25:19.999Z</time>
</trkpt>
<trkpt lat="43.957054" lon="2.878229">
<ele>369.8</ele>
<time>2013-05-08T15:25:20.999Z</time>
</trkpt>
<trkpt lat="43.957044" lon="2.878143">
<ele>369.8</ele>
<time>2013-05-08T15:25:21.999Z</time>
</trkpt>
<trkpt lat="43.957038" lon="2.878081">
<ele>369.7</ele>
<time>2013-05-08T15:25:22.999Z</time>
</trkpt>
<trkpt lat="43.957036" lon="2.878029">
<ele>369.9</ele>
<time>2013-05-08T15:25:23.999Z</time>
</trkpt>
<trkpt lat="43.957034" lon="2.877989">
<ele>369.9</ele>
<time>2013-05-08T15:25:24.999Z</time>
</trkpt>
<trkpt lat="43.95703" lon="2.877952">
<ele>370</ele>
<time>2013-05-08T15:25:25.999Z</time>
</trkpt>
<trkpt lat="43.957032" lon="2.877932">
<ele>370.3</ele>
<time>2013-05-08T15:25:37.999Z</time>
</trkpt>
<trkpt lat="43.957034" lon="2.877875">
<ele>370.4</ele>
<time>2013-05-08T15:25:38.999Z</time>
</trkpt>
<trkpt lat="43.957034" lon="2.877822">
<ele>371.9</ele>
<time>2013-05-08T15:25:39.999Z</time>
</trkpt>
<trkpt lat="43.957035" lon="2.877748">
<ele>373.1</ele>
<time>2013-05-08T15:25:40.999Z</time>
</trkpt>
<trkpt lat="43.957038" lon="2.877655">
<ele>374.3</ele>
<time>2013-05-08T15:25:41.999Z</time>
</trkpt>
<trkpt lat="43.957041" lon="2.877557">
<ele>375.1</ele>
<time>2013-05-08T15:25:42.999Z</time>
</trkpt>
<trkpt lat="43.957044" lon="2.877458">
<ele>375.7</ele>
<time>2013-05-08T15:25:43.999Z</time>
</trkpt>
<trkpt lat="43.957045" lon="2.877356">
<ele>375.8</ele>
<time>2013-05-08T15:25:44.999Z</time>
</trkpt>
<trkpt lat="43.957044" lon="2.877246">
<ele>375.7</ele>
<time>2013-05-08T15:25:45.999Z</time>
</trkpt>
<trkpt lat="43.957048" lon="2.877129">
<ele>375.7</ele>
<time>2013-05-08T15:25:46.999Z</time>
</trkpt>
<trkpt lat="43.957051" lon="2.877009">
<ele>375.7</ele>
<time>2013-05-08T15:25:47.999Z</time>
</trkpt>
<trkpt lat="43.957057" lon="2.876885">
<ele>375.7</ele>
<time>2013-05-08T15:25:48.999Z</time>
</trkpt>
<trkpt lat="43.957069" lon="2.876749">
<ele>375.7</ele>
<time>2013-05-08T15:25:49.999Z</time>
</trkpt>
<trkpt lat="43.957079" lon="2.876614">
<ele>375.7</ele>
<time>2013-05-08T15:25:50.999Z</time>
</trkpt>
<trkpt lat="43.957092" lon="2.876478">
<ele>375.6</ele>
<time>2013-05-08T15:25:51.999Z</time>
</trkpt>
<trkpt lat="43.957096" lon="2.876345">
<ele>375.6</ele>
<time>2013-05-08T15:25:52.999Z</time>
</trkpt>
<trkpt lat="43.957105" lon="2.87621">
<ele>375.7</ele>
<time>2013-05-08T15:25:53.999Z</time>
</trkpt>
<trkpt lat="43.957116" lon="2.87607">
<ele>374.7</ele>
<time>2013-05-08T15:25:54.999Z</time>
</trkpt>
<trkpt lat="43.957132" lon="2.87592">
<ele>374.1</ele>
<time>2013-05-08T15:25:55.999Z</time>
</trkpt>
<trkpt lat="43.957149" lon="2.875773">
<ele>374.2</ele>
<time>2013-05-08T15:25:56.999Z</time>
</trkpt>
<trkpt lat="43.957168" lon="2.875627">
<ele>374.6</ele>
<time>2013-05-08T15:25:57.999Z</time>
</trkpt>
<trkpt lat="43.957187" lon="2.875458">
<ele>374.9</ele>
<time>2013-05-08T15:25:58.999Z</time>
</trkpt>
<trkpt lat="43.957207" lon="2.875279">
<ele>375.1</ele>
<time>2013-05-08T15:25:59.999Z</time>
</trkpt>
<trkpt lat="43.957228" lon="2.875104">
<ele>375.5</ele>
<time>2013-05-08T15:26:00.999Z</time>
</trkpt>
<trkpt lat="43.95725" lon="2.874924">
<ele>375.9</ele>
<time>2013-05-08T15:26:01.999Z</time>
</trkpt>
<trkpt lat="43.957266" lon="2.874748">
<ele>376.5</ele>
<time>2013-05-08T15:26:02.999Z</time>
</trkpt>
<trkpt lat="43.957287" lon="2.874568">
<ele>377.2</ele>
<time>2013-05-08T15:26:03.999Z</time>
</trkpt>
<trkpt lat="43.957303" lon="2.8744">
<ele>377.6</ele>
<time>2013-05-08T15:26:04.999Z</time>
</trkpt>
<trkpt lat="43.95732" lon="2.874227">
<ele>378.5</ele>
<time>2013-05-08T15:26:05.999Z</time>
</trkpt>
<trkpt lat="43.957342" lon="2.874052">
<ele>379</ele>
<time>2013-05-08T15:26:06.999Z</time>
</trkpt>
<trkpt lat="43.957362" lon="2.873881">
<ele>379.5</ele>
<time>2013-05-08T15:26:07.999Z</time>
</trkpt>
<trkpt lat="43.957381" lon="2.873711">
<ele>379.9</ele>
<time>2013-05-08T15:26:08.999Z</time>
</trkpt>
<trkpt lat="43.957397" lon="2.873551">
<ele>379.9</ele>
<time>2013-05-08T15:26:09.999Z</time>
</trkpt>
<trkpt lat="43.957419" lon="2.87339">
<ele>379.9</ele>
<time>2013-05-08T15:26:10.999Z</time>
</trkpt>
<trkpt lat="43.957442" lon="2.873224">
<ele>379.7</ele>
<time>2013-05-08T15:26:11.999Z</time>
</trkpt>
<trkpt lat="43.957466" lon="2.873056">
<ele>380</ele>
<time>2013-05-08T15:26:12.999Z</time>
</trkpt>
<trkpt lat="43.957488" lon="2.87288">
<ele>380.2</ele>
<time>2013-05-08T15:26:13.999Z</time>
</trkpt>
<trkpt lat="43.957491" lon="2.872695">
<ele>380.3</ele>
<time>2013-05-08T15:26:14.999Z</time>
</trkpt>
<trkpt lat="43.957495" lon="2.872512">
<ele>380.2</ele>
<time>2013-05-08T15:26:15.999Z</time>
</trkpt>
<trkpt lat="43.9575" lon="2.872325">
<ele>379.9</ele>
<time>2013-05-08T15:26:16.999Z</time>
</trkpt>
<trkpt lat="43.957505" lon="2.87215">
<ele>379.9</ele>
<time>2013-05-08T15:26:17.999Z</time>
</trkpt>
<trkpt lat="43.957495" lon="2.871987">
<ele>379.6</ele>
<time>2013-05-08T15:26:18.999Z</time>
</trkpt>
<trkpt lat="43.957481" lon="2.871831">
<ele>379.2</ele>
<time>2013-05-08T15:26:19.999Z</time>
</trkpt>
<trkpt lat="43.95747" lon="2.871674">
<ele>379.1</ele>
<time>2013-05-08T15:26:20.999Z</time>
</trkpt>
<trkpt lat="43.957454" lon="2.871538">
<ele>379.1</ele>
<time>2013-05-08T15:26:21.999Z</time>
</trkpt>
<trkpt lat="43.957431" lon="2.871419">
<ele>378.8</ele>
<time>2013-05-08T15:26:22.999Z</time>
</trkpt>
<trkpt lat="43.957411" lon="2.871298">
<ele>378.7</ele>
<time>2013-05-08T15:26:23.999Z</time>
</trkpt>
<trkpt lat="43.957392" lon="2.871178">
<ele>378.4</ele>
<time>2013-05-08T15:26:24.999Z</time>
</trkpt>
<trkpt lat="43.957373" lon="2.871053">
<ele>377.9</ele>
<time>2013-05-08T15:26:25.999Z</time>
</trkpt>
<trkpt lat="43.957345" lon="2.870917">
<ele>377.4</ele>
<time>2013-05-08T15:26:26.999Z</time>
</trkpt>
<trkpt lat="43.957315" lon="2.870771">
<ele>377</ele>
<time>2013-05-08T15:26:27.999Z</time>
</trkpt>
<trkpt lat="43.957289" lon="2.870621">
<ele>376.7</ele>
<time>2013-05-08T15:26:28.999Z</time>
</trkpt>
<trkpt lat="43.957261" lon="2.870463">
<ele>376.7</ele>
<time>2013-05-08T15:26:29.999Z</time>
</trkpt>
<trkpt lat="43.957234" lon="2.870301">
<ele>376.5</ele>
<time>2013-05-08T15:26:30.999Z</time>
</trkpt>
<trkpt lat="43.957204" lon="2.87013">
<ele>376.3</ele>
<time>2013-05-08T15:26:31.999Z</time>
</trkpt>
<trkpt lat="43.95717" lon="2.869952">
<ele>375.9</ele>
<time>2013-05-08T15:26:32.999Z</time>
</trkpt>
<trkpt lat="43.957139" lon="2.869773">
<ele>375.3</ele>
<time>2013-05-08T15:26:33.999Z</time>
</trkpt>
<trkpt lat="43.957102" lon="2.869562">
<ele>374.7</ele>
<time>2013-05-08T15:26:34.999Z</time>
</trkpt>
<trkpt lat="43.957065" lon="2.869348">
<ele>374.2</ele>
<time>2013-05-08T15:26:35.999Z</time>
</trkpt>
<trkpt lat="43.957021" lon="2.869093">
<ele>374</ele>
<time>2013-05-08T15:26:36.999Z</time>
</trkpt>
<trkpt lat="43.956971" lon="2.868823">
<ele>374</ele>
<time>2013-05-08T15:26:37.999Z</time>
</trkpt>
<trkpt lat="43.95691" lon="2.868551">
<ele>373.9</ele>
<time>2013-05-08T15:26:38.999Z</time>
</trkpt>
<trkpt lat="43.956853" lon="2.868299">
<ele>373.9</ele>
<time>2013-05-08T15:26:39.999Z</time>
</trkpt>
<trkpt lat="43.956802" lon="2.868066">
<ele>374</ele>
<time>2013-05-08T15:26:40.999Z</time>
</trkpt>
<trkpt lat="43.956754" lon="2.867855">
<ele>373.6</ele>
<time>2013-05-08T15:26:41.999Z</time>
</trkpt>
<trkpt lat="43.956709" lon="2.867661">
<ele>372.9</ele>
<time>2013-05-08T15:26:42.999Z</time>
</trkpt>
<trkpt lat="43.956666" lon="2.867462">
<ele>372</ele>
<time>2013-05-08T15:26:43.999Z</time>
</trkpt>
<trkpt lat="43.956625" lon="2.867271">
<ele>371.2</ele>
<time>2013-05-08T15:26:44.999Z</time>
</trkpt>
<trkpt lat="43.956578" lon="2.867078">
<ele>370.7</ele>
<time>2013-05-08T15:26:45.999Z</time>
</trkpt>
<trkpt lat="43.956528" lon="2.866871">
<ele>370.4</ele>
<time>2013-05-08T15:26:46.999Z</time>
</trkpt>
<trkpt lat="43.956479" lon="2.866654">
<ele>370.3</ele>
<time>2013-05-08T15:26:47.999Z</time>
</trkpt>
<trkpt lat="43.956432" lon="2.866437">
<ele>370.2</ele>
<time>2013-05-08T15:26:48.999Z</time>
</trkpt>
<trkpt lat="43.956386" lon="2.8662">
<ele>370.1</ele>
<time>2013-05-08T15:26:49.999Z</time>
</trkpt>
<trkpt lat="43.956344" lon="2.865941">
<ele>369.8</ele>
<time>2013-05-08T15:26:50.999Z</time>
</trkpt>
<trkpt lat="43.956311" lon="2.86567">
<ele>369.7</ele>
<time>2013-05-08T15:26:51.999Z</time>
</trkpt>
<trkpt lat="43.956305" lon="2.86538">
<ele>369.6</ele>
<time>2013-05-08T15:26:52.999Z</time>
</trkpt>
<trkpt lat="43.956319" lon="2.865071">
<ele>369.9</ele>
<time>2013-05-08T15:26:53.999Z</time>
</trkpt>
<trkpt lat="43.956343" lon="2.864752">
<ele>369.9</ele>
<time>2013-05-08T15:26:54.999Z</time>
</trkpt>
<trkpt lat="43.956352" lon="2.864444">
<ele>369.8</ele>
<time>2013-05-08T15:26:55.999Z</time>
</trkpt>
<trkpt lat="43.956367" lon="2.864142">
<ele>370.2</ele>
<time>2013-05-08T15:26:56.999Z</time>
</trkpt>
<trkpt lat="43.956385" lon="2.863864">
<ele>370.2</ele>
<time>2013-05-08T15:26:57.999Z</time>
</trkpt>
<trkpt lat="43.956391" lon="2.863595">
<ele>370.5</ele>
<time>2013-05-08T15:26:58.999Z</time>
</trkpt>
<trkpt lat="43.956406" lon="2.863335">
<ele>371.5</ele>
<time>2013-05-08T15:26:59.999Z</time>
</trkpt>
<trkpt lat="43.956416" lon="2.863087">
<ele>372.6</ele>
<time>2013-05-08T15:27:00.999Z</time>
</trkpt>
<trkpt lat="43.956423" lon="2.862841">
<ele>373.5</ele>
<time>2013-05-08T15:27:01.999Z</time>
</trkpt>
<trkpt lat="43.956425" lon="2.862607">
<ele>374.3</ele>
<time>2013-05-08T15:27:02.999Z</time>
</trkpt>
<trkpt lat="43.956431" lon="2.862382">
<ele>374.6</ele>
<time>2013-05-08T15:27:03.999Z</time>
</trkpt>
<trkpt lat="43.956415" lon="2.862176">
<ele>374.6</ele>
<time>2013-05-08T15:27:04.999Z</time>
</trkpt>
<trkpt lat="43.956395" lon="2.861973">
<ele>374.7</ele>
<time>2013-05-08T15:27:05.999Z</time>
</trkpt>
<trkpt lat="43.956372" lon="2.861773">
<ele>374.7</ele>
<time>2013-05-08T15:27:06.999Z</time>
</trkpt>
<trkpt lat="43.956357" lon="2.861578">
<ele>375</ele>
<time>2013-05-08T15:27:07.999Z</time>
</trkpt>
<trkpt lat="43.956336" lon="2.861367">
<ele>375.3</ele>
<time>2013-05-08T15:27:08.999Z</time>
</trkpt>
<trkpt lat="43.956306" lon="2.86113">
<ele>375.5</ele>
<time>2013-05-08T15:27:09.999Z</time>
</trkpt>
<trkpt lat="43.956273" lon="2.860888">
<ele>375.4</ele>
<time>2013-05-08T15:27:10.999Z</time>
</trkpt>
<trkpt lat="43.956242" lon="2.860661">
<ele>375.6</ele>
<time>2013-05-08T15:27:11.999Z</time>
</trkpt>
<trkpt lat="43.956207" lon="2.860422">
<ele>375.9</ele>
<time>2013-05-08T15:27:12.999Z</time>
</trkpt>
<trkpt lat="43.956165" lon="2.860162">
<ele>376</ele>
<time>2013-05-08T15:27:13.999Z</time>
</trkpt>
<trkpt lat="43.9561" lon="2.859892">
<ele>376.6</ele>
<time>2013-05-08T15:27:14.999Z</time>
</trkpt>
<trkpt lat="43.95603" lon="2.859635">
<ele>376.7</ele>
<time>2013-05-08T15:27:15.999Z</time>
</trkpt>
<trkpt lat="43.955958" lon="2.859379">
<ele>376.6</ele>
<time>2013-05-08T15:27:16.999Z</time>
</trkpt>
<trkpt lat="43.955886" lon="2.859135">
<ele>376.7</ele>
<time>2013-05-08T15:27:17.999Z</time>
</trkpt>
<trkpt lat="43.955817" lon="2.858902">
<ele>376.3</ele>
<time>2013-05-08T15:27:18.999Z</time>
</trkpt>
<trkpt lat="43.95575" lon="2.858678">
<ele>376</ele>
<time>2013-05-08T15:27:19.999Z</time>
</trkpt>
<trkpt lat="43.955684" lon="2.858468">
<ele>375.6</ele>
<time>2013-05-08T15:27:20.999Z</time>
</trkpt>
<trkpt lat="43.955625" lon="2.858275">
<ele>375.4</ele>
<time>2013-05-08T15:27:21.999Z</time>
</trkpt>
<trkpt lat="43.95557" lon="2.858089">
<ele>374.8</ele>
<time>2013-05-08T15:27:22.999Z</time>
</trkpt>
<trkpt lat="43.955518" lon="2.857914">
<ele>374</ele>
<time>2013-05-08T15:27:23.999Z</time>
</trkpt>
<trkpt lat="43.955463" lon="2.857733">
<ele>373.1</ele>
<time>2013-05-08T15:27:24.999Z</time>
</trkpt>
<trkpt lat="43.955407" lon="2.857556">
<ele>372.4</ele>
<time>2013-05-08T15:27:25.999Z</time>
</trkpt>
<trkpt lat="43.955353" lon="2.857381">
<ele>371.9</ele>
<time>2013-05-08T15:27:26.999Z</time>
</trkpt>
<trkpt lat="43.955293" lon="2.857192">
<ele>371.4</ele>
<time>2013-05-08T15:27:27.999Z</time>
</trkpt>
<trkpt lat="43.955234" lon="2.856999">
<ele>371</ele>
<time>2013-05-08T15:27:28.999Z</time>
</trkpt>
<trkpt lat="43.955174" lon="2.856802">
<ele>370.4</ele>
<time>2013-05-08T15:27:29.999Z</time>
</trkpt>
<trkpt lat="43.955105" lon="2.856596">
<ele>369.8</ele>
<time>2013-05-08T15:27:30.999Z</time>
</trkpt>
<trkpt lat="43.955043" lon="2.856389">
<ele>369.3</ele>
<time>2013-05-08T15:27:31.999Z</time>
</trkpt>
<trkpt lat="43.954982" lon="2.85618">
<ele>368.9</ele>
<time>2013-05-08T15:27:32.999Z</time>
</trkpt>
<trkpt lat="43.954918" lon="2.855979">
<ele>368.5</ele>
<time>2013-05-08T15:27:33.999Z</time>
</trkpt>
<trkpt lat="43.954859" lon="2.855793">
<ele>368</ele>
<time>2013-05-08T15:27:34.999Z</time>
</trkpt>
<trkpt lat="43.954812" lon="2.855612">
<ele>367.5</ele>
<time>2013-05-08T15:27:35.999Z</time>
</trkpt>
<trkpt lat="43.954767" lon="2.855438">
<ele>367.1</ele>
<time>2013-05-08T15:27:36.999Z</time>
</trkpt>
<trkpt lat="43.954731" lon="2.855273">
<ele>366.9</ele>
<time>2013-05-08T15:27:37.999Z</time>
</trkpt>
<trkpt lat="43.954694" lon="2.855113">
<ele>366.9</ele>
<time>2013-05-08T15:27:38.999Z</time>
</trkpt>
<trkpt lat="43.954659" lon="2.854964">
<ele>366.8</ele>
<time>2013-05-08T15:27:39.999Z</time>
</trkpt>
<trkpt lat="43.954627" lon="2.854828">
<ele>366.5</ele>
<time>2013-05-08T15:27:40.999Z</time>
</trkpt>
<trkpt lat="43.954595" lon="2.854703">
<ele>366.4</ele>
<time>2013-05-08T15:27:41.999Z</time>
</trkpt>
<trkpt lat="43.954563" lon="2.854591">
<ele>366.7</ele>
<time>2013-05-08T15:27:42.999Z</time>
</trkpt>
<trkpt lat="43.954537" lon="2.854503">
<ele>366.9</ele>
<time>2013-05-08T15:27:43.999Z</time>
</trkpt>
<trkpt lat="43.954528" lon="2.854432">
<ele>367.2</ele>
<time>2013-05-08T15:27:44.999Z</time>
</trkpt>
<trkpt lat="43.954519" lon="2.854371">
<ele>367.4</ele>
<time>2013-05-08T15:27:45.999Z</time>
</trkpt>
<trkpt lat="43.954521" lon="2.854306">
<ele>367.7</ele>
<time>2013-05-08T15:27:46.999Z</time>
</trkpt>
<trkpt lat="43.954534" lon="2.854249">
<ele>368.2</ele>
<time>2013-05-08T15:27:47.999Z</time>
</trkpt>
<trkpt lat="43.95455" lon="2.854189">
<ele>368.7</ele>
<time>2013-05-08T15:27:48.999Z</time>
</trkpt>
<trkpt lat="43.954567" lon="2.854133">
<ele>368.8</ele>
<time>2013-05-08T15:27:49.999Z</time>
</trkpt>
<trkpt lat="43.954583" lon="2.854068">
<ele>369.2</ele>
<time>2013-05-08T15:27:50.999Z</time>
</trkpt>
<trkpt lat="43.954594" lon="2.853998">
<ele>369.2</ele>
<time>2013-05-08T15:27:51.999Z</time>
</trkpt>
<trkpt lat="43.954582" lon="2.853877">
<ele>369.4</ele>
<time>2013-05-08T15:27:52.999Z</time>
</trkpt>
<trkpt lat="43.954549" lon="2.853756">
<ele>369.9</ele>
<time>2013-05-08T15:27:53.999Z</time>
</trkpt>
<trkpt lat="43.954513" lon="2.85362">
<ele>370.4</ele>
<time>2013-05-08T15:27:54.999Z</time>
</trkpt>
<trkpt lat="43.954474" lon="2.853488">
<ele>370.8</ele>
<time>2013-05-08T15:27:55.999Z</time>
</trkpt>
<trkpt lat="43.954444" lon="2.85336">
<ele>371.2</ele>
<time>2013-05-08T15:27:56.999Z</time>
</trkpt>
<trkpt lat="43.954407" lon="2.853228">
<ele>371</ele>
<time>2013-05-08T15:27:57.999Z</time>
</trkpt>
<trkpt lat="43.954374" lon="2.85311">
<ele>370</ele>
<time>2013-05-08T15:27:58.999Z</time>
</trkpt>
<trkpt lat="43.954338" lon="2.852984">
<ele>369.2</ele>
<time>2013-05-08T15:27:59.999Z</time>
</trkpt>
<trkpt lat="43.954288" lon="2.852823">
<ele>368.8</ele>
<time>2013-05-08T15:28:00.999Z</time>
</trkpt>
<trkpt lat="43.954239" lon="2.852656">
<ele>368.5</ele>
<time>2013-05-08T15:28:01.999Z</time>
</trkpt>
<trkpt lat="43.954189" lon="2.852485">
<ele>368.1</ele>
<time>2013-05-08T15:28:02.999Z</time>
</trkpt>
<trkpt lat="43.954142" lon="2.852315">
<ele>367.8</ele>
<time>2013-05-08T15:28:03.999Z</time>
</trkpt>
<trkpt lat="43.954099" lon="2.852162">
<ele>367.2</ele>
<time>2013-05-08T15:28:04.999Z</time>
</trkpt>
<trkpt lat="43.954066" lon="2.852019">
<ele>366.5</ele>
<time>2013-05-08T15:28:05.999Z</time>
</trkpt>
<trkpt lat="43.954031" lon="2.851875">
<ele>366.4</ele>
<time>2013-05-08T15:28:06.999Z</time>
</trkpt>
<trkpt lat="43.953996" lon="2.851738">
<ele>366.4</ele>
<time>2013-05-08T15:28:07.999Z</time>
</trkpt>
<trkpt lat="43.953964" lon="2.851604">
<ele>366.3</ele>
<time>2013-05-08T15:28:08.999Z</time>
</trkpt>
<trkpt lat="43.953931" lon="2.851472">
<ele>366.3</ele>
<time>2013-05-08T15:28:09.999Z</time>
</trkpt>
<trkpt lat="43.953897" lon="2.851348">
<ele>366.7</ele>
<time>2013-05-08T15:28:10.999Z</time>
</trkpt>
<trkpt lat="43.953859" lon="2.851219">
<ele>366.9</ele>
<time>2013-05-08T15:28:11.999Z</time>
</trkpt>
<trkpt lat="43.953826" lon="2.851091">
<ele>366.9</ele>
<time>2013-05-08T15:28:12.999Z</time>
</trkpt>
<trkpt lat="43.9538" lon="2.850985">
<ele>367</ele>
<time>2013-05-08T15:28:13.999Z</time>
</trkpt>
<trkpt lat="43.953785" lon="2.850867">
<ele>366.6</ele>
<time>2013-05-08T15:28:14.999Z</time>
</trkpt>
<trkpt lat="43.953788" lon="2.850755">
<ele>365.9</ele>
<time>2013-05-08T15:28:15.999Z</time>
</trkpt>
<trkpt lat="43.953804" lon="2.850668">
<ele>365.1</ele>
<time>2013-05-08T15:28:16.999Z</time>
</trkpt>
<trkpt lat="43.953841" lon="2.850598">
<ele>364.3</ele>
<time>2013-05-08T15:28:17.999Z</time>
</trkpt>
<trkpt lat="43.953888" lon="2.850516">
<ele>363.8</ele>
<time>2013-05-08T15:28:18.999Z</time>
</trkpt>
<trkpt lat="43.953933" lon="2.850439">
<ele>363.6</ele>
<time>2013-05-08T15:28:19.999Z</time>
</trkpt>
<trkpt lat="43.953974" lon="2.850374">
<ele>363.7</ele>
<time>2013-05-08T15:28:20.999Z</time>
</trkpt>
<trkpt lat="43.954013" lon="2.850343">
<ele>363.9</ele>
<time>2013-05-08T15:28:21.999Z</time>
</trkpt>
<trkpt lat="43.954053" lon="2.850337">
<ele>363.8</ele>
<time>2013-05-08T15:28:22.999Z</time>
</trkpt>
<trkpt lat="43.954088" lon="2.850334">
<ele>363.8</ele>
<time>2013-05-08T15:28:23.999Z</time>
</trkpt>
<trkpt lat="43.954123" lon="2.850332">
<ele>363.8</ele>
<time>2013-05-08T15:28:24.999Z</time>
</trkpt>
<trkpt lat="43.954156" lon="2.850327">
<ele>363.8</ele>
<time>2013-05-08T15:28:25.999Z</time>
</trkpt>
<trkpt lat="43.95419" lon="2.850319">
<ele>363.8</ele>
<time>2013-05-08T15:28:26.999Z</time>
</trkpt>
<trkpt lat="43.954216" lon="2.850313">
<ele>363.8</ele>
<time>2013-05-08T15:28:27.999Z</time>
</trkpt>
<trkpt lat="43.954248" lon="2.850305">
<ele>363.9</ele>
<time>2013-05-08T15:28:28.999Z</time>
</trkpt>
<trkpt lat="43.954277" lon="2.850297">
<ele>363.9</ele>
<time>2013-05-08T15:28:29.999Z</time>
</trkpt>
<trkpt lat="43.954306" lon="2.850289">
<ele>363.9</ele>
<time>2013-05-08T15:28:30.999Z</time>
</trkpt>
<trkpt lat="43.954332" lon="2.850281">
<ele>363.9</ele>
<time>2013-05-08T15:28:31.999Z</time>
</trkpt>
<trkpt lat="43.954367" lon="2.850267">
<ele>363.9</ele>
<time>2013-05-08T15:28:32.999Z</time>
</trkpt>
<trkpt lat="43.954401" lon="2.850254">
<ele>363.9</ele>
<time>2013-05-08T15:28:33.999Z</time>
</trkpt>
<trkpt lat="43.954424" lon="2.850246">
<ele>363.9</ele>
<time>2013-05-08T15:28:34.999Z</time>
</trkpt>
<trkpt lat="43.954458" lon="2.850233">
<ele>363.9</ele>
<time>2013-05-08T15:28:35.999Z</time>
</trkpt>
<trkpt lat="43.954502" lon="2.850219">
<ele>364.3</ele>
<time>2013-05-08T15:28:36.999Z</time>
</trkpt>
<trkpt lat="43.954527" lon="2.850213">
<ele>364.3</ele>
<time>2013-05-08T15:28:37.999Z</time>
</trkpt>
<trkpt lat="43.954551" lon="2.850207">
<ele>364.3</ele>
<time>2013-05-08T15:28:38.999Z</time>
</trkpt>
<trkpt lat="43.954585" lon="2.850215">
<ele>364.5</ele>
<time>2013-05-08T15:28:44.999Z</time>
</trkpt>
<trkpt lat="43.954597" lon="2.850212">
<ele>364.5</ele>
<time>2013-05-08T15:28:45.999Z</time>
</trkpt>
<trkpt lat="43.954625" lon="2.850202">
<ele>364.5</ele>
<time>2013-05-08T15:28:47.999Z</time>
</trkpt>
<trkpt lat="43.954641" lon="2.850184">
<ele>364.5</ele>
<time>2013-05-08T15:28:48.999Z</time>
</trkpt>
<trkpt lat="43.954659" lon="2.850154">
<ele>364.6</ele>
<time>2013-05-08T15:28:49.999Z</time>
</trkpt>
<trkpt lat="43.954675" lon="2.850114">
<ele>364.6</ele>
<time>2013-05-08T15:28:50.999Z</time>
</trkpt>
<trkpt lat="43.954684" lon="2.850075">
<ele>364.6</ele>
<time>2013-05-08T15:28:51.999Z</time>
</trkpt>
<trkpt lat="43.954689" lon="2.850042">
<ele>364.6</ele>
<time>2013-05-08T15:28:52.999Z</time>
</trkpt>
<trkpt lat="43.954694" lon="2.850011">
<ele>364.7</ele>
<time>2013-05-08T15:28:54.999Z</time>
</trkpt>
<trkpt lat="43.954694" lon="2.849976">
<ele>364.7</ele>
<time>2013-05-08T15:28:55.999Z</time>
</trkpt>
<trkpt lat="43.954664" lon="2.849962">
<ele>364.3</ele>
<time>2013-05-08T15:29:55.999Z</time>
</trkpt>
<trkpt lat="43.954589" lon="2.849962">
<ele>364.3</ele>
<time>2013-05-08T15:29:56.999Z</time>
</trkpt>
<trkpt lat="43.954547" lon="2.84994">
<ele>364.4</ele>
<time>2013-05-08T15:30:27.999Z</time>
</trkpt>
<trkpt lat="43.954455" lon="2.84994">
<ele>364.4</ele>
<time>2013-05-08T15:30:28.999Z</time>
</trkpt>
<trkpt lat="43.954455" lon="2.84994">
<ele>365.5</ele>
<time>2013-05-08T15:31:45.999Z</time>
</trkpt>
<trkpt lat="43.954388" lon="2.84995">
<ele>365.5</ele>
<time>2013-05-08T15:31:46.999Z</time>
</trkpt>
<trkpt lat="43.95443" lon="2.849934">
<ele>366.6</ele>
<time>2013-05-08T15:33:56.999Z</time>
</trkpt>
<trkpt lat="43.954433" lon="2.84993">
<ele>366.6</ele>
<time>2013-05-08T15:33:57.999Z</time>
</trkpt>
<trkpt lat="43.954461" lon="2.849978">
<ele>365.9</ele>
<time>2013-05-08T15:34:41.999Z</time>
</trkpt>
<trkpt lat="43.954461" lon="2.849978">
<ele>365.9</ele>
<time>2013-05-08T15:34:42.999Z</time>
</trkpt>
<trkpt lat="43.954468" lon="2.850013">
<ele>365.8</ele>
<time>2013-05-08T15:35:37.999Z</time>
</trkpt>
<trkpt lat="43.954434" lon="2.850072">
<ele>365.4</ele>
<time>2013-05-08T15:35:38.999Z</time>
</trkpt>
<trkpt lat="43.954414" lon="2.850149">
<ele>365.4</ele>
<time>2013-05-08T15:35:39.999Z</time>
</trkpt>
<trkpt lat="43.954445" lon="2.850189">
<ele>364.8</ele>
<time>2013-05-08T15:35:41.999Z</time>
</trkpt>
<trkpt lat="43.954501" lon="2.850184">
<ele>364.8</ele>
<time>2013-05-08T15:35:42.999Z</time>
</trkpt>
<trkpt lat="43.954564" lon="2.850142">
<ele>364.9</ele>
<time>2013-05-08T15:35:43.999Z</time>
</trkpt>
<trkpt lat="43.95462" lon="2.850067">
<ele>365.1</ele>
<time>2013-05-08T15:35:44.999Z</time>
</trkpt>
<trkpt lat="43.954647" lon="2.849995">
<ele>365</ele>
<time>2013-05-08T15:35:45.999Z</time>
</trkpt>
<trkpt lat="43.954653" lon="2.849896">
<ele>364.7</ele>
<time>2013-05-08T15:35:46.999Z</time>
</trkpt>
<trkpt lat="43.95465" lon="2.849803">
<ele>364.3</ele>
<time>2013-05-08T15:35:47.999Z</time>
</trkpt>
<trkpt lat="43.95464" lon="2.849711">
<ele>364.1</ele>
<time>2013-05-08T15:35:48.999Z</time>
</trkpt>
<trkpt lat="43.954622" lon="2.849637">
<ele>364</ele>
<time>2013-05-08T15:35:49.999Z</time>
</trkpt>
<trkpt lat="43.954598" lon="2.84959">
<ele>363.9</ele>
<time>2013-05-08T15:35:50.999Z</time>
</trkpt>
<trkpt lat="43.954573" lon="2.849542">
<ele>364</ele>
<time>2013-05-08T15:35:51.999Z</time>
</trkpt>
<trkpt lat="43.954563" lon="2.84949">
<ele>364.1</ele>
<time>2013-05-08T15:35:52.999Z</time>
</trkpt>
<trkpt lat="43.954554" lon="2.849433">
<ele>364.5</ele>
<time>2013-05-08T15:35:53.999Z</time>
</trkpt>
<trkpt lat="43.954556" lon="2.849362">
<ele>365</ele>
<time>2013-05-08T15:35:54.999Z</time>
</trkpt>
<trkpt lat="43.954557" lon="2.84929">
<ele>365.3</ele>
<time>2013-05-08T15:35:55.999Z</time>
</trkpt>
<trkpt lat="43.954558" lon="2.849209">
<ele>365.6</ele>
<time>2013-05-08T15:35:56.999Z</time>
</trkpt>
<trkpt lat="43.954559" lon="2.849127">
<ele>365.9</ele>
<time>2013-05-08T15:35:57.999Z</time>
</trkpt>
<trkpt lat="43.95456" lon="2.849053">
<ele>366.2</ele>
<time>2013-05-08T15:35:58.999Z</time>
</trkpt>
<trkpt lat="43.954563" lon="2.848982">
<ele>366.3</ele>
<time>2013-05-08T15:35:59.999Z</time>
</trkpt>
<trkpt lat="43.954567" lon="2.848914">
<ele>366.2</ele>
<time>2013-05-08T15:36:00.999Z</time>
</trkpt>
<trkpt lat="43.954569" lon="2.848842">
<ele>366.2</ele>
<time>2013-05-08T15:36:01.999Z</time>
</trkpt>
<trkpt lat="43.954568" lon="2.848771">
<ele>366.3</ele>
<time>2013-05-08T15:36:02.999Z</time>
</trkpt>
<trkpt lat="43.954563" lon="2.848701">
<ele>366.5</ele>
<time>2013-05-08T15:36:03.999Z</time>
</trkpt>
<trkpt lat="43.954555" lon="2.848635">
<ele>366.9</ele>
<time>2013-05-08T15:36:04.999Z</time>
</trkpt>
<trkpt lat="43.954546" lon="2.848567">
<ele>367.4</ele>
<time>2013-05-08T15:36:05.999Z</time>
</trkpt>
<trkpt lat="43.954536" lon="2.848495">
<ele>367.8</ele>
<time>2013-05-08T15:36:06.999Z</time>
</trkpt>
<trkpt lat="43.954527" lon="2.848425">
<ele>367.9</ele>
<time>2013-05-08T15:36:07.999Z</time>
</trkpt>
<trkpt lat="43.95452" lon="2.84836">
<ele>368.1</ele>
<time>2013-05-08T15:36:08.999Z</time>
</trkpt>
<trkpt lat="43.954512" lon="2.848293">
<ele>368.3</ele>
<time>2013-05-08T15:36:09.999Z</time>
</trkpt>
<trkpt lat="43.954498" lon="2.848218">
<ele>368.5</ele>
<time>2013-05-08T15:36:10.999Z</time>
</trkpt>
<trkpt lat="43.954484" lon="2.848139">
<ele>368.7</ele>
<time>2013-05-08T15:36:11.999Z</time>
</trkpt>
<trkpt lat="43.954471" lon="2.848054">
<ele>368.7</ele>
<time>2013-05-08T15:36:12.999Z</time>
</trkpt>
<trkpt lat="43.954463" lon="2.847978">
<ele>368.6</ele>
<time>2013-05-08T15:36:13.999Z</time>
</trkpt>
<trkpt lat="43.954467" lon="2.847914">
<ele>368.1</ele>
<time>2013-05-08T15:36:14.999Z</time>
</trkpt>
<trkpt lat="43.954474" lon="2.847844">
<ele>367.6</ele>
<time>2013-05-08T15:36:15.999Z</time>
</trkpt>
<trkpt lat="43.954495" lon="2.847778">
<ele>367.3</ele>
<time>2013-05-08T15:36:16.999Z</time>
</trkpt>
<trkpt lat="43.95452" lon="2.847716">
<ele>367.3</ele>
<time>2013-05-08T15:36:17.999Z</time>
</trkpt>
<trkpt lat="43.954547" lon="2.847651">
<ele>367.9</ele>
<time>2013-05-08T15:36:18.999Z</time>
</trkpt>
<trkpt lat="43.954565" lon="2.847596">
<ele>368.3</ele>
<time>2013-05-08T15:36:19.999Z</time>
</trkpt>
<trkpt lat="43.95458" lon="2.847545">
<ele>368.4</ele>
<time>2013-05-08T15:36:20.999Z</time>
</trkpt>
<trkpt lat="43.954589" lon="2.847487">
<ele>368.7</ele>
<time>2013-05-08T15:36:21.999Z</time>
</trkpt>
<trkpt lat="43.954582" lon="2.847419">
<ele>368.7</ele>
<time>2013-05-08T15:36:22.999Z</time>
</trkpt>
<trkpt lat="43.954563" lon="2.847348">
<ele>368.4</ele>
<time>2013-05-08T15:36:23.999Z</time>
</trkpt>
<trkpt lat="43.954543" lon="2.847274">
<ele>368</ele>
<time>2013-05-08T15:36:24.999Z</time>
</trkpt>
<trkpt lat="43.954516" lon="2.84718">
<ele>367.7</ele>
<time>2013-05-08T15:36:25.999Z</time>
</trkpt>
<trkpt lat="43.954486" lon="2.847071">
<ele>367.6</ele>
<time>2013-05-08T15:36:26.999Z</time>
</trkpt>
<trkpt lat="43.954459" lon="2.846948">
<ele>367.6</ele>
<time>2013-05-08T15:36:27.999Z</time>
</trkpt>
<trkpt lat="43.954425" lon="2.846816">
<ele>367.8</ele>
<time>2013-05-08T15:36:28.999Z</time>
</trkpt>
<trkpt lat="43.95439" lon="2.846693">
<ele>368.1</ele>
<time>2013-05-08T15:36:29.999Z</time>
</trkpt>
<trkpt lat="43.954355" lon="2.846587">
<ele>368.5</ele>
<time>2013-05-08T15:36:30.999Z</time>
</trkpt>
<trkpt lat="43.954295" lon="2.846523">
<ele>368.9</ele>
<time>2013-05-08T15:36:31.999Z</time>
</trkpt>
<trkpt lat="43.954231" lon="2.846532">
<ele>368.9</ele>
<time>2013-05-08T15:36:32.999Z</time>
</trkpt>
<trkpt lat="43.954169" lon="2.846549">
<ele>368.5</ele>
<time>2013-05-08T15:36:33.999Z</time>
</trkpt>
<trkpt lat="43.954118" lon="2.846575">
<ele>367.7</ele>
<time>2013-05-08T15:36:34.999Z</time>
</trkpt>
<trkpt lat="43.954064" lon="2.846604">
<ele>366.8</ele>
<time>2013-05-08T15:36:35.999Z</time>
</trkpt>
<trkpt lat="43.954019" lon="2.846648">
<ele>365.7</ele>
<time>2013-05-08T15:36:36.999Z</time>
</trkpt>
<trkpt lat="43.953975" lon="2.846694">
<ele>364.5</ele>
<time>2013-05-08T15:36:37.999Z</time>
</trkpt>
<trkpt lat="43.953933" lon="2.846737">
<ele>363.9</ele>
<time>2013-05-08T15:36:38.999Z</time>
</trkpt>
<trkpt lat="43.953889" lon="2.846782">
<ele>363.4</ele>
<time>2013-05-08T15:36:39.999Z</time>
</trkpt>
<trkpt lat="43.95384" lon="2.84683">
<ele>362.8</ele>
<time>2013-05-08T15:36:40.999Z</time>
</trkpt>
<trkpt lat="43.953783" lon="2.846888">
<ele>362.3</ele>
<time>2013-05-08T15:36:41.999Z</time>
</trkpt>
<trkpt lat="43.953719" lon="2.84696">
<ele>361.9</ele>
<time>2013-05-08T15:36:42.999Z</time>
</trkpt>
<trkpt lat="43.95364" lon="2.847106">
<ele>361.6</ele>
<time>2013-05-08T15:36:43.999Z</time>
</trkpt>
<trkpt lat="43.953549" lon="2.84726">
<ele>361.2</ele>
<time>2013-05-08T15:36:44.999Z</time>
</trkpt>
<trkpt lat="43.953434" lon="2.847377">
<ele>360.9</ele>
<time>2013-05-08T15:36:45.999Z</time>
</trkpt>
<trkpt lat="43.953328" lon="2.847473">
<ele>360.9</ele>
<time>2013-05-08T15:36:46.999Z</time>
</trkpt>
<trkpt lat="43.953223" lon="2.847559">
<ele>361.2</ele>
<time>2013-05-08T15:36:47.999Z</time>
</trkpt>
<trkpt lat="43.953136" lon="2.847594">
<ele>361.4</ele>
<time>2013-05-08T15:36:48.999Z</time>
</trkpt>
<trkpt lat="43.95307" lon="2.847606">
<ele>361.4</ele>
<time>2013-05-08T15:36:49.999Z</time>
</trkpt>
<trkpt lat="43.95302" lon="2.84757">
<ele>361.5</ele>
<time>2013-05-08T15:36:50.999Z</time>
</trkpt>
<trkpt lat="43.952959" lon="2.847479">
<ele>361.7</ele>
<time>2013-05-08T15:36:51.999Z</time>
</trkpt>
<trkpt lat="43.952881" lon="2.847344">
<ele>361.9</ele>
<time>2013-05-08T15:36:52.999Z</time>
</trkpt>
<trkpt lat="43.952795" lon="2.84718">
<ele>362</ele>
<time>2013-05-08T15:36:53.999Z</time>
</trkpt>
<trkpt lat="43.95269" lon="2.846983">
<ele>361.7</ele>
<time>2013-05-08T15:36:54.999Z</time>
</trkpt>
<trkpt lat="43.952575" lon="2.846757">
<ele>360.9</ele>
<time>2013-05-08T15:36:55.999Z</time>
</trkpt>
<trkpt lat="43.952459" lon="2.846505">
<ele>360.4</ele>
<time>2013-05-08T15:36:56.999Z</time>
</trkpt>
<trkpt lat="43.95231" lon="2.846193">
<ele>360.8</ele>
<time>2013-05-08T15:36:57.999Z</time>
</trkpt>
<trkpt lat="43.952217" lon="2.845861">
<ele>361</ele>
<time>2013-05-08T15:36:58.999Z</time>
</trkpt>
<trkpt lat="43.952144" lon="2.845535">
<ele>361.3</ele>
<time>2013-05-08T15:36:59.999Z</time>
</trkpt>
<trkpt lat="43.952065" lon="2.845214">
<ele>361.6</ele>
<time>2013-05-08T15:37:00.999Z</time>
</trkpt>
<trkpt lat="43.951986" lon="2.844895">
<ele>362</ele>
<time>2013-05-08T15:37:01.999Z</time>
</trkpt>
<trkpt lat="43.951917" lon="2.84458">
<ele>362.1</ele>
<time>2013-05-08T15:37:02.999Z</time>
</trkpt>
<trkpt lat="43.951842" lon="2.844265">
<ele>362.5</ele>
<time>2013-05-08T15:37:03.999Z</time>
</trkpt>
<trkpt lat="43.951783" lon="2.843973">
<ele>362.8</ele>
<time>2013-05-08T15:37:04.999Z</time>
</trkpt>
<trkpt lat="43.951711" lon="2.843675">
<ele>363.4</ele>
<time>2013-05-08T15:37:05.999Z</time>
</trkpt>
<trkpt lat="43.951636" lon="2.84336">
<ele>364</ele>
<time>2013-05-08T15:37:06.999Z</time>
</trkpt>
<trkpt lat="43.951566" lon="2.843039">
<ele>364.2</ele>
<time>2013-05-08T15:37:07.999Z</time>
</trkpt>
<trkpt lat="43.951506" lon="2.842709">
<ele>364.4</ele>
<time>2013-05-08T15:37:08.999Z</time>
</trkpt>
<trkpt lat="43.95145" lon="2.842374">
<ele>364.6</ele>
<time>2013-05-08T15:37:09.999Z</time>
</trkpt>
<trkpt lat="43.951398" lon="2.842035">
<ele>364.6</ele>
<time>2013-05-08T15:37:10.999Z</time>
</trkpt>
<trkpt lat="43.951359" lon="2.841681">
<ele>364.8</ele>
<time>2013-05-08T15:37:11.999Z</time>
</trkpt>
<trkpt lat="43.951323" lon="2.841345">
<ele>365.2</ele>
<time>2013-05-08T15:37:12.999Z</time>
</trkpt>
<trkpt lat="43.951304" lon="2.841017">
<ele>365.3</ele>
<time>2013-05-08T15:37:13.999Z</time>
</trkpt>
<trkpt lat="43.951306" lon="2.840695">
<ele>365.4</ele>
<time>2013-05-08T15:37:14.999Z</time>
</trkpt>
<trkpt lat="43.951324" lon="2.840374">
<ele>365.3</ele>
<time>2013-05-08T15:37:15.999Z</time>
</trkpt>
<trkpt lat="43.951359" lon="2.840052">
<ele>365.2</ele>
<time>2013-05-08T15:37:16.999Z</time>
</trkpt>
<trkpt lat="43.951401" lon="2.839742">
<ele>365</ele>
<time>2013-05-08T15:37:17.999Z</time>
</trkpt>
<trkpt lat="43.951449" lon="2.839447">
<ele>364.7</ele>
<time>2013-05-08T15:37:18.999Z</time>
</trkpt>
<trkpt lat="43.95151" lon="2.839156">
<ele>364.8</ele>
<time>2013-05-08T15:37:19.999Z</time>
</trkpt>
<trkpt lat="43.951566" lon="2.838878">
<ele>365</ele>
<time>2013-05-08T15:37:20.999Z</time>
</trkpt>
<trkpt lat="43.951608" lon="2.838617">
<ele>365.5</ele>
<time>2013-05-08T15:37:21.999Z</time>
</trkpt>
<trkpt lat="43.951666" lon="2.838371">
<ele>366.3</ele>
<time>2013-05-08T15:37:22.999Z</time>
</trkpt>
<trkpt lat="43.951664" lon="2.838142">
<ele>366.9</ele>
<time>2013-05-08T15:37:23.999Z</time>
</trkpt>
<trkpt lat="43.951631" lon="2.837947">
<ele>367.2</ele>
<time>2013-05-08T15:37:24.999Z</time>
</trkpt>
<trkpt lat="43.951599" lon="2.837762">
<ele>367.3</ele>
<time>2013-05-08T15:37:25.999Z</time>
</trkpt>
<trkpt lat="43.951578" lon="2.837589">
<ele>367.4</ele>
<time>2013-05-08T15:37:26.999Z</time>
</trkpt>
<trkpt lat="43.951583" lon="2.837453">
<ele>367.6</ele>
<time>2013-05-08T15:37:27.999Z</time>
</trkpt>
<trkpt lat="43.95159" lon="2.837345">
<ele>367.7</ele>
<time>2013-05-08T15:37:28.999Z</time>
</trkpt>
<trkpt lat="43.951564" lon="2.837236">
<ele>367.3</ele>
<time>2013-05-08T15:37:29.999Z</time>
</trkpt>
<trkpt lat="43.951522" lon="2.837147">
<ele>367.5</ele>
<time>2013-05-08T15:37:30.999Z</time>
</trkpt>
<trkpt lat="43.951464" lon="2.837123">
<ele>366.7</ele>
<time>2013-05-08T15:37:31.999Z</time>
</trkpt>
<trkpt lat="43.951381" lon="2.837125">
<ele>366.5</ele>
<time>2013-05-08T15:37:32.999Z</time>
</trkpt>
<trkpt lat="43.951276" lon="2.837138">
<ele>366.2</ele>
<time>2013-05-08T15:37:33.999Z</time>
</trkpt>
<trkpt lat="43.951144" lon="2.837154">
<ele>366</ele>
<time>2013-05-08T15:37:34.999Z</time>
</trkpt>
<trkpt lat="43.951" lon="2.837162">
<ele>366.1</ele>
<time>2013-05-08T15:37:35.999Z</time>
</trkpt>
<trkpt lat="43.950845" lon="2.837172">
<ele>366.3</ele>
<time>2013-05-08T15:37:36.999Z</time>
</trkpt>
<trkpt lat="43.95068" lon="2.837183">
<ele>366.7</ele>
<time>2013-05-08T15:37:37.999Z</time>
</trkpt>
<trkpt lat="43.950519" lon="2.837199">
<ele>367</ele>
<time>2013-05-08T15:37:38.999Z</time>
</trkpt>
<trkpt lat="43.950353" lon="2.837219">
<ele>367.3</ele>
<time>2013-05-08T15:37:39.999Z</time>
</trkpt>
<trkpt lat="43.95019" lon="2.837241">
<ele>367.6</ele>
<time>2013-05-08T15:37:40.999Z</time>
</trkpt>
<trkpt lat="43.950029" lon="2.837262">
<ele>367.8</ele>
<time>2013-05-08T15:37:41.999Z</time>
</trkpt>
<trkpt lat="43.94987" lon="2.83728">
<ele>368.1</ele>
<time>2013-05-08T15:37:42.999Z</time>
</trkpt>
<trkpt lat="43.949715" lon="2.8373">
<ele>368.2</ele>
<time>2013-05-08T15:37:43.999Z</time>
</trkpt>
<trkpt lat="43.949558" lon="2.837317">
<ele>368.6</ele>
<time>2013-05-08T15:37:44.999Z</time>
</trkpt>
<trkpt lat="43.94941" lon="2.837324">
<ele>369.2</ele>
<time>2013-05-08T15:37:45.999Z</time>
</trkpt>
<trkpt lat="43.949266" lon="2.837324">
<ele>369.2</ele>
<time>2013-05-08T15:37:46.999Z</time>
</trkpt>
<trkpt lat="43.949116" lon="2.837317">
<ele>369</ele>
<time>2013-05-08T15:37:47.999Z</time>
</trkpt>
<trkpt lat="43.948961" lon="2.837302">
<ele>368.7</ele>
<time>2013-05-08T15:37:48.999Z</time>
</trkpt>
<trkpt lat="43.948805" lon="2.837283">
<ele>368.2</ele>
<time>2013-05-08T15:37:49.999Z</time>
</trkpt>
<trkpt lat="43.948646" lon="2.837264">
<ele>367.8</ele>
<time>2013-05-08T15:37:50.999Z</time>
</trkpt>
<trkpt lat="43.948483" lon="2.83724">
<ele>367.8</ele>
<time>2013-05-08T15:37:51.999Z</time>
</trkpt>
<trkpt lat="43.94833" lon="2.837212">
<ele>367.6</ele>
<time>2013-05-08T15:37:52.999Z</time>
</trkpt>
<trkpt lat="43.948174" lon="2.83718">
<ele>367.3</ele>
<time>2013-05-08T15:37:53.999Z</time>
</trkpt>
<trkpt lat="43.948015" lon="2.837151">
<ele>367</ele>
<time>2013-05-08T15:37:54.999Z</time>
</trkpt>
<trkpt lat="43.947861" lon="2.837125">
<ele>366.8</ele>
<time>2013-05-08T15:37:55.999Z</time>
</trkpt>
<trkpt lat="43.947709" lon="2.837097">
<ele>366.4</ele>
<time>2013-05-08T15:37:56.999Z</time>
</trkpt>
<trkpt lat="43.947574" lon="2.837073">
<ele>366.2</ele>
<time>2013-05-08T15:37:57.999Z</time>
</trkpt>
<trkpt lat="43.947451" lon="2.83705">
<ele>366.1</ele>
<time>2013-05-08T15:37:58.999Z</time>
</trkpt>
<trkpt lat="43.947344" lon="2.83703">
<ele>365.9</ele>
<time>2013-05-08T15:37:59.999Z</time>
</trkpt>
<trkpt lat="43.947249" lon="2.837014">
<ele>365.5</ele>
<time>2013-05-08T15:38:00.999Z</time>
</trkpt>
<trkpt lat="43.947169" lon="2.836999">
<ele>365.2</ele>
<time>2013-05-08T15:38:01.999Z</time>
</trkpt>
<trkpt lat="43.947105" lon="2.836983">
<ele>364.9</ele>
<time>2013-05-08T15:38:02.999Z</time>
</trkpt>
<trkpt lat="43.947042" lon="2.836944">
<ele>365</ele>
<time>2013-05-08T15:38:03.999Z</time>
</trkpt>
<trkpt lat="43.946999" lon="2.83687">
<ele>365.4</ele>
<time>2013-05-08T15:38:04.999Z</time>
</trkpt>
<trkpt lat="43.94699" lon="2.836779">
<ele>365.7</ele>
<time>2013-05-08T15:38:05.999Z</time>
</trkpt>
<trkpt lat="43.946999" lon="2.836672">
<ele>365.4</ele>
<time>2013-05-08T15:38:06.999Z</time>
</trkpt>
<trkpt lat="43.947014" lon="2.83656">
<ele>365.4</ele>
<time>2013-05-08T15:38:07.999Z</time>
</trkpt>
<trkpt lat="43.947034" lon="2.836409">
<ele>365.5</ele>
<time>2013-05-08T15:38:08.999Z</time>
</trkpt>
<trkpt lat="43.947026" lon="2.836246">
<ele>365.9</ele>
<time>2013-05-08T15:38:09.999Z</time>
</trkpt>
<trkpt lat="43.947022" lon="2.836095">
<ele>366.1</ele>
<time>2013-05-08T15:38:10.999Z</time>
</trkpt>
<trkpt lat="43.947015" lon="2.835927">
<ele>366.2</ele>
<time>2013-05-08T15:38:11.999Z</time>
</trkpt>
<trkpt lat="43.946989" lon="2.835726">
<ele>366.6</ele>
<time>2013-05-08T15:38:12.999Z</time>
</trkpt>
<trkpt lat="43.946967" lon="2.835535">
<ele>366.6</ele>
<time>2013-05-08T15:38:13.999Z</time>
</trkpt>
<trkpt lat="43.946938" lon="2.835336">
<ele>366.4</ele>
<time>2013-05-08T15:38:14.999Z</time>
</trkpt>
<trkpt lat="43.946906" lon="2.835122">
<ele>366.8</ele>
<time>2013-05-08T15:38:15.999Z</time>
</trkpt>
<trkpt lat="43.946864" lon="2.834901">
<ele>367</ele>
<time>2013-05-08T15:38:16.999Z</time>
</trkpt>
<trkpt lat="43.946818" lon="2.834659">
<ele>367.5</ele>
<time>2013-05-08T15:38:17.999Z</time>
</trkpt>
<trkpt lat="43.946761" lon="2.834393">
<ele>368</ele>
<time>2013-05-08T15:38:18.999Z</time>
</trkpt>
<trkpt lat="43.946709" lon="2.834151">
<ele>368.6</ele>
<time>2013-05-08T15:38:19.999Z</time>
</trkpt>
<trkpt lat="43.946657" lon="2.833905">
<ele>369.6</ele>
<time>2013-05-08T15:38:20.999Z</time>
</trkpt>
<trkpt lat="43.946607" lon="2.833652">
<ele>370.5</ele>
<time>2013-05-08T15:38:21.999Z</time>
</trkpt>
<trkpt lat="43.946557" lon="2.833397">
<ele>371</ele>
<time>2013-05-08T15:38:22.999Z</time>
</trkpt>
<trkpt lat="43.946508" lon="2.833125">
<ele>371.6</ele>
<time>2013-05-08T15:38:23.999Z</time>
</trkpt>
<trkpt lat="43.946456" lon="2.832838">
<ele>371.5</ele>
<time>2013-05-08T15:38:24.999Z</time>
</trkpt>
<trkpt lat="43.946399" lon="2.832544">
<ele>371.1</ele>
<time>2013-05-08T15:38:25.999Z</time>
</trkpt>
<trkpt lat="43.946342" lon="2.832244">
<ele>370.7</ele>
<time>2013-05-08T15:38:26.999Z</time>
</trkpt>
<trkpt lat="43.946277" lon="2.831947">
<ele>370.5</ele>
<time>2013-05-08T15:38:27.999Z</time>
</trkpt>
<trkpt lat="43.946216" lon="2.831656">
<ele>370.7</ele>
<time>2013-05-08T15:38:28.999Z</time>
</trkpt>
<trkpt lat="43.946154" lon="2.831368">
<ele>371.1</ele>
<time>2013-05-08T15:38:29.999Z</time>
</trkpt>
<trkpt lat="43.9461" lon="2.831094">
<ele>371.6</ele>
<time>2013-05-08T15:38:30.999Z</time>
</trkpt>
<trkpt lat="43.946048" lon="2.830832">
<ele>372</ele>
<time>2013-05-08T15:38:31.999Z</time>
</trkpt>
<trkpt lat="43.945992" lon="2.830579">
<ele>372.5</ele>
<time>2013-05-08T15:38:32.999Z</time>
</trkpt>
<trkpt lat="43.94592" lon="2.830345">
<ele>372.8</ele>
<time>2013-05-08T15:38:33.999Z</time>
</trkpt>
<trkpt lat="43.945826" lon="2.830132">
<ele>373.1</ele>
<time>2013-05-08T15:38:34.999Z</time>
</trkpt>
<trkpt lat="43.94573" lon="2.829916">
<ele>373.6</ele>
<time>2013-05-08T15:38:35.999Z</time>
</trkpt>
<trkpt lat="43.945573" lon="2.829749">
<ele>374.4</ele>
<time>2013-05-08T15:38:36.999Z</time>
</trkpt>
<trkpt lat="43.945394" lon="2.82962">
<ele>374.9</ele>
<time>2013-05-08T15:38:37.999Z</time>
</trkpt>
<trkpt lat="43.9452" lon="2.8295">
<ele>375</ele>
<time>2013-05-08T15:38:38.999Z</time>
</trkpt>
<trkpt lat="43.944999" lon="2.829358">
<ele>374.7</ele>
<time>2013-05-08T15:38:39.999Z</time>
</trkpt>
<trkpt lat="43.944817" lon="2.829195">
<ele>374.6</ele>
<time>2013-05-08T15:38:40.999Z</time>
</trkpt>
<trkpt lat="43.944649" lon="2.82899">
<ele>373.8</ele>
<time>2013-05-08T15:38:41.999Z</time>
</trkpt>
<trkpt lat="43.944497" lon="2.828753">
<ele>373.2</ele>
<time>2013-05-08T15:38:42.999Z</time>
</trkpt>
<trkpt lat="43.94435" lon="2.828495">
<ele>372.9</ele>
<time>2013-05-08T15:38:43.999Z</time>
</trkpt>
<trkpt lat="43.944202" lon="2.828227">
<ele>372.4</ele>
<time>2013-05-08T15:38:44.999Z</time>
</trkpt>
<trkpt lat="43.944044" lon="2.82796">
<ele>371.7</ele>
<time>2013-05-08T15:38:45.999Z</time>
</trkpt>
<trkpt lat="43.943891" lon="2.827702">
<ele>370.9</ele>
<time>2013-05-08T15:38:46.999Z</time>
</trkpt>
<trkpt lat="43.943729" lon="2.82745">
<ele>369.8</ele>
<time>2013-05-08T15:38:47.999Z</time>
</trkpt>
<trkpt lat="43.943558" lon="2.827196">
<ele>369.2</ele>
<time>2013-05-08T15:38:48.999Z</time>
</trkpt>
<trkpt lat="43.943382" lon="2.826966">
<ele>369</ele>
<time>2013-05-08T15:38:49.999Z</time>
</trkpt>
<trkpt lat="43.943193" lon="2.826753">
<ele>369</ele>
<time>2013-05-08T15:38:50.999Z</time>
</trkpt>
<trkpt lat="43.942991" lon="2.826559">
<ele>369.5</ele>
<time>2013-05-08T15:38:51.999Z</time>
</trkpt>
<trkpt lat="43.942777" lon="2.826395">
<ele>369.5</ele>
<time>2013-05-08T15:38:52.999Z</time>
</trkpt>
<trkpt lat="43.942534" lon="2.826298">
<ele>369.7</ele>
<time>2013-05-08T15:38:53.999Z</time>
</trkpt>
<trkpt lat="43.942277" lon="2.826234">
<ele>370</ele>
<time>2013-05-08T15:38:54.999Z</time>
</trkpt>
<trkpt lat="43.94201" lon="2.826189">
<ele>370.3</ele>
<time>2013-05-08T15:38:55.999Z</time>
</trkpt>
<trkpt lat="43.941737" lon="2.826163">
<ele>371.2</ele>
<time>2013-05-08T15:38:56.999Z</time>
</trkpt>
<trkpt lat="43.941462" lon="2.826134">
<ele>372</ele>
<time>2013-05-08T15:38:57.999Z</time>
</trkpt>
<trkpt lat="43.941206" lon="2.826151">
<ele>372.2</ele>
<time>2013-05-08T15:38:58.999Z</time>
</trkpt>
<trkpt lat="43.940953" lon="2.826194">
<ele>371.9</ele>
<time>2013-05-08T15:38:59.999Z</time>
</trkpt>
<trkpt lat="43.940706" lon="2.82626">
<ele>371.4</ele>
<time>2013-05-08T15:39:00.999Z</time>
</trkpt>
<trkpt lat="43.940458" lon="2.826348">
<ele>371</ele>
<time>2013-05-08T15:39:01.999Z</time>
</trkpt>
<trkpt lat="43.940212" lon="2.826436">
<ele>370.3</ele>
<time>2013-05-08T15:39:02.999Z</time>
</trkpt>
<trkpt lat="43.939971" lon="2.826525">
<ele>369.5</ele>
<time>2013-05-08T15:39:03.999Z</time>
</trkpt>
<trkpt lat="43.939736" lon="2.826623">
<ele>368.7</ele>
<time>2013-05-08T15:39:04.999Z</time>
</trkpt>
<trkpt lat="43.939504" lon="2.826726">
<ele>368</ele>
<time>2013-05-08T15:39:05.999Z</time>
</trkpt>
<trkpt lat="43.939278" lon="2.826828">
<ele>367.3</ele>
<time>2013-05-08T15:39:06.999Z</time>
</trkpt>
<trkpt lat="43.939046" lon="2.826926">
<ele>366.7</ele>
<time>2013-05-08T15:39:07.999Z</time>
</trkpt>
<trkpt lat="43.938814" lon="2.827012">
<ele>366.1</ele>
<time>2013-05-08T15:39:08.999Z</time>
</trkpt>
<trkpt lat="43.938584" lon="2.827096">
<ele>365.7</ele>
<time>2013-05-08T15:39:09.999Z</time>
</trkpt>
<trkpt lat="43.938359" lon="2.827175">
<ele>365.5</ele>
<time>2013-05-08T15:39:10.999Z</time>
</trkpt>
<trkpt lat="43.938136" lon="2.827253">
<ele>365.2</ele>
<time>2013-05-08T15:39:11.999Z</time>
</trkpt>
<trkpt lat="43.937934" lon="2.827327">
<ele>365.1</ele>
<time>2013-05-08T15:39:12.999Z</time>
</trkpt>
<trkpt lat="43.937739" lon="2.827393">
<ele>365</ele>
<time>2013-05-08T15:39:13.999Z</time>
</trkpt>
<trkpt lat="43.937547" lon="2.827448">
<ele>365.1</ele>
<time>2013-05-08T15:39:14.999Z</time>
</trkpt>
<trkpt lat="43.937358" lon="2.827505">
<ele>365.1</ele>
<time>2013-05-08T15:39:15.999Z</time>
</trkpt>
<trkpt lat="43.937172" lon="2.827559">
<ele>365.2</ele>
<time>2013-05-08T15:39:16.999Z</time>
</trkpt>
<trkpt lat="43.936996" lon="2.827613">
<ele>365.4</ele>
<time>2013-05-08T15:39:17.999Z</time>
</trkpt>
<trkpt lat="43.936825" lon="2.827668">
<ele>365.4</ele>
<time>2013-05-08T15:39:18.999Z</time>
</trkpt>
<trkpt lat="43.936664" lon="2.827729">
<ele>365.4</ele>
<time>2013-05-08T15:39:19.999Z</time>
</trkpt>
<trkpt lat="43.936507" lon="2.827788">
<ele>365.6</ele>
<time>2013-05-08T15:39:20.999Z</time>
</trkpt>
<trkpt lat="43.936331" lon="2.82785">
<ele>365.7</ele>
<time>2013-05-08T15:39:21.999Z</time>
</trkpt>
<trkpt lat="43.936158" lon="2.827913">
<ele>365.8</ele>
<time>2013-05-08T15:39:22.999Z</time>
</trkpt>
<trkpt lat="43.93598" lon="2.827974">
<ele>365.9</ele>
<time>2013-05-08T15:39:23.999Z</time>
</trkpt>
<trkpt lat="43.9358" lon="2.828036">
<ele>366.4</ele>
<time>2013-05-08T15:39:24.999Z</time>
</trkpt>
<trkpt lat="43.93561" lon="2.828101">
<ele>367.1</ele>
<time>2013-05-08T15:39:25.999Z</time>
</trkpt>
<trkpt lat="43.935409" lon="2.828176">
<ele>367.8</ele>
<time>2013-05-08T15:39:26.999Z</time>
</trkpt>
<trkpt lat="43.935195" lon="2.828256">
<ele>368.6</ele>
<time>2013-05-08T15:39:27.999Z</time>
</trkpt>
<trkpt lat="43.934972" lon="2.828338">
<ele>369.5</ele>
<time>2013-05-08T15:39:28.999Z</time>
</trkpt>
<trkpt lat="43.934742" lon="2.828423">
<ele>370.2</ele>
<time>2013-05-08T15:39:29.999Z</time>
</trkpt>
<trkpt lat="43.934501" lon="2.828512">
<ele>371</ele>
<time>2013-05-08T15:39:30.999Z</time>
</trkpt>
<trkpt lat="43.934252" lon="2.828592">
<ele>371.9</ele>
<time>2013-05-08T15:39:31.999Z</time>
</trkpt>
<trkpt lat="43.934001" lon="2.828676">
<ele>372.7</ele>
<time>2013-05-08T15:39:32.999Z</time>
</trkpt>
<trkpt lat="43.933755" lon="2.828752">
<ele>373.7</ele>
<time>2013-05-08T15:39:33.999Z</time>
</trkpt>
<trkpt lat="43.933507" lon="2.828825">
<ele>375</ele>
<time>2013-05-08T15:39:34.999Z</time>
</trkpt>
<trkpt lat="43.93326" lon="2.828897">
<ele>376.2</ele>
<time>2013-05-08T15:39:35.999Z</time>
</trkpt>
<trkpt lat="43.933013" lon="2.828955">
<ele>377.5</ele>
<time>2013-05-08T15:39:36.999Z</time>
</trkpt>
<trkpt lat="43.932773" lon="2.829019">
<ele>378.7</ele>
<time>2013-05-08T15:39:37.999Z</time>
</trkpt>
<trkpt lat="43.932525" lon="2.829088">
<ele>379.7</ele>
<time>2013-05-08T15:39:38.999Z</time>
</trkpt>
<trkpt lat="43.932281" lon="2.829147">
<ele>380.8</ele>
<time>2013-05-08T15:39:39.999Z</time>
</trkpt>
<trkpt lat="43.932047" lon="2.829205">
<ele>381.6</ele>
<time>2013-05-08T15:39:40.999Z</time>
</trkpt>
<trkpt lat="43.931825" lon="2.829259">
<ele>382.2</ele>
<time>2013-05-08T15:39:41.999Z</time>
</trkpt>
<trkpt lat="43.931616" lon="2.829293">
<ele>382.8</ele>
<time>2013-05-08T15:39:42.999Z</time>
</trkpt>
<trkpt lat="43.931413" lon="2.829315">
<ele>383.4</ele>
<time>2013-05-08T15:39:43.999Z</time>
</trkpt>
<trkpt lat="43.931208" lon="2.829317">
<ele>383.4</ele>
<time>2013-05-08T15:39:44.999Z</time>
</trkpt>
<trkpt lat="43.930995" lon="2.829274">
<ele>383.4</ele>
<time>2013-05-08T15:39:45.999Z</time>
</trkpt>
<trkpt lat="43.930779" lon="2.829196">
<ele>383.5</ele>
<time>2013-05-08T15:39:46.999Z</time>
</trkpt>
<trkpt lat="43.930579" lon="2.829076">
<ele>383.4</ele>
<time>2013-05-08T15:39:47.999Z</time>
</trkpt>
<trkpt lat="43.930391" lon="2.828903">
<ele>383.5</ele>
<time>2013-05-08T15:39:48.999Z</time>
</trkpt>
<trkpt lat="43.930226" lon="2.828693">
<ele>383.9</ele>
<time>2013-05-08T15:39:49.999Z</time>
</trkpt>
<trkpt lat="43.930091" lon="2.828436">
<ele>384.1</ele>
<time>2013-05-08T15:39:50.999Z</time>
</trkpt>
<trkpt lat="43.929981" lon="2.828142">
<ele>384.2</ele>
<time>2013-05-08T15:39:51.999Z</time>
</trkpt>
<trkpt lat="43.929901" lon="2.827834">
<ele>384.2</ele>
<time>2013-05-08T15:39:52.999Z</time>
</trkpt>
<trkpt lat="43.929844" lon="2.827517">
<ele>384.4</ele>
<time>2013-05-08T15:39:53.999Z</time>
</trkpt>
<trkpt lat="43.929827" lon="2.827188">
<ele>384.4</ele>
<time>2013-05-08T15:39:54.999Z</time>
</trkpt>
<trkpt lat="43.92982" lon="2.826871">
<ele>384</ele>
<time>2013-05-08T15:39:55.999Z</time>
</trkpt>
<trkpt lat="43.929808" lon="2.826561">
<ele>383.7</ele>
<time>2013-05-08T15:39:56.999Z</time>
</trkpt>
<trkpt lat="43.929797" lon="2.826265">
<ele>383.3</ele>
<time>2013-05-08T15:39:57.999Z</time>
</trkpt>
<trkpt lat="43.929789" lon="2.825971">
<ele>383.1</ele>
<time>2013-05-08T15:39:58.999Z</time>
</trkpt>
<trkpt lat="43.929779" lon="2.825674">
<ele>382.9</ele>
<time>2013-05-08T15:39:59.999Z</time>
</trkpt>
<trkpt lat="43.929769" lon="2.825382">
<ele>382.8</ele>
<time>2013-05-08T15:40:00.999Z</time>
</trkpt>
<trkpt lat="43.929742" lon="2.825096">
<ele>382.7</ele>
<time>2013-05-08T15:40:01.999Z</time>
</trkpt>
<trkpt lat="43.92969" lon="2.824812">
<ele>382.3</ele>
<time>2013-05-08T15:40:02.999Z</time>
</trkpt>
<trkpt lat="43.929621" lon="2.824541">
<ele>381.8</ele>
<time>2013-05-08T15:40:03.999Z</time>
</trkpt>
<trkpt lat="43.929538" lon="2.824282">
<ele>381.1</ele>
<time>2013-05-08T15:40:04.999Z</time>
</trkpt>
<trkpt lat="43.929435" lon="2.824014">
<ele>380.5</ele>
<time>2013-05-08T15:40:05.999Z</time>
</trkpt>
<trkpt lat="43.929321" lon="2.82377">
<ele>379.8</ele>
<time>2013-05-08T15:40:06.999Z</time>
</trkpt>
<trkpt lat="43.929192" lon="2.823552">
<ele>379.2</ele>
<time>2013-05-08T15:40:07.999Z</time>
</trkpt>
<trkpt lat="43.929061" lon="2.823338">
<ele>378.3</ele>
<time>2013-05-08T15:40:08.999Z</time>
</trkpt>
<trkpt lat="43.928906" lon="2.823118">
<ele>377.3</ele>
<time>2013-05-08T15:40:09.999Z</time>
</trkpt>
<trkpt lat="43.928744" lon="2.822885">
<ele>376.4</ele>
<time>2013-05-08T15:40:10.999Z</time>
</trkpt>
<trkpt lat="43.92857" lon="2.822638">
<ele>376</ele>
<time>2013-05-08T15:40:11.999Z</time>
</trkpt>
<trkpt lat="43.928399" lon="2.822399">
<ele>375.6</ele>
<time>2013-05-08T15:40:12.999Z</time>
</trkpt>
<trkpt lat="43.928225" lon="2.82218">
<ele>375.5</ele>
<time>2013-05-08T15:40:13.999Z</time>
</trkpt>
<trkpt lat="43.92805" lon="2.821997">
<ele>375.7</ele>
<time>2013-05-08T15:40:14.999Z</time>
</trkpt>
<trkpt lat="43.927877" lon="2.821847">
<ele>376</ele>
<time>2013-05-08T15:40:15.999Z</time>
</trkpt>
<trkpt lat="43.927694" lon="2.821728">
<ele>376.2</ele>
<time>2013-05-08T15:40:16.999Z</time>
</trkpt>
<trkpt lat="43.927506" lon="2.821649">
<ele>376.3</ele>
<time>2013-05-08T15:40:17.999Z</time>
</trkpt>
<trkpt lat="43.927317" lon="2.821601">
<ele>376.2</ele>
<time>2013-05-08T15:40:18.999Z</time>
</trkpt>
<trkpt lat="43.927123" lon="2.821581">
<ele>376</ele>
<time>2013-05-08T15:40:19.999Z</time>
</trkpt>
<trkpt lat="43.926924" lon="2.821587">
<ele>375.8</ele>
<time>2013-05-08T15:40:20.999Z</time>
</trkpt>
<trkpt lat="43.926726" lon="2.821617">
<ele>375.8</ele>
<time>2013-05-08T15:40:21.999Z</time>
</trkpt>
<trkpt lat="43.92654" lon="2.821659">
<ele>375.6</ele>
<time>2013-05-08T15:40:22.999Z</time>
</trkpt>
<trkpt lat="43.926347" lon="2.821714">
<ele>375.5</ele>
<time>2013-05-08T15:40:23.999Z</time>
</trkpt>
<trkpt lat="43.926159" lon="2.821772">
<ele>375.3</ele>
<time>2013-05-08T15:40:24.999Z</time>
</trkpt>
<trkpt lat="43.925965" lon="2.821834">
<ele>375.3</ele>
<time>2013-05-08T15:40:25.999Z</time>
</trkpt>
<trkpt lat="43.925765" lon="2.821903">
<ele>375.4</ele>
<time>2013-05-08T15:40:26.999Z</time>
</trkpt>
<trkpt lat="43.92555" lon="2.821979">
<ele>375.3</ele>
<time>2013-05-08T15:40:27.999Z</time>
</trkpt>
<trkpt lat="43.925327" lon="2.822056">
<ele>375.3</ele>
<time>2013-05-08T15:40:28.999Z</time>
</trkpt>
<trkpt lat="43.925088" lon="2.822133">
<ele>375.1</ele>
<time>2013-05-08T15:40:29.999Z</time>
</trkpt>
<trkpt lat="43.92484" lon="2.822215">
<ele>374.9</ele>
<time>2013-05-08T15:40:30.999Z</time>
</trkpt>
<trkpt lat="43.924576" lon="2.822305">
<ele>374.8</ele>
<time>2013-05-08T15:40:31.999Z</time>
</trkpt>
<trkpt lat="43.924299" lon="2.822397">
<ele>375</ele>
<time>2013-05-08T15:40:32.999Z</time>
</trkpt>
<trkpt lat="43.924025" lon="2.822485">
<ele>375</ele>
<time>2013-05-08T15:40:33.999Z</time>
</trkpt>
<trkpt lat="43.923772" lon="2.822569">
<ele>374.7</ele>
<time>2013-05-08T15:40:34.999Z</time>
</trkpt>
<trkpt lat="43.923538" lon="2.822644">
<ele>374.6</ele>
<time>2013-05-08T15:40:35.999Z</time>
</trkpt>
<trkpt lat="43.923313" lon="2.822713">
<ele>374.7</ele>
<time>2013-05-08T15:40:36.999Z</time>
</trkpt>
<trkpt lat="43.923095" lon="2.82278">
<ele>374.7</ele>
<time>2013-05-08T15:40:37.999Z</time>
</trkpt>
<trkpt lat="43.922868" lon="2.822851">
<ele>374.8</ele>
<time>2013-05-08T15:40:38.999Z</time>
</trkpt>
<trkpt lat="43.922625" lon="2.822933">
<ele>375</ele>
<time>2013-05-08T15:40:39.999Z</time>
</trkpt>
<trkpt lat="43.922367" lon="2.823017">
<ele>375.2</ele>
<time>2013-05-08T15:40:40.999Z</time>
</trkpt>
<trkpt lat="43.922091" lon="2.823108">
<ele>375.4</ele>
<time>2013-05-08T15:40:41.999Z</time>
</trkpt>
<trkpt lat="43.921821" lon="2.823196">
<ele>375.8</ele>
<time>2013-05-08T15:40:42.999Z</time>
</trkpt>
<trkpt lat="43.921565" lon="2.823276">
<ele>376</ele>
<time>2013-05-08T15:40:43.999Z</time>
</trkpt>
<trkpt lat="43.921323" lon="2.82336">
<ele>376.3</ele>
<time>2013-05-08T15:40:44.999Z</time>
</trkpt>
<trkpt lat="43.92109" lon="2.823442">
<ele>376.6</ele>
<time>2013-05-08T15:40:45.999Z</time>
</trkpt>
<trkpt lat="43.920859" lon="2.823519">
<ele>376.8</ele>
<time>2013-05-08T15:40:46.999Z</time>
</trkpt>
<trkpt lat="43.920637" lon="2.823593">
<ele>377</ele>
<time>2013-05-08T15:40:47.999Z</time>
</trkpt>
<trkpt lat="43.920415" lon="2.823664">
<ele>377.2</ele>
<time>2013-05-08T15:40:48.999Z</time>
</trkpt>
<trkpt lat="43.9202" lon="2.823734">
<ele>377.3</ele>
<time>2013-05-08T15:40:49.999Z</time>
</trkpt>
<trkpt lat="43.919986" lon="2.823802">
<ele>377.5</ele>
<time>2013-05-08T15:40:50.999Z</time>
</trkpt>
<trkpt lat="43.919772" lon="2.823871">
<ele>377.9</ele>
<time>2013-05-08T15:40:51.999Z</time>
</trkpt>
<trkpt lat="43.919558" lon="2.823937">
<ele>378.2</ele>
<time>2013-05-08T15:40:52.999Z</time>
</trkpt>
<trkpt lat="43.919348" lon="2.824003">
<ele>378.5</ele>
<time>2013-05-08T15:40:53.999Z</time>
</trkpt>
<trkpt lat="43.919136" lon="2.824069">
<ele>378.8</ele>
<time>2013-05-08T15:40:54.999Z</time>
</trkpt>
<trkpt lat="43.918924" lon="2.824137">
<ele>379.2</ele>
<time>2013-05-08T15:40:55.999Z</time>
</trkpt>
<trkpt lat="43.918711" lon="2.824208">
<ele>379.7</ele>
<time>2013-05-08T15:40:56.999Z</time>
</trkpt>
<trkpt lat="43.918488" lon="2.82428">
<ele>380.1</ele>
<time>2013-05-08T15:40:57.999Z</time>
</trkpt>
<trkpt lat="43.918261" lon="2.824353">
<ele>380.6</ele>
<time>2013-05-08T15:40:58.999Z</time>
</trkpt>
<trkpt lat="43.918031" lon="2.824432">
<ele>380.9</ele>
<time>2013-05-08T15:40:59.999Z</time>
</trkpt>
<trkpt lat="43.917796" lon="2.82451">
<ele>381</ele>
<time>2013-05-08T15:41:00.999Z</time>
</trkpt>
<trkpt lat="43.917561" lon="2.824586">
<ele>381.2</ele>
<time>2013-05-08T15:41:01.999Z</time>
</trkpt>
<trkpt lat="43.917326" lon="2.824664">
<ele>381.2</ele>
<time>2013-05-08T15:41:02.999Z</time>
</trkpt>
<trkpt lat="43.917089" lon="2.824744">
<ele>381.2</ele>
<time>2013-05-08T15:41:03.999Z</time>
</trkpt>
<trkpt lat="43.916846" lon="2.824821">
<ele>381.4</ele>
<time>2013-05-08T15:41:04.999Z</time>
</trkpt>
<trkpt lat="43.916602" lon="2.8249">
<ele>381.6</ele>
<time>2013-05-08T15:41:05.999Z</time>
</trkpt>
<trkpt lat="43.916353" lon="2.824983">
<ele>381.8</ele>
<time>2013-05-08T15:41:06.999Z</time>
</trkpt>
<trkpt lat="43.916101" lon="2.825066">
<ele>382.1</ele>
<time>2013-05-08T15:41:07.999Z</time>
</trkpt>
<trkpt lat="43.915849" lon="2.825146">
<ele>382.3</ele>
<time>2013-05-08T15:41:08.999Z</time>
</trkpt>
<trkpt lat="43.915599" lon="2.825218">
<ele>382.6</ele>
<time>2013-05-08T15:41:09.999Z</time>
</trkpt>
<trkpt lat="43.915352" lon="2.825285">
<ele>382.8</ele>
<time>2013-05-08T15:41:10.999Z</time>
</trkpt>
<trkpt lat="43.915096" lon="2.825331">
<ele>382.9</ele>
<time>2013-05-08T15:41:11.999Z</time>
</trkpt>
<trkpt lat="43.914832" lon="2.825355">
<ele>383.2</ele>
<time>2013-05-08T15:41:12.999Z</time>
</trkpt>
<trkpt lat="43.914557" lon="2.825349">
<ele>383.6</ele>
<time>2013-05-08T15:41:13.999Z</time>
</trkpt>
<trkpt lat="43.914289" lon="2.825319">
<ele>384</ele>
<time>2013-05-08T15:41:14.999Z</time>
</trkpt>
<trkpt lat="43.914021" lon="2.825266">
<ele>384.5</ele>
<time>2013-05-08T15:41:15.999Z</time>
</trkpt>
<trkpt lat="43.913757" lon="2.825209">
<ele>384.9</ele>
<time>2013-05-08T15:41:16.999Z</time>
</trkpt>
<trkpt lat="43.9135" lon="2.825104">
<ele>385.4</ele>
<time>2013-05-08T15:41:17.999Z</time>
</trkpt>
<trkpt lat="43.913251" lon="2.824988">
<ele>385.8</ele>
<time>2013-05-08T15:41:18.999Z</time>
</trkpt>
<trkpt lat="43.913015" lon="2.824851">
<ele>385.9</ele>
<time>2013-05-08T15:41:19.999Z</time>
</trkpt>
<trkpt lat="43.912782" lon="2.8247">
<ele>386.1</ele>
<time>2013-05-08T15:41:20.999Z</time>
</trkpt>
<trkpt lat="43.912561" lon="2.824518">
<ele>386.3</ele>
<time>2013-05-08T15:41:21.999Z</time>
</trkpt>
<trkpt lat="43.91235" lon="2.824327">
<ele>386.6</ele>
<time>2013-05-08T15:41:22.999Z</time>
</trkpt>
<trkpt lat="43.912139" lon="2.82412">
<ele>387</ele>
<time>2013-05-08T15:41:23.999Z</time>
</trkpt>
<trkpt lat="43.911933" lon="2.823886">
<ele>387.4</ele>
<time>2013-05-08T15:41:24.999Z</time>
</trkpt>
<trkpt lat="43.911728" lon="2.823658">
<ele>387.9</ele>
<time>2013-05-08T15:41:25.999Z</time>
</trkpt>
<trkpt lat="43.911515" lon="2.823428">
<ele>388.2</ele>
<time>2013-05-08T15:41:26.999Z</time>
</trkpt>
<trkpt lat="43.91131" lon="2.823203">
<ele>388.4</ele>
<time>2013-05-08T15:41:27.999Z</time>
</trkpt>
<trkpt lat="43.911109" lon="2.822985">
<ele>388.5</ele>
<time>2013-05-08T15:41:28.999Z</time>
</trkpt>
<trkpt lat="43.910908" lon="2.822769">
<ele>388.4</ele>
<time>2013-05-08T15:41:29.999Z</time>
</trkpt>
<trkpt lat="43.910701" lon="2.822585">
<ele>387.8</ele>
<time>2013-05-08T15:41:30.999Z</time>
</trkpt>
<trkpt lat="43.910491" lon="2.822415">
<ele>386.9</ele>
<time>2013-05-08T15:41:31.999Z</time>
</trkpt>
<trkpt lat="43.910281" lon="2.822262">
<ele>386.2</ele>
<time>2013-05-08T15:41:32.999Z</time>
</trkpt>
<trkpt lat="43.910075" lon="2.822136">
<ele>385.9</ele>
<time>2013-05-08T15:41:33.999Z</time>
</trkpt>
<trkpt lat="43.909882" lon="2.822038">
<ele>385.6</ele>
<time>2013-05-08T15:41:34.999Z</time>
</trkpt>
<trkpt lat="43.909685" lon="2.821953">
<ele>385.1</ele>
<time>2013-05-08T15:41:35.999Z</time>
</trkpt>
<trkpt lat="43.909482" lon="2.821882">
<ele>384.3</ele>
<time>2013-05-08T15:41:36.999Z</time>
</trkpt>
<trkpt lat="43.909266" lon="2.821828">
<ele>383.4</ele>
<time>2013-05-08T15:41:37.999Z</time>
</trkpt>
<trkpt lat="43.90904" lon="2.821784">
<ele>382.5</ele>
<time>2013-05-08T15:41:38.999Z</time>
</trkpt>
<trkpt lat="43.908806" lon="2.821751">
<ele>381.6</ele>
<time>2013-05-08T15:41:39.999Z</time>
</trkpt>
<trkpt lat="43.908563" lon="2.821736">
<ele>380.8</ele>
<time>2013-05-08T15:41:40.999Z</time>
</trkpt>
<trkpt lat="43.908301" lon="2.821726">
<ele>380.4</ele>
<time>2013-05-08T15:41:41.999Z</time>
</trkpt>
<trkpt lat="43.908038" lon="2.821717">
<ele>380.1</ele>
<time>2013-05-08T15:41:42.999Z</time>
</trkpt>
<trkpt lat="43.907772" lon="2.821718">
<ele>380.1</ele>
<time>2013-05-08T15:41:43.999Z</time>
</trkpt>
<trkpt lat="43.907511" lon="2.82172">
<ele>380.1</ele>
<time>2013-05-08T15:41:44.999Z</time>
</trkpt>
<trkpt lat="43.907251" lon="2.821719">
<ele>380.1</ele>
<time>2013-05-08T15:41:45.999Z</time>
</trkpt>
<trkpt lat="43.906992" lon="2.821713">
<ele>380.3</ele>
<time>2013-05-08T15:41:46.999Z</time>
</trkpt>
<trkpt lat="43.906733" lon="2.821705">
<ele>380.6</ele>
<time>2013-05-08T15:41:47.999Z</time>
</trkpt>
<trkpt lat="43.906473" lon="2.821702">
<ele>380.9</ele>
<time>2013-05-08T15:41:48.999Z</time>
</trkpt>
<trkpt lat="43.90621" lon="2.821695">
<ele>381</ele>
<time>2013-05-08T15:41:49.999Z</time>
</trkpt>
<trkpt lat="43.905956" lon="2.821687">
<ele>381.2</ele>
<time>2013-05-08T15:41:50.999Z</time>
</trkpt>
<trkpt lat="43.905707" lon="2.821676">
<ele>381.4</ele>
<time>2013-05-08T15:41:51.999Z</time>
</trkpt>
<trkpt lat="43.905465" lon="2.821667">
<ele>381.5</ele>
<time>2013-05-08T15:41:52.999Z</time>
</trkpt>
<trkpt lat="43.905228" lon="2.82166">
<ele>381.6</ele>
<time>2013-05-08T15:41:53.999Z</time>
</trkpt>
<trkpt lat="43.904999" lon="2.821655">
<ele>381.8</ele>
<time>2013-05-08T15:41:54.999Z</time>
</trkpt>
<trkpt lat="43.904771" lon="2.821648">
<ele>382.1</ele>
<time>2013-05-08T15:41:55.999Z</time>
</trkpt>
<trkpt lat="43.904542" lon="2.821641">
<ele>382.4</ele>
<time>2013-05-08T15:41:56.999Z</time>
</trkpt>
<trkpt lat="43.90431" lon="2.821635">
<ele>382.7</ele>
<time>2013-05-08T15:41:57.999Z</time>
</trkpt>
<trkpt lat="43.904075" lon="2.821628">
<ele>382.9</ele>
<time>2013-05-08T15:41:58.999Z</time>
</trkpt>
<trkpt lat="43.903838" lon="2.821622">
<ele>383.2</ele>
<time>2013-05-08T15:41:59.999Z</time>
</trkpt>
<trkpt lat="43.903596" lon="2.821614">
<ele>383.4</ele>
<time>2013-05-08T15:42:00.999Z</time>
</trkpt>
<trkpt lat="43.903352" lon="2.821604">
<ele>383.5</ele>
<time>2013-05-08T15:42:01.999Z</time>
</trkpt>
<trkpt lat="43.903109" lon="2.821596">
<ele>383.5</ele>
<time>2013-05-08T15:42:02.999Z</time>
</trkpt>
<trkpt lat="43.902866" lon="2.82159">
<ele>383.7</ele>
<time>2013-05-08T15:42:03.999Z</time>
</trkpt>
<trkpt lat="43.902621" lon="2.821585">
<ele>383.9</ele>
<time>2013-05-08T15:42:04.999Z</time>
</trkpt>
<trkpt lat="43.902375" lon="2.82158">
<ele>384.1</ele>
<time>2013-05-08T15:42:05.999Z</time>
</trkpt>
<trkpt lat="43.902112" lon="2.821574">
<ele>384.4</ele>
<time>2013-05-08T15:42:06.999Z</time>
</trkpt>
<trkpt lat="43.901849" lon="2.821566">
<ele>384.6</ele>
<time>2013-05-08T15:42:07.999Z</time>
</trkpt>
<trkpt lat="43.901579" lon="2.821559">
<ele>384.7</ele>
<time>2013-05-08T15:42:08.999Z</time>
</trkpt>
<trkpt lat="43.901303" lon="2.821551">
<ele>384.8</ele>
<time>2013-05-08T15:42:09.999Z</time>
</trkpt>
<trkpt lat="43.901029" lon="2.821541">
<ele>385</ele>
<time>2013-05-08T15:42:10.999Z</time>
</trkpt>
<trkpt lat="43.900758" lon="2.821531">
<ele>385.2</ele>
<time>2013-05-08T15:42:11.999Z</time>
</trkpt>
<trkpt lat="43.900488" lon="2.821527">
<ele>385.3</ele>
<time>2013-05-08T15:42:12.999Z</time>
</trkpt>
<trkpt lat="43.900222" lon="2.821522">
<ele>385.3</ele>
<time>2013-05-08T15:42:13.999Z</time>
</trkpt>
<trkpt lat="43.899962" lon="2.821517">
<ele>385.4</ele>
<time>2013-05-08T15:42:14.999Z</time>
</trkpt>
<trkpt lat="43.899711" lon="2.821513">
<ele>385.4</ele>
<time>2013-05-08T15:42:15.999Z</time>
</trkpt>
<trkpt lat="43.899468" lon="2.821508">
<ele>385.7</ele>
<time>2013-05-08T15:42:16.999Z</time>
</trkpt>
<trkpt lat="43.899235" lon="2.821513">
<ele>385.7</ele>
<time>2013-05-08T15:42:17.999Z</time>
</trkpt>
<trkpt lat="43.899015" lon="2.821522">
<ele>385.9</ele>
<time>2013-05-08T15:42:18.999Z</time>
</trkpt>
<trkpt lat="43.898803" lon="2.82153">
<ele>386.1</ele>
<time>2013-05-08T15:42:19.999Z</time>
</trkpt>
<trkpt lat="43.898589" lon="2.821535">
<ele>386.2</ele>
<time>2013-05-08T15:42:20.999Z</time>
</trkpt>
<trkpt lat="43.898372" lon="2.82154">
<ele>386.4</ele>
<time>2013-05-08T15:42:21.999Z</time>
</trkpt>
<trkpt lat="43.898159" lon="2.821533">
<ele>386.3</ele>
<time>2013-05-08T15:42:22.999Z</time>
</trkpt>
<trkpt lat="43.897939" lon="2.821495">
<ele>386.1</ele>
<time>2013-05-08T15:42:23.999Z</time>
</trkpt>
<trkpt lat="43.89772" lon="2.821412">
<ele>385.8</ele>
<time>2013-05-08T15:42:24.999Z</time>
</trkpt>
<trkpt lat="43.897511" lon="2.821305">
<ele>385.9</ele>
<time>2013-05-08T15:42:25.999Z</time>
</trkpt>
<trkpt lat="43.897329" lon="2.821115">
<ele>386.5</ele>
<time>2013-05-08T15:42:26.999Z</time>
</trkpt>
<trkpt lat="43.897165" lon="2.820871">
<ele>386.8</ele>
<time>2013-05-08T15:42:27.999Z</time>
</trkpt>
<trkpt lat="43.897018" lon="2.820589">
<ele>387.3</ele>
<time>2013-05-08T15:42:28.999Z</time>
</trkpt>
<trkpt lat="43.896892" lon="2.82028">
<ele>388</ele>
<time>2013-05-08T15:42:29.999Z</time>
</trkpt>
<trkpt lat="43.896772" lon="2.819964">
<ele>388.7</ele>
<time>2013-05-08T15:42:30.999Z</time>
</trkpt>
<trkpt lat="43.896662" lon="2.819641">
<ele>389.2</ele>
<time>2013-05-08T15:42:31.999Z</time>
</trkpt>
<trkpt lat="43.896548" lon="2.819312">
<ele>389.4</ele>
<time>2013-05-08T15:42:32.999Z</time>
</trkpt>
<trkpt lat="43.896435" lon="2.818979">
<ele>389.4</ele>
<time>2013-05-08T15:42:33.999Z</time>
</trkpt>
<trkpt lat="43.896319" lon="2.818641">
<ele>389.3</ele>
<time>2013-05-08T15:42:34.999Z</time>
</trkpt>
<trkpt lat="43.896193" lon="2.818313">
<ele>389.3</ele>
<time>2013-05-08T15:42:35.999Z</time>
</trkpt>
<trkpt lat="43.896056" lon="2.818002">
<ele>389.5</ele>
<time>2013-05-08T15:42:36.999Z</time>
</trkpt>
<trkpt lat="43.895901" lon="2.817708">
<ele>389.4</ele>
<time>2013-05-08T15:42:37.999Z</time>
</trkpt>
<trkpt lat="43.89573" lon="2.817441">
<ele>389.9</ele>
<time>2013-05-08T15:42:38.999Z</time>
</trkpt>
<trkpt lat="43.895547" lon="2.817178">
<ele>390.5</ele>
<time>2013-05-08T15:42:39.999Z</time>
</trkpt>
<trkpt lat="43.895314" lon="2.816997">
<ele>390.9</ele>
<time>2013-05-08T15:42:40.999Z</time>
</trkpt>
<trkpt lat="43.895074" lon="2.81685">
<ele>391.5</ele>
<time>2013-05-08T15:42:41.999Z</time>
</trkpt>
<trkpt lat="43.894846" lon="2.816742">
<ele>392.2</ele>
<time>2013-05-08T15:42:42.999Z</time>
</trkpt>
<trkpt lat="43.89465" lon="2.816643">
<ele>392.8</ele>
<time>2013-05-08T15:42:43.999Z</time>
</trkpt>
<trkpt lat="43.894466" lon="2.816563">
<ele>394</ele>
<time>2013-05-08T15:42:44.999Z</time>
</trkpt>
<trkpt lat="43.894292" lon="2.816501">
<ele>394.7</ele>
<time>2013-05-08T15:42:45.999Z</time>
</trkpt>
<trkpt lat="43.894114" lon="2.816442">
<ele>395.7</ele>
<time>2013-05-08T15:42:46.999Z</time>
</trkpt>
<trkpt lat="43.893951" lon="2.816389">
<ele>396</ele>
<time>2013-05-08T15:42:47.999Z</time>
</trkpt>
<trkpt lat="43.893789" lon="2.81633">
<ele>396.5</ele>
<time>2013-05-08T15:42:48.999Z</time>
</trkpt>
<trkpt lat="43.893634" lon="2.816266">
<ele>396.7</ele>
<time>2013-05-08T15:42:49.999Z</time>
</trkpt>
<trkpt lat="43.893505" lon="2.816197">
<ele>396.1</ele>
<time>2013-05-08T15:42:50.999Z</time>
</trkpt>
<trkpt lat="43.893375" lon="2.816112">
<ele>395.6</ele>
<time>2013-05-08T15:42:51.999Z</time>
</trkpt>
<trkpt lat="43.89327" lon="2.815996">
<ele>395.1</ele>
<time>2013-05-08T15:42:52.999Z</time>
</trkpt>
<trkpt lat="43.89316" lon="2.815878">
<ele>394.6</ele>
<time>2013-05-08T15:42:53.999Z</time>
</trkpt>
<trkpt lat="43.893052" lon="2.815752">
<ele>394.1</ele>
<time>2013-05-08T15:42:54.999Z</time>
</trkpt>
<trkpt lat="43.892943" lon="2.81562">
<ele>392.9</ele>
<time>2013-05-08T15:42:55.999Z</time>
</trkpt>
<trkpt lat="43.892842" lon="2.815484">
<ele>391.6</ele>
<time>2013-05-08T15:42:56.999Z</time>
</trkpt>
<trkpt lat="43.892745" lon="2.815343">
<ele>390.2</ele>
<time>2013-05-08T15:42:57.999Z</time>
</trkpt>
<trkpt lat="43.892656" lon="2.815206">
<ele>389.2</ele>
<time>2013-05-08T15:42:58.999Z</time>
</trkpt>
<trkpt lat="43.89257" lon="2.815071">
<ele>388.4</ele>
<time>2013-05-08T15:42:59.999Z</time>
</trkpt>
<trkpt lat="43.892473" lon="2.814928">
<ele>388.1</ele>
<time>2013-05-08T15:43:00.999Z</time>
</trkpt>
<trkpt lat="43.892374" lon="2.814794">
<ele>387.9</ele>
<time>2013-05-08T15:43:01.999Z</time>
</trkpt>
<trkpt lat="43.892273" lon="2.814673">
<ele>388</ele>
<time>2013-05-08T15:43:02.999Z</time>
</trkpt>
<trkpt lat="43.892168" lon="2.814561">
<ele>388.7</ele>
<time>2013-05-08T15:43:03.999Z</time>
</trkpt>
<trkpt lat="43.89207" lon="2.814471">
<ele>389.8</ele>
<time>2013-05-08T15:43:04.999Z</time>
</trkpt>
<trkpt lat="43.891962" lon="2.814384">
<ele>390.9</ele>
<time>2013-05-08T15:43:05.999Z</time>
</trkpt>
<trkpt lat="43.891852" lon="2.814316">
<ele>391.9</ele>
<time>2013-05-08T15:43:06.999Z</time>
</trkpt>
<trkpt lat="43.891698" lon="2.814275">
<ele>392.8</ele>
<time>2013-05-08T15:43:07.999Z</time>
</trkpt>
<trkpt lat="43.891527" lon="2.814223">
<ele>393.7</ele>
<time>2013-05-08T15:43:08.999Z</time>
</trkpt>
<trkpt lat="43.891361" lon="2.814171">
<ele>394.6</ele>
<time>2013-05-08T15:43:09.999Z</time>
</trkpt>
<trkpt lat="43.891218" lon="2.814127">
<ele>395.3</ele>
<time>2013-05-08T15:43:10.999Z</time>
</trkpt>
<trkpt lat="43.891084" lon="2.814097">
<ele>395.8</ele>
<time>2013-05-08T15:43:11.999Z</time>
</trkpt>
<trkpt lat="43.890957" lon="2.814068">
<ele>396.3</ele>
<time>2013-05-08T15:43:12.999Z</time>
</trkpt>
<trkpt lat="43.89084" lon="2.814044">
<ele>396.4</ele>
<time>2013-05-08T15:43:13.999Z</time>
</trkpt>
<trkpt lat="43.890725" lon="2.814022">
<ele>395.9</ele>
<time>2013-05-08T15:43:14.999Z</time>
</trkpt>
<trkpt lat="43.890593" lon="2.813992">
<ele>395.6</ele>
<time>2013-05-08T15:43:15.999Z</time>
</trkpt>
<trkpt lat="43.890459" lon="2.813962">
<ele>395.4</ele>
<time>2013-05-08T15:43:16.999Z</time>
</trkpt>
<trkpt lat="43.890332" lon="2.813934">
<ele>395</ele>
<time>2013-05-08T15:43:17.999Z</time>
</trkpt>
<trkpt lat="43.890211" lon="2.8139">
<ele>394.8</ele>
<time>2013-05-08T15:43:18.999Z</time>
</trkpt>
<trkpt lat="43.89009" lon="2.813868">
<ele>394.7</ele>
<time>2013-05-08T15:43:19.999Z</time>
</trkpt>
<trkpt lat="43.889985" lon="2.813841">
<ele>394</ele>
<time>2013-05-08T15:43:20.999Z</time>
</trkpt>
<trkpt lat="43.889881" lon="2.813817">
<ele>393.1</ele>
<time>2013-05-08T15:43:21.999Z</time>
</trkpt>
<trkpt lat="43.889773" lon="2.81379">
<ele>392</ele>
<time>2013-05-08T15:43:22.999Z</time>
</trkpt>
<trkpt lat="43.889663" lon="2.813762">
<ele>390.9</ele>
<time>2013-05-08T15:43:23.999Z</time>
</trkpt>
<trkpt lat="43.889553" lon="2.813733">
<ele>389.7</ele>
<time>2013-05-08T15:43:24.999Z</time>
</trkpt>
<trkpt lat="43.889446" lon="2.813703">
<ele>388.6</ele>
<time>2013-05-08T15:43:25.999Z</time>
</trkpt>
<trkpt lat="43.889338" lon="2.813672">
<ele>387.6</ele>
<time>2013-05-08T15:43:26.999Z</time>
</trkpt>
<trkpt lat="43.889231" lon="2.81364">
<ele>387</ele>
<time>2013-05-08T15:43:27.999Z</time>
</trkpt>
<trkpt lat="43.889118" lon="2.813608">
<ele>386.6</ele>
<time>2013-05-08T15:43:28.999Z</time>
</trkpt>
<trkpt lat="43.888996" lon="2.813574">
<ele>386.7</ele>
<time>2013-05-08T15:43:29.999Z</time>
</trkpt>
<trkpt lat="43.888865" lon="2.813541">
<ele>387.1</ele>
<time>2013-05-08T15:43:30.999Z</time>
</trkpt>
<trkpt lat="43.888732" lon="2.813508">
<ele>387.8</ele>
<time>2013-05-08T15:43:31.999Z</time>
</trkpt>
<trkpt lat="43.8886" lon="2.813475">
<ele>388.7</ele>
<time>2013-05-08T15:43:32.999Z</time>
</trkpt>
<trkpt lat="43.888475" lon="2.813439">
<ele>389.5</ele>
<time>2013-05-08T15:43:33.999Z</time>
</trkpt>
<trkpt lat="43.888359" lon="2.813406">
<ele>390.6</ele>
<time>2013-05-08T15:43:34.999Z</time>
</trkpt>
<trkpt lat="43.888258" lon="2.813379">
<ele>391</ele>
<time>2013-05-08T15:43:35.999Z</time>
</trkpt>
<trkpt lat="43.888156" lon="2.813348">
<ele>391.8</ele>
<time>2013-05-08T15:43:36.999Z</time>
</trkpt>
<trkpt lat="43.888064" lon="2.81332">
<ele>392.4</ele>
<time>2013-05-08T15:43:37.999Z</time>
</trkpt>
<trkpt lat="43.887971" lon="2.813293">
<ele>392.7</ele>
<time>2013-05-08T15:43:38.999Z</time>
</trkpt>
<trkpt lat="43.887875" lon="2.813265">
<ele>392.8</ele>
<time>2013-05-08T15:43:39.999Z</time>
</trkpt>
<trkpt lat="43.887777" lon="2.813235">
<ele>392.7</ele>
<time>2013-05-08T15:43:40.999Z</time>
</trkpt>
<trkpt lat="43.887682" lon="2.813207">
<ele>392.5</ele>
<time>2013-05-08T15:43:41.999Z</time>
</trkpt>
<trkpt lat="43.887591" lon="2.813182">
<ele>392.4</ele>
<time>2013-05-08T15:43:42.999Z</time>
</trkpt>
<trkpt lat="43.887503" lon="2.813161">
<ele>392.2</ele>
<time>2013-05-08T15:43:43.999Z</time>
</trkpt>
<trkpt lat="43.887415" lon="2.81314">
<ele>392</ele>
<time>2013-05-08T15:43:44.999Z</time>
</trkpt>
<trkpt lat="43.887327" lon="2.813118">
<ele>391.7</ele>
<time>2013-05-08T15:43:45.999Z</time>
</trkpt>
<trkpt lat="43.887239" lon="2.813094">
<ele>391.4</ele>
<time>2013-05-08T15:43:46.999Z</time>
</trkpt>
<trkpt lat="43.887155" lon="2.813065">
<ele>391</ele>
<time>2013-05-08T15:43:47.999Z</time>
</trkpt>
<trkpt lat="43.887094" lon="2.813025">
<ele>390.9</ele>
<time>2013-05-08T15:43:48.999Z</time>
</trkpt>
<trkpt lat="43.88704" lon="2.81299">
<ele>391</ele>
<time>2013-05-08T15:43:49.999Z</time>
</trkpt>
<trkpt lat="43.886981" lon="2.812975">
<ele>391.2</ele>
<time>2013-05-08T15:43:50.999Z</time>
</trkpt>
<trkpt lat="43.886916" lon="2.812971">
<ele>391.3</ele>
<time>2013-05-08T15:43:51.999Z</time>
</trkpt>
<trkpt lat="43.886855" lon="2.813054">
<ele>391.1</ele>
<time>2013-05-08T15:43:52.999Z</time>
</trkpt>
<trkpt lat="43.886786" lon="2.813141">
<ele>390.4</ele>
<time>2013-05-08T15:43:53.999Z</time>
</trkpt>
<trkpt lat="43.886712" lon="2.813233">
<ele>389.5</ele>
<time>2013-05-08T15:43:54.999Z</time>
</trkpt>
<trkpt lat="43.886623" lon="2.813348">
<ele>388.6</ele>
<time>2013-05-08T15:43:55.999Z</time>
</trkpt>
<trkpt lat="43.886519" lon="2.813473">
<ele>387.9</ele>
<time>2013-05-08T15:43:56.999Z</time>
</trkpt>
<trkpt lat="43.886407" lon="2.813607">
<ele>387.3</ele>
<time>2013-05-08T15:43:57.999Z</time>
</trkpt>
<trkpt lat="43.886281" lon="2.813756">
<ele>386.9</ele>
<time>2013-05-08T15:43:58.999Z</time>
</trkpt>
<trkpt lat="43.886145" lon="2.813917">
<ele>386.6</ele>
<time>2013-05-08T15:43:59.999Z</time>
</trkpt>
<trkpt lat="43.886002" lon="2.814085">
<ele>386.5</ele>
<time>2013-05-08T15:44:00.999Z</time>
</trkpt>
<trkpt lat="43.88586" lon="2.81425">
<ele>386.5</ele>
<time>2013-05-08T15:44:01.999Z</time>
</trkpt>
<trkpt lat="43.885714" lon="2.814423">
<ele>386.3</ele>
<time>2013-05-08T15:44:02.999Z</time>
</trkpt>
<trkpt lat="43.885585" lon="2.814597">
<ele>386.3</ele>
<time>2013-05-08T15:44:03.999Z</time>
</trkpt>
<trkpt lat="43.885464" lon="2.814799">
<ele>386.4</ele>
<time>2013-05-08T15:44:04.999Z</time>
</trkpt>
<trkpt lat="43.885355" lon="2.815021">
<ele>386.7</ele>
<time>2013-05-08T15:44:05.999Z</time>
</trkpt>
<trkpt lat="43.885247" lon="2.815262">
<ele>387.6</ele>
<time>2013-05-08T15:44:06.999Z</time>
</trkpt>
<trkpt lat="43.885145" lon="2.815511">
<ele>388.4</ele>
<time>2013-05-08T15:44:07.999Z</time>
</trkpt>
<trkpt lat="43.885043" lon="2.815754">
<ele>389</ele>
<time>2013-05-08T15:44:08.999Z</time>
</trkpt>
<trkpt lat="43.884941" lon="2.815994">
<ele>389.5</ele>
<time>2013-05-08T15:44:09.999Z</time>
</trkpt>
<trkpt lat="43.884838" lon="2.816237">
<ele>390</ele>
<time>2013-05-08T15:44:10.999Z</time>
</trkpt>
<trkpt lat="43.884738" lon="2.816474">
<ele>390.4</ele>
<time>2013-05-08T15:44:11.999Z</time>
</trkpt>
<trkpt lat="43.884642" lon="2.816713">
<ele>390.8</ele>
<time>2013-05-08T15:44:12.999Z</time>
</trkpt>
<trkpt lat="43.884552" lon="2.816953">
<ele>390.9</ele>
<time>2013-05-08T15:44:13.999Z</time>
</trkpt>
<trkpt lat="43.884454" lon="2.817195">
<ele>391.1</ele>
<time>2013-05-08T15:44:14.999Z</time>
</trkpt>
<trkpt lat="43.884361" lon="2.81743">
<ele>391.2</ele>
<time>2013-05-08T15:44:15.999Z</time>
</trkpt>
<trkpt lat="43.884273" lon="2.817658">
<ele>391.5</ele>
<time>2013-05-08T15:44:16.999Z</time>
</trkpt>
<trkpt lat="43.884195" lon="2.817887">
<ele>391.2</ele>
<time>2013-05-08T15:44:17.999Z</time>
</trkpt>
<trkpt lat="43.884113" lon="2.818107">
<ele>391.1</ele>
<time>2013-05-08T15:44:18.999Z</time>
</trkpt>
<trkpt lat="43.884032" lon="2.818317">
<ele>391.1</ele>
<time>2013-05-08T15:44:19.999Z</time>
</trkpt>
<trkpt lat="43.88395" lon="2.818527">
<ele>391.6</ele>
<time>2013-05-08T15:44:20.999Z</time>
</trkpt>
<trkpt lat="43.883863" lon="2.818735">
<ele>392.1</ele>
<time>2013-05-08T15:44:21.999Z</time>
</trkpt>
<trkpt lat="43.883776" lon="2.818934">
<ele>392.5</ele>
<time>2013-05-08T15:44:22.999Z</time>
</trkpt>
<trkpt lat="43.883654" lon="2.8191">
<ele>392.5</ele>
<time>2013-05-08T15:44:23.999Z</time>
</trkpt>
<trkpt lat="43.883516" lon="2.819257">
<ele>392.4</ele>
<time>2013-05-08T15:44:24.999Z</time>
</trkpt>
<trkpt lat="43.883338" lon="2.81936">
<ele>391.8</ele>
<time>2013-05-08T15:44:25.999Z</time>
</trkpt>
<trkpt lat="43.883135" lon="2.819463">
<ele>391.2</ele>
<time>2013-05-08T15:44:26.999Z</time>
</trkpt>
<trkpt lat="43.882914" lon="2.819533">
<ele>390.9</ele>
<time>2013-05-08T15:44:27.999Z</time>
</trkpt>
<trkpt lat="43.8827" lon="2.819594">
<ele>390.6</ele>
<time>2013-05-08T15:44:28.999Z</time>
</trkpt>
<trkpt lat="43.882488" lon="2.819663">
<ele>390.5</ele>
<time>2013-05-08T15:44:29.999Z</time>
</trkpt>
<trkpt lat="43.882284" lon="2.819724">
<ele>390.7</ele>
<time>2013-05-08T15:44:30.999Z</time>
</trkpt>
<trkpt lat="43.882089" lon="2.81978">
<ele>390.8</ele>
<time>2013-05-08T15:44:31.999Z</time>
</trkpt>
<trkpt lat="43.881898" lon="2.819834">
<ele>391</ele>
<time>2013-05-08T15:44:32.999Z</time>
</trkpt>
<trkpt lat="43.881723" lon="2.81989">
<ele>391.4</ele>
<time>2013-05-08T15:44:33.999Z</time>
</trkpt>
<trkpt lat="43.881547" lon="2.819941">
<ele>391.8</ele>
<time>2013-05-08T15:44:34.999Z</time>
</trkpt>
<trkpt lat="43.881383" lon="2.81999">
<ele>392</ele>
<time>2013-05-08T15:44:35.999Z</time>
</trkpt>
<trkpt lat="43.881232" lon="2.820034">
<ele>392.1</ele>
<time>2013-05-08T15:44:36.999Z</time>
</trkpt>
<trkpt lat="43.881093" lon="2.820075">
<ele>391.9</ele>
<time>2013-05-08T15:44:37.999Z</time>
</trkpt>
<trkpt lat="43.880955" lon="2.820122">
<ele>391.5</ele>
<time>2013-05-08T15:44:38.999Z</time>
</trkpt>
<trkpt lat="43.880817" lon="2.820166">
<ele>391</ele>
<time>2013-05-08T15:44:39.999Z</time>
</trkpt>
<trkpt lat="43.880659" lon="2.82021">
<ele>390.7</ele>
<time>2013-05-08T15:44:40.999Z</time>
</trkpt>
<trkpt lat="43.880499" lon="2.820242">
<ele>390.6</ele>
<time>2013-05-08T15:44:41.999Z</time>
</trkpt>
<trkpt lat="43.880339" lon="2.820249">
<ele>390.8</ele>
<time>2013-05-08T15:44:42.999Z</time>
</trkpt>
<trkpt lat="43.880174" lon="2.820217">
<ele>391</ele>
<time>2013-05-08T15:44:43.999Z</time>
</trkpt>
<trkpt lat="43.879995" lon="2.820152">
<ele>391.1</ele>
<time>2013-05-08T15:44:44.999Z</time>
</trkpt>
<trkpt lat="43.879817" lon="2.820072">
<ele>391.1</ele>
<time>2013-05-08T15:44:45.999Z</time>
</trkpt>
<trkpt lat="43.879639" lon="2.820012">
<ele>391.2</ele>
<time>2013-05-08T15:44:46.999Z</time>
</trkpt>
<trkpt lat="43.879463" lon="2.819953">
<ele>391.4</ele>
<time>2013-05-08T15:44:47.999Z</time>
</trkpt>
<trkpt lat="43.87929" lon="2.81989">
<ele>391.7</ele>
<time>2013-05-08T15:44:48.999Z</time>
</trkpt>
<trkpt lat="43.87912" lon="2.819836">
<ele>392.1</ele>
<time>2013-05-08T15:44:49.999Z</time>
</trkpt>
<trkpt lat="43.878953" lon="2.81978">
<ele>392.6</ele>
<time>2013-05-08T15:44:50.999Z</time>
</trkpt>
<trkpt lat="43.878782" lon="2.819735">
<ele>393</ele>
<time>2013-05-08T15:44:51.999Z</time>
</trkpt>
<trkpt lat="43.878605" lon="2.819704">
<ele>393.5</ele>
<time>2013-05-08T15:44:52.999Z</time>
</trkpt>
<trkpt lat="43.878406" lon="2.819735">
<ele>394.1</ele>
<time>2013-05-08T15:44:53.999Z</time>
</trkpt>
<trkpt lat="43.878186" lon="2.819775">
<ele>394.9</ele>
<time>2013-05-08T15:44:54.999Z</time>
</trkpt>
<trkpt lat="43.877959" lon="2.819835">
<ele>395.6</ele>
<time>2013-05-08T15:44:55.999Z</time>
</trkpt>
<trkpt lat="43.87771" lon="2.819903">
<ele>396.4</ele>
<time>2013-05-08T15:44:56.999Z</time>
</trkpt>
<trkpt lat="43.877447" lon="2.819972">
<ele>396.9</ele>
<time>2013-05-08T15:44:57.999Z</time>
</trkpt>
<trkpt lat="43.877188" lon="2.820043">
<ele>397.2</ele>
<time>2013-05-08T15:44:58.999Z</time>
</trkpt>
<trkpt lat="43.876928" lon="2.820112">
<ele>397.4</ele>
<time>2013-05-08T15:44:59.999Z</time>
</trkpt>
<trkpt lat="43.876676" lon="2.820183">
<ele>397.9</ele>
<time>2013-05-08T15:45:00.999Z</time>
</trkpt>
<trkpt lat="43.87643" lon="2.820254">
<ele>398.6</ele>
<time>2013-05-08T15:45:01.999Z</time>
</trkpt>
<trkpt lat="43.876188" lon="2.820325">
<ele>399.4</ele>
<time>2013-05-08T15:45:02.999Z</time>
</trkpt>
<trkpt lat="43.875953" lon="2.820398">
<ele>400.2</ele>
<time>2013-05-08T15:45:03.999Z</time>
</trkpt>
<trkpt lat="43.875718" lon="2.820474">
<ele>401.3</ele>
<time>2013-05-08T15:45:04.999Z</time>
</trkpt>
<trkpt lat="43.87549" lon="2.820548">
<ele>402.5</ele>
<time>2013-05-08T15:45:05.999Z</time>
</trkpt>
<trkpt lat="43.875263" lon="2.820627">
<ele>403.6</ele>
<time>2013-05-08T15:45:06.999Z</time>
</trkpt>
<trkpt lat="43.875045" lon="2.820709">
<ele>404.7</ele>
<time>2013-05-08T15:45:07.999Z</time>
</trkpt>
<trkpt lat="43.874829" lon="2.820809">
<ele>405.8</ele>
<time>2013-05-08T15:45:08.999Z</time>
</trkpt>
<trkpt lat="43.874617" lon="2.820923">
<ele>407.1</ele>
<time>2013-05-08T15:45:09.999Z</time>
</trkpt>
<trkpt lat="43.874409" lon="2.821037">
<ele>408</ele>
<time>2013-05-08T15:45:10.999Z</time>
</trkpt>
<trkpt lat="43.874208" lon="2.821145">
<ele>408.6</ele>
<time>2013-05-08T15:45:11.999Z</time>
</trkpt>
<trkpt lat="43.874025" lon="2.821255">
<ele>409.4</ele>
<time>2013-05-08T15:45:12.999Z</time>
</trkpt>
<trkpt lat="43.873832" lon="2.821357">
<ele>409.8</ele>
<time>2013-05-08T15:45:13.999Z</time>
</trkpt>
<trkpt lat="43.873643" lon="2.821459">
<ele>409.9</ele>
<time>2013-05-08T15:45:14.999Z</time>
</trkpt>
<trkpt lat="43.873449" lon="2.821566">
<ele>410.1</ele>
<time>2013-05-08T15:45:15.999Z</time>
</trkpt>
<trkpt lat="43.873264" lon="2.821664">
<ele>410.5</ele>
<time>2013-05-08T15:45:16.999Z</time>
</trkpt>
<trkpt lat="43.873058" lon="2.821743">
<ele>411.1</ele>
<time>2013-05-08T15:45:17.999Z</time>
</trkpt>
<trkpt lat="43.872842" lon="2.82179">
<ele>411.6</ele>
<time>2013-05-08T15:45:18.999Z</time>
</trkpt>
<trkpt lat="43.872617" lon="2.821798">
<ele>412.2</ele>
<time>2013-05-08T15:45:19.999Z</time>
</trkpt>
<trkpt lat="43.872385" lon="2.821765">
<ele>412.9</ele>
<time>2013-05-08T15:45:20.999Z</time>
</trkpt>
<trkpt lat="43.872158" lon="2.821702">
<ele>413.6</ele>
<time>2013-05-08T15:45:21.999Z</time>
</trkpt>
<trkpt lat="43.871938" lon="2.821601">
<ele>414</ele>
<time>2013-05-08T15:45:22.999Z</time>
</trkpt>
<trkpt lat="43.871729" lon="2.821486">
<ele>413.9</ele>
<time>2013-05-08T15:45:23.999Z</time>
</trkpt>
<trkpt lat="43.871522" lon="2.82136">
<ele>413.7</ele>
<time>2013-05-08T15:45:24.999Z</time>
</trkpt>
<trkpt lat="43.871327" lon="2.821238">
<ele>413.5</ele>
<time>2013-05-08T15:45:25.999Z</time>
</trkpt>
<trkpt lat="43.87114" lon="2.821136">
<ele>413.1</ele>
<time>2013-05-08T15:45:26.999Z</time>
</trkpt>
<trkpt lat="43.870955" lon="2.821066">
<ele>412.5</ele>
<time>2013-05-08T15:45:27.999Z</time>
</trkpt>
<trkpt lat="43.870767" lon="2.821022">
<ele>411.8</ele>
<time>2013-05-08T15:45:28.999Z</time>
</trkpt>
<trkpt lat="43.870571" lon="2.821011">
<ele>411</ele>
<time>2013-05-08T15:45:29.999Z</time>
</trkpt>
<trkpt lat="43.870378" lon="2.82103">
<ele>410</ele>
<time>2013-05-08T15:45:30.999Z</time>
</trkpt>
<trkpt lat="43.870181" lon="2.821093">
<ele>409.2</ele>
<time>2013-05-08T15:45:31.999Z</time>
</trkpt>
<trkpt lat="43.869991" lon="2.821182">
<ele>407.9</ele>
<time>2013-05-08T15:45:32.999Z</time>
</trkpt>
<trkpt lat="43.869795" lon="2.821292">
<ele>406.4</ele>
<time>2013-05-08T15:45:33.999Z</time>
</trkpt>
<trkpt lat="43.869594" lon="2.821432">
<ele>405</ele>
<time>2013-05-08T15:45:34.999Z</time>
</trkpt>
<trkpt lat="43.869389" lon="2.821576">
<ele>403.6</ele>
<time>2013-05-08T15:45:35.999Z</time>
</trkpt>
<trkpt lat="43.869184" lon="2.821735">
<ele>402</ele>
<time>2013-05-08T15:45:36.999Z</time>
</trkpt>
<trkpt lat="43.868977" lon="2.821905">
<ele>400.7</ele>
<time>2013-05-08T15:45:37.999Z</time>
</trkpt>
<trkpt lat="43.868762" lon="2.822082">
<ele>399.9</ele>
<time>2013-05-08T15:45:38.999Z</time>
</trkpt>
<trkpt lat="43.868534" lon="2.822269">
<ele>399.1</ele>
<time>2013-05-08T15:45:39.999Z</time>
</trkpt>
<trkpt lat="43.868308" lon="2.822453">
<ele>398.5</ele>
<time>2013-05-08T15:45:40.999Z</time>
</trkpt>
<trkpt lat="43.868083" lon="2.822632">
<ele>398.1</ele>
<time>2013-05-08T15:45:41.999Z</time>
</trkpt>
<trkpt lat="43.867859" lon="2.822813">
<ele>397.9</ele>
<time>2013-05-08T15:45:42.999Z</time>
</trkpt>
<trkpt lat="43.867627" lon="2.822993">
<ele>397.9</ele>
<time>2013-05-08T15:45:43.999Z</time>
</trkpt>
<trkpt lat="43.867385" lon="2.823178">
<ele>398</ele>
<time>2013-05-08T15:45:44.999Z</time>
</trkpt>
<trkpt lat="43.867145" lon="2.823362">
<ele>398.1</ele>
<time>2013-05-08T15:45:45.999Z</time>
</trkpt>
<trkpt lat="43.866909" lon="2.823542">
<ele>398.2</ele>
<time>2013-05-08T15:45:46.999Z</time>
</trkpt>
<trkpt lat="43.866684" lon="2.823719">
<ele>398.6</ele>
<time>2013-05-08T15:45:47.999Z</time>
</trkpt>
<trkpt lat="43.866461" lon="2.823893">
<ele>398.9</ele>
<time>2013-05-08T15:45:48.999Z</time>
</trkpt>
<trkpt lat="43.866239" lon="2.824062">
<ele>399.5</ele>
<time>2013-05-08T15:45:49.999Z</time>
</trkpt>
<trkpt lat="43.866024" lon="2.824228">
<ele>400.1</ele>
<time>2013-05-08T15:45:50.999Z</time>
</trkpt>
<trkpt lat="43.865811" lon="2.824388">
<ele>400.9</ele>
<time>2013-05-08T15:45:51.999Z</time>
</trkpt>
<trkpt lat="43.865595" lon="2.824553">
<ele>401.9</ele>
<time>2013-05-08T15:45:52.999Z</time>
</trkpt>
<trkpt lat="43.865387" lon="2.824712">
<ele>402.8</ele>
<time>2013-05-08T15:45:53.999Z</time>
</trkpt>
<trkpt lat="43.86518" lon="2.82487">
<ele>403.7</ele>
<time>2013-05-08T15:45:54.999Z</time>
</trkpt>
<trkpt lat="43.864977" lon="2.825023">
<ele>404.4</ele>
<time>2013-05-08T15:45:55.999Z</time>
</trkpt>
<trkpt lat="43.864772" lon="2.82517">
<ele>405.1</ele>
<time>2013-05-08T15:45:56.999Z</time>
</trkpt>
<trkpt lat="43.864567" lon="2.825322">
<ele>405.8</ele>
<time>2013-05-08T15:45:57.999Z</time>
</trkpt>
<trkpt lat="43.864365" lon="2.825467">
<ele>406.5</ele>
<time>2013-05-08T15:45:58.999Z</time>
</trkpt>
<trkpt lat="43.864161" lon="2.825604">
<ele>407.2</ele>
<time>2013-05-08T15:45:59.999Z</time>
</trkpt>
<trkpt lat="43.86395" lon="2.825743">
<ele>408.1</ele>
<time>2013-05-08T15:46:00.999Z</time>
</trkpt>
<trkpt lat="43.863736" lon="2.825881">
<ele>408.8</ele>
<time>2013-05-08T15:46:01.999Z</time>
</trkpt>
<trkpt lat="43.863515" lon="2.826023">
<ele>409.2</ele>
<time>2013-05-08T15:46:02.999Z</time>
</trkpt>
<trkpt lat="43.863282" lon="2.826175">
<ele>409.6</ele>
<time>2013-05-08T15:46:03.999Z</time>
</trkpt>
<trkpt lat="43.863045" lon="2.826324">
<ele>409.9</ele>
<time>2013-05-08T15:46:04.999Z</time>
</trkpt>
<trkpt lat="43.862806" lon="2.826475">
<ele>410.5</ele>
<time>2013-05-08T15:46:05.999Z</time>
</trkpt>
<trkpt lat="43.862567" lon="2.826627">
<ele>411.1</ele>
<time>2013-05-08T15:46:06.999Z</time>
</trkpt>
<trkpt lat="43.862329" lon="2.826784">
<ele>411.6</ele>
<time>2013-05-08T15:46:07.999Z</time>
</trkpt>
<trkpt lat="43.862093" lon="2.82694">
<ele>412.2</ele>
<time>2013-05-08T15:46:08.999Z</time>
</trkpt>
<trkpt lat="43.861856" lon="2.827097">
<ele>412.8</ele>
<time>2013-05-08T15:46:09.999Z</time>
</trkpt>
<trkpt lat="43.861623" lon="2.827255">
<ele>413.3</ele>
<time>2013-05-08T15:46:10.999Z</time>
</trkpt>
<trkpt lat="43.861389" lon="2.827417">
<ele>413.7</ele>
<time>2013-05-08T15:46:11.999Z</time>
</trkpt>
<trkpt lat="43.861149" lon="2.827578">
<ele>414.1</ele>
<time>2013-05-08T15:46:12.999Z</time>
</trkpt>
<trkpt lat="43.860913" lon="2.827732">
<ele>414.2</ele>
<time>2013-05-08T15:46:13.999Z</time>
</trkpt>
<trkpt lat="43.860685" lon="2.827882">
<ele>414.4</ele>
<time>2013-05-08T15:46:14.999Z</time>
</trkpt>
<trkpt lat="43.860463" lon="2.828029">
<ele>414.7</ele>
<time>2013-05-08T15:46:15.999Z</time>
</trkpt>
<trkpt lat="43.860248" lon="2.828179">
<ele>415.2</ele>
<time>2013-05-08T15:46:16.999Z</time>
</trkpt>
<trkpt lat="43.860037" lon="2.828332">
<ele>415.6</ele>
<time>2013-05-08T15:46:17.999Z</time>
</trkpt>
<trkpt lat="43.859837" lon="2.828484">
<ele>416</ele>
<time>2013-05-08T15:46:18.999Z</time>
</trkpt>
<trkpt lat="43.859659" lon="2.828649">
<ele>416.1</ele>
<time>2013-05-08T15:46:19.999Z</time>
</trkpt>
<trkpt lat="43.859492" lon="2.828828">
<ele>415.9</ele>
<time>2013-05-08T15:46:20.999Z</time>
</trkpt>
<trkpt lat="43.859332" lon="2.829019">
<ele>415.7</ele>
<time>2013-05-08T15:46:21.999Z</time>
</trkpt>
<trkpt lat="43.859174" lon="2.829214">
<ele>415.4</ele>
<time>2013-05-08T15:46:22.999Z</time>
</trkpt>
<trkpt lat="43.859013" lon="2.829414">
<ele>415.2</ele>
<time>2013-05-08T15:46:23.999Z</time>
</trkpt>
<trkpt lat="43.858838" lon="2.82961">
<ele>415</ele>
<time>2013-05-08T15:46:24.999Z</time>
</trkpt>
<trkpt lat="43.858641" lon="2.829768">
<ele>414.6</ele>
<time>2013-05-08T15:46:25.999Z</time>
</trkpt>
<trkpt lat="43.858433" lon="2.829911">
<ele>414.3</ele>
<time>2013-05-08T15:46:26.999Z</time>
</trkpt>
<trkpt lat="43.858216" lon="2.830042">
<ele>414.3</ele>
<time>2013-05-08T15:46:27.999Z</time>
</trkpt>
<trkpt lat="43.857998" lon="2.830157">
<ele>414.1</ele>
<time>2013-05-08T15:46:28.999Z</time>
</trkpt>
<trkpt lat="43.85778" lon="2.830259">
<ele>413.9</ele>
<time>2013-05-08T15:46:29.999Z</time>
</trkpt>
<trkpt lat="43.85757" lon="2.830346">
<ele>413.6</ele>
<time>2013-05-08T15:46:30.999Z</time>
</trkpt>
<trkpt lat="43.857362" lon="2.830417">
<ele>413.2</ele>
<time>2013-05-08T15:46:31.999Z</time>
</trkpt>
<trkpt lat="43.857144" lon="2.830462">
<ele>412.6</ele>
<time>2013-05-08T15:46:32.999Z</time>
</trkpt>
<trkpt lat="43.856916" lon="2.830488">
<ele>412.1</ele>
<time>2013-05-08T15:46:33.999Z</time>
</trkpt>
<trkpt lat="43.856685" lon="2.830503">
<ele>411.6</ele>
<time>2013-05-08T15:46:34.999Z</time>
</trkpt>
<trkpt lat="43.856453" lon="2.830512">
<ele>411.2</ele>
<time>2013-05-08T15:46:35.999Z</time>
</trkpt>
<trkpt lat="43.856216" lon="2.830519">
<ele>410.9</ele>
<time>2013-05-08T15:46:36.999Z</time>
</trkpt>
<trkpt lat="43.855979" lon="2.830528">
<ele>410.6</ele>
<time>2013-05-08T15:46:37.999Z</time>
</trkpt>
<trkpt lat="43.855742" lon="2.830534">
<ele>410.5</ele>
<time>2013-05-08T15:46:38.999Z</time>
</trkpt>
<trkpt lat="43.855516" lon="2.830543">
<ele>410.2</ele>
<time>2013-05-08T15:46:39.999Z</time>
</trkpt>
<trkpt lat="43.855298" lon="2.830554">
<ele>410</ele>
<time>2013-05-08T15:46:40.999Z</time>
</trkpt>
<trkpt lat="43.855083" lon="2.830554">
<ele>409.9</ele>
<time>2013-05-08T15:46:41.999Z</time>
</trkpt>
<trkpt lat="43.854879" lon="2.830552">
<ele>409.9</ele>
<time>2013-05-08T15:46:42.999Z</time>
</trkpt>
<trkpt lat="43.854685" lon="2.830543">
<ele>410.3</ele>
<time>2013-05-08T15:46:43.999Z</time>
</trkpt>
<trkpt lat="43.854499" lon="2.830544">
<ele>410.6</ele>
<time>2013-05-08T15:46:44.999Z</time>
</trkpt>
<trkpt lat="43.85432" lon="2.830547">
<ele>411.1</ele>
<time>2013-05-08T15:46:45.999Z</time>
</trkpt>
<trkpt lat="43.854148" lon="2.830549">
<ele>411.8</ele>
<time>2013-05-08T15:46:46.999Z</time>
</trkpt>
<trkpt lat="43.853976" lon="2.830542">
<ele>412.4</ele>
<time>2013-05-08T15:46:47.999Z</time>
</trkpt>
<trkpt lat="43.853807" lon="2.830519">
<ele>413.3</ele>
<time>2013-05-08T15:46:48.999Z</time>
</trkpt>
<trkpt lat="43.853635" lon="2.830493">
<ele>414</ele>
<time>2013-05-08T15:46:49.999Z</time>
</trkpt>
<trkpt lat="43.853457" lon="2.830461">
<ele>414.4</ele>
<time>2013-05-08T15:46:50.999Z</time>
</trkpt>
<trkpt lat="43.853267" lon="2.830424">
<ele>415</ele>
<time>2013-05-08T15:46:51.999Z</time>
</trkpt>
<trkpt lat="43.853077" lon="2.830367">
<ele>415.3</ele>
<time>2013-05-08T15:46:52.999Z</time>
</trkpt>
<trkpt lat="43.852893" lon="2.830312">
<ele>415.7</ele>
<time>2013-05-08T15:46:53.999Z</time>
</trkpt>
<trkpt lat="43.852704" lon="2.830246">
<ele>416.2</ele>
<time>2013-05-08T15:46:54.999Z</time>
</trkpt>
<trkpt lat="43.852507" lon="2.830176">
<ele>416.7</ele>
<time>2013-05-08T15:46:55.999Z</time>
</trkpt>
<trkpt lat="43.852301" lon="2.830109">
<ele>417.3</ele>
<time>2013-05-08T15:46:56.999Z</time>
</trkpt>
<trkpt lat="43.85208" lon="2.830051">
<ele>417.6</ele>
<time>2013-05-08T15:46:57.999Z</time>
</trkpt>
<trkpt lat="43.851848" lon="2.829993">
<ele>417.7</ele>
<time>2013-05-08T15:46:58.999Z</time>
</trkpt>
<trkpt lat="43.851604" lon="2.829938">
<ele>417.6</ele>
<time>2013-05-08T15:46:59.999Z</time>
</trkpt>
<trkpt lat="43.851359" lon="2.829903">
<ele>417.3</ele>
<time>2013-05-08T15:47:00.999Z</time>
</trkpt>
<trkpt lat="43.851111" lon="2.829875">
<ele>417</ele>
<time>2013-05-08T15:47:01.999Z</time>
</trkpt>
<trkpt lat="43.850872" lon="2.829845">
<ele>416.9</ele>
<time>2013-05-08T15:47:02.999Z</time>
</trkpt>
<trkpt lat="43.850645" lon="2.829811">
<ele>416.7</ele>
<time>2013-05-08T15:47:03.999Z</time>
</trkpt>
<trkpt lat="43.850423" lon="2.829788">
<ele>416.5</ele>
<time>2013-05-08T15:47:04.999Z</time>
</trkpt>
<trkpt lat="43.850209" lon="2.829793">
<ele>416.2</ele>
<time>2013-05-08T15:47:05.999Z</time>
</trkpt>
<trkpt lat="43.85" lon="2.829833">
<ele>415.7</ele>
<time>2013-05-08T15:47:06.999Z</time>
</trkpt>
<trkpt lat="43.849794" lon="2.829918">
<ele>415.1</ele>
<time>2013-05-08T15:47:07.999Z</time>
</trkpt>
<trkpt lat="43.849596" lon="2.830039">
<ele>414.3</ele>
<time>2013-05-08T15:47:08.999Z</time>
</trkpt>
<trkpt lat="43.849415" lon="2.830196">
<ele>413.5</ele>
<time>2013-05-08T15:47:09.999Z</time>
</trkpt>
<trkpt lat="43.849248" lon="2.830395">
<ele>413</ele>
<time>2013-05-08T15:47:10.999Z</time>
</trkpt>
<trkpt lat="43.849086" lon="2.830622">
<ele>412.6</ele>
<time>2013-05-08T15:47:11.999Z</time>
</trkpt>
<trkpt lat="43.848923" lon="2.830854">
<ele>411.9</ele>
<time>2013-05-08T15:47:12.999Z</time>
</trkpt>
<trkpt lat="43.848744" lon="2.831114">
<ele>411.3</ele>
<time>2013-05-08T15:47:13.999Z</time>
</trkpt>
<trkpt lat="43.848565" lon="2.831389">
<ele>410.9</ele>
<time>2013-05-08T15:47:14.999Z</time>
</trkpt>
<trkpt lat="43.848377" lon="2.831676">
<ele>410.5</ele>
<time>2013-05-08T15:47:15.999Z</time>
</trkpt>
<trkpt lat="43.84818" lon="2.831978">
<ele>410.2</ele>
<time>2013-05-08T15:47:16.999Z</time>
</trkpt>
<trkpt lat="43.847973" lon="2.83229">
<ele>410</ele>
<time>2013-05-08T15:47:17.999Z</time>
</trkpt>
<trkpt lat="43.847754" lon="2.832615">
<ele>409.9</ele>
<time>2013-05-08T15:47:18.999Z</time>
</trkpt>
<trkpt lat="43.847534" lon="2.832939">
<ele>409.9</ele>
<time>2013-05-08T15:47:19.999Z</time>
</trkpt>
<trkpt lat="43.847327" lon="2.833249">
<ele>410.1</ele>
<time>2013-05-08T15:47:20.999Z</time>
</trkpt>
<trkpt lat="43.847129" lon="2.833551">
<ele>410.6</ele>
<time>2013-05-08T15:47:21.999Z</time>
</trkpt>
<trkpt lat="43.846934" lon="2.833835">
<ele>411</ele>
<time>2013-05-08T15:47:22.999Z</time>
</trkpt>
<trkpt lat="43.84674" lon="2.834115">
<ele>411.6</ele>
<time>2013-05-08T15:47:23.999Z</time>
</trkpt>
<trkpt lat="43.84655" lon="2.834387">
<ele>412.2</ele>
<time>2013-05-08T15:47:24.999Z</time>
</trkpt>
<trkpt lat="43.846364" lon="2.834656">
<ele>412.6</ele>
<time>2013-05-08T15:47:25.999Z</time>
</trkpt>
<trkpt lat="43.846183" lon="2.834916">
<ele>412.9</ele>
<time>2013-05-08T15:47:26.999Z</time>
</trkpt>
<trkpt lat="43.846003" lon="2.835161">
<ele>413.5</ele>
<time>2013-05-08T15:47:27.999Z</time>
</trkpt>
<trkpt lat="43.845821" lon="2.835394">
<ele>414.3</ele>
<time>2013-05-08T15:47:28.999Z</time>
</trkpt>
<trkpt lat="43.845651" lon="2.835615">
<ele>415.4</ele>
<time>2013-05-08T15:47:29.999Z</time>
</trkpt>
<trkpt lat="43.845477" lon="2.835834">
<ele>416.5</ele>
<time>2013-05-08T15:47:30.999Z</time>
</trkpt>
<trkpt lat="43.845299" lon="2.836035">
<ele>417.3</ele>
<time>2013-05-08T15:47:31.999Z</time>
</trkpt>
<trkpt lat="43.845125" lon="2.836226">
<ele>418.1</ele>
<time>2013-05-08T15:47:32.999Z</time>
</trkpt>
<trkpt lat="43.844944" lon="2.836409">
<ele>419.1</ele>
<time>2013-05-08T15:47:33.999Z</time>
</trkpt>
<trkpt lat="43.844755" lon="2.836599">
<ele>420</ele>
<time>2013-05-08T15:47:34.999Z</time>
</trkpt>
<trkpt lat="43.844545" lon="2.836801">
<ele>420.8</ele>
<time>2013-05-08T15:47:35.999Z</time>
</trkpt>
<trkpt lat="43.844332" lon="2.837019">
<ele>421.5</ele>
<time>2013-05-08T15:47:36.999Z</time>
</trkpt>
<trkpt lat="43.844124" lon="2.837241">
<ele>421.9</ele>
<time>2013-05-08T15:47:37.999Z</time>
</trkpt>
<trkpt lat="43.843924" lon="2.83749">
<ele>422.1</ele>
<time>2013-05-08T15:47:38.999Z</time>
</trkpt>
<trkpt lat="43.843723" lon="2.83775">
<ele>422.1</ele>
<time>2013-05-08T15:47:39.999Z</time>
</trkpt>
<trkpt lat="43.843519" lon="2.838018">
<ele>422.2</ele>
<time>2013-05-08T15:47:40.999Z</time>
</trkpt>
<trkpt lat="43.843314" lon="2.838287">
<ele>422.2</ele>
<time>2013-05-08T15:47:41.999Z</time>
</trkpt>
<trkpt lat="43.843105" lon="2.83856">
<ele>422.3</ele>
<time>2013-05-08T15:47:42.999Z</time>
</trkpt>
<trkpt lat="43.842898" lon="2.838827">
<ele>422.4</ele>
<time>2013-05-08T15:47:43.999Z</time>
</trkpt>
<trkpt lat="43.842694" lon="2.839099">
<ele>422.4</ele>
<time>2013-05-08T15:47:44.999Z</time>
</trkpt>
<trkpt lat="43.84249" lon="2.839374">
<ele>422.5</ele>
<time>2013-05-08T15:47:45.999Z</time>
</trkpt>
<trkpt lat="43.842296" lon="2.839638">
<ele>422.5</ele>
<time>2013-05-08T15:47:46.999Z</time>
</trkpt>
<trkpt lat="43.842104" lon="2.839892">
<ele>422.3</ele>
<time>2013-05-08T15:47:47.999Z</time>
</trkpt>
<trkpt lat="43.841913" lon="2.840143">
<ele>422</ele>
<time>2013-05-08T15:47:48.999Z</time>
</trkpt>
<trkpt lat="43.841725" lon="2.840396">
<ele>421.6</ele>
<time>2013-05-08T15:47:49.999Z</time>
</trkpt>
<trkpt lat="43.841545" lon="2.840636">
<ele>421.3</ele>
<time>2013-05-08T15:47:50.999Z</time>
</trkpt>
<trkpt lat="43.841361" lon="2.840862">
<ele>420.9</ele>
<time>2013-05-08T15:47:51.999Z</time>
</trkpt>
<trkpt lat="43.841176" lon="2.841084">
<ele>420.4</ele>
<time>2013-05-08T15:47:52.999Z</time>
</trkpt>
<trkpt lat="43.840991" lon="2.841308">
<ele>420</ele>
<time>2013-05-08T15:47:53.999Z</time>
</trkpt>
<trkpt lat="43.840806" lon="2.841537">
<ele>419.8</ele>
<time>2013-05-08T15:47:54.999Z</time>
</trkpt>
<trkpt lat="43.840623" lon="2.841761">
<ele>419.7</ele>
<time>2013-05-08T15:47:55.999Z</time>
</trkpt>
<trkpt lat="43.840447" lon="2.841972">
<ele>419.7</ele>
<time>2013-05-08T15:47:56.999Z</time>
</trkpt>
<trkpt lat="43.840271" lon="2.84218">
<ele>419.8</ele>
<time>2013-05-08T15:47:57.999Z</time>
</trkpt>
<trkpt lat="43.840096" lon="2.842386">
<ele>420.1</ele>
<time>2013-05-08T15:47:58.999Z</time>
</trkpt>
<trkpt lat="43.839918" lon="2.842589">
<ele>420.3</ele>
<time>2013-05-08T15:47:59.999Z</time>
</trkpt>
<trkpt lat="43.839723" lon="2.842762">
<ele>420.3</ele>
<time>2013-05-08T15:48:00.999Z</time>
</trkpt>
<trkpt lat="43.839525" lon="2.842924">
<ele>420.2</ele>
<time>2013-05-08T15:48:01.999Z</time>
</trkpt>
<trkpt lat="43.839317" lon="2.843081">
<ele>419.7</ele>
<time>2013-05-08T15:48:02.999Z</time>
</trkpt>
<trkpt lat="43.839109" lon="2.843238">
<ele>419.2</ele>
<time>2013-05-08T15:48:03.999Z</time>
</trkpt>
<trkpt lat="43.838905" lon="2.843391">
<ele>418.7</ele>
<time>2013-05-08T15:48:04.999Z</time>
</trkpt>
<trkpt lat="43.838709" lon="2.843549">
<ele>418.1</ele>
<time>2013-05-08T15:48:05.999Z</time>
</trkpt>
<trkpt lat="43.838521" lon="2.843732">
<ele>417.5</ele>
<time>2013-05-08T15:48:06.999Z</time>
</trkpt>
<trkpt lat="43.838346" lon="2.843952">
<ele>417.1</ele>
<time>2013-05-08T15:48:07.999Z</time>
</trkpt>
<trkpt lat="43.838178" lon="2.844199">
<ele>416.7</ele>
<time>2013-05-08T15:48:08.999Z</time>
</trkpt>
<trkpt lat="43.838008" lon="2.844451">
<ele>416.5</ele>
<time>2013-05-08T15:48:09.999Z</time>
</trkpt>
<trkpt lat="43.837831" lon="2.844707">
<ele>416.7</ele>
<time>2013-05-08T15:48:10.999Z</time>
</trkpt>
<trkpt lat="43.837647" lon="2.844973">
<ele>417.2</ele>
<time>2013-05-08T15:48:11.999Z</time>
</trkpt>
<trkpt lat="43.83746" lon="2.845244">
<ele>417.9</ele>
<time>2013-05-08T15:48:12.999Z</time>
</trkpt>
<trkpt lat="43.837269" lon="2.84552">
<ele>418.8</ele>
<time>2013-05-08T15:48:13.999Z</time>
</trkpt>
<trkpt lat="43.837096" lon="2.845814">
<ele>419.3</ele>
<time>2013-05-08T15:48:14.999Z</time>
</trkpt>
<trkpt lat="43.836968" lon="2.846122">
<ele>419.8</ele>
<time>2013-05-08T15:48:15.999Z</time>
</trkpt>
<trkpt lat="43.83687" lon="2.846439">
<ele>420.4</ele>
<time>2013-05-08T15:48:16.999Z</time>
</trkpt>
<trkpt lat="43.836785" lon="2.846766">
<ele>421.2</ele>
<time>2013-05-08T15:48:17.999Z</time>
</trkpt>
<trkpt lat="43.836711" lon="2.84711">
<ele>422.2</ele>
<time>2013-05-08T15:48:18.999Z</time>
</trkpt>
<trkpt lat="43.836634" lon="2.84746">
<ele>423</ele>
<time>2013-05-08T15:48:19.999Z</time>
</trkpt>
<trkpt lat="43.836542" lon="2.847802">
<ele>423.7</ele>
<time>2013-05-08T15:48:20.999Z</time>
</trkpt>
<trkpt lat="43.836434" lon="2.848118">
<ele>424</ele>
<time>2013-05-08T15:48:21.999Z</time>
</trkpt>
<trkpt lat="43.836316" lon="2.848426">
<ele>424.2</ele>
<time>2013-05-08T15:48:22.999Z</time>
</trkpt>
<trkpt lat="43.836197" lon="2.84873">
<ele>424.3</ele>
<time>2013-05-08T15:48:23.999Z</time>
</trkpt>
<trkpt lat="43.836083" lon="2.849033">
<ele>424.1</ele>
<time>2013-05-08T15:48:24.999Z</time>
</trkpt>
<trkpt lat="43.835961" lon="2.849335">
<ele>423.9</ele>
<time>2013-05-08T15:48:25.999Z</time>
</trkpt>
<trkpt lat="43.835843" lon="2.849637">
<ele>423.6</ele>
<time>2013-05-08T15:48:26.999Z</time>
</trkpt>
<trkpt lat="43.835728" lon="2.849931">
<ele>423.3</ele>
<time>2013-05-08T15:48:27.999Z</time>
</trkpt>
<trkpt lat="43.835628" lon="2.850227">
<ele>422.9</ele>
<time>2013-05-08T15:48:28.999Z</time>
</trkpt>
<trkpt lat="43.835552" lon="2.850538">
<ele>422.6</ele>
<time>2013-05-08T15:48:29.999Z</time>
</trkpt>
<trkpt lat="43.835514" lon="2.850865">
<ele>422.4</ele>
<time>2013-05-08T15:48:30.999Z</time>
</trkpt>
<trkpt lat="43.835513" lon="2.851189">
<ele>422.2</ele>
<time>2013-05-08T15:48:31.999Z</time>
</trkpt>
<trkpt lat="43.835538" lon="2.851502">
<ele>422.2</ele>
<time>2013-05-08T15:48:32.999Z</time>
</trkpt>
<trkpt lat="43.835585" lon="2.851813">
<ele>422.3</ele>
<time>2013-05-08T15:48:33.999Z</time>
</trkpt>
<trkpt lat="43.83566" lon="2.852111">
<ele>422.4</ele>
<time>2013-05-08T15:48:34.999Z</time>
</trkpt>
<trkpt lat="43.835758" lon="2.852401">
<ele>422.5</ele>
<time>2013-05-08T15:48:35.999Z</time>
</trkpt>
<trkpt lat="43.835869" lon="2.85269">
<ele>422.5</ele>
<time>2013-05-08T15:48:36.999Z</time>
</trkpt>
<trkpt lat="43.835987" lon="2.852983">
<ele>422.4</ele>
<time>2013-05-08T15:48:37.999Z</time>
</trkpt>
<trkpt lat="43.836106" lon="2.853278">
<ele>422.1</ele>
<time>2013-05-08T15:48:38.999Z</time>
</trkpt>
<trkpt lat="43.836232" lon="2.853582">
<ele>421.8</ele>
<time>2013-05-08T15:48:39.999Z</time>
</trkpt>
<trkpt lat="43.836343" lon="2.853897">
<ele>421.7</ele>
<time>2013-05-08T15:48:40.999Z</time>
</trkpt>
<trkpt lat="43.83643" lon="2.854222">
<ele>421.6</ele>
<time>2013-05-08T15:48:41.999Z</time>
</trkpt>
<trkpt lat="43.836494" lon="2.854556">
<ele>421.5</ele>
<time>2013-05-08T15:48:42.999Z</time>
</trkpt>
<trkpt lat="43.83653" lon="2.854893">
<ele>421.7</ele>
<time>2013-05-08T15:48:43.999Z</time>
</trkpt>
<trkpt lat="43.83656" lon="2.855238">
<ele>422.1</ele>
<time>2013-05-08T15:48:44.999Z</time>
</trkpt>
<trkpt lat="43.836582" lon="2.855591">
<ele>422.5</ele>
<time>2013-05-08T15:48:45.999Z</time>
</trkpt>
<trkpt lat="43.836605" lon="2.855948">
<ele>422.8</ele>
<time>2013-05-08T15:48:46.999Z</time>
</trkpt>
<trkpt lat="43.836627" lon="2.856298">
<ele>422.9</ele>
<time>2013-05-08T15:48:47.999Z</time>
</trkpt>
<trkpt lat="43.83665" lon="2.856649">
<ele>423</ele>
<time>2013-05-08T15:48:48.999Z</time>
</trkpt>
<trkpt lat="43.836671" lon="2.857005">
<ele>423</ele>
<time>2013-05-08T15:48:49.999Z</time>
</trkpt>
<trkpt lat="43.836691" lon="2.857369">
<ele>423</ele>
<time>2013-05-08T15:48:50.999Z</time>
</trkpt>
<trkpt lat="43.836709" lon="2.857742">
<ele>423</ele>
<time>2013-05-08T15:48:51.999Z</time>
</trkpt>
<trkpt lat="43.836728" lon="2.858119">
<ele>423</ele>
<time>2013-05-08T15:48:52.999Z</time>
</trkpt>
<trkpt lat="43.836746" lon="2.858497">
<ele>423.1</ele>
<time>2013-05-08T15:48:53.999Z</time>
</trkpt>
<trkpt lat="43.836763" lon="2.858872">
<ele>423.2</ele>
<time>2013-05-08T15:48:54.999Z</time>
</trkpt>
<trkpt lat="43.836774" lon="2.859244">
<ele>423.5</ele>
<time>2013-05-08T15:48:55.999Z</time>
</trkpt>
<trkpt lat="43.836787" lon="2.859612">
<ele>423.9</ele>
<time>2013-05-08T15:48:56.999Z</time>
</trkpt>
<trkpt lat="43.836799" lon="2.859981">
<ele>424.3</ele>
<time>2013-05-08T15:48:57.999Z</time>
</trkpt>
<trkpt lat="43.836803" lon="2.860333">
<ele>424.9</ele>
<time>2013-05-08T15:48:58.999Z</time>
</trkpt>
<trkpt lat="43.836792" lon="2.860675">
<ele>425.6</ele>
<time>2013-05-08T15:48:59.999Z</time>
</trkpt>
<trkpt lat="43.836778" lon="2.861029">
<ele>426.8</ele>
<time>2013-05-08T15:49:00.999Z</time>
</trkpt>
<trkpt lat="43.836752" lon="2.861389">
<ele>428.1</ele>
<time>2013-05-08T15:49:01.999Z</time>
</trkpt>
<trkpt lat="43.836723" lon="2.86175">
<ele>429.5</ele>
<time>2013-05-08T15:49:02.999Z</time>
</trkpt>
<trkpt lat="43.836695" lon="2.86211">
<ele>430.9</ele>
<time>2013-05-08T15:49:03.999Z</time>
</trkpt>
<trkpt lat="43.836663" lon="2.862465">
<ele>432.2</ele>
<time>2013-05-08T15:49:04.999Z</time>
</trkpt>
<trkpt lat="43.836627" lon="2.862818">
<ele>433.3</ele>
<time>2013-05-08T15:49:05.999Z</time>
</trkpt>
<trkpt lat="43.836587" lon="2.863163">
<ele>434.3</ele>
<time>2013-05-08T15:49:06.999Z</time>
</trkpt>
<trkpt lat="43.836545" lon="2.863503">
<ele>435.3</ele>
<time>2013-05-08T15:49:07.999Z</time>
</trkpt>
<trkpt lat="43.836485" lon="2.863826">
<ele>436</ele>
<time>2013-05-08T15:49:08.999Z</time>
</trkpt>
<trkpt lat="43.836413" lon="2.864158">
<ele>436.7</ele>
<time>2013-05-08T15:49:09.999Z</time>
</trkpt>
<trkpt lat="43.836311" lon="2.86448">
<ele>437.3</ele>
<time>2013-05-08T15:49:10.999Z</time>
</trkpt>
<trkpt lat="43.836194" lon="2.864784">
<ele>437.9</ele>
<time>2013-05-08T15:49:11.999Z</time>
</trkpt>
<trkpt lat="43.836056" lon="2.865068">
<ele>438.3</ele>
<time>2013-05-08T15:49:12.999Z</time>
</trkpt>
<trkpt lat="43.835899" lon="2.86533">
<ele>438.4</ele>
<time>2013-05-08T15:49:13.999Z</time>
</trkpt>
<trkpt lat="43.835733" lon="2.865594">
<ele>438.4</ele>
<time>2013-05-08T15:49:14.999Z</time>
</trkpt>
<trkpt lat="43.835554" lon="2.865849">
<ele>438.6</ele>
<time>2013-05-08T15:49:15.999Z</time>
</trkpt>
<trkpt lat="43.835374" lon="2.8661">
<ele>439.2</ele>
<time>2013-05-08T15:49:16.999Z</time>
</trkpt>
<trkpt lat="43.835196" lon="2.866347">
<ele>440.1</ele>
<time>2013-05-08T15:49:17.999Z</time>
</trkpt>
<trkpt lat="43.835014" lon="2.866593">
<ele>441.1</ele>
<time>2013-05-08T15:49:18.999Z</time>
</trkpt>
<trkpt lat="43.83484" lon="2.866833">
<ele>442.2</ele>
<time>2013-05-08T15:49:19.999Z</time>
</trkpt>
<trkpt lat="43.834669" lon="2.867071">
<ele>443.4</ele>
<time>2013-05-08T15:49:20.999Z</time>
</trkpt>
<trkpt lat="43.834505" lon="2.867319">
<ele>444.4</ele>
<time>2013-05-08T15:49:21.999Z</time>
</trkpt>
<trkpt lat="43.834355" lon="2.867579">
<ele>444.7</ele>
<time>2013-05-08T15:49:22.999Z</time>
</trkpt>
<trkpt lat="43.834212" lon="2.86783">
<ele>445.1</ele>
<time>2013-05-08T15:49:23.999Z</time>
</trkpt>
<trkpt lat="43.834075" lon="2.868091">
<ele>445.3</ele>
<time>2013-05-08T15:49:24.999Z</time>
</trkpt>
<trkpt lat="43.83395" lon="2.868355">
<ele>445.4</ele>
<time>2013-05-08T15:49:25.999Z</time>
</trkpt>
<trkpt lat="43.833828" lon="2.868616">
<ele>445.4</ele>
<time>2013-05-08T15:49:26.999Z</time>
</trkpt>
<trkpt lat="43.833713" lon="2.868871">
<ele>445.5</ele>
<time>2013-05-08T15:49:27.999Z</time>
</trkpt>
<trkpt lat="43.833602" lon="2.869125">
<ele>445.7</ele>
<time>2013-05-08T15:49:28.999Z</time>
</trkpt>
<trkpt lat="43.833483" lon="2.869363">
<ele>446</ele>
<time>2013-05-08T15:49:29.999Z</time>
</trkpt>
<trkpt lat="43.833345" lon="2.86958">
<ele>446.4</ele>
<time>2013-05-08T15:49:30.999Z</time>
</trkpt>
<trkpt lat="43.833177" lon="2.86977">
<ele>446.4</ele>
<time>2013-05-08T15:49:31.999Z</time>
</trkpt>
<trkpt lat="43.833002" lon="2.869915">
<ele>446.5</ele>
<time>2013-05-08T15:49:32.999Z</time>
</trkpt>
<trkpt lat="43.832823" lon="2.870032">
<ele>446.7</ele>
<time>2013-05-08T15:49:33.999Z</time>
</trkpt>
<trkpt lat="43.832612" lon="2.870084">
<ele>446.9</ele>
<time>2013-05-08T15:49:34.999Z</time>
</trkpt>
<trkpt lat="43.832407" lon="2.870144">
<ele>447.1</ele>
<time>2013-05-08T15:49:35.999Z</time>
</trkpt>
<trkpt lat="43.832216" lon="2.870216">
<ele>447</ele>
<time>2013-05-08T15:49:36.999Z</time>
</trkpt>
<trkpt lat="43.832041" lon="2.870317">
<ele>447.2</ele>
<time>2013-05-08T15:49:37.999Z</time>
</trkpt>
<trkpt lat="43.831905" lon="2.870463">
<ele>447.1</ele>
<time>2013-05-08T15:49:38.999Z</time>
</trkpt>
<trkpt lat="43.831778" lon="2.870628">
<ele>446.9</ele>
<time>2013-05-08T15:49:39.999Z</time>
</trkpt>
<trkpt lat="43.831664" lon="2.870802">
<ele>446.5</ele>
<time>2013-05-08T15:49:40.999Z</time>
</trkpt>
<trkpt lat="43.831566" lon="2.870978">
<ele>446.1</ele>
<time>2013-05-08T15:49:41.999Z</time>
</trkpt>
<trkpt lat="43.831479" lon="2.871154">
<ele>445.7</ele>
<time>2013-05-08T15:49:42.999Z</time>
</trkpt>
<trkpt lat="43.831399" lon="2.871331">
<ele>445.3</ele>
<time>2013-05-08T15:49:43.999Z</time>
</trkpt>
<trkpt lat="43.831328" lon="2.871495">
<ele>445</ele>
<time>2013-05-08T15:49:44.999Z</time>
</trkpt>
<trkpt lat="43.831258" lon="2.87166">
<ele>444.9</ele>
<time>2013-05-08T15:49:45.999Z</time>
</trkpt>
<trkpt lat="43.831187" lon="2.871826">
<ele>445</ele>
<time>2013-05-08T15:49:46.999Z</time>
</trkpt>
<trkpt lat="43.831117" lon="2.871991">
<ele>445</ele>
<time>2013-05-08T15:49:47.999Z</time>
</trkpt>
<trkpt lat="43.831046" lon="2.872149">
<ele>444.9</ele>
<time>2013-05-08T15:49:48.999Z</time>
</trkpt>
<trkpt lat="43.830982" lon="2.872294">
<ele>444.6</ele>
<time>2013-05-08T15:49:49.999Z</time>
</trkpt>
<trkpt lat="43.830915" lon="2.872432">
<ele>444.2</ele>
<time>2013-05-08T15:49:50.999Z</time>
</trkpt>
<trkpt lat="43.830854" lon="2.872562">
<ele>444</ele>
<time>2013-05-08T15:49:51.999Z</time>
</trkpt>
<trkpt lat="43.830792" lon="2.872685">
<ele>443.8</ele>
<time>2013-05-08T15:49:52.999Z</time>
</trkpt>
<trkpt lat="43.830734" lon="2.872803">
<ele>443.4</ele>
<time>2013-05-08T15:49:53.999Z</time>
</trkpt>
<trkpt lat="43.830677" lon="2.872906">
<ele>443</ele>
<time>2013-05-08T15:49:54.999Z</time>
</trkpt>
<trkpt lat="43.830624" lon="2.872993">
<ele>442.7</ele>
<time>2013-05-08T15:49:55.999Z</time>
</trkpt>
<trkpt lat="43.830567" lon="2.873083">
<ele>442.5</ele>
<time>2013-05-08T15:49:56.999Z</time>
</trkpt>
<trkpt lat="43.830501" lon="2.873187">
<ele>442.5</ele>
<time>2013-05-08T15:49:57.999Z</time>
</trkpt>
<trkpt lat="43.830431" lon="2.873297">
<ele>442.5</ele>
<time>2013-05-08T15:49:58.999Z</time>
</trkpt>
<trkpt lat="43.830357" lon="2.873406">
<ele>442.5</ele>
<time>2013-05-08T15:49:59.999Z</time>
</trkpt>
<trkpt lat="43.830284" lon="2.873515">
<ele>442.2</ele>
<time>2013-05-08T15:50:00.999Z</time>
</trkpt>
<trkpt lat="43.830205" lon="2.873624">
<ele>441.6</ele>
<time>2013-05-08T15:50:01.999Z</time>
</trkpt>
<trkpt lat="43.830121" lon="2.873744">
<ele>441.1</ele>
<time>2013-05-08T15:50:02.999Z</time>
</trkpt>
<trkpt lat="43.830022" lon="2.873879">
<ele>440.4</ele>
<time>2013-05-08T15:50:03.999Z</time>
</trkpt>
<trkpt lat="43.829916" lon="2.874022">
<ele>439.7</ele>
<time>2013-05-08T15:50:04.999Z</time>
</trkpt>
<trkpt lat="43.829804" lon="2.874175">
<ele>439</ele>
<time>2013-05-08T15:50:05.999Z</time>
</trkpt>
<trkpt lat="43.829694" lon="2.874326">
<ele>438.2</ele>
<time>2013-05-08T15:50:06.999Z</time>
</trkpt>
<trkpt lat="43.829588" lon="2.874475">
<ele>437.3</ele>
<time>2013-05-08T15:50:07.999Z</time>
</trkpt>
<trkpt lat="43.829489" lon="2.874613">
<ele>436.6</ele>
<time>2013-05-08T15:50:08.999Z</time>
</trkpt>
<trkpt lat="43.82939" lon="2.874751">
<ele>436.1</ele>
<time>2013-05-08T15:50:09.999Z</time>
</trkpt>
<trkpt lat="43.829286" lon="2.874886">
<ele>435.6</ele>
<time>2013-05-08T15:50:10.999Z</time>
</trkpt>
<trkpt lat="43.829174" lon="2.875018">
<ele>435.4</ele>
<time>2013-05-08T15:50:11.999Z</time>
</trkpt>
<trkpt lat="43.829054" lon="2.87515">
<ele>435.4</ele>
<time>2013-05-08T15:50:12.999Z</time>
</trkpt>
<trkpt lat="43.82893" lon="2.875272">
<ele>435.5</ele>
<time>2013-05-08T15:50:13.999Z</time>
</trkpt>
<trkpt lat="43.828799" lon="2.875387">
<ele>435.2</ele>
<time>2013-05-08T15:50:14.999Z</time>
</trkpt>
<trkpt lat="43.82867" lon="2.875492">
<ele>434.8</ele>
<time>2013-05-08T15:50:15.999Z</time>
</trkpt>
<trkpt lat="43.82854" lon="2.875596">
<ele>433.9</ele>
<time>2013-05-08T15:50:16.999Z</time>
</trkpt>
<trkpt lat="43.828404" lon="2.875705">
<ele>432.7</ele>
<time>2013-05-08T15:50:17.999Z</time>
</trkpt>
<trkpt lat="43.828263" lon="2.87581">
<ele>431.5</ele>
<time>2013-05-08T15:50:18.999Z</time>
</trkpt>
<trkpt lat="43.828131" lon="2.875911">
<ele>430.4</ele>
<time>2013-05-08T15:50:19.999Z</time>
</trkpt>
<trkpt lat="43.827999" lon="2.876007">
<ele>429.4</ele>
<time>2013-05-08T15:50:20.999Z</time>
</trkpt>
<trkpt lat="43.827876" lon="2.876097">
<ele>428.5</ele>
<time>2013-05-08T15:50:21.999Z</time>
</trkpt>
<trkpt lat="43.827749" lon="2.876189">
<ele>428.1</ele>
<time>2013-05-08T15:50:22.999Z</time>
</trkpt>
<trkpt lat="43.827623" lon="2.876282">
<ele>427.8</ele>
<time>2013-05-08T15:50:23.999Z</time>
</trkpt>
<trkpt lat="43.827489" lon="2.876385">
<ele>427.9</ele>
<time>2013-05-08T15:50:24.999Z</time>
</trkpt>
<trkpt lat="43.827357" lon="2.876487">
<ele>428.2</ele>
<time>2013-05-08T15:50:25.999Z</time>
</trkpt>
<trkpt lat="43.827225" lon="2.87659">
<ele>428.4</ele>
<time>2013-05-08T15:50:26.999Z</time>
</trkpt>
<trkpt lat="43.827096" lon="2.876688">
<ele>428.7</ele>
<time>2013-05-08T15:50:27.999Z</time>
</trkpt>
<trkpt lat="43.826968" lon="2.876785">
<ele>428.9</ele>
<time>2013-05-08T15:50:28.999Z</time>
</trkpt>
<trkpt lat="43.826842" lon="2.87688">
<ele>429.1</ele>
<time>2013-05-08T15:50:29.999Z</time>
</trkpt>
<trkpt lat="43.82672" lon="2.876973">
<ele>429.2</ele>
<time>2013-05-08T15:50:30.999Z</time>
</trkpt>
<trkpt lat="43.826602" lon="2.877062">
<ele>429.4</ele>
<time>2013-05-08T15:50:31.999Z</time>
</trkpt>
<trkpt lat="43.826484" lon="2.877152">
<ele>429.7</ele>
<time>2013-05-08T15:50:32.999Z</time>
</trkpt>
<trkpt lat="43.82637" lon="2.877232">
<ele>430.1</ele>
<time>2013-05-08T15:50:33.999Z</time>
</trkpt>
<trkpt lat="43.826253" lon="2.877308">
<ele>430.5</ele>
<time>2013-05-08T15:50:34.999Z</time>
</trkpt>
<trkpt lat="43.826118" lon="2.877382">
<ele>431.2</ele>
<time>2013-05-08T15:50:35.999Z</time>
</trkpt>
<trkpt lat="43.825981" lon="2.877443">
<ele>431.9</ele>
<time>2013-05-08T15:50:36.999Z</time>
</trkpt>
<trkpt lat="43.825839" lon="2.877496">
<ele>432.5</ele>
<time>2013-05-08T15:50:37.999Z</time>
</trkpt>
<trkpt lat="43.82569" lon="2.877541">
<ele>433.3</ele>
<time>2013-05-08T15:50:38.999Z</time>
</trkpt>
<trkpt lat="43.825536" lon="2.877577">
<ele>434.2</ele>
<time>2013-05-08T15:50:39.999Z</time>
</trkpt>
<trkpt lat="43.825371" lon="2.877612">
<ele>434.8</ele>
<time>2013-05-08T15:50:40.999Z</time>
</trkpt>
<trkpt lat="43.825206" lon="2.877649">
<ele>435</ele>
<time>2013-05-08T15:50:41.999Z</time>
</trkpt>
<trkpt lat="43.82505" lon="2.877686">
<ele>435.1</ele>
<time>2013-05-08T15:50:42.999Z</time>
</trkpt>
<trkpt lat="43.824906" lon="2.877717">
<ele>435.3</ele>
<time>2013-05-08T15:50:43.999Z</time>
</trkpt>
<trkpt lat="43.824778" lon="2.877742">
<ele>435.5</ele>
<time>2013-05-08T15:50:44.999Z</time>
</trkpt>
<trkpt lat="43.824651" lon="2.877767">
<ele>436</ele>
<time>2013-05-08T15:50:45.999Z</time>
</trkpt>
<trkpt lat="43.824541" lon="2.877785">
<ele>436.1</ele>
<time>2013-05-08T15:50:46.999Z</time>
</trkpt>
<trkpt lat="43.824433" lon="2.877801">
<ele>436.2</ele>
<time>2013-05-08T15:50:47.999Z</time>
</trkpt>
<trkpt lat="43.824332" lon="2.877819">
<ele>436.6</ele>
<time>2013-05-08T15:50:48.999Z</time>
</trkpt>
<trkpt lat="43.824245" lon="2.877835">
<ele>436.8</ele>
<time>2013-05-08T15:50:49.999Z</time>
</trkpt>
<trkpt lat="43.824151" lon="2.877854">
<ele>437</ele>
<time>2013-05-08T15:50:50.999Z</time>
</trkpt>
<trkpt lat="43.824063" lon="2.877871">
<ele>437</ele>
<time>2013-05-08T15:50:51.999Z</time>
</trkpt>
<trkpt lat="43.823981" lon="2.877888">
<ele>436.8</ele>
<time>2013-05-08T15:50:52.999Z</time>
</trkpt>
<trkpt lat="43.823907" lon="2.8779">
<ele>436.6</ele>
<time>2013-05-08T15:50:53.999Z</time>
</trkpt>
<trkpt lat="43.82383" lon="2.877911">
<ele>436.6</ele>
<time>2013-05-08T15:50:54.999Z</time>
</trkpt>
<trkpt lat="43.823746" lon="2.877925">
<ele>436.7</ele>
<time>2013-05-08T15:50:55.999Z</time>
</trkpt>
<trkpt lat="43.823669" lon="2.877938">
<ele>436.7</ele>
<time>2013-05-08T15:50:56.999Z</time>
</trkpt>
<trkpt lat="43.823596" lon="2.87795">
<ele>436.9</ele>
<time>2013-05-08T15:50:57.999Z</time>
</trkpt>
<trkpt lat="43.823511" lon="2.877965">
<ele>437.3</ele>
<time>2013-05-08T15:50:58.999Z</time>
</trkpt>
<trkpt lat="43.823426" lon="2.877982">
<ele>437.6</ele>
<time>2013-05-08T15:50:59.999Z</time>
</trkpt>
<trkpt lat="43.823346" lon="2.877999">
<ele>438</ele>
<time>2013-05-08T15:51:00.999Z</time>
</trkpt>
<trkpt lat="43.823258" lon="2.87802">
<ele>438.6</ele>
<time>2013-05-08T15:51:01.999Z</time>
</trkpt>
<trkpt lat="43.823168" lon="2.878043">
<ele>438.9</ele>
<time>2013-05-08T15:51:02.999Z</time>
</trkpt>
<trkpt lat="43.823085" lon="2.878064">
<ele>439.6</ele>
<time>2013-05-08T15:51:03.999Z</time>
</trkpt>
<trkpt lat="43.823003" lon="2.87809">
<ele>440</ele>
<time>2013-05-08T15:51:04.999Z</time>
</trkpt>
<trkpt lat="43.822923" lon="2.878114">
<ele>440.3</ele>
<time>2013-05-08T15:51:05.999Z</time>
</trkpt>
<trkpt lat="43.822842" lon="2.878129">
<ele>440</ele>
<time>2013-05-08T15:51:06.999Z</time>
</trkpt>
<trkpt lat="43.822757" lon="2.878142">
<ele>440.1</ele>
<time>2013-05-08T15:51:07.999Z</time>
</trkpt>
<trkpt lat="43.822666" lon="2.878158">
<ele>440.1</ele>
<time>2013-05-08T15:51:08.999Z</time>
</trkpt>
<trkpt lat="43.822579" lon="2.878174">
<ele>439.9</ele>
<time>2013-05-08T15:51:09.999Z</time>
</trkpt>
<trkpt lat="43.822492" lon="2.878194">
<ele>439.9</ele>
<time>2013-05-08T15:51:10.999Z</time>
</trkpt>
<trkpt lat="43.82241" lon="2.878214">
<ele>440.1</ele>
<time>2013-05-08T15:51:11.999Z</time>
</trkpt>
<trkpt lat="43.822329" lon="2.878231">
<ele>440.4</ele>
<time>2013-05-08T15:51:12.999Z</time>
</trkpt>
<trkpt lat="43.822253" lon="2.878247">
<ele>440.7</ele>
<time>2013-05-08T15:51:13.999Z</time>
</trkpt>
<trkpt lat="43.822185" lon="2.878261">
<ele>441.3</ele>
<time>2013-05-08T15:51:14.999Z</time>
</trkpt>
<trkpt lat="43.822121" lon="2.878275">
<ele>442.1</ele>
<time>2013-05-08T15:51:15.999Z</time>
</trkpt>
<trkpt lat="43.822056" lon="2.87829">
<ele>442.8</ele>
<time>2013-05-08T15:51:16.999Z</time>
</trkpt>
<trkpt lat="43.821987" lon="2.878309">
<ele>443.3</ele>
<time>2013-05-08T15:51:17.999Z</time>
</trkpt>
<trkpt lat="43.821914" lon="2.87833">
<ele>443.7</ele>
<time>2013-05-08T15:51:18.999Z</time>
</trkpt>
<trkpt lat="43.821841" lon="2.878361">
<ele>444</ele>
<time>2013-05-08T15:51:19.999Z</time>
</trkpt>
<trkpt lat="43.821767" lon="2.878398">
<ele>444.4</ele>
<time>2013-05-08T15:51:20.999Z</time>
</trkpt>
<trkpt lat="43.821683" lon="2.878441">
<ele>445.1</ele>
<time>2013-05-08T15:51:21.999Z</time>
</trkpt>
<trkpt lat="43.821607" lon="2.878484">
<ele>445.5</ele>
<time>2013-05-08T15:51:22.999Z</time>
</trkpt>
<trkpt lat="43.821529" lon="2.87853">
<ele>445.8</ele>
<time>2013-05-08T15:51:23.999Z</time>
</trkpt>
<trkpt lat="43.821451" lon="2.878574">
<ele>446.1</ele>
<time>2013-05-08T15:51:24.999Z</time>
</trkpt>
<trkpt lat="43.821375" lon="2.878617">
<ele>446.4</ele>
<time>2013-05-08T15:51:25.999Z</time>
</trkpt>
<trkpt lat="43.821301" lon="2.878658">
<ele>446.6</ele>
<time>2013-05-08T15:51:26.999Z</time>
</trkpt>
<trkpt lat="43.82123" lon="2.878699">
<ele>446.3</ele>
<time>2013-05-08T15:51:27.999Z</time>
</trkpt>
<trkpt lat="43.821165" lon="2.878735">
<ele>445.9</ele>
<time>2013-05-08T15:51:28.999Z</time>
</trkpt>
<trkpt lat="43.821108" lon="2.878768">
<ele>445.3</ele>
<time>2013-05-08T15:51:29.999Z</time>
</trkpt>
<trkpt lat="43.82106" lon="2.878798">
<ele>444.4</ele>
<time>2013-05-08T15:51:30.999Z</time>
</trkpt>
<trkpt lat="43.821006" lon="2.878822">
<ele>443.7</ele>
<time>2013-05-08T15:51:31.999Z</time>
</trkpt>
<trkpt lat="43.820946" lon="2.87885">
<ele>443.1</ele>
<time>2013-05-08T15:51:32.999Z</time>
</trkpt>
<trkpt lat="43.82088" lon="2.878882">
<ele>443.1</ele>
<time>2013-05-08T15:51:33.999Z</time>
</trkpt>
<trkpt lat="43.820813" lon="2.878912">
<ele>443.2</ele>
<time>2013-05-08T15:51:34.999Z</time>
</trkpt>
<trkpt lat="43.820736" lon="2.878942">
<ele>443</ele>
<time>2013-05-08T15:51:35.999Z</time>
</trkpt>
<trkpt lat="43.820662" lon="2.878968">
<ele>442.6</ele>
<time>2013-05-08T15:51:36.999Z</time>
</trkpt>
<trkpt lat="43.82058" lon="2.878994">
<ele>442.7</ele>
<time>2013-05-08T15:51:37.999Z</time>
</trkpt>
<trkpt lat="43.820495" lon="2.879017">
<ele>442.2</ele>
<time>2013-05-08T15:51:38.999Z</time>
</trkpt>
<trkpt lat="43.820408" lon="2.879038">
<ele>441.7</ele>
<time>2013-05-08T15:51:39.999Z</time>
</trkpt>
<trkpt lat="43.820323" lon="2.879032">
<ele>441</ele>
<time>2013-05-08T15:51:40.999Z</time>
</trkpt>
<trkpt lat="43.820237" lon="2.879026">
<ele>440.8</ele>
<time>2013-05-08T15:51:41.999Z</time>
</trkpt>
<trkpt lat="43.820144" lon="2.879016">
<ele>440.9</ele>
<time>2013-05-08T15:51:42.999Z</time>
</trkpt>
<trkpt lat="43.820043" lon="2.879">
<ele>441.1</ele>
<time>2013-05-08T15:51:43.999Z</time>
</trkpt>
<trkpt lat="43.819927" lon="2.878984">
<ele>441.4</ele>
<time>2013-05-08T15:51:44.999Z</time>
</trkpt>
<trkpt lat="43.81981" lon="2.878969">
<ele>442.2</ele>
<time>2013-05-08T15:51:45.999Z</time>
</trkpt>
<trkpt lat="43.819672" lon="2.878944">
<ele>442.9</ele>
<time>2013-05-08T15:51:46.999Z</time>
</trkpt>
<trkpt lat="43.819506" lon="2.878887">
<ele>443.3</ele>
<time>2013-05-08T15:51:47.999Z</time>
</trkpt>
<trkpt lat="43.819357" lon="2.878842">
<ele>443.8</ele>
<time>2013-05-08T15:51:48.999Z</time>
</trkpt>
<trkpt lat="43.819207" lon="2.878805">
<ele>444.5</ele>
<time>2013-05-08T15:51:49.999Z</time>
</trkpt>
<trkpt lat="43.819051" lon="2.878772">
<ele>445.2</ele>
<time>2013-05-08T15:51:50.999Z</time>
</trkpt>
<trkpt lat="43.818895" lon="2.878739">
<ele>445.7</ele>
<time>2013-05-08T15:51:51.999Z</time>
</trkpt>
<trkpt lat="43.818737" lon="2.878714">
<ele>445.9</ele>
<time>2013-05-08T15:51:52.999Z</time>
</trkpt>
<trkpt lat="43.818577" lon="2.878688">
<ele>445.7</ele>
<time>2013-05-08T15:51:53.999Z</time>
</trkpt>
<trkpt lat="43.818414" lon="2.878672">
<ele>445.2</ele>
<time>2013-05-08T15:51:54.999Z</time>
</trkpt>
<trkpt lat="43.818235" lon="2.878665">
<ele>445.1</ele>
<time>2013-05-08T15:51:55.999Z</time>
</trkpt>
<trkpt lat="43.818051" lon="2.87867">
<ele>445.1</ele>
<time>2013-05-08T15:51:56.999Z</time>
</trkpt>
<trkpt lat="43.817872" lon="2.878691">
<ele>444.6</ele>
<time>2013-05-08T15:51:57.999Z</time>
</trkpt>
<trkpt lat="43.817698" lon="2.878719">
<ele>443.9</ele>
<time>2013-05-08T15:51:58.999Z</time>
</trkpt>
<trkpt lat="43.817525" lon="2.878762">
<ele>443.3</ele>
<time>2013-05-08T15:51:59.999Z</time>
</trkpt>
<trkpt lat="43.817349" lon="2.878806">
<ele>443.3</ele>
<time>2013-05-08T15:52:00.999Z</time>
</trkpt>
<trkpt lat="43.817176" lon="2.87885">
<ele>443.3</ele>
<time>2013-05-08T15:52:01.999Z</time>
</trkpt>
<trkpt lat="43.816997" lon="2.878899">
<ele>443.3</ele>
<time>2013-05-08T15:52:02.999Z</time>
</trkpt>
<trkpt lat="43.81682" lon="2.878939">
<ele>443.1</ele>
<time>2013-05-08T15:52:03.999Z</time>
</trkpt>
<trkpt lat="43.816642" lon="2.878972">
<ele>442.7</ele>
<time>2013-05-08T15:52:04.999Z</time>
</trkpt>
<trkpt lat="43.816464" lon="2.878981">
<ele>442.3</ele>
<time>2013-05-08T15:52:05.999Z</time>
</trkpt>
<trkpt lat="43.816295" lon="2.878985">
<ele>441.7</ele>
<time>2013-05-08T15:52:06.999Z</time>
</trkpt>
<trkpt lat="43.816135" lon="2.878996">
<ele>440.7</ele>
<time>2013-05-08T15:52:07.999Z</time>
</trkpt>
<trkpt lat="43.815978" lon="2.879006">
<ele>439.7</ele>
<time>2013-05-08T15:52:08.999Z</time>
</trkpt>
<trkpt lat="43.815821" lon="2.879018">
<ele>438.9</ele>
<time>2013-05-08T15:52:09.999Z</time>
</trkpt>
<trkpt lat="43.815665" lon="2.879031">
<ele>438.3</ele>
<time>2013-05-08T15:52:10.999Z</time>
</trkpt>
<trkpt lat="43.815507" lon="2.879052">
<ele>438.2</ele>
<time>2013-05-08T15:52:11.999Z</time>
</trkpt>
<trkpt lat="43.815353" lon="2.879074">
<ele>437.8</ele>
<time>2013-05-08T15:52:12.999Z</time>
</trkpt>
<trkpt lat="43.815198" lon="2.879109">
<ele>437.7</ele>
<time>2013-05-08T15:52:13.999Z</time>
</trkpt>
<trkpt lat="43.815059" lon="2.879217">
<ele>437.6</ele>
<time>2013-05-08T15:52:14.999Z</time>
</trkpt>
<trkpt lat="43.81492" lon="2.87934">
<ele>437.5</ele>
<time>2013-05-08T15:52:15.999Z</time>
</trkpt>
<trkpt lat="43.814801" lon="2.87953">
<ele>437.6</ele>
<time>2013-05-08T15:52:16.999Z</time>
</trkpt>
<trkpt lat="43.814675" lon="2.879737">
<ele>438.1</ele>
<time>2013-05-08T15:52:17.999Z</time>
</trkpt>
<trkpt lat="43.814548" lon="2.879948">
<ele>438.5</ele>
<time>2013-05-08T15:52:18.999Z</time>
</trkpt>
<trkpt lat="43.81442" lon="2.88016">
<ele>439</ele>
<time>2013-05-08T15:52:19.999Z</time>
</trkpt>
<trkpt lat="43.814295" lon="2.880372">
<ele>439.3</ele>
<time>2013-05-08T15:52:20.999Z</time>
</trkpt>
<trkpt lat="43.814174" lon="2.880579">
<ele>439.8</ele>
<time>2013-05-08T15:52:21.999Z</time>
</trkpt>
<trkpt lat="43.814054" lon="2.880779">
<ele>440.4</ele>
<time>2013-05-08T15:52:22.999Z</time>
</trkpt>
<trkpt lat="43.813938" lon="2.880971">
<ele>441.1</ele>
<time>2013-05-08T15:52:23.999Z</time>
</trkpt>
<trkpt lat="43.813822" lon="2.881161">
<ele>441.9</ele>
<time>2013-05-08T15:52:24.999Z</time>
</trkpt>
<trkpt lat="43.813705" lon="2.881349">
<ele>442.3</ele>
<time>2013-05-08T15:52:25.999Z</time>
</trkpt>
<trkpt lat="43.813593" lon="2.881532">
<ele>442.5</ele>
<time>2013-05-08T15:52:26.999Z</time>
</trkpt>
<trkpt lat="43.813485" lon="2.881711">
<ele>442.6</ele>
<time>2013-05-08T15:52:27.999Z</time>
</trkpt>
<trkpt lat="43.813377" lon="2.881889">
<ele>442.7</ele>
<time>2013-05-08T15:52:28.999Z</time>
</trkpt>
<trkpt lat="43.813268" lon="2.88207">
<ele>442.7</ele>
<time>2013-05-08T15:52:29.999Z</time>
</trkpt>
<trkpt lat="43.813154" lon="2.882257">
<ele>442.5</ele>
<time>2013-05-08T15:52:30.999Z</time>
</trkpt>
<trkpt lat="43.813037" lon="2.882446">
<ele>442.2</ele>
<time>2013-05-08T15:52:31.999Z</time>
</trkpt>
<trkpt lat="43.81292" lon="2.882634">
<ele>442.2</ele>
<time>2013-05-08T15:52:32.999Z</time>
</trkpt>
<trkpt lat="43.812805" lon="2.882827">
<ele>442.5</ele>
<time>2013-05-08T15:52:33.999Z</time>
</trkpt>
<trkpt lat="43.812709" lon="2.883038">
<ele>443.2</ele>
<time>2013-05-08T15:52:34.999Z</time>
</trkpt>
<trkpt lat="43.812627" lon="2.883268">
<ele>443.9</ele>
<time>2013-05-08T15:52:35.999Z</time>
</trkpt>
<trkpt lat="43.812552" lon="2.883498">
<ele>444.5</ele>
<time>2013-05-08T15:52:36.999Z</time>
</trkpt>
<trkpt lat="43.812483" lon="2.883732">
<ele>445.2</ele>
<time>2013-05-08T15:52:37.999Z</time>
</trkpt>
<trkpt lat="43.812433" lon="2.883976">
<ele>445.9</ele>
<time>2013-05-08T15:52:38.999Z</time>
</trkpt>
<trkpt lat="43.812383" lon="2.884239">
<ele>446.5</ele>
<time>2013-05-08T15:52:39.999Z</time>
</trkpt>
<trkpt lat="43.812342" lon="2.88451">
<ele>446.8</ele>
<time>2013-05-08T15:52:40.999Z</time>
</trkpt>
<trkpt lat="43.812303" lon="2.884763">
<ele>447.1</ele>
<time>2013-05-08T15:52:41.999Z</time>
</trkpt>
<trkpt lat="43.812272" lon="2.885006">
<ele>447.3</ele>
<time>2013-05-08T15:52:42.999Z</time>
</trkpt>
<trkpt lat="43.812241" lon="2.885228">
<ele>447.5</ele>
<time>2013-05-08T15:52:43.999Z</time>
</trkpt>
<trkpt lat="43.812211" lon="2.885449">
<ele>447.7</ele>
<time>2013-05-08T15:52:44.999Z</time>
</trkpt>
<trkpt lat="43.812182" lon="2.885669">
<ele>447.9</ele>
<time>2013-05-08T15:52:45.999Z</time>
</trkpt>
<trkpt lat="43.812151" lon="2.885896">
<ele>448</ele>
<time>2013-05-08T15:52:46.999Z</time>
</trkpt>
<trkpt lat="43.812114" lon="2.88612">
<ele>448.1</ele>
<time>2013-05-08T15:52:47.999Z</time>
</trkpt>
<trkpt lat="43.812075" lon="2.886351">
<ele>448.1</ele>
<time>2013-05-08T15:52:48.999Z</time>
</trkpt>
<trkpt lat="43.812029" lon="2.88659">
<ele>448.1</ele>
<time>2013-05-08T15:52:49.999Z</time>
</trkpt>
<trkpt lat="43.811976" lon="2.886836">
<ele>448.2</ele>
<time>2013-05-08T15:52:50.999Z</time>
</trkpt>
<trkpt lat="43.811916" lon="2.887089">
<ele>448.5</ele>
<time>2013-05-08T15:52:51.999Z</time>
</trkpt>
<trkpt lat="43.81184" lon="2.887334">
<ele>448.7</ele>
<time>2013-05-08T15:52:52.999Z</time>
</trkpt>
<trkpt lat="43.811757" lon="2.887577">
<ele>448.8</ele>
<time>2013-05-08T15:52:53.999Z</time>
</trkpt>
<trkpt lat="43.811644" lon="2.887787">
<ele>448.8</ele>
<time>2013-05-08T15:52:54.999Z</time>
</trkpt>
<trkpt lat="43.811523" lon="2.887947">
<ele>448.8</ele>
<time>2013-05-08T15:52:55.999Z</time>
</trkpt>
<trkpt lat="43.81136" lon="2.888068">
<ele>448.7</ele>
<time>2013-05-08T15:52:56.999Z</time>
</trkpt>
<trkpt lat="43.811193" lon="2.888167">
<ele>448.7</ele>
<time>2013-05-08T15:52:57.999Z</time>
</trkpt>
<trkpt lat="43.811027" lon="2.888245">
<ele>448.6</ele>
<time>2013-05-08T15:52:58.999Z</time>
</trkpt>
<trkpt lat="43.810849" lon="2.888308">
<ele>448.8</ele>
<time>2013-05-08T15:52:59.999Z</time>
</trkpt>
<trkpt lat="43.810681" lon="2.888384">
<ele>448.2</ele>
<time>2013-05-08T15:53:00.999Z</time>
</trkpt>
<trkpt lat="43.810538" lon="2.888487">
<ele>447.9</ele>
<time>2013-05-08T15:53:01.999Z</time>
</trkpt>
<trkpt lat="43.810398" lon="2.888591">
<ele>447.7</ele>
<time>2013-05-08T15:53:02.999Z</time>
</trkpt>
<trkpt lat="43.810257" lon="2.8887">
<ele>447.6</ele>
<time>2013-05-08T15:53:03.999Z</time>
</trkpt>
<trkpt lat="43.810099" lon="2.888759">
<ele>447.5</ele>
<time>2013-05-08T15:53:04.999Z</time>
</trkpt>
<trkpt lat="43.809935" lon="2.88881">
<ele>446.9</ele>
<time>2013-05-08T15:53:05.999Z</time>
</trkpt>
<trkpt lat="43.809774" lon="2.888841">
<ele>446.1</ele>
<time>2013-05-08T15:53:06.999Z</time>
</trkpt>
<trkpt lat="43.809611" lon="2.888849">
<ele>445.5</ele>
<time>2013-05-08T15:53:07.999Z</time>
</trkpt>
<trkpt lat="43.809437" lon="2.888804">
<ele>445.2</ele>
<time>2013-05-08T15:53:08.999Z</time>
</trkpt>
<trkpt lat="43.809253" lon="2.888759">
<ele>444.8</ele>
<time>2013-05-08T15:53:09.999Z</time>
</trkpt>
<trkpt lat="43.809054" lon="2.888708">
<ele>444.9</ele>
<time>2013-05-08T15:53:10.999Z</time>
</trkpt>
<trkpt lat="43.808857" lon="2.888675">
<ele>445</ele>
<time>2013-05-08T15:53:11.999Z</time>
</trkpt>
<trkpt lat="43.808647" lon="2.888656">
<ele>445.1</ele>
<time>2013-05-08T15:53:12.999Z</time>
</trkpt>
<trkpt lat="43.808425" lon="2.888642">
<ele>445.4</ele>
<time>2013-05-08T15:53:13.999Z</time>
</trkpt>
<trkpt lat="43.80819" lon="2.888644">
<ele>445.5</ele>
<time>2013-05-08T15:53:14.999Z</time>
</trkpt>
<trkpt lat="43.807954" lon="2.88865">
<ele>445.7</ele>
<time>2013-05-08T15:53:15.999Z</time>
</trkpt>
<trkpt lat="43.807723" lon="2.888654">
<ele>445.8</ele>
<time>2013-05-08T15:53:16.999Z</time>
</trkpt>
<trkpt lat="43.807497" lon="2.888659">
<ele>445.9</ele>
<time>2013-05-08T15:53:17.999Z</time>
</trkpt>
<trkpt lat="43.807278" lon="2.888688">
<ele>445.9</ele>
<time>2013-05-08T15:53:18.999Z</time>
</trkpt>
<trkpt lat="43.80707" lon="2.888742">
<ele>445.3</ele>
<time>2013-05-08T15:53:19.999Z</time>
</trkpt>
<trkpt lat="43.806861" lon="2.888825">
<ele>444.5</ele>
<time>2013-05-08T15:53:20.999Z</time>
</trkpt>
<trkpt lat="43.806646" lon="2.88894">
<ele>443.6</ele>
<time>2013-05-08T15:53:21.999Z</time>
</trkpt>
<trkpt lat="43.806433" lon="2.889096">
<ele>443</ele>
<time>2013-05-08T15:53:22.999Z</time>
</trkpt>
<trkpt lat="43.806208" lon="2.889288">
<ele>442.4</ele>
<time>2013-05-08T15:53:23.999Z</time>
</trkpt>
<trkpt lat="43.805984" lon="2.889502">
<ele>441.7</ele>
<time>2013-05-08T15:53:24.999Z</time>
</trkpt>
<trkpt lat="43.805758" lon="2.889721">
<ele>441.3</ele>
<time>2013-05-08T15:53:25.999Z</time>
</trkpt>
<trkpt lat="43.80554" lon="2.889933">
<ele>440.8</ele>
<time>2013-05-08T15:53:26.999Z</time>
</trkpt>
<trkpt lat="43.805341" lon="2.890125">
<ele>440.1</ele>
<time>2013-05-08T15:53:27.999Z</time>
</trkpt>
<trkpt lat="43.805168" lon="2.890304">
<ele>439.5</ele>
<time>2013-05-08T15:53:28.999Z</time>
</trkpt>
<trkpt lat="43.805005" lon="2.890506">
<ele>439.5</ele>
<time>2013-05-08T15:53:29.999Z</time>
</trkpt>
<trkpt lat="43.804863" lon="2.890741">
<ele>439.8</ele>
<time>2013-05-08T15:53:30.999Z</time>
</trkpt>
<trkpt lat="43.804717" lon="2.890976">
<ele>440.1</ele>
<time>2013-05-08T15:53:31.999Z</time>
</trkpt>
<trkpt lat="43.804585" lon="2.891185">
<ele>440.3</ele>
<time>2013-05-08T15:53:32.999Z</time>
</trkpt>
<trkpt lat="43.804464" lon="2.891381">
<ele>440.3</ele>
<time>2013-05-08T15:53:33.999Z</time>
</trkpt>
<trkpt lat="43.804348" lon="2.891561">
<ele>440.2</ele>
<time>2013-05-08T15:53:34.999Z</time>
</trkpt>
<trkpt lat="43.804233" lon="2.891742">
<ele>439.8</ele>
<time>2013-05-08T15:53:35.999Z</time>
</trkpt>
<trkpt lat="43.804162" lon="2.891974">
<ele>440.1</ele>
<time>2013-05-08T15:53:36.999Z</time>
</trkpt>
<trkpt lat="43.804092" lon="2.892235">
<ele>440.6</ele>
<time>2013-05-08T15:53:37.999Z</time>
</trkpt>
<trkpt lat="43.804055" lon="2.892522">
<ele>441.2</ele>
<time>2013-05-08T15:53:38.999Z</time>
</trkpt>
<trkpt lat="43.804016" lon="2.892823">
<ele>441.9</ele>
<time>2013-05-08T15:53:39.999Z</time>
</trkpt>
<trkpt lat="43.803974" lon="2.893124">
<ele>442.5</ele>
<time>2013-05-08T15:53:40.999Z</time>
</trkpt>
<trkpt lat="43.803943" lon="2.893414">
<ele>443</ele>
<time>2013-05-08T15:53:41.999Z</time>
</trkpt>
<trkpt lat="43.803938" lon="2.893686">
<ele>443.6</ele>
<time>2013-05-08T15:53:42.999Z</time>
</trkpt>
<trkpt lat="43.803949" lon="2.893958">
<ele>444</ele>
<time>2013-05-08T15:53:43.999Z</time>
</trkpt>
<trkpt lat="43.803985" lon="2.894241">
<ele>444.3</ele>
<time>2013-05-08T15:53:44.999Z</time>
</trkpt>
<trkpt lat="43.804056" lon="2.894527">
<ele>444.6</ele>
<time>2013-05-08T15:53:45.999Z</time>
</trkpt>
<trkpt lat="43.804146" lon="2.894812">
<ele>444.9</ele>
<time>2013-05-08T15:53:46.999Z</time>
</trkpt>
<trkpt lat="43.804245" lon="2.895089">
<ele>445</ele>
<time>2013-05-08T15:53:47.999Z</time>
</trkpt>
<trkpt lat="43.804331" lon="2.895357">
<ele>445.9</ele>
<time>2013-05-08T15:53:48.999Z</time>
</trkpt>
<trkpt lat="43.804398" lon="2.895647">
<ele>446.7</ele>
<time>2013-05-08T15:53:49.999Z</time>
</trkpt>
<trkpt lat="43.804436" lon="2.895944">
<ele>447.4</ele>
<time>2013-05-08T15:53:50.999Z</time>
</trkpt>
<trkpt lat="43.804461" lon="2.896226">
<ele>447.9</ele>
<time>2013-05-08T15:53:51.999Z</time>
</trkpt>
<trkpt lat="43.804489" lon="2.896499">
<ele>448.2</ele>
<time>2013-05-08T15:53:52.999Z</time>
</trkpt>
<trkpt lat="43.804514" lon="2.896777">
<ele>448.6</ele>
<time>2013-05-08T15:53:53.999Z</time>
</trkpt>
<trkpt lat="43.804567" lon="2.897053">
<ele>449.2</ele>
<time>2013-05-08T15:53:54.999Z</time>
</trkpt>
<trkpt lat="43.804627" lon="2.897318">
<ele>449.3</ele>
<time>2013-05-08T15:53:55.999Z</time>
</trkpt>
<trkpt lat="43.80472" lon="2.897585">
<ele>449.4</ele>
<time>2013-05-08T15:53:56.999Z</time>
</trkpt>
<trkpt lat="43.804822" lon="2.897862">
<ele>449.8</ele>
<time>2013-05-08T15:53:57.999Z</time>
</trkpt>
<trkpt lat="43.804929" lon="2.898143">
<ele>449.9</ele>
<time>2013-05-08T15:53:58.999Z</time>
</trkpt>
<trkpt lat="43.805046" lon="2.898428">
<ele>449.7</ele>
<time>2013-05-08T15:53:59.999Z</time>
</trkpt>
<trkpt lat="43.805171" lon="2.898703">
<ele>449.4</ele>
<time>2013-05-08T15:54:00.999Z</time>
</trkpt>
<trkpt lat="43.805311" lon="2.898961">
<ele>448.9</ele>
<time>2013-05-08T15:54:01.999Z</time>
</trkpt>
<trkpt lat="43.805458" lon="2.899202">
<ele>448.6</ele>
<time>2013-05-08T15:54:02.999Z</time>
</trkpt>
<trkpt lat="43.805621" lon="2.899417">
<ele>447.9</ele>
<time>2013-05-08T15:54:03.999Z</time>
</trkpt>
<trkpt lat="43.805805" lon="2.8996">
<ele>447.1</ele>
<time>2013-05-08T15:54:04.999Z</time>
</trkpt>
<trkpt lat="43.806001" lon="2.899766">
<ele>446.3</ele>
<time>2013-05-08T15:54:05.999Z</time>
</trkpt>
<trkpt lat="43.806209" lon="2.899917">
<ele>445.4</ele>
<time>2013-05-08T15:54:06.999Z</time>
</trkpt>
<trkpt lat="43.806425" lon="2.900054">
<ele>444.9</ele>
<time>2013-05-08T15:54:07.999Z</time>
</trkpt>
<trkpt lat="43.80665" lon="2.900181">
<ele>444.6</ele>
<time>2013-05-08T15:54:08.999Z</time>
</trkpt>
<trkpt lat="43.806875" lon="2.900307">
<ele>444.5</ele>
<time>2013-05-08T15:54:09.999Z</time>
</trkpt>
<trkpt lat="43.807094" lon="2.90043">
<ele>444.5</ele>
<time>2013-05-08T15:54:10.999Z</time>
</trkpt>
<trkpt lat="43.807313" lon="2.90054">
<ele>444.5</ele>
<time>2013-05-08T15:54:11.999Z</time>
</trkpt>
<trkpt lat="43.80752" lon="2.900646">
<ele>444.7</ele>
<time>2013-05-08T15:54:12.999Z</time>
</trkpt>
<trkpt lat="43.807712" lon="2.900752">
<ele>445.2</ele>
<time>2013-05-08T15:54:13.999Z</time>
</trkpt>
<trkpt lat="43.807893" lon="2.900883">
<ele>445.7</ele>
<time>2013-05-08T15:54:14.999Z</time>
</trkpt>
<trkpt lat="43.808057" lon="2.90104">
<ele>445.7</ele>
<time>2013-05-08T15:54:15.999Z</time>
</trkpt>
<trkpt lat="43.808192" lon="2.901242">
<ele>446</ele>
<time>2013-05-08T15:54:16.999Z</time>
</trkpt>
<trkpt lat="43.808309" lon="2.901465">
<ele>446.3</ele>
<time>2013-05-08T15:54:17.999Z</time>
</trkpt>
<trkpt lat="43.808362" lon="2.901726">
<ele>446.2</ele>
<time>2013-05-08T15:54:18.999Z</time>
</trkpt>
<trkpt lat="43.808367" lon="2.90201">
<ele>445.8</ele>
<time>2013-05-08T15:54:19.999Z</time>
</trkpt>
<trkpt lat="43.808335" lon="2.90228">
<ele>445.6</ele>
<time>2013-05-08T15:54:20.999Z</time>
</trkpt>
<trkpt lat="43.808274" lon="2.902531">
<ele>445.8</ele>
<time>2013-05-08T15:54:21.999Z</time>
</trkpt>
<trkpt lat="43.80816" lon="2.90276">
<ele>446.4</ele>
<time>2013-05-08T15:54:22.999Z</time>
</trkpt>
<trkpt lat="43.808002" lon="2.902952">
<ele>447.7</ele>
<time>2013-05-08T15:54:23.999Z</time>
</trkpt>
<trkpt lat="43.807845" lon="2.903129">
<ele>448.7</ele>
<time>2013-05-08T15:54:24.999Z</time>
</trkpt>
<trkpt lat="43.807672" lon="2.903291">
<ele>449.7</ele>
<time>2013-05-08T15:54:25.999Z</time>
</trkpt>
<trkpt lat="43.807435" lon="2.903321">
<ele>450.4</ele>
<time>2013-05-08T15:54:26.999Z</time>
</trkpt>
<trkpt lat="43.807158" lon="2.903353">
<ele>450.9</ele>
<time>2013-05-08T15:54:27.999Z</time>
</trkpt>
<trkpt lat="43.806913" lon="2.90336">
<ele>451.2</ele>
<time>2013-05-08T15:54:28.999Z</time>
</trkpt>
<trkpt lat="43.806656" lon="2.90336">
<ele>451.1</ele>
<time>2013-05-08T15:54:29.999Z</time>
</trkpt>
<trkpt lat="43.806403" lon="2.903357">
<ele>451.1</ele>
<time>2013-05-08T15:54:30.999Z</time>
</trkpt>
<trkpt lat="43.806164" lon="2.903361">
<ele>451.1</ele>
<time>2013-05-08T15:54:31.999Z</time>
</trkpt>
<trkpt lat="43.805939" lon="2.903371">
<ele>451</ele>
<time>2013-05-08T15:54:32.999Z</time>
</trkpt>
<trkpt lat="43.805723" lon="2.903357">
<ele>451</ele>
<time>2013-05-08T15:54:33.999Z</time>
</trkpt>
<trkpt lat="43.805518" lon="2.903304">
<ele>450.9</ele>
<time>2013-05-08T15:54:34.999Z</time>
</trkpt>
<trkpt lat="43.805309" lon="2.903227">
<ele>450.8</ele>
<time>2013-05-08T15:54:35.999Z</time>
</trkpt>
<trkpt lat="43.805119" lon="2.903084">
<ele>450.9</ele>
<time>2013-05-08T15:54:36.999Z</time>
</trkpt>
<trkpt lat="43.804944" lon="2.902905">
<ele>451.1</ele>
<time>2013-05-08T15:54:37.999Z</time>
</trkpt>
<trkpt lat="43.804775" lon="2.902701">
<ele>451.7</ele>
<time>2013-05-08T15:54:38.999Z</time>
</trkpt>
<trkpt lat="43.804596" lon="2.90249">
<ele>452.4</ele>
<time>2013-05-08T15:54:39.999Z</time>
</trkpt>
<trkpt lat="43.804422" lon="2.902282">
<ele>453.2</ele>
<time>2013-05-08T15:54:40.999Z</time>
</trkpt>
<trkpt lat="43.804246" lon="2.902085">
<ele>454.3</ele>
<time>2013-05-08T15:54:41.999Z</time>
</trkpt>
<trkpt lat="43.804067" lon="2.901896">
<ele>456.3</ele>
<time>2013-05-08T15:54:42.999Z</time>
</trkpt>
<trkpt lat="43.803874" lon="2.901734">
<ele>458.2</ele>
<time>2013-05-08T15:54:43.999Z</time>
</trkpt>
<trkpt lat="43.803681" lon="2.901611">
<ele>459.8</ele>
<time>2013-05-08T15:54:44.999Z</time>
</trkpt>
<trkpt lat="43.803483" lon="2.901529">
<ele>461</ele>
<time>2013-05-08T15:54:45.999Z</time>
</trkpt>
<trkpt lat="43.803278" lon="2.901454">
<ele>461.9</ele>
<time>2013-05-08T15:54:46.999Z</time>
</trkpt>
<trkpt lat="43.803071" lon="2.901377">
<ele>462.8</ele>
<time>2013-05-08T15:54:47.999Z</time>
</trkpt>
<trkpt lat="43.802865" lon="2.901304">
<ele>463.4</ele>
<time>2013-05-08T15:54:48.999Z</time>
</trkpt>
<trkpt lat="43.802669" lon="2.901264">
<ele>464.1</ele>
<time>2013-05-08T15:54:49.999Z</time>
</trkpt>
<trkpt lat="43.802475" lon="2.901264">
<ele>463.8</ele>
<time>2013-05-08T15:54:50.999Z</time>
</trkpt>
<trkpt lat="43.802285" lon="2.901309">
<ele>463.3</ele>
<time>2013-05-08T15:54:51.999Z</time>
</trkpt>
<trkpt lat="43.8021" lon="2.901374">
<ele>462.5</ele>
<time>2013-05-08T15:54:52.999Z</time>
</trkpt>
<trkpt lat="43.80191" lon="2.901465">
<ele>461.7</ele>
<time>2013-05-08T15:54:53.999Z</time>
</trkpt>
<trkpt lat="43.801723" lon="2.901585">
<ele>460.7</ele>
<time>2013-05-08T15:54:54.999Z</time>
</trkpt>
<trkpt lat="43.801546" lon="2.90174">
<ele>459.9</ele>
<time>2013-05-08T15:54:55.999Z</time>
</trkpt>
<trkpt lat="43.801369" lon="2.9019">
<ele>459.3</ele>
<time>2013-05-08T15:54:56.999Z</time>
</trkpt>
<trkpt lat="43.801198" lon="2.902083">
<ele>458.9</ele>
<time>2013-05-08T15:54:57.999Z</time>
</trkpt>
<trkpt lat="43.801032" lon="2.902266">
<ele>458.6</ele>
<time>2013-05-08T15:54:58.999Z</time>
</trkpt>
<trkpt lat="43.800885" lon="2.902467">
<ele>458.6</ele>
<time>2013-05-08T15:54:59.999Z</time>
</trkpt>
<trkpt lat="43.800768" lon="2.902699">
<ele>459</ele>
<time>2013-05-08T15:55:00.999Z</time>
</trkpt>
<trkpt lat="43.80067" lon="2.90297">
<ele>460</ele>
<time>2013-05-08T15:55:01.999Z</time>
</trkpt>
<trkpt lat="43.800595" lon="2.903259">
<ele>461</ele>
<time>2013-05-08T15:55:02.999Z</time>
</trkpt>
<trkpt lat="43.800545" lon="2.903571">
<ele>461.9</ele>
<time>2013-05-08T15:55:03.999Z</time>
</trkpt>
<trkpt lat="43.800502" lon="2.903894">
<ele>462.9</ele>
<time>2013-05-08T15:55:04.999Z</time>
</trkpt>
<trkpt lat="43.800461" lon="2.904217">
<ele>463.8</ele>
<time>2013-05-08T15:55:05.999Z</time>
</trkpt>
<trkpt lat="43.800421" lon="2.904538">
<ele>464.6</ele>
<time>2013-05-08T15:55:06.999Z</time>
</trkpt>
<trkpt lat="43.800379" lon="2.904852">
<ele>465.3</ele>
<time>2013-05-08T15:55:07.999Z</time>
</trkpt>
<trkpt lat="43.800338" lon="2.905177">
<ele>465.9</ele>
<time>2013-05-08T15:55:08.999Z</time>
</trkpt>
<trkpt lat="43.800324" lon="2.90548">
<ele>466.5</ele>
<time>2013-05-08T15:55:09.999Z</time>
</trkpt>
<trkpt lat="43.80034" lon="2.905788">
<ele>467.2</ele>
<time>2013-05-08T15:55:10.999Z</time>
</trkpt>
<trkpt lat="43.80037" lon="2.906072">
<ele>467.6</ele>
<time>2013-05-08T15:55:11.999Z</time>
</trkpt>
<trkpt lat="43.80041" lon="2.906336">
<ele>467.7</ele>
<time>2013-05-08T15:55:12.999Z</time>
</trkpt>
<trkpt lat="43.800452" lon="2.906581">
<ele>467.6</ele>
<time>2013-05-08T15:55:13.999Z</time>
</trkpt>
<trkpt lat="43.80049" lon="2.906821">
<ele>467.4</ele>
<time>2013-05-08T15:55:14.999Z</time>
</trkpt>
<trkpt lat="43.80053" lon="2.907033">
<ele>467.2</ele>
<time>2013-05-08T15:55:15.999Z</time>
</trkpt>
<trkpt lat="43.800571" lon="2.907239">
<ele>467.2</ele>
<time>2013-05-08T15:55:16.999Z</time>
</trkpt>
<trkpt lat="43.800611" lon="2.907454">
<ele>467.5</ele>
<time>2013-05-08T15:55:17.999Z</time>
</trkpt>
<trkpt lat="43.800645" lon="2.907655">
<ele>467.7</ele>
<time>2013-05-08T15:55:18.999Z</time>
</trkpt>
<trkpt lat="43.800672" lon="2.907855">
<ele>468</ele>
<time>2013-05-08T15:55:19.999Z</time>
</trkpt>
<trkpt lat="43.800691" lon="2.908039">
<ele>468.4</ele>
<time>2013-05-08T15:55:20.999Z</time>
</trkpt>
<trkpt lat="43.800706" lon="2.908202">
<ele>468.8</ele>
<time>2013-05-08T15:55:21.999Z</time>
</trkpt>
<trkpt lat="43.800715" lon="2.908368">
<ele>469.2</ele>
<time>2013-05-08T15:55:22.999Z</time>
</trkpt>
<trkpt lat="43.800726" lon="2.90855">
<ele>469.9</ele>
<time>2013-05-08T15:55:24.000Z</time>
</trkpt>
<trkpt lat="43.800737" lon="2.908723">
<ele>470.5</ele>
<time>2013-05-08T15:55:25.000Z</time>
</trkpt>
<trkpt lat="43.800757" lon="2.908896">
<ele>471</ele>
<time>2013-05-08T15:55:26.000Z</time>
</trkpt>
<trkpt lat="43.800783" lon="2.909062">
<ele>471.2</ele>
<time>2013-05-08T15:55:27.000Z</time>
</trkpt>
<trkpt lat="43.800815" lon="2.909227">
<ele>471.3</ele>
<time>2013-05-08T15:55:28.000Z</time>
</trkpt>
<trkpt lat="43.800854" lon="2.909405">
<ele>471.1</ele>
<time>2013-05-08T15:55:29.000Z</time>
</trkpt>
<trkpt lat="43.800895" lon="2.90958">
<ele>470.8</ele>
<time>2013-05-08T15:55:30.000Z</time>
</trkpt>
<trkpt lat="43.800933" lon="2.909739">
<ele>470.3</ele>
<time>2013-05-08T15:55:31.000Z</time>
</trkpt>
<trkpt lat="43.800974" lon="2.909902">
<ele>469.7</ele>
<time>2013-05-08T15:55:32.000Z</time>
</trkpt>
<trkpt lat="43.801014" lon="2.910071">
<ele>469</ele>
<time>2013-05-08T15:55:33.000Z</time>
</trkpt>
<trkpt lat="43.801056" lon="2.910248">
<ele>468.3</ele>
<time>2013-05-08T15:55:34.000Z</time>
</trkpt>
<trkpt lat="43.801099" lon="2.91043">
<ele>467.6</ele>
<time>2013-05-08T15:55:35.000Z</time>
</trkpt>
<trkpt lat="43.801143" lon="2.910613">
<ele>466.8</ele>
<time>2013-05-08T15:55:36.000Z</time>
</trkpt>
<trkpt lat="43.80119" lon="2.910801">
<ele>466</ele>
<time>2013-05-08T15:55:37.000Z</time>
</trkpt>
<trkpt lat="43.801239" lon="2.910995">
<ele>465.2</ele>
<time>2013-05-08T15:55:38.000Z</time>
</trkpt>
<trkpt lat="43.801296" lon="2.911197">
<ele>464.6</ele>
<time>2013-05-08T15:55:39.000Z</time>
</trkpt>
<trkpt lat="43.801353" lon="2.911399">
<ele>464.3</ele>
<time>2013-05-08T15:55:40.000Z</time>
</trkpt>
<trkpt lat="43.801405" lon="2.911593">
<ele>464.2</ele>
<time>2013-05-08T15:55:41.000Z</time>
</trkpt>
<trkpt lat="43.801453" lon="2.91178">
<ele>464.1</ele>
<time>2013-05-08T15:55:42.000Z</time>
</trkpt>
<trkpt lat="43.801504" lon="2.911974">
<ele>464.2</ele>
<time>2013-05-08T15:55:43.000Z</time>
</trkpt>
<trkpt lat="43.801559" lon="2.912188">
<ele>464.4</ele>
<time>2013-05-08T15:55:44.000Z</time>
</trkpt>
<trkpt lat="43.80161" lon="2.912433">
<ele>464.6</ele>
<time>2013-05-08T15:55:45.000Z</time>
</trkpt>
<trkpt lat="43.801657" lon="2.912719">
<ele>464.9</ele>
<time>2013-05-08T15:55:46.000Z</time>
</trkpt>
<trkpt lat="43.801692" lon="2.913031">
<ele>465.3</ele>
<time>2013-05-08T15:55:47.000Z</time>
</trkpt>
<trkpt lat="43.801703" lon="2.91337">
<ele>465.7</ele>
<time>2013-05-08T15:55:48.000Z</time>
</trkpt>
<trkpt lat="43.801713" lon="2.913724">
<ele>466.2</ele>
<time>2013-05-08T15:55:49.000Z</time>
</trkpt>
<trkpt lat="43.801723" lon="2.914081">
<ele>466.8</ele>
<time>2013-05-08T15:55:50.000Z</time>
</trkpt>
<trkpt lat="43.801727" lon="2.914425">
<ele>467.4</ele>
<time>2013-05-08T15:55:51.000Z</time>
</trkpt>
<trkpt lat="43.801728" lon="2.91475">
<ele>468.1</ele>
<time>2013-05-08T15:55:52.000Z</time>
</trkpt>
<trkpt lat="43.801731" lon="2.915063">
<ele>468.7</ele>
<time>2013-05-08T15:55:53.000Z</time>
</trkpt>
<trkpt lat="43.801735" lon="2.91536">
<ele>469.5</ele>
<time>2013-05-08T15:55:54.000Z</time>
</trkpt>
<trkpt lat="43.801744" lon="2.915654">
<ele>470.2</ele>
<time>2013-05-08T15:55:55.000Z</time>
</trkpt>
<trkpt lat="43.801747" lon="2.915952">
<ele>470.9</ele>
<time>2013-05-08T15:55:56.000Z</time>
</trkpt>
<trkpt lat="43.801752" lon="2.916256">
<ele>471.4</ele>
<time>2013-05-08T15:55:57.000Z</time>
</trkpt>
<trkpt lat="43.80176" lon="2.916581">
<ele>471.6</ele>
<time>2013-05-08T15:55:58.000Z</time>
</trkpt>
<trkpt lat="43.801772" lon="2.916907">
<ele>471.7</ele>
<time>2013-05-08T15:55:59.000Z</time>
</trkpt>
<trkpt lat="43.801787" lon="2.917243">
<ele>471.7</ele>
<time>2013-05-08T15:56:00.000Z</time>
</trkpt>
<trkpt lat="43.801804" lon="2.917579">
<ele>471.6</ele>
<time>2013-05-08T15:56:01.000Z</time>
</trkpt>
<trkpt lat="43.801817" lon="2.917916">
<ele>471.5</ele>
<time>2013-05-08T15:56:02.000Z</time>
</trkpt>
<trkpt lat="43.801834" lon="2.918249">
<ele>471.6</ele>
<time>2013-05-08T15:56:03.000Z</time>
</trkpt>
<trkpt lat="43.801851" lon="2.91858">
<ele>471.8</ele>
<time>2013-05-08T15:56:04.000Z</time>
</trkpt>
<trkpt lat="43.801868" lon="2.918912">
<ele>472</ele>
<time>2013-05-08T15:56:05.000Z</time>
</trkpt>
<trkpt lat="43.801878" lon="2.919249">
<ele>472.1</ele>
<time>2013-05-08T15:56:06.000Z</time>
</trkpt>
<trkpt lat="43.801889" lon="2.919582">
<ele>472.2</ele>
<time>2013-05-08T15:56:07.000Z</time>
</trkpt>
<trkpt lat="43.801895" lon="2.919915">
<ele>472.6</ele>
<time>2013-05-08T15:56:08.000Z</time>
</trkpt>
<trkpt lat="43.801883" lon="2.920257">
<ele>473.4</ele>
<time>2013-05-08T15:56:09.000Z</time>
</trkpt>
<trkpt lat="43.801829" lon="2.920594">
<ele>474.2</ele>
<time>2013-05-08T15:56:10.000Z</time>
</trkpt>
<trkpt lat="43.801754" lon="2.920927">
<ele>474.7</ele>
<time>2013-05-08T15:56:11.000Z</time>
</trkpt>
<trkpt lat="43.801662" lon="2.921251">
<ele>474.8</ele>
<time>2013-05-08T15:56:12.000Z</time>
</trkpt>
<trkpt lat="43.801571" lon="2.921565">
<ele>474.7</ele>
<time>2013-05-08T15:56:13.000Z</time>
</trkpt>
<trkpt lat="43.801477" lon="2.921878">
<ele>474.7</ele>
<time>2013-05-08T15:56:14.000Z</time>
</trkpt>
<trkpt lat="43.801411" lon="2.922201">
<ele>474.7</ele>
<time>2013-05-08T15:56:15.000Z</time>
</trkpt>
<trkpt lat="43.801369" lon="2.922516">
<ele>474.6</ele>
<time>2013-05-08T15:56:16.000Z</time>
</trkpt>
<trkpt lat="43.801342" lon="2.922833">
<ele>474.6</ele>
<time>2013-05-08T15:56:17.000Z</time>
</trkpt>
<trkpt lat="43.801332" lon="2.923142">
<ele>474.6</ele>
<time>2013-05-08T15:56:18.000Z</time>
</trkpt>
<trkpt lat="43.80131" lon="2.923444">
<ele>474.9</ele>
<time>2013-05-08T15:56:19.000Z</time>
</trkpt>
<trkpt lat="43.801278" lon="2.923716">
<ele>475.3</ele>
<time>2013-05-08T15:56:20.000Z</time>
</trkpt>
<trkpt lat="43.801197" lon="2.923952">
<ele>475.2</ele>
<time>2013-05-08T15:56:21.000Z</time>
</trkpt>
<trkpt lat="43.801081" lon="2.924151">
<ele>475.1</ele>
<time>2013-05-08T15:56:22.000Z</time>
</trkpt>
<trkpt lat="43.800936" lon="2.924338">
<ele>475.3</ele>
<time>2013-05-08T15:56:23.000Z</time>
</trkpt>
<trkpt lat="43.800761" lon="2.924493">
<ele>475.3</ele>
<time>2013-05-08T15:56:24.000Z</time>
</trkpt>
<trkpt lat="43.800564" lon="2.924616">
<ele>476</ele>
<time>2013-05-08T15:56:25.000Z</time>
</trkpt>
<trkpt lat="43.800374" lon="2.924755">
<ele>476.2</ele>
<time>2013-05-08T15:56:26.000Z</time>
</trkpt>
<trkpt lat="43.800207" lon="2.924922">
<ele>475.4</ele>
<time>2013-05-08T15:56:27.000Z</time>
</trkpt>
<trkpt lat="43.800066" lon="2.925112">
<ele>474.8</ele>
<time>2013-05-08T15:56:28.000Z</time>
</trkpt>
<trkpt lat="43.79993" lon="2.925311">
<ele>474.1</ele>
<time>2013-05-08T15:56:29.000Z</time>
</trkpt>
<trkpt lat="43.79983" lon="2.925588">
<ele>473.9</ele>
<time>2013-05-08T15:56:30.000Z</time>
</trkpt>
<trkpt lat="43.799769" lon="2.925893">
<ele>473.7</ele>
<time>2013-05-08T15:56:31.000Z</time>
</trkpt>
<trkpt lat="43.799738" lon="2.926224">
<ele>473.4</ele>
<time>2013-05-08T15:56:32.000Z</time>
</trkpt>
<trkpt lat="43.799718" lon="2.926599">
<ele>472.9</ele>
<time>2013-05-08T15:56:33.000Z</time>
</trkpt>
<trkpt lat="43.799706" lon="2.926988">
<ele>472.8</ele>
<time>2013-05-08T15:56:34.000Z</time>
</trkpt>
<trkpt lat="43.799707" lon="2.927387">
<ele>472.9</ele>
<time>2013-05-08T15:56:35.000Z</time>
</trkpt>
<trkpt lat="43.799705" lon="2.927793">
<ele>472.4</ele>
<time>2013-05-08T15:56:36.000Z</time>
</trkpt>
<trkpt lat="43.799686" lon="2.928186">
<ele>472</ele>
<time>2013-05-08T15:56:37.000Z</time>
</trkpt>
<trkpt lat="43.799669" lon="2.92857">
<ele>471.9</ele>
<time>2013-05-08T15:56:38.000Z</time>
</trkpt>
<trkpt lat="43.799651" lon="2.928944">
<ele>471.4</ele>
<time>2013-05-08T15:56:39.000Z</time>
</trkpt>
<trkpt lat="43.79963" lon="2.929299">
<ele>470.9</ele>
<time>2013-05-08T15:56:40.000Z</time>
</trkpt>
<trkpt lat="43.79961" lon="2.929653">
<ele>470.2</ele>
<time>2013-05-08T15:56:41.000Z</time>
</trkpt>
<trkpt lat="43.799618" lon="2.930002">
<ele>469.3</ele>
<time>2013-05-08T15:56:42.000Z</time>
</trkpt>
<trkpt lat="43.799646" lon="2.930344">
<ele>468.4</ele>
<time>2013-05-08T15:56:43.000Z</time>
</trkpt>
<trkpt lat="43.799684" lon="2.930673">
<ele>467.5</ele>
<time>2013-05-08T15:56:44.000Z</time>
</trkpt>
<trkpt lat="43.799731" lon="2.930984">
<ele>466.5</ele>
<time>2013-05-08T15:56:45.000Z</time>
</trkpt>
<trkpt lat="43.799785" lon="2.931277">
<ele>465.7</ele>
<time>2013-05-08T15:56:46.000Z</time>
</trkpt>
<trkpt lat="43.799853" lon="2.931553">
<ele>465</ele>
<time>2013-05-08T15:56:47.000Z</time>
</trkpt>
<trkpt lat="43.799923" lon="2.931814">
<ele>464.5</ele>
<time>2013-05-08T15:56:48.000Z</time>
</trkpt>
<trkpt lat="43.799992" lon="2.93208">
<ele>464.3</ele>
<time>2013-05-08T15:56:49.000Z</time>
</trkpt>
<trkpt lat="43.800041" lon="2.932334">
<ele>463.7</ele>
<time>2013-05-08T15:56:50.000Z</time>
</trkpt>
<trkpt lat="43.800058" lon="2.932604">
<ele>463.3</ele>
<time>2013-05-08T15:56:51.000Z</time>
</trkpt>
<trkpt lat="43.800055" lon="2.932909">
<ele>463.7</ele>
<time>2013-05-08T15:56:52.000Z</time>
</trkpt>
<trkpt lat="43.80004" lon="2.933239">
<ele>464.3</ele>
<time>2013-05-08T15:56:53.000Z</time>
</trkpt>
<trkpt lat="43.800003" lon="2.933588">
<ele>465.4</ele>
<time>2013-05-08T15:56:54.000Z</time>
</trkpt>
<trkpt lat="43.799958" lon="2.933948">
<ele>466.8</ele>
<time>2013-05-08T15:56:55.000Z</time>
</trkpt>
<trkpt lat="43.799916" lon="2.934309">
<ele>468.1</ele>
<time>2013-05-08T15:56:56.000Z</time>
</trkpt>
<trkpt lat="43.799874" lon="2.934665">
<ele>469.1</ele>
<time>2013-05-08T15:56:57.000Z</time>
</trkpt>
<trkpt lat="43.799831" lon="2.935019">
<ele>470</ele>
<time>2013-05-08T15:56:58.000Z</time>
</trkpt>
<trkpt lat="43.79978" lon="2.935368">
<ele>471</ele>
<time>2013-05-08T15:56:59.000Z</time>
</trkpt>
<trkpt lat="43.799731" lon="2.935703">
<ele>472</ele>
<time>2013-05-08T15:57:00.000Z</time>
</trkpt>
<trkpt lat="43.799679" lon="2.936024">
<ele>472.9</ele>
<time>2013-05-08T15:57:01.000Z</time>
</trkpt>
<trkpt lat="43.799628" lon="2.936325">
<ele>473.8</ele>
<time>2013-05-08T15:57:02.000Z</time>
</trkpt>
<trkpt lat="43.799578" lon="2.936621">
<ele>474.6</ele>
<time>2013-05-08T15:57:03.000Z</time>
</trkpt>
<trkpt lat="43.799529" lon="2.936906">
<ele>475.1</ele>
<time>2013-05-08T15:57:04.000Z</time>
</trkpt>
<trkpt lat="43.799482" lon="2.937181">
<ele>475.3</ele>
<time>2013-05-08T15:57:05.000Z</time>
</trkpt>
<trkpt lat="43.799436" lon="2.937455">
<ele>475.8</ele>
<time>2013-05-08T15:57:06.000Z</time>
</trkpt>
<trkpt lat="43.799388" lon="2.937697">
<ele>476.1</ele>
<time>2013-05-08T15:57:07.000Z</time>
</trkpt>
<trkpt lat="43.799343" lon="2.937935">
<ele>476.3</ele>
<time>2013-05-08T15:57:08.000Z</time>
</trkpt>
<trkpt lat="43.799274" lon="2.938136">
<ele>476.7</ele>
<time>2013-05-08T15:57:09.000Z</time>
</trkpt>
<trkpt lat="43.799203" lon="2.938321">
<ele>476.9</ele>
<time>2013-05-08T15:57:10.000Z</time>
</trkpt>
<trkpt lat="43.799136" lon="2.938477">
<ele>476.7</ele>
<time>2013-05-08T15:57:11.000Z</time>
</trkpt>
<trkpt lat="43.799026" lon="2.938624">
<ele>476</ele>
<time>2013-05-08T15:57:12.000Z</time>
</trkpt>
<trkpt lat="43.7989" lon="2.938766">
<ele>475.3</ele>
<time>2013-05-08T15:57:13.000Z</time>
</trkpt>
<trkpt lat="43.798754" lon="2.938869">
<ele>474.7</ele>
<time>2013-05-08T15:57:14.000Z</time>
</trkpt>
<trkpt lat="43.798611" lon="2.938956">
<ele>474.2</ele>
<time>2013-05-08T15:57:15.000Z</time>
</trkpt>
<trkpt lat="43.798469" lon="2.939022">
<ele>474</ele>
<time>2013-05-08T15:57:16.000Z</time>
</trkpt>
<trkpt lat="43.79832" lon="2.939073">
<ele>473.8</ele>
<time>2013-05-08T15:57:17.000Z</time>
</trkpt>
<trkpt lat="43.798159" lon="2.939129">
<ele>473.7</ele>
<time>2013-05-08T15:57:18.000Z</time>
</trkpt>
<trkpt lat="43.797984" lon="2.939192">
<ele>473.9</ele>
<time>2013-05-08T15:57:19.000Z</time>
</trkpt>
<trkpt lat="43.797808" lon="2.939268">
<ele>473.9</ele>
<time>2013-05-08T15:57:20.000Z</time>
</trkpt>
<trkpt lat="43.797631" lon="2.939358">
<ele>473.6</ele>
<time>2013-05-08T15:57:21.000Z</time>
</trkpt>
<trkpt lat="43.797456" lon="2.939471">
<ele>473.4</ele>
<time>2013-05-08T15:57:22.000Z</time>
</trkpt>
<trkpt lat="43.797281" lon="2.939589">
<ele>473.2</ele>
<time>2013-05-08T15:57:23.000Z</time>
</trkpt>
<trkpt lat="43.797109" lon="2.939705">
<ele>473.2</ele>
<time>2013-05-08T15:57:24.000Z</time>
</trkpt>
<trkpt lat="43.796944" lon="2.939822">
<ele>473.5</ele>
<time>2013-05-08T15:57:25.000Z</time>
</trkpt>
<trkpt lat="43.79678" lon="2.939941">
<ele>473.9</ele>
<time>2013-05-08T15:57:26.000Z</time>
</trkpt>
<trkpt lat="43.796625" lon="2.940064">
<ele>474.6</ele>
<time>2013-05-08T15:57:27.000Z</time>
</trkpt>
<trkpt lat="43.796482" lon="2.940194">
<ele>475.3</ele>
<time>2013-05-08T15:57:28.000Z</time>
</trkpt>
<trkpt lat="43.796347" lon="2.940331">
<ele>476</ele>
<time>2013-05-08T15:57:29.000Z</time>
</trkpt>
<trkpt lat="43.796243" lon="2.940501">
<ele>476.5</ele>
<time>2013-05-08T15:57:30.000Z</time>
</trkpt>
<trkpt lat="43.796129" lon="2.940676">
<ele>477.5</ele>
<time>2013-05-08T15:57:31.000Z</time>
</trkpt>
<trkpt lat="43.796003" lon="2.94084">
<ele>478.6</ele>
<time>2013-05-08T15:57:32.000Z</time>
</trkpt>
<trkpt lat="43.795845" lon="2.940942">
<ele>479.5</ele>
<time>2013-05-08T15:57:33.000Z</time>
</trkpt>
<trkpt lat="43.795707" lon="2.941014">
<ele>480.1</ele>
<time>2013-05-08T15:57:34.000Z</time>
</trkpt>
<trkpt lat="43.795565" lon="2.941019">
<ele>480.7</ele>
<time>2013-05-08T15:57:35.000Z</time>
</trkpt>
<trkpt lat="43.79542" lon="2.940899">
<ele>481.1</ele>
<time>2013-05-08T15:57:36.000Z</time>
</trkpt>
<trkpt lat="43.795261" lon="2.94074">
<ele>481.6</ele>
<time>2013-05-08T15:57:37.000Z</time>
</trkpt>
<trkpt lat="43.795098" lon="2.94056">
<ele>482</ele>
<time>2013-05-08T15:57:38.000Z</time>
</trkpt>
<trkpt lat="43.794932" lon="2.940367">
<ele>482.7</ele>
<time>2013-05-08T15:57:39.000Z</time>
</trkpt>
<trkpt lat="43.794786" lon="2.940142">
<ele>483.6</ele>
<time>2013-05-08T15:57:40.000Z</time>
</trkpt>
<trkpt lat="43.794649" lon="2.939906">
<ele>484.6</ele>
<time>2013-05-08T15:57:41.000Z</time>
</trkpt>
<trkpt lat="43.794525" lon="2.939669">
<ele>485.5</ele>
<time>2013-05-08T15:57:42.000Z</time>
</trkpt>
<trkpt lat="43.794395" lon="2.939455">
<ele>486.6</ele>
<time>2013-05-08T15:57:43.000Z</time>
</trkpt>
<trkpt lat="43.794245" lon="2.939252">
<ele>487.9</ele>
<time>2013-05-08T15:57:44.000Z</time>
</trkpt>
<trkpt lat="43.794075" lon="2.939058">
<ele>489.5</ele>
<time>2013-05-08T15:57:45.000Z</time>
</trkpt>
<trkpt lat="43.793894" lon="2.938882">
<ele>490.8</ele>
<time>2013-05-08T15:57:46.000Z</time>
</trkpt>
<trkpt lat="43.793709" lon="2.938711">
<ele>491.8</ele>
<time>2013-05-08T15:57:47.000Z</time>
</trkpt>
<trkpt lat="43.793541" lon="2.938519">
<ele>492.6</ele>
<time>2013-05-08T15:57:48.000Z</time>
</trkpt>
<trkpt lat="43.793366" lon="2.938344">
<ele>492.8</ele>
<time>2013-05-08T15:57:49.000Z</time>
</trkpt>
<trkpt lat="43.793178" lon="2.938201">
<ele>493.3</ele>
<time>2013-05-08T15:57:50.000Z</time>
</trkpt>
<trkpt lat="43.792982" lon="2.938101">
<ele>493.5</ele>
<time>2013-05-08T15:57:51.000Z</time>
</trkpt>
<trkpt lat="43.792771" lon="2.938035">
<ele>493.4</ele>
<time>2013-05-08T15:57:52.000Z</time>
</trkpt>
<trkpt lat="43.792547" lon="2.938">
<ele>493.6</ele>
<time>2013-05-08T15:57:53.000Z</time>
</trkpt>
<trkpt lat="43.792312" lon="2.937988">
<ele>494</ele>
<time>2013-05-08T15:57:54.000Z</time>
</trkpt>
<trkpt lat="43.792072" lon="2.93798">
<ele>494.2</ele>
<time>2013-05-08T15:57:55.000Z</time>
</trkpt>
<trkpt lat="43.791838" lon="2.937973">
<ele>494</ele>
<time>2013-05-08T15:57:56.000Z</time>
</trkpt>
<trkpt lat="43.791607" lon="2.937955">
<ele>493.6</ele>
<time>2013-05-08T15:57:57.000Z</time>
</trkpt>
<trkpt lat="43.791378" lon="2.937928">
<ele>493.1</ele>
<time>2013-05-08T15:57:58.000Z</time>
</trkpt>
<trkpt lat="43.791158" lon="2.937873">
<ele>492.6</ele>
<time>2013-05-08T15:57:59.000Z</time>
</trkpt>
<trkpt lat="43.790952" lon="2.937783">
<ele>491.9</ele>
<time>2013-05-08T15:58:00.000Z</time>
</trkpt>
<trkpt lat="43.79074" lon="2.93767">
<ele>491.8</ele>
<time>2013-05-08T15:58:01.000Z</time>
</trkpt>
<trkpt lat="43.790542" lon="2.937573">
<ele>491.6</ele>
<time>2013-05-08T15:58:02.000Z</time>
</trkpt>
<trkpt lat="43.790352" lon="2.937514">
<ele>491.4</ele>
<time>2013-05-08T15:58:03.000Z</time>
</trkpt>
<trkpt lat="43.790163" lon="2.937493">
<ele>491.5</ele>
<time>2013-05-08T15:58:04.000Z</time>
</trkpt>
<trkpt lat="43.789968" lon="2.937513">
<ele>491.6</ele>
<time>2013-05-08T15:58:05.000Z</time>
</trkpt>
<trkpt lat="43.789763" lon="2.937524">
<ele>491</ele>
<time>2013-05-08T15:58:06.000Z</time>
</trkpt>
<trkpt lat="43.789589" lon="2.937645">
<ele>490</ele>
<time>2013-05-08T15:58:07.000Z</time>
</trkpt>
<trkpt lat="43.789434" lon="2.937807">
<ele>489.5</ele>
<time>2013-05-08T15:58:08.000Z</time>
</trkpt>
<trkpt lat="43.789287" lon="2.93798">
<ele>488.8</ele>
<time>2013-05-08T15:58:09.000Z</time>
</trkpt>
<trkpt lat="43.789138" lon="2.938164">
<ele>488</ele>
<time>2013-05-08T15:58:10.000Z</time>
</trkpt>
<trkpt lat="43.789002" lon="2.93835">
<ele>486.9</ele>
<time>2013-05-08T15:58:11.000Z</time>
</trkpt>
<trkpt lat="43.78887" lon="2.938529">
<ele>486</ele>
<time>2013-05-08T15:58:12.000Z</time>
</trkpt>
<trkpt lat="43.788745" lon="2.938701">
<ele>485.5</ele>
<time>2013-05-08T15:58:13.000Z</time>
</trkpt>
<trkpt lat="43.788618" lon="2.938865">
<ele>485.1</ele>
<time>2013-05-08T15:58:14.000Z</time>
</trkpt>
<trkpt lat="43.7885" lon="2.939015">
<ele>484.7</ele>
<time>2013-05-08T15:58:15.000Z</time>
</trkpt>
<trkpt lat="43.788373" lon="2.939156">
<ele>484.5</ele>
<time>2013-05-08T15:58:16.000Z</time>
</trkpt>
<trkpt lat="43.788211" lon="2.939228">
<ele>484.4</ele>
<time>2013-05-08T15:58:17.000Z</time>
</trkpt>
<trkpt lat="43.788054" lon="2.939235">
<ele>484.2</ele>
<time>2013-05-08T15:58:18.000Z</time>
</trkpt>
<trkpt lat="43.787893" lon="2.939185">
<ele>484.1</ele>
<time>2013-05-08T15:58:19.000Z</time>
</trkpt>
<trkpt lat="43.787718" lon="2.939116">
<ele>484.3</ele>
<time>2013-05-08T15:58:20.000Z</time>
</trkpt>
<trkpt lat="43.787536" lon="2.939026">
<ele>484.6</ele>
<time>2013-05-08T15:58:21.000Z</time>
</trkpt>
<trkpt lat="43.787368" lon="2.938888">
<ele>484.7</ele>
<time>2013-05-08T15:58:22.000Z</time>
</trkpt>
<trkpt lat="43.787214" lon="2.938745">
<ele>484.7</ele>
<time>2013-05-08T15:58:23.000Z</time>
</trkpt>
<trkpt lat="43.787034" lon="2.938605">
<ele>484.8</ele>
<time>2013-05-08T15:58:24.000Z</time>
</trkpt>
<trkpt lat="43.786849" lon="2.938447">
<ele>485.2</ele>
<time>2013-05-08T15:58:25.000Z</time>
</trkpt>
<trkpt lat="43.786662" lon="2.938281">
<ele>486.3</ele>
<time>2013-05-08T15:58:26.000Z</time>
</trkpt>
<trkpt lat="43.786482" lon="2.938118">
<ele>487.3</ele>
<time>2013-05-08T15:58:27.000Z</time>
</trkpt>
<trkpt lat="43.786334" lon="2.937941">
<ele>488.2</ele>
<time>2013-05-08T15:58:28.000Z</time>
</trkpt>
<trkpt lat="43.786177" lon="2.937759">
<ele>488.8</ele>
<time>2013-05-08T15:58:29.000Z</time>
</trkpt>
<trkpt lat="43.785995" lon="2.937574">
<ele>489.6</ele>
<time>2013-05-08T15:58:30.000Z</time>
</trkpt>
<trkpt lat="43.785814" lon="2.937402">
<ele>490.4</ele>
<time>2013-05-08T15:58:31.000Z</time>
</trkpt>
<trkpt lat="43.785639" lon="2.937237">
<ele>491.2</ele>
<time>2013-05-08T15:58:32.000Z</time>
</trkpt>
<trkpt lat="43.785451" lon="2.937084">
<ele>492.1</ele>
<time>2013-05-08T15:58:33.000Z</time>
</trkpt>
<trkpt lat="43.785255" lon="2.936945">
<ele>492.9</ele>
<time>2013-05-08T15:58:34.000Z</time>
</trkpt>
<trkpt lat="43.78505" lon="2.936815">
<ele>493.6</ele>
<time>2013-05-08T15:58:35.000Z</time>
</trkpt>
<trkpt lat="43.784833" lon="2.936698">
<ele>494</ele>
<time>2013-05-08T15:58:36.000Z</time>
</trkpt>
<trkpt lat="43.784605" lon="2.936592">
<ele>494.1</ele>
<time>2013-05-08T15:58:37.000Z</time>
</trkpt>
<trkpt lat="43.784354" lon="2.936484">
<ele>494.1</ele>
<time>2013-05-08T15:58:38.000Z</time>
</trkpt>
<trkpt lat="43.784087" lon="2.936361">
<ele>494.5</ele>
<time>2013-05-08T15:58:39.000Z</time>
</trkpt>
<trkpt lat="43.783805" lon="2.936247">
<ele>495.2</ele>
<time>2013-05-08T15:58:40.000Z</time>
</trkpt>
<trkpt lat="43.783537" lon="2.936134">
<ele>494.8</ele>
<time>2013-05-08T15:58:41.000Z</time>
</trkpt>
<trkpt lat="43.783285" lon="2.936037">
<ele>493.5</ele>
<time>2013-05-08T15:58:42.000Z</time>
</trkpt>
<trkpt lat="43.783039" lon="2.935945">
<ele>492.6</ele>
<time>2013-05-08T15:58:43.000Z</time>
</trkpt>
<trkpt lat="43.782801" lon="2.935859">
<ele>492</ele>
<time>2013-05-08T15:58:44.000Z</time>
</trkpt>
<trkpt lat="43.782572" lon="2.935773">
<ele>491.5</ele>
<time>2013-05-08T15:58:45.000Z</time>
</trkpt>
<trkpt lat="43.782356" lon="2.935691">
<ele>491.2</ele>
<time>2013-05-08T15:58:46.000Z</time>
</trkpt>
<trkpt lat="43.782149" lon="2.935613">
<ele>490.8</ele>
<time>2013-05-08T15:58:47.000Z</time>
</trkpt>
<trkpt lat="43.781951" lon="2.935535">
<ele>490.6</ele>
<time>2013-05-08T15:58:48.000Z</time>
</trkpt>
<trkpt lat="43.781755" lon="2.935467">
<ele>490.4</ele>
<time>2013-05-08T15:58:49.000Z</time>
</trkpt>
<trkpt lat="43.781559" lon="2.935396">
<ele>490.2</ele>
<time>2013-05-08T15:58:50.000Z</time>
</trkpt>
<trkpt lat="43.781357" lon="2.935329">
<ele>490.1</ele>
<time>2013-05-08T15:58:51.000Z</time>
</trkpt>
<trkpt lat="43.781143" lon="2.935284">
<ele>489.9</ele>
<time>2013-05-08T15:58:52.000Z</time>
</trkpt>
<trkpt lat="43.780923" lon="2.935248">
<ele>489.7</ele>
<time>2013-05-08T15:58:53.000Z</time>
</trkpt>
<trkpt lat="43.780705" lon="2.935221">
<ele>489.7</ele>
<time>2013-05-08T15:58:54.000Z</time>
</trkpt>
<trkpt lat="43.78049" lon="2.935204">
<ele>489.6</ele>
<time>2013-05-08T15:58:55.000Z</time>
</trkpt>
<trkpt lat="43.780284" lon="2.935206">
<ele>489.4</ele>
<time>2013-05-08T15:58:56.000Z</time>
</trkpt>
<trkpt lat="43.780085" lon="2.935241">
<ele>489.4</ele>
<time>2013-05-08T15:58:57.000Z</time>
</trkpt>
<trkpt lat="43.779892" lon="2.935324">
<ele>489.7</ele>
<time>2013-05-08T15:58:58.000Z</time>
</trkpt>
<trkpt lat="43.779705" lon="2.935445">
<ele>490.2</ele>
<time>2013-05-08T15:58:59.000Z</time>
</trkpt>
<trkpt lat="43.779535" lon="2.935652">
<ele>490.8</ele>
<time>2013-05-08T15:59:00.000Z</time>
</trkpt>
<trkpt lat="43.779373" lon="2.935891">
<ele>491.3</ele>
<time>2013-05-08T15:59:01.000Z</time>
</trkpt>
<trkpt lat="43.77922" lon="2.93614">
<ele>491.6</ele>
<time>2013-05-08T15:59:02.000Z</time>
</trkpt>
<trkpt lat="43.779074" lon="2.93639">
<ele>491.8</ele>
<time>2013-05-08T15:59:03.000Z</time>
</trkpt>
<trkpt lat="43.778938" lon="2.936627">
<ele>491.8</ele>
<time>2013-05-08T15:59:04.000Z</time>
</trkpt>
<trkpt lat="43.778804" lon="2.936846">
<ele>491.5</ele>
<time>2013-05-08T15:59:05.000Z</time>
</trkpt>
<trkpt lat="43.77865" lon="2.937026">
<ele>491.3</ele>
<time>2013-05-08T15:59:06.000Z</time>
</trkpt>
<trkpt lat="43.778472" lon="2.937173">
<ele>491.7</ele>
<time>2013-05-08T15:59:07.000Z</time>
</trkpt>
<trkpt lat="43.778289" lon="2.937305">
<ele>492.2</ele>
<time>2013-05-08T15:59:08.000Z</time>
</trkpt>
<trkpt lat="43.778115" lon="2.937435">
<ele>492.9</ele>
<time>2013-05-08T15:59:09.000Z</time>
</trkpt>
<trkpt lat="43.777956" lon="2.937572">
<ele>493.6</ele>
<time>2013-05-08T15:59:10.000Z</time>
</trkpt>
<trkpt lat="43.777794" lon="2.937736">
<ele>493.7</ele>
<time>2013-05-08T15:59:11.000Z</time>
</trkpt>
<trkpt lat="43.777643" lon="2.937937">
<ele>494</ele>
<time>2013-05-08T15:59:12.000Z</time>
</trkpt>
<trkpt lat="43.777505" lon="2.938156">
<ele>494.3</ele>
<time>2013-05-08T15:59:13.000Z</time>
</trkpt>
<trkpt lat="43.777371" lon="2.938404">
<ele>494.5</ele>
<time>2013-05-08T15:59:14.000Z</time>
</trkpt>
<trkpt lat="43.77724" lon="2.938653">
<ele>494.6</ele>
<time>2013-05-08T15:59:15.000Z</time>
</trkpt>
<trkpt lat="43.777099" lon="2.938896">
<ele>494.5</ele>
<time>2013-05-08T15:59:16.000Z</time>
</trkpt>
<trkpt lat="43.776949" lon="2.939133">
<ele>494.2</ele>
<time>2013-05-08T15:59:17.000Z</time>
</trkpt>
<trkpt lat="43.7768" lon="2.939357">
<ele>493.9</ele>
<time>2013-05-08T15:59:18.000Z</time>
</trkpt>
<trkpt lat="43.776646" lon="2.939571">
<ele>493.5</ele>
<time>2013-05-08T15:59:19.000Z</time>
</trkpt>
<trkpt lat="43.77649" lon="2.93978">
<ele>493.1</ele>
<time>2013-05-08T15:59:20.000Z</time>
</trkpt>
<trkpt lat="43.776343" lon="2.939978">
<ele>492.9</ele>
<time>2013-05-08T15:59:21.000Z</time>
</trkpt>
<trkpt lat="43.776204" lon="2.940164">
<ele>492.6</ele>
<time>2013-05-08T15:59:22.000Z</time>
</trkpt>
<trkpt lat="43.776072" lon="2.940341">
<ele>492.5</ele>
<time>2013-05-08T15:59:23.000Z</time>
</trkpt>
<trkpt lat="43.77594" lon="2.940507">
<ele>492.4</ele>
<time>2013-05-08T15:59:24.000Z</time>
</trkpt>
<trkpt lat="43.775815" lon="2.940666">
<ele>492.4</ele>
<time>2013-05-08T15:59:25.000Z</time>
</trkpt>
<trkpt lat="43.775698" lon="2.940824">
<ele>492.6</ele>
<time>2013-05-08T15:59:26.000Z</time>
</trkpt>
<trkpt lat="43.775601" lon="2.940989">
<ele>492.3</ele>
<time>2013-05-08T15:59:27.000Z</time>
</trkpt>
<trkpt lat="43.775537" lon="2.941191">
<ele>492.1</ele>
<time>2013-05-08T15:59:28.000Z</time>
</trkpt>
<trkpt lat="43.775509" lon="2.941394">
<ele>491.9</ele>
<time>2013-05-08T15:59:29.000Z</time>
</trkpt>
<trkpt lat="43.775487" lon="2.941576">
<ele>492</ele>
<time>2013-05-08T15:59:30.000Z</time>
</trkpt>
<trkpt lat="43.775474" lon="2.941744">
<ele>492.2</ele>
<time>2013-05-08T15:59:31.000Z</time>
</trkpt>
<trkpt lat="43.775465" lon="2.941909">
<ele>492.4</ele>
<time>2013-05-08T15:59:32.000Z</time>
</trkpt>
<trkpt lat="43.775458" lon="2.942064">
<ele>492.4</ele>
<time>2013-05-08T15:59:33.000Z</time>
</trkpt>
<trkpt lat="43.775453" lon="2.942209">
<ele>492.6</ele>
<time>2013-05-08T15:59:34.000Z</time>
</trkpt>
<trkpt lat="43.775445" lon="2.942351">
<ele>492.7</ele>
<time>2013-05-08T15:59:35.000Z</time>
</trkpt>
<trkpt lat="43.775397" lon="2.942469">
<ele>492.9</ele>
<time>2013-05-08T15:59:36.000Z</time>
</trkpt>
<trkpt lat="43.775322" lon="2.942563">
<ele>493.1</ele>
<time>2013-05-08T15:59:37.000Z</time>
</trkpt>
<trkpt lat="43.775231" lon="2.942664">
<ele>493.3</ele>
<time>2013-05-08T15:59:38.000Z</time>
</trkpt>
<trkpt lat="43.775124" lon="2.942766">
<ele>493.7</ele>
<time>2013-05-08T15:59:39.000Z</time>
</trkpt>
<trkpt lat="43.774998" lon="2.942876">
<ele>494.4</ele>
<time>2013-05-08T15:59:40.000Z</time>
</trkpt>
<trkpt lat="43.774863" lon="2.942987">
<ele>495.4</ele>
<time>2013-05-08T15:59:41.000Z</time>
</trkpt>
<trkpt lat="43.774719" lon="2.943099">
<ele>496.5</ele>
<time>2013-05-08T15:59:42.000Z</time>
</trkpt>
<trkpt lat="43.774572" lon="2.943215">
<ele>497.1</ele>
<time>2013-05-08T15:59:43.000Z</time>
</trkpt>
<trkpt lat="43.774409" lon="2.943335">
<ele>497.7</ele>
<time>2013-05-08T15:59:44.000Z</time>
</trkpt>
<trkpt lat="43.774247" lon="2.943456">
<ele>498.2</ele>
<time>2013-05-08T15:59:45.000Z</time>
</trkpt>
<trkpt lat="43.774091" lon="2.943576">
<ele>498.2</ele>
<time>2013-05-08T15:59:46.000Z</time>
</trkpt>
<trkpt lat="43.773939" lon="2.943704">
<ele>498.2</ele>
<time>2013-05-08T15:59:47.000Z</time>
</trkpt>
<trkpt lat="43.77379" lon="2.943845">
<ele>498.6</ele>
<time>2013-05-08T15:59:48.000Z</time>
</trkpt>
<trkpt lat="43.773645" lon="2.944007">
<ele>499.5</ele>
<time>2013-05-08T15:59:49.000Z</time>
</trkpt>
<trkpt lat="43.773503" lon="2.944183">
<ele>500.3</ele>
<time>2013-05-08T15:59:50.000Z</time>
</trkpt>
<trkpt lat="43.773373" lon="2.944363">
<ele>500.9</ele>
<time>2013-05-08T15:59:51.000Z</time>
</trkpt>
<trkpt lat="43.773259" lon="2.944558">
<ele>501.4</ele>
<time>2013-05-08T15:59:52.000Z</time>
</trkpt>
<trkpt lat="43.773142" lon="2.944757">
<ele>501.4</ele>
<time>2013-05-08T15:59:53.000Z</time>
</trkpt>
<trkpt lat="43.773022" lon="2.944957">
<ele>501.7</ele>
<time>2013-05-08T15:59:54.000Z</time>
</trkpt>
<trkpt lat="43.772903" lon="2.945161">
<ele>502.3</ele>
<time>2013-05-08T15:59:55.000Z</time>
</trkpt>
<trkpt lat="43.772788" lon="2.945356">
<ele>502.5</ele>
<time>2013-05-08T15:59:56.000Z</time>
</trkpt>
<trkpt lat="43.772675" lon="2.945559">
<ele>502.3</ele>
<time>2013-05-08T15:59:57.000Z</time>
</trkpt>
<trkpt lat="43.772561" lon="2.945764">
<ele>501.9</ele>
<time>2013-05-08T15:59:58.000Z</time>
</trkpt>
<trkpt lat="43.772455" lon="2.945962">
<ele>501.7</ele>
<time>2013-05-08T15:59:59.000Z</time>
</trkpt>
<trkpt lat="43.772342" lon="2.946168">
<ele>501.5</ele>
<time>2013-05-08T16:00:00.000Z</time>
</trkpt>
<trkpt lat="43.772228" lon="2.946377">
<ele>501.4</ele>
<time>2013-05-08T16:00:01.000Z</time>
</trkpt>
<trkpt lat="43.772116" lon="2.946582">
<ele>501.3</ele>
<time>2013-05-08T16:00:02.000Z</time>
</trkpt>
<trkpt lat="43.772004" lon="2.946785">
<ele>501.3</ele>
<time>2013-05-08T16:00:03.000Z</time>
</trkpt>
<trkpt lat="43.771891" lon="2.946985">
<ele>501</ele>
<time>2013-05-08T16:00:04.000Z</time>
</trkpt>
<trkpt lat="43.77178" lon="2.947177">
<ele>500.7</ele>
<time>2013-05-08T16:00:05.000Z</time>
</trkpt>
<trkpt lat="43.77168" lon="2.947374">
<ele>500.1</ele>
<time>2013-05-08T16:00:06.000Z</time>
</trkpt>
<trkpt lat="43.771583" lon="2.947563">
<ele>499.2</ele>
<time>2013-05-08T16:00:07.000Z</time>
</trkpt>
<trkpt lat="43.771501" lon="2.947753">
<ele>498.5</ele>
<time>2013-05-08T16:00:08.000Z</time>
</trkpt>
<trkpt lat="43.771433" lon="2.947936">
<ele>497.7</ele>
<time>2013-05-08T16:00:09.000Z</time>
</trkpt>
<trkpt lat="43.77136" lon="2.948127">
<ele>497.5</ele>
<time>2013-05-08T16:00:10.000Z</time>
</trkpt>
<trkpt lat="43.77129" lon="2.948318">
<ele>497.5</ele>
<time>2013-05-08T16:00:11.000Z</time>
</trkpt>
<trkpt lat="43.771215" lon="2.948506">
<ele>497.7</ele>
<time>2013-05-08T16:00:12.000Z</time>
</trkpt>
<trkpt lat="43.77113" lon="2.948681">
<ele>498.1</ele>
<time>2013-05-08T16:00:13.000Z</time>
</trkpt>
<trkpt lat="43.771027" lon="2.94886">
<ele>498.7</ele>
<time>2013-05-08T16:00:14.000Z</time>
</trkpt>
<trkpt lat="43.770918" lon="2.949025">
<ele>499.2</ele>
<time>2013-05-08T16:00:15.000Z</time>
</trkpt>
<trkpt lat="43.77081" lon="2.949175">
<ele>499.6</ele>
<time>2013-05-08T16:00:16.000Z</time>
</trkpt>
<trkpt lat="43.770695" lon="2.949323">
<ele>500</ele>
<time>2013-05-08T16:00:17.000Z</time>
</trkpt>
<trkpt lat="43.770568" lon="2.949472">
<ele>500.6</ele>
<time>2013-05-08T16:00:18.000Z</time>
</trkpt>
<trkpt lat="43.770445" lon="2.949598">
<ele>501.3</ele>
<time>2013-05-08T16:00:19.000Z</time>
</trkpt>
<trkpt lat="43.770307" lon="2.949685">
<ele>502.1</ele>
<time>2013-05-08T16:00:20.000Z</time>
</trkpt>
<trkpt lat="43.770175" lon="2.949759">
<ele>502.9</ele>
<time>2013-05-08T16:00:21.000Z</time>
</trkpt>
<trkpt lat="43.77004" lon="2.94982">
<ele>503.5</ele>
<time>2013-05-08T16:00:22.000Z</time>
</trkpt>
<trkpt lat="43.769897" lon="2.949872">
<ele>504.3</ele>
<time>2013-05-08T16:00:23.000Z</time>
</trkpt>
<trkpt lat="43.769759" lon="2.949916">
<ele>505.2</ele>
<time>2013-05-08T16:00:24.000Z</time>
</trkpt>
<trkpt lat="43.769627" lon="2.949957">
<ele>506.3</ele>
<time>2013-05-08T16:00:25.000Z</time>
</trkpt>
<trkpt lat="43.769487" lon="2.949998">
<ele>507.2</ele>
<time>2013-05-08T16:00:26.000Z</time>
</trkpt>
<trkpt lat="43.769357" lon="2.950036">
<ele>508.2</ele>
<time>2013-05-08T16:00:27.000Z</time>
</trkpt>
<trkpt lat="43.769233" lon="2.950072">
<ele>509.2</ele>
<time>2013-05-08T16:00:28.000Z</time>
</trkpt>
<trkpt lat="43.769116" lon="2.950108">
<ele>510</ele>
<time>2013-05-08T16:00:29.000Z</time>
</trkpt>
<trkpt lat="43.769005" lon="2.950142">
<ele>510.6</ele>
<time>2013-05-08T16:00:30.000Z</time>
</trkpt>
<trkpt lat="43.768888" lon="2.950178">
<ele>511.3</ele>
<time>2013-05-08T16:00:31.000Z</time>
</trkpt>
<trkpt lat="43.768774" lon="2.950213">
<ele>512</ele>
<time>2013-05-08T16:00:32.000Z</time>
</trkpt>
<trkpt lat="43.768662" lon="2.950248">
<ele>512.4</ele>
<time>2013-05-08T16:00:33.000Z</time>
</trkpt>
<trkpt lat="43.768547" lon="2.950288">
<ele>512.5</ele>
<time>2013-05-08T16:00:34.000Z</time>
</trkpt>
<trkpt lat="43.768434" lon="2.950327">
<ele>512.8</ele>
<time>2013-05-08T16:00:35.000Z</time>
</trkpt>
<trkpt lat="43.768324" lon="2.950365">
<ele>513.1</ele>
<time>2013-05-08T16:00:36.000Z</time>
</trkpt>
<trkpt lat="43.76822" lon="2.950398">
<ele>513.7</ele>
<time>2013-05-08T16:00:37.000Z</time>
</trkpt>
<trkpt lat="43.76812" lon="2.95043">
<ele>514.2</ele>
<time>2013-05-08T16:00:38.000Z</time>
</trkpt>
<trkpt lat="43.768027" lon="2.950458">
<ele>514.7</ele>
<time>2013-05-08T16:00:39.000Z</time>
</trkpt>
<trkpt lat="43.767937" lon="2.950485">
<ele>515.2</ele>
<time>2013-05-08T16:00:40.000Z</time>
</trkpt>
<trkpt lat="43.76785" lon="2.950503">
<ele>515.5</ele>
<time>2013-05-08T16:00:41.000Z</time>
</trkpt>
<trkpt lat="43.767758" lon="2.950491">
<ele>515.7</ele>
<time>2013-05-08T16:00:42.000Z</time>
</trkpt>
<trkpt lat="43.76767" lon="2.950477">
<ele>515.6</ele>
<time>2013-05-08T16:00:43.000Z</time>
</trkpt>
<trkpt lat="43.767585" lon="2.950464">
<ele>515.3</ele>
<time>2013-05-08T16:00:44.000Z</time>
</trkpt>
<trkpt lat="43.767507" lon="2.950453">
<ele>514.9</ele>
<time>2013-05-08T16:00:45.000Z</time>
</trkpt>
<trkpt lat="43.767425" lon="2.950441">
<ele>514.5</ele>
<time>2013-05-08T16:00:46.000Z</time>
</trkpt>
<trkpt lat="43.767344" lon="2.950434">
<ele>514.2</ele>
<time>2013-05-08T16:00:47.000Z</time>
</trkpt>
<trkpt lat="43.767272" lon="2.950427">
<ele>514.1</ele>
<time>2013-05-08T16:00:48.000Z</time>
</trkpt>
<trkpt lat="43.767199" lon="2.950418">
<ele>514.2</ele>
<time>2013-05-08T16:00:49.000Z</time>
</trkpt>
<trkpt lat="43.76713" lon="2.950411">
<ele>514.6</ele>
<time>2013-05-08T16:00:50.000Z</time>
</trkpt>
<trkpt lat="43.767053" lon="2.950406">
<ele>514.7</ele>
<time>2013-05-08T16:00:51.000Z</time>
</trkpt>
<trkpt lat="43.766972" lon="2.950408">
<ele>514.9</ele>
<time>2013-05-08T16:00:52.000Z</time>
</trkpt>
<trkpt lat="43.76689" lon="2.950414">
<ele>515.1</ele>
<time>2013-05-08T16:00:53.000Z</time>
</trkpt>
<trkpt lat="43.766814" lon="2.95045">
<ele>515.6</ele>
<time>2013-05-08T16:00:54.000Z</time>
</trkpt>
<trkpt lat="43.766751" lon="2.95052">
<ele>514.8</ele>
<time>2013-05-08T16:00:55.000Z</time>
</trkpt>
<trkpt lat="43.766714" lon="2.950625">
<ele>514.8</ele>
<time>2013-05-08T16:00:56.000Z</time>
</trkpt>
<trkpt lat="43.76671" lon="2.950738">
<ele>515</ele>
<time>2013-05-08T16:00:57.000Z</time>
</trkpt>
<trkpt lat="43.766758" lon="2.950845">
<ele>514.6</ele>
<time>2013-05-08T16:00:58.000Z</time>
</trkpt>
<trkpt lat="43.76683" lon="2.95093">
<ele>514.3</ele>
<time>2013-05-08T16:00:59.000Z</time>
</trkpt>
<trkpt lat="43.766936" lon="2.950994">
<ele>513.8</ele>
<time>2013-05-08T16:01:00.000Z</time>
</trkpt>
<trkpt lat="43.767065" lon="2.951065">
<ele>513.7</ele>
<time>2013-05-08T16:01:01.000Z</time>
</trkpt>
<trkpt lat="43.767196" lon="2.951128">
<ele>513.3</ele>
<time>2013-05-08T16:01:02.000Z</time>
</trkpt>
<trkpt lat="43.767337" lon="2.95119">
<ele>512.8</ele>
<time>2013-05-08T16:01:03.000Z</time>
</trkpt>
<trkpt lat="43.767487" lon="2.95125">
<ele>512.6</ele>
<time>2013-05-08T16:01:04.000Z</time>
</trkpt>
<trkpt lat="43.767612" lon="2.951293">
<ele>512.6</ele>
<time>2013-05-08T16:01:05.000Z</time>
</trkpt>
<trkpt lat="43.767734" lon="2.951329">
<ele>512.6</ele>
<time>2013-05-08T16:01:06.000Z</time>
</trkpt>
<trkpt lat="43.76785" lon="2.951344">
<ele>512.8</ele>
<time>2013-05-08T16:01:07.000Z</time>
</trkpt>
<trkpt lat="43.767955" lon="2.951339">
<ele>513.2</ele>
<time>2013-05-08T16:01:08.000Z</time>
</trkpt>
<trkpt lat="43.76807" lon="2.951335">
<ele>514</ele>
<time>2013-05-08T16:01:09.000Z</time>
</trkpt>
<trkpt lat="43.76819" lon="2.951342">
<ele>514.8</ele>
<time>2013-05-08T16:01:10.000Z</time>
</trkpt>
<trkpt lat="43.768291" lon="2.951412">
<ele>515.8</ele>
<time>2013-05-08T16:01:11.000Z</time>
</trkpt>
<trkpt lat="43.768375" lon="2.951513">
<ele>517.1</ele>
<time>2013-05-08T16:01:12.000Z</time>
</trkpt>
<trkpt lat="43.768448" lon="2.951621">
<ele>518.4</ele>
<time>2013-05-08T16:01:13.000Z</time>
</trkpt>
<trkpt lat="43.768471" lon="2.951754">
<ele>519.6</ele>
<time>2013-05-08T16:01:14.000Z</time>
</trkpt>
<trkpt lat="43.768488" lon="2.951905">
<ele>521.2</ele>
<time>2013-05-08T16:01:15.000Z</time>
</trkpt>
<trkpt lat="43.768472" lon="2.952074">
<ele>522.1</ele>
<time>2013-05-08T16:01:16.000Z</time>
</trkpt>
<trkpt lat="43.768454" lon="2.952266">
<ele>523.1</ele>
<time>2013-05-08T16:01:17.000Z</time>
</trkpt>
<trkpt lat="43.76844" lon="2.952461">
<ele>523.9</ele>
<time>2013-05-08T16:01:18.000Z</time>
</trkpt>
<trkpt lat="43.768463" lon="2.952661">
<ele>524.4</ele>
<time>2013-05-08T16:01:19.000Z</time>
</trkpt>
<trkpt lat="43.768488" lon="2.952856">
<ele>525.2</ele>
<time>2013-05-08T16:01:20.000Z</time>
</trkpt>
<trkpt lat="43.768517" lon="2.953046">
<ele>526</ele>
<time>2013-05-08T16:01:21.000Z</time>
</trkpt>
<trkpt lat="43.768549" lon="2.95323">
<ele>526.8</ele>
<time>2013-05-08T16:01:22.000Z</time>
</trkpt>
<trkpt lat="43.768577" lon="2.953405">
<ele>527.5</ele>
<time>2013-05-08T16:01:23.000Z</time>
</trkpt>
<trkpt lat="43.768578" lon="2.953557">
<ele>528.4</ele>
<time>2013-05-08T16:01:24.000Z</time>
</trkpt>
<trkpt lat="43.768542" lon="2.953671">
<ele>529.2</ele>
<time>2013-05-08T16:01:25.000Z</time>
</trkpt>
<trkpt lat="43.768476" lon="2.953735">
<ele>529.7</ele>
<time>2013-05-08T16:01:26.000Z</time>
</trkpt>
<trkpt lat="43.768394" lon="2.953753">
<ele>530.1</ele>
<time>2013-05-08T16:01:27.000Z</time>
</trkpt>
<trkpt lat="43.768308" lon="2.953727">
<ele>530.8</ele>
<time>2013-05-08T16:01:28.000Z</time>
</trkpt>
<trkpt lat="43.768235" lon="2.953656">
<ele>531.5</ele>
<time>2013-05-08T16:01:29.000Z</time>
</trkpt>
<trkpt lat="43.768147" lon="2.953556">
<ele>532.2</ele>
<time>2013-05-08T16:01:30.000Z</time>
</trkpt>
<trkpt lat="43.768051" lon="2.953411">
<ele>532.9</ele>
<time>2013-05-08T16:01:31.000Z</time>
</trkpt>
<trkpt lat="43.76796" lon="2.953254">
<ele>533.9</ele>
<time>2013-05-08T16:01:32.000Z</time>
</trkpt>
<trkpt lat="43.767849" lon="2.953054">
<ele>534.9</ele>
<time>2013-05-08T16:01:33.000Z</time>
</trkpt>
<trkpt lat="43.767742" lon="2.952844">
<ele>535.8</ele>
<time>2013-05-08T16:01:34.000Z</time>
</trkpt>
<trkpt lat="43.767658" lon="2.952656">
<ele>536.4</ele>
<time>2013-05-08T16:01:35.000Z</time>
</trkpt>
<trkpt lat="43.767587" lon="2.95247">
<ele>537.4</ele>
<time>2013-05-08T16:01:36.000Z</time>
</trkpt>
<trkpt lat="43.767521" lon="2.952294">
<ele>538.2</ele>
<time>2013-05-08T16:01:37.000Z</time>
</trkpt>
<trkpt lat="43.76747" lon="2.952154">
<ele>539</ele>
<time>2013-05-08T16:01:38.000Z</time>
</trkpt>
<trkpt lat="43.767371" lon="2.952076">
<ele>539.8</ele>
<time>2013-05-08T16:01:39.000Z</time>
</trkpt>
<trkpt lat="43.767254" lon="2.95204">
<ele>540.4</ele>
<time>2013-05-08T16:01:40.000Z</time>
</trkpt>
<trkpt lat="43.76712" lon="2.952066">
<ele>540.7</ele>
<time>2013-05-08T16:01:41.000Z</time>
</trkpt>
<trkpt lat="43.766976" lon="2.9521">
<ele>540.9</ele>
<time>2013-05-08T16:01:42.000Z</time>
</trkpt>
<trkpt lat="43.7668" lon="2.952145">
<ele>541.1</ele>
<time>2013-05-08T16:01:43.000Z</time>
</trkpt>
<trkpt lat="43.766619" lon="2.952172">
<ele>542.2</ele>
<time>2013-05-08T16:01:44.000Z</time>
</trkpt>
<trkpt lat="43.766435" lon="2.952193">
<ele>543.5</ele>
<time>2013-05-08T16:01:45.000Z</time>
</trkpt>
<trkpt lat="43.766249" lon="2.952197">
<ele>545.3</ele>
<time>2013-05-08T16:01:46.000Z</time>
</trkpt>
<trkpt lat="43.766078" lon="2.952197">
<ele>547.4</ele>
<time>2013-05-08T16:01:47.000Z</time>
</trkpt>
<trkpt lat="43.765927" lon="2.952204">
<ele>549.6</ele>
<time>2013-05-08T16:01:48.000Z</time>
</trkpt>
<trkpt lat="43.765793" lon="2.952268">
<ele>551.5</ele>
<time>2013-05-08T16:01:49.000Z</time>
</trkpt>
<trkpt lat="43.76567" lon="2.952392">
<ele>552.7</ele>
<time>2013-05-08T16:01:50.000Z</time>
</trkpt>
<trkpt lat="43.765544" lon="2.952528">
<ele>553.1</ele>
<time>2013-05-08T16:01:51.000Z</time>
</trkpt>
<trkpt lat="43.765422" lon="2.952674">
<ele>553.5</ele>
<time>2013-05-08T16:01:52.000Z</time>
</trkpt>
<trkpt lat="43.765309" lon="2.952807">
<ele>553.8</ele>
<time>2013-05-08T16:01:53.000Z</time>
</trkpt>
<trkpt lat="43.765201" lon="2.952923">
<ele>554.1</ele>
<time>2013-05-08T16:01:54.000Z</time>
</trkpt>
<trkpt lat="43.765083" lon="2.952978">
<ele>554.3</ele>
<time>2013-05-08T16:01:55.000Z</time>
</trkpt>
<trkpt lat="43.764951" lon="2.952956">
<ele>554.7</ele>
<time>2013-05-08T16:01:56.000Z</time>
</trkpt>
<trkpt lat="43.764827" lon="2.952879">
<ele>555.4</ele>
<time>2013-05-08T16:01:57.000Z</time>
</trkpt>
<trkpt lat="43.764714" lon="2.952785">
<ele>556.3</ele>
<time>2013-05-08T16:01:58.000Z</time>
</trkpt>
<trkpt lat="43.764592" lon="2.952667">
<ele>557.5</ele>
<time>2013-05-08T16:01:59.000Z</time>
</trkpt>
<trkpt lat="43.764491" lon="2.952548">
<ele>558.9</ele>
<time>2013-05-08T16:02:00.000Z</time>
</trkpt>
<trkpt lat="43.764391" lon="2.952437">
<ele>560.1</ele>
<time>2013-05-08T16:02:01.000Z</time>
</trkpt>
<trkpt lat="43.764269" lon="2.952386">
<ele>561.2</ele>
<time>2013-05-08T16:02:02.000Z</time>
</trkpt>
<trkpt lat="43.764148" lon="2.952329">
<ele>562.2</ele>
<time>2013-05-08T16:02:03.000Z</time>
</trkpt>
<trkpt lat="43.763993" lon="2.952363">
<ele>562.9</ele>
<time>2013-05-08T16:02:04.000Z</time>
</trkpt>
<trkpt lat="43.763815" lon="2.952423">
<ele>563.9</ele>
<time>2013-05-08T16:02:05.000Z</time>
</trkpt>
<trkpt lat="43.763635" lon="2.952491">
<ele>565.1</ele>
<time>2013-05-08T16:02:06.000Z</time>
</trkpt>
<trkpt lat="43.763446" lon="2.952549">
<ele>566.3</ele>
<time>2013-05-08T16:02:07.000Z</time>
</trkpt>
<trkpt lat="43.763257" lon="2.952575">
<ele>567.9</ele>
<time>2013-05-08T16:02:08.000Z</time>
</trkpt>
<trkpt lat="43.763083" lon="2.952587">
<ele>569.1</ele>
<time>2013-05-08T16:02:09.000Z</time>
</trkpt>
<trkpt lat="43.762927" lon="2.952595">
<ele>570.6</ele>
<time>2013-05-08T16:02:10.000Z</time>
</trkpt>
<trkpt lat="43.762777" lon="2.952603">
<ele>572.4</ele>
<time>2013-05-08T16:02:11.000Z</time>
</trkpt>
<trkpt lat="43.762641" lon="2.95261">
<ele>574.6</ele>
<time>2013-05-08T16:02:12.000Z</time>
</trkpt>
<trkpt lat="43.762544" lon="2.952675">
<ele>576</ele>
<time>2013-05-08T16:02:13.000Z</time>
</trkpt>
<trkpt lat="43.762483" lon="2.952782">
<ele>577.4</ele>
<time>2013-05-08T16:02:14.000Z</time>
</trkpt>
<trkpt lat="43.762475" lon="2.952941">
<ele>578.6</ele>
<time>2013-05-08T16:02:15.000Z</time>
</trkpt>
<trkpt lat="43.762482" lon="2.953126">
<ele>579.5</ele>
<time>2013-05-08T16:02:16.000Z</time>
</trkpt>
<trkpt lat="43.762509" lon="2.953333">
<ele>580.2</ele>
<time>2013-05-08T16:02:17.000Z</time>
</trkpt>
<trkpt lat="43.762549" lon="2.953577">
<ele>580.9</ele>
<time>2013-05-08T16:02:18.000Z</time>
</trkpt>
<trkpt lat="43.762597" lon="2.95381">
<ele>581.3</ele>
<time>2013-05-08T16:02:19.000Z</time>
</trkpt>
<trkpt lat="43.762647" lon="2.954049">
<ele>581.8</ele>
<time>2013-05-08T16:02:20.000Z</time>
</trkpt>
<trkpt lat="43.762661" lon="2.954299">
<ele>582.1</ele>
<time>2013-05-08T16:02:21.000Z</time>
</trkpt>
<trkpt lat="43.762659" lon="2.954551">
<ele>582.7</ele>
<time>2013-05-08T16:02:22.000Z</time>
</trkpt>
<trkpt lat="43.762631" lon="2.954807">
<ele>583.7</ele>
<time>2013-05-08T16:02:23.000Z</time>
</trkpt>
<trkpt lat="43.762599" lon="2.955063">
<ele>584.7</ele>
<time>2013-05-08T16:02:24.000Z</time>
</trkpt>
<trkpt lat="43.76259" lon="2.955329">
<ele>586</ele>
<time>2013-05-08T16:02:25.000Z</time>
</trkpt>
<trkpt lat="43.762584" lon="2.955583">
<ele>587.6</ele>
<time>2013-05-08T16:02:26.000Z</time>
</trkpt>
<trkpt lat="43.762545" lon="2.955827">
<ele>589.2</ele>
<time>2013-05-08T16:02:27.000Z</time>
</trkpt>
<trkpt lat="43.762465" lon="2.956049">
<ele>591</ele>
<time>2013-05-08T16:02:28.000Z</time>
</trkpt>
<trkpt lat="43.762382" lon="2.956269">
<ele>592.5</ele>
<time>2013-05-08T16:02:29.000Z</time>
</trkpt>
<trkpt lat="43.762296" lon="2.956495">
<ele>594.2</ele>
<time>2013-05-08T16:02:30.000Z</time>
</trkpt>
<trkpt lat="43.762218" lon="2.956737">
<ele>595.9</ele>
<time>2013-05-08T16:02:31.000Z</time>
</trkpt>
<trkpt lat="43.762147" lon="2.956983">
<ele>597.4</ele>
<time>2013-05-08T16:02:32.000Z</time>
</trkpt>
<trkpt lat="43.762114" lon="2.95723">
<ele>598.6</ele>
<time>2013-05-08T16:02:33.000Z</time>
</trkpt>
<trkpt lat="43.762086" lon="2.957468">
<ele>599.4</ele>
<time>2013-05-08T16:02:34.000Z</time>
</trkpt>
<trkpt lat="43.762058" lon="2.957691">
<ele>600.3</ele>
<time>2013-05-08T16:02:35.000Z</time>
</trkpt>
<trkpt lat="43.762042" lon="2.957892">
<ele>601</ele>
<time>2013-05-08T16:02:36.000Z</time>
</trkpt>
<trkpt lat="43.762096" lon="2.958096">
<ele>602</ele>
<time>2013-05-08T16:02:37.000Z</time>
</trkpt>
<trkpt lat="43.762151" lon="2.958298">
<ele>603</ele>
<time>2013-05-08T16:02:38.000Z</time>
</trkpt>
<trkpt lat="43.762213" lon="2.958511">
<ele>604.1</ele>
<time>2013-05-08T16:02:39.000Z</time>
</trkpt>
<trkpt lat="43.762278" lon="2.958725">
<ele>605.3</ele>
<time>2013-05-08T16:02:40.000Z</time>
</trkpt>
<trkpt lat="43.762354" lon="2.958919">
<ele>606.6</ele>
<time>2013-05-08T16:02:41.000Z</time>
</trkpt>
<trkpt lat="43.762463" lon="2.959079">
<ele>607.3</ele>
<time>2013-05-08T16:02:42.000Z</time>
</trkpt>
<trkpt lat="43.762563" lon="2.959238">
<ele>607.7</ele>
<time>2013-05-08T16:02:43.000Z</time>
</trkpt>
<trkpt lat="43.762632" lon="2.959428">
<ele>608.9</ele>
<time>2013-05-08T16:02:44.000Z</time>
</trkpt>
<trkpt lat="43.762665" lon="2.959618">
<ele>610.5</ele>
<time>2013-05-08T16:02:45.000Z</time>
</trkpt>
<trkpt lat="43.762649" lon="2.959798">
<ele>611.8</ele>
<time>2013-05-08T16:02:46.000Z</time>
</trkpt>
<trkpt lat="43.762622" lon="2.959999">
<ele>613.1</ele>
<time>2013-05-08T16:02:47.000Z</time>
</trkpt>
<trkpt lat="43.76259" lon="2.960204">
<ele>614.2</ele>
<time>2013-05-08T16:02:48.000Z</time>
</trkpt>
<trkpt lat="43.762553" lon="2.960429">
<ele>615.2</ele>
<time>2013-05-08T16:02:49.000Z</time>
</trkpt>
<trkpt lat="43.762517" lon="2.960669">
<ele>616.2</ele>
<time>2013-05-08T16:02:50.000Z</time>
</trkpt>
<trkpt lat="43.762485" lon="2.960919">
<ele>617.3</ele>
<time>2013-05-08T16:02:51.000Z</time>
</trkpt>
<trkpt lat="43.76246" lon="2.961176">
<ele>618.6</ele>
<time>2013-05-08T16:02:52.000Z</time>
</trkpt>
<trkpt lat="43.76245" lon="2.961435">
<ele>620.1</ele>
<time>2013-05-08T16:02:53.000Z</time>
</trkpt>
<trkpt lat="43.762451" lon="2.961684">
<ele>621.6</ele>
<time>2013-05-08T16:02:54.000Z</time>
</trkpt>
<trkpt lat="43.762462" lon="2.961911">
<ele>623.3</ele>
<time>2013-05-08T16:02:55.000Z</time>
</trkpt>
<trkpt lat="43.762535" lon="2.962123">
<ele>625</ele>
<time>2013-05-08T16:02:56.000Z</time>
</trkpt>
<trkpt lat="43.762616" lon="2.962318">
<ele>626.3</ele>
<time>2013-05-08T16:02:57.000Z</time>
</trkpt>
<trkpt lat="43.762705" lon="2.962494">
<ele>627.6</ele>
<time>2013-05-08T16:02:58.000Z</time>
</trkpt>
<trkpt lat="43.762862" lon="2.96265">
<ele>629</ele>
<time>2013-05-08T16:02:59.000Z</time>
</trkpt>
<trkpt lat="43.763017" lon="2.962802">
<ele>630.2</ele>
<time>2013-05-08T16:03:00.000Z</time>
</trkpt>
<trkpt lat="43.76319" lon="2.962932">
<ele>631</ele>
<time>2013-05-08T16:03:01.000Z</time>
</trkpt>
<trkpt lat="43.76338" lon="2.963033">
<ele>631.1</ele>
<time>2013-05-08T16:03:02.000Z</time>
</trkpt>
<trkpt lat="43.763568" lon="2.963138">
<ele>631.8</ele>
<time>2013-05-08T16:03:03.000Z</time>
</trkpt>
<trkpt lat="43.763752" lon="2.963243">
<ele>632.8</ele>
<time>2013-05-08T16:03:04.000Z</time>
</trkpt>
<trkpt lat="43.76393" lon="2.963308">
<ele>633.8</ele>
<time>2013-05-08T16:03:05.000Z</time>
</trkpt>
<trkpt lat="43.76412" lon="2.963364">
<ele>634.5</ele>
<time>2013-05-08T16:03:06.000Z</time>
</trkpt>
<trkpt lat="43.76431" lon="2.963413">
<ele>635.4</ele>
<time>2013-05-08T16:03:07.000Z</time>
</trkpt>
<trkpt lat="43.764497" lon="2.963449">
<ele>636.3</ele>
<time>2013-05-08T16:03:08.000Z</time>
</trkpt>
<trkpt lat="43.764693" lon="2.963477">
<ele>637.6</ele>
<time>2013-05-08T16:03:09.000Z</time>
</trkpt>
<trkpt lat="43.764896" lon="2.96348">
<ele>639.2</ele>
<time>2013-05-08T16:03:10.000Z</time>
</trkpt>
<trkpt lat="43.7651" lon="2.963505">
<ele>641.1</ele>
<time>2013-05-08T16:03:11.000Z</time>
</trkpt>
<trkpt lat="43.765279" lon="2.963561">
<ele>642.8</ele>
<time>2013-05-08T16:03:12.000Z</time>
</trkpt>
<trkpt lat="43.765443" lon="2.963633">
<ele>644.1</ele>
<time>2013-05-08T16:03:13.000Z</time>
</trkpt>
<trkpt lat="43.765612" lon="2.963714">
<ele>645.4</ele>
<time>2013-05-08T16:03:14.000Z</time>
</trkpt>
<trkpt lat="43.765775" lon="2.963815">
<ele>647.1</ele>
<time>2013-05-08T16:03:15.000Z</time>
</trkpt>
<trkpt lat="43.765918" lon="2.963968">
<ele>648.2</ele>
<time>2013-05-08T16:03:16.000Z</time>
</trkpt>
<trkpt lat="43.766055" lon="2.964139">
<ele>649.3</ele>
<time>2013-05-08T16:03:17.000Z</time>
</trkpt>
<trkpt lat="43.76617" lon="2.964312">
<ele>650.1</ele>
<time>2013-05-08T16:03:18.000Z</time>
</trkpt>
<trkpt lat="43.76627" lon="2.964509">
<ele>651.1</ele>
<time>2013-05-08T16:03:19.000Z</time>
</trkpt>
<trkpt lat="43.76637" lon="2.964737">
<ele>652</ele>
<time>2013-05-08T16:03:20.000Z</time>
</trkpt>
<trkpt lat="43.766458" lon="2.964997">
<ele>653</ele>
<time>2013-05-08T16:03:21.000Z</time>
</trkpt>
<trkpt lat="43.766491" lon="2.965274">
<ele>654.2</ele>
<time>2013-05-08T16:03:22.000Z</time>
</trkpt>
<trkpt lat="43.766504" lon="2.965549">
<ele>655.8</ele>
<time>2013-05-08T16:03:23.000Z</time>
</trkpt>
<trkpt lat="43.766528" lon="2.965806">
<ele>657.5</ele>
<time>2013-05-08T16:03:24.000Z</time>
</trkpt>
<trkpt lat="43.766556" lon="2.966036">
<ele>659.6</ele>
<time>2013-05-08T16:03:25.000Z</time>
</trkpt>
<trkpt lat="43.766579" lon="2.966236">
<ele>661.9</ele>
<time>2013-05-08T16:03:26.000Z</time>
</trkpt>
<trkpt lat="43.766597" lon="2.966403">
<ele>663.8</ele>
<time>2013-05-08T16:03:27.000Z</time>
</trkpt>
<trkpt lat="43.766607" lon="2.966546">
<ele>665.2</ele>
<time>2013-05-08T16:03:28.000Z</time>
</trkpt>
<trkpt lat="43.76661" lon="2.966679">
<ele>666.8</ele>
<time>2013-05-08T16:03:29.000Z</time>
</trkpt>
<trkpt lat="43.7666" lon="2.966778">
<ele>667.7</ele>
<time>2013-05-08T16:03:30.000Z</time>
</trkpt>
<trkpt lat="43.766552" lon="2.966855">
<ele>668.6</ele>
<time>2013-05-08T16:03:31.000Z</time>
</trkpt>
<trkpt lat="43.766471" lon="2.966893">
<ele>669.5</ele>
<time>2013-05-08T16:03:32.000Z</time>
</trkpt>
<trkpt lat="43.766382" lon="2.966881">
<ele>670.7</ele>
<time>2013-05-08T16:03:33.000Z</time>
</trkpt>
<trkpt lat="43.76628" lon="2.966815">
<ele>672.3</ele>
<time>2013-05-08T16:03:34.000Z</time>
</trkpt>
<trkpt lat="43.766179" lon="2.966732">
<ele>673.6</ele>
<time>2013-05-08T16:03:35.000Z</time>
</trkpt>
<trkpt lat="43.766067" lon="2.966637">
<ele>674.9</ele>
<time>2013-05-08T16:03:36.000Z</time>
</trkpt>
<trkpt lat="43.765924" lon="2.96652">
<ele>676.3</ele>
<time>2013-05-08T16:03:37.000Z</time>
</trkpt>
<trkpt lat="43.765775" lon="2.96641">
<ele>677.8</ele>
<time>2013-05-08T16:03:38.000Z</time>
</trkpt>
<trkpt lat="43.765634" lon="2.966359">
<ele>679.5</ele>
<time>2013-05-08T16:03:39.000Z</time>
</trkpt>
<trkpt lat="43.765503" lon="2.96636">
<ele>680.5</ele>
<time>2013-05-08T16:03:40.000Z</time>
</trkpt>
<trkpt lat="43.765376" lon="2.966418">
<ele>680.6</ele>
<time>2013-05-08T16:03:41.000Z</time>
</trkpt>
<trkpt lat="43.765261" lon="2.966533">
<ele>681.1</ele>
<time>2013-05-08T16:03:42.000Z</time>
</trkpt>
<trkpt lat="43.765144" lon="2.96661">
<ele>681.7</ele>
<time>2013-05-08T16:03:43.000Z</time>
</trkpt>
<trkpt lat="43.76501" lon="2.966649">
<ele>682.2</ele>
<time>2013-05-08T16:03:44.000Z</time>
</trkpt>
<trkpt lat="43.764877" lon="2.966636">
<ele>682.5</ele>
<time>2013-05-08T16:03:45.000Z</time>
</trkpt>
<trkpt lat="43.764763" lon="2.966578">
<ele>682.7</ele>
<time>2013-05-08T16:03:46.000Z</time>
</trkpt>
<trkpt lat="43.764641" lon="2.966513">
<ele>682.7</ele>
<time>2013-05-08T16:03:47.000Z</time>
</trkpt>
<trkpt lat="43.764521" lon="2.966518">
<ele>682.7</ele>
<time>2013-05-08T16:03:48.000Z</time>
</trkpt>
<trkpt lat="43.764367" lon="2.966521">
<ele>682.6</ele>
<time>2013-05-08T16:03:49.000Z</time>
</trkpt>
<trkpt lat="43.764184" lon="2.966526">
<ele>682.3</ele>
<time>2013-05-08T16:03:50.000Z</time>
</trkpt>
<trkpt lat="43.764008" lon="2.96652">
<ele>682.2</ele>
<time>2013-05-08T16:03:51.000Z</time>
</trkpt>
<trkpt lat="43.763837" lon="2.966512">
<ele>682.2</ele>
<time>2013-05-08T16:03:52.000Z</time>
</trkpt>
<trkpt lat="43.763675" lon="2.966512">
<ele>682.4</ele>
<time>2013-05-08T16:03:53.000Z</time>
</trkpt>
<trkpt lat="43.763516" lon="2.966513">
<ele>682.9</ele>
<time>2013-05-08T16:03:54.000Z</time>
</trkpt>
<trkpt lat="43.763331" lon="2.966525">
<ele>683.8</ele>
<time>2013-05-08T16:03:55.000Z</time>
</trkpt>
<trkpt lat="43.763161" lon="2.966591">
<ele>684.9</ele>
<time>2013-05-08T16:03:56.000Z</time>
</trkpt>
<trkpt lat="43.762991" lon="2.966654">
<ele>686</ele>
<time>2013-05-08T16:03:57.000Z</time>
</trkpt>
<trkpt lat="43.762817" lon="2.966661">
<ele>687.2</ele>
<time>2013-05-08T16:03:58.000Z</time>
</trkpt>
<trkpt lat="43.762658" lon="2.966659">
<ele>688.2</ele>
<time>2013-05-08T16:03:59.000Z</time>
</trkpt>
<trkpt lat="43.762495" lon="2.966641">
<ele>689.9</ele>
<time>2013-05-08T16:04:00.000Z</time>
</trkpt>
<trkpt lat="43.762337" lon="2.966607">
<ele>691.8</ele>
<time>2013-05-08T16:04:01.000Z</time>
</trkpt>
<trkpt lat="43.762187" lon="2.966578">
<ele>693.6</ele>
<time>2013-05-08T16:04:02.000Z</time>
</trkpt>
<trkpt lat="43.762045" lon="2.96657">
<ele>695.8</ele>
<time>2013-05-08T16:04:03.000Z</time>
</trkpt>
<trkpt lat="43.761918" lon="2.966625">
<ele>698.1</ele>
<time>2013-05-08T16:04:04.000Z</time>
</trkpt>
<trkpt lat="43.76183" lon="2.966725">
<ele>700.2</ele>
<time>2013-05-08T16:04:05.000Z</time>
</trkpt>
<trkpt lat="43.761777" lon="2.966871">
<ele>701.3</ele>
<time>2013-05-08T16:04:06.000Z</time>
</trkpt>
<trkpt lat="43.761743" lon="2.967047">
<ele>702</ele>
<time>2013-05-08T16:04:07.000Z</time>
</trkpt>
<trkpt lat="43.761709" lon="2.967231">
<ele>702.8</ele>
<time>2013-05-08T16:04:08.000Z</time>
</trkpt>
<trkpt lat="43.761637" lon="2.967393">
<ele>703.3</ele>
<time>2013-05-08T16:04:09.000Z</time>
</trkpt>
<trkpt lat="43.761536" lon="2.967524">
<ele>703.5</ele>
<time>2013-05-08T16:04:10.000Z</time>
</trkpt>
<trkpt lat="43.761425" lon="2.967655">
<ele>703.5</ele>
<time>2013-05-08T16:04:11.000Z</time>
</trkpt>
<trkpt lat="43.761301" lon="2.967792">
<ele>703.9</ele>
<time>2013-05-08T16:04:12.000Z</time>
</trkpt>
<trkpt lat="43.761174" lon="2.967931">
<ele>704.6</ele>
<time>2013-05-08T16:04:13.000Z</time>
</trkpt>
<trkpt lat="43.761057" lon="2.968076">
<ele>705.6</ele>
<time>2013-05-08T16:04:14.000Z</time>
</trkpt>
<trkpt lat="43.76098" lon="2.968256">
<ele>707.1</ele>
<time>2013-05-08T16:04:15.000Z</time>
</trkpt>
<trkpt lat="43.760914" lon="2.968428">
<ele>708.3</ele>
<time>2013-05-08T16:04:16.000Z</time>
</trkpt>
<trkpt lat="43.760864" lon="2.968588">
<ele>710</ele>
<time>2013-05-08T16:04:17.000Z</time>
</trkpt>
<trkpt lat="43.760898" lon="2.968769">
<ele>711.3</ele>
<time>2013-05-08T16:04:18.000Z</time>
</trkpt>
<trkpt lat="43.760906" lon="2.968939">
<ele>712.2</ele>
<time>2013-05-08T16:04:19.000Z</time>
</trkpt>
<trkpt lat="43.760872" lon="2.969076">
<ele>713.2</ele>
<time>2013-05-08T16:04:20.000Z</time>
</trkpt>
<trkpt lat="43.760803" lon="2.969172">
<ele>713.6</ele>
<time>2013-05-08T16:04:21.000Z</time>
</trkpt>
<trkpt lat="43.760711" lon="2.969248">
<ele>714.5</ele>
<time>2013-05-08T16:04:22.000Z</time>
</trkpt>
<trkpt lat="43.760618" lon="2.969319">
<ele>715.4</ele>
<time>2013-05-08T16:04:23.000Z</time>
</trkpt>
<trkpt lat="43.760515" lon="2.969408">
<ele>716</ele>
<time>2013-05-08T16:04:24.000Z</time>
</trkpt>
<trkpt lat="43.760417" lon="2.969568">
<ele>717.2</ele>
<time>2013-05-08T16:04:25.000Z</time>
</trkpt>
<trkpt lat="43.760316" lon="2.969729">
<ele>718.3</ele>
<time>2013-05-08T16:04:26.000Z</time>
</trkpt>
<trkpt lat="43.760215" lon="2.969904">
<ele>719.6</ele>
<time>2013-05-08T16:04:27.000Z</time>
</trkpt>
<trkpt lat="43.760131" lon="2.970088">
<ele>720.8</ele>
<time>2013-05-08T16:04:28.000Z</time>
</trkpt>
<trkpt lat="43.760086" lon="2.9703">
<ele>722.2</ele>
<time>2013-05-08T16:04:29.000Z</time>
</trkpt>
<trkpt lat="43.760034" lon="2.970527">
<ele>724</ele>
<time>2013-05-08T16:04:30.000Z</time>
</trkpt>
<trkpt lat="43.759986" lon="2.970767">
<ele>725.5</ele>
<time>2013-05-08T16:04:31.000Z</time>
</trkpt>
<trkpt lat="43.759936" lon="2.971039">
<ele>726.9</ele>
<time>2013-05-08T16:04:32.000Z</time>
</trkpt>
<trkpt lat="43.759881" lon="2.971336">
<ele>728.4</ele>
<time>2013-05-08T16:04:33.000Z</time>
</trkpt>
<trkpt lat="43.759833" lon="2.971651">
<ele>729.9</ele>
<time>2013-05-08T16:04:34.000Z</time>
</trkpt>
<trkpt lat="43.759776" lon="2.971954">
<ele>731.4</ele>
<time>2013-05-08T16:04:35.000Z</time>
</trkpt>
<trkpt lat="43.759724" lon="2.972228">
<ele>732.7</ele>
<time>2013-05-08T16:04:36.000Z</time>
</trkpt>
<trkpt lat="43.759674" lon="2.972491">
<ele>733.7</ele>
<time>2013-05-08T16:04:37.000Z</time>
</trkpt>
<trkpt lat="43.759637" lon="2.972738">
<ele>734.7</ele>
<time>2013-05-08T16:04:38.000Z</time>
</trkpt>
<trkpt lat="43.759636" lon="2.972984">
<ele>735.9</ele>
<time>2013-05-08T16:04:39.000Z</time>
</trkpt>
<trkpt lat="43.759646" lon="2.973221">
<ele>737.1</ele>
<time>2013-05-08T16:04:40.000Z</time>
</trkpt>
<trkpt lat="43.759724" lon="2.973433">
<ele>737.4</ele>
<time>2013-05-08T16:04:41.000Z</time>
</trkpt>
<trkpt lat="43.759833" lon="2.973626">
<ele>738</ele>
<time>2013-05-08T16:04:42.000Z</time>
</trkpt>
<trkpt lat="43.759944" lon="2.973792">
<ele>739.2</ele>
<time>2013-05-08T16:04:43.000Z</time>
</trkpt>
<trkpt lat="43.760074" lon="2.973953">
<ele>740.8</ele>
<time>2013-05-08T16:04:44.000Z</time>
</trkpt>
<trkpt lat="43.760202" lon="2.9741">
<ele>742.3</ele>
<time>2013-05-08T16:04:45.000Z</time>
</trkpt>
<trkpt lat="43.760282" lon="2.974266">
<ele>743.6</ele>
<time>2013-05-08T16:04:46.000Z</time>
</trkpt>
<trkpt lat="43.760347" lon="2.974436">
<ele>744.7</ele>
<time>2013-05-08T16:04:47.000Z</time>
</trkpt>
<trkpt lat="43.760343" lon="2.974601">
<ele>745.4</ele>
<time>2013-05-08T16:04:48.000Z</time>
</trkpt>
<trkpt lat="43.760295" lon="2.974736">
<ele>745.9</ele>
<time>2013-05-08T16:04:49.000Z</time>
</trkpt>
<trkpt lat="43.760175" lon="2.974829">
<ele>746.3</ele>
<time>2013-05-08T16:04:50.000Z</time>
</trkpt>
<trkpt lat="43.760039" lon="2.974921">
<ele>746.9</ele>
<time>2013-05-08T16:04:51.000Z</time>
</trkpt>
<trkpt lat="43.759894" lon="2.975022">
<ele>747</ele>
<time>2013-05-08T16:04:52.000Z</time>
</trkpt>
<trkpt lat="43.759731" lon="2.975129">
<ele>747.2</ele>
<time>2013-05-08T16:04:53.000Z</time>
</trkpt>
<trkpt lat="43.759576" lon="2.975234">
<ele>747</ele>
<time>2013-05-08T16:04:54.000Z</time>
</trkpt>
<trkpt lat="43.75942" lon="2.975331">
<ele>747</ele>
<time>2013-05-08T16:04:55.000Z</time>
</trkpt>
<trkpt lat="43.759281" lon="2.975423">
<ele>747.3</ele>
<time>2013-05-08T16:04:56.000Z</time>
</trkpt>
<trkpt lat="43.759134" lon="2.97554">
<ele>747.8</ele>
<time>2013-05-08T16:04:57.000Z</time>
</trkpt>
<trkpt lat="43.759003" lon="2.975706">
<ele>748</ele>
<time>2013-05-08T16:04:58.000Z</time>
</trkpt>
<trkpt lat="43.758876" lon="2.975899">
<ele>748.5</ele>
<time>2013-05-08T16:04:59.000Z</time>
</trkpt>
<trkpt lat="43.758781" lon="2.976132">
<ele>749</ele>
<time>2013-05-08T16:05:00.000Z</time>
</trkpt>
<trkpt lat="43.75869" lon="2.976375">
<ele>749.9</ele>
<time>2013-05-08T16:05:01.000Z</time>
</trkpt>
<trkpt lat="43.758639" lon="2.976601">
<ele>752.3</ele>
<time>2013-05-08T16:05:02.000Z</time>
</trkpt>
<trkpt lat="43.758576" lon="2.976849">
<ele>755</ele>
<time>2013-05-08T16:05:03.000Z</time>
</trkpt>
<trkpt lat="43.758514" lon="2.977094">
<ele>757.7</ele>
<time>2013-05-08T16:05:04.000Z</time>
</trkpt>
<trkpt lat="43.758458" lon="2.977327">
<ele>760.2</ele>
<time>2013-05-08T16:05:05.000Z</time>
</trkpt>
<trkpt lat="43.758408" lon="2.977534">
<ele>762.8</ele>
<time>2013-05-08T16:05:06.000Z</time>
</trkpt>
<trkpt lat="43.758337" lon="2.977697">
<ele>764.9</ele>
<time>2013-05-08T16:05:07.000Z</time>
</trkpt>
<trkpt lat="43.758246" lon="2.977803">
<ele>766.6</ele>
<time>2013-05-08T16:05:08.000Z</time>
</trkpt>
<trkpt lat="43.758135" lon="2.977839">
<ele>768</ele>
<time>2013-05-08T16:05:09.000Z</time>
</trkpt>
<trkpt lat="43.75803" lon="2.977789">
<ele>769.1</ele>
<time>2013-05-08T16:05:10.000Z</time>
</trkpt>
<trkpt lat="43.757936" lon="2.977688">
<ele>769.8</ele>
<time>2013-05-08T16:05:11.000Z</time>
</trkpt>
<trkpt lat="43.757861" lon="2.97755">
<ele>770.3</ele>
<time>2013-05-08T16:05:12.000Z</time>
</trkpt>
<trkpt lat="43.757804" lon="2.977385">
<ele>770.6</ele>
<time>2013-05-08T16:05:13.000Z</time>
</trkpt>
<trkpt lat="43.757751" lon="2.977222">
<ele>770.7</ele>
<time>2013-05-08T16:05:14.000Z</time>
</trkpt>
<trkpt lat="43.757689" lon="2.977052">
<ele>770.8</ele>
<time>2013-05-08T16:05:15.000Z</time>
</trkpt>
<trkpt lat="43.757615" lon="2.976913">
<ele>770.9</ele>
<time>2013-05-08T16:05:16.000Z</time>
</trkpt>
<trkpt lat="43.757516" lon="2.976812">
<ele>771.1</ele>
<time>2013-05-08T16:05:17.000Z</time>
</trkpt>
<trkpt lat="43.757402" lon="2.976726">
<ele>771.4</ele>
<time>2013-05-08T16:05:18.000Z</time>
</trkpt>
<trkpt lat="43.757285" lon="2.976657">
<ele>771.9</ele>
<time>2013-05-08T16:05:19.000Z</time>
</trkpt>
<trkpt lat="43.757161" lon="2.976632">
<ele>772.9</ele>
<time>2013-05-08T16:05:20.000Z</time>
</trkpt>
<trkpt lat="43.757058" lon="2.976676">
<ele>773.6</ele>
<time>2013-05-08T16:05:21.000Z</time>
</trkpt>
<trkpt lat="43.756969" lon="2.976759">
<ele>774.1</ele>
<time>2013-05-08T16:05:22.000Z</time>
</trkpt>
<trkpt lat="43.756903" lon="2.976881">
<ele>774.8</ele>
<time>2013-05-08T16:05:23.000Z</time>
</trkpt>
<trkpt lat="43.756831" lon="2.977004">
<ele>775.6</ele>
<time>2013-05-08T16:05:24.000Z</time>
</trkpt>
<trkpt lat="43.756746" lon="2.977082">
<ele>776.4</ele>
<time>2013-05-08T16:05:25.000Z</time>
</trkpt>
<trkpt lat="43.756667" lon="2.977094">
<ele>777.2</ele>
<time>2013-05-08T16:05:26.000Z</time>
</trkpt>
<trkpt lat="43.756571" lon="2.97709">
<ele>777.8</ele>
<time>2013-05-08T16:05:27.000Z</time>
</trkpt>
<trkpt lat="43.75646" lon="2.977079">
<ele>778.8</ele>
<time>2013-05-08T16:05:28.000Z</time>
</trkpt>
<trkpt lat="43.756338" lon="2.977054">
<ele>780</ele>
<time>2013-05-08T16:05:29.000Z</time>
</trkpt>
<trkpt lat="43.756217" lon="2.977034">
<ele>781.1</ele>
<time>2013-05-08T16:05:30.000Z</time>
</trkpt>
<trkpt lat="43.756101" lon="2.977075">
<ele>782.1</ele>
<time>2013-05-08T16:05:31.000Z</time>
</trkpt>
<trkpt lat="43.755992" lon="2.977172">
<ele>782.9</ele>
<time>2013-05-08T16:05:32.000Z</time>
</trkpt>
<trkpt lat="43.755879" lon="2.977292">
<ele>784.1</ele>
<time>2013-05-08T16:05:33.000Z</time>
</trkpt>
<trkpt lat="43.755755" lon="2.977433">
<ele>785.5</ele>
<time>2013-05-08T16:05:34.000Z</time>
</trkpt>
<trkpt lat="43.755619" lon="2.977588">
<ele>786.8</ele>
<time>2013-05-08T16:05:35.000Z</time>
</trkpt>
<trkpt lat="43.755482" lon="2.977719">
<ele>787.9</ele>
<time>2013-05-08T16:05:36.000Z</time>
</trkpt>
<trkpt lat="43.755323" lon="2.977778">
<ele>788.8</ele>
<time>2013-05-08T16:05:37.000Z</time>
</trkpt>
<trkpt lat="43.755162" lon="2.977823">
<ele>790</ele>
<time>2013-05-08T16:05:38.000Z</time>
</trkpt>
<trkpt lat="43.755013" lon="2.977849">
<ele>791.3</ele>
<time>2013-05-08T16:05:39.000Z</time>
</trkpt>
<trkpt lat="43.754859" lon="2.977867">
<ele>792.5</ele>
<time>2013-05-08T16:05:40.000Z</time>
</trkpt>
<trkpt lat="43.754716" lon="2.977871">
<ele>793.9</ele>
<time>2013-05-08T16:05:41.000Z</time>
</trkpt>
<trkpt lat="43.754594" lon="2.977818">
<ele>795.4</ele>
<time>2013-05-08T16:05:42.000Z</time>
</trkpt>
<trkpt lat="43.754498" lon="2.977762">
<ele>796.5</ele>
<time>2013-05-08T16:05:43.000Z</time>
</trkpt>
<trkpt lat="43.754432" lon="2.977658">
<ele>797.9</ele>
<time>2013-05-08T16:05:44.000Z</time>
</trkpt>
<trkpt lat="43.754391" lon="2.977504">
<ele>799.4</ele>
<time>2013-05-08T16:05:45.000Z</time>
</trkpt>
<trkpt lat="43.754305" lon="2.977321">
<ele>800.7</ele>
<time>2013-05-08T16:05:46.000Z</time>
</trkpt>
<trkpt lat="43.754178" lon="2.977171">
<ele>801.9</ele>
<time>2013-05-08T16:05:47.000Z</time>
</trkpt>
<trkpt lat="43.754047" lon="2.977054">
<ele>803.2</ele>
<time>2013-05-08T16:05:48.000Z</time>
</trkpt>
<trkpt lat="43.753892" lon="2.976991">
<ele>804</ele>
<time>2013-05-08T16:05:49.000Z</time>
</trkpt>
<trkpt lat="43.753748" lon="2.976933">
<ele>804.4</ele>
<time>2013-05-08T16:05:50.000Z</time>
</trkpt>
<trkpt lat="43.7536" lon="2.976875">
<ele>805</ele>
<time>2013-05-08T16:05:51.000Z</time>
</trkpt>
<trkpt lat="43.753451" lon="2.976806">
<ele>805.7</ele>
<time>2013-05-08T16:05:52.000Z</time>
</trkpt>
<trkpt lat="43.7533" lon="2.976728">
<ele>806.5</ele>
<time>2013-05-08T16:05:53.000Z</time>
</trkpt>
<trkpt lat="43.753145" lon="2.976634">
<ele>807.9</ele>
<time>2013-05-08T16:05:54.000Z</time>
</trkpt>
<trkpt lat="43.752989" lon="2.976534">
<ele>809.2</ele>
<time>2013-05-08T16:05:55.000Z</time>
</trkpt>
<trkpt lat="43.752823" lon="2.976423">
<ele>810.5</ele>
<time>2013-05-08T16:05:56.000Z</time>
</trkpt>
<trkpt lat="43.752658" lon="2.976332">
<ele>811.5</ele>
<time>2013-05-08T16:05:57.000Z</time>
</trkpt>
<trkpt lat="43.752484" lon="2.976252">
<ele>812.5</ele>
<time>2013-05-08T16:05:58.000Z</time>
</trkpt>
<trkpt lat="43.752313" lon="2.976182">
<ele>813.5</ele>
<time>2013-05-08T16:05:59.000Z</time>
</trkpt>
<trkpt lat="43.752158" lon="2.976128">
<ele>814.8</ele>
<time>2013-05-08T16:06:00.000Z</time>
</trkpt>
<trkpt lat="43.752032" lon="2.976086">
<ele>816.1</ele>
<time>2013-05-08T16:06:01.000Z</time>
</trkpt>
<trkpt lat="43.751932" lon="2.976054">
<ele>817.4</ele>
<time>2013-05-08T16:06:02.000Z</time>
</trkpt>
<trkpt lat="43.751853" lon="2.976032">
<ele>818.7</ele>
<time>2013-05-08T16:06:03.000Z</time>
</trkpt>
<trkpt lat="43.751796" lon="2.976018">
<ele>820.3</ele>
<time>2013-05-08T16:06:04.000Z</time>
</trkpt>
<trkpt lat="43.751758" lon="2.97601">
<ele>821.8</ele>
<time>2013-05-08T16:06:05.000Z</time>
</trkpt>
<trkpt lat="43.751719" lon="2.976016">
<ele>821.9</ele>
<time>2013-05-08T16:06:06.000Z</time>
</trkpt>
<trkpt lat="43.751681" lon="2.976023">
<ele>823.5</ele>
<time>2013-05-08T16:06:07.000Z</time>
</trkpt>
<trkpt lat="43.751641" lon="2.976036">
<ele>823.6</ele>
<time>2013-05-08T16:06:08.000Z</time>
</trkpt>
<trkpt lat="43.751611" lon="2.976051">
<ele>823.7</ele>
<time>2013-05-08T16:06:09.000Z</time>
</trkpt>
<trkpt lat="43.751583" lon="2.976066">
<ele>823.8</ele>
<time>2013-05-08T16:06:10.000Z</time>
</trkpt>
<trkpt lat="43.751553" lon="2.976082">
<ele>823.9</ele>
<time>2013-05-08T16:06:11.000Z</time>
</trkpt>
<trkpt lat="43.751531" lon="2.976094">
<ele>823.9</ele>
<time>2013-05-08T16:06:12.000Z</time>
</trkpt>
<trkpt lat="43.751492" lon="2.976123">
<ele>824.1</ele>
<time>2013-05-08T16:06:14.000Z</time>
</trkpt>
<trkpt lat="43.751486" lon="2.976129">
<ele>824.1</ele>
<time>2013-05-08T16:06:15.000Z</time>
</trkpt>
<trkpt lat="43.751516" lon="2.976172">
<ele>827.2</ele>
<time>2013-05-08T16:11:58.000Z</time>
</trkpt>
<trkpt lat="43.751518" lon="2.976173">
<ele>827.2</ele>
<time>2013-05-08T16:11:59.000Z</time>
</trkpt>
<trkpt lat="43.75148" lon="2.976205">
<ele>827.5</ele>
<time>2013-05-08T16:13:49.000Z</time>
</trkpt>
<trkpt lat="43.751479" lon="2.976207">
<ele>827.5</ele>
<time>2013-05-08T16:13:50.000Z</time>
</trkpt>
<trkpt lat="43.751469" lon="2.976229">
<ele>827.5</ele>
<time>2013-05-08T16:14:09.000Z</time>
</trkpt>
<trkpt lat="43.751458" lon="2.976268">
<ele>827.6</ele>
<time>2013-05-08T16:14:10.000Z</time>
</trkpt>
<trkpt lat="43.751446" lon="2.976309">
<ele>827.6</ele>
<time>2013-05-08T16:14:11.000Z</time>
</trkpt>
<trkpt lat="43.751429" lon="2.976384">
<ele>828.5</ele>
<time>2013-05-08T16:14:12.000Z</time>
</trkpt>
<trkpt lat="43.751406" lon="2.976481">
<ele>829.2</ele>
<time>2013-05-08T16:14:13.000Z</time>
</trkpt>
<trkpt lat="43.751379" lon="2.976589">
<ele>829.9</ele>
<time>2013-05-08T16:14:14.000Z</time>
</trkpt>
<trkpt lat="43.751318" lon="2.976712">
<ele>830.5</ele>
<time>2013-05-08T16:14:15.000Z</time>
</trkpt>
<trkpt lat="43.751242" lon="2.976812">
<ele>831</ele>
<time>2013-05-08T16:14:16.000Z</time>
</trkpt>
<trkpt lat="43.751142" lon="2.976884">
<ele>831.5</ele>
<time>2013-05-08T16:14:17.000Z</time>
</trkpt>
<trkpt lat="43.751044" lon="2.976945">
<ele>832.2</ele>
<time>2013-05-08T16:14:18.000Z</time>
</trkpt>
<trkpt lat="43.750938" lon="2.976992">
<ele>832.8</ele>
<time>2013-05-08T16:14:19.000Z</time>
</trkpt>
<trkpt lat="43.750828" lon="2.97704">
<ele>833.5</ele>
<time>2013-05-08T16:14:20.000Z</time>
</trkpt>
<trkpt lat="43.750714" lon="2.977104">
<ele>833.9</ele>
<time>2013-05-08T16:14:21.000Z</time>
</trkpt>
<trkpt lat="43.750641" lon="2.977234">
<ele>833.8</ele>
<time>2013-05-08T16:14:22.000Z</time>
</trkpt>
<trkpt lat="43.750568" lon="2.977377">
<ele>834</ele>
<time>2013-05-08T16:14:23.000Z</time>
</trkpt>
<trkpt lat="43.75049" lon="2.977531">
<ele>834.5</ele>
<time>2013-05-08T16:14:24.000Z</time>
</trkpt>
<trkpt lat="43.750405" lon="2.977689">
<ele>835.1</ele>
<time>2013-05-08T16:14:25.000Z</time>
</trkpt>
<trkpt lat="43.750288" lon="2.977802">
<ele>835.7</ele>
<time>2013-05-08T16:14:26.000Z</time>
</trkpt>
<trkpt lat="43.750163" lon="2.977914">
<ele>836.3</ele>
<time>2013-05-08T16:14:27.000Z</time>
</trkpt>
<trkpt lat="43.750045" lon="2.978016">
<ele>836.5</ele>
<time>2013-05-08T16:14:28.000Z</time>
</trkpt>
<trkpt lat="43.749927" lon="2.978117">
<ele>836.7</ele>
<time>2013-05-08T16:14:29.000Z</time>
</trkpt>
<trkpt lat="43.749821" lon="2.978202">
<ele>836.9</ele>
<time>2013-05-08T16:14:30.000Z</time>
</trkpt>
<trkpt lat="43.749724" lon="2.978215">
<ele>837.1</ele>
<time>2013-05-08T16:14:31.000Z</time>
</trkpt>
<trkpt lat="43.749631" lon="2.978194">
<ele>837</ele>
<time>2013-05-08T16:14:32.000Z</time>
</trkpt>
<trkpt lat="43.749544" lon="2.978162">
<ele>837</ele>
<time>2013-05-08T16:14:33.000Z</time>
</trkpt>
<trkpt lat="43.749454" lon="2.978124">
<ele>837.6</ele>
<time>2013-05-08T16:14:34.000Z</time>
</trkpt>
<trkpt lat="43.74936" lon="2.97809">
<ele>837.8</ele>
<time>2013-05-08T16:14:35.000Z</time>
</trkpt>
<trkpt lat="43.749255" lon="2.978098">
<ele>838</ele>
<time>2013-05-08T16:14:36.000Z</time>
</trkpt>
<trkpt lat="43.749135" lon="2.978116">
<ele>838.5</ele>
<time>2013-05-08T16:14:37.000Z</time>
</trkpt>
<trkpt lat="43.749018" lon="2.978192">
<ele>839</ele>
<time>2013-05-08T16:14:38.000Z</time>
</trkpt>
<trkpt lat="43.748909" lon="2.97827">
<ele>839.5</ele>
<time>2013-05-08T16:14:39.000Z</time>
</trkpt>
<trkpt lat="43.7488" lon="2.978346">
<ele>839.7</ele>
<time>2013-05-08T16:14:40.000Z</time>
</trkpt>
<trkpt lat="43.7487" lon="2.978356">
<ele>839.9</ele>
<time>2013-05-08T16:14:41.000Z</time>
</trkpt>
<trkpt lat="43.748604" lon="2.978346">
<ele>840.3</ele>
<time>2013-05-08T16:14:42.000Z</time>
</trkpt>
<trkpt lat="43.748512" lon="2.978231">
<ele>840.9</ele>
<time>2013-05-08T16:14:43.000Z</time>
</trkpt>
<trkpt lat="43.748409" lon="2.978093">
<ele>841.5</ele>
<time>2013-05-08T16:14:44.000Z</time>
</trkpt>
<trkpt lat="43.748303" lon="2.977947">
<ele>841.9</ele>
<time>2013-05-08T16:14:45.000Z</time>
</trkpt>
<trkpt lat="43.748186" lon="2.977794">
<ele>842.5</ele>
<time>2013-05-08T16:14:46.000Z</time>
</trkpt>
<trkpt lat="43.748059" lon="2.977643">
<ele>843.3</ele>
<time>2013-05-08T16:14:47.000Z</time>
</trkpt>
<trkpt lat="43.747911" lon="2.97754">
<ele>843.9</ele>
<time>2013-05-08T16:14:48.000Z</time>
</trkpt>
<trkpt lat="43.747758" lon="2.977439">
<ele>844.3</ele>
<time>2013-05-08T16:14:49.000Z</time>
</trkpt>
<trkpt lat="43.747591" lon="2.977335">
<ele>845</ele>
<time>2013-05-08T16:14:50.000Z</time>
</trkpt>
<trkpt lat="43.747418" lon="2.977222">
<ele>846</ele>
<time>2013-05-08T16:14:51.000Z</time>
</trkpt>
<trkpt lat="43.74725" lon="2.977104">
<ele>846.7</ele>
<time>2013-05-08T16:14:52.000Z</time>
</trkpt>
<trkpt lat="43.747087" lon="2.976965">
<ele>847.8</ele>
<time>2013-05-08T16:14:53.000Z</time>
</trkpt>
<trkpt lat="43.746933" lon="2.97683">
<ele>848.9</ele>
<time>2013-05-08T16:14:54.000Z</time>
</trkpt>
<trkpt lat="43.746801" lon="2.9767">
<ele>850.1</ele>
<time>2013-05-08T16:14:55.000Z</time>
</trkpt>
<trkpt lat="43.746663" lon="2.976576">
<ele>851.3</ele>
<time>2013-05-08T16:14:56.000Z</time>
</trkpt>
<trkpt lat="43.746515" lon="2.976509">
<ele>852.3</ele>
<time>2013-05-08T16:14:57.000Z</time>
</trkpt>
<trkpt lat="43.746368" lon="2.976456">
<ele>853.3</ele>
<time>2013-05-08T16:14:58.000Z</time>
</trkpt>
<trkpt lat="43.746211" lon="2.976504">
<ele>853.9</ele>
<time>2013-05-08T16:14:59.000Z</time>
</trkpt>
<trkpt lat="43.746062" lon="2.976563">
<ele>854.3</ele>
<time>2013-05-08T16:15:00.000Z</time>
</trkpt>
<trkpt lat="43.745921" lon="2.976639">
<ele>855.1</ele>
<time>2013-05-08T16:15:01.000Z</time>
</trkpt>
<trkpt lat="43.745782" lon="2.976732">
<ele>855.9</ele>
<time>2013-05-08T16:15:02.000Z</time>
</trkpt>
<trkpt lat="43.745639" lon="2.976826">
<ele>856.6</ele>
<time>2013-05-08T16:15:03.000Z</time>
</trkpt>
<trkpt lat="43.74552" lon="2.976855">
<ele>857.1</ele>
<time>2013-05-08T16:15:04.000Z</time>
</trkpt>
<trkpt lat="43.745406" lon="2.976891">
<ele>857.7</ele>
<time>2013-05-08T16:15:05.000Z</time>
</trkpt>
<trkpt lat="43.745281" lon="2.97682">
<ele>858.1</ele>
<time>2013-05-08T16:15:06.000Z</time>
</trkpt>
<trkpt lat="43.74516" lon="2.976682">
<ele>858.9</ele>
<time>2013-05-08T16:15:07.000Z</time>
</trkpt>
<trkpt lat="43.745026" lon="2.976526">
<ele>860.1</ele>
<time>2013-05-08T16:15:08.000Z</time>
</trkpt>
<trkpt lat="43.744896" lon="2.97636">
<ele>860.7</ele>
<time>2013-05-08T16:15:09.000Z</time>
</trkpt>
<trkpt lat="43.7448" lon="2.97616">
<ele>861.2</ele>
<time>2013-05-08T16:15:10.000Z</time>
</trkpt>
<trkpt lat="43.744714" lon="2.975948">
<ele>861.7</ele>
<time>2013-05-08T16:15:11.000Z</time>
</trkpt>
<trkpt lat="43.744622" lon="2.975702">
<ele>862.4</ele>
<time>2013-05-08T16:15:12.000Z</time>
</trkpt>
<trkpt lat="43.744534" lon="2.97546">
<ele>863.4</ele>
<time>2013-05-08T16:15:13.000Z</time>
</trkpt>
<trkpt lat="43.744446" lon="2.975223">
<ele>864.6</ele>
<time>2013-05-08T16:15:14.000Z</time>
</trkpt>
<trkpt lat="43.744344" lon="2.974982">
<ele>865.4</ele>
<time>2013-05-08T16:15:15.000Z</time>
</trkpt>
<trkpt lat="43.744207" lon="2.974774">
<ele>866.7</ele>
<time>2013-05-08T16:15:16.000Z</time>
</trkpt>
<trkpt lat="43.744065" lon="2.974585">
<ele>868</ele>
<time>2013-05-08T16:15:17.000Z</time>
</trkpt>
<trkpt lat="43.743926" lon="2.974401">
<ele>869.2</ele>
<time>2013-05-08T16:15:18.000Z</time>
</trkpt>
<trkpt lat="43.743788" lon="2.974232">
<ele>870.6</ele>
<time>2013-05-08T16:15:19.000Z</time>
</trkpt>
<trkpt lat="43.743639" lon="2.974099">
<ele>871.9</ele>
<time>2013-05-08T16:15:20.000Z</time>
</trkpt>
<trkpt lat="43.743498" lon="2.973985">
<ele>873.4</ele>
<time>2013-05-08T16:15:21.000Z</time>
</trkpt>
<trkpt lat="43.743357" lon="2.973886">
<ele>874.6</ele>
<time>2013-05-08T16:15:22.000Z</time>
</trkpt>
<trkpt lat="43.743185" lon="2.973906">
<ele>875.8</ele>
<time>2013-05-08T16:15:23.000Z</time>
</trkpt>
<trkpt lat="43.743023" lon="2.97394">
<ele>876.7</ele>
<time>2013-05-08T16:15:24.000Z</time>
</trkpt>
<trkpt lat="43.742863" lon="2.973988">
<ele>877.2</ele>
<time>2013-05-08T16:15:25.000Z</time>
</trkpt>
<trkpt lat="43.742698" lon="2.974052">
<ele>877.6</ele>
<time>2013-05-08T16:15:26.000Z</time>
</trkpt>
<trkpt lat="43.742529" lon="2.974121">
<ele>878.3</ele>
<time>2013-05-08T16:15:27.000Z</time>
</trkpt>
<trkpt lat="43.742355" lon="2.974192">
<ele>878.9</ele>
<time>2013-05-08T16:15:28.000Z</time>
</trkpt>
<trkpt lat="43.742175" lon="2.974265">
<ele>879.7</ele>
<time>2013-05-08T16:15:29.000Z</time>
</trkpt>
<trkpt lat="43.741992" lon="2.974321">
<ele>880.3</ele>
<time>2013-05-08T16:15:30.000Z</time>
</trkpt>
<trkpt lat="43.741822" lon="2.974359">
<ele>880.7</ele>
<time>2013-05-08T16:15:31.000Z</time>
</trkpt>
<trkpt lat="43.741661" lon="2.974384">
<ele>880.7</ele>
<time>2013-05-08T16:15:32.000Z</time>
</trkpt>
<trkpt lat="43.741523" lon="2.974398">
<ele>880.5</ele>
<time>2013-05-08T16:15:33.000Z</time>
</trkpt>
<trkpt lat="43.741395" lon="2.974407">
<ele>880.4</ele>
<time>2013-05-08T16:15:34.000Z</time>
</trkpt>
<trkpt lat="43.741272" lon="2.974372">
<ele>880.8</ele>
<time>2013-05-08T16:15:35.000Z</time>
</trkpt>
<trkpt lat="43.741164" lon="2.974278">
<ele>881.6</ele>
<time>2013-05-08T16:15:36.000Z</time>
</trkpt>
<trkpt lat="43.741082" lon="2.974156">
<ele>882.3</ele>
<time>2013-05-08T16:15:37.000Z</time>
</trkpt>
<trkpt lat="43.741008" lon="2.973995">
<ele>882.7</ele>
<time>2013-05-08T16:15:38.000Z</time>
</trkpt>
<trkpt lat="43.740928" lon="2.97381">
<ele>882.8</ele>
<time>2013-05-08T16:15:39.000Z</time>
</trkpt>
<trkpt lat="43.74084" lon="2.973621">
<ele>883</ele>
<time>2013-05-08T16:15:40.000Z</time>
</trkpt>
<trkpt lat="43.740754" lon="2.973434">
<ele>883.7</ele>
<time>2013-05-08T16:15:41.000Z</time>
</trkpt>
<trkpt lat="43.740679" lon="2.973218">
<ele>884.6</ele>
<time>2013-05-08T16:15:42.000Z</time>
</trkpt>
<trkpt lat="43.740628" lon="2.972988">
<ele>885.5</ele>
<time>2013-05-08T16:15:43.000Z</time>
</trkpt>
<trkpt lat="43.740579" lon="2.972758">
<ele>886.7</ele>
<time>2013-05-08T16:15:44.000Z</time>
</trkpt>
<trkpt lat="43.740545" lon="2.972515">
<ele>887.9</ele>
<time>2013-05-08T16:15:45.000Z</time>
</trkpt>
<trkpt lat="43.740522" lon="2.972266">
<ele>889</ele>
<time>2013-05-08T16:15:46.000Z</time>
</trkpt>
<trkpt lat="43.740505" lon="2.972025">
<ele>889.8</ele>
<time>2013-05-08T16:15:47.000Z</time>
</trkpt>
<trkpt lat="43.740493" lon="2.971794">
<ele>890.6</ele>
<time>2013-05-08T16:15:48.000Z</time>
</trkpt>
<trkpt lat="43.740475" lon="2.971585">
<ele>891.2</ele>
<time>2013-05-08T16:15:49.000Z</time>
</trkpt>
<trkpt lat="43.740422" lon="2.971418">
<ele>891.7</ele>
<time>2013-05-08T16:15:50.000Z</time>
</trkpt>
<trkpt lat="43.74033" lon="2.971284">
<ele>892</ele>
<time>2013-05-08T16:15:51.000Z</time>
</trkpt>
<trkpt lat="43.74022" lon="2.9712">
<ele>892.4</ele>
<time>2013-05-08T16:15:52.000Z</time>
</trkpt>
<trkpt lat="43.740092" lon="2.971125">
<ele>893.1</ele>
<time>2013-05-08T16:15:53.000Z</time>
</trkpt>
<trkpt lat="43.739929" lon="2.971138">
<ele>893.7</ele>
<time>2013-05-08T16:15:54.000Z</time>
</trkpt>
<trkpt lat="43.739751" lon="2.971162">
<ele>894.3</ele>
<time>2013-05-08T16:15:55.000Z</time>
</trkpt>
<trkpt lat="43.739566" lon="2.971205">
<ele>894.9</ele>
<time>2013-05-08T16:15:56.000Z</time>
</trkpt>
<trkpt lat="43.739388" lon="2.971259">
<ele>894.6</ele>
<time>2013-05-08T16:15:57.000Z</time>
</trkpt>
<trkpt lat="43.739211" lon="2.971326">
<ele>893.6</ele>
<time>2013-05-08T16:15:58.000Z</time>
</trkpt>
<trkpt lat="43.73903" lon="2.971387">
<ele>893</ele>
<time>2013-05-08T16:15:59.000Z</time>
</trkpt>
<trkpt lat="43.738836" lon="2.97143">
<ele>892.8</ele>
<time>2013-05-08T16:16:00.000Z</time>
</trkpt>
<trkpt lat="43.73864" lon="2.971449">
<ele>892.9</ele>
<time>2013-05-08T16:16:01.000Z</time>
</trkpt>
<trkpt lat="43.738434" lon="2.971475">
<ele>893.5</ele>
<time>2013-05-08T16:16:02.000Z</time>
</trkpt>
<trkpt lat="43.738226" lon="2.971499">
<ele>894.1</ele>
<time>2013-05-08T16:16:03.000Z</time>
</trkpt>
<trkpt lat="43.738007" lon="2.971509">
<ele>895.1</ele>
<time>2013-05-08T16:16:04.000Z</time>
</trkpt>
<trkpt lat="43.737788" lon="2.971503">
<ele>896.1</ele>
<time>2013-05-08T16:16:05.000Z</time>
</trkpt>
<trkpt lat="43.737563" lon="2.971488">
<ele>897.3</ele>
<time>2013-05-08T16:16:06.000Z</time>
</trkpt>
<trkpt lat="43.737341" lon="2.971461">
<ele>898.3</ele>
<time>2013-05-08T16:16:07.000Z</time>
</trkpt>
<trkpt lat="43.737113" lon="2.97143">
<ele>899.5</ele>
<time>2013-05-08T16:16:08.000Z</time>
</trkpt>
<trkpt lat="43.736866" lon="2.971381">
<ele>902.2</ele>
<time>2013-05-08T16:16:09.000Z</time>
</trkpt>
<trkpt lat="43.736629" lon="2.971299">
<ele>904.3</ele>
<time>2013-05-08T16:16:10.000Z</time>
</trkpt>
<trkpt lat="43.736395" lon="2.971209">
<ele>906.3</ele>
<time>2013-05-08T16:16:11.000Z</time>
</trkpt>
<trkpt lat="43.736168" lon="2.971113">
<ele>908.2</ele>
<time>2013-05-08T16:16:12.000Z</time>
</trkpt>
<trkpt lat="43.735948" lon="2.97101">
<ele>909.9</ele>
<time>2013-05-08T16:16:13.000Z</time>
</trkpt>
<trkpt lat="43.735745" lon="2.970878">
<ele>911</ele>
<time>2013-05-08T16:16:14.000Z</time>
</trkpt>
<trkpt lat="43.735555" lon="2.970712">
<ele>911.7</ele>
<time>2013-05-08T16:16:15.000Z</time>
</trkpt>
<trkpt lat="43.735357" lon="2.970526">
<ele>912.6</ele>
<time>2013-05-08T16:16:16.000Z</time>
</trkpt>
<trkpt lat="43.735163" lon="2.970322">
<ele>913.3</ele>
<time>2013-05-08T16:16:17.000Z</time>
</trkpt>
<trkpt lat="43.734959" lon="2.970117">
<ele>914.2</ele>
<time>2013-05-08T16:16:18.000Z</time>
</trkpt>
<trkpt lat="43.734756" lon="2.969904">
<ele>914.5</ele>
<time>2013-05-08T16:16:19.000Z</time>
</trkpt>
<trkpt lat="43.734549" lon="2.969706">
<ele>914.5</ele>
<time>2013-05-08T16:16:20.000Z</time>
</trkpt>
<trkpt lat="43.734346" lon="2.969517">
<ele>915</ele>
<time>2013-05-08T16:16:21.000Z</time>
</trkpt>
<trkpt lat="43.734137" lon="2.969355">
<ele>915.5</ele>
<time>2013-05-08T16:16:22.000Z</time>
</trkpt>
<trkpt lat="43.733932" lon="2.969205">
<ele>915.9</ele>
<time>2013-05-08T16:16:23.000Z</time>
</trkpt>
<trkpt lat="43.733728" lon="2.969054">
<ele>916.6</ele>
<time>2013-05-08T16:16:24.000Z</time>
</trkpt>
<trkpt lat="43.733531" lon="2.968897">
<ele>917.5</ele>
<time>2013-05-08T16:16:25.000Z</time>
</trkpt>
<trkpt lat="43.733337" lon="2.968744">
<ele>918.9</ele>
<time>2013-05-08T16:16:26.000Z</time>
</trkpt>
<trkpt lat="43.733148" lon="2.968626">
<ele>920.2</ele>
<time>2013-05-08T16:16:27.000Z</time>
</trkpt>
<trkpt lat="43.732965" lon="2.968516">
<ele>921.4</ele>
<time>2013-05-08T16:16:28.000Z</time>
</trkpt>
<trkpt lat="43.73277" lon="2.96847">
<ele>922.5</ele>
<time>2013-05-08T16:16:29.000Z</time>
</trkpt>
<trkpt lat="43.732579" lon="2.968461">
<ele>923.1</ele>
<time>2013-05-08T16:16:30.000Z</time>
</trkpt>
<trkpt lat="43.732403" lon="2.968467">
<ele>924.2</ele>
<time>2013-05-08T16:16:31.000Z</time>
</trkpt>
<trkpt lat="43.732237" lon="2.968491">
<ele>925.4</ele>
<time>2013-05-08T16:16:32.000Z</time>
</trkpt>
<trkpt lat="43.73208" lon="2.968573">
<ele>926.9</ele>
<time>2013-05-08T16:16:33.000Z</time>
</trkpt>
<trkpt lat="43.731944" lon="2.968661">
<ele>928.1</ele>
<time>2013-05-08T16:16:34.000Z</time>
</trkpt>
<trkpt lat="43.731877" lon="2.968844">
<ele>928.5</ele>
<time>2013-05-08T16:16:35.000Z</time>
</trkpt>
<trkpt lat="43.731848" lon="2.969044">
<ele>928.4</ele>
<time>2013-05-08T16:16:36.000Z</time>
</trkpt>
<trkpt lat="43.731854" lon="2.969254">
<ele>928.3</ele>
<time>2013-05-08T16:16:37.000Z</time>
</trkpt>
<trkpt lat="43.73187" lon="2.969479">
<ele>928.8</ele>
<time>2013-05-08T16:16:38.000Z</time>
</trkpt>
<trkpt lat="43.731947" lon="2.969729">
<ele>929.3</ele>
<time>2013-05-08T16:16:39.000Z</time>
</trkpt>
<trkpt lat="43.732033" lon="2.969982">
<ele>929.5</ele>
<time>2013-05-08T16:16:40.000Z</time>
</trkpt>
<trkpt lat="43.73212" lon="2.970235">
<ele>929.9</ele>
<time>2013-05-08T16:16:41.000Z</time>
</trkpt>
<trkpt lat="43.732215" lon="2.970484">
<ele>930.7</ele>
<time>2013-05-08T16:16:42.000Z</time>
</trkpt>
<trkpt lat="43.732294" lon="2.970716">
<ele>931.3</ele>
<time>2013-05-08T16:16:43.000Z</time>
</trkpt>
<trkpt lat="43.732372" lon="2.970955">
<ele>932</ele>
<time>2013-05-08T16:16:44.000Z</time>
</trkpt>
<trkpt lat="43.732412" lon="2.971194">
<ele>932.8</ele>
<time>2013-05-08T16:16:45.000Z</time>
</trkpt>
<trkpt lat="43.73242" lon="2.971415">
<ele>933.7</ele>
<time>2013-05-08T16:16:46.000Z</time>
</trkpt>
<trkpt lat="43.732372" lon="2.971615">
<ele>934.8</ele>
<time>2013-05-08T16:16:47.000Z</time>
</trkpt>
<trkpt lat="43.732278" lon="2.97178">
<ele>935.9</ele>
<time>2013-05-08T16:16:48.000Z</time>
</trkpt>
<trkpt lat="43.732159" lon="2.971914">
<ele>937.2</ele>
<time>2013-05-08T16:16:49.000Z</time>
</trkpt>
<trkpt lat="43.732032" lon="2.972031">
<ele>938.7</ele>
<time>2013-05-08T16:16:50.000Z</time>
</trkpt>
<trkpt lat="43.731895" lon="2.972127">
<ele>940.4</ele>
<time>2013-05-08T16:16:51.000Z</time>
</trkpt>
<trkpt lat="43.731752" lon="2.972176">
<ele>941.7</ele>
<time>2013-05-08T16:16:52.000Z</time>
</trkpt>
<trkpt lat="43.731621" lon="2.972214">
<ele>942.4</ele>
<time>2013-05-08T16:16:53.000Z</time>
</trkpt>
<trkpt lat="43.731479" lon="2.972202">
<ele>943.3</ele>
<time>2013-05-08T16:16:54.000Z</time>
</trkpt>
<trkpt lat="43.731341" lon="2.972178">
<ele>943.9</ele>
<time>2013-05-08T16:16:55.000Z</time>
</trkpt>
<trkpt lat="43.731224" lon="2.972108">
<ele>944.4</ele>
<time>2013-05-08T16:16:56.000Z</time>
</trkpt>
<trkpt lat="43.731101" lon="2.972026">
<ele>945</ele>
<time>2013-05-08T16:16:57.000Z</time>
</trkpt>
<trkpt lat="43.730983" lon="2.971933">
<ele>945.7</ele>
<time>2013-05-08T16:16:58.000Z</time>
</trkpt>
<trkpt lat="43.730869" lon="2.971829">
<ele>946.4</ele>
<time>2013-05-08T16:16:59.000Z</time>
</trkpt>
<trkpt lat="43.730763" lon="2.971725">
<ele>947.1</ele>
<time>2013-05-08T16:17:00.000Z</time>
</trkpt>
<trkpt lat="43.730653" lon="2.971621">
<ele>947.4</ele>
<time>2013-05-08T16:17:01.000Z</time>
</trkpt>
<trkpt lat="43.730546" lon="2.97152">
<ele>948</ele>
<time>2013-05-08T16:17:02.000Z</time>
</trkpt>
<trkpt lat="43.730433" lon="2.971473">
<ele>949</ele>
<time>2013-05-08T16:17:03.000Z</time>
</trkpt>
<trkpt lat="43.730321" lon="2.971445">
<ele>950.2</ele>
<time>2013-05-08T16:17:04.000Z</time>
</trkpt>
<trkpt lat="43.730188" lon="2.971502">
<ele>950.7</ele>
<time>2013-05-08T16:17:05.000Z</time>
</trkpt>
<trkpt lat="43.730107" lon="2.971697">
<ele>951.5</ele>
<time>2013-05-08T16:17:06.000Z</time>
</trkpt>
<trkpt lat="43.730055" lon="2.971923">
<ele>952.8</ele>
<time>2013-05-08T16:17:07.000Z</time>
</trkpt>
<trkpt lat="43.730006" lon="2.972177">
<ele>954.7</ele>
<time>2013-05-08T16:17:08.000Z</time>
</trkpt>
<trkpt lat="43.729958" lon="2.972454">
<ele>956</ele>
<time>2013-05-08T16:17:09.000Z</time>
</trkpt>
<trkpt lat="43.729915" lon="2.972736">
<ele>957.1</ele>
<time>2013-05-08T16:17:10.000Z</time>
</trkpt>
<trkpt lat="43.729885" lon="2.973033">
<ele>958.3</ele>
<time>2013-05-08T16:17:11.000Z</time>
</trkpt>
<trkpt lat="43.72986" lon="2.973327">
<ele>959.6</ele>
<time>2013-05-08T16:17:12.000Z</time>
</trkpt>
<trkpt lat="43.729838" lon="2.97361">
<ele>960.8</ele>
<time>2013-05-08T16:17:13.000Z</time>
</trkpt>
<trkpt lat="43.729824" lon="2.973884">
<ele>961.9</ele>
<time>2013-05-08T16:17:14.000Z</time>
</trkpt>
<trkpt lat="43.729825" lon="2.974146">
<ele>962.8</ele>
<time>2013-05-08T16:17:15.000Z</time>
</trkpt>
<trkpt lat="43.729836" lon="2.974393">
<ele>963.4</ele>
<time>2013-05-08T16:17:16.000Z</time>
</trkpt>
<trkpt lat="43.729848" lon="2.974622">
<ele>963.8</ele>
<time>2013-05-08T16:17:17.000Z</time>
</trkpt>
<trkpt lat="43.729857" lon="2.974834">
<ele>964.1</ele>
<time>2013-05-08T16:17:18.000Z</time>
</trkpt>
<trkpt lat="43.729851" lon="2.97505">
<ele>964.6</ele>
<time>2013-05-08T16:17:19.000Z</time>
</trkpt>
<trkpt lat="43.729781" lon="2.975233">
<ele>965.4</ele>
<time>2013-05-08T16:17:20.000Z</time>
</trkpt>
<trkpt lat="43.729704" lon="2.975376">
<ele>965.7</ele>
<time>2013-05-08T16:17:21.000Z</time>
</trkpt>
<trkpt lat="43.7296" lon="2.975511">
<ele>966</ele>
<time>2013-05-08T16:17:22.000Z</time>
</trkpt>
<trkpt lat="43.729434" lon="2.975549">
<ele>966.4</ele>
<time>2013-05-08T16:17:23.000Z</time>
</trkpt>
<trkpt lat="43.729272" lon="2.975594">
<ele>966.4</ele>
<time>2013-05-08T16:17:24.000Z</time>
</trkpt>
<trkpt lat="43.729112" lon="2.975649">
<ele>966.8</ele>
<time>2013-05-08T16:17:25.000Z</time>
</trkpt>
<trkpt lat="43.728953" lon="2.97572">
<ele>967.2</ele>
<time>2013-05-08T16:17:26.000Z</time>
</trkpt>
<trkpt lat="43.728795" lon="2.975809">
<ele>967.9</ele>
<time>2013-05-08T16:17:27.000Z</time>
</trkpt>
<trkpt lat="43.728668" lon="2.975936">
<ele>968.1</ele>
<time>2013-05-08T16:17:28.000Z</time>
</trkpt>
<trkpt lat="43.728576" lon="2.976097">
<ele>967.9</ele>
<time>2013-05-08T16:17:29.000Z</time>
</trkpt>
<trkpt lat="43.728516" lon="2.97629">
<ele>967.1</ele>
<time>2013-05-08T16:17:30.000Z</time>
</trkpt>
<trkpt lat="43.72847" lon="2.976489">
<ele>966.4</ele>
<time>2013-05-08T16:17:31.000Z</time>
</trkpt>
<trkpt lat="43.728437" lon="2.976691">
<ele>965.8</ele>
<time>2013-05-08T16:17:32.000Z</time>
</trkpt>
<trkpt lat="43.728414" lon="2.976894">
<ele>965.4</ele>
<time>2013-05-08T16:17:33.000Z</time>
</trkpt>
<trkpt lat="43.728425" lon="2.977113">
<ele>964.9</ele>
<time>2013-05-08T16:17:34.000Z</time>
</trkpt>
<trkpt lat="43.728476" lon="2.977327">
<ele>964.3</ele>
<time>2013-05-08T16:17:35.000Z</time>
</trkpt>
<trkpt lat="43.728535" lon="2.977518">
<ele>963.3</ele>
<time>2013-05-08T16:17:36.000Z</time>
</trkpt>
<trkpt lat="43.728629" lon="2.977675">
<ele>962.4</ele>
<time>2013-05-08T16:17:37.000Z</time>
</trkpt>
<trkpt lat="43.728717" lon="2.977812">
<ele>961.6</ele>
<time>2013-05-08T16:17:38.000Z</time>
</trkpt>
<trkpt lat="43.728799" lon="2.977927">
<ele>960.7</ele>
<time>2013-05-08T16:17:39.000Z</time>
</trkpt>
<trkpt lat="43.728876" lon="2.978052">
<ele>960.1</ele>
<time>2013-05-08T16:17:40.000Z</time>
</trkpt>
<trkpt lat="43.728955" lon="2.978197">
<ele>959.4</ele>
<time>2013-05-08T16:17:41.000Z</time>
</trkpt>
<trkpt lat="43.728988" lon="2.978328">
<ele>958.7</ele>
<time>2013-05-08T16:17:42.000Z</time>
</trkpt>
<trkpt lat="43.728966" lon="2.978463">
<ele>957.8</ele>
<time>2013-05-08T16:17:43.000Z</time>
</trkpt>
<trkpt lat="43.72886" lon="2.978576">
<ele>956.4</ele>
<time>2013-05-08T16:17:44.000Z</time>
</trkpt>
<trkpt lat="43.728733" lon="2.97867">
<ele>955.7</ele>
<time>2013-05-08T16:17:45.000Z</time>
</trkpt>
<trkpt lat="43.728587" lon="2.978744">
<ele>955.3</ele>
<time>2013-05-08T16:17:46.000Z</time>
</trkpt>
<trkpt lat="43.728439" lon="2.978801">
<ele>955.1</ele>
<time>2013-05-08T16:17:47.000Z</time>
</trkpt>
<trkpt lat="43.728295" lon="2.978844">
<ele>955</ele>
<time>2013-05-08T16:17:48.000Z</time>
</trkpt>
<trkpt lat="43.728139" lon="2.978838">
<ele>955.1</ele>
<time>2013-05-08T16:17:49.000Z</time>
</trkpt>
<trkpt lat="43.728009" lon="2.978791">
<ele>954.9</ele>
<time>2013-05-08T16:17:50.000Z</time>
</trkpt>
<trkpt lat="43.727916" lon="2.978689">
<ele>954.7</ele>
<time>2013-05-08T16:17:51.000Z</time>
</trkpt>
<trkpt lat="43.727836" lon="2.978552">
<ele>954.7</ele>
<time>2013-05-08T16:17:52.000Z</time>
</trkpt>
<trkpt lat="43.727753" lon="2.9784">
<ele>954.5</ele>
<time>2013-05-08T16:17:53.000Z</time>
</trkpt>
<trkpt lat="43.727665" lon="2.978231">
<ele>954.3</ele>
<time>2013-05-08T16:17:54.000Z</time>
</trkpt>
<trkpt lat="43.72757" lon="2.97805">
<ele>954.4</ele>
<time>2013-05-08T16:17:55.000Z</time>
</trkpt>
<trkpt lat="43.727467" lon="2.977876">
<ele>954.3</ele>
<time>2013-05-08T16:17:56.000Z</time>
</trkpt>
<trkpt lat="43.727323" lon="2.977729">
<ele>954.2</ele>
<time>2013-05-08T16:17:57.000Z</time>
</trkpt>
<trkpt lat="43.727171" lon="2.97757">
<ele>954</ele>
<time>2013-05-08T16:17:58.000Z</time>
</trkpt>
<trkpt lat="43.726999" lon="2.977392">
<ele>953.8</ele>
<time>2013-05-08T16:17:59.000Z</time>
</trkpt>
<trkpt lat="43.726817" lon="2.977197">
<ele>953.7</ele>
<time>2013-05-08T16:18:00.000Z</time>
</trkpt>
<trkpt lat="43.726626" lon="2.976997">
<ele>954</ele>
<time>2013-05-08T16:18:01.000Z</time>
</trkpt>
<trkpt lat="43.726434" lon="2.976801">
<ele>954.5</ele>
<time>2013-05-08T16:18:02.000Z</time>
</trkpt>
<trkpt lat="43.726247" lon="2.976603">
<ele>955.4</ele>
<time>2013-05-08T16:18:03.000Z</time>
</trkpt>
<trkpt lat="43.726061" lon="2.976408">
<ele>956.1</ele>
<time>2013-05-08T16:18:04.000Z</time>
</trkpt>
<trkpt lat="43.725873" lon="2.976224">
<ele>956.8</ele>
<time>2013-05-08T16:18:05.000Z</time>
</trkpt>
<trkpt lat="43.725681" lon="2.976053">
<ele>957.4</ele>
<time>2013-05-08T16:18:06.000Z</time>
</trkpt>
<trkpt lat="43.72549" lon="2.975885">
<ele>958</ele>
<time>2013-05-08T16:18:07.000Z</time>
</trkpt>
<trkpt lat="43.725307" lon="2.97572">
<ele>958.2</ele>
<time>2013-05-08T16:18:08.000Z</time>
</trkpt>
<trkpt lat="43.725132" lon="2.975561">
<ele>958.5</ele>
<time>2013-05-08T16:18:09.000Z</time>
</trkpt>
<trkpt lat="43.724968" lon="2.975399">
<ele>958.5</ele>
<time>2013-05-08T16:18:10.000Z</time>
</trkpt>
<trkpt lat="43.724812" lon="2.975231">
<ele>957.8</ele>
<time>2013-05-08T16:18:11.000Z</time>
</trkpt>
<trkpt lat="43.724663" lon="2.975061">
<ele>957.1</ele>
<time>2013-05-08T16:18:12.000Z</time>
</trkpt>
<trkpt lat="43.724519" lon="2.974886">
<ele>955.9</ele>
<time>2013-05-08T16:18:13.000Z</time>
</trkpt>
<trkpt lat="43.724371" lon="2.974702">
<ele>955</ele>
<time>2013-05-08T16:18:14.000Z</time>
</trkpt>
<trkpt lat="43.72422" lon="2.974513">
<ele>954.4</ele>
<time>2013-05-08T16:18:15.000Z</time>
</trkpt>
<trkpt lat="43.724066" lon="2.974324">
<ele>953.9</ele>
<time>2013-05-08T16:18:16.000Z</time>
</trkpt>
<trkpt lat="43.723918" lon="2.974139">
<ele>953.2</ele>
<time>2013-05-08T16:18:17.000Z</time>
</trkpt>
<trkpt lat="43.723772" lon="2.973954">
<ele>952.5</ele>
<time>2013-05-08T16:18:18.000Z</time>
</trkpt>
<trkpt lat="43.723626" lon="2.973777">
<ele>952</ele>
<time>2013-05-08T16:18:19.000Z</time>
</trkpt>
<trkpt lat="43.72347" lon="2.973615">
<ele>951.9</ele>
<time>2013-05-08T16:18:20.000Z</time>
</trkpt>
<trkpt lat="43.723312" lon="2.9735">
<ele>951.7</ele>
<time>2013-05-08T16:18:21.000Z</time>
</trkpt>
<trkpt lat="43.723144" lon="2.973437">
<ele>952.2</ele>
<time>2013-05-08T16:18:22.000Z</time>
</trkpt>
<trkpt lat="43.722985" lon="2.973442">
<ele>952.2</ele>
<time>2013-05-08T16:18:23.000Z</time>
</trkpt>
<trkpt lat="43.722827" lon="2.97352">
<ele>952.4</ele>
<time>2013-05-08T16:18:24.000Z</time>
</trkpt>
<trkpt lat="43.722673" lon="2.973661">
<ele>952.4</ele>
<time>2013-05-08T16:18:25.000Z</time>
</trkpt>
<trkpt lat="43.722517" lon="2.973822">
<ele>952</ele>
<time>2013-05-08T16:18:26.000Z</time>
</trkpt>
<trkpt lat="43.722351" lon="2.973992">
<ele>951.7</ele>
<time>2013-05-08T16:18:27.000Z</time>
</trkpt>
<trkpt lat="43.722193" lon="2.974159">
<ele>950.7</ele>
<time>2013-05-08T16:18:28.000Z</time>
</trkpt>
<trkpt lat="43.722038" lon="2.974331">
<ele>949.9</ele>
<time>2013-05-08T16:18:29.000Z</time>
</trkpt>
<trkpt lat="43.721894" lon="2.974489">
<ele>949.2</ele>
<time>2013-05-08T16:18:30.000Z</time>
</trkpt>
<trkpt lat="43.721773" lon="2.974638">
<ele>948.4</ele>
<time>2013-05-08T16:18:31.000Z</time>
</trkpt>
<trkpt lat="43.72166" lon="2.974799">
<ele>948.1</ele>
<time>2013-05-08T16:18:32.000Z</time>
</trkpt>
<trkpt lat="43.721605" lon="2.975003">
<ele>948</ele>
<time>2013-05-08T16:18:33.000Z</time>
</trkpt>
<trkpt lat="43.721593" lon="2.975203">
<ele>947.9</ele>
<time>2013-05-08T16:18:34.000Z</time>
</trkpt>
<trkpt lat="43.721591" lon="2.9754">
<ele>947.4</ele>
<time>2013-05-08T16:18:35.000Z</time>
</trkpt>
<trkpt lat="43.721628" lon="2.975599">
<ele>947.1</ele>
<time>2013-05-08T16:18:36.000Z</time>
</trkpt>
<trkpt lat="43.721666" lon="2.975807">
<ele>946.6</ele>
<time>2013-05-08T16:18:37.000Z</time>
</trkpt>
<trkpt lat="43.721691" lon="2.976023">
<ele>946.4</ele>
<time>2013-05-08T16:18:38.000Z</time>
</trkpt>
<trkpt lat="43.72168" lon="2.976224">
<ele>946.5</ele>
<time>2013-05-08T16:18:39.000Z</time>
</trkpt>
<trkpt lat="43.721663" lon="2.976389">
<ele>946.5</ele>
<time>2013-05-08T16:18:40.000Z</time>
</trkpt>
<trkpt lat="43.721611" lon="2.976521">
<ele>946</ele>
<time>2013-05-08T16:18:41.000Z</time>
</trkpt>
<trkpt lat="43.721537" lon="2.976633">
<ele>945.3</ele>
<time>2013-05-08T16:18:42.000Z</time>
</trkpt>
<trkpt lat="43.721459" lon="2.976721">
<ele>945</ele>
<time>2013-05-08T16:18:43.000Z</time>
</trkpt>
<trkpt lat="43.721358" lon="2.976777">
<ele>945.2</ele>
<time>2013-05-08T16:18:44.000Z</time>
</trkpt>
<trkpt lat="43.721197" lon="2.976754">
<ele>945.2</ele>
<time>2013-05-08T16:18:45.000Z</time>
</trkpt>
<trkpt lat="43.721056" lon="2.976718">
<ele>945.2</ele>
<time>2013-05-08T16:18:46.000Z</time>
</trkpt>
<trkpt lat="43.720915" lon="2.976689">
<ele>945.6</ele>
<time>2013-05-08T16:18:47.000Z</time>
</trkpt>
<trkpt lat="43.720765" lon="2.97666">
<ele>945.6</ele>
<time>2013-05-08T16:18:48.000Z</time>
</trkpt>
<trkpt lat="43.720602" lon="2.976628">
<ele>945.8</ele>
<time>2013-05-08T16:18:49.000Z</time>
</trkpt>
<trkpt lat="43.720432" lon="2.976599">
<ele>946.2</ele>
<time>2013-05-08T16:18:50.000Z</time>
</trkpt>
<trkpt lat="43.720262" lon="2.976578">
<ele>946.5</ele>
<time>2013-05-08T16:18:51.000Z</time>
</trkpt>
<trkpt lat="43.720099" lon="2.976561">
<ele>946.8</ele>
<time>2013-05-08T16:18:52.000Z</time>
</trkpt>
<trkpt lat="43.719939" lon="2.976549">
<ele>947.1</ele>
<time>2013-05-08T16:18:53.000Z</time>
</trkpt>
<trkpt lat="43.71977" lon="2.976534">
<ele>947.3</ele>
<time>2013-05-08T16:18:54.000Z</time>
</trkpt>
<trkpt lat="43.71961" lon="2.976472">
<ele>947.4</ele>
<time>2013-05-08T16:18:55.000Z</time>
</trkpt>
<trkpt lat="43.719458" lon="2.976398">
<ele>947.5</ele>
<time>2013-05-08T16:18:56.000Z</time>
</trkpt>
<trkpt lat="43.719329" lon="2.976269">
<ele>947.4</ele>
<time>2013-05-08T16:18:57.000Z</time>
</trkpt>
<trkpt lat="43.719209" lon="2.976123">
<ele>947</ele>
<time>2013-05-08T16:18:58.000Z</time>
</trkpt>
<trkpt lat="43.71911" lon="2.975923">
<ele>946.7</ele>
<time>2013-05-08T16:18:59.000Z</time>
</trkpt>
<trkpt lat="43.719005" lon="2.975695">
<ele>946.9</ele>
<time>2013-05-08T16:19:00.000Z</time>
</trkpt>
<trkpt lat="43.718909" lon="2.975454">
<ele>946.8</ele>
<time>2013-05-08T16:19:01.000Z</time>
</trkpt>
<trkpt lat="43.718823" lon="2.975209">
<ele>946.6</ele>
<time>2013-05-08T16:19:02.000Z</time>
</trkpt>
<trkpt lat="43.718757" lon="2.974959">
<ele>946.3</ele>
<time>2013-05-08T16:19:03.000Z</time>
</trkpt>
<trkpt lat="43.718684" lon="2.974725">
<ele>946</ele>
<time>2013-05-08T16:19:04.000Z</time>
</trkpt>
<trkpt lat="43.718591" lon="2.974478">
<ele>945.8</ele>
<time>2013-05-08T16:19:05.000Z</time>
</trkpt>
<trkpt lat="43.718512" lon="2.974262">
<ele>945.8</ele>
<time>2013-05-08T16:19:06.000Z</time>
</trkpt>
<trkpt lat="43.718381" lon="2.974085">
<ele>945.7</ele>
<time>2013-05-08T16:19:07.000Z</time>
</trkpt>
<trkpt lat="43.718231" lon="2.973909">
<ele>945.7</ele>
<time>2013-05-08T16:19:08.000Z</time>
</trkpt>
<trkpt lat="43.718076" lon="2.973752">
<ele>945.6</ele>
<time>2013-05-08T16:19:09.000Z</time>
</trkpt>
<trkpt lat="43.717923" lon="2.973592">
<ele>945.2</ele>
<time>2013-05-08T16:19:10.000Z</time>
</trkpt>
<trkpt lat="43.717782" lon="2.973419">
<ele>945.3</ele>
<time>2013-05-08T16:19:11.000Z</time>
</trkpt>
<trkpt lat="43.717657" lon="2.973229">
<ele>945.4</ele>
<time>2013-05-08T16:19:12.000Z</time>
</trkpt>
<trkpt lat="43.717544" lon="2.973023">
<ele>946.2</ele>
<time>2013-05-08T16:19:13.000Z</time>
</trkpt>
<trkpt lat="43.717439" lon="2.972827">
<ele>946.8</ele>
<time>2013-05-08T16:19:14.000Z</time>
</trkpt>
<trkpt lat="43.717334" lon="2.972633">
<ele>946.9</ele>
<time>2013-05-08T16:19:15.000Z</time>
</trkpt>
<trkpt lat="43.717224" lon="2.972428">
<ele>946.9</ele>
<time>2013-05-08T16:19:16.000Z</time>
</trkpt>
<trkpt lat="43.717103" lon="2.972224">
<ele>947</ele>
<time>2013-05-08T16:19:17.000Z</time>
</trkpt>
<trkpt lat="43.716978" lon="2.972023">
<ele>946.7</ele>
<time>2013-05-08T16:19:18.000Z</time>
</trkpt>
<trkpt lat="43.716833" lon="2.971835">
<ele>946.6</ele>
<time>2013-05-08T16:19:19.000Z</time>
</trkpt>
<trkpt lat="43.716675" lon="2.971647">
<ele>946.4</ele>
<time>2013-05-08T16:19:20.000Z</time>
</trkpt>
<trkpt lat="43.716509" lon="2.971448">
<ele>946.4</ele>
<time>2013-05-08T16:19:21.000Z</time>
</trkpt>
<trkpt lat="43.716336" lon="2.971247">
<ele>946.8</ele>
<time>2013-05-08T16:19:22.000Z</time>
</trkpt>
<trkpt lat="43.716166" lon="2.971054">
<ele>947.3</ele>
<time>2013-05-08T16:19:23.000Z</time>
</trkpt>
<trkpt lat="43.715993" lon="2.970853">
<ele>948.2</ele>
<time>2013-05-08T16:19:24.000Z</time>
</trkpt>
<trkpt lat="43.715821" lon="2.970657">
<ele>948.8</ele>
<time>2013-05-08T16:19:25.000Z</time>
</trkpt>
<trkpt lat="43.715636" lon="2.970474">
<ele>948.9</ele>
<time>2013-05-08T16:19:26.000Z</time>
</trkpt>
<trkpt lat="43.715434" lon="2.970301">
<ele>948.9</ele>
<time>2013-05-08T16:19:27.000Z</time>
</trkpt>
<trkpt lat="43.715223" lon="2.970141">
<ele>948.6</ele>
<time>2013-05-08T16:19:28.000Z</time>
</trkpt>
<trkpt lat="43.71501" lon="2.969993">
<ele>948</ele>
<time>2013-05-08T16:19:29.000Z</time>
</trkpt>
<trkpt lat="43.71479" lon="2.969845">
<ele>947.2</ele>
<time>2013-05-08T16:19:30.000Z</time>
</trkpt>
<trkpt lat="43.714572" lon="2.9697">
<ele>946.3</ele>
<time>2013-05-08T16:19:31.000Z</time>
</trkpt>
<trkpt lat="43.714357" lon="2.969556">
<ele>945.4</ele>
<time>2013-05-08T16:19:32.000Z</time>
</trkpt>
<trkpt lat="43.714148" lon="2.96942">
<ele>944.4</ele>
<time>2013-05-08T16:19:33.000Z</time>
</trkpt>
<trkpt lat="43.713938" lon="2.969286">
<ele>943.5</ele>
<time>2013-05-08T16:19:34.000Z</time>
</trkpt>
<trkpt lat="43.713729" lon="2.969166">
<ele>942.6</ele>
<time>2013-05-08T16:19:35.000Z</time>
</trkpt>
<trkpt lat="43.713518" lon="2.969042">
<ele>941.8</ele>
<time>2013-05-08T16:19:36.000Z</time>
</trkpt>
<trkpt lat="43.713309" lon="2.968921">
<ele>941.3</ele>
<time>2013-05-08T16:19:37.000Z</time>
</trkpt>
<trkpt lat="43.713111" lon="2.968797">
<ele>940.9</ele>
<time>2013-05-08T16:19:38.000Z</time>
</trkpt>
<trkpt lat="43.712934" lon="2.968679">
<ele>940.3</ele>
<time>2013-05-08T16:19:39.000Z</time>
</trkpt>
<trkpt lat="43.712766" lon="2.968558">
<ele>939.6</ele>
<time>2013-05-08T16:19:40.000Z</time>
</trkpt>
<trkpt lat="43.712616" lon="2.968418">
<ele>939.2</ele>
<time>2013-05-08T16:19:41.000Z</time>
</trkpt>
<trkpt lat="43.712486" lon="2.968251">
<ele>939.1</ele>
<time>2013-05-08T16:19:42.000Z</time>
</trkpt>
<trkpt lat="43.712372" lon="2.968082">
<ele>939.2</ele>
<time>2013-05-08T16:19:43.000Z</time>
</trkpt>
<trkpt lat="43.712298" lon="2.967875">
<ele>939.3</ele>
<time>2013-05-08T16:19:44.000Z</time>
</trkpt>
<trkpt lat="43.712236" lon="2.967643">
<ele>939.1</ele>
<time>2013-05-08T16:19:45.000Z</time>
</trkpt>
<trkpt lat="43.712212" lon="2.967401">
<ele>939.2</ele>
<time>2013-05-08T16:19:46.000Z</time>
</trkpt>
<trkpt lat="43.712199" lon="2.967146">
<ele>939.2</ele>
<time>2013-05-08T16:19:47.000Z</time>
</trkpt>
<trkpt lat="43.712201" lon="2.966893">
<ele>939</ele>
<time>2013-05-08T16:19:48.000Z</time>
</trkpt>
<trkpt lat="43.712224" lon="2.966652">
<ele>938.4</ele>
<time>2013-05-08T16:19:49.000Z</time>
</trkpt>
<trkpt lat="43.712274" lon="2.96641">
<ele>938.1</ele>
<time>2013-05-08T16:19:50.000Z</time>
</trkpt>
<trkpt lat="43.712317" lon="2.966193">
<ele>938.2</ele>
<time>2013-05-08T16:19:51.000Z</time>
</trkpt>
<trkpt lat="43.712346" lon="2.966">
<ele>938.4</ele>
<time>2013-05-08T16:19:52.000Z</time>
</trkpt>
<trkpt lat="43.71237" lon="2.965843">
<ele>938.2</ele>
<time>2013-05-08T16:19:53.000Z</time>
</trkpt>
<trkpt lat="43.712383" lon="2.965707">
<ele>938.2</ele>
<time>2013-05-08T16:19:54.000Z</time>
</trkpt>
<trkpt lat="43.712361" lon="2.965566">
<ele>937.7</ele>
<time>2013-05-08T16:19:55.000Z</time>
</trkpt>
<trkpt lat="43.712299" lon="2.965488">
<ele>937.4</ele>
<time>2013-05-08T16:19:56.000Z</time>
</trkpt>
<trkpt lat="43.71221" lon="2.965444">
<ele>936.8</ele>
<time>2013-05-08T16:19:57.000Z</time>
</trkpt>
<trkpt lat="43.712106" lon="2.96543">
<ele>936.3</ele>
<time>2013-05-08T16:19:58.000Z</time>
</trkpt>
<trkpt lat="43.712001" lon="2.965431">
<ele>935.7</ele>
<time>2013-05-08T16:19:59.000Z</time>
</trkpt>
<trkpt lat="43.711882" lon="2.965455">
<ele>936</ele>
<time>2013-05-08T16:20:00.000Z</time>
</trkpt>
<trkpt lat="43.711745" lon="2.965507">
<ele>936.7</ele>
<time>2013-05-08T16:20:01.000Z</time>
</trkpt>
<trkpt lat="43.711593" lon="2.965527">
<ele>937.8</ele>
<time>2013-05-08T16:20:02.000Z</time>
</trkpt>
<trkpt lat="43.711464" lon="2.965506">
<ele>938.9</ele>
<time>2013-05-08T16:20:03.000Z</time>
</trkpt>
<trkpt lat="43.711349" lon="2.965459">
<ele>939.9</ele>
<time>2013-05-08T16:20:04.000Z</time>
</trkpt>
<trkpt lat="43.711241" lon="2.965374">
<ele>940.8</ele>
<time>2013-05-08T16:20:05.000Z</time>
</trkpt>
<trkpt lat="43.711148" lon="2.965308">
<ele>940.8</ele>
<time>2013-05-08T16:20:06.000Z</time>
</trkpt>
<trkpt lat="43.711044" lon="2.965291">
<ele>940</ele>
<time>2013-05-08T16:20:07.000Z</time>
</trkpt>
<trkpt lat="43.710914" lon="2.965323">
<ele>939.4</ele>
<time>2013-05-08T16:20:08.000Z</time>
</trkpt>
<trkpt lat="43.710776" lon="2.965359">
<ele>938.8</ele>
<time>2013-05-08T16:20:09.000Z</time>
</trkpt>
<trkpt lat="43.710629" lon="2.965403">
<ele>938.3</ele>
<time>2013-05-08T16:20:10.000Z</time>
</trkpt>
<trkpt lat="43.710493" lon="2.965436">
<ele>938</ele>
<time>2013-05-08T16:20:11.000Z</time>
</trkpt>
<trkpt lat="43.710369" lon="2.965418">
<ele>937.2</ele>
<time>2013-05-08T16:20:12.000Z</time>
</trkpt>
<trkpt lat="43.710255" lon="2.965385">
<ele>937</ele>
<time>2013-05-08T16:20:13.000Z</time>
</trkpt>
<trkpt lat="43.710175" lon="2.965279">
<ele>936.8</ele>
<time>2013-05-08T16:20:14.000Z</time>
</trkpt>
<trkpt lat="43.710103" lon="2.965165">
<ele>936.7</ele>
<time>2013-05-08T16:20:15.000Z</time>
</trkpt>
<trkpt lat="43.710033" lon="2.965026">
<ele>937</ele>
<time>2013-05-08T16:20:16.000Z</time>
</trkpt>
<trkpt lat="43.710016" lon="2.964843">
<ele>937.6</ele>
<time>2013-05-08T16:20:17.000Z</time>
</trkpt>
<trkpt lat="43.710029" lon="2.964638">
<ele>937.5</ele>
<time>2013-05-08T16:20:18.000Z</time>
</trkpt>
<trkpt lat="43.710056" lon="2.964431">
<ele>937.5</ele>
<time>2013-05-08T16:20:19.000Z</time>
</trkpt>
<trkpt lat="43.710113" lon="2.964266">
<ele>937.6</ele>
<time>2013-05-08T16:20:20.000Z</time>
</trkpt>
<trkpt lat="43.710185" lon="2.964146">
<ele>937.7</ele>
<time>2013-05-08T16:20:21.000Z</time>
</trkpt>
<trkpt lat="43.710261" lon="2.964068">
<ele>937.5</ele>
<time>2013-05-08T16:20:22.000Z</time>
</trkpt>
<trkpt lat="43.710332" lon="2.964003">
<ele>936.9</ele>
<time>2013-05-08T16:20:23.000Z</time>
</trkpt>
<trkpt lat="43.710417" lon="2.963956">
<ele>936.6</ele>
<time>2013-05-08T16:20:24.000Z</time>
</trkpt>
<trkpt lat="43.710504" lon="2.963905">
<ele>935.9</ele>
<time>2013-05-08T16:20:25.000Z</time>
</trkpt>
<trkpt lat="43.710568" lon="2.96385">
<ele>935.6</ele>
<time>2013-05-08T16:20:26.000Z</time>
</trkpt>
<trkpt lat="43.710624" lon="2.963797">
<ele>935.5</ele>
<time>2013-05-08T16:20:27.000Z</time>
</trkpt>
<trkpt lat="43.710647" lon="2.96373">
<ele>935.9</ele>
<time>2013-05-08T16:20:28.000Z</time>
</trkpt>
<trkpt lat="43.710646" lon="2.963638">
<ele>935.9</ele>
<time>2013-05-08T16:20:29.000Z</time>
</trkpt>
<trkpt lat="43.710574" lon="2.963495">
<ele>936.1</ele>
<time>2013-05-08T16:20:30.000Z</time>
</trkpt>
<trkpt lat="43.710465" lon="2.963348">
<ele>936.3</ele>
<time>2013-05-08T16:20:31.000Z</time>
</trkpt>
<trkpt lat="43.710334" lon="2.963188">
<ele>936.2</ele>
<time>2013-05-08T16:20:32.000Z</time>
</trkpt>
<trkpt lat="43.71017" lon="2.963061">
<ele>936.3</ele>
<time>2013-05-08T16:20:33.000Z</time>
</trkpt>
<trkpt lat="43.710011" lon="2.962952">
<ele>935.9</ele>
<time>2013-05-08T16:20:34.000Z</time>
</trkpt>
<trkpt lat="43.709862" lon="2.962919">
<ele>935.1</ele>
<time>2013-05-08T16:20:35.000Z</time>
</trkpt>
<trkpt lat="43.709724" lon="2.962892">
<ele>935.2</ele>
<time>2013-05-08T16:20:36.000Z</time>
</trkpt>
<trkpt lat="43.709618" lon="2.962947">
<ele>935.8</ele>
<time>2013-05-08T16:20:37.000Z</time>
</trkpt>
<trkpt lat="43.70951" lon="2.963017">
<ele>936.5</ele>
<time>2013-05-08T16:20:38.000Z</time>
</trkpt>
<trkpt lat="43.70941" lon="2.963141">
<ele>937</ele>
<time>2013-05-08T16:20:39.000Z</time>
</trkpt>
<trkpt lat="43.709299" lon="2.963316">
<ele>937.4</ele>
<time>2013-05-08T16:20:40.000Z</time>
</trkpt>
<trkpt lat="43.709191" lon="2.963464">
<ele>937.8</ele>
<time>2013-05-08T16:20:41.000Z</time>
</trkpt>
<trkpt lat="43.709068" lon="2.963577">
<ele>938.2</ele>
<time>2013-05-08T16:20:42.000Z</time>
</trkpt>
<trkpt lat="43.708938" lon="2.963685">
<ele>938.8</ele>
<time>2013-05-08T16:20:43.000Z</time>
</trkpt>
<trkpt lat="43.708784" lon="2.963795">
<ele>938.7</ele>
<time>2013-05-08T16:20:44.000Z</time>
</trkpt>
<trkpt lat="43.70865" lon="2.963883">
<ele>938.5</ele>
<time>2013-05-08T16:20:45.000Z</time>
</trkpt>
<trkpt lat="43.708512" lon="2.963958">
<ele>938.9</ele>
<time>2013-05-08T16:20:46.000Z</time>
</trkpt>
<trkpt lat="43.708371" lon="2.964018">
<ele>938.9</ele>
<time>2013-05-08T16:20:47.000Z</time>
</trkpt>
<trkpt lat="43.708205" lon="2.964011">
<ele>938.3</ele>
<time>2013-05-08T16:20:48.000Z</time>
</trkpt>
<trkpt lat="43.708048" lon="2.96395">
<ele>937.9</ele>
<time>2013-05-08T16:20:49.000Z</time>
</trkpt>
<trkpt lat="43.707904" lon="2.963878">
<ele>937.3</ele>
<time>2013-05-08T16:20:50.000Z</time>
</trkpt>
<trkpt lat="43.707752" lon="2.963789">
<ele>937.5</ele>
<time>2013-05-08T16:20:51.000Z</time>
</trkpt>
<trkpt lat="43.707598" lon="2.96369">
<ele>937.4</ele>
<time>2013-05-08T16:20:52.000Z</time>
</trkpt>
<trkpt lat="43.707439" lon="2.963584">
<ele>937.5</ele>
<time>2013-05-08T16:20:53.000Z</time>
</trkpt>
<trkpt lat="43.70728" lon="2.963461">
<ele>937.2</ele>
<time>2013-05-08T16:20:54.000Z</time>
</trkpt>
<trkpt lat="43.707114" lon="2.963312">
<ele>937</ele>
<time>2013-05-08T16:20:55.000Z</time>
</trkpt>
<trkpt lat="43.706972" lon="2.963106">
<ele>936.2</ele>
<time>2013-05-08T16:20:56.000Z</time>
</trkpt>
<trkpt lat="43.706823" lon="2.962885">
<ele>935.5</ele>
<time>2013-05-08T16:20:57.000Z</time>
</trkpt>
<trkpt lat="43.706686" lon="2.962667">
<ele>935.1</ele>
<time>2013-05-08T16:20:58.000Z</time>
</trkpt>
<trkpt lat="43.70655" lon="2.962439">
<ele>935</ele>
<time>2013-05-08T16:20:59.000Z</time>
</trkpt>
<trkpt lat="43.706418" lon="2.96222">
<ele>934.5</ele>
<time>2013-05-08T16:21:00.000Z</time>
</trkpt>
<trkpt lat="43.706298" lon="2.961991">
<ele>934.2</ele>
<time>2013-05-08T16:21:01.000Z</time>
</trkpt>
<trkpt lat="43.706182" lon="2.961779">
<ele>934.4</ele>
<time>2013-05-08T16:21:02.000Z</time>
</trkpt>
<trkpt lat="43.706051" lon="2.961592">
<ele>934.9</ele>
<time>2013-05-08T16:21:03.000Z</time>
</trkpt>
<trkpt lat="43.70592" lon="2.961407">
<ele>934.9</ele>
<time>2013-05-08T16:21:04.000Z</time>
</trkpt>
<trkpt lat="43.705785" lon="2.961221">
<ele>934.7</ele>
<time>2013-05-08T16:21:05.000Z</time>
</trkpt>
<trkpt lat="43.70565" lon="2.961037">
<ele>934.7</ele>
<time>2013-05-08T16:21:06.000Z</time>
</trkpt>
<trkpt lat="43.705501" lon="2.960867">
<ele>934.4</ele>
<time>2013-05-08T16:21:07.000Z</time>
</trkpt>
<trkpt lat="43.705333" lon="2.960697">
<ele>934</ele>
<time>2013-05-08T16:21:08.000Z</time>
</trkpt>
<trkpt lat="43.705151" lon="2.960586">
<ele>933.7</ele>
<time>2013-05-08T16:21:09.000Z</time>
</trkpt>
<trkpt lat="43.704985" lon="2.960484">
<ele>932.6</ele>
<time>2013-05-08T16:21:10.000Z</time>
</trkpt>
<trkpt lat="43.70481" lon="2.960406">
<ele>931.5</ele>
<time>2013-05-08T16:21:11.000Z</time>
</trkpt>
<trkpt lat="43.704636" lon="2.960338">
<ele>930.5</ele>
<time>2013-05-08T16:21:12.000Z</time>
</trkpt>
<trkpt lat="43.704452" lon="2.960274">
<ele>929.7</ele>
<time>2013-05-08T16:21:13.000Z</time>
</trkpt>
<trkpt lat="43.70425" lon="2.960203">
<ele>929.3</ele>
<time>2013-05-08T16:21:14.000Z</time>
</trkpt>
<trkpt lat="43.704049" lon="2.960129">
<ele>928.7</ele>
<time>2013-05-08T16:21:15.000Z</time>
</trkpt>
<trkpt lat="43.70383" lon="2.960049">
<ele>928.4</ele>
<time>2013-05-08T16:21:16.000Z</time>
</trkpt>
<trkpt lat="43.703616" lon="2.959968">
<ele>928</ele>
<time>2013-05-08T16:21:17.000Z</time>
</trkpt>
<trkpt lat="43.703401" lon="2.95988">
<ele>927.5</ele>
<time>2013-05-08T16:21:18.000Z</time>
</trkpt>
<trkpt lat="43.70319" lon="2.959796">
<ele>927.2</ele>
<time>2013-05-08T16:21:19.000Z</time>
</trkpt>
<trkpt lat="43.702979" lon="2.959718">
<ele>926.9</ele>
<time>2013-05-08T16:21:20.000Z</time>
</trkpt>
<trkpt lat="43.702772" lon="2.959624">
<ele>927.1</ele>
<time>2013-05-08T16:21:21.000Z</time>
</trkpt>
<trkpt lat="43.702579" lon="2.959528">
<ele>927.2</ele>
<time>2013-05-08T16:21:22.000Z</time>
</trkpt>
<trkpt lat="43.702392" lon="2.959437">
<ele>926.9</ele>
<time>2013-05-08T16:21:23.000Z</time>
</trkpt>
<trkpt lat="43.702212" lon="2.959334">
<ele>926.9</ele>
<time>2013-05-08T16:21:24.000Z</time>
</trkpt>
<trkpt lat="43.702042" lon="2.959219">
<ele>927.2</ele>
<time>2013-05-08T16:21:25.000Z</time>
</trkpt>
<trkpt lat="43.701897" lon="2.959089">
<ele>927.3</ele>
<time>2013-05-08T16:21:26.000Z</time>
</trkpt>
<trkpt lat="43.701792" lon="2.958857">
<ele>927.4</ele>
<time>2013-05-08T16:21:27.000Z</time>
</trkpt>
<trkpt lat="43.701677" lon="2.958633">
<ele>927.9</ele>
<time>2013-05-08T16:21:28.000Z</time>
</trkpt>
<trkpt lat="43.701555" lon="2.958418">
<ele>928.5</ele>
<time>2013-05-08T16:21:29.000Z</time>
</trkpt>
<trkpt lat="43.701411" lon="2.958281">
<ele>928.8</ele>
<time>2013-05-08T16:21:30.000Z</time>
</trkpt>
<trkpt lat="43.701259" lon="2.958162">
<ele>929.3</ele>
<time>2013-05-08T16:21:31.000Z</time>
</trkpt>
<trkpt lat="43.701097" lon="2.95807">
<ele>930.3</ele>
<time>2013-05-08T16:21:32.000Z</time>
</trkpt>
<trkpt lat="43.700919" lon="2.958048">
<ele>930.7</ele>
<time>2013-05-08T16:21:33.000Z</time>
</trkpt>
<trkpt lat="43.700737" lon="2.958028">
<ele>930.9</ele>
<time>2013-05-08T16:21:34.000Z</time>
</trkpt>
<trkpt lat="43.700544" lon="2.958022">
<ele>931.4</ele>
<time>2013-05-08T16:21:35.000Z</time>
</trkpt>
<trkpt lat="43.700355" lon="2.958015">
<ele>931.9</ele>
<time>2013-05-08T16:21:36.000Z</time>
</trkpt>
<trkpt lat="43.700166" lon="2.957998">
<ele>932.8</ele>
<time>2013-05-08T16:21:37.000Z</time>
</trkpt>
<trkpt lat="43.699989" lon="2.957965">
<ele>933.6</ele>
<time>2013-05-08T16:21:38.000Z</time>
</trkpt>
<trkpt lat="43.699823" lon="2.957931">
<ele>933.9</ele>
<time>2013-05-08T16:21:39.000Z</time>
</trkpt>
<trkpt lat="43.699648" lon="2.957889">
<ele>934.2</ele>
<time>2013-05-08T16:21:40.000Z</time>
</trkpt>
<trkpt lat="43.699473" lon="2.957862">
<ele>934.6</ele>
<time>2013-05-08T16:21:40.999Z</time>
</trkpt>
<trkpt lat="43.699292" lon="2.957881">
<ele>935</ele>
<time>2013-05-08T16:21:41.999Z</time>
</trkpt>
<trkpt lat="43.699111" lon="2.957911">
<ele>935.4</ele>
<time>2013-05-08T16:21:42.999Z</time>
</trkpt>
<trkpt lat="43.698939" lon="2.957944">
<ele>935.6</ele>
<time>2013-05-08T16:21:43.999Z</time>
</trkpt>
<trkpt lat="43.698761" lon="2.957987">
<ele>935.8</ele>
<time>2013-05-08T16:21:44.999Z</time>
</trkpt>
<trkpt lat="43.698589" lon="2.958025">
<ele>935.6</ele>
<time>2013-05-08T16:21:45.999Z</time>
</trkpt>
<trkpt lat="43.698399" lon="2.958036">
<ele>935.6</ele>
<time>2013-05-08T16:21:46.999Z</time>
</trkpt>
<trkpt lat="43.698213" lon="2.958018">
<ele>935.9</ele>
<time>2013-05-08T16:21:47.999Z</time>
</trkpt>
<trkpt lat="43.698031" lon="2.957993">
<ele>936.1</ele>
<time>2013-05-08T16:21:48.999Z</time>
</trkpt>
<trkpt lat="43.697858" lon="2.957961">
<ele>936</ele>
<time>2013-05-08T16:21:49.999Z</time>
</trkpt>
<trkpt lat="43.697683" lon="2.957927">
<ele>935.8</ele>
<time>2013-05-08T16:21:50.999Z</time>
</trkpt>
<trkpt lat="43.697511" lon="2.95789">
<ele>935.4</ele>
<time>2013-05-08T16:21:51.999Z</time>
</trkpt>
<trkpt lat="43.697342" lon="2.957852">
<ele>934.9</ele>
<time>2013-05-08T16:21:52.999Z</time>
</trkpt>
<trkpt lat="43.697174" lon="2.957814">
<ele>934.1</ele>
<time>2013-05-08T16:21:53.999Z</time>
</trkpt>
<trkpt lat="43.697011" lon="2.957787">
<ele>932.9</ele>
<time>2013-05-08T16:21:54.999Z</time>
</trkpt>
<trkpt lat="43.696848" lon="2.957772">
<ele>931.7</ele>
<time>2013-05-08T16:21:55.999Z</time>
</trkpt>
<trkpt lat="43.696676" lon="2.957763">
<ele>931.1</ele>
<time>2013-05-08T16:21:56.999Z</time>
</trkpt>
<trkpt lat="43.696493" lon="2.957763">
<ele>930.8</ele>
<time>2013-05-08T16:21:57.999Z</time>
</trkpt>
<trkpt lat="43.696302" lon="2.957774">
<ele>930.5</ele>
<time>2013-05-08T16:21:58.999Z</time>
</trkpt>
<trkpt lat="43.696116" lon="2.957792">
<ele>930.1</ele>
<time>2013-05-08T16:21:59.999Z</time>
</trkpt>
<trkpt lat="43.695929" lon="2.957811">
<ele>929.3</ele>
<time>2013-05-08T16:22:00.999Z</time>
</trkpt>
<trkpt lat="43.695739" lon="2.957849">
<ele>928.1</ele>
<time>2013-05-08T16:22:01.999Z</time>
</trkpt>
<trkpt lat="43.695548" lon="2.957919">
<ele>926.7</ele>
<time>2013-05-08T16:22:02.999Z</time>
</trkpt>
<trkpt lat="43.695358" lon="2.957984">
<ele>925.7</ele>
<time>2013-05-08T16:22:03.999Z</time>
</trkpt>
<trkpt lat="43.695175" lon="2.958048">
<ele>925.1</ele>
<time>2013-05-08T16:22:04.999Z</time>
</trkpt>
<trkpt lat="43.694993" lon="2.958098">
<ele>924.9</ele>
<time>2013-05-08T16:22:05.999Z</time>
</trkpt>
<trkpt lat="43.694823" lon="2.958129">
<ele>924.7</ele>
<time>2013-05-08T16:22:06.999Z</time>
</trkpt>
<trkpt lat="43.694642" lon="2.958144">
<ele>924.8</ele>
<time>2013-05-08T16:22:07.999Z</time>
</trkpt>
<trkpt lat="43.694453" lon="2.958139">
<ele>925.2</ele>
<time>2013-05-08T16:22:08.999Z</time>
</trkpt>
<trkpt lat="43.694273" lon="2.958066">
<ele>925.4</ele>
<time>2013-05-08T16:22:09.999Z</time>
</trkpt>
<trkpt lat="43.694103" lon="2.957986">
<ele>925.7</ele>
<time>2013-05-08T16:22:10.999Z</time>
</trkpt>
<trkpt lat="43.69394" lon="2.957891">
<ele>925.2</ele>
<time>2013-05-08T16:22:11.999Z</time>
</trkpt>
<trkpt lat="43.693793" lon="2.957795">
<ele>924.4</ele>
<time>2013-05-08T16:22:12.999Z</time>
</trkpt>
<trkpt lat="43.69366" lon="2.957684">
<ele>923.4</ele>
<time>2013-05-08T16:22:13.999Z</time>
</trkpt>
<trkpt lat="43.693555" lon="2.957548">
<ele>922.3</ele>
<time>2013-05-08T16:22:14.999Z</time>
</trkpt>
<trkpt lat="43.693456" lon="2.9574">
<ele>921.6</ele>
<time>2013-05-08T16:22:15.999Z</time>
</trkpt>
<trkpt lat="43.693388" lon="2.957233">
<ele>920.6</ele>
<time>2013-05-08T16:22:16.999Z</time>
</trkpt>
<trkpt lat="43.693316" lon="2.957042">
<ele>919.6</ele>
<time>2013-05-08T16:22:17.999Z</time>
</trkpt>
<trkpt lat="43.693266" lon="2.956827">
<ele>918.9</ele>
<time>2013-05-08T16:22:18.999Z</time>
</trkpt>
<trkpt lat="43.693231" lon="2.956628">
<ele>918.1</ele>
<time>2013-05-08T16:22:19.999Z</time>
</trkpt>
<trkpt lat="43.693205" lon="2.956438">
<ele>917.3</ele>
<time>2013-05-08T16:22:20.999Z</time>
</trkpt>
<trkpt lat="43.693188" lon="2.956245">
<ele>916.5</ele>
<time>2013-05-08T16:22:21.999Z</time>
</trkpt>
<trkpt lat="43.693182" lon="2.956071">
<ele>915.8</ele>
<time>2013-05-08T16:22:22.999Z</time>
</trkpt>
<trkpt lat="43.693179" lon="2.955912">
<ele>915.4</ele>
<time>2013-05-08T16:22:23.999Z</time>
</trkpt>
<trkpt lat="43.693148" lon="2.9558">
<ele>915</ele>
<time>2013-05-08T16:22:24.999Z</time>
</trkpt>
<trkpt lat="43.693109" lon="2.955677">
<ele>915.4</ele>
<time>2013-05-08T16:22:25.999Z</time>
</trkpt>
<trkpt lat="43.693029" lon="2.95562">
<ele>914.3</ele>
<time>2013-05-08T16:22:26.999Z</time>
</trkpt>
<trkpt lat="43.692922" lon="2.955548">
<ele>912.9</ele>
<time>2013-05-08T16:22:27.999Z</time>
</trkpt>
<trkpt lat="43.692816" lon="2.955493">
<ele>911.1</ele>
<time>2013-05-08T16:22:28.999Z</time>
</trkpt>
<trkpt lat="43.692692" lon="2.955434">
<ele>909.1</ele>
<time>2013-05-08T16:22:29.999Z</time>
</trkpt>
<trkpt lat="43.692549" lon="2.955366">
<ele>907.1</ele>
<time>2013-05-08T16:22:30.999Z</time>
</trkpt>
<trkpt lat="43.69239" lon="2.955299">
<ele>905.6</ele>
<time>2013-05-08T16:22:31.999Z</time>
</trkpt>
<trkpt lat="43.6922" lon="2.955233">
<ele>904.3</ele>
<time>2013-05-08T16:22:32.999Z</time>
</trkpt>
<trkpt lat="43.692031" lon="2.955168">
<ele>903</ele>
<time>2013-05-08T16:22:33.999Z</time>
</trkpt>
<trkpt lat="43.691867" lon="2.955104">
<ele>902.1</ele>
<time>2013-05-08T16:22:34.999Z</time>
</trkpt>
<trkpt lat="43.691712" lon="2.955028">
<ele>901.1</ele>
<time>2013-05-08T16:22:35.999Z</time>
</trkpt>
<trkpt lat="43.691553" lon="2.954934">
<ele>900</ele>
<time>2013-05-08T16:22:36.999Z</time>
</trkpt>
<trkpt lat="43.691411" lon="2.954788">
<ele>899.2</ele>
<time>2013-05-08T16:22:37.999Z</time>
</trkpt>
<trkpt lat="43.691266" lon="2.954633">
<ele>898.5</ele>
<time>2013-05-08T16:22:38.999Z</time>
</trkpt>
<trkpt lat="43.691123" lon="2.954465">
<ele>898.2</ele>
<time>2013-05-08T16:22:39.999Z</time>
</trkpt>
<trkpt lat="43.690991" lon="2.954298">
<ele>897.9</ele>
<time>2013-05-08T16:22:40.999Z</time>
</trkpt>
<trkpt lat="43.690875" lon="2.954131">
<ele>897</ele>
<time>2013-05-08T16:22:41.999Z</time>
</trkpt>
<trkpt lat="43.690759" lon="2.953963">
<ele>895.8</ele>
<time>2013-05-08T16:22:42.999Z</time>
</trkpt>
<trkpt lat="43.690647" lon="2.953808">
<ele>894.5</ele>
<time>2013-05-08T16:22:43.999Z</time>
</trkpt>
<trkpt lat="43.690506" lon="2.953691">
<ele>893</ele>
<time>2013-05-08T16:22:44.999Z</time>
</trkpt>
<trkpt lat="43.690362" lon="2.953585">
<ele>891.4</ele>
<time>2013-05-08T16:22:45.999Z</time>
</trkpt>
<trkpt lat="43.690216" lon="2.953496">
<ele>889.8</ele>
<time>2013-05-08T16:22:46.999Z</time>
</trkpt>
<trkpt lat="43.69007" lon="2.953423">
<ele>888</ele>
<time>2013-05-08T16:22:47.999Z</time>
</trkpt>
<trkpt lat="43.689914" lon="2.953353">
<ele>886.4</ele>
<time>2013-05-08T16:22:48.999Z</time>
</trkpt>
<trkpt lat="43.68975" lon="2.953293">
<ele>885.3</ele>
<time>2013-05-08T16:22:49.999Z</time>
</trkpt>
<trkpt lat="43.689606" lon="2.953258">
<ele>883.9</ele>
<time>2013-05-08T16:22:50.999Z</time>
</trkpt>
<trkpt lat="43.689473" lon="2.953232">
<ele>882.3</ele>
<time>2013-05-08T16:22:51.999Z</time>
</trkpt>
<trkpt lat="43.689363" lon="2.953237">
<ele>880.5</ele>
<time>2013-05-08T16:22:52.999Z</time>
</trkpt>
<trkpt lat="43.68926" lon="2.953285">
<ele>879.1</ele>
<time>2013-05-08T16:22:53.999Z</time>
</trkpt>
<trkpt lat="43.689144" lon="2.953464">
<ele>878</ele>
<time>2013-05-08T16:22:54.999Z</time>
</trkpt>
<trkpt lat="43.689063" lon="2.953651">
<ele>876.9</ele>
<time>2013-05-08T16:22:55.999Z</time>
</trkpt>
<trkpt lat="43.689005" lon="2.953881">
<ele>876.4</ele>
<time>2013-05-08T16:22:56.999Z</time>
</trkpt>
<trkpt lat="43.68896" lon="2.954073">
<ele>876</ele>
<time>2013-05-08T16:22:57.999Z</time>
</trkpt>
<trkpt lat="43.688931" lon="2.954263">
<ele>875.4</ele>
<time>2013-05-08T16:22:58.999Z</time>
</trkpt>
<trkpt lat="43.688867" lon="2.954415">
<ele>874.8</ele>
<time>2013-05-08T16:22:59.999Z</time>
</trkpt>
<trkpt lat="43.688813" lon="2.954524">
<ele>875.1</ele>
<time>2013-05-08T16:23:00.999Z</time>
</trkpt>
<trkpt lat="43.688716" lon="2.954569">
<ele>875.1</ele>
<time>2013-05-08T16:23:01.999Z</time>
</trkpt>
<trkpt lat="43.688608" lon="2.954606">
<ele>874.9</ele>
<time>2013-05-08T16:23:02.999Z</time>
</trkpt>
<trkpt lat="43.68847" lon="2.954614">
<ele>874.5</ele>
<time>2013-05-08T16:23:03.999Z</time>
</trkpt>
<trkpt lat="43.688317" lon="2.954559">
<ele>874.7</ele>
<time>2013-05-08T16:23:04.999Z</time>
</trkpt>
<trkpt lat="43.688163" lon="2.954491">
<ele>874.3</ele>
<time>2013-05-08T16:23:05.999Z</time>
</trkpt>
<trkpt lat="43.688015" lon="2.954425">
<ele>874.3</ele>
<time>2013-05-08T16:23:06.999Z</time>
</trkpt>
<trkpt lat="43.687872" lon="2.954354">
<ele>874.2</ele>
<time>2013-05-08T16:23:07.999Z</time>
</trkpt>
<trkpt lat="43.687735" lon="2.954286">
<ele>874</ele>
<time>2013-05-08T16:23:08.999Z</time>
</trkpt>
<trkpt lat="43.687602" lon="2.954221">
<ele>872.9</ele>
<time>2013-05-08T16:23:09.999Z</time>
</trkpt>
<trkpt lat="43.687463" lon="2.954155">
<ele>872.1</ele>
<time>2013-05-08T16:23:10.999Z</time>
</trkpt>
<trkpt lat="43.687338" lon="2.954104">
<ele>871.8</ele>
<time>2013-05-08T16:23:11.999Z</time>
</trkpt>
<trkpt lat="43.687214" lon="2.954072">
<ele>871.7</ele>
<time>2013-05-08T16:23:12.999Z</time>
</trkpt>
<trkpt lat="43.687096" lon="2.954063">
<ele>871.3</ele>
<time>2013-05-08T16:23:13.999Z</time>
</trkpt>
<trkpt lat="43.686975" lon="2.954103">
<ele>870.7</ele>
<time>2013-05-08T16:23:14.999Z</time>
</trkpt>
<trkpt lat="43.686855" lon="2.954141">
<ele>869.7</ele>
<time>2013-05-08T16:23:15.999Z</time>
</trkpt>
<trkpt lat="43.686731" lon="2.954187">
<ele>869.1</ele>
<time>2013-05-08T16:23:16.999Z</time>
</trkpt>
<trkpt lat="43.686612" lon="2.954232">
<ele>868.5</ele>
<time>2013-05-08T16:23:17.999Z</time>
</trkpt>
<trkpt lat="43.686498" lon="2.95428">
<ele>868.2</ele>
<time>2013-05-08T16:23:18.999Z</time>
</trkpt>
<trkpt lat="43.686385" lon="2.954337">
<ele>868.2</ele>
<time>2013-05-08T16:23:19.999Z</time>
</trkpt>
<trkpt lat="43.686273" lon="2.954406">
<ele>868.1</ele>
<time>2013-05-08T16:23:20.999Z</time>
</trkpt>
<trkpt lat="43.686163" lon="2.95451">
<ele>868</ele>
<time>2013-05-08T16:23:21.999Z</time>
</trkpt>
<trkpt lat="43.686063" lon="2.954605">
<ele>867.9</ele>
<time>2013-05-08T16:23:22.999Z</time>
</trkpt>
<trkpt lat="43.685977" lon="2.954685">
<ele>867.6</ele>
<time>2013-05-08T16:23:23.999Z</time>
</trkpt>
<trkpt lat="43.685914" lon="2.954747">
<ele>867.3</ele>
<time>2013-05-08T16:23:24.999Z</time>
</trkpt>
<trkpt lat="43.685859" lon="2.954799">
<ele>866.1</ele>
<time>2013-05-08T16:23:25.999Z</time>
</trkpt>
<trkpt lat="43.685805" lon="2.954839">
<ele>864.8</ele>
<time>2013-05-08T16:23:26.999Z</time>
</trkpt>
<trkpt lat="43.685759" lon="2.954851">
<ele>863.1</ele>
<time>2013-05-08T16:23:27.999Z</time>
</trkpt>
<trkpt lat="43.685699" lon="2.954871">
<ele>861.2</ele>
<time>2013-05-08T16:23:28.999Z</time>
</trkpt>
<trkpt lat="43.685639" lon="2.954927">
<ele>860.2</ele>
<time>2013-05-08T16:23:29.999Z</time>
</trkpt>
<trkpt lat="43.685563" lon="2.954988">
<ele>858.8</ele>
<time>2013-05-08T16:23:30.999Z</time>
</trkpt>
<trkpt lat="43.685459" lon="2.955059">
<ele>857.5</ele>
<time>2013-05-08T16:23:31.999Z</time>
</trkpt>
<trkpt lat="43.68536" lon="2.955171">
<ele>856.9</ele>
<time>2013-05-08T16:23:32.999Z</time>
</trkpt>
<trkpt lat="43.685293" lon="2.955328">
<ele>856.5</ele>
<time>2013-05-08T16:23:33.999Z</time>
</trkpt>
<trkpt lat="43.685262" lon="2.955496">
<ele>856.1</ele>
<time>2013-05-08T16:23:34.999Z</time>
</trkpt>
<trkpt lat="43.685243" lon="2.955707">
<ele>855.7</ele>
<time>2013-05-08T16:23:35.999Z</time>
</trkpt>
<trkpt lat="43.68528" lon="2.955948">
<ele>855.4</ele>
<time>2013-05-08T16:23:36.999Z</time>
</trkpt>
<trkpt lat="43.685318" lon="2.956165">
<ele>854.7</ele>
<time>2013-05-08T16:23:37.999Z</time>
</trkpt>
<trkpt lat="43.68539" lon="2.956417">
<ele>853.5</ele>
<time>2013-05-08T16:23:38.999Z</time>
</trkpt>
<trkpt lat="43.685471" lon="2.956675">
<ele>852.6</ele>
<time>2013-05-08T16:23:39.999Z</time>
</trkpt>
<trkpt lat="43.685539" lon="2.956938">
<ele>852.6</ele>
<time>2013-05-08T16:23:40.999Z</time>
</trkpt>
<trkpt lat="43.68559" lon="2.957204">
<ele>852.9</ele>
<time>2013-05-08T16:23:41.999Z</time>
</trkpt>
<trkpt lat="43.685625" lon="2.957473">
<ele>853.2</ele>
<time>2013-05-08T16:23:42.999Z</time>
</trkpt>
<trkpt lat="43.685618" lon="2.957977">
<ele>854.3</ele>
<time>2013-05-08T16:23:44.999Z</time>
</trkpt>
<trkpt lat="43.685553" lon="2.958183">
<ele>854.9</ele>
<time>2013-05-08T16:23:45.999Z</time>
</trkpt>
<trkpt lat="43.685454" lon="2.958353">
<ele>855.6</ele>
<time>2013-05-08T16:23:46.999Z</time>
</trkpt>
<trkpt lat="43.685319" lon="2.958473">
<ele>856.2</ele>
<time>2013-05-08T16:23:47.999Z</time>
</trkpt>
<trkpt lat="43.68517" lon="2.95859">
<ele>857.4</ele>
<time>2013-05-08T16:23:48.999Z</time>
</trkpt>
<trkpt lat="43.685012" lon="2.958693">
<ele>858.5</ele>
<time>2013-05-08T16:23:49.999Z</time>
</trkpt>
<trkpt lat="43.684882" lon="2.958875">
<ele>859.5</ele>
<time>2013-05-08T16:23:50.999Z</time>
</trkpt>
<trkpt lat="43.68481" lon="2.959086">
<ele>860.1</ele>
<time>2013-05-08T16:23:51.999Z</time>
</trkpt>
<trkpt lat="43.684751" lon="2.959303">
<ele>860.5</ele>
<time>2013-05-08T16:23:52.999Z</time>
</trkpt>
<trkpt lat="43.684745" lon="2.959537">
<ele>860.6</ele>
<time>2013-05-08T16:23:53.999Z</time>
</trkpt>
<trkpt lat="43.684769" lon="2.959754">
<ele>860.2</ele>
<time>2013-05-08T16:23:54.999Z</time>
</trkpt>
<trkpt lat="43.684853" lon="2.95995">
<ele>860.1</ele>
<time>2013-05-08T16:23:55.999Z</time>
</trkpt>
<trkpt lat="43.684971" lon="2.960076">
<ele>860.6</ele>
<time>2013-05-08T16:23:56.999Z</time>
</trkpt>
<trkpt lat="43.685103" lon="2.960143">
<ele>860.9</ele>
<time>2013-05-08T16:23:57.999Z</time>
</trkpt>
<trkpt lat="43.685246" lon="2.960218">
<ele>861.1</ele>
<time>2013-05-08T16:23:58.999Z</time>
</trkpt>
<trkpt lat="43.685366" lon="2.960333">
<ele>860.8</ele>
<time>2013-05-08T16:23:59.999Z</time>
</trkpt>
<trkpt lat="43.685466" lon="2.960475">
<ele>860.3</ele>
<time>2013-05-08T16:24:00.999Z</time>
</trkpt>
<trkpt lat="43.685552" lon="2.960617">
<ele>859.5</ele>
<time>2013-05-08T16:24:01.999Z</time>
</trkpt>
<trkpt lat="43.685618" lon="2.960779">
<ele>858.3</ele>
<time>2013-05-08T16:24:02.999Z</time>
</trkpt>
<trkpt lat="43.685611" lon="2.960969">
<ele>857.6</ele>
<time>2013-05-08T16:24:03.999Z</time>
</trkpt>
<trkpt lat="43.685584" lon="2.961161">
<ele>857.7</ele>
<time>2013-05-08T16:24:04.999Z</time>
</trkpt>
<trkpt lat="43.685515" lon="2.961356">
<ele>858.2</ele>
<time>2013-05-08T16:24:05.999Z</time>
</trkpt>
<trkpt lat="43.685434" lon="2.961544">
<ele>859</ele>
<time>2013-05-08T16:24:06.999Z</time>
</trkpt>
<trkpt lat="43.685323" lon="2.961683">
<ele>859.7</ele>
<time>2013-05-08T16:24:07.999Z</time>
</trkpt>
<trkpt lat="43.685198" lon="2.961773">
<ele>860.5</ele>
<time>2013-05-08T16:24:08.999Z</time>
</trkpt>
<trkpt lat="43.68506" lon="2.961812">
<ele>861.2</ele>
<time>2013-05-08T16:24:09.999Z</time>
</trkpt>
<trkpt lat="43.684908" lon="2.961842">
<ele>861.8</ele>
<time>2013-05-08T16:24:10.999Z</time>
</trkpt>
<trkpt lat="43.684736" lon="2.961827">
<ele>862.5</ele>
<time>2013-05-08T16:24:11.999Z</time>
</trkpt>
<trkpt lat="43.684564" lon="2.961767">
<ele>862.9</ele>
<time>2013-05-08T16:24:12.999Z</time>
</trkpt>
<trkpt lat="43.684395" lon="2.961706">
<ele>863.1</ele>
<time>2013-05-08T16:24:13.999Z</time>
</trkpt>
<trkpt lat="43.684232" lon="2.961644">
<ele>863.1</ele>
<time>2013-05-08T16:24:14.999Z</time>
</trkpt>
<trkpt lat="43.684074" lon="2.961582">
<ele>862.8</ele>
<time>2013-05-08T16:24:15.999Z</time>
</trkpt>
<trkpt lat="43.683931" lon="2.961519">
<ele>862.2</ele>
<time>2013-05-08T16:24:16.999Z</time>
</trkpt>
<trkpt lat="43.68379" lon="2.961452">
<ele>861.8</ele>
<time>2013-05-08T16:24:17.999Z</time>
</trkpt>
<trkpt lat="43.683652" lon="2.961387">
<ele>861.5</ele>
<time>2013-05-08T16:24:18.999Z</time>
</trkpt>
<trkpt lat="43.683525" lon="2.961344">
<ele>861</ele>
<time>2013-05-08T16:24:19.999Z</time>
</trkpt>
<trkpt lat="43.683396" lon="2.961381">
<ele>860.1</ele>
<time>2013-05-08T16:24:20.999Z</time>
</trkpt>
<trkpt lat="43.683269" lon="2.961471">
<ele>859.5</ele>
<time>2013-05-08T16:24:21.999Z</time>
</trkpt>
<trkpt lat="43.683139" lon="2.961577">
<ele>858.9</ele>
<time>2013-05-08T16:24:22.999Z</time>
</trkpt>
<trkpt lat="43.683013" lon="2.961685">
<ele>858.1</ele>
<time>2013-05-08T16:24:23.999Z</time>
</trkpt>
<trkpt lat="43.682897" lon="2.961796">
<ele>857.1</ele>
<time>2013-05-08T16:24:24.999Z</time>
</trkpt>
<trkpt lat="43.68282" lon="2.961948">
<ele>856.1</ele>
<time>2013-05-08T16:24:25.999Z</time>
</trkpt>
<trkpt lat="43.682783" lon="2.962116">
<ele>855.5</ele>
<time>2013-05-08T16:24:26.999Z</time>
</trkpt>
<trkpt lat="43.68279" lon="2.962293">
<ele>854.2</ele>
<time>2013-05-08T16:24:27.999Z</time>
</trkpt>
<trkpt lat="43.682794" lon="2.962503">
<ele>852.8</ele>
<time>2013-05-08T16:24:28.999Z</time>
</trkpt>
<trkpt lat="43.682812" lon="2.962717">
<ele>851.6</ele>
<time>2013-05-08T16:24:29.999Z</time>
</trkpt>
<trkpt lat="43.682832" lon="2.962964">
<ele>849.8</ele>
<time>2013-05-08T16:24:30.999Z</time>
</trkpt>
<trkpt lat="43.682858" lon="2.963228">
<ele>847.6</ele>
<time>2013-05-08T16:24:31.999Z</time>
</trkpt>
<trkpt lat="43.682875" lon="2.963497">
<ele>845.9</ele>
<time>2013-05-08T16:24:32.999Z</time>
</trkpt>
<trkpt lat="43.682895" lon="2.963772">
<ele>844.3</ele>
<time>2013-05-08T16:24:33.999Z</time>
</trkpt>
<trkpt lat="43.682906" lon="2.964037">
<ele>842.6</ele>
<time>2013-05-08T16:24:34.999Z</time>
</trkpt>
<trkpt lat="43.682909" lon="2.964285">
<ele>840.8</ele>
<time>2013-05-08T16:24:35.999Z</time>
</trkpt>
<trkpt lat="43.682887" lon="2.964509">
<ele>839.5</ele>
<time>2013-05-08T16:24:36.999Z</time>
</trkpt>
<trkpt lat="43.68282" lon="2.96471">
<ele>838.3</ele>
<time>2013-05-08T16:24:37.999Z</time>
</trkpt>
<trkpt lat="43.682715" lon="2.964855">
<ele>836.8</ele>
<time>2013-05-08T16:24:38.999Z</time>
</trkpt>
<trkpt lat="43.682599" lon="2.964987">
<ele>835.7</ele>
<time>2013-05-08T16:24:39.999Z</time>
</trkpt>
<trkpt lat="43.682477" lon="2.965102">
<ele>834.3</ele>
<time>2013-05-08T16:24:40.999Z</time>
</trkpt>
<trkpt lat="43.682357" lon="2.965214">
<ele>833</ele>
<time>2013-05-08T16:24:41.999Z</time>
</trkpt>
<trkpt lat="43.68225" lon="2.965344">
<ele>832.1</ele>
<time>2013-05-08T16:24:42.999Z</time>
</trkpt>
<trkpt lat="43.682206" lon="2.965544">
<ele>831.4</ele>
<time>2013-05-08T16:24:43.999Z</time>
</trkpt>
<trkpt lat="43.682236" lon="2.965752">
<ele>830.2</ele>
<time>2013-05-08T16:24:44.999Z</time>
</trkpt>
<trkpt lat="43.682268" lon="2.965969">
<ele>828.3</ele>
<time>2013-05-08T16:24:45.999Z</time>
</trkpt>
<trkpt lat="43.682302" lon="2.966203">
<ele>826.5</ele>
<time>2013-05-08T16:24:46.999Z</time>
</trkpt>
<trkpt lat="43.682311" lon="2.966467">
<ele>824.7</ele>
<time>2013-05-08T16:24:47.999Z</time>
</trkpt>
<trkpt lat="43.682325" lon="2.966727">
<ele>822.3</ele>
<time>2013-05-08T16:24:48.999Z</time>
</trkpt>
<trkpt lat="43.682278" lon="2.966967">
<ele>819.9</ele>
<time>2013-05-08T16:24:49.999Z</time>
</trkpt>
<trkpt lat="43.68223" lon="2.967206">
<ele>817.5</ele>
<time>2013-05-08T16:24:50.999Z</time>
</trkpt>
<trkpt lat="43.6822" lon="2.967447">
<ele>815.7</ele>
<time>2013-05-08T16:24:51.999Z</time>
</trkpt>
<trkpt lat="43.682187" lon="2.967688">
<ele>814.2</ele>
<time>2013-05-08T16:24:52.999Z</time>
</trkpt>
<trkpt lat="43.682217" lon="2.967924">
<ele>812.7</ele>
<time>2013-05-08T16:24:53.999Z</time>
</trkpt>
<trkpt lat="43.682299" lon="2.968137">
<ele>810.9</ele>
<time>2013-05-08T16:24:54.999Z</time>
</trkpt>
<trkpt lat="43.682383" lon="2.968331">
<ele>809</ele>
<time>2013-05-08T16:24:55.999Z</time>
</trkpt>
<trkpt lat="43.682472" lon="2.968518">
<ele>807</ele>
<time>2013-05-08T16:24:56.999Z</time>
</trkpt>
<trkpt lat="43.682566" lon="2.96872">
<ele>805.4</ele>
<time>2013-05-08T16:24:57.999Z</time>
</trkpt>
<trkpt lat="43.682607" lon="2.968927">
<ele>803.9</ele>
<time>2013-05-08T16:24:58.999Z</time>
</trkpt>
<trkpt lat="43.682648" lon="2.969145">
<ele>802.6</ele>
<time>2013-05-08T16:24:59.999Z</time>
</trkpt>
<trkpt lat="43.682692" lon="2.969346">
<ele>801.4</ele>
<time>2013-05-08T16:25:00.999Z</time>
</trkpt>
<trkpt lat="43.682739" lon="2.969524">
<ele>800.3</ele>
<time>2013-05-08T16:25:01.999Z</time>
</trkpt>
<trkpt lat="43.68278" lon="2.969683">
<ele>799.4</ele>
<time>2013-05-08T16:25:02.999Z</time>
</trkpt>
<trkpt lat="43.682809" lon="2.969821">
<ele>798.3</ele>
<time>2013-05-08T16:25:03.999Z</time>
</trkpt>
<trkpt lat="43.682827" lon="2.969967">
<ele>797.1</ele>
<time>2013-05-08T16:25:04.999Z</time>
</trkpt>
<trkpt lat="43.682805" lon="2.97011">
<ele>795.9</ele>
<time>2013-05-08T16:25:05.999Z</time>
</trkpt>
<trkpt lat="43.682702" lon="2.970225">
<ele>794.6</ele>
<time>2013-05-08T16:25:06.999Z</time>
</trkpt>
<trkpt lat="43.682553" lon="2.970304">
<ele>793.4</ele>
<time>2013-05-08T16:25:07.999Z</time>
</trkpt>
<trkpt lat="43.682413" lon="2.97038">
<ele>791.7</ele>
<time>2013-05-08T16:25:08.999Z</time>
</trkpt>
<trkpt lat="43.682275" lon="2.970458">
<ele>790.2</ele>
<time>2013-05-08T16:25:09.999Z</time>
</trkpt>
<trkpt lat="43.682141" lon="2.970543">
<ele>788.8</ele>
<time>2013-05-08T16:25:10.999Z</time>
</trkpt>
<trkpt lat="43.682002" lon="2.970631">
<ele>787.7</ele>
<time>2013-05-08T16:25:11.999Z</time>
</trkpt>
<trkpt lat="43.681854" lon="2.970702">
<ele>786.7</ele>
<time>2013-05-08T16:25:12.999Z</time>
</trkpt>
<trkpt lat="43.681708" lon="2.970785">
<ele>785.8</ele>
<time>2013-05-08T16:25:13.999Z</time>
</trkpt>
<trkpt lat="43.681589" lon="2.970949">
<ele>785</ele>
<time>2013-05-08T16:25:14.999Z</time>
</trkpt>
<trkpt lat="43.681477" lon="2.971121">
<ele>784</ele>
<time>2013-05-08T16:25:15.999Z</time>
</trkpt>
<trkpt lat="43.681369" lon="2.971308">
<ele>782.9</ele>
<time>2013-05-08T16:25:16.999Z</time>
</trkpt>
<trkpt lat="43.681285" lon="2.971547">
<ele>781.8</ele>
<time>2013-05-08T16:25:17.999Z</time>
</trkpt>
<trkpt lat="43.681211" lon="2.971788">
<ele>780.6</ele>
<time>2013-05-08T16:25:18.999Z</time>
</trkpt>
<trkpt lat="43.681169" lon="2.972019">
<ele>778.8</ele>
<time>2013-05-08T16:25:19.999Z</time>
</trkpt>
<trkpt lat="43.681134" lon="2.972257">
<ele>776.9</ele>
<time>2013-05-08T16:25:20.999Z</time>
</trkpt>
<trkpt lat="43.681103" lon="2.972483">
<ele>775.2</ele>
<time>2013-05-08T16:25:21.999Z</time>
</trkpt>
<trkpt lat="43.681069" lon="2.972686">
<ele>773.6</ele>
<time>2013-05-08T16:25:22.999Z</time>
</trkpt>
<trkpt lat="43.680999" lon="2.972843">
<ele>772.3</ele>
<time>2013-05-08T16:25:23.999Z</time>
</trkpt>
<trkpt lat="43.680895" lon="2.972917">
<ele>771.3</ele>
<time>2013-05-08T16:25:24.999Z</time>
</trkpt>
<trkpt lat="43.680781" lon="2.972944">
<ele>770.7</ele>
<time>2013-05-08T16:25:25.999Z</time>
</trkpt>
<trkpt lat="43.680643" lon="2.972918">
<ele>769.9</ele>
<time>2013-05-08T16:25:26.999Z</time>
</trkpt>
<trkpt lat="43.680493" lon="2.972872">
<ele>769.2</ele>
<time>2013-05-08T16:25:27.999Z</time>
</trkpt>
<trkpt lat="43.680341" lon="2.972815">
<ele>768.1</ele>
<time>2013-05-08T16:25:28.999Z</time>
</trkpt>
<trkpt lat="43.680186" lon="2.97276">
<ele>766.6</ele>
<time>2013-05-08T16:25:29.999Z</time>
</trkpt>
<trkpt lat="43.680016" lon="2.972762">
<ele>764.7</ele>
<time>2013-05-08T16:25:30.999Z</time>
</trkpt>
<trkpt lat="43.67983" lon="2.972783">
<ele>763.4</ele>
<time>2013-05-08T16:25:31.999Z</time>
</trkpt>
<trkpt lat="43.679639" lon="2.972807">
<ele>762.2</ele>
<time>2013-05-08T16:25:32.999Z</time>
</trkpt>
<trkpt lat="43.679433" lon="2.972816">
<ele>760.4</ele>
<time>2013-05-08T16:25:33.999Z</time>
</trkpt>
<trkpt lat="43.679229" lon="2.972823">
<ele>758.6</ele>
<time>2013-05-08T16:25:34.999Z</time>
</trkpt>
<trkpt lat="43.679034" lon="2.972833">
<ele>756.9</ele>
<time>2013-05-08T16:25:35.999Z</time>
</trkpt>
<trkpt lat="43.678865" lon="2.972836">
<ele>755.5</ele>
<time>2013-05-08T16:25:36.999Z</time>
</trkpt>
<trkpt lat="43.678725" lon="2.972844">
<ele>753.9</ele>
<time>2013-05-08T16:25:37.999Z</time>
</trkpt>
<trkpt lat="43.678605" lon="2.972922">
<ele>752.6</ele>
<time>2013-05-08T16:25:38.999Z</time>
</trkpt>
<trkpt lat="43.678518" lon="2.973049">
<ele>751.5</ele>
<time>2013-05-08T16:25:39.999Z</time>
</trkpt>
<trkpt lat="43.678441" lon="2.973229">
<ele>750.9</ele>
<time>2013-05-08T16:25:40.999Z</time>
</trkpt>
<trkpt lat="43.678404" lon="2.973436">
<ele>749.8</ele>
<time>2013-05-08T16:25:41.999Z</time>
</trkpt>
<trkpt lat="43.678396" lon="2.973641">
<ele>748.3</ele>
<time>2013-05-08T16:25:42.999Z</time>
</trkpt>
<trkpt lat="43.678447" lon="2.973829">
<ele>746.7</ele>
<time>2013-05-08T16:25:43.999Z</time>
</trkpt>
<trkpt lat="43.678517" lon="2.973985">
<ele>744.9</ele>
<time>2013-05-08T16:25:44.999Z</time>
</trkpt>
<trkpt lat="43.678602" lon="2.974076">
<ele>743.6</ele>
<time>2013-05-08T16:25:45.999Z</time>
</trkpt>
<trkpt lat="43.678687" lon="2.974084">
<ele>742.2</ele>
<time>2013-05-08T16:25:46.999Z</time>
</trkpt>
<trkpt lat="43.678793" lon="2.973984">
<ele>741.1</ele>
<time>2013-05-08T16:25:47.999Z</time>
</trkpt>
<trkpt lat="43.67891" lon="2.973856">
<ele>739.4</ele>
<time>2013-05-08T16:25:48.999Z</time>
</trkpt>
<trkpt lat="43.679036" lon="2.973712">
<ele>737.8</ele>
<time>2013-05-08T16:25:49.999Z</time>
</trkpt>
<trkpt lat="43.67916" lon="2.973551">
<ele>736.1</ele>
<time>2013-05-08T16:25:50.999Z</time>
</trkpt>
<trkpt lat="43.679271" lon="2.973403">
<ele>734.3</ele>
<time>2013-05-08T16:25:51.999Z</time>
</trkpt>
<trkpt lat="43.679374" lon="2.973277">
<ele>732.9</ele>
<time>2013-05-08T16:25:52.999Z</time>
</trkpt>
<trkpt lat="43.679484" lon="2.973235">
<ele>732</ele>
<time>2013-05-08T16:25:53.999Z</time>
</trkpt>
<trkpt lat="43.6796" lon="2.973268">
<ele>731.3</ele>
<time>2013-05-08T16:25:54.999Z</time>
</trkpt>
<trkpt lat="43.679733" lon="2.973325">
<ele>730.8</ele>
<time>2013-05-08T16:25:55.999Z</time>
</trkpt>
<trkpt lat="43.679854" lon="2.973387">
<ele>729.4</ele>
<time>2013-05-08T16:25:56.999Z</time>
</trkpt>
<trkpt lat="43.679996" lon="2.973434">
<ele>727.7</ele>
<time>2013-05-08T16:25:57.999Z</time>
</trkpt>
<trkpt lat="43.68013" lon="2.973476">
<ele>726.2</ele>
<time>2013-05-08T16:25:58.999Z</time>
</trkpt>
<trkpt lat="43.680234" lon="2.973563">
<ele>724.3</ele>
<time>2013-05-08T16:25:59.999Z</time>
</trkpt>
<trkpt lat="43.68031" lon="2.973684">
<ele>722.4</ele>
<time>2013-05-08T16:26:00.999Z</time>
</trkpt>
<trkpt lat="43.680384" lon="2.973841">
<ele>720.4</ele>
<time>2013-05-08T16:26:01.999Z</time>
</trkpt>
<trkpt lat="43.680461" lon="2.97403">
<ele>718.8</ele>
<time>2013-05-08T16:26:02.999Z</time>
</trkpt>
<trkpt lat="43.68053" lon="2.974224">
<ele>717.7</ele>
<time>2013-05-08T16:26:03.999Z</time>
</trkpt>
<trkpt lat="43.680602" lon="2.974425">
<ele>716.6</ele>
<time>2013-05-08T16:26:04.999Z</time>
</trkpt>
<trkpt lat="43.680684" lon="2.974616">
<ele>715.7</ele>
<time>2013-05-08T16:26:05.999Z</time>
</trkpt>
<trkpt lat="43.68081" lon="2.974795">
<ele>714.4</ele>
<time>2013-05-08T16:26:06.999Z</time>
</trkpt>
<trkpt lat="43.680937" lon="2.974987">
<ele>713.2</ele>
<time>2013-05-08T16:26:07.999Z</time>
</trkpt>
<trkpt lat="43.68106" lon="2.975204">
<ele>712.1</ele>
<time>2013-05-08T16:26:08.999Z</time>
</trkpt>
<trkpt lat="43.681176" lon="2.975433">
<ele>710.9</ele>
<time>2013-05-08T16:26:09.999Z</time>
</trkpt>
<trkpt lat="43.681274" lon="2.975679">
<ele>709.9</ele>
<time>2013-05-08T16:26:10.999Z</time>
</trkpt>
<trkpt lat="43.681366" lon="2.975914">
<ele>708.8</ele>
<time>2013-05-08T16:26:11.999Z</time>
</trkpt>
<trkpt lat="43.681464" lon="2.976132">
<ele>707.7</ele>
<time>2013-05-08T16:26:12.999Z</time>
</trkpt>
<trkpt lat="43.681569" lon="2.976343">
<ele>706.5</ele>
<time>2013-05-08T16:26:13.999Z</time>
</trkpt>
<trkpt lat="43.681679" lon="2.976553">
<ele>705.5</ele>
<time>2013-05-08T16:26:14.999Z</time>
</trkpt>
<trkpt lat="43.681783" lon="2.976772">
<ele>704.3</ele>
<time>2013-05-08T16:26:15.999Z</time>
</trkpt>
<trkpt lat="43.681884" lon="2.976998">
<ele>702.5</ele>
<time>2013-05-08T16:26:16.999Z</time>
</trkpt>
<trkpt lat="43.681954" lon="2.977274">
<ele>700.3</ele>
<time>2013-05-08T16:26:17.999Z</time>
</trkpt>
<trkpt lat="43.682021" lon="2.977553">
<ele>698.3</ele>
<time>2013-05-08T16:26:18.999Z</time>
</trkpt>
<trkpt lat="43.682087" lon="2.977828">
<ele>696.4</ele>
<time>2013-05-08T16:26:19.999Z</time>
</trkpt>
<trkpt lat="43.682139" lon="2.978095">
<ele>694.7</ele>
<time>2013-05-08T16:26:20.999Z</time>
</trkpt>
<trkpt lat="43.682154" lon="2.978362">
<ele>693.2</ele>
<time>2013-05-08T16:26:21.999Z</time>
</trkpt>
<trkpt lat="43.682143" lon="2.978624">
<ele>691.8</ele>
<time>2013-05-08T16:26:22.999Z</time>
</trkpt>
<trkpt lat="43.682135" lon="2.978889">
<ele>690.5</ele>
<time>2013-05-08T16:26:23.999Z</time>
</trkpt>
<trkpt lat="43.682129" lon="2.979146">
<ele>689.2</ele>
<time>2013-05-08T16:26:24.999Z</time>
</trkpt>
<trkpt lat="43.682182" lon="2.979381">
<ele>688.2</ele>
<time>2013-05-08T16:26:25.999Z</time>
</trkpt>
<trkpt lat="43.682243" lon="2.979602">
<ele>687.2</ele>
<time>2013-05-08T16:26:26.999Z</time>
</trkpt>
<trkpt lat="43.682314" lon="2.979814">
<ele>685.8</ele>
<time>2013-05-08T16:26:27.999Z</time>
</trkpt>
<trkpt lat="43.682368" lon="2.980027">
<ele>684.8</ele>
<time>2013-05-08T16:26:28.999Z</time>
</trkpt>
<trkpt lat="43.68241" lon="2.980218">
<ele>683.5</ele>
<time>2013-05-08T16:26:29.999Z</time>
</trkpt>
<trkpt lat="43.682438" lon="2.980394">
<ele>682.5</ele>
<time>2013-05-08T16:26:30.999Z</time>
</trkpt>
<trkpt lat="43.682461" lon="2.980571">
<ele>681.9</ele>
<time>2013-05-08T16:26:31.999Z</time>
</trkpt>
<trkpt lat="43.682476" lon="2.980725">
<ele>681.5</ele>
<time>2013-05-08T16:26:32.999Z</time>
</trkpt>
<trkpt lat="43.682488" lon="2.980866">
<ele>680.8</ele>
<time>2013-05-08T16:26:33.999Z</time>
</trkpt>
<trkpt lat="43.682498" lon="2.98101">
<ele>680.1</ele>
<time>2013-05-08T16:26:34.999Z</time>
</trkpt>
<trkpt lat="43.682509" lon="2.981153">
<ele>679</ele>
<time>2013-05-08T16:26:35.999Z</time>
</trkpt>
<trkpt lat="43.682521" lon="2.981313">
<ele>677.8</ele>
<time>2013-05-08T16:26:36.999Z</time>
</trkpt>
<trkpt lat="43.682525" lon="2.98148">
<ele>676.6</ele>
<time>2013-05-08T16:26:37.999Z</time>
</trkpt>
<trkpt lat="43.682524" lon="2.981672">
<ele>675.6</ele>
<time>2013-05-08T16:26:38.999Z</time>
</trkpt>
<trkpt lat="43.682521" lon="2.981884">
<ele>674.9</ele>
<time>2013-05-08T16:26:39.999Z</time>
</trkpt>
<trkpt lat="43.682509" lon="2.982089">
<ele>674.4</ele>
<time>2013-05-08T16:26:40.999Z</time>
</trkpt>
<trkpt lat="43.682463" lon="2.982285">
<ele>673.7</ele>
<time>2013-05-08T16:26:41.999Z</time>
</trkpt>
<trkpt lat="43.682379" lon="2.982453">
<ele>673.1</ele>
<time>2013-05-08T16:26:42.999Z</time>
</trkpt>
<trkpt lat="43.682263" lon="2.982598">
<ele>672.8</ele>
<time>2013-05-08T16:26:43.999Z</time>
</trkpt>
<trkpt lat="43.682154" lon="2.982727">
<ele>672.6</ele>
<time>2013-05-08T16:26:44.999Z</time>
</trkpt>
<trkpt lat="43.682054" lon="2.98286">
<ele>672.6</ele>
<time>2013-05-08T16:26:45.999Z</time>
</trkpt>
<trkpt lat="43.682003" lon="2.983033">
<ele>672.9</ele>
<time>2013-05-08T16:26:46.999Z</time>
</trkpt>
<trkpt lat="43.681963" lon="2.983202">
<ele>673.2</ele>
<time>2013-05-08T16:26:47.999Z</time>
</trkpt>
<trkpt lat="43.681915" lon="2.983395">
<ele>673.3</ele>
<time>2013-05-08T16:26:48.999Z</time>
</trkpt>
<trkpt lat="43.681829" lon="2.983563">
<ele>673.3</ele>
<time>2013-05-08T16:26:49.999Z</time>
</trkpt>
<trkpt lat="43.681706" lon="2.983707">
<ele>673.7</ele>
<time>2013-05-08T16:26:50.999Z</time>
</trkpt>
<trkpt lat="43.681577" lon="2.983851">
<ele>673.9</ele>
<time>2013-05-08T16:26:51.999Z</time>
</trkpt>
<trkpt lat="43.681453" lon="2.98399">
<ele>673.8</ele>
<time>2013-05-08T16:26:52.999Z</time>
</trkpt>
<trkpt lat="43.681332" lon="2.98411">
<ele>673.7</ele>
<time>2013-05-08T16:26:53.999Z</time>
</trkpt>
<trkpt lat="43.681203" lon="2.984188">
<ele>673.9</ele>
<time>2013-05-08T16:26:54.999Z</time>
</trkpt>
<trkpt lat="43.681052" lon="2.984137">
<ele>673.5</ele>
<time>2013-05-08T16:26:55.999Z</time>
</trkpt>
<trkpt lat="43.680899" lon="2.984027">
<ele>673</ele>
<time>2013-05-08T16:26:56.999Z</time>
</trkpt>
<trkpt lat="43.680723" lon="2.983895">
<ele>672.7</ele>
<time>2013-05-08T16:26:57.999Z</time>
</trkpt>
<trkpt lat="43.680532" lon="2.983758">
<ele>672</ele>
<time>2013-05-08T16:26:58.999Z</time>
</trkpt>
<trkpt lat="43.680346" lon="2.983625">
<ele>671.3</ele>
<time>2013-05-08T16:26:59.999Z</time>
</trkpt>
<trkpt lat="43.680166" lon="2.983493">
<ele>670.9</ele>
<time>2013-05-08T16:27:00.999Z</time>
</trkpt>
<trkpt lat="43.680009" lon="2.983375">
<ele>670.3</ele>
<time>2013-05-08T16:27:01.999Z</time>
</trkpt>
<trkpt lat="43.679868" lon="2.983289">
<ele>669.2</ele>
<time>2013-05-08T16:27:02.999Z</time>
</trkpt>
<trkpt lat="43.679737" lon="2.983277">
<ele>668.5</ele>
<time>2013-05-08T16:27:03.999Z</time>
</trkpt>
<trkpt lat="43.679625" lon="2.983326">
<ele>668.2</ele>
<time>2013-05-08T16:27:04.999Z</time>
</trkpt>
<trkpt lat="43.679517" lon="2.9834">
<ele>668</ele>
<time>2013-05-08T16:27:05.999Z</time>
</trkpt>
<trkpt lat="43.679421" lon="2.983574">
<ele>667.5</ele>
<time>2013-05-08T16:27:06.999Z</time>
</trkpt>
<trkpt lat="43.679321" lon="2.98375">
<ele>667.1</ele>
<time>2013-05-08T16:27:07.999Z</time>
</trkpt>
<trkpt lat="43.679221" lon="2.983928">
<ele>666.8</ele>
<time>2013-05-08T16:27:08.999Z</time>
</trkpt>
<trkpt lat="43.679124" lon="2.984124">
<ele>666.7</ele>
<time>2013-05-08T16:27:09.999Z</time>
</trkpt>
<trkpt lat="43.679069" lon="2.984367">
<ele>666.4</ele>
<time>2013-05-08T16:27:10.999Z</time>
</trkpt>
<trkpt lat="43.679014" lon="2.984609">
<ele>666.2</ele>
<time>2013-05-08T16:27:11.999Z</time>
</trkpt>
<trkpt lat="43.678966" lon="2.984825">
<ele>665.9</ele>
<time>2013-05-08T16:27:12.999Z</time>
</trkpt>
<trkpt lat="43.678918" lon="2.985036">
<ele>665.4</ele>
<time>2013-05-08T16:27:13.999Z</time>
</trkpt>
<trkpt lat="43.678862" lon="2.985237">
<ele>665.1</ele>
<time>2013-05-08T16:27:14.999Z</time>
</trkpt>
<trkpt lat="43.678806" lon="2.985424">
<ele>664.5</ele>
<time>2013-05-08T16:27:15.999Z</time>
</trkpt>
<trkpt lat="43.678706" lon="2.985594">
<ele>664</ele>
<time>2013-05-08T16:27:16.999Z</time>
</trkpt>
<trkpt lat="43.678588" lon="2.985724">
<ele>663.5</ele>
<time>2013-05-08T16:27:17.999Z</time>
</trkpt>
<trkpt lat="43.678462" lon="2.985766">
<ele>662.9</ele>
<time>2013-05-08T16:27:18.999Z</time>
</trkpt>
<trkpt lat="43.678318" lon="2.985759">
<ele>662.9</ele>
<time>2013-05-08T16:27:19.999Z</time>
</trkpt>
<trkpt lat="43.678172" lon="2.98574">
<ele>663.1</ele>
<time>2013-05-08T16:27:20.999Z</time>
</trkpt>
<trkpt lat="43.678024" lon="2.985728">
<ele>662.5</ele>
<time>2013-05-08T16:27:21.999Z</time>
</trkpt>
<trkpt lat="43.677866" lon="2.985806">
<ele>661.3</ele>
<time>2013-05-08T16:27:22.999Z</time>
</trkpt>
<trkpt lat="43.677704" lon="2.985895">
<ele>659.9</ele>
<time>2013-05-08T16:27:23.999Z</time>
</trkpt>
<trkpt lat="43.677545" lon="2.985985">
<ele>658.4</ele>
<time>2013-05-08T16:27:24.999Z</time>
</trkpt>
<trkpt lat="43.677382" lon="2.986084">
<ele>657.3</ele>
<time>2013-05-08T16:27:25.999Z</time>
</trkpt>
<trkpt lat="43.67722" lon="2.986186">
<ele>656.5</ele>
<time>2013-05-08T16:27:26.999Z</time>
</trkpt>
<trkpt lat="43.677081" lon="2.986291">
<ele>656.1</ele>
<time>2013-05-08T16:27:27.999Z</time>
</trkpt>
<trkpt lat="43.676967" lon="2.986458">
<ele>655.6</ele>
<time>2013-05-08T16:27:28.999Z</time>
</trkpt>
<trkpt lat="43.676876" lon="2.986638">
<ele>655</ele>
<time>2013-05-08T16:27:29.999Z</time>
</trkpt>
<trkpt lat="43.676853" lon="2.986879">
<ele>654.7</ele>
<time>2013-05-08T16:27:30.999Z</time>
</trkpt>
<trkpt lat="43.676827" lon="2.987104">
<ele>654.7</ele>
<time>2013-05-08T16:27:31.999Z</time>
</trkpt>
<trkpt lat="43.676809" lon="2.987306">
<ele>654.3</ele>
<time>2013-05-08T16:27:32.999Z</time>
</trkpt>
<trkpt lat="43.676752" lon="2.987487">
<ele>654.1</ele>
<time>2013-05-08T16:27:33.999Z</time>
</trkpt>
<trkpt lat="43.67669" lon="2.98764">
<ele>654</ele>
<time>2013-05-08T16:27:34.999Z</time>
</trkpt>
<trkpt lat="43.676577" lon="2.987705">
<ele>654</ele>
<time>2013-05-08T16:27:35.999Z</time>
</trkpt>
<trkpt lat="43.676466" lon="2.987712">
<ele>654.6</ele>
<time>2013-05-08T16:27:36.999Z</time>
</trkpt>
<trkpt lat="43.676393" lon="2.987625">
<ele>655.3</ele>
<time>2013-05-08T16:27:37.999Z</time>
</trkpt>
<trkpt lat="43.676341" lon="2.987512">
<ele>655.7</ele>
<time>2013-05-08T16:27:38.999Z</time>
</trkpt>
<trkpt lat="43.676286" lon="2.987409">
<ele>654.6</ele>
<time>2013-05-08T16:27:39.999Z</time>
</trkpt>
<trkpt lat="43.676201" lon="2.987305">
<ele>652.7</ele>
<time>2013-05-08T16:27:40.999Z</time>
</trkpt>
<trkpt lat="43.676109" lon="2.987244">
<ele>650.5</ele>
<time>2013-05-08T16:27:41.999Z</time>
</trkpt>
<trkpt lat="43.676026" lon="2.98726">
<ele>648.9</ele>
<time>2013-05-08T16:27:42.999Z</time>
</trkpt>
<trkpt lat="43.675952" lon="2.987355">
<ele>647.3</ele>
<time>2013-05-08T16:27:43.999Z</time>
</trkpt>
<trkpt lat="43.67586" lon="2.987481">
<ele>646.2</ele>
<time>2013-05-08T16:27:44.999Z</time>
</trkpt>
<trkpt lat="43.675755" lon="2.987619">
<ele>645.5</ele>
<time>2013-05-08T16:27:45.999Z</time>
</trkpt>
<trkpt lat="43.67561" lon="2.987715">
<ele>645.4</ele>
<time>2013-05-08T16:27:46.999Z</time>
</trkpt>
<trkpt lat="43.675461" lon="2.987795">
<ele>645.1</ele>
<time>2013-05-08T16:27:47.999Z</time>
</trkpt>
<trkpt lat="43.675324" lon="2.987858">
<ele>644.5</ele>
<time>2013-05-08T16:27:48.999Z</time>
</trkpt>
<trkpt lat="43.67518" lon="2.987934">
<ele>644</ele>
<time>2013-05-08T16:27:49.999Z</time>
</trkpt>
<trkpt lat="43.675054" lon="2.988081">
<ele>643.3</ele>
<time>2013-05-08T16:27:50.999Z</time>
</trkpt>
<trkpt lat="43.674929" lon="2.988248">
<ele>642.7</ele>
<time>2013-05-08T16:27:51.999Z</time>
</trkpt>
<trkpt lat="43.674798" lon="2.988429">
<ele>642.3</ele>
<time>2013-05-08T16:27:52.999Z</time>
</trkpt>
<trkpt lat="43.67468" lon="2.988608">
<ele>642.2</ele>
<time>2013-05-08T16:27:53.999Z</time>
</trkpt>
<trkpt lat="43.674615" lon="2.988818">
<ele>641.5</ele>
<time>2013-05-08T16:27:54.999Z</time>
</trkpt>
<trkpt lat="43.674563" lon="2.989042">
<ele>640.7</ele>
<time>2013-05-08T16:27:55.999Z</time>
</trkpt>
<trkpt lat="43.674511" lon="2.989246">
<ele>640</ele>
<time>2013-05-08T16:27:56.999Z</time>
</trkpt>
<trkpt lat="43.674419" lon="2.989441">
<ele>639.5</ele>
<time>2013-05-08T16:27:57.999Z</time>
</trkpt>
<trkpt lat="43.67431" lon="2.989633">
<ele>638.9</ele>
<time>2013-05-08T16:27:58.999Z</time>
</trkpt>
<trkpt lat="43.674169" lon="2.989795">
<ele>638.4</ele>
<time>2013-05-08T16:27:59.999Z</time>
</trkpt>
<trkpt lat="43.674033" lon="2.989935">
<ele>637.7</ele>
<time>2013-05-08T16:28:00.999Z</time>
</trkpt>
<trkpt lat="43.673905" lon="2.990075">
<ele>636.9</ele>
<time>2013-05-08T16:28:01.999Z</time>
</trkpt>
<trkpt lat="43.673805" lon="2.990254">
<ele>636.3</ele>
<time>2013-05-08T16:28:02.999Z</time>
</trkpt>
<trkpt lat="43.673754" lon="2.990459">
<ele>635.6</ele>
<time>2013-05-08T16:28:03.999Z</time>
</trkpt>
<trkpt lat="43.673716" lon="2.990664">
<ele>634.5</ele>
<time>2013-05-08T16:28:04.999Z</time>
</trkpt>
<trkpt lat="43.67372" lon="2.990881">
<ele>632.9</ele>
<time>2013-05-08T16:28:05.999Z</time>
</trkpt>
<trkpt lat="43.673726" lon="2.99112">
<ele>631.5</ele>
<time>2013-05-08T16:28:06.999Z</time>
</trkpt>
<trkpt lat="43.673683" lon="2.991327">
<ele>630.4</ele>
<time>2013-05-08T16:28:07.999Z</time>
</trkpt>
<trkpt lat="43.673613" lon="2.991508">
<ele>629.7</ele>
<time>2013-05-08T16:28:08.999Z</time>
</trkpt>
<trkpt lat="43.67352" lon="2.991649">
<ele>629.3</ele>
<time>2013-05-08T16:28:09.999Z</time>
</trkpt>
<trkpt lat="43.673376" lon="2.991737">
<ele>628.9</ele>
<time>2013-05-08T16:28:10.999Z</time>
</trkpt>
<trkpt lat="43.673223" lon="2.991829">
<ele>628.6</ele>
<time>2013-05-08T16:28:11.999Z</time>
</trkpt>
<trkpt lat="43.673066" lon="2.991962">
<ele>627.5</ele>
<time>2013-05-08T16:28:12.999Z</time>
</trkpt>
<trkpt lat="43.67295" lon="2.992119">
<ele>626</ele>
<time>2013-05-08T16:28:13.999Z</time>
</trkpt>
<trkpt lat="43.672842" lon="2.992297">
<ele>624.7</ele>
<time>2013-05-08T16:28:14.999Z</time>
</trkpt>
<trkpt lat="43.672745" lon="2.992505">
<ele>623.8</ele>
<time>2013-05-08T16:28:15.999Z</time>
</trkpt>
<trkpt lat="43.672708" lon="2.992747">
<ele>622.7</ele>
<time>2013-05-08T16:28:16.999Z</time>
</trkpt>
<trkpt lat="43.672686" lon="2.992971">
<ele>621.2</ele>
<time>2013-05-08T16:28:17.999Z</time>
</trkpt>
<trkpt lat="43.672712" lon="2.993198">
<ele>619.7</ele>
<time>2013-05-08T16:28:18.999Z</time>
</trkpt>
<trkpt lat="43.672736" lon="2.993431">
<ele>618.5</ele>
<time>2013-05-08T16:28:19.999Z</time>
</trkpt>
<trkpt lat="43.67271" lon="2.993638">
<ele>617.1</ele>
<time>2013-05-08T16:28:20.999Z</time>
</trkpt>
<trkpt lat="43.672628" lon="2.993816">
<ele>615.8</ele>
<time>2013-05-08T16:28:21.999Z</time>
</trkpt>
<trkpt lat="43.672534" lon="2.993988">
<ele>614.6</ele>
<time>2013-05-08T16:28:22.999Z</time>
</trkpt>
<trkpt lat="43.672403" lon="2.994128">
<ele>613.7</ele>
<time>2013-05-08T16:28:23.999Z</time>
</trkpt>
<trkpt lat="43.67226" lon="2.994251">
<ele>612.7</ele>
<time>2013-05-08T16:28:24.999Z</time>
</trkpt>
<trkpt lat="43.672096" lon="2.994314">
<ele>611.7</ele>
<time>2013-05-08T16:28:25.999Z</time>
</trkpt>
<trkpt lat="43.67194" lon="2.994366">
<ele>610.3</ele>
<time>2013-05-08T16:28:26.999Z</time>
</trkpt>
<trkpt lat="43.67179" lon="2.994414">
<ele>609.1</ele>
<time>2013-05-08T16:28:27.999Z</time>
</trkpt>
<trkpt lat="43.671666" lon="2.994495">
<ele>607.7</ele>
<time>2013-05-08T16:28:28.999Z</time>
</trkpt>
<trkpt lat="43.671595" lon="2.994636">
<ele>606</ele>
<time>2013-05-08T16:28:29.999Z</time>
</trkpt>
<trkpt lat="43.671558" lon="2.994814">
<ele>604.6</ele>
<time>2013-05-08T16:28:30.999Z</time>
</trkpt>
<trkpt lat="43.671527" lon="2.995">
<ele>603</ele>
<time>2013-05-08T16:28:31.999Z</time>
</trkpt>
<trkpt lat="43.671506" lon="2.995196">
<ele>601.2</ele>
<time>2013-05-08T16:28:32.999Z</time>
</trkpt>
<trkpt lat="43.671538" lon="2.995416">
<ele>599.7</ele>
<time>2013-05-08T16:28:33.999Z</time>
</trkpt>
<trkpt lat="43.671582" lon="2.995625">
<ele>598</ele>
<time>2013-05-08T16:28:34.999Z</time>
</trkpt>
<trkpt lat="43.671665" lon="2.995828">
<ele>596</ele>
<time>2013-05-08T16:28:35.999Z</time>
</trkpt>
<trkpt lat="43.671746" lon="2.996031">
<ele>594</ele>
<time>2013-05-08T16:28:36.999Z</time>
</trkpt>
<trkpt lat="43.67183" lon="2.996238">
<ele>592.2</ele>
<time>2013-05-08T16:28:37.999Z</time>
</trkpt>
<trkpt lat="43.671927" lon="2.996444">
<ele>590.8</ele>
<time>2013-05-08T16:28:38.999Z</time>
</trkpt>
<trkpt lat="43.672051" lon="2.996589">
<ele>589.3</ele>
<time>2013-05-08T16:28:39.999Z</time>
</trkpt>
<trkpt lat="43.672182" lon="2.996738">
<ele>587.6</ele>
<time>2013-05-08T16:28:40.999Z</time>
</trkpt>
<trkpt lat="43.6723" lon="2.996895">
<ele>585.8</ele>
<time>2013-05-08T16:28:41.999Z</time>
</trkpt>
<trkpt lat="43.67239" lon="2.997093">
<ele>583.9</ele>
<time>2013-05-08T16:28:42.999Z</time>
</trkpt>
<trkpt lat="43.672476" lon="2.9975">
<ele>581.5</ele>
<time>2013-05-08T16:28:44.999Z</time>
</trkpt>
<trkpt lat="43.67247" lon="2.997703">
<ele>580.5</ele>
<time>2013-05-08T16:28:45.999Z</time>
</trkpt>
<trkpt lat="43.672455" lon="2.997922">
<ele>579.1</ele>
<time>2013-05-08T16:28:46.999Z</time>
</trkpt>
<trkpt lat="43.672447" lon="2.998137">
<ele>577.7</ele>
<time>2013-05-08T16:28:47.999Z</time>
</trkpt>
<trkpt lat="43.672453" lon="2.998319">
<ele>576.2</ele>
<time>2013-05-08T16:28:48.999Z</time>
</trkpt>
<trkpt lat="43.672471" lon="2.998495">
<ele>575</ele>
<time>2013-05-08T16:28:49.999Z</time>
</trkpt>
<trkpt lat="43.672559" lon="2.998652">
<ele>574.1</ele>
<time>2013-05-08T16:28:50.999Z</time>
</trkpt>
<trkpt lat="43.672659" lon="2.998825">
<ele>572.8</ele>
<time>2013-05-08T16:28:51.999Z</time>
</trkpt>
<trkpt lat="43.67278" lon="2.998939">
<ele>572</ele>
<time>2013-05-08T16:28:52.999Z</time>
</trkpt>
<trkpt lat="43.672904" lon="2.999039">
<ele>571</ele>
<time>2013-05-08T16:28:53.999Z</time>
</trkpt>
<trkpt lat="43.673019" lon="2.999115">
<ele>570.1</ele>
<time>2013-05-08T16:28:54.999Z</time>
</trkpt>
<trkpt lat="43.673144" lon="2.999148">
<ele>569.4</ele>
<time>2013-05-08T16:28:55.999Z</time>
</trkpt>
<trkpt lat="43.67328" lon="2.999175">
<ele>568.7</ele>
<time>2013-05-08T16:28:56.999Z</time>
</trkpt>
<trkpt lat="43.673415" lon="2.999193">
<ele>568.1</ele>
<time>2013-05-08T16:28:57.999Z</time>
</trkpt>
<trkpt lat="43.673537" lon="2.999208">
<ele>567.4</ele>
<time>2013-05-08T16:28:58.999Z</time>
</trkpt>
<trkpt lat="43.673638" lon="2.999281">
<ele>566.4</ele>
<time>2013-05-08T16:28:59.999Z</time>
</trkpt>
<trkpt lat="43.67375" lon="2.999376">
<ele>565.3</ele>
<time>2013-05-08T16:29:00.999Z</time>
</trkpt>
<trkpt lat="43.673866" lon="2.999491">
<ele>564.7</ele>
<time>2013-05-08T16:29:01.999Z</time>
</trkpt>
<trkpt lat="43.673996" lon="2.999625">
<ele>563.7</ele>
<time>2013-05-08T16:29:02.999Z</time>
</trkpt>
<trkpt lat="43.67415" lon="2.999788">
<ele>562.1</ele>
<time>2013-05-08T16:29:03.999Z</time>
</trkpt>
<trkpt lat="43.674313" lon="2.999959">
<ele>560.3</ele>
<time>2013-05-08T16:29:04.999Z</time>
</trkpt>
<trkpt lat="43.674457" lon="3.0001">
<ele>558.9</ele>
<time>2013-05-08T16:29:05.999Z</time>
</trkpt>
<trkpt lat="43.674618" lon="3.000151">
<ele>557.4</ele>
<time>2013-05-08T16:29:06.999Z</time>
</trkpt>
<trkpt lat="43.674789" lon="3.000201">
<ele>556.1</ele>
<time>2013-05-08T16:29:07.999Z</time>
</trkpt>
<trkpt lat="43.674958" lon="3.000257">
<ele>554.8</ele>
<time>2013-05-08T16:29:08.999Z</time>
</trkpt>
<trkpt lat="43.675088" lon="3.000344">
<ele>553.9</ele>
<time>2013-05-08T16:29:09.999Z</time>
</trkpt>
<trkpt lat="43.675207" lon="3.000476">
<ele>552.4</ele>
<time>2013-05-08T16:29:10.999Z</time>
</trkpt>
<trkpt lat="43.675273" lon="3.000647">
<ele>551.5</ele>
<time>2013-05-08T16:29:11.999Z</time>
</trkpt>
<trkpt lat="43.675291" lon="3.000899">
<ele>550</ele>
<time>2013-05-08T16:29:12.999Z</time>
</trkpt>
<trkpt lat="43.675299" lon="3.001168">
<ele>548.5</ele>
<time>2013-05-08T16:29:13.999Z</time>
</trkpt>
<trkpt lat="43.675306" lon="3.001403">
<ele>547</ele>
<time>2013-05-08T16:29:14.999Z</time>
</trkpt>
<trkpt lat="43.67531" lon="3.001605">
<ele>545.6</ele>
<time>2013-05-08T16:29:15.999Z</time>
</trkpt>
<trkpt lat="43.675318" lon="3.001787">
<ele>544.1</ele>
<time>2013-05-08T16:29:16.999Z</time>
</trkpt>
<trkpt lat="43.675297" lon="3.001919">
<ele>542.5</ele>
<time>2013-05-08T16:29:17.999Z</time>
</trkpt>
<trkpt lat="43.675278" lon="3.002032">
<ele>541.3</ele>
<time>2013-05-08T16:29:18.999Z</time>
</trkpt>
<trkpt lat="43.675193" lon="3.002062">
<ele>540.6</ele>
<time>2013-05-08T16:29:19.999Z</time>
</trkpt>
<trkpt lat="43.675096" lon="3.002004">
<ele>540.1</ele>
<time>2013-05-08T16:29:20.999Z</time>
</trkpt>
<trkpt lat="43.675027" lon="3.001898">
<ele>540</ele>
<time>2013-05-08T16:29:21.999Z</time>
</trkpt>
<trkpt lat="43.674976" lon="3.001742">
<ele>540.2</ele>
<time>2013-05-08T16:29:22.999Z</time>
</trkpt>
<trkpt lat="43.67495" lon="3.001589">
<ele>540.5</ele>
<time>2013-05-08T16:29:23.999Z</time>
</trkpt>
<trkpt lat="43.674924" lon="3.001434">
<ele>540</ele>
<time>2013-05-08T16:29:24.999Z</time>
</trkpt>
<trkpt lat="43.674891" lon="3.00128">
<ele>539.7</ele>
<time>2013-05-08T16:29:25.999Z</time>
</trkpt>
<trkpt lat="43.674799" lon="3.001168">
<ele>538.7</ele>
<time>2013-05-08T16:29:26.999Z</time>
</trkpt>
<trkpt lat="43.674697" lon="3.001088">
<ele>537.1</ele>
<time>2013-05-08T16:29:27.999Z</time>
</trkpt>
<trkpt lat="43.674562" lon="3.001091">
<ele>535.1</ele>
<time>2013-05-08T16:29:28.999Z</time>
</trkpt>
<trkpt lat="43.674411" lon="3.001149">
<ele>533</ele>
<time>2013-05-08T16:29:29.999Z</time>
</trkpt>
<trkpt lat="43.674274" lon="3.001214">
<ele>530.9</ele>
<time>2013-05-08T16:29:30.999Z</time>
</trkpt>
<trkpt lat="43.674138" lon="3.001287">
<ele>529</ele>
<time>2013-05-08T16:29:31.999Z</time>
</trkpt>
<trkpt lat="43.67401" lon="3.001346">
<ele>527.3</ele>
<time>2013-05-08T16:29:32.999Z</time>
</trkpt>
<trkpt lat="43.673875" lon="3.001333">
<ele>525.8</ele>
<time>2013-05-08T16:29:33.999Z</time>
</trkpt>
<trkpt lat="43.673749" lon="3.001303">
<ele>524.8</ele>
<time>2013-05-08T16:29:34.999Z</time>
</trkpt>
<trkpt lat="43.673629" lon="3.001215">
<ele>523.5</ele>
<time>2013-05-08T16:29:35.999Z</time>
</trkpt>
<trkpt lat="43.673523" lon="3.001151">
<ele>521</ele>
<time>2013-05-08T16:29:36.999Z</time>
</trkpt>
<trkpt lat="43.673438" lon="3.001159">
<ele>517.8</ele>
<time>2013-05-08T16:29:37.999Z</time>
</trkpt>
<trkpt lat="43.673325" lon="3.001222">
<ele>515.8</ele>
<time>2013-05-08T16:29:38.999Z</time>
</trkpt>
<trkpt lat="43.673244" lon="3.001323">
<ele>514</ele>
<time>2013-05-08T16:29:39.999Z</time>
</trkpt>
<trkpt lat="43.673164" lon="3.001512">
<ele>512.7</ele>
<time>2013-05-08T16:29:40.999Z</time>
</trkpt>
<trkpt lat="43.673096" lon="3.001692">
<ele>511.6</ele>
<time>2013-05-08T16:29:41.999Z</time>
</trkpt>
<trkpt lat="43.673046" lon="3.001901">
<ele>510.1</ele>
<time>2013-05-08T16:29:42.999Z</time>
</trkpt>
<trkpt lat="43.672994" lon="3.002097">
<ele>508.7</ele>
<time>2013-05-08T16:29:43.999Z</time>
</trkpt>
<trkpt lat="43.672911" lon="3.002209">
<ele>507.7</ele>
<time>2013-05-08T16:29:44.999Z</time>
</trkpt>
<trkpt lat="43.672782" lon="3.002207">
<ele>507</ele>
<time>2013-05-08T16:29:45.999Z</time>
</trkpt>
<trkpt lat="43.67265" lon="3.002191">
<ele>506.7</ele>
<time>2013-05-08T16:29:46.999Z</time>
</trkpt>
<trkpt lat="43.672528" lon="3.002174">
<ele>506.5</ele>
<time>2013-05-08T16:29:47.999Z</time>
</trkpt>
<trkpt lat="43.672429" lon="3.0021">
<ele>505.8</ele>
<time>2013-05-08T16:29:48.999Z</time>
</trkpt>
<trkpt lat="43.672344" lon="3.001973">
<ele>505</ele>
<time>2013-05-08T16:29:49.999Z</time>
</trkpt>
<trkpt lat="43.672263" lon="3.00183">
<ele>504</ele>
<time>2013-05-08T16:29:50.999Z</time>
</trkpt>
<trkpt lat="43.672192" lon="3.001691">
<ele>502.8</ele>
<time>2013-05-08T16:29:51.999Z</time>
</trkpt>
<trkpt lat="43.672109" lon="3.001639">
<ele>501.3</ele>
<time>2013-05-08T16:29:52.999Z</time>
</trkpt>
<trkpt lat="43.672039" lon="3.001606">
<ele>500.3</ele>
<time>2013-05-08T16:29:53.999Z</time>
</trkpt>
<trkpt lat="43.671964" lon="3.001694">
<ele>500.7</ele>
<time>2013-05-08T16:29:54.999Z</time>
</trkpt>
<trkpt lat="43.671884" lon="3.001833">
<ele>500.4</ele>
<time>2013-05-08T16:29:55.999Z</time>
</trkpt>
<trkpt lat="43.671803" lon="3.001985">
<ele>499.1</ele>
<time>2013-05-08T16:29:56.999Z</time>
</trkpt>
<trkpt lat="43.671714" lon="3.002158">
<ele>497.1</ele>
<time>2013-05-08T16:29:57.999Z</time>
</trkpt>
<trkpt lat="43.67161" lon="3.00234">
<ele>495.4</ele>
<time>2013-05-08T16:29:58.999Z</time>
</trkpt>
<trkpt lat="43.671483" lon="3.002527">
<ele>494.2</ele>
<time>2013-05-08T16:29:59.999Z</time>
</trkpt>
<trkpt lat="43.671321" lon="3.00268">
<ele>492.4</ele>
<time>2013-05-08T16:30:00.999Z</time>
</trkpt>
<trkpt lat="43.671173" lon="3.002809">
<ele>489.7</ele>
<time>2013-05-08T16:30:01.999Z</time>
</trkpt>
<trkpt lat="43.670997" lon="3.002867">
<ele>487.3</ele>
<time>2013-05-08T16:30:02.999Z</time>
</trkpt>
<trkpt lat="43.670824" lon="3.002905">
<ele>484.9</ele>
<time>2013-05-08T16:30:03.999Z</time>
</trkpt>
<trkpt lat="43.670641" lon="3.002957">
<ele>482.9</ele>
<time>2013-05-08T16:30:04.999Z</time>
</trkpt>
<trkpt lat="43.670451" lon="3.003033">
<ele>481</ele>
<time>2013-05-08T16:30:05.999Z</time>
</trkpt>
<trkpt lat="43.670271" lon="3.003179">
<ele>479.3</ele>
<time>2013-05-08T16:30:06.999Z</time>
</trkpt>
<trkpt lat="43.670094" lon="3.00333">
<ele>477.2</ele>
<time>2013-05-08T16:30:07.999Z</time>
</trkpt>
<trkpt lat="43.669914" lon="3.003479">
<ele>475.2</ele>
<time>2013-05-08T16:30:08.999Z</time>
</trkpt>
<trkpt lat="43.669735" lon="3.003625">
<ele>473.2</ele>
<time>2013-05-08T16:30:09.999Z</time>
</trkpt>
<trkpt lat="43.669553" lon="3.003775">
<ele>471.4</ele>
<time>2013-05-08T16:30:10.999Z</time>
</trkpt>
<trkpt lat="43.66937" lon="3.003924">
<ele>469.6</ele>
<time>2013-05-08T16:30:11.999Z</time>
</trkpt>
<trkpt lat="43.669194" lon="3.004088">
<ele>467.6</ele>
<time>2013-05-08T16:30:12.999Z</time>
</trkpt>
<trkpt lat="43.669044" lon="3.004266">
<ele>465</ele>
<time>2013-05-08T16:30:13.999Z</time>
</trkpt>
<trkpt lat="43.668908" lon="3.004485">
<ele>463.6</ele>
<time>2013-05-08T16:30:14.999Z</time>
</trkpt>
<trkpt lat="43.668812" lon="3.004732">
<ele>462.6</ele>
<time>2013-05-08T16:30:15.999Z</time>
</trkpt>
<trkpt lat="43.668742" lon="3.005002">
<ele>461.3</ele>
<time>2013-05-08T16:30:16.999Z</time>
</trkpt>
<trkpt lat="43.668679" lon="3.005272">
<ele>459.4</ele>
<time>2013-05-08T16:30:17.999Z</time>
</trkpt>
<trkpt lat="43.668593" lon="3.005525">
<ele>457.1</ele>
<time>2013-05-08T16:30:18.999Z</time>
</trkpt>
<trkpt lat="43.668488" lon="3.005746">
<ele>454.6</ele>
<time>2013-05-08T16:30:19.999Z</time>
</trkpt>
<trkpt lat="43.668366" lon="3.005959">
<ele>452.4</ele>
<time>2013-05-08T16:30:20.999Z</time>
</trkpt>
<trkpt lat="43.66827" lon="3.006182">
<ele>449.9</ele>
<time>2013-05-08T16:30:21.999Z</time>
</trkpt>
<trkpt lat="43.668203" lon="3.006424">
<ele>447.6</ele>
<time>2013-05-08T16:30:22.999Z</time>
</trkpt>
<trkpt lat="43.668149" lon="3.006677">
<ele>445.7</ele>
<time>2013-05-08T16:30:23.999Z</time>
</trkpt>
<trkpt lat="43.668098" lon="3.006936">
<ele>443.6</ele>
<time>2013-05-08T16:30:24.999Z</time>
</trkpt>
<trkpt lat="43.668038" lon="3.007188">
<ele>441.2</ele>
<time>2013-05-08T16:30:25.999Z</time>
</trkpt>
<trkpt lat="43.667975" lon="3.007444">
<ele>439.2</ele>
<time>2013-05-08T16:30:26.999Z</time>
</trkpt>
<trkpt lat="43.667916" lon="3.007699">
<ele>437.4</ele>
<time>2013-05-08T16:30:27.999Z</time>
</trkpt>
<trkpt lat="43.667865" lon="3.007951">
<ele>435.4</ele>
<time>2013-05-08T16:30:28.999Z</time>
</trkpt>
<trkpt lat="43.667828" lon="3.008189">
<ele>433.4</ele>
<time>2013-05-08T16:30:29.999Z</time>
</trkpt>
<trkpt lat="43.667806" lon="3.008418">
<ele>431.2</ele>
<time>2013-05-08T16:30:30.999Z</time>
</trkpt>
<trkpt lat="43.667782" lon="3.008644">
<ele>429.2</ele>
<time>2013-05-08T16:30:31.999Z</time>
</trkpt>
<trkpt lat="43.667772" lon="3.008856">
<ele>427.2</ele>
<time>2013-05-08T16:30:32.999Z</time>
</trkpt>
<trkpt lat="43.667774" lon="3.00905">
<ele>425</ele>
<time>2013-05-08T16:30:33.999Z</time>
</trkpt>
<trkpt lat="43.667786" lon="3.009245">
<ele>423.3</ele>
<time>2013-05-08T16:30:34.999Z</time>
</trkpt>
<trkpt lat="43.667792" lon="3.009429">
<ele>421.9</ele>
<time>2013-05-08T16:30:35.999Z</time>
</trkpt>
<trkpt lat="43.667806" lon="3.009601">
<ele>420.9</ele>
<time>2013-05-08T16:30:36.999Z</time>
</trkpt>
<trkpt lat="43.667818" lon="3.009771">
<ele>419.9</ele>
<time>2013-05-08T16:30:37.999Z</time>
</trkpt>
<trkpt lat="43.667832" lon="3.009937">
<ele>418.7</ele>
<time>2013-05-08T16:30:38.999Z</time>
</trkpt>
<trkpt lat="43.667841" lon="3.010109">
<ele>417.5</ele>
<time>2013-05-08T16:30:39.999Z</time>
</trkpt>
<trkpt lat="43.667799" lon="3.010266">
<ele>416.3</ele>
<time>2013-05-08T16:30:40.999Z</time>
</trkpt>
<trkpt lat="43.667754" lon="3.010412">
<ele>415.7</ele>
<time>2013-05-08T16:30:41.999Z</time>
</trkpt>
<trkpt lat="43.6677" lon="3.010546">
<ele>415.2</ele>
<time>2013-05-08T16:30:42.999Z</time>
</trkpt>
<trkpt lat="43.667616" lon="3.010659">
<ele>415.1</ele>
<time>2013-05-08T16:30:43.999Z</time>
</trkpt>
<trkpt lat="43.667516" lon="3.010781">
<ele>415.3</ele>
<time>2013-05-08T16:30:44.999Z</time>
</trkpt>
<trkpt lat="43.66741" lon="3.010896">
<ele>415.6</ele>
<time>2013-05-08T16:30:45.999Z</time>
</trkpt>
<trkpt lat="43.667301" lon="3.011001">
<ele>416.2</ele>
<time>2013-05-08T16:30:46.999Z</time>
</trkpt>
<trkpt lat="43.667194" lon="3.011103">
<ele>416.4</ele>
<time>2013-05-08T16:30:47.999Z</time>
</trkpt>
<trkpt lat="43.667085" lon="3.011198">
<ele>416.6</ele>
<time>2013-05-08T16:30:48.999Z</time>
</trkpt>
<trkpt lat="43.666978" lon="3.011292">
<ele>416.9</ele>
<time>2013-05-08T16:30:49.999Z</time>
</trkpt>
<trkpt lat="43.666895" lon="3.011379">
<ele>416.5</ele>
<time>2013-05-08T16:30:50.999Z</time>
</trkpt>
<trkpt lat="43.666852" lon="3.01152">
<ele>416.4</ele>
<time>2013-05-08T16:30:51.999Z</time>
</trkpt>
<trkpt lat="43.666861" lon="3.011649">
<ele>416.1</ele>
<time>2013-05-08T16:30:52.999Z</time>
</trkpt>
<trkpt lat="43.666907" lon="3.011811">
<ele>416.3</ele>
<time>2013-05-08T16:30:53.999Z</time>
</trkpt>
<trkpt lat="43.666969" lon="3.011998">
<ele>416.3</ele>
<time>2013-05-08T16:30:54.999Z</time>
</trkpt>
<trkpt lat="43.667036" lon="3.012168">
<ele>416.1</ele>
<time>2013-05-08T16:30:55.999Z</time>
</trkpt>
<trkpt lat="43.667098" lon="3.012325">
<ele>415.6</ele>
<time>2013-05-08T16:30:56.999Z</time>
</trkpt>
<trkpt lat="43.667105" lon="3.012525">
<ele>415.5</ele>
<time>2013-05-08T16:30:57.999Z</time>
</trkpt>
<trkpt lat="43.667102" lon="3.01275">
<ele>415</ele>
<time>2013-05-08T16:30:58.999Z</time>
</trkpt>
<trkpt lat="43.667078" lon="3.012969">
<ele>414.7</ele>
<time>2013-05-08T16:30:59.999Z</time>
</trkpt>
<trkpt lat="43.666976" lon="3.013162">
<ele>414</ele>
<time>2013-05-08T16:31:00.999Z</time>
</trkpt>
<trkpt lat="43.666815" lon="3.013326">
<ele>413.6</ele>
<time>2013-05-08T16:31:01.999Z</time>
</trkpt>
<trkpt lat="43.666646" lon="3.013488">
<ele>413.4</ele>
<time>2013-05-08T16:31:02.999Z</time>
</trkpt>
<trkpt lat="43.666474" lon="3.013646">
<ele>413.4</ele>
<time>2013-05-08T16:31:03.999Z</time>
</trkpt>
<trkpt lat="43.666299" lon="3.013758">
<ele>413.5</ele>
<time>2013-05-08T16:31:04.999Z</time>
</trkpt>
<trkpt lat="43.666104" lon="3.013843">
<ele>414.2</ele>
<time>2013-05-08T16:31:05.999Z</time>
</trkpt>
<trkpt lat="43.665918" lon="3.013927">
<ele>415.4</ele>
<time>2013-05-08T16:31:06.999Z</time>
</trkpt>
<trkpt lat="43.665751" lon="3.014048">
<ele>415.8</ele>
<time>2013-05-08T16:31:07.999Z</time>
</trkpt>
<trkpt lat="43.665615" lon="3.014225">
<ele>416.4</ele>
<time>2013-05-08T16:31:08.999Z</time>
</trkpt>
<trkpt lat="43.66549" lon="3.014419">
<ele>416.9</ele>
<time>2013-05-08T16:31:09.999Z</time>
</trkpt>
<trkpt lat="43.665414" lon="3.014651">
<ele>417.3</ele>
<time>2013-05-08T16:31:10.999Z</time>
</trkpt>
<trkpt lat="43.665339" lon="3.01491">
<ele>417.3</ele>
<time>2013-05-08T16:31:11.999Z</time>
</trkpt>
<trkpt lat="43.665318" lon="3.015179">
<ele>416.7</ele>
<time>2013-05-08T16:31:12.999Z</time>
</trkpt>
<trkpt lat="43.665313" lon="3.015448">
<ele>415.6</ele>
<time>2013-05-08T16:31:13.999Z</time>
</trkpt>
<trkpt lat="43.665323" lon="3.015723">
<ele>415.1</ele>
<time>2013-05-08T16:31:14.999Z</time>
</trkpt>
<trkpt lat="43.665335" lon="3.015994">
<ele>414.7</ele>
<time>2013-05-08T16:31:15.999Z</time>
</trkpt>
<trkpt lat="43.665355" lon="3.016252">
<ele>414.4</ele>
<time>2013-05-08T16:31:16.999Z</time>
</trkpt>
<trkpt lat="43.665392" lon="3.016514">
<ele>414.2</ele>
<time>2013-05-08T16:31:17.999Z</time>
</trkpt>
<trkpt lat="43.665475" lon="3.016704">
<ele>414</ele>
<time>2013-05-08T16:31:18.999Z</time>
</trkpt>
<trkpt lat="43.665565" lon="3.016863">
<ele>413.6</ele>
<time>2013-05-08T16:31:19.999Z</time>
</trkpt>
<trkpt lat="43.665693" lon="3.016976">
<ele>414.1</ele>
<time>2013-05-08T16:31:20.999Z</time>
</trkpt>
<trkpt lat="43.665839" lon="3.017094">
<ele>414.4</ele>
<time>2013-05-08T16:31:21.999Z</time>
</trkpt>
<trkpt lat="43.666021" lon="3.017236">
<ele>413.9</ele>
<time>2013-05-08T16:31:22.999Z</time>
</trkpt>
<trkpt lat="43.666167" lon="3.017378">
<ele>413.3</ele>
<time>2013-05-08T16:31:23.999Z</time>
</trkpt>
<trkpt lat="43.666304" lon="3.017559">
<ele>412.8</ele>
<time>2013-05-08T16:31:24.999Z</time>
</trkpt>
<trkpt lat="43.666451" lon="3.017725">
<ele>412.6</ele>
<time>2013-05-08T16:31:25.999Z</time>
</trkpt>
<trkpt lat="43.666593" lon="3.017843">
<ele>412.9</ele>
<time>2013-05-08T16:31:26.999Z</time>
</trkpt>
<trkpt lat="43.666748" lon="3.017903">
<ele>413.3</ele>
<time>2013-05-08T16:31:27.999Z</time>
</trkpt>
<trkpt lat="43.666895" lon="3.017967">
<ele>413.9</ele>
<time>2013-05-08T16:31:28.999Z</time>
</trkpt>
<trkpt lat="43.667" lon="3.018064">
<ele>413.8</ele>
<time>2013-05-08T16:31:29.999Z</time>
</trkpt>
<trkpt lat="43.667027" lon="3.018184">
<ele>414.1</ele>
<time>2013-05-08T16:31:30.999Z</time>
</trkpt>
<trkpt lat="43.667021" lon="3.01834">
<ele>414.2</ele>
<time>2013-05-08T16:31:31.999Z</time>
</trkpt>
<trkpt lat="43.667008" lon="3.018536">
<ele>415</ele>
<time>2013-05-08T16:31:32.999Z</time>
</trkpt>
<trkpt lat="43.666977" lon="3.018768">
<ele>415.6</ele>
<time>2013-05-08T16:31:33.999Z</time>
</trkpt>
<trkpt lat="43.666932" lon="3.018998">
<ele>415.5</ele>
<time>2013-05-08T16:31:34.999Z</time>
</trkpt>
<trkpt lat="43.666833" lon="3.019193">
<ele>415.4</ele>
<time>2013-05-08T16:31:35.999Z</time>
</trkpt>
<trkpt lat="43.666703" lon="3.019342">
<ele>414.9</ele>
<time>2013-05-08T16:31:36.999Z</time>
</trkpt>
<trkpt lat="43.666569" lon="3.019489">
<ele>414.3</ele>
<time>2013-05-08T16:31:37.999Z</time>
</trkpt>
<trkpt lat="43.66643" lon="3.019627">
<ele>413.6</ele>
<time>2013-05-08T16:31:38.999Z</time>
</trkpt>
<trkpt lat="43.666284" lon="3.019764">
<ele>412.9</ele>
<time>2013-05-08T16:31:39.999Z</time>
</trkpt>
<trkpt lat="43.666143" lon="3.019899">
<ele>412.2</ele>
<time>2013-05-08T16:31:40.999Z</time>
</trkpt>
<trkpt lat="43.666015" lon="3.02004">
<ele>411.4</ele>
<time>2013-05-08T16:31:41.999Z</time>
</trkpt>
<trkpt lat="43.665894" lon="3.020193">
<ele>410.8</ele>
<time>2013-05-08T16:31:42.999Z</time>
</trkpt>
<trkpt lat="43.665769" lon="3.020352">
<ele>410.3</ele>
<time>2013-05-08T16:31:43.999Z</time>
</trkpt>
<trkpt lat="43.665636" lon="3.020498">
<ele>409.8</ele>
<time>2013-05-08T16:31:44.999Z</time>
</trkpt>
<trkpt lat="43.665472" lon="3.020594">
<ele>409.6</ele>
<time>2013-05-08T16:31:45.999Z</time>
</trkpt>
<trkpt lat="43.665285" lon="3.020656">
<ele>409.6</ele>
<time>2013-05-08T16:31:46.999Z</time>
</trkpt>
<trkpt lat="43.665089" lon="3.020711">
<ele>409.2</ele>
<time>2013-05-08T16:31:47.999Z</time>
</trkpt>
<trkpt lat="43.664899" lon="3.020755">
<ele>408.7</ele>
<time>2013-05-08T16:31:48.999Z</time>
</trkpt>
<trkpt lat="43.664738" lon="3.02082">
<ele>408.5</ele>
<time>2013-05-08T16:31:49.999Z</time>
</trkpt>
<trkpt lat="43.664602" lon="3.020944">
<ele>408.5</ele>
<time>2013-05-08T16:31:50.999Z</time>
</trkpt>
<trkpt lat="43.664493" lon="3.021124">
<ele>408.4</ele>
<time>2013-05-08T16:31:51.999Z</time>
</trkpt>
<trkpt lat="43.664394" lon="3.021313">
<ele>408.3</ele>
<time>2013-05-08T16:31:52.999Z</time>
</trkpt>
<trkpt lat="43.664333" lon="3.021544">
<ele>407.8</ele>
<time>2013-05-08T16:31:53.999Z</time>
</trkpt>
<trkpt lat="43.664271" lon="3.021767">
<ele>407.3</ele>
<time>2013-05-08T16:31:54.999Z</time>
</trkpt>
<trkpt lat="43.664178" lon="3.021973">
<ele>406.3</ele>
<time>2013-05-08T16:31:55.999Z</time>
</trkpt>
<trkpt lat="43.664081" lon="3.022186">
<ele>404.8</ele>
<time>2013-05-08T16:31:56.999Z</time>
</trkpt>
<trkpt lat="43.663974" lon="3.022421">
<ele>403.1</ele>
<time>2013-05-08T16:31:57.999Z</time>
</trkpt>
<trkpt lat="43.663871" lon="3.022667">
<ele>401.5</ele>
<time>2013-05-08T16:31:58.999Z</time>
</trkpt>
<trkpt lat="43.663764" lon="3.022922">
<ele>400.1</ele>
<time>2013-05-08T16:31:59.999Z</time>
</trkpt>
<trkpt lat="43.663662" lon="3.02317">
<ele>398.8</ele>
<time>2013-05-08T16:32:00.999Z</time>
</trkpt>
<trkpt lat="43.663537" lon="3.023408">
<ele>397.8</ele>
<time>2013-05-08T16:32:01.999Z</time>
</trkpt>
<trkpt lat="43.663407" lon="3.023634">
<ele>396.7</ele>
<time>2013-05-08T16:32:02.999Z</time>
</trkpt>
<trkpt lat="43.663253" lon="3.023855">
<ele>395.8</ele>
<time>2013-05-08T16:32:03.999Z</time>
</trkpt>
<trkpt lat="43.663101" lon="3.024078">
<ele>395.3</ele>
<time>2013-05-08T16:32:04.999Z</time>
</trkpt>
<trkpt lat="43.66296" lon="3.024289">
<ele>395</ele>
<time>2013-05-08T16:32:05.999Z</time>
</trkpt>
<trkpt lat="43.662821" lon="3.024493">
<ele>394.5</ele>
<time>2013-05-08T16:32:06.999Z</time>
</trkpt>
<trkpt lat="43.662696" lon="3.024682">
<ele>393.9</ele>
<time>2013-05-08T16:32:07.999Z</time>
</trkpt>
<trkpt lat="43.662575" lon="3.024876">
<ele>393.9</ele>
<time>2013-05-08T16:32:08.999Z</time>
</trkpt>
<trkpt lat="43.662466" lon="3.025091">
<ele>394.7</ele>
<time>2013-05-08T16:32:09.999Z</time>
</trkpt>
<trkpt lat="43.66242" lon="3.025379">
<ele>395.4</ele>
<time>2013-05-08T16:32:10.999Z</time>
</trkpt>
<trkpt lat="43.662403" lon="3.025694">
<ele>395.9</ele>
<time>2013-05-08T16:32:11.999Z</time>
</trkpt>
<trkpt lat="43.662382" lon="3.026">
<ele>395.9</ele>
<time>2013-05-08T16:32:12.999Z</time>
</trkpt>
<trkpt lat="43.662359" lon="3.026309">
<ele>396.1</ele>
<time>2013-05-08T16:32:13.999Z</time>
</trkpt>
<trkpt lat="43.662333" lon="3.026618">
<ele>396.1</ele>
<time>2013-05-08T16:32:14.999Z</time>
</trkpt>
<trkpt lat="43.662316" lon="3.026928">
<ele>395.9</ele>
<time>2013-05-08T16:32:15.999Z</time>
</trkpt>
<trkpt lat="43.662303" lon="3.02722">
<ele>395.5</ele>
<time>2013-05-08T16:32:16.999Z</time>
</trkpt>
<trkpt lat="43.662292" lon="3.027496">
<ele>394.9</ele>
<time>2013-05-08T16:32:17.999Z</time>
</trkpt>
<trkpt lat="43.66229" lon="3.027769">
<ele>394.4</ele>
<time>2013-05-08T16:32:18.999Z</time>
</trkpt>
<trkpt lat="43.66229" lon="3.028028">
<ele>393.8</ele>
<time>2013-05-08T16:32:19.999Z</time>
</trkpt>
<trkpt lat="43.662282" lon="3.028279">
<ele>393.3</ele>
<time>2013-05-08T16:32:20.999Z</time>
</trkpt>
<trkpt lat="43.662266" lon="3.02852">
<ele>392.9</ele>
<time>2013-05-08T16:32:21.999Z</time>
</trkpt>
<trkpt lat="43.662226" lon="3.028755">
<ele>392.4</ele>
<time>2013-05-08T16:32:22.999Z</time>
</trkpt>
<trkpt lat="43.66216" lon="3.028995">
<ele>391.9</ele>
<time>2013-05-08T16:32:23.999Z</time>
</trkpt>
<trkpt lat="43.66209" lon="3.02922">
<ele>391.1</ele>
<time>2013-05-08T16:32:24.999Z</time>
</trkpt>
<trkpt lat="43.662009" lon="3.029437">
<ele>391</ele>
<time>2013-05-08T16:32:25.999Z</time>
</trkpt>
<trkpt lat="43.661915" lon="3.029635">
<ele>391.4</ele>
<time>2013-05-08T16:32:26.999Z</time>
</trkpt>
<trkpt lat="43.661819" lon="3.029841">
<ele>392</ele>
<time>2013-05-08T16:32:27.999Z</time>
</trkpt>
<trkpt lat="43.661736" lon="3.030035">
<ele>391.8</ele>
<time>2013-05-08T16:32:28.999Z</time>
</trkpt>
<trkpt lat="43.661647" lon="3.030225">
<ele>391.5</ele>
<time>2013-05-08T16:32:29.999Z</time>
</trkpt>
<trkpt lat="43.66155" lon="3.03043">
<ele>391.1</ele>
<time>2013-05-08T16:32:30.999Z</time>
</trkpt>
<trkpt lat="43.661458" lon="3.030628">
<ele>390.5</ele>
<time>2013-05-08T16:32:31.999Z</time>
</trkpt>
<trkpt lat="43.661359" lon="3.030837">
<ele>390.1</ele>
<time>2013-05-08T16:32:32.999Z</time>
</trkpt>
<trkpt lat="43.661251" lon="3.031068">
<ele>389.6</ele>
<time>2013-05-08T16:32:33.999Z</time>
</trkpt>
<trkpt lat="43.661149" lon="3.031309">
<ele>389.2</ele>
<time>2013-05-08T16:32:34.999Z</time>
</trkpt>
<trkpt lat="43.661081" lon="3.031569">
<ele>388.9</ele>
<time>2013-05-08T16:32:35.999Z</time>
</trkpt>
<trkpt lat="43.661032" lon="3.031822">
<ele>388.2</ele>
<time>2013-05-08T16:32:36.999Z</time>
</trkpt>
<trkpt lat="43.66101" lon="3.032085">
<ele>387.2</ele>
<time>2013-05-08T16:32:37.999Z</time>
</trkpt>
<trkpt lat="43.661002" lon="3.032354">
<ele>386.1</ele>
<time>2013-05-08T16:32:38.999Z</time>
</trkpt>
<trkpt lat="43.661009" lon="3.032639">
<ele>385.3</ele>
<time>2013-05-08T16:32:39.999Z</time>
</trkpt>
<trkpt lat="43.661024" lon="3.032909">
<ele>384.5</ele>
<time>2013-05-08T16:32:40.999Z</time>
</trkpt>
<trkpt lat="43.661039" lon="3.033182">
<ele>383.8</ele>
<time>2013-05-08T16:32:41.999Z</time>
</trkpt>
<trkpt lat="43.661038" lon="3.033444">
<ele>383</ele>
<time>2013-05-08T16:32:42.999Z</time>
</trkpt>
<trkpt lat="43.661017" lon="3.033691">
<ele>382.2</ele>
<time>2013-05-08T16:32:43.999Z</time>
</trkpt>
<trkpt lat="43.660986" lon="3.033917">
<ele>381.5</ele>
<time>2013-05-08T16:32:44.999Z</time>
</trkpt>
<trkpt lat="43.660914" lon="3.034129">
<ele>381</ele>
<time>2013-05-08T16:32:45.999Z</time>
</trkpt>
<trkpt lat="43.660805" lon="3.034302">
<ele>380.3</ele>
<time>2013-05-08T16:32:46.999Z</time>
</trkpt>
<trkpt lat="43.660692" lon="3.034462">
<ele>379.2</ele>
<time>2013-05-08T16:32:47.999Z</time>
</trkpt>
<trkpt lat="43.660563" lon="3.034626">
<ele>378.2</ele>
<time>2013-05-08T16:32:48.999Z</time>
</trkpt>
<trkpt lat="43.660427" lon="3.03478">
<ele>377.6</ele>
<time>2013-05-08T16:32:49.999Z</time>
</trkpt>
<trkpt lat="43.660287" lon="3.034939">
<ele>377.5</ele>
<time>2013-05-08T16:32:50.999Z</time>
</trkpt>
<trkpt lat="43.660149" lon="3.035106">
<ele>377.1</ele>
<time>2013-05-08T16:32:51.999Z</time>
</trkpt>
<trkpt lat="43.660004" lon="3.035262">
<ele>376.7</ele>
<time>2013-05-08T16:32:52.999Z</time>
</trkpt>
<trkpt lat="43.659852" lon="3.035418">
<ele>376.4</ele>
<time>2013-05-08T16:32:53.999Z</time>
</trkpt>
<trkpt lat="43.659687" lon="3.03557">
<ele>376.4</ele>
<time>2013-05-08T16:32:54.999Z</time>
</trkpt>
<trkpt lat="43.659516" lon="3.035721">
<ele>376.4</ele>
<time>2013-05-08T16:32:55.999Z</time>
</trkpt>
<trkpt lat="43.659346" lon="3.035868">
<ele>377.2</ele>
<time>2013-05-08T16:32:56.999Z</time>
</trkpt>
<trkpt lat="43.659184" lon="3.03601">
<ele>378.3</ele>
<time>2013-05-08T16:32:57.999Z</time>
</trkpt>
<trkpt lat="43.659021" lon="3.036137">
<ele>379.2</ele>
<time>2013-05-08T16:32:58.999Z</time>
</trkpt>
<trkpt lat="43.658857" lon="3.03627">
<ele>380.1</ele>
<time>2013-05-08T16:32:59.999Z</time>
</trkpt>
<trkpt lat="43.65869" lon="3.036394">
<ele>380.9</ele>
<time>2013-05-08T16:33:00.999Z</time>
</trkpt>
<trkpt lat="43.658525" lon="3.036526">
<ele>381.7</ele>
<time>2013-05-08T16:33:01.999Z</time>
</trkpt>
<trkpt lat="43.658363" lon="3.03665">
<ele>381.9</ele>
<time>2013-05-08T16:33:02.999Z</time>
</trkpt>
<trkpt lat="43.658206" lon="3.036772">
<ele>382.1</ele>
<time>2013-05-08T16:33:03.999Z</time>
</trkpt>
<trkpt lat="43.658061" lon="3.036892">
<ele>382.1</ele>
<time>2013-05-08T16:33:04.999Z</time>
</trkpt>
<trkpt lat="43.657914" lon="3.037015">
<ele>382</ele>
<time>2013-05-08T16:33:05.999Z</time>
</trkpt>
<trkpt lat="43.657775" lon="3.037124">
<ele>381.7</ele>
<time>2013-05-08T16:33:06.999Z</time>
</trkpt>
<trkpt lat="43.657638" lon="3.037239">
<ele>382</ele>
<time>2013-05-08T16:33:07.999Z</time>
</trkpt>
<trkpt lat="43.657502" lon="3.037354">
<ele>382.2</ele>
<time>2013-05-08T16:33:08.999Z</time>
</trkpt>
<trkpt lat="43.657368" lon="3.037464">
<ele>382.4</ele>
<time>2013-05-08T16:33:09.999Z</time>
</trkpt>
<trkpt lat="43.657224" lon="3.037581">
<ele>382.4</ele>
<time>2013-05-08T16:33:10.999Z</time>
</trkpt>
<trkpt lat="43.657082" lon="3.037704">
<ele>382.5</ele>
<time>2013-05-08T16:33:11.999Z</time>
</trkpt>
<trkpt lat="43.656941" lon="3.037835">
<ele>382.2</ele>
<time>2013-05-08T16:33:12.999Z</time>
</trkpt>
<trkpt lat="43.656803" lon="3.037977">
<ele>382.2</ele>
<time>2013-05-08T16:33:13.999Z</time>
</trkpt>
<trkpt lat="43.656665" lon="3.038132">
<ele>382.5</ele>
<time>2013-05-08T16:33:14.999Z</time>
</trkpt>
<trkpt lat="43.656535" lon="3.03829">
<ele>382.4</ele>
<time>2013-05-08T16:33:15.999Z</time>
</trkpt>
<trkpt lat="43.65641" lon="3.03846">
<ele>382.3</ele>
<time>2013-05-08T16:33:16.999Z</time>
</trkpt>
<trkpt lat="43.656283" lon="3.038654">
<ele>382</ele>
<time>2013-05-08T16:33:17.999Z</time>
</trkpt>
<trkpt lat="43.656162" lon="3.038862">
<ele>381.7</ele>
<time>2013-05-08T16:33:18.999Z</time>
</trkpt>
<trkpt lat="43.65606" lon="3.039079">
<ele>381.6</ele>
<time>2013-05-08T16:33:19.999Z</time>
</trkpt>
<trkpt lat="43.655989" lon="3.039317">
<ele>381.7</ele>
<time>2013-05-08T16:33:20.999Z</time>
</trkpt>
<trkpt lat="43.655924" lon="3.039545">
<ele>381.8</ele>
<time>2013-05-08T16:33:21.999Z</time>
</trkpt>
<trkpt lat="43.65586" lon="3.039768">
<ele>381.8</ele>
<time>2013-05-08T16:33:22.999Z</time>
</trkpt>
<trkpt lat="43.655799" lon="3.039983">
<ele>381.4</ele>
<time>2013-05-08T16:33:23.999Z</time>
</trkpt>
<trkpt lat="43.655746" lon="3.040203">
<ele>381</ele>
<time>2013-05-08T16:33:24.999Z</time>
</trkpt>
<trkpt lat="43.655699" lon="3.040434">
<ele>380.6</ele>
<time>2013-05-08T16:33:25.999Z</time>
</trkpt>
<trkpt lat="43.65566" lon="3.040667">
<ele>380.3</ele>
<time>2013-05-08T16:33:26.999Z</time>
</trkpt>
<trkpt lat="43.655627" lon="3.040895">
<ele>379.8</ele>
<time>2013-05-08T16:33:27.999Z</time>
</trkpt>
<trkpt lat="43.655604" lon="3.041122">
<ele>379.1</ele>
<time>2013-05-08T16:33:28.999Z</time>
</trkpt>
<trkpt lat="43.655587" lon="3.04137">
<ele>378.7</ele>
<time>2013-05-08T16:33:29.999Z</time>
</trkpt>
<trkpt lat="43.65559" lon="3.041608">
<ele>377.9</ele>
<time>2013-05-08T16:33:30.999Z</time>
</trkpt>
<trkpt lat="43.655608" lon="3.041847">
<ele>377.1</ele>
<time>2013-05-08T16:33:31.999Z</time>
</trkpt>
<trkpt lat="43.65566" lon="3.042084">
<ele>375.7</ele>
<time>2013-05-08T16:33:32.999Z</time>
</trkpt>
<trkpt lat="43.655717" lon="3.042337">
<ele>374.4</ele>
<time>2013-05-08T16:33:33.999Z</time>
</trkpt>
<trkpt lat="43.655773" lon="3.042585">
<ele>373.3</ele>
<time>2013-05-08T16:33:34.999Z</time>
</trkpt>
<trkpt lat="43.655827" lon="3.042823">
<ele>372.2</ele>
<time>2013-05-08T16:33:35.999Z</time>
</trkpt>
<trkpt lat="43.655873" lon="3.04305">
<ele>371.4</ele>
<time>2013-05-08T16:33:36.999Z</time>
</trkpt>
<trkpt lat="43.655918" lon="3.043277">
<ele>370.6</ele>
<time>2013-05-08T16:33:37.999Z</time>
</trkpt>
<trkpt lat="43.655964" lon="3.0435">
<ele>369.7</ele>
<time>2013-05-08T16:33:38.999Z</time>
</trkpt>
<trkpt lat="43.656011" lon="3.043722">
<ele>369</ele>
<time>2013-05-08T16:33:39.999Z</time>
</trkpt>
<trkpt lat="43.656058" lon="3.043954">
<ele>368.7</ele>
<time>2013-05-08T16:33:40.999Z</time>
</trkpt>
<trkpt lat="43.656094" lon="3.044202">
<ele>368.7</ele>
<time>2013-05-08T16:33:41.999Z</time>
</trkpt>
<trkpt lat="43.656086" lon="3.044483">
<ele>369.2</ele>
<time>2013-05-08T16:33:42.999Z</time>
</trkpt>
<trkpt lat="43.656067" lon="3.044732">
<ele>369.8</ele>
<time>2013-05-08T16:33:43.999Z</time>
</trkpt>
<trkpt lat="43.656036" lon="3.044969">
<ele>370.4</ele>
<time>2013-05-08T16:33:44.999Z</time>
</trkpt>
<trkpt lat="43.656004" lon="3.045196">
<ele>370.9</ele>
<time>2013-05-08T16:33:45.999Z</time>
</trkpt>
<trkpt lat="43.655975" lon="3.045408">
<ele>371.2</ele>
<time>2013-05-08T16:33:46.999Z</time>
</trkpt>
<trkpt lat="43.655948" lon="3.045611">
<ele>371.4</ele>
<time>2013-05-08T16:33:47.999Z</time>
</trkpt>
<trkpt lat="43.65592" lon="3.045795">
<ele>372.1</ele>
<time>2013-05-08T16:33:48.999Z</time>
</trkpt>
<trkpt lat="43.655894" lon="3.045956">
<ele>372.9</ele>
<time>2013-05-08T16:33:49.999Z</time>
</trkpt>
<trkpt lat="43.655871" lon="3.046087">
<ele>373.4</ele>
<time>2013-05-08T16:33:50.999Z</time>
</trkpt>
<trkpt lat="43.655848" lon="3.046219">
<ele>373.8</ele>
<time>2013-05-08T16:33:51.999Z</time>
</trkpt>
<trkpt lat="43.655827" lon="3.046357">
<ele>374.1</ele>
<time>2013-05-08T16:33:52.999Z</time>
</trkpt>
<trkpt lat="43.655804" lon="3.046488">
<ele>374.5</ele>
<time>2013-05-08T16:33:53.999Z</time>
</trkpt>
<trkpt lat="43.655779" lon="3.046624">
<ele>374.7</ele>
<time>2013-05-08T16:33:54.999Z</time>
</trkpt>
<trkpt lat="43.655764" lon="3.046766">
<ele>374.8</ele>
<time>2013-05-08T16:33:55.999Z</time>
</trkpt>
<trkpt lat="43.655787" lon="3.046929">
<ele>374.8</ele>
<time>2013-05-08T16:33:56.999Z</time>
</trkpt>
<trkpt lat="43.655826" lon="3.047118">
<ele>374.7</ele>
<time>2013-05-08T16:33:57.999Z</time>
</trkpt>
<trkpt lat="43.655901" lon="3.047307">
<ele>374.5</ele>
<time>2013-05-08T16:33:58.999Z</time>
</trkpt>
<trkpt lat="43.655976" lon="3.047505">
<ele>374.5</ele>
<time>2013-05-08T16:33:59.999Z</time>
</trkpt>
<trkpt lat="43.656055" lon="3.047711">
<ele>374.4</ele>
<time>2013-05-08T16:34:00.999Z</time>
</trkpt>
<trkpt lat="43.656134" lon="3.047916">
<ele>374.2</ele>
<time>2013-05-08T16:34:01.999Z</time>
</trkpt>
<trkpt lat="43.656201" lon="3.048123">
<ele>374.1</ele>
<time>2013-05-08T16:34:02.999Z</time>
</trkpt>
<trkpt lat="43.656259" lon="3.048355">
<ele>373.9</ele>
<time>2013-05-08T16:34:03.999Z</time>
</trkpt>
<trkpt lat="43.656271" lon="3.048618">
<ele>373.3</ele>
<time>2013-05-08T16:34:04.999Z</time>
</trkpt>
<trkpt lat="43.656271" lon="3.048902">
<ele>372.1</ele>
<time>2013-05-08T16:34:05.999Z</time>
</trkpt>
<trkpt lat="43.65626" lon="3.049199">
<ele>370.8</ele>
<time>2013-05-08T16:34:06.999Z</time>
</trkpt>
<trkpt lat="43.656222" lon="3.049489">
<ele>369.9</ele>
<time>2013-05-08T16:34:07.999Z</time>
</trkpt>
<trkpt lat="43.656189" lon="3.049775">
<ele>369.2</ele>
<time>2013-05-08T16:34:08.999Z</time>
</trkpt>
<trkpt lat="43.656151" lon="3.050055">
<ele>368.6</ele>
<time>2013-05-08T16:34:09.999Z</time>
</trkpt>
<trkpt lat="43.656119" lon="3.050331">
<ele>368</ele>
<time>2013-05-08T16:34:10.999Z</time>
</trkpt>
<trkpt lat="43.656087" lon="3.050608">
<ele>367.5</ele>
<time>2013-05-08T16:34:11.999Z</time>
</trkpt>
<trkpt lat="43.656052" lon="3.050879">
<ele>367.1</ele>
<time>2013-05-08T16:34:12.999Z</time>
</trkpt>
<trkpt lat="43.656018" lon="3.051136">
<ele>366.7</ele>
<time>2013-05-08T16:34:13.999Z</time>
</trkpt>
<trkpt lat="43.656012" lon="3.05138">
<ele>366</ele>
<time>2013-05-08T16:34:14.999Z</time>
</trkpt>
<trkpt lat="43.656043" lon="3.0516">
<ele>365.6</ele>
<time>2013-05-08T16:34:15.999Z</time>
</trkpt>
<trkpt lat="43.656121" lon="3.051791">
<ele>365.7</ele>
<time>2013-05-08T16:34:16.999Z</time>
</trkpt>
<trkpt lat="43.656243" lon="3.051921">
<ele>365.8</ele>
<time>2013-05-08T16:34:17.999Z</time>
</trkpt>
<trkpt lat="43.656367" lon="3.052023">
<ele>366</ele>
<time>2013-05-08T16:34:18.999Z</time>
</trkpt>
<trkpt lat="43.656504" lon="3.052088">
<ele>366.3</ele>
<time>2013-05-08T16:34:19.999Z</time>
</trkpt>
<trkpt lat="43.656633" lon="3.052148">
<ele>366.4</ele>
<time>2013-05-08T16:34:20.999Z</time>
</trkpt>
<trkpt lat="43.656754" lon="3.052256">
<ele>366</ele>
<time>2013-05-08T16:34:21.999Z</time>
</trkpt>
<trkpt lat="43.656842" lon="3.052375">
<ele>365.1</ele>
<time>2013-05-08T16:34:22.999Z</time>
</trkpt>
<trkpt lat="43.656912" lon="3.052497">
<ele>364.4</ele>
<time>2013-05-08T16:34:23.999Z</time>
</trkpt>
<trkpt lat="43.656934" lon="3.052704">
<ele>364.1</ele>
<time>2013-05-08T16:34:24.999Z</time>
</trkpt>
<trkpt lat="43.656946" lon="3.052976">
<ele>364</ele>
<time>2013-05-08T16:34:25.999Z</time>
</trkpt>
<trkpt lat="43.656965" lon="3.053248">
<ele>363.8</ele>
<time>2013-05-08T16:34:26.999Z</time>
</trkpt>
<trkpt lat="43.656984" lon="3.053513">
<ele>364.1</ele>
<time>2013-05-08T16:34:27.999Z</time>
</trkpt>
<trkpt lat="43.657007" lon="3.053763">
<ele>364.2</ele>
<time>2013-05-08T16:34:28.999Z</time>
</trkpt>
<trkpt lat="43.657046" lon="3.054">
<ele>363.9</ele>
<time>2013-05-08T16:34:29.999Z</time>
</trkpt>
<trkpt lat="43.657095" lon="3.054229">
<ele>363.8</ele>
<time>2013-05-08T16:34:30.999Z</time>
</trkpt>
<trkpt lat="43.657181" lon="3.054435">
<ele>363.7</ele>
<time>2013-05-08T16:34:31.999Z</time>
</trkpt>
<trkpt lat="43.657263" lon="3.054631">
<ele>363.6</ele>
<time>2013-05-08T16:34:32.999Z</time>
</trkpt>
<trkpt lat="43.657349" lon="3.054814">
<ele>363.4</ele>
<time>2013-05-08T16:34:33.999Z</time>
</trkpt>
<trkpt lat="43.657439" lon="3.054978">
<ele>363.4</ele>
<time>2013-05-08T16:34:34.999Z</time>
</trkpt>
<trkpt lat="43.657563" lon="3.055079">
<ele>363.5</ele>
<time>2013-05-08T16:34:35.999Z</time>
</trkpt>
<trkpt lat="43.657701" lon="3.055176">
<ele>363.9</ele>
<time>2013-05-08T16:34:36.999Z</time>
</trkpt>
<trkpt lat="43.65785" lon="3.055239">
<ele>364.3</ele>
<time>2013-05-08T16:34:37.999Z</time>
</trkpt>
<trkpt lat="43.658038" lon="3.055269">
<ele>364.7</ele>
<time>2013-05-08T16:34:38.999Z</time>
</trkpt>
<trkpt lat="43.658233" lon="3.055299">
<ele>365</ele>
<time>2013-05-08T16:34:39.999Z</time>
</trkpt>
<trkpt lat="43.658437" lon="3.055323">
<ele>365.1</ele>
<time>2013-05-08T16:34:40.999Z</time>
</trkpt>
<trkpt lat="43.658654" lon="3.055337">
<ele>364.6</ele>
<time>2013-05-08T16:34:41.999Z</time>
</trkpt>
<trkpt lat="43.658861" lon="3.055353">
<ele>364</ele>
<time>2013-05-08T16:34:42.999Z</time>
</trkpt>
<trkpt lat="43.659057" lon="3.055337">
<ele>363.3</ele>
<time>2013-05-08T16:34:43.999Z</time>
</trkpt>
<trkpt lat="43.659255" lon="3.055303">
<ele>362.6</ele>
<time>2013-05-08T16:34:44.999Z</time>
</trkpt>
<trkpt lat="43.659435" lon="3.055226">
<ele>362.5</ele>
<time>2013-05-08T16:34:45.999Z</time>
</trkpt>
<trkpt lat="43.659614" lon="3.055136">
<ele>362.4</ele>
<time>2013-05-08T16:34:46.999Z</time>
</trkpt>
<trkpt lat="43.659771" lon="3.055047">
<ele>362.1</ele>
<time>2013-05-08T16:34:47.999Z</time>
</trkpt>
<trkpt lat="43.659931" lon="3.054955">
<ele>361.8</ele>
<time>2013-05-08T16:34:48.999Z</time>
</trkpt>
<trkpt lat="43.660094" lon="3.054914">
<ele>361.3</ele>
<time>2013-05-08T16:34:49.999Z</time>
</trkpt>
<trkpt lat="43.660264" lon="3.054924">
<ele>361.2</ele>
<time>2013-05-08T16:34:50.999Z</time>
</trkpt>
<trkpt lat="43.660432" lon="3.054954">
<ele>361</ele>
<time>2013-05-08T16:34:51.999Z</time>
</trkpt>
<trkpt lat="43.660605" lon="3.055005">
<ele>360.6</ele>
<time>2013-05-08T16:34:52.999Z</time>
</trkpt>
<trkpt lat="43.660792" lon="3.055073">
<ele>360</ele>
<time>2013-05-08T16:34:53.999Z</time>
</trkpt>
<trkpt lat="43.660984" lon="3.055172">
<ele>359.4</ele>
<time>2013-05-08T16:34:54.999Z</time>
</trkpt>
<trkpt lat="43.661178" lon="3.055274">
<ele>359</ele>
<time>2013-05-08T16:34:55.999Z</time>
</trkpt>
<trkpt lat="43.661368" lon="3.055368">
<ele>357.9</ele>
<time>2013-05-08T16:34:56.999Z</time>
</trkpt>
<trkpt lat="43.661552" lon="3.055476">
<ele>357</ele>
<time>2013-05-08T16:34:57.999Z</time>
</trkpt>
<trkpt lat="43.661733" lon="3.055605">
<ele>356.6</ele>
<time>2013-05-08T16:34:58.999Z</time>
</trkpt>
<trkpt lat="43.661894" lon="3.05574">
<ele>356.5</ele>
<time>2013-05-08T16:34:59.999Z</time>
</trkpt>
<trkpt lat="43.662046" lon="3.055882">
<ele>356.6</ele>
<time>2013-05-08T16:35:00.999Z</time>
</trkpt>
<trkpt lat="43.662192" lon="3.056035">
<ele>356.7</ele>
<time>2013-05-08T16:35:01.999Z</time>
</trkpt>
<trkpt lat="43.662336" lon="3.056193">
<ele>356.8</ele>
<time>2013-05-08T16:35:02.999Z</time>
</trkpt>
<trkpt lat="43.662479" lon="3.056368">
<ele>356.8</ele>
<time>2013-05-08T16:35:03.999Z</time>
</trkpt>
<trkpt lat="43.662617" lon="3.056547">
<ele>357.1</ele>
<time>2013-05-08T16:35:04.999Z</time>
</trkpt>
<trkpt lat="43.662761" lon="3.056723">
<ele>357.4</ele>
<time>2013-05-08T16:35:05.999Z</time>
</trkpt>
<trkpt lat="43.662883" lon="3.056921">
<ele>357.6</ele>
<time>2013-05-08T16:35:06.999Z</time>
</trkpt>
<trkpt lat="43.662961" lon="3.057144">
<ele>357.4</ele>
<time>2013-05-08T16:35:07.999Z</time>
</trkpt>
<trkpt lat="43.663018" lon="3.057391">
<ele>356.9</ele>
<time>2013-05-08T16:35:08.999Z</time>
</trkpt>
<trkpt lat="43.663063" lon="3.05767">
<ele>356.7</ele>
<time>2013-05-08T16:35:09.999Z</time>
</trkpt>
<trkpt lat="43.663094" lon="3.057965">
<ele>356.6</ele>
<time>2013-05-08T16:35:10.999Z</time>
</trkpt>
<trkpt lat="43.663119" lon="3.058262">
<ele>356.6</ele>
<time>2013-05-08T16:35:11.999Z</time>
</trkpt>
<trkpt lat="43.663131" lon="3.058547">
<ele>355.6</ele>
<time>2013-05-08T16:35:12.999Z</time>
</trkpt>
<trkpt lat="43.66313" lon="3.058833">
<ele>354.6</ele>
<time>2013-05-08T16:35:13.999Z</time>
</trkpt>
<trkpt lat="43.663135" lon="3.059135">
<ele>353.4</ele>
<time>2013-05-08T16:35:14.999Z</time>
</trkpt>
<trkpt lat="43.663137" lon="3.059464">
<ele>352.5</ele>
<time>2013-05-08T16:35:15.999Z</time>
</trkpt>
<trkpt lat="43.663131" lon="3.059815">
<ele>351.9</ele>
<time>2013-05-08T16:35:16.999Z</time>
</trkpt>
<trkpt lat="43.663123" lon="3.06016">
<ele>351.3</ele>
<time>2013-05-08T16:35:17.999Z</time>
</trkpt>
<trkpt lat="43.663116" lon="3.06049">
<ele>350.9</ele>
<time>2013-05-08T16:35:18.999Z</time>
</trkpt>
<trkpt lat="43.663091" lon="3.060803">
<ele>350.3</ele>
<time>2013-05-08T16:35:19.999Z</time>
</trkpt>
<trkpt lat="43.663033" lon="3.061111">
<ele>349.7</ele>
<time>2013-05-08T16:35:20.999Z</time>
</trkpt>
<trkpt lat="43.662953" lon="3.061402">
<ele>349.1</ele>
<time>2013-05-08T16:35:21.999Z</time>
</trkpt>
<trkpt lat="43.662856" lon="3.061693">
<ele>348.6</ele>
<time>2013-05-08T16:35:22.999Z</time>
</trkpt>
<trkpt lat="43.662728" lon="3.061968">
<ele>348.4</ele>
<time>2013-05-08T16:35:23.999Z</time>
</trkpt>
<trkpt lat="43.662588" lon="3.062243">
<ele>348.6</ele>
<time>2013-05-08T16:35:24.999Z</time>
</trkpt>
<trkpt lat="43.662444" lon="3.062513">
<ele>349.1</ele>
<time>2013-05-08T16:35:25.999Z</time>
</trkpt>
<trkpt lat="43.662312" lon="3.062784">
<ele>349.5</ele>
<time>2013-05-08T16:35:26.999Z</time>
</trkpt>
<trkpt lat="43.662184" lon="3.063055">
<ele>349.8</ele>
<time>2013-05-08T16:35:27.999Z</time>
</trkpt>
<trkpt lat="43.66206" lon="3.063318">
<ele>349.8</ele>
<time>2013-05-08T16:35:28.999Z</time>
</trkpt>
<trkpt lat="43.661945" lon="3.063581">
<ele>350.2</ele>
<time>2013-05-08T16:35:29.999Z</time>
</trkpt>
<trkpt lat="43.661828" lon="3.063838">
<ele>350.8</ele>
<time>2013-05-08T16:35:30.999Z</time>
</trkpt>
<trkpt lat="43.661722" lon="3.064095">
<ele>350.9</ele>
<time>2013-05-08T16:35:31.999Z</time>
</trkpt>
<trkpt lat="43.661607" lon="3.064346">
<ele>350.9</ele>
<time>2013-05-08T16:35:32.999Z</time>
</trkpt>
<trkpt lat="43.661488" lon="3.064597">
<ele>350.9</ele>
<time>2013-05-08T16:35:33.999Z</time>
</trkpt>
<trkpt lat="43.661367" lon="3.064852">
<ele>351.2</ele>
<time>2013-05-08T16:35:34.999Z</time>
</trkpt>
<trkpt lat="43.661248" lon="3.065113">
<ele>351.6</ele>
<time>2013-05-08T16:35:35.999Z</time>
</trkpt>
<trkpt lat="43.661132" lon="3.065374">
<ele>351.9</ele>
<time>2013-05-08T16:35:36.999Z</time>
</trkpt>
<trkpt lat="43.661024" lon="3.065624">
<ele>351.9</ele>
<time>2013-05-08T16:35:37.999Z</time>
</trkpt>
<trkpt lat="43.660912" lon="3.065873">
<ele>351.7</ele>
<time>2013-05-08T16:35:38.999Z</time>
</trkpt>
<trkpt lat="43.660791" lon="3.06614">
<ele>351.4</ele>
<time>2013-05-08T16:35:39.999Z</time>
</trkpt>
<trkpt lat="43.660676" lon="3.066426">
<ele>351.2</ele>
<time>2013-05-08T16:35:40.999Z</time>
</trkpt>
<trkpt lat="43.660593" lon="3.066748">
<ele>350.6</ele>
<time>2013-05-08T16:35:41.999Z</time>
</trkpt>
<trkpt lat="43.660526" lon="3.067094">
<ele>350.2</ele>
<time>2013-05-08T16:35:42.999Z</time>
</trkpt>
<trkpt lat="43.660458" lon="3.067426">
<ele>350</ele>
<time>2013-05-08T16:35:43.999Z</time>
</trkpt>
<trkpt lat="43.660389" lon="3.067757">
<ele>349.8</ele>
<time>2013-05-08T16:35:44.999Z</time>
</trkpt>
<trkpt lat="43.66032" lon="3.068069">
<ele>349.6</ele>
<time>2013-05-08T16:35:45.999Z</time>
</trkpt>
<trkpt lat="43.660259" lon="3.068364">
<ele>349.4</ele>
<time>2013-05-08T16:35:46.999Z</time>
</trkpt>
<trkpt lat="43.660199" lon="3.068646">
<ele>349.2</ele>
<time>2013-05-08T16:35:47.999Z</time>
</trkpt>
<trkpt lat="43.660144" lon="3.068912">
<ele>348.9</ele>
<time>2013-05-08T16:35:48.999Z</time>
</trkpt>
<trkpt lat="43.660083" lon="3.069177">
<ele>349</ele>
<time>2013-05-08T16:35:49.999Z</time>
</trkpt>
<trkpt lat="43.660026" lon="3.069437">
<ele>348.9</ele>
<time>2013-05-08T16:35:50.999Z</time>
</trkpt>
<trkpt lat="43.659994" lon="3.069719">
<ele>348.9</ele>
<time>2013-05-08T16:35:51.999Z</time>
</trkpt>
<trkpt lat="43.659977" lon="3.070014">
<ele>349</ele>
<time>2013-05-08T16:35:52.999Z</time>
</trkpt>
<trkpt lat="43.660005" lon="3.070322">
<ele>348.8</ele>
<time>2013-05-08T16:35:53.999Z</time>
</trkpt>
<trkpt lat="43.660054" lon="3.07062">
<ele>348.8</ele>
<time>2013-05-08T16:35:54.999Z</time>
</trkpt>
<trkpt lat="43.660124" lon="3.070903">
<ele>349.2</ele>
<time>2013-05-08T16:35:55.999Z</time>
</trkpt>
<trkpt lat="43.660206" lon="3.071167">
<ele>349.5</ele>
<time>2013-05-08T16:35:56.999Z</time>
</trkpt>
<trkpt lat="43.6603" lon="3.071408">
<ele>349.7</ele>
<time>2013-05-08T16:35:57.999Z</time>
</trkpt>
<trkpt lat="43.660402" lon="3.071625">
<ele>349.5</ele>
<time>2013-05-08T16:35:58.999Z</time>
</trkpt>
<trkpt lat="43.660506" lon="3.071814">
<ele>349.1</ele>
<time>2013-05-08T16:35:59.999Z</time>
</trkpt>
<trkpt lat="43.660606" lon="3.071966">
<ele>348.7</ele>
<time>2013-05-08T16:36:00.999Z</time>
</trkpt>
<trkpt lat="43.66073" lon="3.072049">
<ele>348.5</ele>
<time>2013-05-08T16:36:01.999Z</time>
</trkpt>
<trkpt lat="43.660874" lon="3.07208">
<ele>348.6</ele>
<time>2013-05-08T16:36:02.999Z</time>
</trkpt>
<trkpt lat="43.661004" lon="3.072096">
<ele>348.7</ele>
<time>2013-05-08T16:36:03.999Z</time>
</trkpt>
<trkpt lat="43.661148" lon="3.072124">
<ele>348.7</ele>
<time>2013-05-08T16:36:04.999Z</time>
</trkpt>
<trkpt lat="43.661288" lon="3.072168">
<ele>349.1</ele>
<time>2013-05-08T16:36:05.999Z</time>
</trkpt>
<trkpt lat="43.661434" lon="3.07223">
<ele>349.5</ele>
<time>2013-05-08T16:36:06.999Z</time>
</trkpt>
<trkpt lat="43.661587" lon="3.072311">
<ele>349.4</ele>
<time>2013-05-08T16:36:07.999Z</time>
</trkpt>
<trkpt lat="43.661721" lon="3.072394">
<ele>349.3</ele>
<time>2013-05-08T16:36:08.999Z</time>
</trkpt>
<trkpt lat="43.661852" lon="3.072484">
<ele>349.1</ele>
<time>2013-05-08T16:36:09.999Z</time>
</trkpt>
<trkpt lat="43.661979" lon="3.07258">
<ele>349</ele>
<time>2013-05-08T16:36:10.999Z</time>
</trkpt>
<trkpt lat="43.662068" lon="3.072702">
<ele>349.1</ele>
<time>2013-05-08T16:36:11.999Z</time>
</trkpt>
<trkpt lat="43.662138" lon="3.072849">
<ele>349.2</ele>
<time>2013-05-08T16:36:12.999Z</time>
</trkpt>
<trkpt lat="43.662214" lon="3.073021">
<ele>348.8</ele>
<time>2013-05-08T16:36:13.999Z</time>
</trkpt>
<trkpt lat="43.662276" lon="3.073191">
<ele>348.2</ele>
<time>2013-05-08T16:36:14.999Z</time>
</trkpt>
<trkpt lat="43.662321" lon="3.07334">
<ele>347.5</ele>
<time>2013-05-08T16:36:15.999Z</time>
</trkpt>
<trkpt lat="43.662353" lon="3.073449">
<ele>346.8</ele>
<time>2013-05-08T16:36:16.999Z</time>
</trkpt>
<trkpt lat="43.662379" lon="3.073541">
<ele>346.4</ele>
<time>2013-05-08T16:36:17.999Z</time>
</trkpt>
<trkpt lat="43.662406" lon="3.073635">
<ele>345.8</ele>
<time>2013-05-08T16:36:18.999Z</time>
</trkpt>
<trkpt lat="43.662427" lon="3.073719">
<ele>345.1</ele>
<time>2013-05-08T16:36:19.999Z</time>
</trkpt>
<trkpt lat="43.662454" lon="3.073837">
<ele>345.1</ele>
<time>2013-05-08T16:36:20.999Z</time>
</trkpt>
<trkpt lat="43.662493" lon="3.073982">
<ele>345</ele>
<time>2013-05-08T16:36:21.999Z</time>
</trkpt>
<trkpt lat="43.662547" lon="3.074199">
<ele>345.2</ele>
<time>2013-05-08T16:36:22.999Z</time>
</trkpt>
<trkpt lat="43.662597" lon="3.074399">
<ele>344.9</ele>
<time>2013-05-08T16:36:23.999Z</time>
</trkpt>
<trkpt lat="43.662638" lon="3.074603">
<ele>345</ele>
<time>2013-05-08T16:36:24.999Z</time>
</trkpt>
<trkpt lat="43.662665" lon="3.074804">
<ele>345.3</ele>
<time>2013-05-08T16:36:25.999Z</time>
</trkpt>
<trkpt lat="43.662678" lon="3.074987">
<ele>345.5</ele>
<time>2013-05-08T16:36:26.999Z</time>
</trkpt>
<trkpt lat="43.662651" lon="3.075165">
<ele>345.3</ele>
<time>2013-05-08T16:36:27.999Z</time>
</trkpt>
<trkpt lat="43.66262" lon="3.075353">
<ele>345.2</ele>
<time>2013-05-08T16:36:28.999Z</time>
</trkpt>
<trkpt lat="43.662557" lon="3.075523">
<ele>345.1</ele>
<time>2013-05-08T16:36:29.999Z</time>
</trkpt>
<trkpt lat="43.662489" lon="3.0757">
<ele>345.4</ele>
<time>2013-05-08T16:36:30.999Z</time>
</trkpt>
<trkpt lat="43.662411" lon="3.075877">
<ele>345.9</ele>
<time>2013-05-08T16:36:31.999Z</time>
</trkpt>
<trkpt lat="43.662327" lon="3.076064">
<ele>346.6</ele>
<time>2013-05-08T16:36:32.999Z</time>
</trkpt>
<trkpt lat="43.66224" lon="3.076258">
<ele>347.3</ele>
<time>2013-05-08T16:36:33.999Z</time>
</trkpt>
<trkpt lat="43.662156" lon="3.076465">
<ele>347.9</ele>
<time>2013-05-08T16:36:34.999Z</time>
</trkpt>
<trkpt lat="43.662085" lon="3.076696">
<ele>348.5</ele>
<time>2013-05-08T16:36:35.999Z</time>
</trkpt>
<trkpt lat="43.662024" lon="3.076949">
<ele>348.4</ele>
<time>2013-05-08T16:36:36.999Z</time>
</trkpt>
<trkpt lat="43.661975" lon="3.077209">
<ele>348</ele>
<time>2013-05-08T16:36:37.999Z</time>
</trkpt>
<trkpt lat="43.66194" lon="3.077462">
<ele>347.5</ele>
<time>2013-05-08T16:36:38.999Z</time>
</trkpt>
<trkpt lat="43.661951" lon="3.07772">
<ele>347.2</ele>
<time>2013-05-08T16:36:39.999Z</time>
</trkpt>
<trkpt lat="43.661983" lon="3.077968">
<ele>346.7</ele>
<time>2013-05-08T16:36:40.999Z</time>
</trkpt>
<trkpt lat="43.662045" lon="3.078201">
<ele>345.9</ele>
<time>2013-05-08T16:36:41.999Z</time>
</trkpt>
<trkpt lat="43.662143" lon="3.078429">
<ele>345.3</ele>
<time>2013-05-08T16:36:42.999Z</time>
</trkpt>
<trkpt lat="43.662264" lon="3.07865">
<ele>344.8</ele>
<time>2013-05-08T16:36:43.999Z</time>
</trkpt>
<trkpt lat="43.662392" lon="3.078875">
<ele>344.4</ele>
<time>2013-05-08T16:36:44.999Z</time>
</trkpt>
<trkpt lat="43.662519" lon="3.079097">
<ele>344</ele>
<time>2013-05-08T16:36:45.999Z</time>
</trkpt>
<trkpt lat="43.662645" lon="3.079327">
<ele>343.8</ele>
<time>2013-05-08T16:36:46.999Z</time>
</trkpt>
<trkpt lat="43.662769" lon="3.079556">
<ele>343.5</ele>
<time>2013-05-08T16:36:47.999Z</time>
</trkpt>
<trkpt lat="43.662877" lon="3.079782">
<ele>343.1</ele>
<time>2013-05-08T16:36:48.999Z</time>
</trkpt>
<trkpt lat="43.662971" lon="3.080014">
<ele>342.7</ele>
<time>2013-05-08T16:36:49.999Z</time>
</trkpt>
<trkpt lat="43.663054" lon="3.080255">
<ele>342.4</ele>
<time>2013-05-08T16:36:50.999Z</time>
</trkpt>
<trkpt lat="43.663084" lon="3.080497">
<ele>342.1</ele>
<time>2013-05-08T16:36:51.999Z</time>
</trkpt>
<trkpt lat="43.663084" lon="3.080749">
<ele>342</ele>
<time>2013-05-08T16:36:52.999Z</time>
</trkpt>
<trkpt lat="43.663065" lon="3.080979">
<ele>341.8</ele>
<time>2013-05-08T16:36:53.999Z</time>
</trkpt>
<trkpt lat="43.663036" lon="3.081185">
<ele>341.6</ele>
<time>2013-05-08T16:36:54.999Z</time>
</trkpt>
<trkpt lat="43.662979" lon="3.081349">
<ele>341.7</ele>
<time>2013-05-08T16:36:55.999Z</time>
</trkpt>
<trkpt lat="43.66289" lon="3.081457">
<ele>341.9</ele>
<time>2013-05-08T16:36:56.999Z</time>
</trkpt>
<trkpt lat="43.662763" lon="3.081502">
<ele>342.4</ele>
<time>2013-05-08T16:36:57.999Z</time>
</trkpt>
<trkpt lat="43.662623" lon="3.081542">
<ele>343.1</ele>
<time>2013-05-08T16:36:58.999Z</time>
</trkpt>
<trkpt lat="43.662482" lon="3.081571">
<ele>343.7</ele>
<time>2013-05-08T16:36:59.999Z</time>
</trkpt>
<trkpt lat="43.662353" lon="3.081588">
<ele>344.1</ele>
<time>2013-05-08T16:37:00.999Z</time>
</trkpt>
<trkpt lat="43.662239" lon="3.081594">
<ele>344.2</ele>
<time>2013-05-08T16:37:01.999Z</time>
</trkpt>
<trkpt lat="43.66214" lon="3.081595">
<ele>344.3</ele>
<time>2013-05-08T16:37:02.999Z</time>
</trkpt>
<trkpt lat="43.662049" lon="3.081604">
<ele>344.1</ele>
<time>2013-05-08T16:37:03.999Z</time>
</trkpt>
<trkpt lat="43.661959" lon="3.081669">
<ele>343.8</ele>
<time>2013-05-08T16:37:04.999Z</time>
</trkpt>
<trkpt lat="43.661904" lon="3.0818">
<ele>343</ele>
<time>2013-05-08T16:37:05.999Z</time>
</trkpt>
<trkpt lat="43.661892" lon="3.081939">
<ele>342.2</ele>
<time>2013-05-08T16:37:06.999Z</time>
</trkpt>
<trkpt lat="43.661874" lon="3.082121">
<ele>341.6</ele>
<time>2013-05-08T16:37:07.999Z</time>
</trkpt>
<trkpt lat="43.661858" lon="3.082326">
<ele>341</ele>
<time>2013-05-08T16:37:08.999Z</time>
</trkpt>
<trkpt lat="43.661842" lon="3.08255">
<ele>340.6</ele>
<time>2013-05-08T16:37:09.999Z</time>
</trkpt>
<trkpt lat="43.661827" lon="3.082765">
<ele>340.1</ele>
<time>2013-05-08T16:37:10.999Z</time>
</trkpt>
<trkpt lat="43.661808" lon="3.082977">
<ele>339.9</ele>
<time>2013-05-08T16:37:11.999Z</time>
</trkpt>
<trkpt lat="43.661783" lon="3.08316">
<ele>339.8</ele>
<time>2013-05-08T16:37:12.999Z</time>
</trkpt>
<trkpt lat="43.661754" lon="3.083314">
<ele>339.8</ele>
<time>2013-05-08T16:37:13.999Z</time>
</trkpt>
<trkpt lat="43.661725" lon="3.083446">
<ele>339.8</ele>
<time>2013-05-08T16:37:14.999Z</time>
</trkpt>
<trkpt lat="43.661675" lon="3.083561">
<ele>339.9</ele>
<time>2013-05-08T16:37:15.999Z</time>
</trkpt>
<trkpt lat="43.661614" lon="3.08368">
<ele>340.1</ele>
<time>2013-05-08T16:37:16.999Z</time>
</trkpt>
<trkpt lat="43.661526" lon="3.08377">
<ele>339.5</ele>
<time>2013-05-08T16:37:17.999Z</time>
</trkpt>
<trkpt lat="43.661415" lon="3.083874">
<ele>338.9</ele>
<time>2013-05-08T16:37:18.999Z</time>
</trkpt>
<trkpt lat="43.661291" lon="3.083979">
<ele>338.1</ele>
<time>2013-05-08T16:37:19.999Z</time>
</trkpt>
<trkpt lat="43.661149" lon="3.084093">
<ele>337.2</ele>
<time>2013-05-08T16:37:20.999Z</time>
</trkpt>
<trkpt lat="43.660982" lon="3.084229">
<ele>336.4</ele>
<time>2013-05-08T16:37:21.999Z</time>
</trkpt>
<trkpt lat="43.660823" lon="3.084368">
<ele>335.5</ele>
<time>2013-05-08T16:37:22.999Z</time>
</trkpt>
<trkpt lat="43.66066" lon="3.084509">
<ele>334.9</ele>
<time>2013-05-08T16:37:23.999Z</time>
</trkpt>
<trkpt lat="43.660507" lon="3.084642">
<ele>334.2</ele>
<time>2013-05-08T16:37:24.999Z</time>
</trkpt>
<trkpt lat="43.660353" lon="3.084762">
<ele>333.7</ele>
<time>2013-05-08T16:37:25.999Z</time>
</trkpt>
<trkpt lat="43.6602" lon="3.08491">
<ele>333.3</ele>
<time>2013-05-08T16:37:26.999Z</time>
</trkpt>
<trkpt lat="43.660057" lon="3.085126">
<ele>332.7</ele>
<time>2013-05-08T16:37:27.999Z</time>
</trkpt>
<trkpt lat="43.659917" lon="3.085344">
<ele>331.9</ele>
<time>2013-05-08T16:37:28.999Z</time>
</trkpt>
<trkpt lat="43.659774" lon="3.085566">
<ele>331.1</ele>
<time>2013-05-08T16:37:29.999Z</time>
</trkpt>
<trkpt lat="43.659623" lon="3.085756">
<ele>330.6</ele>
<time>2013-05-08T16:37:30.999Z</time>
</trkpt>
<trkpt lat="43.65947" lon="3.0859">
<ele>330.2</ele>
<time>2013-05-08T16:37:31.999Z</time>
</trkpt>
<trkpt lat="43.659304" lon="3.08599">
<ele>330.1</ele>
<time>2013-05-08T16:37:32.999Z</time>
</trkpt>
<trkpt lat="43.659134" lon="3.086026">
<ele>329.9</ele>
<time>2013-05-08T16:37:33.999Z</time>
</trkpt>
<trkpt lat="43.658963" lon="3.086015">
<ele>329.9</ele>
<time>2013-05-08T16:37:34.999Z</time>
</trkpt>
<trkpt lat="43.658795" lon="3.085952">
<ele>330.3</ele>
<time>2013-05-08T16:37:35.999Z</time>
</trkpt>
<trkpt lat="43.658631" lon="3.085891">
<ele>330.5</ele>
<time>2013-05-08T16:37:36.999Z</time>
</trkpt>
<trkpt lat="43.658465" lon="3.085842">
<ele>330.8</ele>
<time>2013-05-08T16:37:37.999Z</time>
</trkpt>
<trkpt lat="43.658289" lon="3.085837">
<ele>331.4</ele>
<time>2013-05-08T16:37:38.999Z</time>
</trkpt>
<trkpt lat="43.658114" lon="3.085843">
<ele>332.1</ele>
<time>2013-05-08T16:37:39.999Z</time>
</trkpt>
<trkpt lat="43.657938" lon="3.085864">
<ele>333</ele>
<time>2013-05-08T16:37:40.999Z</time>
</trkpt>
<trkpt lat="43.657778" lon="3.085953">
<ele>333.8</ele>
<time>2013-05-08T16:37:41.999Z</time>
</trkpt>
<trkpt lat="43.65763" lon="3.086098">
<ele>334.6</ele>
<time>2013-05-08T16:37:42.999Z</time>
</trkpt>
<trkpt lat="43.657492" lon="3.086259">
<ele>335.2</ele>
<time>2013-05-08T16:37:43.999Z</time>
</trkpt>
<trkpt lat="43.657382" lon="3.086473">
<ele>335.7</ele>
<time>2013-05-08T16:37:44.999Z</time>
</trkpt>
<trkpt lat="43.657268" lon="3.086689">
<ele>336.5</ele>
<time>2013-05-08T16:37:45.999Z</time>
</trkpt>
<trkpt lat="43.657153" lon="3.086911">
<ele>337.2</ele>
<time>2013-05-08T16:37:46.999Z</time>
</trkpt>
<trkpt lat="43.657029" lon="3.087127">
<ele>337.3</ele>
<time>2013-05-08T16:37:47.999Z</time>
</trkpt>
<trkpt lat="43.656906" lon="3.087331">
<ele>337</ele>
<time>2013-05-08T16:37:48.999Z</time>
</trkpt>
<trkpt lat="43.65677" lon="3.087541">
<ele>336.6</ele>
<time>2013-05-08T16:37:49.999Z</time>
</trkpt>
<trkpt lat="43.65663" lon="3.087745">
<ele>336.3</ele>
<time>2013-05-08T16:37:50.999Z</time>
</trkpt>
<trkpt lat="43.656497" lon="3.087939">
<ele>336.2</ele>
<time>2013-05-08T16:37:51.999Z</time>
</trkpt>
<trkpt lat="43.656377" lon="3.088124">
<ele>336.2</ele>
<time>2013-05-08T16:37:52.999Z</time>
</trkpt>
<trkpt lat="43.656274" lon="3.088318">
<ele>336.1</ele>
<time>2013-05-08T16:37:53.999Z</time>
</trkpt>
<trkpt lat="43.656181" lon="3.088509">
<ele>336</ele>
<time>2013-05-08T16:37:54.999Z</time>
</trkpt>
<trkpt lat="43.65615" lon="3.088715">
<ele>335.9</ele>
<time>2013-05-08T16:37:55.999Z</time>
</trkpt>
<trkpt lat="43.656156" lon="3.088939">
<ele>336.1</ele>
<time>2013-05-08T16:37:56.999Z</time>
</trkpt>
<trkpt lat="43.656197" lon="3.08916">
<ele>336.6</ele>
<time>2013-05-08T16:37:57.999Z</time>
</trkpt>
<trkpt lat="43.65625" lon="3.089375">
<ele>337.2</ele>
<time>2013-05-08T16:37:58.999Z</time>
</trkpt>
<trkpt lat="43.656342" lon="3.089566">
<ele>337.9</ele>
<time>2013-05-08T16:37:59.999Z</time>
</trkpt>
<trkpt lat="43.656433" lon="3.089748">
<ele>338.6</ele>
<time>2013-05-08T16:38:00.999Z</time>
</trkpt>
<trkpt lat="43.656529" lon="3.089918">
<ele>339.1</ele>
<time>2013-05-08T16:38:01.999Z</time>
</trkpt>
<trkpt lat="43.656654" lon="3.090058">
<ele>339.5</ele>
<time>2013-05-08T16:38:02.999Z</time>
</trkpt>
<trkpt lat="43.656787" lon="3.090194">
<ele>339.8</ele>
<time>2013-05-08T16:38:03.999Z</time>
</trkpt>
<trkpt lat="43.656936" lon="3.090323">
<ele>339.9</ele>
<time>2013-05-08T16:38:04.999Z</time>
</trkpt>
<trkpt lat="43.657088" lon="3.090434">
<ele>339.9</ele>
<time>2013-05-08T16:38:05.999Z</time>
</trkpt>
<trkpt lat="43.65726" lon="3.090541">
<ele>339.5</ele>
<time>2013-05-08T16:38:06.999Z</time>
</trkpt>
<trkpt lat="43.65745" lon="3.090645">
<ele>339</ele>
<time>2013-05-08T16:38:07.999Z</time>
</trkpt>
<trkpt lat="43.657655" lon="3.090747">
<ele>338.3</ele>
<time>2013-05-08T16:38:08.999Z</time>
</trkpt>
<trkpt lat="43.657871" lon="3.090822">
<ele>337.9</ele>
<time>2013-05-08T16:38:09.999Z</time>
</trkpt>
<trkpt lat="43.658088" lon="3.090914">
<ele>337.7</ele>
<time>2013-05-08T16:38:10.999Z</time>
</trkpt>
<trkpt lat="43.658297" lon="3.091022">
<ele>337.5</ele>
<time>2013-05-08T16:38:11.999Z</time>
</trkpt>
<trkpt lat="43.658494" lon="3.091151">
<ele>337.5</ele>
<time>2013-05-08T16:38:12.999Z</time>
</trkpt>
<trkpt lat="43.65868" lon="3.09129">
<ele>337.5</ele>
<time>2013-05-08T16:38:13.999Z</time>
</trkpt>
<trkpt lat="43.658858" lon="3.091425">
<ele>337.6</ele>
<time>2013-05-08T16:38:14.999Z</time>
</trkpt>
<trkpt lat="43.659026" lon="3.091559">
<ele>337.8</ele>
<time>2013-05-08T16:38:15.999Z</time>
</trkpt>
<trkpt lat="43.659183" lon="3.091684">
<ele>338.1</ele>
<time>2013-05-08T16:38:16.999Z</time>
</trkpt>
<trkpt lat="43.659327" lon="3.091817">
<ele>338.3</ele>
<time>2013-05-08T16:38:17.999Z</time>
</trkpt>
<trkpt lat="43.659462" lon="3.09196">
<ele>338.6</ele>
<time>2013-05-08T16:38:18.999Z</time>
</trkpt>
<trkpt lat="43.659559" lon="3.092147">
<ele>338.7</ele>
<time>2013-05-08T16:38:19.999Z</time>
</trkpt>
<trkpt lat="43.659654" lon="3.09235">
<ele>338.5</ele>
<time>2013-05-08T16:38:20.999Z</time>
</trkpt>
<trkpt lat="43.659741" lon="3.092567">
<ele>338.2</ele>
<time>2013-05-08T16:38:21.999Z</time>
</trkpt>
<trkpt lat="43.659812" lon="3.092797">
<ele>338</ele>
<time>2013-05-08T16:38:22.999Z</time>
</trkpt>
<trkpt lat="43.659863" lon="3.093025">
<ele>337.9</ele>
<time>2013-05-08T16:38:23.999Z</time>
</trkpt>
<trkpt lat="43.659939" lon="3.093249">
<ele>337.7</ele>
<time>2013-05-08T16:38:24.999Z</time>
</trkpt>
<trkpt lat="43.660033" lon="3.093481">
<ele>337.5</ele>
<time>2013-05-08T16:38:25.999Z</time>
</trkpt>
<trkpt lat="43.660139" lon="3.093719">
<ele>337.3</ele>
<time>2013-05-08T16:38:26.999Z</time>
</trkpt>
<trkpt lat="43.66024" lon="3.093968">
<ele>337.1</ele>
<time>2013-05-08T16:38:27.999Z</time>
</trkpt>
<trkpt lat="43.660318" lon="3.094218">
<ele>336.8</ele>
<time>2013-05-08T16:38:28.999Z</time>
</trkpt>
<trkpt lat="43.660364" lon="3.094495">
<ele>336.8</ele>
<time>2013-05-08T16:38:29.999Z</time>
</trkpt>
<trkpt lat="43.660369" lon="3.094778">
<ele>336.7</ele>
<time>2013-05-08T16:38:30.999Z</time>
</trkpt>
<trkpt lat="43.660345" lon="3.095042">
<ele>336.3</ele>
<time>2013-05-08T16:38:31.999Z</time>
</trkpt>
<trkpt lat="43.660306" lon="3.095314">
<ele>336.4</ele>
<time>2013-05-08T16:38:32.999Z</time>
</trkpt>
<trkpt lat="43.660286" lon="3.095575">
<ele>336.8</ele>
<time>2013-05-08T16:38:33.999Z</time>
</trkpt>
<trkpt lat="43.66029" lon="3.095833">
<ele>337.1</ele>
<time>2013-05-08T16:38:34.999Z</time>
</trkpt>
<trkpt lat="43.660338" lon="3.096078">
<ele>337.3</ele>
<time>2013-05-08T16:38:35.999Z</time>
</trkpt>
<trkpt lat="43.660401" lon="3.096339">
<ele>337.7</ele>
<time>2013-05-08T16:38:36.999Z</time>
</trkpt>
<trkpt lat="43.660436" lon="3.096619">
<ele>338.3</ele>
<time>2013-05-08T16:38:37.999Z</time>
</trkpt>
<trkpt lat="43.660468" lon="3.096899">
<ele>338.5</ele>
<time>2013-05-08T16:38:38.999Z</time>
</trkpt>
<trkpt lat="43.660502" lon="3.097191">
<ele>338.9</ele>
<time>2013-05-08T16:38:39.999Z</time>
</trkpt>
<trkpt lat="43.660549" lon="3.09748">
<ele>339.4</ele>
<time>2013-05-08T16:38:40.999Z</time>
</trkpt>
<trkpt lat="43.660618" lon="3.097753">
<ele>339.7</ele>
<time>2013-05-08T16:38:41.999Z</time>
</trkpt>
<trkpt lat="43.660708" lon="3.09801">
<ele>339.8</ele>
<time>2013-05-08T16:38:42.999Z</time>
</trkpt>
<trkpt lat="43.660804" lon="3.098259">
<ele>339.4</ele>
<time>2013-05-08T16:38:43.999Z</time>
</trkpt>
<trkpt lat="43.660905" lon="3.098494">
<ele>338.9</ele>
<time>2013-05-08T16:38:44.999Z</time>
</trkpt>
<trkpt lat="43.661013" lon="3.098724">
<ele>338.9</ele>
<time>2013-05-08T16:38:45.999Z</time>
</trkpt>
<trkpt lat="43.66114" lon="3.098952">
<ele>338.7</ele>
<time>2013-05-08T16:38:46.999Z</time>
</trkpt>
<trkpt lat="43.661269" lon="3.09917">
<ele>338.7</ele>
<time>2013-05-08T16:38:47.999Z</time>
</trkpt>
<trkpt lat="43.661413" lon="3.099362">
<ele>338.5</ele>
<time>2013-05-08T16:38:48.999Z</time>
</trkpt>
<trkpt lat="43.661556" lon="3.099534">
<ele>338.4</ele>
<time>2013-05-08T16:38:49.999Z</time>
</trkpt>
<trkpt lat="43.661719" lon="3.099689">
<ele>338.2</ele>
<time>2013-05-08T16:38:50.999Z</time>
</trkpt>
<trkpt lat="43.661877" lon="3.099851">
<ele>337.8</ele>
<time>2013-05-08T16:38:51.999Z</time>
</trkpt>
<trkpt lat="43.662003" lon="3.100014">
<ele>337</ele>
<time>2013-05-08T16:38:52.999Z</time>
</trkpt>
<trkpt lat="43.662069" lon="3.100182">
<ele>336.5</ele>
<time>2013-05-08T16:38:53.999Z</time>
</trkpt>
<trkpt lat="43.662101" lon="3.100393">
<ele>336.3</ele>
<time>2013-05-08T16:38:54.999Z</time>
</trkpt>
<trkpt lat="43.662097" lon="3.100612">
<ele>336.4</ele>
<time>2013-05-08T16:38:55.999Z</time>
</trkpt>
<trkpt lat="43.662087" lon="3.10083">
<ele>336.4</ele>
<time>2013-05-08T16:38:56.999Z</time>
</trkpt>
<trkpt lat="43.662082" lon="3.101062">
<ele>336.5</ele>
<time>2013-05-08T16:38:57.999Z</time>
</trkpt>
<trkpt lat="43.662121" lon="3.101288">
<ele>336.5</ele>
<time>2013-05-08T16:38:58.999Z</time>
</trkpt>
<trkpt lat="43.662159" lon="3.101508">
<ele>336.4</ele>
<time>2013-05-08T16:38:59.999Z</time>
</trkpt>
<trkpt lat="43.662204" lon="3.101723">
<ele>336.3</ele>
<time>2013-05-08T16:39:00.999Z</time>
</trkpt>
<trkpt lat="43.662264" lon="3.101952">
<ele>336</ele>
<time>2013-05-08T16:39:01.999Z</time>
</trkpt>
<trkpt lat="43.662365" lon="3.102163">
<ele>336</ele>
<time>2013-05-08T16:39:02.999Z</time>
</trkpt>
<trkpt lat="43.662468" lon="3.10236">
<ele>336.1</ele>
<time>2013-05-08T16:39:03.999Z</time>
</trkpt>
<trkpt lat="43.662578" lon="3.102545">
<ele>336.3</ele>
<time>2013-05-08T16:39:04.999Z</time>
</trkpt>
<trkpt lat="43.662702" lon="3.102738">
<ele>336.3</ele>
<time>2013-05-08T16:39:05.999Z</time>
</trkpt>
<trkpt lat="43.662836" lon="3.102955">
<ele>336.2</ele>
<time>2013-05-08T16:39:06.999Z</time>
</trkpt>
<trkpt lat="43.662933" lon="3.103179">
<ele>336.1</ele>
<time>2013-05-08T16:39:07.999Z</time>
</trkpt>
<trkpt lat="43.663012" lon="3.103419">
<ele>335.8</ele>
<time>2013-05-08T16:39:08.999Z</time>
</trkpt>
<trkpt lat="43.663086" lon="3.103665">
<ele>335.4</ele>
<time>2013-05-08T16:39:09.999Z</time>
</trkpt>
<trkpt lat="43.663158" lon="3.103911">
<ele>334.7</ele>
<time>2013-05-08T16:39:10.999Z</time>
</trkpt>
<trkpt lat="43.663231" lon="3.104154">
<ele>333.9</ele>
<time>2013-05-08T16:39:11.999Z</time>
</trkpt>
<trkpt lat="43.663301" lon="3.104394">
<ele>333</ele>
<time>2013-05-08T16:39:12.999Z</time>
</trkpt>
<trkpt lat="43.663363" lon="3.104633">
<ele>332</ele>
<time>2013-05-08T16:39:13.999Z</time>
</trkpt>
<trkpt lat="43.663413" lon="3.104881">
<ele>331.1</ele>
<time>2013-05-08T16:39:14.999Z</time>
</trkpt>
<trkpt lat="43.663465" lon="3.105131">
<ele>330.1</ele>
<time>2013-05-08T16:39:15.999Z</time>
</trkpt>
<trkpt lat="43.663518" lon="3.105382">
<ele>329.1</ele>
<time>2013-05-08T16:39:16.999Z</time>
</trkpt>
<trkpt lat="43.66357" lon="3.105629">
<ele>327.9</ele>
<time>2013-05-08T16:39:17.999Z</time>
</trkpt>
<trkpt lat="43.663619" lon="3.105872">
<ele>326.8</ele>
<time>2013-05-08T16:39:18.999Z</time>
</trkpt>
<trkpt lat="43.663665" lon="3.106101">
<ele>325.7</ele>
<time>2013-05-08T16:39:19.999Z</time>
</trkpt>
<trkpt lat="43.663707" lon="3.10631">
<ele>324.6</ele>
<time>2013-05-08T16:39:20.999Z</time>
</trkpt>
<trkpt lat="43.663739" lon="3.106478">
<ele>323.6</ele>
<time>2013-05-08T16:39:21.999Z</time>
</trkpt>
<trkpt lat="43.663772" lon="3.106641">
<ele>322.3</ele>
<time>2013-05-08T16:39:22.999Z</time>
</trkpt>
<trkpt lat="43.663801" lon="3.10679">
<ele>321</ele>
<time>2013-05-08T16:39:23.999Z</time>
</trkpt>
<trkpt lat="43.663824" lon="3.106921">
<ele>320.4</ele>
<time>2013-05-08T16:39:24.999Z</time>
</trkpt>
<trkpt lat="43.663845" lon="3.107048">
<ele>320.1</ele>
<time>2013-05-08T16:39:25.999Z</time>
</trkpt>
<trkpt lat="43.663868" lon="3.107159">
<ele>319.9</ele>
<time>2013-05-08T16:39:26.999Z</time>
</trkpt>
<trkpt lat="43.663885" lon="3.107249">
<ele>319.9</ele>
<time>2013-05-08T16:39:27.999Z</time>
</trkpt>
<trkpt lat="43.663901" lon="3.107326">
<ele>319.5</ele>
<time>2013-05-08T16:39:28.999Z</time>
</trkpt>
<trkpt lat="43.663918" lon="3.10742">
<ele>319.2</ele>
<time>2013-05-08T16:39:29.999Z</time>
</trkpt>
<trkpt lat="43.663938" lon="3.107516">
<ele>318.7</ele>
<time>2013-05-08T16:39:30.999Z</time>
</trkpt>
<trkpt lat="43.663961" lon="3.107653">
<ele>318.5</ele>
<time>2013-05-08T16:39:31.999Z</time>
</trkpt>
<trkpt lat="43.663993" lon="3.107832">
<ele>318.4</ele>
<time>2013-05-08T16:39:32.999Z</time>
</trkpt>
<trkpt lat="43.664029" lon="3.108032">
<ele>317.8</ele>
<time>2013-05-08T16:39:33.999Z</time>
</trkpt>
<trkpt lat="43.664065" lon="3.108252">
<ele>317.2</ele>
<time>2013-05-08T16:39:34.999Z</time>
</trkpt>
<trkpt lat="43.6641" lon="3.108462">
<ele>316.9</ele>
<time>2013-05-08T16:39:35.999Z</time>
</trkpt>
<trkpt lat="43.664134" lon="3.108661">
<ele>316.7</ele>
<time>2013-05-08T16:39:36.999Z</time>
</trkpt>
<trkpt lat="43.66417" lon="3.108852">
<ele>316.8</ele>
<time>2013-05-08T16:39:37.999Z</time>
</trkpt>
<trkpt lat="43.664207" lon="3.10904">
<ele>316.8</ele>
<time>2013-05-08T16:39:38.999Z</time>
</trkpt>
<trkpt lat="43.664246" lon="3.109227">
<ele>316.9</ele>
<time>2013-05-08T16:39:39.999Z</time>
</trkpt>
<trkpt lat="43.664284" lon="3.109408">
<ele>316.7</ele>
<time>2013-05-08T16:39:40.999Z</time>
</trkpt>
<trkpt lat="43.664289" lon="3.109589">
<ele>316.6</ele>
<time>2013-05-08T16:39:41.999Z</time>
</trkpt>
<trkpt lat="43.66425" lon="3.109774">
<ele>316.3</ele>
<time>2013-05-08T16:39:42.999Z</time>
</trkpt>
<trkpt lat="43.664157" lon="3.109909">
<ele>316.1</ele>
<time>2013-05-08T16:39:43.999Z</time>
</trkpt>
<trkpt lat="43.664029" lon="3.110011">
<ele>316</ele>
<time>2013-05-08T16:39:44.999Z</time>
</trkpt>
<trkpt lat="43.663874" lon="3.110128">
<ele>315.7</ele>
<time>2013-05-08T16:39:45.999Z</time>
</trkpt>
<trkpt lat="43.663699" lon="3.110261">
<ele>315.3</ele>
<time>2013-05-08T16:39:46.999Z</time>
</trkpt>
<trkpt lat="43.663501" lon="3.110409">
<ele>315.3</ele>
<time>2013-05-08T16:39:47.999Z</time>
</trkpt>
<trkpt lat="43.66329" lon="3.110569">
<ele>314.5</ele>
<time>2013-05-08T16:39:48.999Z</time>
</trkpt>
<trkpt lat="43.66308" lon="3.110739">
<ele>313.5</ele>
<time>2013-05-08T16:39:49.999Z</time>
</trkpt>
<trkpt lat="43.66287" lon="3.110907">
<ele>312.5</ele>
<time>2013-05-08T16:39:50.999Z</time>
</trkpt>
<trkpt lat="43.66267" lon="3.111069">
<ele>311.4</ele>
<time>2013-05-08T16:39:51.999Z</time>
</trkpt>
<trkpt lat="43.662468" lon="3.111221">
<ele>310.7</ele>
<time>2013-05-08T16:39:52.999Z</time>
</trkpt>
<trkpt lat="43.662261" lon="3.11134">
<ele>310.2</ele>
<time>2013-05-08T16:39:53.999Z</time>
</trkpt>
<trkpt lat="43.662052" lon="3.111438">
<ele>309.9</ele>
<time>2013-05-08T16:39:54.999Z</time>
</trkpt>
<trkpt lat="43.661839" lon="3.111532">
<ele>309.6</ele>
<time>2013-05-08T16:39:55.999Z</time>
</trkpt>
<trkpt lat="43.661638" lon="3.111614">
<ele>309.3</ele>
<time>2013-05-08T16:39:56.999Z</time>
</trkpt>
<trkpt lat="43.661453" lon="3.111685">
<ele>309.2</ele>
<time>2013-05-08T16:39:57.999Z</time>
</trkpt>
<trkpt lat="43.661278" lon="3.111716">
<ele>309.1</ele>
<time>2013-05-08T16:39:58.999Z</time>
</trkpt>
<trkpt lat="43.661094" lon="3.111719">
<ele>309.2</ele>
<time>2013-05-08T16:39:59.999Z</time>
</trkpt>
<trkpt lat="43.660907" lon="3.111666">
<ele>309.5</ele>
<time>2013-05-08T16:40:00.999Z</time>
</trkpt>
<trkpt lat="43.660708" lon="3.111588">
<ele>310</ele>
<time>2013-05-08T16:40:01.999Z</time>
</trkpt>
<trkpt lat="43.66051" lon="3.111523">
<ele>310.2</ele>
<time>2013-05-08T16:40:02.999Z</time>
</trkpt>
<trkpt lat="43.660314" lon="3.111476">
<ele>310.2</ele>
<time>2013-05-08T16:40:03.999Z</time>
</trkpt>
<trkpt lat="43.660124" lon="3.111405">
<ele>310.4</ele>
<time>2013-05-08T16:40:04.999Z</time>
</trkpt>
<trkpt lat="43.659938" lon="3.111303">
<ele>310.5</ele>
<time>2013-05-08T16:40:05.999Z</time>
</trkpt>
<trkpt lat="43.659766" lon="3.11119">
<ele>310.2</ele>
<time>2013-05-08T16:40:06.999Z</time>
</trkpt>
<trkpt lat="43.659605" lon="3.111081">
<ele>310.9</ele>
<time>2013-05-08T16:40:07.999Z</time>
</trkpt>
<trkpt lat="43.659468" lon="3.110967">
<ele>311.4</ele>
<time>2013-05-08T16:40:08.999Z</time>
</trkpt>
<trkpt lat="43.659346" lon="3.110847">
<ele>312.2</ele>
<time>2013-05-08T16:40:09.999Z</time>
</trkpt>
<trkpt lat="43.659264" lon="3.110666">
<ele>313.3</ele>
<time>2013-05-08T16:40:10.999Z</time>
</trkpt>
<trkpt lat="43.659188" lon="3.110475">
<ele>314.2</ele>
<time>2013-05-08T16:40:11.999Z</time>
</trkpt>
<trkpt lat="43.659165" lon="3.110263">
<ele>315.1</ele>
<time>2013-05-08T16:40:12.999Z</time>
</trkpt>
<trkpt lat="43.659154" lon="3.110055">
<ele>316.2</ele>
<time>2013-05-08T16:40:13.999Z</time>
</trkpt>
<trkpt lat="43.659145" lon="3.109854">
<ele>316.8</ele>
<time>2013-05-08T16:40:14.999Z</time>
</trkpt>
<trkpt lat="43.659123" lon="3.10965">
<ele>317.1</ele>
<time>2013-05-08T16:40:15.999Z</time>
</trkpt>
<trkpt lat="43.659057" lon="3.109466">
<ele>317.4</ele>
<time>2013-05-08T16:40:16.999Z</time>
</trkpt>
<trkpt lat="43.658935" lon="3.109305">
<ele>316.8</ele>
<time>2013-05-08T16:40:17.999Z</time>
</trkpt>
<trkpt lat="43.658813" lon="3.109159">
<ele>315.8</ele>
<time>2013-05-08T16:40:18.999Z</time>
</trkpt>
<trkpt lat="43.658679" lon="3.109011">
<ele>315</ele>
<time>2013-05-08T16:40:19.999Z</time>
</trkpt>
<trkpt lat="43.658547" lon="3.108876">
<ele>314.3</ele>
<time>2013-05-08T16:40:20.999Z</time>
</trkpt>
<trkpt lat="43.658409" lon="3.108736">
<ele>314</ele>
<time>2013-05-08T16:40:21.999Z</time>
</trkpt>
<trkpt lat="43.658271" lon="3.108575">
<ele>314</ele>
<time>2013-05-08T16:40:22.999Z</time>
</trkpt>
<trkpt lat="43.658142" lon="3.108403">
<ele>313.9</ele>
<time>2013-05-08T16:40:23.999Z</time>
</trkpt>
<trkpt lat="43.658026" lon="3.108234">
<ele>314.2</ele>
<time>2013-05-08T16:40:24.999Z</time>
</trkpt>
<trkpt lat="43.657948" lon="3.10804">
<ele>313.9</ele>
<time>2013-05-08T16:40:25.999Z</time>
</trkpt>
<trkpt lat="43.657912" lon="3.107838">
<ele>313.5</ele>
<time>2013-05-08T16:40:26.999Z</time>
</trkpt>
<trkpt lat="43.657877" lon="3.107653">
<ele>313.5</ele>
<time>2013-05-08T16:40:27.999Z</time>
</trkpt>
<trkpt lat="43.657837" lon="3.107493">
<ele>312.6</ele>
<time>2013-05-08T16:40:28.999Z</time>
</trkpt>
<trkpt lat="43.657756" lon="3.107367">
<ele>311.1</ele>
<time>2013-05-08T16:40:29.999Z</time>
</trkpt>
<trkpt lat="43.657638" lon="3.107333">
<ele>310.4</ele>
<time>2013-05-08T16:40:30.999Z</time>
</trkpt>
<trkpt lat="43.657505" lon="3.107373">
<ele>309.8</ele>
<time>2013-05-08T16:40:31.999Z</time>
</trkpt>
<trkpt lat="43.657356" lon="3.107472">
<ele>309.5</ele>
<time>2013-05-08T16:40:32.999Z</time>
</trkpt>
<trkpt lat="43.657188" lon="3.107653">
<ele>309.9</ele>
<time>2013-05-08T16:40:33.999Z</time>
</trkpt>
<trkpt lat="43.657018" lon="3.107845">
<ele>309.9</ele>
<time>2013-05-08T16:40:34.999Z</time>
</trkpt>
<trkpt lat="43.656847" lon="3.108063">
<ele>310</ele>
<time>2013-05-08T16:40:35.999Z</time>
</trkpt>
<trkpt lat="43.656675" lon="3.108312">
<ele>310.3</ele>
<time>2013-05-08T16:40:36.999Z</time>
</trkpt>
<trkpt lat="43.656506" lon="3.108562">
<ele>310.6</ele>
<time>2013-05-08T16:40:37.999Z</time>
</trkpt>
<trkpt lat="43.656342" lon="3.108802">
<ele>311</ele>
<time>2013-05-08T16:40:38.999Z</time>
</trkpt>
<trkpt lat="43.656187" lon="3.109031">
<ele>311.3</ele>
<time>2013-05-08T16:40:39.999Z</time>
</trkpt>
<trkpt lat="43.656035" lon="3.109255">
<ele>311.4</ele>
<time>2013-05-08T16:40:40.999Z</time>
</trkpt>
<trkpt lat="43.655876" lon="3.10947">
<ele>312.1</ele>
<time>2013-05-08T16:40:41.999Z</time>
</trkpt>
<trkpt lat="43.655737" lon="3.109669">
<ele>311.8</ele>
<time>2013-05-08T16:40:42.999Z</time>
</trkpt>
<trkpt lat="43.655597" lon="3.109857">
<ele>311.4</ele>
<time>2013-05-08T16:40:43.999Z</time>
</trkpt>
<trkpt lat="43.65545" lon="3.110045">
<ele>311</ele>
<time>2013-05-08T16:40:44.999Z</time>
</trkpt>
<trkpt lat="43.655302" lon="3.110222">
<ele>310.7</ele>
<time>2013-05-08T16:40:45.999Z</time>
</trkpt>
<trkpt lat="43.655151" lon="3.110386">
<ele>310.4</ele>
<time>2013-05-08T16:40:46.999Z</time>
</trkpt>
<trkpt lat="43.655003" lon="3.110537">
<ele>309.7</ele>
<time>2013-05-08T16:40:47.999Z</time>
</trkpt>
<trkpt lat="43.65485" lon="3.110664">
<ele>308.6</ele>
<time>2013-05-08T16:40:48.999Z</time>
</trkpt>
<trkpt lat="43.654683" lon="3.110737">
<ele>307.7</ele>
<time>2013-05-08T16:40:49.999Z</time>
</trkpt>
<trkpt lat="43.6545" lon="3.110789">
<ele>307</ele>
<time>2013-05-08T16:40:50.999Z</time>
</trkpt>
<trkpt lat="43.654324" lon="3.110808">
<ele>306.5</ele>
<time>2013-05-08T16:40:51.999Z</time>
</trkpt>
<trkpt lat="43.654145" lon="3.110803">
<ele>305.9</ele>
<time>2013-05-08T16:40:52.999Z</time>
</trkpt>
<trkpt lat="43.653974" lon="3.110779">
<ele>305.5</ele>
<time>2013-05-08T16:40:53.999Z</time>
</trkpt>
<trkpt lat="43.65382" lon="3.110696">
<ele>305.1</ele>
<time>2013-05-08T16:40:54.999Z</time>
</trkpt>
<trkpt lat="43.65367" lon="3.110604">
<ele>304.7</ele>
<time>2013-05-08T16:40:55.999Z</time>
</trkpt>
<trkpt lat="43.65351" lon="3.110505">
<ele>304.4</ele>
<time>2013-05-08T16:40:56.999Z</time>
</trkpt>
<trkpt lat="43.653332" lon="3.110378">
<ele>304.4</ele>
<time>2013-05-08T16:40:57.999Z</time>
</trkpt>
<trkpt lat="43.653138" lon="3.110228">
<ele>304.5</ele>
<time>2013-05-08T16:40:58.999Z</time>
</trkpt>
<trkpt lat="43.65295" lon="3.110061">
<ele>304.4</ele>
<time>2013-05-08T16:40:59.999Z</time>
</trkpt>
<trkpt lat="43.652759" lon="3.109882">
<ele>304.4</ele>
<time>2013-05-08T16:41:00.999Z</time>
</trkpt>
<trkpt lat="43.652559" lon="3.109696">
<ele>304.6</ele>
<time>2013-05-08T16:41:01.999Z</time>
</trkpt>
<trkpt lat="43.652349" lon="3.10952">
<ele>304.9</ele>
<time>2013-05-08T16:41:02.999Z</time>
</trkpt>
<trkpt lat="43.652145" lon="3.109348">
<ele>305.3</ele>
<time>2013-05-08T16:41:03.999Z</time>
</trkpt>
<trkpt lat="43.651954" lon="3.109185">
<ele>305.7</ele>
<time>2013-05-08T16:41:04.999Z</time>
</trkpt>
<trkpt lat="43.651775" lon="3.109015">
<ele>305.9</ele>
<time>2013-05-08T16:41:05.999Z</time>
</trkpt>
<trkpt lat="43.651618" lon="3.108843">
<ele>305.8</ele>
<time>2013-05-08T16:41:06.999Z</time>
</trkpt>
<trkpt lat="43.651476" lon="3.108677">
<ele>305.6</ele>
<time>2013-05-08T16:41:07.999Z</time>
</trkpt>
<trkpt lat="43.651356" lon="3.108496">
<ele>305.4</ele>
<time>2013-05-08T16:41:08.999Z</time>
</trkpt>
<trkpt lat="43.651255" lon="3.10827">
<ele>305.5</ele>
<time>2013-05-08T16:41:09.999Z</time>
</trkpt>
<trkpt lat="43.651149" lon="3.108021">
<ele>306.3</ele>
<time>2013-05-08T16:41:10.999Z</time>
</trkpt>
<trkpt lat="43.651055" lon="3.107774">
<ele>306.7</ele>
<time>2013-05-08T16:41:11.999Z</time>
</trkpt>
<trkpt lat="43.65097" lon="3.107532">
<ele>306.9</ele>
<time>2013-05-08T16:41:12.999Z</time>
</trkpt>
<trkpt lat="43.65087" lon="3.107325">
<ele>306.8</ele>
<time>2013-05-08T16:41:13.999Z</time>
</trkpt>
<trkpt lat="43.650735" lon="3.107137">
<ele>306.6</ele>
<time>2013-05-08T16:41:14.999Z</time>
</trkpt>
<trkpt lat="43.650599" lon="3.106966">
<ele>306.4</ele>
<time>2013-05-08T16:41:15.999Z</time>
</trkpt>
<trkpt lat="43.650465" lon="3.106835">
<ele>306.4</ele>
<time>2013-05-08T16:41:16.999Z</time>
</trkpt>
<trkpt lat="43.650339" lon="3.106749">
<ele>306.2</ele>
<time>2013-05-08T16:41:17.999Z</time>
</trkpt>
<trkpt lat="43.650202" lon="3.106753">
<ele>306.2</ele>
<time>2013-05-08T16:41:18.999Z</time>
</trkpt>
<trkpt lat="43.65006" lon="3.106782">
<ele>306.7</ele>
<time>2013-05-08T16:41:19.999Z</time>
</trkpt>
<trkpt lat="43.649915" lon="3.106873">
<ele>307.6</ele>
<time>2013-05-08T16:41:20.999Z</time>
</trkpt>
<trkpt lat="43.649771" lon="3.107004">
<ele>308.5</ele>
<time>2013-05-08T16:41:21.999Z</time>
</trkpt>
<trkpt lat="43.649644" lon="3.107178">
<ele>309.1</ele>
<time>2013-05-08T16:41:22.999Z</time>
</trkpt>
<trkpt lat="43.649523" lon="3.107369">
<ele>309.2</ele>
<time>2013-05-08T16:41:23.999Z</time>
</trkpt>
<trkpt lat="43.649435" lon="3.107599">
<ele>309</ele>
<time>2013-05-08T16:41:24.999Z</time>
</trkpt>
<trkpt lat="43.649355" lon="3.107836">
<ele>308.6</ele>
<time>2013-05-08T16:41:25.999Z</time>
</trkpt>
<trkpt lat="43.649327" lon="3.108102">
<ele>308.1</ele>
<time>2013-05-08T16:41:26.999Z</time>
</trkpt>
<trkpt lat="43.649348" lon="3.108373">
<ele>307.5</ele>
<time>2013-05-08T16:41:27.999Z</time>
</trkpt>
<trkpt lat="43.649402" lon="3.108651">
<ele>307.1</ele>
<time>2013-05-08T16:41:28.999Z</time>
</trkpt>
<trkpt lat="43.649462" lon="3.108922">
<ele>306.7</ele>
<time>2013-05-08T16:41:29.999Z</time>
</trkpt>
<trkpt lat="43.649504" lon="3.109197">
<ele>306.3</ele>
<time>2013-05-08T16:41:30.999Z</time>
</trkpt>
<trkpt lat="43.649515" lon="3.10946">
<ele>305.7</ele>
<time>2013-05-08T16:41:31.999Z</time>
</trkpt>
<trkpt lat="43.649513" lon="3.109715">
<ele>305</ele>
<time>2013-05-08T16:41:32.999Z</time>
</trkpt>
<trkpt lat="43.649539" lon="3.109975">
<ele>304.3</ele>
<time>2013-05-08T16:41:33.999Z</time>
</trkpt>
<trkpt lat="43.64959" lon="3.110242">
<ele>303.6</ele>
<time>2013-05-08T16:41:34.999Z</time>
</trkpt>
<trkpt lat="43.64967" lon="3.11052">
<ele>302.9</ele>
<time>2013-05-08T16:41:35.999Z</time>
</trkpt>
<trkpt lat="43.649768" lon="3.110813">
<ele>302.4</ele>
<time>2013-05-08T16:41:36.999Z</time>
</trkpt>
<trkpt lat="43.649857" lon="3.111097">
<ele>301.7</ele>
<time>2013-05-08T16:41:37.999Z</time>
</trkpt>
<trkpt lat="43.649946" lon="3.111375">
<ele>301.1</ele>
<time>2013-05-08T16:41:38.999Z</time>
</trkpt>
<trkpt lat="43.650023" lon="3.111637">
<ele>300.4</ele>
<time>2013-05-08T16:41:39.999Z</time>
</trkpt>
<trkpt lat="43.650081" lon="3.111893">
<ele>299.6</ele>
<time>2013-05-08T16:41:40.999Z</time>
</trkpt>
<trkpt lat="43.650095" lon="3.112152">
<ele>299.1</ele>
<time>2013-05-08T16:41:41.999Z</time>
</trkpt>
<trkpt lat="43.650084" lon="3.112433">
<ele>298.7</ele>
<time>2013-05-08T16:41:42.999Z</time>
</trkpt>
<trkpt lat="43.650041" lon="3.112713">
<ele>298.5</ele>
<time>2013-05-08T16:41:43.999Z</time>
</trkpt>
<trkpt lat="43.649988" lon="3.112988">
<ele>298.2</ele>
<time>2013-05-08T16:41:44.999Z</time>
</trkpt>
<trkpt lat="43.64993" lon="3.113265">
<ele>297.8</ele>
<time>2013-05-08T16:41:45.999Z</time>
</trkpt>
<trkpt lat="43.649862" lon="3.113543">
<ele>297.3</ele>
<time>2013-05-08T16:41:46.999Z</time>
</trkpt>
<trkpt lat="43.64978" lon="3.113812">
<ele>296.9</ele>
<time>2013-05-08T16:41:47.999Z</time>
</trkpt>
<trkpt lat="43.649683" lon="3.114068">
<ele>296.8</ele>
<time>2013-05-08T16:41:48.999Z</time>
</trkpt>
<trkpt lat="43.64957" lon="3.114318">
<ele>296.8</ele>
<time>2013-05-08T16:41:49.999Z</time>
</trkpt>
<trkpt lat="43.649433" lon="3.11455">
<ele>296.3</ele>
<time>2013-05-08T16:41:50.999Z</time>
</trkpt>
<trkpt lat="43.649275" lon="3.114764">
<ele>296.1</ele>
<time>2013-05-08T16:41:51.999Z</time>
</trkpt>
<trkpt lat="43.6491" lon="3.114957">
<ele>296</ele>
<time>2013-05-08T16:41:52.999Z</time>
</trkpt>
<trkpt lat="43.648915" lon="3.115142">
<ele>296</ele>
<time>2013-05-08T16:41:53.999Z</time>
</trkpt>
<trkpt lat="43.648728" lon="3.115325">
<ele>295.8</ele>
<time>2013-05-08T16:41:54.999Z</time>
</trkpt>
<trkpt lat="43.648543" lon="3.1155">
<ele>295.5</ele>
<time>2013-05-08T16:41:55.999Z</time>
</trkpt>
<trkpt lat="43.648351" lon="3.115679">
<ele>295.1</ele>
<time>2013-05-08T16:41:56.999Z</time>
</trkpt>
<trkpt lat="43.648146" lon="3.115832">
<ele>294.6</ele>
<time>2013-05-08T16:41:57.999Z</time>
</trkpt>
<trkpt lat="43.647933" lon="3.115959">
<ele>294.5</ele>
<time>2013-05-08T16:41:58.999Z</time>
</trkpt>
<trkpt lat="43.64772" lon="3.116079">
<ele>294.7</ele>
<time>2013-05-08T16:41:59.999Z</time>
</trkpt>
<trkpt lat="43.647508" lon="3.116183">
<ele>294.9</ele>
<time>2013-05-08T16:42:00.999Z</time>
</trkpt>
<trkpt lat="43.647296" lon="3.116271">
<ele>294.9</ele>
<time>2013-05-08T16:42:01.999Z</time>
</trkpt>
<trkpt lat="43.64708" lon="3.116326">
<ele>294.7</ele>
<time>2013-05-08T16:42:02.999Z</time>
</trkpt>
<trkpt lat="43.646848" lon="3.116341">
<ele>294.6</ele>
<time>2013-05-08T16:42:03.999Z</time>
</trkpt>
<trkpt lat="43.646609" lon="3.116298">
<ele>294.8</ele>
<time>2013-05-08T16:42:04.999Z</time>
</trkpt>
<trkpt lat="43.64638" lon="3.116232">
<ele>295</ele>
<time>2013-05-08T16:42:05.999Z</time>
</trkpt>
<trkpt lat="43.646172" lon="3.116127">
<ele>295.3</ele>
<time>2013-05-08T16:42:06.999Z</time>
</trkpt>
<trkpt lat="43.645987" lon="3.11598">
<ele>296.1</ele>
<time>2013-05-08T16:42:07.999Z</time>
</trkpt>
<trkpt lat="43.645826" lon="3.115803">
<ele>296.8</ele>
<time>2013-05-08T16:42:08.999Z</time>
</trkpt>
<trkpt lat="43.645659" lon="3.115615">
<ele>297.5</ele>
<time>2013-05-08T16:42:09.999Z</time>
</trkpt>
<trkpt lat="43.645476" lon="3.11545">
<ele>297.5</ele>
<time>2013-05-08T16:42:10.999Z</time>
</trkpt>
<trkpt lat="43.645289" lon="3.115304">
<ele>297.2</ele>
<time>2013-05-08T16:42:11.999Z</time>
</trkpt>
<trkpt lat="43.645103" lon="3.115125">
<ele>296.8</ele>
<time>2013-05-08T16:42:12.999Z</time>
</trkpt>
<trkpt lat="43.644932" lon="3.114924">
<ele>296.4</ele>
<time>2013-05-08T16:42:13.999Z</time>
</trkpt>
<trkpt lat="43.644784" lon="3.114673">
<ele>296.5</ele>
<time>2013-05-08T16:42:14.999Z</time>
</trkpt>
<trkpt lat="43.644656" lon="3.114388">
<ele>295.7</ele>
<time>2013-05-08T16:42:15.999Z</time>
</trkpt>
<trkpt lat="43.644525" lon="3.11411">
<ele>295.3</ele>
<time>2013-05-08T16:42:16.999Z</time>
</trkpt>
<trkpt lat="43.644416" lon="3.113832">
<ele>295.1</ele>
<time>2013-05-08T16:42:17.999Z</time>
</trkpt>
<trkpt lat="43.644325" lon="3.113542">
<ele>295.1</ele>
<time>2013-05-08T16:42:18.999Z</time>
</trkpt>
<trkpt lat="43.644251" lon="3.113268">
<ele>295.2</ele>
<time>2013-05-08T16:42:19.999Z</time>
</trkpt>
<trkpt lat="43.644221" lon="3.113007">
<ele>295.1</ele>
<time>2013-05-08T16:42:20.999Z</time>
</trkpt>
<trkpt lat="43.644235" lon="3.112748">
<ele>294.9</ele>
<time>2013-05-08T16:42:21.999Z</time>
</trkpt>
<trkpt lat="43.644282" lon="3.11249">
<ele>294.6</ele>
<time>2013-05-08T16:42:22.999Z</time>
</trkpt>
<trkpt lat="43.644395" lon="3.112241">
<ele>294.6</ele>
<time>2013-05-08T16:42:23.999Z</time>
</trkpt>
<trkpt lat="43.644535" lon="3.112037">
<ele>295</ele>
<time>2013-05-08T16:42:24.999Z</time>
</trkpt>
<trkpt lat="43.644688" lon="3.11186">
<ele>295.4</ele>
<time>2013-05-08T16:42:25.999Z</time>
</trkpt>
<trkpt lat="43.644842" lon="3.111689">
<ele>294.8</ele>
<time>2013-05-08T16:42:26.999Z</time>
</trkpt>
<trkpt lat="43.645009" lon="3.111514">
<ele>294.2</ele>
<time>2013-05-08T16:42:27.999Z</time>
</trkpt>
<trkpt lat="43.64517" lon="3.111331">
<ele>293.8</ele>
<time>2013-05-08T16:42:28.999Z</time>
</trkpt>
<trkpt lat="43.645306" lon="3.111142">
<ele>293.6</ele>
<time>2013-05-08T16:42:29.999Z</time>
</trkpt>
<trkpt lat="43.645403" lon="3.11092">
<ele>293.2</ele>
<time>2013-05-08T16:42:30.999Z</time>
</trkpt>
<trkpt lat="43.645446" lon="3.11067">
<ele>292.9</ele>
<time>2013-05-08T16:42:31.999Z</time>
</trkpt>
<trkpt lat="43.645451" lon="3.110398">
<ele>293.5</ele>
<time>2013-05-08T16:42:32.999Z</time>
</trkpt>
<trkpt lat="43.64544" lon="3.110127">
<ele>293.8</ele>
<time>2013-05-08T16:42:33.999Z</time>
</trkpt>
<trkpt lat="43.64543" lon="3.109857">
<ele>293.2</ele>
<time>2013-05-08T16:42:34.999Z</time>
</trkpt>
<trkpt lat="43.645393" lon="3.109577">
<ele>292.7</ele>
<time>2013-05-08T16:42:35.999Z</time>
</trkpt>
<trkpt lat="43.645337" lon="3.109292">
<ele>292.7</ele>
<time>2013-05-08T16:42:36.999Z</time>
</trkpt>
<trkpt lat="43.645278" lon="3.10902">
<ele>292.5</ele>
<time>2013-05-08T16:42:37.999Z</time>
</trkpt>
<trkpt lat="43.64522" lon="3.108761">
<ele>292.2</ele>
<time>2013-05-08T16:42:38.999Z</time>
</trkpt>
<trkpt lat="43.645157" lon="3.108522">
<ele>292.2</ele>
<time>2013-05-08T16:42:39.999Z</time>
</trkpt>
<trkpt lat="43.645077" lon="3.108317">
<ele>292.4</ele>
<time>2013-05-08T16:42:40.999Z</time>
</trkpt>
<trkpt lat="43.644971" lon="3.108155">
<ele>292.3</ele>
<time>2013-05-08T16:42:41.999Z</time>
</trkpt>
<trkpt lat="43.644829" lon="3.108031">
<ele>292.5</ele>
<time>2013-05-08T16:42:42.999Z</time>
</trkpt>
<trkpt lat="43.644673" lon="3.107907">
<ele>292.8</ele>
<time>2013-05-08T16:42:43.999Z</time>
</trkpt>
<trkpt lat="43.644501" lon="3.107788">
<ele>293.3</ele>
<time>2013-05-08T16:42:44.999Z</time>
</trkpt>
<trkpt lat="43.644327" lon="3.107678">
<ele>293.4</ele>
<time>2013-05-08T16:42:45.999Z</time>
</trkpt>
<trkpt lat="43.644143" lon="3.107584">
<ele>292.7</ele>
<time>2013-05-08T16:42:46.999Z</time>
</trkpt>
<trkpt lat="43.643933" lon="3.107499">
<ele>292.2</ele>
<time>2013-05-08T16:42:47.999Z</time>
</trkpt>
<trkpt lat="43.643703" lon="3.107435">
<ele>291.8</ele>
<time>2013-05-08T16:42:48.999Z</time>
</trkpt>
<trkpt lat="43.643466" lon="3.107384">
<ele>291.2</ele>
<time>2013-05-08T16:42:49.999Z</time>
</trkpt>
<trkpt lat="43.64322" lon="3.107341">
<ele>290.6</ele>
<time>2013-05-08T16:42:50.999Z</time>
</trkpt>
<trkpt lat="43.642956" lon="3.107435">
<ele>290.1</ele>
<time>2013-05-08T16:42:51.999Z</time>
</trkpt>
<trkpt lat="43.642677" lon="3.107523">
<ele>289.7</ele>
<time>2013-05-08T16:42:52.999Z</time>
</trkpt>
<trkpt lat="43.642396" lon="3.107602">
<ele>288.8</ele>
<time>2013-05-08T16:42:53.999Z</time>
</trkpt>
<trkpt lat="43.642097" lon="3.107681">
<ele>289</ele>
<time>2013-05-08T16:42:54.999Z</time>
</trkpt>
<trkpt lat="43.641815" lon="3.107751">
<ele>288.7</ele>
<time>2013-05-08T16:42:55.999Z</time>
</trkpt>
<trkpt lat="43.641532" lon="3.107812">
<ele>288.1</ele>
<time>2013-05-08T16:42:56.999Z</time>
</trkpt>
<trkpt lat="43.641257" lon="3.107875">
<ele>287.3</ele>
<time>2013-05-08T16:42:57.999Z</time>
</trkpt>
<trkpt lat="43.640999" lon="3.107931">
<ele>286.4</ele>
<time>2013-05-08T16:42:58.999Z</time>
</trkpt>
<trkpt lat="43.64075" lon="3.107978">
<ele>285.6</ele>
<time>2013-05-08T16:42:59.999Z</time>
</trkpt>
<trkpt lat="43.640503" lon="3.10803">
<ele>284.8</ele>
<time>2013-05-08T16:43:00.999Z</time>
</trkpt>
<trkpt lat="43.640261" lon="3.108084">
<ele>283.8</ele>
<time>2013-05-08T16:43:01.999Z</time>
</trkpt>
<trkpt lat="43.640017" lon="3.108147">
<ele>282.9</ele>
<time>2013-05-08T16:43:02.999Z</time>
</trkpt>
<trkpt lat="43.639764" lon="3.108222">
<ele>282</ele>
<time>2013-05-08T16:43:03.999Z</time>
</trkpt>
<trkpt lat="43.639513" lon="3.108294">
<ele>281.2</ele>
<time>2013-05-08T16:43:04.999Z</time>
</trkpt>
<trkpt lat="43.63927" lon="3.108366">
<ele>280.4</ele>
<time>2013-05-08T16:43:05.999Z</time>
</trkpt>
<trkpt lat="43.639034" lon="3.108442">
<ele>279.8</ele>
<time>2013-05-08T16:43:06.999Z</time>
</trkpt>
<trkpt lat="43.638806" lon="3.108516">
<ele>279.3</ele>
<time>2013-05-08T16:43:07.999Z</time>
</trkpt>
<trkpt lat="43.638586" lon="3.108586">
<ele>278.8</ele>
<time>2013-05-08T16:43:08.999Z</time>
</trkpt>
<trkpt lat="43.638365" lon="3.108656">
<ele>278.4</ele>
<time>2013-05-08T16:43:09.999Z</time>
</trkpt>
<trkpt lat="43.638151" lon="3.108724">
<ele>278</ele>
<time>2013-05-08T16:43:10.999Z</time>
</trkpt>
<trkpt lat="43.637945" lon="3.108787">
<ele>277.6</ele>
<time>2013-05-08T16:43:11.999Z</time>
</trkpt>
<trkpt lat="43.637751" lon="3.108847">
<ele>277.3</ele>
<time>2013-05-08T16:43:12.999Z</time>
</trkpt>
<trkpt lat="43.63757" lon="3.108902">
<ele>277</ele>
<time>2013-05-08T16:43:13.999Z</time>
</trkpt>
<trkpt lat="43.637402" lon="3.108951">
<ele>276.8</ele>
<time>2013-05-08T16:43:14.999Z</time>
</trkpt>
<trkpt lat="43.637247" lon="3.108996">
<ele>276.5</ele>
<time>2013-05-08T16:43:15.999Z</time>
</trkpt>
<trkpt lat="43.637108" lon="3.109038">
<ele>276.2</ele>
<time>2013-05-08T16:43:16.999Z</time>
</trkpt>
<trkpt lat="43.63697" lon="3.109077">
<ele>276.1</ele>
<time>2013-05-08T16:43:17.999Z</time>
</trkpt>
<trkpt lat="43.636836" lon="3.109115">
<ele>276</ele>
<time>2013-05-08T16:43:18.999Z</time>
</trkpt>
<trkpt lat="43.636703" lon="3.109155">
<ele>275.8</ele>
<time>2013-05-08T16:43:19.999Z</time>
</trkpt>
<trkpt lat="43.636579" lon="3.109199">
<ele>275.6</ele>
<time>2013-05-08T16:43:20.999Z</time>
</trkpt>
<trkpt lat="43.63647" lon="3.10924">
<ele>275.4</ele>
<time>2013-05-08T16:43:21.999Z</time>
</trkpt>
<trkpt lat="43.636364" lon="3.109284">
<ele>275.1</ele>
<time>2013-05-08T16:43:22.999Z</time>
</trkpt>
<trkpt lat="43.636266" lon="3.109324">
<ele>274.9</ele>
<time>2013-05-08T16:43:23.999Z</time>
</trkpt>
<trkpt lat="43.636173" lon="3.109359">
<ele>275</ele>
<time>2013-05-08T16:43:24.999Z</time>
</trkpt>
<trkpt lat="43.636078" lon="3.109383">
<ele>275.2</ele>
<time>2013-05-08T16:43:25.999Z</time>
</trkpt>
<trkpt lat="43.635975" lon="3.109397">
<ele>275.1</ele>
<time>2013-05-08T16:43:26.999Z</time>
</trkpt>
<trkpt lat="43.635867" lon="3.109408">
<ele>274.8</ele>
<time>2013-05-08T16:43:27.999Z</time>
</trkpt>
<trkpt lat="43.635743" lon="3.109421">
<ele>274.5</ele>
<time>2013-05-08T16:43:28.999Z</time>
</trkpt>
<trkpt lat="43.6356" lon="3.109433">
<ele>274.4</ele>
<time>2013-05-08T16:43:29.999Z</time>
</trkpt>
<trkpt lat="43.635455" lon="3.109447">
<ele>274.2</ele>
<time>2013-05-08T16:43:30.999Z</time>
</trkpt>
<trkpt lat="43.635312" lon="3.10946">
<ele>273.9</ele>
<time>2013-05-08T16:43:31.999Z</time>
</trkpt>
<trkpt lat="43.635161" lon="3.109479">
<ele>273.7</ele>
<time>2013-05-08T16:43:32.999Z</time>
</trkpt>
<trkpt lat="43.635003" lon="3.109501">
<ele>273.5</ele>
<time>2013-05-08T16:43:33.999Z</time>
</trkpt>
<trkpt lat="43.634835" lon="3.109526">
<ele>273.1</ele>
<time>2013-05-08T16:43:34.999Z</time>
</trkpt>
<trkpt lat="43.634657" lon="3.109551">
<ele>272.7</ele>
<time>2013-05-08T16:43:35.999Z</time>
</trkpt>
<trkpt lat="43.634458" lon="3.109578">
<ele>272.4</ele>
<time>2013-05-08T16:43:36.999Z</time>
</trkpt>
<trkpt lat="43.634233" lon="3.1096">
<ele>272.1</ele>
<time>2013-05-08T16:43:37.999Z</time>
</trkpt>
<trkpt lat="43.633988" lon="3.109624">
<ele>271.9</ele>
<time>2013-05-08T16:43:38.999Z</time>
</trkpt>
<trkpt lat="43.633726" lon="3.109647">
<ele>272.1</ele>
<time>2013-05-08T16:43:39.999Z</time>
</trkpt>
<trkpt lat="43.633439" lon="3.109677">
<ele>272.4</ele>
<time>2013-05-08T16:43:40.999Z</time>
</trkpt>
<trkpt lat="43.633149" lon="3.109708">
<ele>272.7</ele>
<time>2013-05-08T16:43:41.999Z</time>
</trkpt>
<trkpt lat="43.632865" lon="3.109722">
<ele>272.8</ele>
<time>2013-05-08T16:43:42.999Z</time>
</trkpt>
<trkpt lat="43.632592" lon="3.109729">
<ele>272.9</ele>
<time>2013-05-08T16:43:43.999Z</time>
</trkpt>
<trkpt lat="43.632331" lon="3.109735">
<ele>272.8</ele>
<time>2013-05-08T16:43:44.999Z</time>
</trkpt>
<trkpt lat="43.632083" lon="3.109743">
<ele>272.7</ele>
<time>2013-05-08T16:43:45.999Z</time>
</trkpt>
<trkpt lat="43.631836" lon="3.10976">
<ele>272.5</ele>
<time>2013-05-08T16:43:46.999Z</time>
</trkpt>
<trkpt lat="43.631587" lon="3.109788">
<ele>272.2</ele>
<time>2013-05-08T16:43:47.999Z</time>
</trkpt>
<trkpt lat="43.631336" lon="3.109837">
<ele>271.9</ele>
<time>2013-05-08T16:43:48.999Z</time>
</trkpt>
<trkpt lat="43.631083" lon="3.109913">
<ele>271.4</ele>
<time>2013-05-08T16:43:49.999Z</time>
</trkpt>
<trkpt lat="43.630834" lon="3.110013">
<ele>271</ele>
<time>2013-05-08T16:43:50.999Z</time>
</trkpt>
<trkpt lat="43.630591" lon="3.110139">
<ele>270.6</ele>
<time>2013-05-08T16:43:51.999Z</time>
</trkpt>
<trkpt lat="43.630347" lon="3.110287">
<ele>270.4</ele>
<time>2013-05-08T16:43:52.999Z</time>
</trkpt>
<trkpt lat="43.630105" lon="3.110439">
<ele>270.3</ele>
<time>2013-05-08T16:43:53.999Z</time>
</trkpt>
<trkpt lat="43.62986" lon="3.110593">
<ele>270.2</ele>
<time>2013-05-08T16:43:54.999Z</time>
</trkpt>
<trkpt lat="43.629618" lon="3.110741">
<ele>270.1</ele>
<time>2013-05-08T16:43:55.999Z</time>
</trkpt>
<trkpt lat="43.629371" lon="3.110875">
<ele>270</ele>
<time>2013-05-08T16:43:56.999Z</time>
</trkpt>
<trkpt lat="43.629121" lon="3.110989">
<ele>270.1</ele>
<time>2013-05-08T16:43:57.999Z</time>
</trkpt>
<trkpt lat="43.62887" lon="3.111069">
<ele>270.2</ele>
<time>2013-05-08T16:43:58.999Z</time>
</trkpt>
<trkpt lat="43.628617" lon="3.111127">
<ele>270.2</ele>
<time>2013-05-08T16:43:59.999Z</time>
</trkpt>
<trkpt lat="43.62837" lon="3.111165">
<ele>270.4</ele>
<time>2013-05-08T16:44:00.999Z</time>
</trkpt>
<trkpt lat="43.628135" lon="3.111212">
<ele>270.3</ele>
<time>2013-05-08T16:44:01.999Z</time>
</trkpt>
<trkpt lat="43.627915" lon="3.111269">
<ele>270</ele>
<time>2013-05-08T16:44:02.999Z</time>
</trkpt>
<trkpt lat="43.627699" lon="3.111331">
<ele>269.7</ele>
<time>2013-05-08T16:44:03.999Z</time>
</trkpt>
<trkpt lat="43.6275" lon="3.1114">
<ele>269.5</ele>
<time>2013-05-08T16:44:04.999Z</time>
</trkpt>
<trkpt lat="43.627309" lon="3.111467">
<ele>269.2</ele>
<time>2013-05-08T16:44:05.999Z</time>
</trkpt>
<trkpt lat="43.627147" lon="3.111551">
<ele>269.1</ele>
<time>2013-05-08T16:44:06.999Z</time>
</trkpt>
<trkpt lat="43.626995" lon="3.111614">
<ele>269.2</ele>
<time>2013-05-08T16:44:07.999Z</time>
</trkpt>
<trkpt lat="43.626874" lon="3.111618">
<ele>269.5</ele>
<time>2013-05-08T16:44:08.999Z</time>
</trkpt>
<trkpt lat="43.626777" lon="3.111564">
<ele>269.9</ele>
<time>2013-05-08T16:44:09.999Z</time>
</trkpt>
<trkpt lat="43.626693" lon="3.111459">
<ele>270.2</ele>
<time>2013-05-08T16:44:10.999Z</time>
</trkpt>
<trkpt lat="43.626614" lon="3.111329">
<ele>270</ele>
<time>2013-05-08T16:44:11.999Z</time>
</trkpt>
<trkpt lat="43.626534" lon="3.111189">
<ele>269.8</ele>
<time>2013-05-08T16:44:13.000Z</time>
</trkpt>
<trkpt lat="43.626439" lon="3.111027">
<ele>269.5</ele>
<time>2013-05-08T16:44:14.000Z</time>
</trkpt>
<trkpt lat="43.626308" lon="3.110897">
<ele>269.2</ele>
<time>2013-05-08T16:44:15.000Z</time>
</trkpt>
<trkpt lat="43.626159" lon="3.110825">
<ele>268.9</ele>
<time>2013-05-08T16:44:16.000Z</time>
</trkpt>
<trkpt lat="43.626005" lon="3.110809">
<ele>269.2</ele>
<time>2013-05-08T16:44:17.000Z</time>
</trkpt>
<trkpt lat="43.62582" lon="3.11087">
<ele>270.8</ele>
<time>2013-05-08T16:44:18.000Z</time>
</trkpt>
<trkpt lat="43.625649" lon="3.111019">
<ele>272.1</ele>
<time>2013-05-08T16:44:19.000Z</time>
</trkpt>
<trkpt lat="43.625452" lon="3.11118">
<ele>272.3</ele>
<time>2013-05-08T16:44:20.000Z</time>
</trkpt>
<trkpt lat="43.62529" lon="3.11133">
<ele>271.5</ele>
<time>2013-05-08T16:44:21.000Z</time>
</trkpt>
<trkpt lat="43.625103" lon="3.111499">
<ele>270.6</ele>
<time>2013-05-08T16:44:22.000Z</time>
</trkpt>
<trkpt lat="43.62491" lon="3.11167">
<ele>269.9</ele>
<time>2013-05-08T16:44:23.000Z</time>
</trkpt>
<trkpt lat="43.624721" lon="3.111839">
<ele>269.7</ele>
<time>2013-05-08T16:44:24.000Z</time>
</trkpt>
<trkpt lat="43.624535" lon="3.112008">
<ele>269.8</ele>
<time>2013-05-08T16:44:25.000Z</time>
</trkpt>
<trkpt lat="43.624358" lon="3.112195">
<ele>269.5</ele>
<time>2013-05-08T16:44:26.000Z</time>
</trkpt>
<trkpt lat="43.624206" lon="3.112398">
<ele>269.2</ele>
<time>2013-05-08T16:44:27.000Z</time>
</trkpt>
<trkpt lat="43.624089" lon="3.112625">
<ele>268.9</ele>
<time>2013-05-08T16:44:28.000Z</time>
</trkpt>
<trkpt lat="43.624001" lon="3.11289">
<ele>268.8</ele>
<time>2013-05-08T16:44:29.000Z</time>
</trkpt>
<trkpt lat="43.623958" lon="3.11318">
<ele>269.3</ele>
<time>2013-05-08T16:44:30.000Z</time>
</trkpt>
<trkpt lat="43.623954" lon="3.113477">
<ele>269.9</ele>
<time>2013-05-08T16:44:31.000Z</time>
</trkpt>
<trkpt lat="43.623963" lon="3.113776">
<ele>270.2</ele>
<time>2013-05-08T16:44:32.000Z</time>
</trkpt>
<trkpt lat="43.623981" lon="3.114078">
<ele>270.6</ele>
<time>2013-05-08T16:44:33.000Z</time>
</trkpt>
<trkpt lat="43.62402" lon="3.114395">
<ele>271.1</ele>
<time>2013-05-08T16:44:34.000Z</time>
</trkpt>
<trkpt lat="43.624091" lon="3.114703">
<ele>271.7</ele>
<time>2013-05-08T16:44:35.000Z</time>
</trkpt>
<trkpt lat="43.624194" lon="3.115001">
<ele>272.2</ele>
<time>2013-05-08T16:44:36.000Z</time>
</trkpt>
<trkpt lat="43.624291" lon="3.115291">
<ele>272.8</ele>
<time>2013-05-08T16:44:37.000Z</time>
</trkpt>
<trkpt lat="43.624392" lon="3.115587">
<ele>273.3</ele>
<time>2013-05-08T16:44:38.000Z</time>
</trkpt>
<trkpt lat="43.624491" lon="3.115882">
<ele>274</ele>
<time>2013-05-08T16:44:39.000Z</time>
</trkpt>
<trkpt lat="43.624572" lon="3.116181">
<ele>274.5</ele>
<time>2013-05-08T16:44:40.000Z</time>
</trkpt>
<trkpt lat="43.624627" lon="3.116478">
<ele>274.9</ele>
<time>2013-05-08T16:44:41.000Z</time>
</trkpt>
<trkpt lat="43.62466" lon="3.116786">
<ele>275</ele>
<time>2013-05-08T16:44:42.000Z</time>
</trkpt>
<trkpt lat="43.624656" lon="3.117099">
<ele>274.8</ele>
<time>2013-05-08T16:44:43.000Z</time>
</trkpt>
<trkpt lat="43.624635" lon="3.117392">
<ele>274.1</ele>
<time>2013-05-08T16:44:44.000Z</time>
</trkpt>
<trkpt lat="43.624591" lon="3.117677">
<ele>273.1</ele>
<time>2013-05-08T16:44:45.000Z</time>
</trkpt>
<trkpt lat="43.624499" lon="3.117963">
<ele>272.1</ele>
<time>2013-05-08T16:44:46.000Z</time>
</trkpt>
<trkpt lat="43.624392" lon="3.118222">
<ele>271.1</ele>
<time>2013-05-08T16:44:47.000Z</time>
</trkpt>
<trkpt lat="43.624279" lon="3.118473">
<ele>270</ele>
<time>2013-05-08T16:44:48.000Z</time>
</trkpt>
<trkpt lat="43.624164" lon="3.118724">
<ele>268.9</ele>
<time>2013-05-08T16:44:49.000Z</time>
</trkpt>
<trkpt lat="43.624064" lon="3.118983">
<ele>268</ele>
<time>2013-05-08T16:44:50.000Z</time>
</trkpt>
<trkpt lat="43.623982" lon="3.119254">
<ele>267.2</ele>
<time>2013-05-08T16:44:51.000Z</time>
</trkpt>
<trkpt lat="43.623914" lon="3.119537">
<ele>266.7</ele>
<time>2013-05-08T16:44:52.000Z</time>
</trkpt>
<trkpt lat="43.623854" lon="3.119816">
<ele>266.1</ele>
<time>2013-05-08T16:44:53.000Z</time>
</trkpt>
<trkpt lat="43.623793" lon="3.120096">
<ele>265.4</ele>
<time>2013-05-08T16:44:54.000Z</time>
</trkpt>
<trkpt lat="43.623732" lon="3.12035">
<ele>264.7</ele>
<time>2013-05-08T16:44:55.000Z</time>
</trkpt>
<trkpt lat="43.623666" lon="3.120596">
<ele>263.9</ele>
<time>2013-05-08T16:44:56.000Z</time>
</trkpt>
<trkpt lat="43.623589" lon="3.120837">
<ele>263.2</ele>
<time>2013-05-08T16:44:57.000Z</time>
</trkpt>
<trkpt lat="43.623491" lon="3.121072">
<ele>262.6</ele>
<time>2013-05-08T16:44:58.000Z</time>
</trkpt>
<trkpt lat="43.623385" lon="3.121284">
<ele>261.8</ele>
<time>2013-05-08T16:44:59.000Z</time>
</trkpt>
<trkpt lat="43.623257" lon="3.121486">
<ele>261.3</ele>
<time>2013-05-08T16:45:00.000Z</time>
</trkpt>
<trkpt lat="43.623126" lon="3.121671">
<ele>260.6</ele>
<time>2013-05-08T16:45:01.000Z</time>
</trkpt>
<trkpt lat="43.622976" lon="3.12184">
<ele>259.8</ele>
<time>2013-05-08T16:45:02.000Z</time>
</trkpt>
<trkpt lat="43.622812" lon="3.121989">
<ele>258.9</ele>
<time>2013-05-08T16:45:03.000Z</time>
</trkpt>
<trkpt lat="43.62263" lon="3.122117">
<ele>258.1</ele>
<time>2013-05-08T16:45:04.000Z</time>
</trkpt>
<trkpt lat="43.622439" lon="3.12223">
<ele>257</ele>
<time>2013-05-08T16:45:05.000Z</time>
</trkpt>
<trkpt lat="43.622244" lon="3.122322">
<ele>256</ele>
<time>2013-05-08T16:45:06.000Z</time>
</trkpt>
<trkpt lat="43.622047" lon="3.122392">
<ele>255</ele>
<time>2013-05-08T16:45:07.000Z</time>
</trkpt>
<trkpt lat="43.621855" lon="3.122445">
<ele>254.4</ele>
<time>2013-05-08T16:45:08.000Z</time>
</trkpt>
<trkpt lat="43.621669" lon="3.122486">
<ele>253.8</ele>
<time>2013-05-08T16:45:09.000Z</time>
</trkpt>
<trkpt lat="43.621474" lon="3.122527">
<ele>253.5</ele>
<time>2013-05-08T16:45:10.000Z</time>
</trkpt>
<trkpt lat="43.621266" lon="3.122575">
<ele>253.2</ele>
<time>2013-05-08T16:45:11.000Z</time>
</trkpt>
<trkpt lat="43.621045" lon="3.122618">
<ele>252.6</ele>
<time>2013-05-08T16:45:12.000Z</time>
</trkpt>
<trkpt lat="43.620808" lon="3.122608">
<ele>252.2</ele>
<time>2013-05-08T16:45:13.000Z</time>
</trkpt>
<trkpt lat="43.620575" lon="3.122546">
<ele>251.8</ele>
<time>2013-05-08T16:45:14.000Z</time>
</trkpt>
<trkpt lat="43.620356" lon="3.122443">
<ele>251.7</ele>
<time>2013-05-08T16:45:15.000Z</time>
</trkpt>
<trkpt lat="43.620162" lon="3.122337">
<ele>251.5</ele>
<time>2013-05-08T16:45:16.000Z</time>
</trkpt>
<trkpt lat="43.619996" lon="3.122237">
<ele>251.2</ele>
<time>2013-05-08T16:45:17.000Z</time>
</trkpt>
<trkpt lat="43.619838" lon="3.122139">
<ele>251.1</ele>
<time>2013-05-08T16:45:18.000Z</time>
</trkpt>
<trkpt lat="43.619682" lon="3.122042">
<ele>251.1</ele>
<time>2013-05-08T16:45:19.000Z</time>
</trkpt>
<trkpt lat="43.619536" lon="3.121954">
<ele>251</ele>
<time>2013-05-08T16:45:20.000Z</time>
</trkpt>
<trkpt lat="43.619405" lon="3.121877">
<ele>251.1</ele>
<time>2013-05-08T16:45:21.000Z</time>
</trkpt>
<trkpt lat="43.619298" lon="3.12181">
<ele>250.9</ele>
<time>2013-05-08T16:45:22.000Z</time>
</trkpt>
<trkpt lat="43.619204" lon="3.121749">
<ele>250.4</ele>
<time>2013-05-08T16:45:23.000Z</time>
</trkpt>
<trkpt lat="43.619112" lon="3.121687">
<ele>250</ele>
<time>2013-05-08T16:45:24.000Z</time>
</trkpt>
<trkpt lat="43.619021" lon="3.121627">
<ele>249.7</ele>
<time>2013-05-08T16:45:25.000Z</time>
</trkpt>
<trkpt lat="43.618941" lon="3.121573">
<ele>249.4</ele>
<time>2013-05-08T16:45:26.000Z</time>
</trkpt>
<trkpt lat="43.618857" lon="3.121519">
<ele>249.4</ele>
<time>2013-05-08T16:45:27.000Z</time>
</trkpt>
<trkpt lat="43.618778" lon="3.121463">
<ele>249.4</ele>
<time>2013-05-08T16:45:28.000Z</time>
</trkpt>
<trkpt lat="43.618696" lon="3.121394">
<ele>249.6</ele>
<time>2013-05-08T16:45:29.000Z</time>
</trkpt>
<trkpt lat="43.618634" lon="3.121294">
<ele>250.2</ele>
<time>2013-05-08T16:45:30.000Z</time>
</trkpt>
<trkpt lat="43.618565" lon="3.121172">
<ele>250.8</ele>
<time>2013-05-08T16:45:31.000Z</time>
</trkpt>
<trkpt lat="43.618508" lon="3.12105">
<ele>251</ele>
<time>2013-05-08T16:45:32.000Z</time>
</trkpt>
<trkpt lat="43.61846" lon="3.120934">
<ele>251</ele>
<time>2013-05-08T16:45:33.000Z</time>
</trkpt>
<trkpt lat="43.618422" lon="3.120799">
<ele>251.3</ele>
<time>2013-05-08T16:45:34.000Z</time>
</trkpt>
<trkpt lat="43.618398" lon="3.120673">
<ele>251.4</ele>
<time>2013-05-08T16:45:35.000Z</time>
</trkpt>
<trkpt lat="43.618375" lon="3.120542">
<ele>251.8</ele>
<time>2013-05-08T16:45:36.000Z</time>
</trkpt>
<trkpt lat="43.618354" lon="3.1204">
<ele>252.7</ele>
<time>2013-05-08T16:45:37.000Z</time>
</trkpt>
<trkpt lat="43.618337" lon="3.120273">
<ele>252.9</ele>
<time>2013-05-08T16:45:38.000Z</time>
</trkpt>
<trkpt lat="43.618318" lon="3.120145">
<ele>253.6</ele>
<time>2013-05-08T16:45:39.000Z</time>
</trkpt>
<trkpt lat="43.6183" lon="3.120025">
<ele>254</ele>
<time>2013-05-08T16:45:40.000Z</time>
</trkpt>
<trkpt lat="43.618274" lon="3.119894">
<ele>254.2</ele>
<time>2013-05-08T16:45:41.000Z</time>
</trkpt>
<trkpt lat="43.618251" lon="3.119801">
<ele>254.7</ele>
<time>2013-05-08T16:45:42.000Z</time>
</trkpt>
<trkpt lat="43.618231" lon="3.1197">
<ele>255</ele>
<time>2013-05-08T16:45:43.000Z</time>
</trkpt>
<trkpt lat="43.618207" lon="3.119594">
<ele>255.1</ele>
<time>2013-05-08T16:45:44.000Z</time>
</trkpt>
<trkpt lat="43.618181" lon="3.119479">
<ele>255.4</ele>
<time>2013-05-08T16:45:45.000Z</time>
</trkpt>
<trkpt lat="43.61815" lon="3.11934">
<ele>255.4</ele>
<time>2013-05-08T16:45:46.000Z</time>
</trkpt>
<trkpt lat="43.618122" lon="3.119196">
<ele>255.4</ele>
<time>2013-05-08T16:45:47.000Z</time>
</trkpt>
<trkpt lat="43.618108" lon="3.119065">
<ele>255.4</ele>
<time>2013-05-08T16:45:48.000Z</time>
</trkpt>
<trkpt lat="43.618091" lon="3.118902">
<ele>254.7</ele>
<time>2013-05-08T16:45:49.000Z</time>
</trkpt>
<trkpt lat="43.618048" lon="3.118682">
<ele>253.4</ele>
<time>2013-05-08T16:45:50.000Z</time>
</trkpt>
<trkpt lat="43.618003" lon="3.118489">
<ele>252.2</ele>
<time>2013-05-08T16:45:51.000Z</time>
</trkpt>
<trkpt lat="43.617961" lon="3.1183">
<ele>251.3</ele>
<time>2013-05-08T16:45:52.000Z</time>
</trkpt>
<trkpt lat="43.617924" lon="3.118136">
<ele>251</ele>
<time>2013-05-08T16:45:53.000Z</time>
</trkpt>
<trkpt lat="43.617891" lon="3.117991">
<ele>250.6</ele>
<time>2013-05-08T16:45:54.000Z</time>
</trkpt>
<trkpt lat="43.617863" lon="3.117867">
<ele>250</ele>
<time>2013-05-08T16:45:55.000Z</time>
</trkpt>
<trkpt lat="43.617837" lon="3.11775">
<ele>249.2</ele>
<time>2013-05-08T16:45:56.000Z</time>
</trkpt>
<trkpt lat="43.617814" lon="3.117646">
<ele>248.5</ele>
<time>2013-05-08T16:45:57.000Z</time>
</trkpt>
<trkpt lat="43.617784" lon="3.117567">
<ele>247.9</ele>
<time>2013-05-08T16:45:58.000Z</time>
</trkpt>
<trkpt lat="43.61773" lon="3.117488">
<ele>247.4</ele>
<time>2013-05-08T16:45:59.000Z</time>
</trkpt>
<trkpt lat="43.61767" lon="3.117446">
<ele>247.4</ele>
<time>2013-05-08T16:46:00.000Z</time>
</trkpt>
<trkpt lat="43.617584" lon="3.117444">
<ele>247.2</ele>
<time>2013-05-08T16:46:01.000Z</time>
</trkpt>
<trkpt lat="43.617488" lon="3.117453">
<ele>247.2</ele>
<time>2013-05-08T16:46:02.000Z</time>
</trkpt>
<trkpt lat="43.617382" lon="3.117466">
<ele>247.2</ele>
<time>2013-05-08T16:46:03.000Z</time>
</trkpt>
<trkpt lat="43.617273" lon="3.117482">
<ele>247.3</ele>
<time>2013-05-08T16:46:04.000Z</time>
</trkpt>
<trkpt lat="43.617174" lon="3.117499">
<ele>247.4</ele>
<time>2013-05-08T16:46:05.000Z</time>
</trkpt>
<trkpt lat="43.617091" lon="3.117513">
<ele>247.3</ele>
<time>2013-05-08T16:46:06.000Z</time>
</trkpt>
<trkpt lat="43.616992" lon="3.11753">
<ele>247</ele>
<time>2013-05-08T16:46:07.000Z</time>
</trkpt>
<trkpt lat="43.616887" lon="3.117545">
<ele>246.6</ele>
<time>2013-05-08T16:46:08.000Z</time>
</trkpt>
<trkpt lat="43.616764" lon="3.117561">
<ele>246.5</ele>
<time>2013-05-08T16:46:09.000Z</time>
</trkpt>
<trkpt lat="43.616659" lon="3.117582">
<ele>246.6</ele>
<time>2013-05-08T16:46:10.000Z</time>
</trkpt>
<trkpt lat="43.616552" lon="3.117603">
<ele>247.1</ele>
<time>2013-05-08T16:46:11.000Z</time>
</trkpt>
<trkpt lat="43.616445" lon="3.117622">
<ele>247.7</ele>
<time>2013-05-08T16:46:12.000Z</time>
</trkpt>
<trkpt lat="43.616349" lon="3.117641">
<ele>248.2</ele>
<time>2013-05-08T16:46:13.000Z</time>
</trkpt>
<trkpt lat="43.616265" lon="3.117657">
<ele>248.4</ele>
<time>2013-05-08T16:46:14.000Z</time>
</trkpt>
<trkpt lat="43.616188" lon="3.11767">
<ele>247.9</ele>
<time>2013-05-08T16:46:15.000Z</time>
</trkpt>
<trkpt lat="43.616113" lon="3.117688">
<ele>247.2</ele>
<time>2013-05-08T16:46:16.000Z</time>
</trkpt>
<trkpt lat="43.616033" lon="3.117715">
<ele>246.4</ele>
<time>2013-05-08T16:46:17.000Z</time>
</trkpt>
<trkpt lat="43.615948" lon="3.117755">
<ele>245.7</ele>
<time>2013-05-08T16:46:18.000Z</time>
</trkpt>
<trkpt lat="43.615864" lon="3.1178">
<ele>245</ele>
<time>2013-05-08T16:46:19.000Z</time>
</trkpt>
<trkpt lat="43.61578" lon="3.117846">
<ele>244.6</ele>
<time>2013-05-08T16:46:20.000Z</time>
</trkpt>
<trkpt lat="43.615696" lon="3.117896">
<ele>244.3</ele>
<time>2013-05-08T16:46:21.000Z</time>
</trkpt>
<trkpt lat="43.615591" lon="3.117963">
<ele>244.2</ele>
<time>2013-05-08T16:46:22.000Z</time>
</trkpt>
<trkpt lat="43.615457" lon="3.118046">
<ele>244.1</ele>
<time>2013-05-08T16:46:23.000Z</time>
</trkpt>
<trkpt lat="43.6153" lon="3.118141">
<ele>243.9</ele>
<time>2013-05-08T16:46:24.000Z</time>
</trkpt>
<trkpt lat="43.615133" lon="3.118241">
<ele>243.9</ele>
<time>2013-05-08T16:46:25.000Z</time>
</trkpt>
<trkpt lat="43.61497" lon="3.118337">
<ele>244</ele>
<time>2013-05-08T16:46:26.000Z</time>
</trkpt>
<trkpt lat="43.614803" lon="3.118437">
<ele>244.3</ele>
<time>2013-05-08T16:46:27.000Z</time>
</trkpt>
<trkpt lat="43.614641" lon="3.118538">
<ele>244.4</ele>
<time>2013-05-08T16:46:28.000Z</time>
</trkpt>
<trkpt lat="43.614478" lon="3.118639">
<ele>244.6</ele>
<time>2013-05-08T16:46:29.000Z</time>
</trkpt>
<trkpt lat="43.614312" lon="3.118745">
<ele>244.9</ele>
<time>2013-05-08T16:46:30.000Z</time>
</trkpt>
<trkpt lat="43.614125" lon="3.118845">
<ele>245.2</ele>
<time>2013-05-08T16:46:31.000Z</time>
</trkpt>
<trkpt lat="43.613919" lon="3.118932">
<ele>245.2</ele>
<time>2013-05-08T16:46:32.000Z</time>
</trkpt>
<trkpt lat="43.613697" lon="3.11901">
<ele>245.2</ele>
<time>2013-05-08T16:46:33.000Z</time>
</trkpt>
<trkpt lat="43.613471" lon="3.119087">
<ele>245.3</ele>
<time>2013-05-08T16:46:34.000Z</time>
</trkpt>
<trkpt lat="43.613252" lon="3.119162">
<ele>245.2</ele>
<time>2013-05-08T16:46:35.000Z</time>
</trkpt>
<trkpt lat="43.613041" lon="3.119237">
<ele>245</ele>
<time>2013-05-08T16:46:36.000Z</time>
</trkpt>
<trkpt lat="43.612837" lon="3.119318">
<ele>244.8</ele>
<time>2013-05-08T16:46:37.000Z</time>
</trkpt>
<trkpt lat="43.612636" lon="3.119409">
<ele>244.9</ele>
<time>2013-05-08T16:46:38.000Z</time>
</trkpt>
<trkpt lat="43.612442" lon="3.119501">
<ele>244.8</ele>
<time>2013-05-08T16:46:39.000Z</time>
</trkpt>
<trkpt lat="43.612255" lon="3.119599">
<ele>244.8</ele>
<time>2013-05-08T16:46:40.000Z</time>
</trkpt>
<trkpt lat="43.612084" lon="3.119694">
<ele>244.7</ele>
<time>2013-05-08T16:46:41.000Z</time>
</trkpt>
<trkpt lat="43.611916" lon="3.119794">
<ele>244.7</ele>
<time>2013-05-08T16:46:42.000Z</time>
</trkpt>
<trkpt lat="43.611748" lon="3.119892">
<ele>245</ele>
<time>2013-05-08T16:46:43.000Z</time>
</trkpt>
<trkpt lat="43.611588" lon="3.119986">
<ele>245.6</ele>
<time>2013-05-08T16:46:44.000Z</time>
</trkpt>
<trkpt lat="43.611431" lon="3.120073">
<ele>246.2</ele>
<time>2013-05-08T16:46:45.000Z</time>
</trkpt>
<trkpt lat="43.611262" lon="3.120146">
<ele>247.3</ele>
<time>2013-05-08T16:46:46.000Z</time>
</trkpt>
<trkpt lat="43.611076" lon="3.120213">
<ele>248.3</ele>
<time>2013-05-08T16:46:47.000Z</time>
</trkpt>
<trkpt lat="43.61087" lon="3.12027">
<ele>249.4</ele>
<time>2013-05-08T16:46:48.000Z</time>
</trkpt>
<trkpt lat="43.610661" lon="3.120282">
<ele>249.7</ele>
<time>2013-05-08T16:46:49.000Z</time>
</trkpt>
<trkpt lat="43.610441" lon="3.120286">
<ele>249.3</ele>
<time>2013-05-08T16:46:50.000Z</time>
</trkpt>
<trkpt lat="43.610216" lon="3.120293">
<ele>248.6</ele>
<time>2013-05-08T16:46:51.000Z</time>
</trkpt>
<trkpt lat="43.609985" lon="3.120303">
<ele>248.2</ele>
<time>2013-05-08T16:46:52.000Z</time>
</trkpt>
<trkpt lat="43.609766" lon="3.120304">
<ele>248.1</ele>
<time>2013-05-08T16:46:53.000Z</time>
</trkpt>
<trkpt lat="43.609556" lon="3.120302">
<ele>248</ele>
<time>2013-05-08T16:46:54.000Z</time>
</trkpt>
<trkpt lat="43.609347" lon="3.120299">
<ele>248.1</ele>
<time>2013-05-08T16:46:55.000Z</time>
</trkpt>
<trkpt lat="43.609146" lon="3.120237">
<ele>248.2</ele>
<time>2013-05-08T16:46:56.000Z</time>
</trkpt>
<trkpt lat="43.608933" lon="3.120155">
<ele>248.5</ele>
<time>2013-05-08T16:46:57.000Z</time>
</trkpt>
<trkpt lat="43.608718" lon="3.120035">
<ele>248.8</ele>
<time>2013-05-08T16:46:58.000Z</time>
</trkpt>
<trkpt lat="43.608493" lon="3.119895">
<ele>249.3</ele>
<time>2013-05-08T16:46:59.000Z</time>
</trkpt>
<trkpt lat="43.608274" lon="3.119755">
<ele>249.5</ele>
<time>2013-05-08T16:47:00.000Z</time>
</trkpt>
<trkpt lat="43.608053" lon="3.119616">
<ele>249.7</ele>
<time>2013-05-08T16:47:01.000Z</time>
</trkpt>
<trkpt lat="43.607831" lon="3.119482">
<ele>249.9</ele>
<time>2013-05-08T16:47:02.000Z</time>
</trkpt>
<trkpt lat="43.607607" lon="3.11937">
<ele>249.7</ele>
<time>2013-05-08T16:47:03.000Z</time>
</trkpt>
<trkpt lat="43.607372" lon="3.119285">
<ele>249.4</ele>
<time>2013-05-08T16:47:04.000Z</time>
</trkpt>
<trkpt lat="43.607122" lon="3.11923">
<ele>249.1</ele>
<time>2013-05-08T16:47:05.000Z</time>
</trkpt>
<trkpt lat="43.606872" lon="3.119194">
<ele>248.5</ele>
<time>2013-05-08T16:47:06.000Z</time>
</trkpt>
<trkpt lat="43.606621" lon="3.119161">
<ele>248</ele>
<time>2013-05-08T16:47:07.000Z</time>
</trkpt>
<trkpt lat="43.606366" lon="3.119132">
<ele>247.4</ele>
<time>2013-05-08T16:47:08.000Z</time>
</trkpt>
<trkpt lat="43.606109" lon="3.119102">
<ele>246.7</ele>
<time>2013-05-08T16:47:09.000Z</time>
</trkpt>
<trkpt lat="43.605848" lon="3.119075">
<ele>246.1</ele>
<time>2013-05-08T16:47:10.000Z</time>
</trkpt>
<trkpt lat="43.605592" lon="3.11905">
<ele>245.6</ele>
<time>2013-05-08T16:47:11.000Z</time>
</trkpt>
<trkpt lat="43.605335" lon="3.119018">
<ele>245.1</ele>
<time>2013-05-08T16:47:12.000Z</time>
</trkpt>
<trkpt lat="43.605086" lon="3.118985">
<ele>244.5</ele>
<time>2013-05-08T16:47:13.000Z</time>
</trkpt>
<trkpt lat="43.604837" lon="3.118953">
<ele>243.8</ele>
<time>2013-05-08T16:47:14.000Z</time>
</trkpt>
<trkpt lat="43.604584" lon="3.11892">
<ele>243.4</ele>
<time>2013-05-08T16:47:15.000Z</time>
</trkpt>
<trkpt lat="43.604332" lon="3.118896">
<ele>243</ele>
<time>2013-05-08T16:47:16.000Z</time>
</trkpt>
<trkpt lat="43.604076" lon="3.118871">
<ele>242.7</ele>
<time>2013-05-08T16:47:17.000Z</time>
</trkpt>
<trkpt lat="43.603813" lon="3.118855">
<ele>242.3</ele>
<time>2013-05-08T16:47:18.000Z</time>
</trkpt>
<trkpt lat="43.603556" lon="3.118835">
<ele>241.9</ele>
<time>2013-05-08T16:47:19.000Z</time>
</trkpt>
<trkpt lat="43.603301" lon="3.118809">
<ele>241.5</ele>
<time>2013-05-08T16:47:20.000Z</time>
</trkpt>
<trkpt lat="43.603048" lon="3.118764">
<ele>241.1</ele>
<time>2013-05-08T16:47:21.000Z</time>
</trkpt>
<trkpt lat="43.602796" lon="3.118711">
<ele>240.9</ele>
<time>2013-05-08T16:47:22.000Z</time>
</trkpt>
<trkpt lat="43.602545" lon="3.11865">
<ele>240.7</ele>
<time>2013-05-08T16:47:23.000Z</time>
</trkpt>
<trkpt lat="43.602299" lon="3.118588">
<ele>240.7</ele>
<time>2013-05-08T16:47:24.000Z</time>
</trkpt>
<trkpt lat="43.602053" lon="3.118524">
<ele>240.6</ele>
<time>2013-05-08T16:47:25.000Z</time>
</trkpt>
<trkpt lat="43.601807" lon="3.118461">
<ele>240.6</ele>
<time>2013-05-08T16:47:26.000Z</time>
</trkpt>
<trkpt lat="43.60156" lon="3.1184">
<ele>240.5</ele>
<time>2013-05-08T16:47:27.000Z</time>
</trkpt>
<trkpt lat="43.601313" lon="3.118338">
<ele>240.4</ele>
<time>2013-05-08T16:47:28.000Z</time>
</trkpt>
<trkpt lat="43.601067" lon="3.118279">
<ele>240.4</ele>
<time>2013-05-08T16:47:29.000Z</time>
</trkpt>
<trkpt lat="43.600824" lon="3.118219">
<ele>240.3</ele>
<time>2013-05-08T16:47:30.000Z</time>
</trkpt>
<trkpt lat="43.600583" lon="3.118162">
<ele>240.2</ele>
<time>2013-05-08T16:47:31.000Z</time>
</trkpt>
<trkpt lat="43.600357" lon="3.11811">
<ele>239.9</ele>
<time>2013-05-08T16:47:32.000Z</time>
</trkpt>
<trkpt lat="43.600143" lon="3.118064">
<ele>239.6</ele>
<time>2013-05-08T16:47:33.000Z</time>
</trkpt>
<trkpt lat="43.599937" lon="3.118018">
<ele>239.1</ele>
<time>2013-05-08T16:47:34.000Z</time>
</trkpt>
<trkpt lat="43.599734" lon="3.117972">
<ele>239.2</ele>
<time>2013-05-08T16:47:35.000Z</time>
</trkpt>
<trkpt lat="43.59955" lon="3.117919">
<ele>239.5</ele>
<time>2013-05-08T16:47:36.000Z</time>
</trkpt>
<trkpt lat="43.59937" lon="3.117859">
<ele>239.8</ele>
<time>2013-05-08T16:47:37.000Z</time>
</trkpt>
<trkpt lat="43.599191" lon="3.117799">
<ele>240.1</ele>
<time>2013-05-08T16:47:38.000Z</time>
</trkpt>
<trkpt lat="43.599011" lon="3.117718">
<ele>240.2</ele>
<time>2013-05-08T16:47:39.000Z</time>
</trkpt>
<trkpt lat="43.598824" lon="3.117629">
<ele>240.1</ele>
<time>2013-05-08T16:47:40.000Z</time>
</trkpt>
<trkpt lat="43.59864" lon="3.117508">
<ele>240.1</ele>
<time>2013-05-08T16:47:41.000Z</time>
</trkpt>
<trkpt lat="43.598457" lon="3.117389">
<ele>240.2</ele>
<time>2013-05-08T16:47:42.000Z</time>
</trkpt>
<trkpt lat="43.598285" lon="3.117266">
<ele>240.6</ele>
<time>2013-05-08T16:47:43.000Z</time>
</trkpt>
<trkpt lat="43.598117" lon="3.117145">
<ele>241.1</ele>
<time>2013-05-08T16:47:44.000Z</time>
</trkpt>
<trkpt lat="43.597965" lon="3.117028">
<ele>241.5</ele>
<time>2013-05-08T16:47:45.000Z</time>
</trkpt>
<trkpt lat="43.597825" lon="3.116922">
<ele>241.9</ele>
<time>2013-05-08T16:47:46.000Z</time>
</trkpt>
<trkpt lat="43.597695" lon="3.116824">
<ele>242.2</ele>
<time>2013-05-08T16:47:47.000Z</time>
</trkpt>
<trkpt lat="43.597574" lon="3.116737">
<ele>242.4</ele>
<time>2013-05-08T16:47:48.000Z</time>
</trkpt>
<trkpt lat="43.597457" lon="3.116649">
<ele>242.5</ele>
<time>2013-05-08T16:47:49.000Z</time>
</trkpt>
<trkpt lat="43.597337" lon="3.116557">
<ele>242.4</ele>
<time>2013-05-08T16:47:50.000Z</time>
</trkpt>
<trkpt lat="43.597211" lon="3.116469">
<ele>242.1</ele>
<time>2013-05-08T16:47:51.000Z</time>
</trkpt>
<trkpt lat="43.597072" lon="3.116382">
<ele>241.7</ele>
<time>2013-05-08T16:47:52.000Z</time>
</trkpt>
<trkpt lat="43.596923" lon="3.116299">
<ele>241</ele>
<time>2013-05-08T16:47:53.000Z</time>
</trkpt>
<trkpt lat="43.596771" lon="3.116223">
<ele>240.4</ele>
<time>2013-05-08T16:47:54.000Z</time>
</trkpt>
<trkpt lat="43.596612" lon="3.116154">
<ele>239.8</ele>
<time>2013-05-08T16:47:55.000Z</time>
</trkpt>
<trkpt lat="43.596447" lon="3.116095">
<ele>239.2</ele>
<time>2013-05-08T16:47:56.000Z</time>
</trkpt>
<trkpt lat="43.596289" lon="3.116037">
<ele>238.7</ele>
<time>2013-05-08T16:47:57.000Z</time>
</trkpt>
<trkpt lat="43.596133" lon="3.11598">
<ele>238.5</ele>
<time>2013-05-08T16:47:58.000Z</time>
</trkpt>
<trkpt lat="43.595981" lon="3.115932">
<ele>238.6</ele>
<time>2013-05-08T16:47:59.000Z</time>
</trkpt>
<trkpt lat="43.595841" lon="3.115886">
<ele>239</ele>
<time>2013-05-08T16:48:00.000Z</time>
</trkpt>
<trkpt lat="43.595722" lon="3.115851">
<ele>239.8</ele>
<time>2013-05-08T16:48:01.000Z</time>
</trkpt>
<trkpt lat="43.595603" lon="3.115818">
<ele>240.6</ele>
<time>2013-05-08T16:48:02.000Z</time>
</trkpt>
<trkpt lat="43.595492" lon="3.115791">
<ele>241.4</ele>
<time>2013-05-08T16:48:03.000Z</time>
</trkpt>
<trkpt lat="43.595385" lon="3.115766">
<ele>242.2</ele>
<time>2013-05-08T16:48:04.000Z</time>
</trkpt>
<trkpt lat="43.595277" lon="3.115738">
<ele>243</ele>
<time>2013-05-08T16:48:05.000Z</time>
</trkpt>
<trkpt lat="43.595171" lon="3.115709">
<ele>243.2</ele>
<time>2013-05-08T16:48:06.000Z</time>
</trkpt>
<trkpt lat="43.595065" lon="3.11568">
<ele>243.1</ele>
<time>2013-05-08T16:48:07.000Z</time>
</trkpt>
<trkpt lat="43.594974" lon="3.115626">
<ele>242.7</ele>
<time>2013-05-08T16:48:08.000Z</time>
</trkpt>
<trkpt lat="43.59489" lon="3.115537">
<ele>242.8</ele>
<time>2013-05-08T16:48:09.000Z</time>
</trkpt>
<trkpt lat="43.594809" lon="3.115446">
<ele>243.1</ele>
<time>2013-05-08T16:48:10.000Z</time>
</trkpt>
<trkpt lat="43.594738" lon="3.115354">
<ele>243.2</ele>
<time>2013-05-08T16:48:11.000Z</time>
</trkpt>
<trkpt lat="43.59466" lon="3.115251">
<ele>243.7</ele>
<time>2013-05-08T16:48:12.000Z</time>
</trkpt>
<trkpt lat="43.594598" lon="3.11517">
<ele>243.6</ele>
<time>2013-05-08T16:48:13.000Z</time>
</trkpt>
<trkpt lat="43.594536" lon="3.115088">
<ele>244.1</ele>
<time>2013-05-08T16:48:14.000Z</time>
</trkpt>
<trkpt lat="43.594484" lon="3.115011">
<ele>244.8</ele>
<time>2013-05-08T16:48:15.000Z</time>
</trkpt>
<trkpt lat="43.594435" lon="3.114942">
<ele>245.3</ele>
<time>2013-05-08T16:48:16.000Z</time>
</trkpt>
<trkpt lat="43.59439" lon="3.114879">
<ele>245.8</ele>
<time>2013-05-08T16:48:17.000Z</time>
</trkpt>
<trkpt lat="43.594355" lon="3.114829">
<ele>246.3</ele>
<time>2013-05-08T16:48:18.000Z</time>
</trkpt>
<trkpt lat="43.594325" lon="3.114791">
<ele>246.6</ele>
<time>2013-05-08T16:48:19.000Z</time>
</trkpt>
<trkpt lat="43.594295" lon="3.114751">
<ele>246.5</ele>
<time>2013-05-08T16:48:20.000Z</time>
</trkpt>
<trkpt lat="43.594264" lon="3.11471">
<ele>246.2</ele>
<time>2013-05-08T16:48:21.000Z</time>
</trkpt>
<trkpt lat="43.594232" lon="3.114667">
<ele>245.8</ele>
<time>2013-05-08T16:48:22.000Z</time>
</trkpt>
<trkpt lat="43.594192" lon="3.114611">
<ele>245.4</ele>
<time>2013-05-08T16:48:23.000Z</time>
</trkpt>
<trkpt lat="43.594132" lon="3.114528">
<ele>245.2</ele>
<time>2013-05-08T16:48:24.000Z</time>
</trkpt>
<trkpt lat="43.59407" lon="3.114444">
<ele>245.4</ele>
<time>2013-05-08T16:48:25.000Z</time>
</trkpt>
<trkpt lat="43.594017" lon="3.114372">
<ele>245.9</ele>
<time>2013-05-08T16:48:26.000Z</time>
</trkpt>
<trkpt lat="43.593972" lon="3.114311">
<ele>246.3</ele>
<time>2013-05-08T16:48:27.000Z</time>
</trkpt>
<trkpt lat="43.593934" lon="3.114262">
<ele>246.8</ele>
<time>2013-05-08T16:48:28.000Z</time>
</trkpt>
<trkpt lat="43.593906" lon="3.114224">
<ele>246.9</ele>
<time>2013-05-08T16:48:29.000Z</time>
</trkpt>
<trkpt lat="43.593886" lon="3.114198">
<ele>246.9</ele>
<time>2013-05-08T16:48:30.000Z</time>
</trkpt>
<trkpt lat="43.593866" lon="3.114169">
<ele>246.9</ele>
<time>2013-05-08T16:48:31.000Z</time>
</trkpt>
<trkpt lat="43.59385" lon="3.114146">
<ele>247</ele>
<time>2013-05-08T16:48:32.000Z</time>
</trkpt>
<trkpt lat="43.593838" lon="3.114126">
<ele>247.4</ele>
<time>2013-05-08T16:48:37.000Z</time>
</trkpt>
<trkpt lat="43.593817" lon="3.1141">
<ele>247.6</ele>
<time>2013-05-08T16:48:38.000Z</time>
</trkpt>
<trkpt lat="43.593781" lon="3.114088">
<ele>247.7</ele>
<time>2013-05-08T16:48:39.000Z</time>
</trkpt>
<trkpt lat="43.593745" lon="3.114104">
<ele>247.5</ele>
<time>2013-05-08T16:48:40.000Z</time>
</trkpt>
<trkpt lat="43.593708" lon="3.11415">
<ele>247</ele>
<time>2013-05-08T16:48:41.000Z</time>
</trkpt>
<trkpt lat="43.593652" lon="3.114212">
<ele>246.6</ele>
<time>2013-05-08T16:48:42.000Z</time>
</trkpt>
<trkpt lat="43.593589" lon="3.114282">
<ele>246.7</ele>
<time>2013-05-08T16:48:43.000Z</time>
</trkpt>
<trkpt lat="43.593526" lon="3.114354">
<ele>246.5</ele>
<time>2013-05-08T16:48:44.000Z</time>
</trkpt>
<trkpt lat="43.593461" lon="3.114431">
<ele>246.1</ele>
<time>2013-05-08T16:48:45.000Z</time>
</trkpt>
<trkpt lat="43.593388" lon="3.114522">
<ele>246.1</ele>
<time>2013-05-08T16:48:46.000Z</time>
</trkpt>
<trkpt lat="43.593318" lon="3.11462">
<ele>245.7</ele>
<time>2013-05-08T16:48:47.000Z</time>
</trkpt>
<trkpt lat="43.59325" lon="3.114726">
<ele>245.4</ele>
<time>2013-05-08T16:48:48.000Z</time>
</trkpt>
<trkpt lat="43.593174" lon="3.11484">
<ele>245.3</ele>
<time>2013-05-08T16:48:49.000Z</time>
</trkpt>
<trkpt lat="43.593098" lon="3.114954">
<ele>245.1</ele>
<time>2013-05-08T16:48:50.000Z</time>
</trkpt>
<trkpt lat="43.593017" lon="3.115073">
<ele>245.2</ele>
<time>2013-05-08T16:48:51.000Z</time>
</trkpt>
<trkpt lat="43.592941" lon="3.115181">
<ele>244.8</ele>
<time>2013-05-08T16:48:52.000Z</time>
</trkpt>
<trkpt lat="43.592862" lon="3.115291">
<ele>243.9</ele>
<time>2013-05-08T16:48:53.000Z</time>
</trkpt>
<trkpt lat="43.59278" lon="3.115411">
<ele>243</ele>
<time>2013-05-08T16:48:54.000Z</time>
</trkpt>
<trkpt lat="43.592708" lon="3.115505">
<ele>242.2</ele>
<time>2013-05-08T16:48:55.000Z</time>
</trkpt>
<trkpt lat="43.592652" lon="3.115579">
<ele>241.3</ele>
<time>2013-05-08T16:48:56.000Z</time>
</trkpt>
<trkpt lat="43.592611" lon="3.115633">
<ele>240.8</ele>
<time>2013-05-08T16:48:57.000Z</time>
</trkpt>
<trkpt lat="43.592588" lon="3.115667">
<ele>240.8</ele>
<time>2013-05-08T16:48:58.000Z</time>
</trkpt>
<trkpt lat="43.592567" lon="3.115703">
<ele>240.8</ele>
<time>2013-05-08T16:48:59.000Z</time>
</trkpt>
<trkpt lat="43.59254" lon="3.115744">
<ele>240.7</ele>
<time>2013-05-08T16:49:00.000Z</time>
</trkpt>
<trkpt lat="43.592512" lon="3.115785">
<ele>240.4</ele>
<time>2013-05-08T16:49:01.000Z</time>
</trkpt>
<trkpt lat="43.59247" lon="3.115845">
<ele>239.8</ele>
<time>2013-05-08T16:49:02.000Z</time>
</trkpt>
<trkpt lat="43.592418" lon="3.115921">
<ele>239.1</ele>
<time>2013-05-08T16:49:03.000Z</time>
</trkpt>
<trkpt lat="43.592354" lon="3.116009">
<ele>238.3</ele>
<time>2013-05-08T16:49:04.000Z</time>
</trkpt>
<trkpt lat="43.59228" lon="3.116113">
<ele>237.8</ele>
<time>2013-05-08T16:49:05.000Z</time>
</trkpt>
<trkpt lat="43.5922" lon="3.116224">
<ele>237.4</ele>
<time>2013-05-08T16:49:06.000Z</time>
</trkpt>
<trkpt lat="43.592115" lon="3.116339">
<ele>236.8</ele>
<time>2013-05-08T16:49:07.000Z</time>
</trkpt>
<trkpt lat="43.59203" lon="3.116467">
<ele>235.9</ele>
<time>2013-05-08T16:49:08.000Z</time>
</trkpt>
<trkpt lat="43.591931" lon="3.116603">
<ele>235</ele>
<time>2013-05-08T16:49:09.000Z</time>
</trkpt>
<trkpt lat="43.591822" lon="3.116752">
<ele>234.1</ele>
<time>2013-05-08T16:49:10.000Z</time>
</trkpt>
<trkpt lat="43.591711" lon="3.116905">
<ele>233.1</ele>
<time>2013-05-08T16:49:11.000Z</time>
</trkpt>
<trkpt lat="43.591592" lon="3.117066">
<ele>232.1</ele>
<time>2013-05-08T16:49:12.000Z</time>
</trkpt>
<trkpt lat="43.591472" lon="3.11723">
<ele>231.4</ele>
<time>2013-05-08T16:49:13.000Z</time>
</trkpt>
<trkpt lat="43.591353" lon="3.117395">
<ele>230.8</ele>
<time>2013-05-08T16:49:14.000Z</time>
</trkpt>
<trkpt lat="43.591235" lon="3.11756">
<ele>230.4</ele>
<time>2013-05-08T16:49:15.000Z</time>
</trkpt>
<trkpt lat="43.591122" lon="3.117718">
<ele>230.2</ele>
<time>2013-05-08T16:49:16.000Z</time>
</trkpt>
<trkpt lat="43.591011" lon="3.11787">
<ele>230.3</ele>
<time>2013-05-08T16:49:17.000Z</time>
</trkpt>
<trkpt lat="43.590899" lon="3.118026">
<ele>230.4</ele>
<time>2013-05-08T16:49:18.000Z</time>
</trkpt>
<trkpt lat="43.590784" lon="3.118184">
<ele>230.7</ele>
<time>2013-05-08T16:49:19.000Z</time>
</trkpt>
<trkpt lat="43.59067" lon="3.118342">
<ele>231.1</ele>
<time>2013-05-08T16:49:20.000Z</time>
</trkpt>
<trkpt lat="43.590554" lon="3.118502">
<ele>231.7</ele>
<time>2013-05-08T16:49:21.000Z</time>
</trkpt>
<trkpt lat="43.590438" lon="3.118663">
<ele>232.3</ele>
<time>2013-05-08T16:49:22.000Z</time>
</trkpt>
<trkpt lat="43.590324" lon="3.118825">
<ele>232.9</ele>
<time>2013-05-08T16:49:23.000Z</time>
</trkpt>
<trkpt lat="43.590207" lon="3.118991">
<ele>233.4</ele>
<time>2013-05-08T16:49:24.000Z</time>
</trkpt>
<trkpt lat="43.590089" lon="3.119156">
<ele>234</ele>
<time>2013-05-08T16:49:25.000Z</time>
</trkpt>
<trkpt lat="43.58997" lon="3.119322">
<ele>234.7</ele>
<time>2013-05-08T16:49:26.000Z</time>
</trkpt>
<trkpt lat="43.589852" lon="3.119485">
<ele>235.7</ele>
<time>2013-05-08T16:49:27.000Z</time>
</trkpt>
<trkpt lat="43.589732" lon="3.119652">
<ele>236.5</ele>
<time>2013-05-08T16:49:28.000Z</time>
</trkpt>
<trkpt lat="43.589608" lon="3.119824">
<ele>237.1</ele>
<time>2013-05-08T16:49:29.000Z</time>
</trkpt>
<trkpt lat="43.589474" lon="3.120012">
<ele>237.8</ele>
<time>2013-05-08T16:49:30.000Z</time>
</trkpt>
<trkpt lat="43.589333" lon="3.120206">
<ele>238.6</ele>
<time>2013-05-08T16:49:31.000Z</time>
</trkpt>
<trkpt lat="43.589196" lon="3.120403">
<ele>239.1</ele>
<time>2013-05-08T16:49:32.000Z</time>
</trkpt>
<trkpt lat="43.589057" lon="3.120602">
<ele>239.3</ele>
<time>2013-05-08T16:49:33.000Z</time>
</trkpt>
<trkpt lat="43.588913" lon="3.120803">
<ele>239.4</ele>
<time>2013-05-08T16:49:34.000Z</time>
</trkpt>
<trkpt lat="43.588766" lon="3.121003">
<ele>239.8</ele>
<time>2013-05-08T16:49:35.000Z</time>
</trkpt>
<trkpt lat="43.588628" lon="3.121197">
<ele>240.3</ele>
<time>2013-05-08T16:49:36.000Z</time>
</trkpt>
<trkpt lat="43.5885" lon="3.121378">
<ele>240.8</ele>
<time>2013-05-08T16:49:37.000Z</time>
</trkpt>
<trkpt lat="43.588389" lon="3.121538">
<ele>241</ele>
<time>2013-05-08T16:49:38.000Z</time>
</trkpt>
<trkpt lat="43.588292" lon="3.121673">
<ele>240.8</ele>
<time>2013-05-08T16:49:39.000Z</time>
</trkpt>
<trkpt lat="43.588199" lon="3.121799">
<ele>240.6</ele>
<time>2013-05-08T16:49:40.000Z</time>
</trkpt>
<trkpt lat="43.588107" lon="3.121918">
<ele>240.4</ele>
<time>2013-05-08T16:49:41.000Z</time>
</trkpt>
<trkpt lat="43.588021" lon="3.122013">
<ele>240.3</ele>
<time>2013-05-08T16:49:42.000Z</time>
</trkpt>
<trkpt lat="43.587934" lon="3.122092">
<ele>240.4</ele>
<time>2013-05-08T16:49:43.000Z</time>
</trkpt>
<trkpt lat="43.587843" lon="3.122137">
<ele>240.4</ele>
<time>2013-05-08T16:49:44.000Z</time>
</trkpt>
<trkpt lat="43.58776" lon="3.122168">
<ele>240.2</ele>
<time>2013-05-08T16:49:45.000Z</time>
</trkpt>
<trkpt lat="43.587685" lon="3.12214">
<ele>239.9</ele>
<time>2013-05-08T16:49:46.000Z</time>
</trkpt>
<trkpt lat="43.587604" lon="3.122111">
<ele>239.8</ele>
<time>2013-05-08T16:49:47.000Z</time>
</trkpt>
<trkpt lat="43.587528" lon="3.122078">
<ele>239.7</ele>
<time>2013-05-08T16:49:48.000Z</time>
</trkpt>
<trkpt lat="43.587445" lon="3.122089">
<ele>239.3</ele>
<time>2013-05-08T16:49:49.000Z</time>
</trkpt>
<trkpt lat="43.587358" lon="3.122146">
<ele>239.2</ele>
<time>2013-05-08T16:49:50.000Z</time>
</trkpt>
<trkpt lat="43.587292" lon="3.122232">
<ele>239.1</ele>
<time>2013-05-08T16:49:51.000Z</time>
</trkpt>
<trkpt lat="43.587251" lon="3.122337">
<ele>239</ele>
<time>2013-05-08T16:49:52.000Z</time>
</trkpt>
<trkpt lat="43.587231" lon="3.122446">
<ele>239.1</ele>
<time>2013-05-08T16:49:53.000Z</time>
</trkpt>
<trkpt lat="43.587241" lon="3.122557">
<ele>239.4</ele>
<time>2013-05-08T16:49:54.000Z</time>
</trkpt>
<trkpt lat="43.587259" lon="3.122677">
<ele>239.7</ele>
<time>2013-05-08T16:49:55.000Z</time>
</trkpt>
<trkpt lat="43.587275" lon="3.122786">
<ele>239.6</ele>
<time>2013-05-08T16:49:56.000Z</time>
</trkpt>
<trkpt lat="43.58725" lon="3.122924">
<ele>239.1</ele>
<time>2013-05-08T16:49:57.000Z</time>
</trkpt>
<trkpt lat="43.587212" lon="3.123077">
<ele>238.7</ele>
<time>2013-05-08T16:49:58.000Z</time>
</trkpt>
<trkpt lat="43.587145" lon="3.12322">
<ele>238.4</ele>
<time>2013-05-08T16:49:59.000Z</time>
</trkpt>
<trkpt lat="43.587068" lon="3.12337">
<ele>238.2</ele>
<time>2013-05-08T16:50:00.000Z</time>
</trkpt>
<trkpt lat="43.58698" lon="3.123518">
<ele>237.9</ele>
<time>2013-05-08T16:50:01.000Z</time>
</trkpt>
<trkpt lat="43.586881" lon="3.123658">
<ele>237.3</ele>
<time>2013-05-08T16:50:02.000Z</time>
</trkpt>
<trkpt lat="43.586768" lon="3.123802">
<ele>236.9</ele>
<time>2013-05-08T16:50:03.000Z</time>
</trkpt>
<trkpt lat="43.586644" lon="3.123946">
<ele>236.7</ele>
<time>2013-05-08T16:50:04.000Z</time>
</trkpt>
<trkpt lat="43.586504" lon="3.124102">
<ele>236.7</ele>
<time>2013-05-08T16:50:05.000Z</time>
</trkpt>
<trkpt lat="43.586356" lon="3.124269">
<ele>236.8</ele>
<time>2013-05-08T16:50:06.000Z</time>
</trkpt>
<trkpt lat="43.586203" lon="3.124446">
<ele>236.7</ele>
<time>2013-05-08T16:50:07.000Z</time>
</trkpt>
<trkpt lat="43.586052" lon="3.124654">
<ele>236.8</ele>
<time>2013-05-08T16:50:08.000Z</time>
</trkpt>
<trkpt lat="43.585933" lon="3.124889">
<ele>237</ele>
<time>2013-05-08T16:50:09.000Z</time>
</trkpt>
<trkpt lat="43.585837" lon="3.125122">
<ele>237.6</ele>
<time>2013-05-08T16:50:10.000Z</time>
</trkpt>
<trkpt lat="43.585771" lon="3.125367">
<ele>238.3</ele>
<time>2013-05-08T16:50:11.000Z</time>
</trkpt>
<trkpt lat="43.585735" lon="3.125615">
<ele>239</ele>
<time>2013-05-08T16:50:12.000Z</time>
</trkpt>
<trkpt lat="43.585725" lon="3.125881">
<ele>239.9</ele>
<time>2013-05-08T16:50:13.000Z</time>
</trkpt>
<trkpt lat="43.585741" lon="3.126132">
<ele>241</ele>
<time>2013-05-08T16:50:14.000Z</time>
</trkpt>
<trkpt lat="43.585775" lon="3.126381">
<ele>241.5</ele>
<time>2013-05-08T16:50:15.000Z</time>
</trkpt>
<trkpt lat="43.585842" lon="3.126645">
<ele>242</ele>
<time>2013-05-08T16:50:16.000Z</time>
</trkpt>
<trkpt lat="43.585923" lon="3.126947">
<ele>242.3</ele>
<time>2013-05-08T16:50:17.000Z</time>
</trkpt>
<trkpt lat="43.585993" lon="3.127261">
<ele>242.9</ele>
<time>2013-05-08T16:50:18.000Z</time>
</trkpt>
<trkpt lat="43.586039" lon="3.12759">
<ele>243.6</ele>
<time>2013-05-08T16:50:19.000Z</time>
</trkpt>
<trkpt lat="43.586053" lon="3.127934">
<ele>244</ele>
<time>2013-05-08T16:50:20.000Z</time>
</trkpt>
<trkpt lat="43.586025" lon="3.128264">
<ele>244.5</ele>
<time>2013-05-08T16:50:21.000Z</time>
</trkpt>
<trkpt lat="43.585958" lon="3.12858">
<ele>244.9</ele>
<time>2013-05-08T16:50:22.000Z</time>
</trkpt>
<trkpt lat="43.585847" lon="3.128884">
<ele>245.6</ele>
<time>2013-05-08T16:50:23.000Z</time>
</trkpt>
<trkpt lat="43.585707" lon="3.129163">
<ele>246.2</ele>
<time>2013-05-08T16:50:24.000Z</time>
</trkpt>
<trkpt lat="43.585545" lon="3.129418">
<ele>246.6</ele>
<time>2013-05-08T16:50:25.000Z</time>
</trkpt>
<trkpt lat="43.585377" lon="3.129674">
<ele>246.7</ele>
<time>2013-05-08T16:50:26.000Z</time>
</trkpt>
<trkpt lat="43.585211" lon="3.129922">
<ele>246.9</ele>
<time>2013-05-08T16:50:27.000Z</time>
</trkpt>
<trkpt lat="43.585041" lon="3.130155">
<ele>247.2</ele>
<time>2013-05-08T16:50:28.000Z</time>
</trkpt>
<trkpt lat="43.584846" lon="3.130365">
<ele>247.4</ele>
<time>2013-05-08T16:50:29.000Z</time>
</trkpt>
<trkpt lat="43.584624" lon="3.130533">
<ele>247.4</ele>
<time>2013-05-08T16:50:30.000Z</time>
</trkpt>
<trkpt lat="43.584378" lon="3.130673">
<ele>247.7</ele>
<time>2013-05-08T16:50:31.000Z</time>
</trkpt>
<trkpt lat="43.584132" lon="3.130794">
<ele>248.2</ele>
<time>2013-05-08T16:50:32.000Z</time>
</trkpt>
<trkpt lat="43.583893" lon="3.130904">
<ele>248.5</ele>
<time>2013-05-08T16:50:33.000Z</time>
</trkpt>
<trkpt lat="43.583661" lon="3.131014">
<ele>248.8</ele>
<time>2013-05-08T16:50:34.000Z</time>
</trkpt>
<trkpt lat="43.583446" lon="3.131145">
<ele>248.9</ele>
<time>2013-05-08T16:50:35.000Z</time>
</trkpt>
<trkpt lat="43.58324" lon="3.1313">
<ele>249</ele>
<time>2013-05-08T16:50:36.000Z</time>
</trkpt>
<trkpt lat="43.583048" lon="3.131479">
<ele>249.5</ele>
<time>2013-05-08T16:50:37.000Z</time>
</trkpt>
<trkpt lat="43.582873" lon="3.13168">
<ele>250</ele>
<time>2013-05-08T16:50:38.000Z</time>
</trkpt>
<trkpt lat="43.582716" lon="3.131917">
<ele>250.6</ele>
<time>2013-05-08T16:50:39.000Z</time>
</trkpt>
<trkpt lat="43.58257" lon="3.132167">
<ele>250.9</ele>
<time>2013-05-08T16:50:40.000Z</time>
</trkpt>
<trkpt lat="43.582437" lon="3.132439">
<ele>251.2</ele>
<time>2013-05-08T16:50:41.000Z</time>
</trkpt>
<trkpt lat="43.582307" lon="3.132729">
<ele>251.7</ele>
<time>2013-05-08T16:50:42.000Z</time>
</trkpt>
<trkpt lat="43.582189" lon="3.133031">
<ele>251.8</ele>
<time>2013-05-08T16:50:43.000Z</time>
</trkpt>
<trkpt lat="43.582064" lon="3.133338">
<ele>251.8</ele>
<time>2013-05-08T16:50:44.000Z</time>
</trkpt>
<trkpt lat="43.58194" lon="3.133653">
<ele>252.1</ele>
<time>2013-05-08T16:50:45.000Z</time>
</trkpt>
<trkpt lat="43.581816" lon="3.133965">
<ele>252.6</ele>
<time>2013-05-08T16:50:46.000Z</time>
</trkpt>
<trkpt lat="43.581699" lon="3.134269">
<ele>253.5</ele>
<time>2013-05-08T16:50:47.000Z</time>
</trkpt>
<trkpt lat="43.581582" lon="3.134567">
<ele>254.7</ele>
<time>2013-05-08T16:50:48.000Z</time>
</trkpt>
<trkpt lat="43.581466" lon="3.134854">
<ele>255.7</ele>
<time>2013-05-08T16:50:49.000Z</time>
</trkpt>
<trkpt lat="43.581353" lon="3.135137">
<ele>256.7</ele>
<time>2013-05-08T16:50:50.000Z</time>
</trkpt>
<trkpt lat="43.581238" lon="3.135416">
<ele>257.6</ele>
<time>2013-05-08T16:50:51.000Z</time>
</trkpt>
<trkpt lat="43.581127" lon="3.135685">
<ele>258.4</ele>
<time>2013-05-08T16:50:52.000Z</time>
</trkpt>
<trkpt lat="43.581018" lon="3.135948">
<ele>259.2</ele>
<time>2013-05-08T16:50:53.000Z</time>
</trkpt>
<trkpt lat="43.580914" lon="3.136201">
<ele>259.9</ele>
<time>2013-05-08T16:50:54.000Z</time>
</trkpt>
<trkpt lat="43.580809" lon="3.136467">
<ele>260.5</ele>
<time>2013-05-08T16:50:55.000Z</time>
</trkpt>
<trkpt lat="43.580704" lon="3.136728">
<ele>261.1</ele>
<time>2013-05-08T16:50:56.000Z</time>
</trkpt>
<trkpt lat="43.580601" lon="3.137006">
<ele>261.6</ele>
<time>2013-05-08T16:50:57.000Z</time>
</trkpt>
<trkpt lat="43.580502" lon="3.137309">
<ele>262.1</ele>
<time>2013-05-08T16:50:58.000Z</time>
</trkpt>
<trkpt lat="43.58042" lon="3.137631">
<ele>262.5</ele>
<time>2013-05-08T16:50:59.000Z</time>
</trkpt>
<trkpt lat="43.580343" lon="3.137976">
<ele>262.7</ele>
<time>2013-05-08T16:51:00.000Z</time>
</trkpt>
<trkpt lat="43.580268" lon="3.13835">
<ele>263</ele>
<time>2013-05-08T16:51:01.000Z</time>
</trkpt>
<trkpt lat="43.580184" lon="3.138745">
<ele>263</ele>
<time>2013-05-08T16:51:02.000Z</time>
</trkpt>
<trkpt lat="43.580105" lon="3.139136">
<ele>263</ele>
<time>2013-05-08T16:51:03.000Z</time>
</trkpt>
<trkpt lat="43.580027" lon="3.139505">
<ele>263.3</ele>
<time>2013-05-08T16:51:04.000Z</time>
</trkpt>
<trkpt lat="43.579953" lon="3.139857">
<ele>263.8</ele>
<time>2013-05-08T16:51:05.000Z</time>
</trkpt>
<trkpt lat="43.57988" lon="3.140186">
<ele>264.6</ele>
<time>2013-05-08T16:51:06.000Z</time>
</trkpt>
<trkpt lat="43.579828" lon="3.140505">
<ele>265.6</ele>
<time>2013-05-08T16:51:07.000Z</time>
</trkpt>
<trkpt lat="43.579813" lon="3.140826">
<ele>266.7</ele>
<time>2013-05-08T16:51:08.000Z</time>
</trkpt>
<trkpt lat="43.57985" lon="3.14116">
<ele>267.5</ele>
<time>2013-05-08T16:51:09.000Z</time>
</trkpt>
<trkpt lat="43.579911" lon="3.141485">
<ele>268.3</ele>
<time>2013-05-08T16:51:10.000Z</time>
</trkpt>
<trkpt lat="43.579984" lon="3.141819">
<ele>268.6</ele>
<time>2013-05-08T16:51:11.000Z</time>
</trkpt>
<trkpt lat="43.58009" lon="3.142175">
<ele>268.6</ele>
<time>2013-05-08T16:51:12.000Z</time>
</trkpt>
<trkpt lat="43.580197" lon="3.142524">
<ele>268.9</ele>
<time>2013-05-08T16:51:13.000Z</time>
</trkpt>
<trkpt lat="43.580304" lon="3.142868">
<ele>269.4</ele>
<time>2013-05-08T16:51:14.000Z</time>
</trkpt>
<trkpt lat="43.580424" lon="3.143224">
<ele>270.1</ele>
<time>2013-05-08T16:51:15.000Z</time>
</trkpt>
<trkpt lat="43.580551" lon="3.143596">
<ele>270.6</ele>
<time>2013-05-08T16:51:16.000Z</time>
</trkpt>
<trkpt lat="43.580677" lon="3.143974">
<ele>271.2</ele>
<time>2013-05-08T16:51:17.000Z</time>
</trkpt>
<trkpt lat="43.58079" lon="3.144347">
<ele>272</ele>
<time>2013-05-08T16:51:18.000Z</time>
</trkpt>
<trkpt lat="43.580885" lon="3.144716">
<ele>273</ele>
<time>2013-05-08T16:51:19.000Z</time>
</trkpt>
<trkpt lat="43.580965" lon="3.145075">
<ele>274.1</ele>
<time>2013-05-08T16:51:20.000Z</time>
</trkpt>
<trkpt lat="43.581027" lon="3.145441">
<ele>275.1</ele>
<time>2013-05-08T16:51:21.000Z</time>
</trkpt>
<trkpt lat="43.581063" lon="3.145819">
<ele>275.7</ele>
<time>2013-05-08T16:51:22.000Z</time>
</trkpt>
<trkpt lat="43.581085" lon="3.146217">
<ele>276.3</ele>
<time>2013-05-08T16:51:23.000Z</time>
</trkpt>
<trkpt lat="43.581097" lon="3.14663">
<ele>276.9</ele>
<time>2013-05-08T16:51:24.000Z</time>
</trkpt>
<trkpt lat="43.58111" lon="3.147053">
<ele>277.6</ele>
<time>2013-05-08T16:51:25.000Z</time>
</trkpt>
<trkpt lat="43.581122" lon="3.147485">
<ele>278.1</ele>
<time>2013-05-08T16:51:26.000Z</time>
</trkpt>
<trkpt lat="43.581129" lon="3.147928">
<ele>278.9</ele>
<time>2013-05-08T16:51:27.000Z</time>
</trkpt>
<trkpt lat="43.58114" lon="3.148381">
<ele>279.6</ele>
<time>2013-05-08T16:51:28.000Z</time>
</trkpt>
<trkpt lat="43.581155" lon="3.14883">
<ele>280.4</ele>
<time>2013-05-08T16:51:29.000Z</time>
</trkpt>
<trkpt lat="43.581188" lon="3.149271">
<ele>281.5</ele>
<time>2013-05-08T16:51:30.000Z</time>
</trkpt>
<trkpt lat="43.581233" lon="3.149684">
<ele>282.7</ele>
<time>2013-05-08T16:51:31.000Z</time>
</trkpt>
<trkpt lat="43.581279" lon="3.150073">
<ele>283.8</ele>
<time>2013-05-08T16:51:32.000Z</time>
</trkpt>
<trkpt lat="43.581326" lon="3.150445">
<ele>284.7</ele>
<time>2013-05-08T16:51:33.000Z</time>
</trkpt>
<trkpt lat="43.581373" lon="3.150805">
<ele>285.3</ele>
<time>2013-05-08T16:51:34.000Z</time>
</trkpt>
<trkpt lat="43.58142" lon="3.151157">
<ele>285.8</ele>
<time>2013-05-08T16:51:35.000Z</time>
</trkpt>
<trkpt lat="43.581469" lon="3.151502">
<ele>286.3</ele>
<time>2013-05-08T16:51:36.000Z</time>
</trkpt>
<trkpt lat="43.581515" lon="3.15182">
<ele>286.8</ele>
<time>2013-05-08T16:51:37.000Z</time>
</trkpt>
<trkpt lat="43.581563" lon="3.152136">
<ele>287.4</ele>
<time>2013-05-08T16:51:38.000Z</time>
</trkpt>
<trkpt lat="43.581605" lon="3.152428">
<ele>287.9</ele>
<time>2013-05-08T16:51:39.000Z</time>
</trkpt>
<trkpt lat="43.581649" lon="3.152717">
<ele>288.3</ele>
<time>2013-05-08T16:51:40.000Z</time>
</trkpt>
<trkpt lat="43.581693" lon="3.152996">
<ele>288.8</ele>
<time>2013-05-08T16:51:41.000Z</time>
</trkpt>
<trkpt lat="43.581737" lon="3.153265">
<ele>289</ele>
<time>2013-05-08T16:51:42.000Z</time>
</trkpt>
<trkpt lat="43.581778" lon="3.153536">
<ele>289.4</ele>
<time>2013-05-08T16:51:43.000Z</time>
</trkpt>
<trkpt lat="43.581819" lon="3.153795">
<ele>289.9</ele>
<time>2013-05-08T16:51:44.000Z</time>
</trkpt>
<trkpt lat="43.581857" lon="3.154059">
<ele>290.3</ele>
<time>2013-05-08T16:51:45.000Z</time>
</trkpt>
<trkpt lat="43.581888" lon="3.154318">
<ele>290.7</ele>
<time>2013-05-08T16:51:46.000Z</time>
</trkpt>
<trkpt lat="43.58187" lon="3.1546">
<ele>291.1</ele>
<time>2013-05-08T16:51:47.000Z</time>
</trkpt>
<trkpt lat="43.581834" lon="3.154885">
<ele>291.2</ele>
<time>2013-05-08T16:51:48.000Z</time>
</trkpt>
<trkpt lat="43.581774" lon="3.155171">
<ele>291.4</ele>
<time>2013-05-08T16:51:49.000Z</time>
</trkpt>
<trkpt lat="43.581671" lon="3.15547">
<ele>291.9</ele>
<time>2013-05-08T16:51:50.000Z</time>
</trkpt>
<trkpt lat="43.581549" lon="3.155747">
<ele>292</ele>
<time>2013-05-08T16:51:51.000Z</time>
</trkpt>
<trkpt lat="43.581417" lon="3.156018">
<ele>292.3</ele>
<time>2013-05-08T16:51:52.000Z</time>
</trkpt>
<trkpt lat="43.581296" lon="3.156292">
<ele>292.8</ele>
<time>2013-05-08T16:51:53.000Z</time>
</trkpt>
<trkpt lat="43.581199" lon="3.156591">
<ele>293.4</ele>
<time>2013-05-08T16:51:54.000Z</time>
</trkpt>
<trkpt lat="43.581138" lon="3.156923">
<ele>294.3</ele>
<time>2013-05-08T16:51:55.000Z</time>
</trkpt>
<trkpt lat="43.581095" lon="3.157271">
<ele>295</ele>
<time>2013-05-08T16:51:56.000Z</time>
</trkpt>
<trkpt lat="43.581068" lon="3.157634">
<ele>295.2</ele>
<time>2013-05-08T16:51:57.000Z</time>
</trkpt>
<trkpt lat="43.581032" lon="3.158026">
<ele>295.5</ele>
<time>2013-05-08T16:51:58.000Z</time>
</trkpt>
<trkpt lat="43.580998" lon="3.158437">
<ele>295.9</ele>
<time>2013-05-08T16:51:59.000Z</time>
</trkpt>
<trkpt lat="43.580964" lon="3.158853">
<ele>296.4</ele>
<time>2013-05-08T16:52:00.000Z</time>
</trkpt>
<trkpt lat="43.580938" lon="3.159268">
<ele>297.2</ele>
<time>2013-05-08T16:52:01.000Z</time>
</trkpt>
<trkpt lat="43.580921" lon="3.159667">
<ele>298</ele>
<time>2013-05-08T16:52:02.000Z</time>
</trkpt>
<trkpt lat="43.580912" lon="3.160044">
<ele>298.7</ele>
<time>2013-05-08T16:52:03.000Z</time>
</trkpt>
<trkpt lat="43.580906" lon="3.160414">
<ele>299.2</ele>
<time>2013-05-08T16:52:04.000Z</time>
</trkpt>
<trkpt lat="43.580911" lon="3.160788">
<ele>299.8</ele>
<time>2013-05-08T16:52:05.000Z</time>
</trkpt>
<trkpt lat="43.580923" lon="3.161171">
<ele>300.8</ele>
<time>2013-05-08T16:52:06.000Z</time>
</trkpt>
<trkpt lat="43.580941" lon="3.161562">
<ele>302</ele>
<time>2013-05-08T16:52:07.000Z</time>
</trkpt>
<trkpt lat="43.580971" lon="3.161943">
<ele>303.4</ele>
<time>2013-05-08T16:52:08.000Z</time>
</trkpt>
<trkpt lat="43.58101" lon="3.162323">
<ele>304.9</ele>
<time>2013-05-08T16:52:09.000Z</time>
</trkpt>
<trkpt lat="43.581054" lon="3.162696">
<ele>306.6</ele>
<time>2013-05-08T16:52:10.000Z</time>
</trkpt>
<trkpt lat="43.581106" lon="3.163057">
<ele>308.4</ele>
<time>2013-05-08T16:52:11.000Z</time>
</trkpt>
<trkpt lat="43.58116" lon="3.16341">
<ele>310.2</ele>
<time>2013-05-08T16:52:12.000Z</time>
</trkpt>
<trkpt lat="43.581215" lon="3.163762">
<ele>311.8</ele>
<time>2013-05-08T16:52:13.000Z</time>
</trkpt>
<trkpt lat="43.581268" lon="3.164113">
<ele>313.4</ele>
<time>2013-05-08T16:52:14.000Z</time>
</trkpt>
<trkpt lat="43.581321" lon="3.16446">
<ele>314.9</ele>
<time>2013-05-08T16:52:15.000Z</time>
</trkpt>
<trkpt lat="43.581373" lon="3.164801">
<ele>316.3</ele>
<time>2013-05-08T16:52:16.000Z</time>
</trkpt>
<trkpt lat="43.581417" lon="3.165132">
<ele>317.5</ele>
<time>2013-05-08T16:52:17.000Z</time>
</trkpt>
<trkpt lat="43.581436" lon="3.165458">
<ele>318.5</ele>
<time>2013-05-08T16:52:18.000Z</time>
</trkpt>
<trkpt lat="43.581421" lon="3.165784">
<ele>319.7</ele>
<time>2013-05-08T16:52:19.000Z</time>
</trkpt>
<trkpt lat="43.581364" lon="3.166099">
<ele>321</ele>
<time>2013-05-08T16:52:20.000Z</time>
</trkpt>
<trkpt lat="43.58127" lon="3.166394">
<ele>321.9</ele>
<time>2013-05-08T16:52:21.000Z</time>
</trkpt>
<trkpt lat="43.581126" lon="3.166665">
<ele>322.2</ele>
<time>2013-05-08T16:52:22.000Z</time>
</trkpt>
<trkpt lat="43.580954" lon="3.166905">
<ele>322.6</ele>
<time>2013-05-08T16:52:23.000Z</time>
</trkpt>
<trkpt lat="43.580765" lon="3.167122">
<ele>322.8</ele>
<time>2013-05-08T16:52:24.000Z</time>
</trkpt>
<trkpt lat="43.580562" lon="3.167333">
<ele>323.4</ele>
<time>2013-05-08T16:52:25.000Z</time>
</trkpt>
<trkpt lat="43.580364" lon="3.167534">
<ele>324.1</ele>
<time>2013-05-08T16:52:26.000Z</time>
</trkpt>
<trkpt lat="43.580165" lon="3.167738">
<ele>324.8</ele>
<time>2013-05-08T16:52:27.000Z</time>
</trkpt>
<trkpt lat="43.579958" lon="3.167949">
<ele>325.7</ele>
<time>2013-05-08T16:52:28.000Z</time>
</trkpt>
<trkpt lat="43.579741" lon="3.168169">
<ele>326.8</ele>
<time>2013-05-08T16:52:29.000Z</time>
</trkpt>
<trkpt lat="43.579516" lon="3.168397">
<ele>328.2</ele>
<time>2013-05-08T16:52:30.000Z</time>
</trkpt>
<trkpt lat="43.579296" lon="3.168638">
<ele>329.6</ele>
<time>2013-05-08T16:52:31.000Z</time>
</trkpt>
<trkpt lat="43.579076" lon="3.168877">
<ele>331.1</ele>
<time>2013-05-08T16:52:32.000Z</time>
</trkpt>
<trkpt lat="43.578857" lon="3.169116">
<ele>332.7</ele>
<time>2013-05-08T16:52:33.000Z</time>
</trkpt>
<trkpt lat="43.578633" lon="3.169357">
<ele>334.3</ele>
<time>2013-05-08T16:52:34.000Z</time>
</trkpt>
<trkpt lat="43.578408" lon="3.169591">
<ele>336.2</ele>
<time>2013-05-08T16:52:35.000Z</time>
</trkpt>
<trkpt lat="43.578187" lon="3.169808">
<ele>338</ele>
<time>2013-05-08T16:52:36.000Z</time>
</trkpt>
<trkpt lat="43.577975" lon="3.170007">
<ele>339.6</ele>
<time>2013-05-08T16:52:37.000Z</time>
</trkpt>
<trkpt lat="43.577747" lon="3.170184">
<ele>341.3</ele>
<time>2013-05-08T16:52:38.000Z</time>
</trkpt>
<trkpt lat="43.577513" lon="3.170311">
<ele>343.3</ele>
<time>2013-05-08T16:52:39.000Z</time>
</trkpt>
<trkpt lat="43.577259" lon="3.170424">
<ele>345.3</ele>
<time>2013-05-08T16:52:40.000Z</time>
</trkpt>
<trkpt lat="43.577003" lon="3.170513">
<ele>347.1</ele>
<time>2013-05-08T16:52:41.000Z</time>
</trkpt>
<trkpt lat="43.576742" lon="3.170586">
<ele>349.1</ele>
<time>2013-05-08T16:52:42.000Z</time>
</trkpt>
<trkpt lat="43.576474" lon="3.170675">
<ele>350.9</ele>
<time>2013-05-08T16:52:43.000Z</time>
</trkpt>
<trkpt lat="43.576213" lon="3.170757">
<ele>352.8</ele>
<time>2013-05-08T16:52:44.000Z</time>
</trkpt>
<trkpt lat="43.575958" lon="3.170843">
<ele>354.6</ele>
<time>2013-05-08T16:52:45.000Z</time>
</trkpt>
<trkpt lat="43.575708" lon="3.170925">
<ele>356.4</ele>
<time>2013-05-08T16:52:46.000Z</time>
</trkpt>
<trkpt lat="43.575463" lon="3.171003">
<ele>358.3</ele>
<time>2013-05-08T16:52:47.000Z</time>
</trkpt>
<trkpt lat="43.575226" lon="3.171071">
<ele>360.2</ele>
<time>2013-05-08T16:52:48.000Z</time>
</trkpt>
<trkpt lat="43.574995" lon="3.171135">
<ele>362.2</ele>
<time>2013-05-08T16:52:49.000Z</time>
</trkpt>
<trkpt lat="43.574775" lon="3.171198">
<ele>364.3</ele>
<time>2013-05-08T16:52:50.000Z</time>
</trkpt>
<trkpt lat="43.574555" lon="3.171246">
<ele>366.5</ele>
<time>2013-05-08T16:52:51.000Z</time>
</trkpt>
<trkpt lat="43.574329" lon="3.171311">
<ele>368.7</ele>
<time>2013-05-08T16:52:52.000Z</time>
</trkpt>
<trkpt lat="43.574096" lon="3.171358">
<ele>370.7</ele>
<time>2013-05-08T16:52:53.000Z</time>
</trkpt>
<trkpt lat="43.573853" lon="3.171389">
<ele>372.8</ele>
<time>2013-05-08T16:52:54.000Z</time>
</trkpt>
<trkpt lat="43.573606" lon="3.171399">
<ele>374.9</ele>
<time>2013-05-08T16:52:55.000Z</time>
</trkpt>
<trkpt lat="43.573355" lon="3.171388">
<ele>376.8</ele>
<time>2013-05-08T16:52:56.000Z</time>
</trkpt>
<trkpt lat="43.573091" lon="3.171357">
<ele>378.8</ele>
<time>2013-05-08T16:52:57.000Z</time>
</trkpt>
<trkpt lat="43.572834" lon="3.171311">
<ele>380.8</ele>
<time>2013-05-08T16:52:58.000Z</time>
</trkpt>
<trkpt lat="43.572583" lon="3.171218">
<ele>383.1</ele>
<time>2013-05-08T16:52:59.000Z</time>
</trkpt>
<trkpt lat="43.572338" lon="3.17113">
<ele>385.4</ele>
<time>2013-05-08T16:53:00.000Z</time>
</trkpt>
<trkpt lat="43.572096" lon="3.171052">
<ele>387.6</ele>
<time>2013-05-08T16:53:01.000Z</time>
</trkpt>
<trkpt lat="43.571846" lon="3.170964">
<ele>389.7</ele>
<time>2013-05-08T16:53:02.000Z</time>
</trkpt>
<trkpt lat="43.571594" lon="3.170881">
<ele>391.7</ele>
<time>2013-05-08T16:53:03.000Z</time>
</trkpt>
<trkpt lat="43.571341" lon="3.170797">
<ele>393.3</ele>
<time>2013-05-08T16:53:04.000Z</time>
</trkpt>
<trkpt lat="43.57109" lon="3.170713">
<ele>394.4</ele>
<time>2013-05-08T16:53:05.000Z</time>
</trkpt>
<trkpt lat="43.570834" lon="3.170634">
<ele>395.3</ele>
<time>2013-05-08T16:53:06.000Z</time>
</trkpt>
<trkpt lat="43.570572" lon="3.170555">
<ele>395.8</ele>
<time>2013-05-08T16:53:07.000Z</time>
</trkpt>
<trkpt lat="43.570306" lon="3.170469">
<ele>396.1</ele>
<time>2013-05-08T16:53:08.000Z</time>
</trkpt>
<trkpt lat="43.570025" lon="3.17038">
<ele>396.6</ele>
<time>2013-05-08T16:53:09.000Z</time>
</trkpt>
<trkpt lat="43.569731" lon="3.170288">
<ele>397.1</ele>
<time>2013-05-08T16:53:10.000Z</time>
</trkpt>
<trkpt lat="43.569431" lon="3.170198">
<ele>397.8</ele>
<time>2013-05-08T16:53:11.000Z</time>
</trkpt>
<trkpt lat="43.569138" lon="3.170114">
<ele>397.7</ele>
<time>2013-05-08T16:53:12.000Z</time>
</trkpt>
<trkpt lat="43.568848" lon="3.170027">
<ele>397.1</ele>
<time>2013-05-08T16:53:13.000Z</time>
</trkpt>
<trkpt lat="43.568555" lon="3.169937">
<ele>396.2</ele>
<time>2013-05-08T16:53:14.000Z</time>
</trkpt>
<trkpt lat="43.56826" lon="3.169844">
<ele>395.2</ele>
<time>2013-05-08T16:53:15.000Z</time>
</trkpt>
<trkpt lat="43.567962" lon="3.16975">
<ele>394.1</ele>
<time>2013-05-08T16:53:16.000Z</time>
</trkpt>
<trkpt lat="43.567662" lon="3.169657">
<ele>393.1</ele>
<time>2013-05-08T16:53:17.000Z</time>
</trkpt>
<trkpt lat="43.567371" lon="3.169566">
<ele>392.1</ele>
<time>2013-05-08T16:53:18.000Z</time>
</trkpt>
<trkpt lat="43.567091" lon="3.169481">
<ele>391.2</ele>
<time>2013-05-08T16:53:19.000Z</time>
</trkpt>
<trkpt lat="43.566815" lon="3.169403">
<ele>390.4</ele>
<time>2013-05-08T16:53:20.000Z</time>
</trkpt>
<trkpt lat="43.566561" lon="3.169326">
<ele>389.7</ele>
<time>2013-05-08T16:53:21.000Z</time>
</trkpt>
<trkpt lat="43.566315" lon="3.169252">
<ele>389.2</ele>
<time>2013-05-08T16:53:22.000Z</time>
</trkpt>
<trkpt lat="43.566086" lon="3.169183">
<ele>388.7</ele>
<time>2013-05-08T16:53:23.000Z</time>
</trkpt>
<trkpt lat="43.565871" lon="3.169124">
<ele>388.3</ele>
<time>2013-05-08T16:53:24.000Z</time>
</trkpt>
<trkpt lat="43.565681" lon="3.169092">
<ele>387.7</ele>
<time>2013-05-08T16:53:25.000Z</time>
</trkpt>
<trkpt lat="43.5655" lon="3.169079">
<ele>387</ele>
<time>2013-05-08T16:53:26.000Z</time>
</trkpt>
<trkpt lat="43.56532" lon="3.169104">
<ele>386.4</ele>
<time>2013-05-08T16:53:27.000Z</time>
</trkpt>
<trkpt lat="43.565151" lon="3.169166">
<ele>385.3</ele>
<time>2013-05-08T16:53:28.000Z</time>
</trkpt>
<trkpt lat="43.564984" lon="3.169243">
<ele>384.1</ele>
<time>2013-05-08T16:53:29.000Z</time>
</trkpt>
<trkpt lat="43.56483" lon="3.169386">
<ele>383.2</ele>
<time>2013-05-08T16:53:30.000Z</time>
</trkpt>
<trkpt lat="43.564682" lon="3.169539">
<ele>382.4</ele>
<time>2013-05-08T16:53:31.000Z</time>
</trkpt>
<trkpt lat="43.564564" lon="3.16975">
<ele>381.6</ele>
<time>2013-05-08T16:53:32.000Z</time>
</trkpt>
<trkpt lat="43.564472" lon="3.16998">
<ele>380.7</ele>
<time>2013-05-08T16:53:33.000Z</time>
</trkpt>
<trkpt lat="43.564402" lon="3.170249">
<ele>379.7</ele>
<time>2013-05-08T16:53:34.000Z</time>
</trkpt>
<trkpt lat="43.564354" lon="3.170535">
<ele>378.8</ele>
<time>2013-05-08T16:53:35.000Z</time>
</trkpt>
<trkpt lat="43.564316" lon="3.170855">
<ele>378</ele>
<time>2013-05-08T16:53:36.000Z</time>
</trkpt>
<trkpt lat="43.564283" lon="3.171198">
<ele>377.3</ele>
<time>2013-05-08T16:53:37.000Z</time>
</trkpt>
<trkpt lat="43.564247" lon="3.17156">
<ele>376.7</ele>
<time>2013-05-08T16:53:38.000Z</time>
</trkpt>
<trkpt lat="43.56421" lon="3.171925">
<ele>375.9</ele>
<time>2013-05-08T16:53:39.000Z</time>
</trkpt>
<trkpt lat="43.56417" lon="3.172304">
<ele>375</ele>
<time>2013-05-08T16:53:40.000Z</time>
</trkpt>
<trkpt lat="43.56413" lon="3.172683">
<ele>374.2</ele>
<time>2013-05-08T16:53:41.000Z</time>
</trkpt>
<trkpt lat="43.564089" lon="3.17306">
<ele>373.5</ele>
<time>2013-05-08T16:53:42.000Z</time>
</trkpt>
<trkpt lat="43.564048" lon="3.173433">
<ele>372.7</ele>
<time>2013-05-08T16:53:43.000Z</time>
</trkpt>
<trkpt lat="43.564008" lon="3.173804">
<ele>372</ele>
<time>2013-05-08T16:53:44.000Z</time>
</trkpt>
<trkpt lat="43.563965" lon="3.174174">
<ele>371.5</ele>
<time>2013-05-08T16:53:45.000Z</time>
</trkpt>
<trkpt lat="43.56392" lon="3.174541">
<ele>370.9</ele>
<time>2013-05-08T16:53:46.000Z</time>
</trkpt>
<trkpt lat="43.563876" lon="3.174916">
<ele>370.5</ele>
<time>2013-05-08T16:53:47.000Z</time>
</trkpt>
<trkpt lat="43.563833" lon="3.175286">
<ele>370</ele>
<time>2013-05-08T16:53:48.000Z</time>
</trkpt>
<trkpt lat="43.56379" lon="3.175661">
<ele>369.4</ele>
<time>2013-05-08T16:53:49.000Z</time>
</trkpt>
<trkpt lat="43.56375" lon="3.176027">
<ele>368.7</ele>
<time>2013-05-08T16:53:50.000Z</time>
</trkpt>
<trkpt lat="43.56371" lon="3.176378">
<ele>367.9</ele>
<time>2013-05-08T16:53:51.000Z</time>
</trkpt>
<trkpt lat="43.563671" lon="3.176713">
<ele>367.3</ele>
<time>2013-05-08T16:53:52.000Z</time>
</trkpt>
<trkpt lat="43.563637" lon="3.177019">
<ele>366.5</ele>
<time>2013-05-08T16:53:53.000Z</time>
</trkpt>
<trkpt lat="43.563604" lon="3.177313">
<ele>365.6</ele>
<time>2013-05-08T16:53:54.000Z</time>
</trkpt>
<trkpt lat="43.563572" lon="3.177595">
<ele>364.6</ele>
<time>2013-05-08T16:53:55.000Z</time>
</trkpt>
<trkpt lat="43.563539" lon="3.177857">
<ele>363.4</ele>
<time>2013-05-08T16:53:56.000Z</time>
</trkpt>
<trkpt lat="43.563509" lon="3.178115">
<ele>362.4</ele>
<time>2013-05-08T16:53:57.000Z</time>
</trkpt>
<trkpt lat="43.563478" lon="3.178376">
<ele>361.6</ele>
<time>2013-05-08T16:53:58.000Z</time>
</trkpt>
<trkpt lat="43.563449" lon="3.178628">
<ele>360.7</ele>
<time>2013-05-08T16:53:59.000Z</time>
</trkpt>
<trkpt lat="43.563412" lon="3.178883">
<ele>359.8</ele>
<time>2013-05-08T16:54:00.000Z</time>
</trkpt>
<trkpt lat="43.563365" lon="3.17914">
<ele>359</ele>
<time>2013-05-08T16:54:01.000Z</time>
</trkpt>
<trkpt lat="43.563307" lon="3.179379">
<ele>358</ele>
<time>2013-05-08T16:54:02.000Z</time>
</trkpt>
<trkpt lat="43.563237" lon="3.179609">
<ele>357</ele>
<time>2013-05-08T16:54:03.000Z</time>
</trkpt>
<trkpt lat="43.563149" lon="3.179819">
<ele>355.9</ele>
<time>2013-05-08T16:54:04.000Z</time>
</trkpt>
<trkpt lat="43.563067" lon="3.180008">
<ele>354.5</ele>
<time>2013-05-08T16:54:05.000Z</time>
</trkpt>
<trkpt lat="43.562972" lon="3.180198">
<ele>353.3</ele>
<time>2013-05-08T16:54:06.000Z</time>
</trkpt>
<trkpt lat="43.562874" lon="3.18037">
<ele>352.2</ele>
<time>2013-05-08T16:54:07.000Z</time>
</trkpt>
<trkpt lat="43.562779" lon="3.180511">
<ele>351.3</ele>
<time>2013-05-08T16:54:08.000Z</time>
</trkpt>
<trkpt lat="43.562691" lon="3.180619">
<ele>350.7</ele>
<time>2013-05-08T16:54:09.000Z</time>
</trkpt>
<trkpt lat="43.562611" lon="3.180704">
<ele>350.1</ele>
<time>2013-05-08T16:54:10.000Z</time>
</trkpt>
<trkpt lat="43.562537" lon="3.180772">
<ele>349.4</ele>
<time>2013-05-08T16:54:11.000Z</time>
</trkpt>
<trkpt lat="43.562483" lon="3.180854">
<ele>349</ele>
<time>2013-05-08T16:54:12.000Z</time>
</trkpt>
<trkpt lat="43.562462" lon="3.180939">
<ele>348.7</ele>
<time>2013-05-08T16:54:13.000Z</time>
</trkpt>
<trkpt lat="43.562453" lon="3.181005">
<ele>348.6</ele>
<time>2013-05-08T16:54:14.000Z</time>
</trkpt>
<trkpt lat="43.562442" lon="3.181076">
<ele>348.5</ele>
<time>2013-05-08T16:54:15.000Z</time>
</trkpt>
<trkpt lat="43.562433" lon="3.181141">
<ele>348</ele>
<time>2013-05-08T16:54:16.000Z</time>
</trkpt>
<trkpt lat="43.5624" lon="3.181213">
<ele>347.4</ele>
<time>2013-05-08T16:54:17.000Z</time>
</trkpt>
<trkpt lat="43.562336" lon="3.181292">
<ele>346.8</ele>
<time>2013-05-08T16:54:18.000Z</time>
</trkpt>
<trkpt lat="43.562251" lon="3.181376">
<ele>346.3</ele>
<time>2013-05-08T16:54:19.000Z</time>
</trkpt>
<trkpt lat="43.562146" lon="3.181432">
<ele>345.8</ele>
<time>2013-05-08T16:54:20.000Z</time>
</trkpt>
<trkpt lat="43.562027" lon="3.181494">
<ele>345.5</ele>
<time>2013-05-08T16:54:21.000Z</time>
</trkpt>
<trkpt lat="43.5619" lon="3.181563">
<ele>345.2</ele>
<time>2013-05-08T16:54:22.000Z</time>
</trkpt>
<trkpt lat="43.561776" lon="3.181623">
<ele>344.8</ele>
<time>2013-05-08T16:54:23.000Z</time>
</trkpt>
<trkpt lat="43.561653" lon="3.181686">
<ele>344.5</ele>
<time>2013-05-08T16:54:24.000Z</time>
</trkpt>
<trkpt lat="43.561555" lon="3.181736">
<ele>344.3</ele>
<time>2013-05-08T16:54:25.000Z</time>
</trkpt>
<trkpt lat="43.561464" lon="3.181781">
<ele>344.4</ele>
<time>2013-05-08T16:54:26.000Z</time>
</trkpt>
<trkpt lat="43.561373" lon="3.181831">
<ele>344.8</ele>
<time>2013-05-08T16:54:27.000Z</time>
</trkpt>
<trkpt lat="43.561303" lon="3.18192">
<ele>345</ele>
<time>2013-05-08T16:54:28.000Z</time>
</trkpt>
<trkpt lat="43.561269" lon="3.182021">
<ele>345.1</ele>
<time>2013-05-08T16:54:29.000Z</time>
</trkpt>
<trkpt lat="43.561273" lon="3.182125">
<ele>345.1</ele>
<time>2013-05-08T16:54:30.000Z</time>
</trkpt>
<trkpt lat="43.561279" lon="3.182248">
<ele>345.1</ele>
<time>2013-05-08T16:54:31.000Z</time>
</trkpt>
<trkpt lat="43.561295" lon="3.182394">
<ele>344.9</ele>
<time>2013-05-08T16:54:32.000Z</time>
</trkpt>
<trkpt lat="43.561319" lon="3.182546">
<ele>344.7</ele>
<time>2013-05-08T16:54:33.000Z</time>
</trkpt>
<trkpt lat="43.561343" lon="3.182698">
<ele>345.1</ele>
<time>2013-05-08T16:54:34.000Z</time>
</trkpt>
<trkpt lat="43.561379" lon="3.182871">
<ele>345.4</ele>
<time>2013-05-08T16:54:35.000Z</time>
</trkpt>
<trkpt lat="43.561425" lon="3.183068">
<ele>345.2</ele>
<time>2013-05-08T16:54:36.000Z</time>
</trkpt>
<trkpt lat="43.561466" lon="3.183248">
<ele>344.6</ele>
<time>2013-05-08T16:54:37.000Z</time>
</trkpt>
<trkpt lat="43.561508" lon="3.183434">
<ele>344.2</ele>
<time>2013-05-08T16:54:38.000Z</time>
</trkpt>
<trkpt lat="43.561548" lon="3.183606">
<ele>344.1</ele>
<time>2013-05-08T16:54:39.000Z</time>
</trkpt>
<trkpt lat="43.561587" lon="3.183772">
<ele>344.1</ele>
<time>2013-05-08T16:54:40.000Z</time>
</trkpt>
<trkpt lat="43.561626" lon="3.183928">
<ele>343.7</ele>
<time>2013-05-08T16:54:41.000Z</time>
</trkpt>
<trkpt lat="43.561666" lon="3.184081">
<ele>343.1</ele>
<time>2013-05-08T16:54:42.000Z</time>
</trkpt>
<trkpt lat="43.561709" lon="3.184216">
<ele>343</ele>
<time>2013-05-08T16:54:43.000Z</time>
</trkpt>
<trkpt lat="43.561786" lon="3.184345">
<ele>342.5</ele>
<time>2013-05-08T16:54:44.000Z</time>
</trkpt>
<trkpt lat="43.561876" lon="3.18447">
<ele>342</ele>
<time>2013-05-08T16:54:45.000Z</time>
</trkpt>
<trkpt lat="43.561977" lon="3.184588">
<ele>341.5</ele>
<time>2013-05-08T16:54:46.000Z</time>
</trkpt>
<trkpt lat="43.562093" lon="3.184694">
<ele>341.1</ele>
<time>2013-05-08T16:54:47.000Z</time>
</trkpt>
<trkpt lat="43.56223" lon="3.1848">
<ele>341</ele>
<time>2013-05-08T16:54:48.000Z</time>
</trkpt>
<trkpt lat="43.562359" lon="3.18491">
<ele>340.6</ele>
<time>2013-05-08T16:54:49.000Z</time>
</trkpt>
<trkpt lat="43.562452" lon="3.185057">
<ele>339.8</ele>
<time>2013-05-08T16:54:50.000Z</time>
</trkpt>
<trkpt lat="43.56253" lon="3.185204">
<ele>339.3</ele>
<time>2013-05-08T16:54:51.000Z</time>
</trkpt>
<trkpt lat="43.562592" lon="3.185356">
<ele>338.7</ele>
<time>2013-05-08T16:54:52.000Z</time>
</trkpt>
<trkpt lat="43.562627" lon="3.185528">
<ele>338.1</ele>
<time>2013-05-08T16:54:53.000Z</time>
</trkpt>
<trkpt lat="43.562654" lon="3.185703">
<ele>337.8</ele>
<time>2013-05-08T16:54:54.000Z</time>
</trkpt>
<trkpt lat="43.56268" lon="3.185888">
<ele>337.2</ele>
<time>2013-05-08T16:54:55.000Z</time>
</trkpt>
<trkpt lat="43.562703" lon="3.18609">
<ele>336.6</ele>
<time>2013-05-08T16:54:56.000Z</time>
</trkpt>
<trkpt lat="43.562724" lon="3.186298">
<ele>336.3</ele>
<time>2013-05-08T16:54:57.000Z</time>
</trkpt>
<trkpt lat="43.562746" lon="3.186498">
<ele>336</ele>
<time>2013-05-08T16:54:58.000Z</time>
</trkpt>
<trkpt lat="43.562769" lon="3.186711">
<ele>336.1</ele>
<time>2013-05-08T16:54:59.000Z</time>
</trkpt>
<trkpt lat="43.562833" lon="3.186896">
<ele>335.9</ele>
<time>2013-05-08T16:55:00.000Z</time>
</trkpt>
<trkpt lat="43.562898" lon="3.187074">
<ele>336</ele>
<time>2013-05-08T16:55:01.000Z</time>
</trkpt>
<trkpt lat="43.562971" lon="3.187257">
<ele>336.1</ele>
<time>2013-05-08T16:55:02.000Z</time>
</trkpt>
<trkpt lat="43.563051" lon="3.187423">
<ele>336</ele>
<time>2013-05-08T16:55:03.000Z</time>
</trkpt>
<trkpt lat="43.563164" lon="3.187603">
<ele>335.6</ele>
<time>2013-05-08T16:55:04.000Z</time>
</trkpt>
<trkpt lat="43.56329" lon="3.187801">
<ele>335.3</ele>
<time>2013-05-08T16:55:05.000Z</time>
</trkpt>
<trkpt lat="43.563405" lon="3.18797">
<ele>334.6</ele>
<time>2013-05-08T16:55:06.000Z</time>
</trkpt>
<trkpt lat="43.563518" lon="3.188119">
<ele>333.5</ele>
<time>2013-05-08T16:55:07.000Z</time>
</trkpt>
<trkpt lat="43.563612" lon="3.188252">
<ele>331.4</ele>
<time>2013-05-08T16:55:08.000Z</time>
</trkpt>
<trkpt lat="43.563671" lon="3.188334">
<ele>329.5</ele>
<time>2013-05-08T16:55:09.000Z</time>
</trkpt>
<trkpt lat="43.563731" lon="3.18842">
<ele>327.9</ele>
<time>2013-05-08T16:55:10.000Z</time>
</trkpt>
<trkpt lat="43.563794" lon="3.188523">
<ele>326.8</ele>
<time>2013-05-08T16:55:11.000Z</time>
</trkpt>
<trkpt lat="43.563861" lon="3.188631">
<ele>326.3</ele>
<time>2013-05-08T16:55:12.000Z</time>
</trkpt>
<trkpt lat="43.563941" lon="3.188761">
<ele>325.8</ele>
<time>2013-05-08T16:55:13.000Z</time>
</trkpt>
<trkpt lat="43.564045" lon="3.188929">
<ele>325.3</ele>
<time>2013-05-08T16:55:14.000Z</time>
</trkpt>
<trkpt lat="43.564136" lon="3.189073">
<ele>324.7</ele>
<time>2013-05-08T16:55:15.000Z</time>
</trkpt>
<trkpt lat="43.564215" lon="3.189192">
<ele>324.2</ele>
<time>2013-05-08T16:55:16.000Z</time>
</trkpt>
<trkpt lat="43.564278" lon="3.189289">
<ele>323.6</ele>
<time>2013-05-08T16:55:17.000Z</time>
</trkpt>
<trkpt lat="43.564339" lon="3.18938">
<ele>323.2</ele>
<time>2013-05-08T16:55:18.000Z</time>
</trkpt>
<trkpt lat="43.564394" lon="3.189461">
<ele>322.5</ele>
<time>2013-05-08T16:55:19.000Z</time>
</trkpt>
<trkpt lat="43.56446" lon="3.189555">
<ele>321.7</ele>
<time>2013-05-08T16:55:20.000Z</time>
</trkpt>
<trkpt lat="43.564522" lon="3.18965">
<ele>321.1</ele>
<time>2013-05-08T16:55:21.000Z</time>
</trkpt>
<trkpt lat="43.564585" lon="3.189749">
<ele>320.5</ele>
<time>2013-05-08T16:55:22.000Z</time>
</trkpt>
<trkpt lat="43.564643" lon="3.189843">
<ele>320.1</ele>
<time>2013-05-08T16:55:23.000Z</time>
</trkpt>
<trkpt lat="43.564702" lon="3.18994">
<ele>319.5</ele>
<time>2013-05-08T16:55:24.000Z</time>
</trkpt>
<trkpt lat="43.564762" lon="3.190052">
<ele>319</ele>
<time>2013-05-08T16:55:25.000Z</time>
</trkpt>
<trkpt lat="43.564807" lon="3.190198">
<ele>318.5</ele>
<time>2013-05-08T16:55:26.000Z</time>
</trkpt>
<trkpt lat="43.564832" lon="3.190365">
<ele>317.8</ele>
<time>2013-05-08T16:55:27.000Z</time>
</trkpt>
<trkpt lat="43.564821" lon="3.190559">
<ele>317.3</ele>
<time>2013-05-08T16:55:28.000Z</time>
</trkpt>
<trkpt lat="43.5648" lon="3.190751">
<ele>317</ele>
<time>2013-05-08T16:55:29.000Z</time>
</trkpt>
<trkpt lat="43.564749" lon="3.190937">
<ele>316.5</ele>
<time>2013-05-08T16:55:30.000Z</time>
</trkpt>
<trkpt lat="43.56469" lon="3.191096">
<ele>316.1</ele>
<time>2013-05-08T16:55:31.000Z</time>
</trkpt>
<trkpt lat="43.564591" lon="3.191254">
<ele>315.5</ele>
<time>2013-05-08T16:55:32.000Z</time>
</trkpt>
<trkpt lat="43.564489" lon="3.191385">
<ele>314.9</ele>
<time>2013-05-08T16:55:33.000Z</time>
</trkpt>
<trkpt lat="43.564374" lon="3.191456">
<ele>314.3</ele>
<time>2013-05-08T16:55:34.000Z</time>
</trkpt>
<trkpt lat="43.564244" lon="3.191527">
<ele>313.6</ele>
<time>2013-05-08T16:55:35.000Z</time>
</trkpt>
<trkpt lat="43.564131" lon="3.191575">
<ele>312.9</ele>
<time>2013-05-08T16:55:36.000Z</time>
</trkpt>
<trkpt lat="43.564027" lon="3.191619">
<ele>312</ele>
<time>2013-05-08T16:55:37.000Z</time>
</trkpt>
<trkpt lat="43.563911" lon="3.191675">
<ele>311.3</ele>
<time>2013-05-08T16:55:38.000Z</time>
</trkpt>
<trkpt lat="43.563783" lon="3.191738">
<ele>310.6</ele>
<time>2013-05-08T16:55:39.000Z</time>
</trkpt>
<trkpt lat="43.563639" lon="3.191812">
<ele>310.1</ele>
<time>2013-05-08T16:55:40.000Z</time>
</trkpt>
<trkpt lat="43.56347" lon="3.191905">
<ele>309.8</ele>
<time>2013-05-08T16:55:41.000Z</time>
</trkpt>
<trkpt lat="43.563287" lon="3.19201">
<ele>309.6</ele>
<time>2013-05-08T16:55:42.000Z</time>
</trkpt>
<trkpt lat="43.563106" lon="3.192113">
<ele>309.7</ele>
<time>2013-05-08T16:55:43.000Z</time>
</trkpt>
<trkpt lat="43.562906" lon="3.192221">
<ele>309.5</ele>
<time>2013-05-08T16:55:44.000Z</time>
</trkpt>
<trkpt lat="43.5627" lon="3.192327">
<ele>309.1</ele>
<time>2013-05-08T16:55:45.000Z</time>
</trkpt>
<trkpt lat="43.562471" lon="3.192446">
<ele>308.4</ele>
<time>2013-05-08T16:55:46.000Z</time>
</trkpt>
<trkpt lat="43.562228" lon="3.192579">
<ele>307.6</ele>
<time>2013-05-08T16:55:47.000Z</time>
</trkpt>
<trkpt lat="43.561979" lon="3.192715">
<ele>307.2</ele>
<time>2013-05-08T16:55:48.000Z</time>
</trkpt>
<trkpt lat="43.561735" lon="3.192851">
<ele>307.1</ele>
<time>2013-05-08T16:55:49.000Z</time>
</trkpt>
<trkpt lat="43.561508" lon="3.192978">
<ele>307.1</ele>
<time>2013-05-08T16:55:50.000Z</time>
</trkpt>
<trkpt lat="43.561302" lon="3.193095">
<ele>307.2</ele>
<time>2013-05-08T16:55:51.000Z</time>
</trkpt>
<trkpt lat="43.561108" lon="3.1932">
<ele>307.3</ele>
<time>2013-05-08T16:55:52.000Z</time>
</trkpt>
<trkpt lat="43.560918" lon="3.1933">
<ele>307.5</ele>
<time>2013-05-08T16:55:53.000Z</time>
</trkpt>
<trkpt lat="43.560728" lon="3.193404">
<ele>308</ele>
<time>2013-05-08T16:55:54.000Z</time>
</trkpt>
<trkpt lat="43.560534" lon="3.193508">
<ele>308.5</ele>
<time>2013-05-08T16:55:55.000Z</time>
</trkpt>
<trkpt lat="43.56034" lon="3.19361">
<ele>309</ele>
<time>2013-05-08T16:55:56.000Z</time>
</trkpt>
<trkpt lat="43.560147" lon="3.193707">
<ele>309.5</ele>
<time>2013-05-08T16:55:57.000Z</time>
</trkpt>
<trkpt lat="43.559942" lon="3.193768">
<ele>309.8</ele>
<time>2013-05-08T16:55:58.000Z</time>
</trkpt>
<trkpt lat="43.559728" lon="3.193795">
<ele>310.1</ele>
<time>2013-05-08T16:55:59.000Z</time>
</trkpt>
<trkpt lat="43.559503" lon="3.193809">
<ele>310.2</ele>
<time>2013-05-08T16:56:00.000Z</time>
</trkpt>
<trkpt lat="43.559268" lon="3.193825">
<ele>310.2</ele>
<time>2013-05-08T16:56:01.000Z</time>
</trkpt>
<trkpt lat="43.55902" lon="3.193841">
<ele>310.1</ele>
<time>2013-05-08T16:56:02.000Z</time>
</trkpt>
<trkpt lat="43.55876" lon="3.193851">
<ele>309.9</ele>
<time>2013-05-08T16:56:03.000Z</time>
</trkpt>
<trkpt lat="43.558499" lon="3.193866">
<ele>309.4</ele>
<time>2013-05-08T16:56:04.000Z</time>
</trkpt>
<trkpt lat="43.558232" lon="3.193879">
<ele>308.9</ele>
<time>2013-05-08T16:56:05.000Z</time>
</trkpt>
<trkpt lat="43.557956" lon="3.193891">
<ele>308.4</ele>
<time>2013-05-08T16:56:06.000Z</time>
</trkpt>
<trkpt lat="43.557686" lon="3.1939">
<ele>307.9</ele>
<time>2013-05-08T16:56:07.000Z</time>
</trkpt>
<trkpt lat="43.557416" lon="3.193909">
<ele>307.5</ele>
<time>2013-05-08T16:56:08.000Z</time>
</trkpt>
<trkpt lat="43.557153" lon="3.193917">
<ele>307.1</ele>
<time>2013-05-08T16:56:09.000Z</time>
</trkpt>
<trkpt lat="43.55689" lon="3.193926">
<ele>306.9</ele>
<time>2013-05-08T16:56:10.000Z</time>
</trkpt>
<trkpt lat="43.556638" lon="3.193943">
<ele>306.7</ele>
<time>2013-05-08T16:56:11.000Z</time>
</trkpt>
<trkpt lat="43.55639" lon="3.193991">
<ele>306.5</ele>
<time>2013-05-08T16:56:12.000Z</time>
</trkpt>
<trkpt lat="43.55614" lon="3.194063">
<ele>306.1</ele>
<time>2013-05-08T16:56:13.000Z</time>
</trkpt>
<trkpt lat="43.555892" lon="3.194166">
<ele>305.7</ele>
<time>2013-05-08T16:56:14.000Z</time>
</trkpt>
<trkpt lat="43.555649" lon="3.194295">
<ele>305.4</ele>
<time>2013-05-08T16:56:15.000Z</time>
</trkpt>
<trkpt lat="43.555406" lon="3.194448">
<ele>305.1</ele>
<time>2013-05-08T16:56:16.000Z</time>
</trkpt>
<trkpt lat="43.555169" lon="3.194633">
<ele>304.9</ele>
<time>2013-05-08T16:56:17.000Z</time>
</trkpt>
<trkpt lat="43.554935" lon="3.194861">
<ele>304.5</ele>
<time>2013-05-08T16:56:18.000Z</time>
</trkpt>
<trkpt lat="43.554704" lon="3.195106">
<ele>303.7</ele>
<time>2013-05-08T16:56:19.000Z</time>
</trkpt>
<trkpt lat="43.554485" lon="3.195345">
<ele>302.8</ele>
<time>2013-05-08T16:56:20.000Z</time>
</trkpt>
<trkpt lat="43.55428" lon="3.19558">
<ele>301.8</ele>
<time>2013-05-08T16:56:21.000Z</time>
</trkpt>
<trkpt lat="43.554086" lon="3.195797">
<ele>300.8</ele>
<time>2013-05-08T16:56:22.000Z</time>
</trkpt>
<trkpt lat="43.553904" lon="3.196001">
<ele>299.7</ele>
<time>2013-05-08T16:56:23.000Z</time>
</trkpt>
<trkpt lat="43.553726" lon="3.196185">
<ele>298.9</ele>
<time>2013-05-08T16:56:24.000Z</time>
</trkpt>
<trkpt lat="43.55354" lon="3.196304">
<ele>298</ele>
<time>2013-05-08T16:56:25.000Z</time>
</trkpt>
<trkpt lat="43.553355" lon="3.196394">
<ele>297.7</ele>
<time>2013-05-08T16:56:26.000Z</time>
</trkpt>
<trkpt lat="43.553153" lon="3.196419">
<ele>297.8</ele>
<time>2013-05-08T16:56:27.000Z</time>
</trkpt>
<trkpt lat="43.552961" lon="3.196418">
<ele>297.8</ele>
<time>2013-05-08T16:56:28.000Z</time>
</trkpt>
<trkpt lat="43.552771" lon="3.196405">
<ele>297.8</ele>
<time>2013-05-08T16:56:29.000Z</time>
</trkpt>
<trkpt lat="43.552587" lon="3.196426">
<ele>297.4</ele>
<time>2013-05-08T16:56:30.000Z</time>
</trkpt>
<trkpt lat="43.552412" lon="3.196487">
<ele>297.6</ele>
<time>2013-05-08T16:56:31.000Z</time>
</trkpt>
<trkpt lat="43.552255" lon="3.196603">
<ele>297.3</ele>
<time>2013-05-08T16:56:32.000Z</time>
</trkpt>
<trkpt lat="43.552115" lon="3.19677">
<ele>296.4</ele>
<time>2013-05-08T16:56:33.000Z</time>
</trkpt>
<trkpt lat="43.552004" lon="3.196984">
<ele>295.4</ele>
<time>2013-05-08T16:56:34.000Z</time>
</trkpt>
<trkpt lat="43.551929" lon="3.197238">
<ele>294.2</ele>
<time>2013-05-08T16:56:35.000Z</time>
</trkpt>
<trkpt lat="43.551861" lon="3.197514">
<ele>293.1</ele>
<time>2013-05-08T16:56:36.000Z</time>
</trkpt>
<trkpt lat="43.551788" lon="3.197783">
<ele>291.9</ele>
<time>2013-05-08T16:56:37.000Z</time>
</trkpt>
<trkpt lat="43.551682" lon="3.19802">
<ele>290.9</ele>
<time>2013-05-08T16:56:38.000Z</time>
</trkpt>
<trkpt lat="43.551548" lon="3.198232">
<ele>289.6</ele>
<time>2013-05-08T16:56:39.000Z</time>
</trkpt>
<trkpt lat="43.551399" lon="3.198428">
<ele>288.1</ele>
<time>2013-05-08T16:56:40.000Z</time>
</trkpt>
<trkpt lat="43.551217" lon="3.198597">
<ele>286.7</ele>
<time>2013-05-08T16:56:41.000Z</time>
</trkpt>
<trkpt lat="43.551014" lon="3.19875">
<ele>285.3</ele>
<time>2013-05-08T16:56:42.000Z</time>
</trkpt>
<trkpt lat="43.550801" lon="3.198906">
<ele>283.7</ele>
<time>2013-05-08T16:56:43.000Z</time>
</trkpt>
<trkpt lat="43.550581" lon="3.199079">
<ele>282.1</ele>
<time>2013-05-08T16:56:44.000Z</time>
</trkpt>
<trkpt lat="43.550362" lon="3.199271">
<ele>280.5</ele>
<time>2013-05-08T16:56:45.000Z</time>
</trkpt>
<trkpt lat="43.550144" lon="3.199471">
<ele>278.9</ele>
<time>2013-05-08T16:56:46.000Z</time>
</trkpt>
<trkpt lat="43.549933" lon="3.199673">
<ele>277.2</ele>
<time>2013-05-08T16:56:47.000Z</time>
</trkpt>
<trkpt lat="43.549727" lon="3.19989">
<ele>275.6</ele>
<time>2013-05-08T16:56:48.000Z</time>
</trkpt>
<trkpt lat="43.549531" lon="3.200125">
<ele>274</ele>
<time>2013-05-08T16:56:49.000Z</time>
</trkpt>
<trkpt lat="43.54934" lon="3.200375">
<ele>272.5</ele>
<time>2013-05-08T16:56:50.000Z</time>
</trkpt>
<trkpt lat="43.549149" lon="3.200615">
<ele>270.9</ele>
<time>2013-05-08T16:56:51.000Z</time>
</trkpt>
<trkpt lat="43.54896" lon="3.20085">
<ele>269.3</ele>
<time>2013-05-08T16:56:52.000Z</time>
</trkpt>
<trkpt lat="43.548774" lon="3.201077">
<ele>267.5</ele>
<time>2013-05-08T16:56:53.000Z</time>
</trkpt>
<trkpt lat="43.54861" lon="3.201329">
<ele>265.5</ele>
<time>2013-05-08T16:56:54.000Z</time>
</trkpt>
<trkpt lat="43.548453" lon="3.201601">
<ele>263.6</ele>
<time>2013-05-08T16:56:55.000Z</time>
</trkpt>
<trkpt lat="43.548297" lon="3.201879">
<ele>262</ele>
<time>2013-05-08T16:56:56.000Z</time>
</trkpt>
<trkpt lat="43.548151" lon="3.202152">
<ele>260.5</ele>
<time>2013-05-08T16:56:57.000Z</time>
</trkpt>
<trkpt lat="43.548015" lon="3.202426">
<ele>259.1</ele>
<time>2013-05-08T16:56:58.000Z</time>
</trkpt>
<trkpt lat="43.547892" lon="3.202687">
<ele>258</ele>
<time>2013-05-08T16:56:59.000Z</time>
</trkpt>
<trkpt lat="43.547791" lon="3.202953">
<ele>256.9</ele>
<time>2013-05-08T16:57:00.000Z</time>
</trkpt>
<trkpt lat="43.547719" lon="3.203237">
<ele>256.2</ele>
<time>2013-05-08T16:57:01.000Z</time>
</trkpt>
<trkpt lat="43.547669" lon="3.203532">
<ele>255.8</ele>
<time>2013-05-08T16:57:02.000Z</time>
</trkpt>
<trkpt lat="43.54763" lon="3.203829">
<ele>255.2</ele>
<time>2013-05-08T16:57:03.000Z</time>
</trkpt>
<trkpt lat="43.5476" lon="3.204117">
<ele>254.6</ele>
<time>2013-05-08T16:57:04.000Z</time>
</trkpt>
<trkpt lat="43.547575" lon="3.204414">
<ele>254.2</ele>
<time>2013-05-08T16:57:05.000Z</time>
</trkpt>
<trkpt lat="43.547552" lon="3.204697">
<ele>254</ele>
<time>2013-05-08T16:57:06.000Z</time>
</trkpt>
<trkpt lat="43.547529" lon="3.204976">
<ele>253.9</ele>
<time>2013-05-08T16:57:07.000Z</time>
</trkpt>
<trkpt lat="43.54749" lon="3.205239">
<ele>254</ele>
<time>2013-05-08T16:57:08.000Z</time>
</trkpt>
<trkpt lat="43.547433" lon="3.205492">
<ele>254.2</ele>
<time>2013-05-08T16:57:09.000Z</time>
</trkpt>
<trkpt lat="43.547356" lon="3.205725">
<ele>254.5</ele>
<time>2013-05-08T16:57:10.000Z</time>
</trkpt>
<trkpt lat="43.54726" lon="3.205962">
<ele>254.6</ele>
<time>2013-05-08T16:57:11.000Z</time>
</trkpt>
<trkpt lat="43.547153" lon="3.206176">
<ele>254.9</ele>
<time>2013-05-08T16:57:12.000Z</time>
</trkpt>
<trkpt lat="43.547016" lon="3.206379">
<ele>255.6</ele>
<time>2013-05-08T16:57:13.000Z</time>
</trkpt>
<trkpt lat="43.54686" lon="3.206562">
<ele>256.4</ele>
<time>2013-05-08T16:57:14.000Z</time>
</trkpt>
<trkpt lat="43.546678" lon="3.206729">
<ele>257.8</ele>
<time>2013-05-08T16:57:15.000Z</time>
</trkpt>
<trkpt lat="43.546499" lon="3.206888">
<ele>259.2</ele>
<time>2013-05-08T16:57:16.000Z</time>
</trkpt>
<trkpt lat="43.546332" lon="3.207047">
<ele>260.5</ele>
<time>2013-05-08T16:57:17.000Z</time>
</trkpt>
<trkpt lat="43.546199" lon="3.207223">
<ele>262.3</ele>
<time>2013-05-08T16:57:18.000Z</time>
</trkpt>
<trkpt lat="43.546111" lon="3.207427">
<ele>264.1</ele>
<time>2013-05-08T16:57:19.000Z</time>
</trkpt>
<trkpt lat="43.546066" lon="3.20765">
<ele>265.7</ele>
<time>2013-05-08T16:57:20.000Z</time>
</trkpt>
<trkpt lat="43.546061" lon="3.207907">
<ele>267.2</ele>
<time>2013-05-08T16:57:21.000Z</time>
</trkpt>
<trkpt lat="43.546078" lon="3.208173">
<ele>268.4</ele>
<time>2013-05-08T16:57:22.000Z</time>
</trkpt>
<trkpt lat="43.546107" lon="3.208448">
<ele>269.2</ele>
<time>2013-05-08T16:57:23.000Z</time>
</trkpt>
<trkpt lat="43.546144" lon="3.208756">
<ele>269.6</ele>
<time>2013-05-08T16:57:24.000Z</time>
</trkpt>
<trkpt lat="43.546183" lon="3.209065">
<ele>269.7</ele>
<time>2013-05-08T16:57:25.000Z</time>
</trkpt>
<trkpt lat="43.546218" lon="3.209376">
<ele>269.6</ele>
<time>2013-05-08T16:57:26.000Z</time>
</trkpt>
<trkpt lat="43.546253" lon="3.20967">
<ele>269.4</ele>
<time>2013-05-08T16:57:27.000Z</time>
</trkpt>
<trkpt lat="43.546285" lon="3.209955">
<ele>269.2</ele>
<time>2013-05-08T16:57:28.000Z</time>
</trkpt>
<trkpt lat="43.546325" lon="3.210233">
<ele>269.1</ele>
<time>2013-05-08T16:57:29.000Z</time>
</trkpt>
<trkpt lat="43.546378" lon="3.210508">
<ele>268.9</ele>
<time>2013-05-08T16:57:30.000Z</time>
</trkpt>
<trkpt lat="43.546455" lon="3.210766">
<ele>268.6</ele>
<time>2013-05-08T16:57:31.000Z</time>
</trkpt>
<trkpt lat="43.546562" lon="3.211009">
<ele>268.5</ele>
<time>2013-05-08T16:57:32.000Z</time>
</trkpt>
<trkpt lat="43.546687" lon="3.211234">
<ele>268.4</ele>
<time>2013-05-08T16:57:33.000Z</time>
</trkpt>
<trkpt lat="43.546819" lon="3.211454">
<ele>268.6</ele>
<time>2013-05-08T16:57:34.000Z</time>
</trkpt>
<trkpt lat="43.546953" lon="3.21168">
<ele>269.1</ele>
<time>2013-05-08T16:57:35.000Z</time>
</trkpt>
<trkpt lat="43.547077" lon="3.211903">
<ele>269.5</ele>
<time>2013-05-08T16:57:36.000Z</time>
</trkpt>
<trkpt lat="43.547176" lon="3.212127">
<ele>269.4</ele>
<time>2013-05-08T16:57:37.000Z</time>
</trkpt>
<trkpt lat="43.547249" lon="3.212362">
<ele>269.4</ele>
<time>2013-05-08T16:57:38.000Z</time>
</trkpt>
<trkpt lat="43.54729" lon="3.212603">
<ele>269.2</ele>
<time>2013-05-08T16:57:39.000Z</time>
</trkpt>
<trkpt lat="43.547301" lon="3.212839">
<ele>268.7</ele>
<time>2013-05-08T16:57:40.000Z</time>
</trkpt>
<trkpt lat="43.547265" lon="3.213081">
<ele>268.3</ele>
<time>2013-05-08T16:57:41.000Z</time>
</trkpt>
<trkpt lat="43.54719" lon="3.213308">
<ele>267.9</ele>
<time>2013-05-08T16:57:42.000Z</time>
</trkpt>
<trkpt lat="43.547074" lon="3.213511">
<ele>267.7</ele>
<time>2013-05-08T16:57:43.000Z</time>
</trkpt>
<trkpt lat="43.546924" lon="3.213685">
<ele>267.7</ele>
<time>2013-05-08T16:57:44.000Z</time>
</trkpt>
<trkpt lat="43.546763" lon="3.213836">
<ele>267.7</ele>
<time>2013-05-08T16:57:45.000Z</time>
</trkpt>
<trkpt lat="43.546573" lon="3.213956">
<ele>267.5</ele>
<time>2013-05-08T16:57:46.000Z</time>
</trkpt>
<trkpt lat="43.546357" lon="3.214048">
<ele>267.4</ele>
<time>2013-05-08T16:57:47.000Z</time>
</trkpt>
<trkpt lat="43.546149" lon="3.214142">
<ele>267.2</ele>
<time>2013-05-08T16:57:48.000Z</time>
</trkpt>
<trkpt lat="43.545933" lon="3.214221">
<ele>267.1</ele>
<time>2013-05-08T16:57:49.000Z</time>
</trkpt>
<trkpt lat="43.545725" lon="3.214306">
<ele>267.1</ele>
<time>2013-05-08T16:57:50.000Z</time>
</trkpt>
<trkpt lat="43.545528" lon="3.214392">
<ele>267</ele>
<time>2013-05-08T16:57:51.000Z</time>
</trkpt>
<trkpt lat="43.545342" lon="3.214475">
<ele>267</ele>
<time>2013-05-08T16:57:52.000Z</time>
</trkpt>
<trkpt lat="43.545169" lon="3.214561">
<ele>266.9</ele>
<time>2013-05-08T16:57:53.000Z</time>
</trkpt>
<trkpt lat="43.545007" lon="3.214654">
<ele>266.9</ele>
<time>2013-05-08T16:57:54.000Z</time>
</trkpt>
<trkpt lat="43.544852" lon="3.214762">
<ele>266.7</ele>
<time>2013-05-08T16:57:55.000Z</time>
</trkpt>
<trkpt lat="43.544702" lon="3.214897">
<ele>266.5</ele>
<time>2013-05-08T16:57:56.000Z</time>
</trkpt>
<trkpt lat="43.544558" lon="3.215043">
<ele>266.3</ele>
<time>2013-05-08T16:57:57.000Z</time>
</trkpt>
<trkpt lat="43.544424" lon="3.215218">
<ele>266.2</ele>
<time>2013-05-08T16:57:58.000Z</time>
</trkpt>
<trkpt lat="43.544294" lon="3.21542">
<ele>266.3</ele>
<time>2013-05-08T16:57:59.000Z</time>
</trkpt>
<trkpt lat="43.544165" lon="3.21565">
<ele>266.3</ele>
<time>2013-05-08T16:58:00.000Z</time>
</trkpt>
<trkpt lat="43.544034" lon="3.215895">
<ele>266.3</ele>
<time>2013-05-08T16:58:01.000Z</time>
</trkpt>
<trkpt lat="43.5439" lon="3.216153">
<ele>266</ele>
<time>2013-05-08T16:58:02.000Z</time>
</trkpt>
<trkpt lat="43.543757" lon="3.216426">
<ele>265.6</ele>
<time>2013-05-08T16:58:03.000Z</time>
</trkpt>
<trkpt lat="43.543606" lon="3.216714">
<ele>265.2</ele>
<time>2013-05-08T16:58:04.000Z</time>
</trkpt>
<trkpt lat="43.543447" lon="3.217015">
<ele>264.9</ele>
<time>2013-05-08T16:58:05.000Z</time>
</trkpt>
<trkpt lat="43.54328" lon="3.217332">
<ele>264.7</ele>
<time>2013-05-08T16:58:06.000Z</time>
</trkpt>
<trkpt lat="43.543115" lon="3.217648">
<ele>264.9</ele>
<time>2013-05-08T16:58:07.000Z</time>
</trkpt>
<trkpt lat="43.542955" lon="3.217958">
<ele>265.2</ele>
<time>2013-05-08T16:58:08.000Z</time>
</trkpt>
<trkpt lat="43.542805" lon="3.218257">
<ele>265.3</ele>
<time>2013-05-08T16:58:09.000Z</time>
</trkpt>
<trkpt lat="43.542658" lon="3.218545">
<ele>265.4</ele>
<time>2013-05-08T16:58:10.000Z</time>
</trkpt>
<trkpt lat="43.542502" lon="3.218813">
<ele>265.3</ele>
<time>2013-05-08T16:58:11.000Z</time>
</trkpt>
<trkpt lat="43.542329" lon="3.219054">
<ele>264.9</ele>
<time>2013-05-08T16:58:12.000Z</time>
</trkpt>
<trkpt lat="43.542147" lon="3.219269">
<ele>264.4</ele>
<time>2013-05-08T16:58:13.000Z</time>
</trkpt>
<trkpt lat="43.541948" lon="3.219453">
<ele>263.9</ele>
<time>2013-05-08T16:58:14.000Z</time>
</trkpt>
<trkpt lat="43.541738" lon="3.2196">
<ele>263.6</ele>
<time>2013-05-08T16:58:15.000Z</time>
</trkpt>
<trkpt lat="43.541533" lon="3.219718">
<ele>263.4</ele>
<time>2013-05-08T16:58:16.000Z</time>
</trkpt>
<trkpt lat="43.541332" lon="3.219826">
<ele>263.1</ele>
<time>2013-05-08T16:58:17.000Z</time>
</trkpt>
<trkpt lat="43.541129" lon="3.219929">
<ele>262.6</ele>
<time>2013-05-08T16:58:18.000Z</time>
</trkpt>
<trkpt lat="43.540921" lon="3.220035">
<ele>262.2</ele>
<time>2013-05-08T16:58:19.000Z</time>
</trkpt>
<trkpt lat="43.540711" lon="3.220148">
<ele>261.7</ele>
<time>2013-05-08T16:58:20.000Z</time>
</trkpt>
<trkpt lat="43.5405" lon="3.220261">
<ele>261.1</ele>
<time>2013-05-08T16:58:21.000Z</time>
</trkpt>
<trkpt lat="43.54028" lon="3.220376">
<ele>260.6</ele>
<time>2013-05-08T16:58:22.000Z</time>
</trkpt>
<trkpt lat="43.540057" lon="3.220492">
<ele>260.2</ele>
<time>2013-05-08T16:58:23.000Z</time>
</trkpt>
<trkpt lat="43.539834" lon="3.220609">
<ele>259.8</ele>
<time>2013-05-08T16:58:24.000Z</time>
</trkpt>
<trkpt lat="43.539609" lon="3.220727">
<ele>259.3</ele>
<time>2013-05-08T16:58:25.000Z</time>
</trkpt>
<trkpt lat="43.539384" lon="3.220845">
<ele>258.8</ele>
<time>2013-05-08T16:58:26.000Z</time>
</trkpt>
<trkpt lat="43.539154" lon="3.220956">
<ele>258.4</ele>
<time>2013-05-08T16:58:27.000Z</time>
</trkpt>
<trkpt lat="43.538921" lon="3.221053">
<ele>257.9</ele>
<time>2013-05-08T16:58:28.000Z</time>
</trkpt>
<trkpt lat="43.538685" lon="3.221133">
<ele>257.4</ele>
<time>2013-05-08T16:58:29.000Z</time>
</trkpt>
<trkpt lat="43.538446" lon="3.221208">
<ele>257</ele>
<time>2013-05-08T16:58:30.000Z</time>
</trkpt>
<trkpt lat="43.538209" lon="3.221274">
<ele>256.5</ele>
<time>2013-05-08T16:58:31.000Z</time>
</trkpt>
<trkpt lat="43.537977" lon="3.221334">
<ele>255.8</ele>
<time>2013-05-08T16:58:32.000Z</time>
</trkpt>
<trkpt lat="43.537745" lon="3.221389">
<ele>255</ele>
<time>2013-05-08T16:58:33.000Z</time>
</trkpt>
<trkpt lat="43.537512" lon="3.221444">
<ele>254.4</ele>
<time>2013-05-08T16:58:34.000Z</time>
</trkpt>
<trkpt lat="43.53728" lon="3.221505">
<ele>253.6</ele>
<time>2013-05-08T16:58:35.000Z</time>
</trkpt>
<trkpt lat="43.537043" lon="3.221569">
<ele>252.9</ele>
<time>2013-05-08T16:58:36.000Z</time>
</trkpt>
<trkpt lat="43.536802" lon="3.221633">
<ele>252.3</ele>
<time>2013-05-08T16:58:37.000Z</time>
</trkpt>
<trkpt lat="43.536556" lon="3.221702">
<ele>251.9</ele>
<time>2013-05-08T16:58:38.000Z</time>
</trkpt>
<trkpt lat="43.536311" lon="3.221782">
<ele>251.8</ele>
<time>2013-05-08T16:58:39.000Z</time>
</trkpt>
<trkpt lat="43.536079" lon="3.221881">
<ele>251.8</ele>
<time>2013-05-08T16:58:40.000Z</time>
</trkpt>
<trkpt lat="43.535853" lon="3.222005">
<ele>251.8</ele>
<time>2013-05-08T16:58:41.000Z</time>
</trkpt>
<trkpt lat="43.535645" lon="3.222151">
<ele>251.8</ele>
<time>2013-05-08T16:58:42.000Z</time>
</trkpt>
<trkpt lat="43.535459" lon="3.222329">
<ele>251.5</ele>
<time>2013-05-08T16:58:43.000Z</time>
</trkpt>
<trkpt lat="43.535287" lon="3.222538">
<ele>251</ele>
<time>2013-05-08T16:58:44.000Z</time>
</trkpt>
<trkpt lat="43.535138" lon="3.222769">
<ele>250.7</ele>
<time>2013-05-08T16:58:45.000Z</time>
</trkpt>
<trkpt lat="43.535012" lon="3.22303">
<ele>250.7</ele>
<time>2013-05-08T16:58:46.000Z</time>
</trkpt>
<trkpt lat="43.534899" lon="3.223317">
<ele>250.8</ele>
<time>2013-05-08T16:58:47.000Z</time>
</trkpt>
<trkpt lat="43.534806" lon="3.22362">
<ele>250.5</ele>
<time>2013-05-08T16:58:48.000Z</time>
</trkpt>
<trkpt lat="43.534721" lon="3.22393">
<ele>249.8</ele>
<time>2013-05-08T16:58:49.000Z</time>
</trkpt>
<trkpt lat="43.534629" lon="3.22424">
<ele>249.1</ele>
<time>2013-05-08T16:58:50.000Z</time>
</trkpt>
<trkpt lat="43.534525" lon="3.224555">
<ele>248.2</ele>
<time>2013-05-08T16:58:51.000Z</time>
</trkpt>
<trkpt lat="43.534418" lon="3.224867">
<ele>247.2</ele>
<time>2013-05-08T16:58:52.000Z</time>
</trkpt>
<trkpt lat="43.534294" lon="3.225179">
<ele>246.2</ele>
<time>2013-05-08T16:58:53.000Z</time>
</trkpt>
<trkpt lat="43.534174" lon="3.225471">
<ele>245.1</ele>
<time>2013-05-08T16:58:54.000Z</time>
</trkpt>
<trkpt lat="43.53405" lon="3.225768">
<ele>243.9</ele>
<time>2013-05-08T16:58:55.000Z</time>
</trkpt>
<trkpt lat="43.533925" lon="3.226068">
<ele>242.8</ele>
<time>2013-05-08T16:58:56.000Z</time>
</trkpt>
<trkpt lat="43.533799" lon="3.226376">
<ele>241.7</ele>
<time>2013-05-08T16:58:57.000Z</time>
</trkpt>
<trkpt lat="43.533679" lon="3.226677">
<ele>240.6</ele>
<time>2013-05-08T16:58:58.000Z</time>
</trkpt>
<trkpt lat="43.533562" lon="3.22696">
<ele>239.5</ele>
<time>2013-05-08T16:58:59.000Z</time>
</trkpt>
<trkpt lat="43.533443" lon="3.227247">
<ele>238.4</ele>
<time>2013-05-08T16:59:00.000Z</time>
</trkpt>
<trkpt lat="43.533338" lon="3.22754">
<ele>237.5</ele>
<time>2013-05-08T16:59:01.000Z</time>
</trkpt>
<trkpt lat="43.533239" lon="3.227852">
<ele>236.8</ele>
<time>2013-05-08T16:59:02.000Z</time>
</trkpt>
<trkpt lat="43.533148" lon="3.228183">
<ele>236.1</ele>
<time>2013-05-08T16:59:03.000Z</time>
</trkpt>
<trkpt lat="43.533058" lon="3.22852">
<ele>235.5</ele>
<time>2013-05-08T16:59:04.000Z</time>
</trkpt>
<trkpt lat="43.532969" lon="3.228854">
<ele>235</ele>
<time>2013-05-08T16:59:05.000Z</time>
</trkpt>
<trkpt lat="43.532881" lon="3.229185">
<ele>234.5</ele>
<time>2013-05-08T16:59:06.000Z</time>
</trkpt>
<trkpt lat="43.532796" lon="3.229513">
<ele>233.9</ele>
<time>2013-05-08T16:59:07.000Z</time>
</trkpt>
<trkpt lat="43.532716" lon="3.229839">
<ele>233.3</ele>
<time>2013-05-08T16:59:08.000Z</time>
</trkpt>
<trkpt lat="43.532634" lon="3.230164">
<ele>232.6</ele>
<time>2013-05-08T16:59:09.000Z</time>
</trkpt>
<trkpt lat="43.532551" lon="3.230486">
<ele>232.1</ele>
<time>2013-05-08T16:59:10.000Z</time>
</trkpt>
<trkpt lat="43.532458" lon="3.2308">
<ele>231.7</ele>
<time>2013-05-08T16:59:11.000Z</time>
</trkpt>
<trkpt lat="43.532344" lon="3.231107">
<ele>231.4</ele>
<time>2013-05-08T16:59:12.000Z</time>
</trkpt>
<trkpt lat="43.532204" lon="3.231384">
<ele>230.6</ele>
<time>2013-05-08T16:59:13.000Z</time>
</trkpt>
<trkpt lat="43.532039" lon="3.231662">
<ele>229.7</ele>
<time>2013-05-08T16:59:14.000Z</time>
</trkpt>
<trkpt lat="43.531858" lon="3.231919">
<ele>228.7</ele>
<time>2013-05-08T16:59:15.000Z</time>
</trkpt>
<trkpt lat="43.531672" lon="3.232173">
<ele>227.7</ele>
<time>2013-05-08T16:59:16.000Z</time>
</trkpt>
<trkpt lat="43.53148" lon="3.232432">
<ele>226.8</ele>
<time>2013-05-08T16:59:17.000Z</time>
</trkpt>
<trkpt lat="43.531292" lon="3.232686">
<ele>225.9</ele>
<time>2013-05-08T16:59:18.000Z</time>
</trkpt>
<trkpt lat="43.531113" lon="3.232942">
<ele>225.1</ele>
<time>2013-05-08T16:59:19.000Z</time>
</trkpt>
<trkpt lat="43.530948" lon="3.233208">
<ele>224.2</ele>
<time>2013-05-08T16:59:20.000Z</time>
</trkpt>
<trkpt lat="43.530791" lon="3.233485">
<ele>223.4</ele>
<time>2013-05-08T16:59:21.000Z</time>
</trkpt>
<trkpt lat="43.530653" lon="3.233772">
<ele>222.5</ele>
<time>2013-05-08T16:59:22.000Z</time>
</trkpt>
<trkpt lat="43.530539" lon="3.234088">
<ele>221.6</ele>
<time>2013-05-08T16:59:23.000Z</time>
</trkpt>
<trkpt lat="43.530434" lon="3.234408">
<ele>220.8</ele>
<time>2013-05-08T16:59:24.000Z</time>
</trkpt>
<trkpt lat="43.530328" lon="3.234738">
<ele>219.9</ele>
<time>2013-05-08T16:59:25.000Z</time>
</trkpt>
<trkpt lat="43.530223" lon="3.235076">
<ele>219.1</ele>
<time>2013-05-08T16:59:26.000Z</time>
</trkpt>
<trkpt lat="43.530113" lon="3.235422">
<ele>218.3</ele>
<time>2013-05-08T16:59:27.000Z</time>
</trkpt>
<trkpt lat="43.529997" lon="3.235781">
<ele>217.5</ele>
<time>2013-05-08T16:59:28.000Z</time>
</trkpt>
<trkpt lat="43.529878" lon="3.236152">
<ele>216.7</ele>
<time>2013-05-08T16:59:29.000Z</time>
</trkpt>
<trkpt lat="43.529754" lon="3.236533">
<ele>215.9</ele>
<time>2013-05-08T16:59:30.000Z</time>
</trkpt>
<trkpt lat="43.529627" lon="3.236925">
<ele>215.1</ele>
<time>2013-05-08T16:59:31.000Z</time>
</trkpt>
<trkpt lat="43.529499" lon="3.23732">
<ele>214.4</ele>
<time>2013-05-08T16:59:32.000Z</time>
</trkpt>
<trkpt lat="43.529374" lon="3.237706">
<ele>213.7</ele>
<time>2013-05-08T16:59:33.000Z</time>
</trkpt>
<trkpt lat="43.529258" lon="3.23807">
<ele>212.9</ele>
<time>2013-05-08T16:59:34.000Z</time>
</trkpt>
<trkpt lat="43.529143" lon="3.238427">
<ele>212.1</ele>
<time>2013-05-08T16:59:35.000Z</time>
</trkpt>
<trkpt lat="43.529025" lon="3.238787">
<ele>211.5</ele>
<time>2013-05-08T16:59:36.000Z</time>
</trkpt>
<trkpt lat="43.528914" lon="3.239135">
<ele>210.8</ele>
<time>2013-05-08T16:59:37.000Z</time>
</trkpt>
<trkpt lat="43.528799" lon="3.23949">
<ele>210.2</ele>
<time>2013-05-08T16:59:38.000Z</time>
</trkpt>
<trkpt lat="43.528688" lon="3.239832">
<ele>209.5</ele>
<time>2013-05-08T16:59:39.000Z</time>
</trkpt>
<trkpt lat="43.52858" lon="3.240173">
<ele>208.8</ele>
<time>2013-05-08T16:59:40.000Z</time>
</trkpt>
<trkpt lat="43.528471" lon="3.240512">
<ele>208.1</ele>
<time>2013-05-08T16:59:41.000Z</time>
</trkpt>
<trkpt lat="43.528366" lon="3.240838">
<ele>207.5</ele>
<time>2013-05-08T16:59:42.000Z</time>
</trkpt>
<trkpt lat="43.528265" lon="3.241154">
<ele>206.8</ele>
<time>2013-05-08T16:59:43.000Z</time>
</trkpt>
<trkpt lat="43.528166" lon="3.241462">
<ele>206.2</ele>
<time>2013-05-08T16:59:44.000Z</time>
</trkpt>
<trkpt lat="43.528065" lon="3.241763">
<ele>205.6</ele>
<time>2013-05-08T16:59:45.000Z</time>
</trkpt>
<trkpt lat="43.527964" lon="3.242048">
<ele>204.7</ele>
<time>2013-05-08T16:59:46.000Z</time>
</trkpt>
<trkpt lat="43.527852" lon="3.242322">
<ele>203.8</ele>
<time>2013-05-08T16:59:47.000Z</time>
</trkpt>
<trkpt lat="43.527729" lon="3.242589">
<ele>202.7</ele>
<time>2013-05-08T16:59:48.000Z</time>
</trkpt>
<trkpt lat="43.52758" lon="3.24284">
<ele>201.6</ele>
<time>2013-05-08T16:59:49.000Z</time>
</trkpt>
<trkpt lat="43.527411" lon="3.24306">
<ele>200.8</ele>
<time>2013-05-08T16:59:50.000Z</time>
</trkpt>
<trkpt lat="43.527235" lon="3.243282">
<ele>200</ele>
<time>2013-05-08T16:59:51.000Z</time>
</trkpt>
<trkpt lat="43.52705" lon="3.2435">
<ele>199.5</ele>
<time>2013-05-08T16:59:52.000Z</time>
</trkpt>
<trkpt lat="43.526866" lon="3.24372">
<ele>198.9</ele>
<time>2013-05-08T16:59:53.000Z</time>
</trkpt>
<trkpt lat="43.52668" lon="3.243937">
<ele>198.5</ele>
<time>2013-05-08T16:59:54.000Z</time>
</trkpt>
<trkpt lat="43.526493" lon="3.244155">
<ele>198.3</ele>
<time>2013-05-08T16:59:55.000Z</time>
</trkpt>
<trkpt lat="43.526307" lon="3.244375">
<ele>198.3</ele>
<time>2013-05-08T16:59:56.000Z</time>
</trkpt>
<trkpt lat="43.526131" lon="3.244583">
<ele>198.3</ele>
<time>2013-05-08T16:59:57.000Z</time>
</trkpt>
<trkpt lat="43.52595" lon="3.2448">
<ele>198.4</ele>
<time>2013-05-08T16:59:58.000Z</time>
</trkpt>
<trkpt lat="43.525771" lon="3.245017">
<ele>198.7</ele>
<time>2013-05-08T16:59:59.000Z</time>
</trkpt>
<trkpt lat="43.525597" lon="3.245232">
<ele>199</ele>
<time>2013-05-08T17:00:00.000Z</time>
</trkpt>
<trkpt lat="43.525438" lon="3.245463">
<ele>199.3</ele>
<time>2013-05-08T17:00:01.000Z</time>
</trkpt>
<trkpt lat="43.525297" lon="3.245707">
<ele>199.5</ele>
<time>2013-05-08T17:00:02.000Z</time>
</trkpt>
<trkpt lat="43.525176" lon="3.245975">
<ele>199.7</ele>
<time>2013-05-08T17:00:03.000Z</time>
</trkpt>
<trkpt lat="43.525075" lon="3.246266">
<ele>199.9</ele>
<time>2013-05-08T17:00:04.000Z</time>
</trkpt>
<trkpt lat="43.525005" lon="3.246565">
<ele>199.6</ele>
<time>2013-05-08T17:00:05.000Z</time>
</trkpt>
<trkpt lat="43.524954" lon="3.246864">
<ele>199.1</ele>
<time>2013-05-08T17:00:06.000Z</time>
</trkpt>
<trkpt lat="43.524915" lon="3.247181">
<ele>198.5</ele>
<time>2013-05-08T17:00:07.000Z</time>
</trkpt>
<trkpt lat="43.52488" lon="3.247504">
<ele>197.9</ele>
<time>2013-05-08T17:00:08.000Z</time>
</trkpt>
<trkpt lat="43.524849" lon="3.247812">
<ele>197.4</ele>
<time>2013-05-08T17:00:09.000Z</time>
</trkpt>
<trkpt lat="43.524813" lon="3.248113">
<ele>196.9</ele>
<time>2013-05-08T17:00:10.000Z</time>
</trkpt>
<trkpt lat="43.524767" lon="3.248414">
<ele>196.5</ele>
<time>2013-05-08T17:00:11.000Z</time>
</trkpt>
<trkpt lat="43.52469" lon="3.248706">
<ele>196.1</ele>
<time>2013-05-08T17:00:12.000Z</time>
</trkpt>
<trkpt lat="43.52059" lon="3.256979">
<ele>200.7</ele>
<time>2013-05-08T17:00:43.772Z</time>
</trkpt>
<trkpt lat="43.520623" lon="3.257252">
<ele>186</ele>
<time>2013-05-08T17:00:44.776Z</time>
</trkpt>
<trkpt lat="43.520587" lon="3.257471">
<ele>179</ele>
<time>2013-05-08T17:00:45.779Z</time>
</trkpt>
<trkpt lat="43.520543" lon="3.257924">
<ele>174.7</ele>
<time>2013-05-08T17:00:47.000Z</time>
</trkpt>
<trkpt lat="43.520498" lon="3.258288">
<ele>173.7</ele>
<time>2013-05-08T17:00:48.000Z</time>
</trkpt>
<trkpt lat="43.520456" lon="3.258614">
<ele>170.4</ele>
<time>2013-05-08T17:00:49.000Z</time>
</trkpt>
<trkpt lat="43.520413" lon="3.258939">
<ele>171.1</ele>
<time>2013-05-08T17:00:50.000Z</time>
</trkpt>
<trkpt lat="43.520369" lon="3.259251">
<ele>165.6</ele>
<time>2013-05-08T17:00:51.000Z</time>
</trkpt>
<trkpt lat="43.520316" lon="3.259567">
<ele>166.4</ele>
<time>2013-05-08T17:00:52.000Z</time>
</trkpt>
<trkpt lat="43.520246" lon="3.259889">
<ele>165.9</ele>
<time>2013-05-08T17:00:53.000Z</time>
</trkpt>
<trkpt lat="43.520156" lon="3.260217">
<ele>164.5</ele>
<time>2013-05-08T17:00:54.000Z</time>
</trkpt>
<trkpt lat="43.520048" lon="3.260528">
<ele>163.6</ele>
<time>2013-05-08T17:00:55.000Z</time>
</trkpt>
<trkpt lat="43.519922" lon="3.260818">
<ele>165.7</ele>
<time>2013-05-08T17:00:56.000Z</time>
</trkpt>
<trkpt lat="43.519787" lon="3.261113">
<ele>166</ele>
<time>2013-05-08T17:00:57.000Z</time>
</trkpt>
<trkpt lat="43.51965" lon="3.26141">
<ele>166.6</ele>
<time>2013-05-08T17:00:58.000Z</time>
</trkpt>
<trkpt lat="43.519512" lon="3.261715">
<ele>167</ele>
<time>2013-05-08T17:00:59.000Z</time>
</trkpt>
<trkpt lat="43.519372" lon="3.262012">
<ele>167.4</ele>
<time>2013-05-08T17:01:00.000Z</time>
</trkpt>
<trkpt lat="43.519231" lon="3.262316">
<ele>167.4</ele>
<time>2013-05-08T17:01:01.000Z</time>
</trkpt>
<trkpt lat="43.51909" lon="3.262628">
<ele>167.5</ele>
<time>2013-05-08T17:01:02.000Z</time>
</trkpt>
<trkpt lat="43.518956" lon="3.262926">
<ele>167.6</ele>
<time>2013-05-08T17:01:03.000Z</time>
</trkpt>
<trkpt lat="43.518822" lon="3.263231">
<ele>167.5</ele>
<time>2013-05-08T17:01:04.000Z</time>
</trkpt>
<trkpt lat="43.518692" lon="3.263523">
<ele>167.5</ele>
<time>2013-05-08T17:01:05.000Z</time>
</trkpt>
<trkpt lat="43.518563" lon="3.263814">
<ele>167.7</ele>
<time>2013-05-08T17:01:06.000Z</time>
</trkpt>
<trkpt lat="43.518433" lon="3.26411">
<ele>167</ele>
<time>2013-05-08T17:01:07.000Z</time>
</trkpt>
<trkpt lat="43.518311" lon="3.264394">
<ele>166.4</ele>
<time>2013-05-08T17:01:08.000Z</time>
</trkpt>
<trkpt lat="43.518197" lon="3.264696">
<ele>166.2</ele>
<time>2013-05-08T17:01:09.000Z</time>
</trkpt>
<trkpt lat="43.518094" lon="3.265005">
<ele>166.1</ele>
<time>2013-05-08T17:01:10.000Z</time>
</trkpt>
<trkpt lat="43.518001" lon="3.265312">
<ele>166.5</ele>
<time>2013-05-08T17:01:11.000Z</time>
</trkpt>
<trkpt lat="43.517911" lon="3.26561">
<ele>167</ele>
<time>2013-05-08T17:01:12.000Z</time>
</trkpt>
<trkpt lat="43.517819" lon="3.265894">
<ele>166.6</ele>
<time>2013-05-08T17:01:13.000Z</time>
</trkpt>
<trkpt lat="43.517701" lon="3.266158">
<ele>165.9</ele>
<time>2013-05-08T17:01:14.000Z</time>
</trkpt>
<trkpt lat="43.517568" lon="3.266414">
<ele>165.1</ele>
<time>2013-05-08T17:01:15.000Z</time>
</trkpt>
<trkpt lat="43.517416" lon="3.26665">
<ele>164.2</ele>
<time>2013-05-08T17:01:16.000Z</time>
</trkpt>
<trkpt lat="43.517264" lon="3.266884">
<ele>163.1</ele>
<time>2013-05-08T17:01:17.000Z</time>
</trkpt>
<trkpt lat="43.517107" lon="3.267075">
<ele>162.1</ele>
<time>2013-05-08T17:01:18.000Z</time>
</trkpt>
<trkpt lat="43.516963" lon="3.267236">
<ele>161.2</ele>
<time>2013-05-08T17:01:19.000Z</time>
</trkpt>
<trkpt lat="43.516832" lon="3.267379">
<ele>161</ele>
<time>2013-05-08T17:01:20.000Z</time>
</trkpt>
<trkpt lat="43.516731" lon="3.267498">
<ele>160.7</ele>
<time>2013-05-08T17:01:21.000Z</time>
</trkpt>
<trkpt lat="43.516644" lon="3.267589">
<ele>160.8</ele>
<time>2013-05-08T17:01:22.000Z</time>
</trkpt>
<trkpt lat="43.516545" lon="3.267652">
<ele>161.6</ele>
<time>2013-05-08T17:01:23.000Z</time>
</trkpt>
<trkpt lat="43.516473" lon="3.267656">
<ele>162.1</ele>
<time>2013-05-08T17:01:24.000Z</time>
</trkpt>
<trkpt lat="43.51639" lon="3.267669">
<ele>162.5</ele>
<time>2013-05-08T17:01:25.000Z</time>
</trkpt>
<trkpt lat="43.516314" lon="3.26771">
<ele>163</ele>
<time>2013-05-08T17:01:26.000Z</time>
</trkpt>
<trkpt lat="43.516252" lon="3.267775">
<ele>164.1</ele>
<time>2013-05-08T17:01:27.000Z</time>
</trkpt>
<trkpt lat="43.516202" lon="3.267884">
<ele>165.1</ele>
<time>2013-05-08T17:01:28.000Z</time>
</trkpt>
<trkpt lat="43.516153" lon="3.268027">
<ele>165.7</ele>
<time>2013-05-08T17:01:29.000Z</time>
</trkpt>
<trkpt lat="43.516071" lon="3.268184">
<ele>165.6</ele>
<time>2013-05-08T17:01:30.000Z</time>
</trkpt>
<trkpt lat="43.515986" lon="3.268333">
<ele>164.9</ele>
<time>2013-05-08T17:01:31.000Z</time>
</trkpt>
<trkpt lat="43.515895" lon="3.26848">
<ele>163.5</ele>
<time>2013-05-08T17:01:32.000Z</time>
</trkpt>
<trkpt lat="43.515801" lon="3.268618">
<ele>161.9</ele>
<time>2013-05-08T17:01:33.000Z</time>
</trkpt>
<trkpt lat="43.515716" lon="3.268734">
<ele>161.3</ele>
<time>2013-05-08T17:01:34.000Z</time>
</trkpt>
<trkpt lat="43.515636" lon="3.268836">
<ele>160.8</ele>
<time>2013-05-08T17:01:35.000Z</time>
</trkpt>
<trkpt lat="43.515565" lon="3.268927">
<ele>160.3</ele>
<time>2013-05-08T17:01:35.999Z</time>
</trkpt>
<trkpt lat="43.515497" lon="3.269011">
<ele>160.2</ele>
<time>2013-05-08T17:01:36.999Z</time>
</trkpt>
<trkpt lat="43.515439" lon="3.269078">
<ele>160.1</ele>
<time>2013-05-08T17:01:37.999Z</time>
</trkpt>
<trkpt lat="43.515365" lon="3.269167">
<ele>159.7</ele>
<time>2013-05-08T17:01:38.999Z</time>
</trkpt>
<trkpt lat="43.515282" lon="3.269263">
<ele>159.3</ele>
<time>2013-05-08T17:01:39.999Z</time>
</trkpt>
<trkpt lat="43.515187" lon="3.269381">
<ele>158.9</ele>
<time>2013-05-08T17:01:40.999Z</time>
</trkpt>
<trkpt lat="43.515096" lon="3.269497">
<ele>158.5</ele>
<time>2013-05-08T17:01:41.999Z</time>
</trkpt>
<trkpt lat="43.515005" lon="3.269611">
<ele>158.4</ele>
<time>2013-05-08T17:01:42.999Z</time>
</trkpt>
<trkpt lat="43.514917" lon="3.269723">
<ele>158.5</ele>
<time>2013-05-08T17:01:43.999Z</time>
</trkpt>
<trkpt lat="43.514837" lon="3.269828">
<ele>159.1</ele>
<time>2013-05-08T17:01:44.999Z</time>
</trkpt>
<trkpt lat="43.514767" lon="3.26992">
<ele>159.8</ele>
<time>2013-05-08T17:01:45.999Z</time>
</trkpt>
<trkpt lat="43.514711" lon="3.269996">
<ele>160.7</ele>
<time>2013-05-08T17:01:46.999Z</time>
</trkpt>
<trkpt lat="43.514657" lon="3.270066">
<ele>161.3</ele>
<time>2013-05-08T17:01:47.999Z</time>
</trkpt>
<trkpt lat="43.514604" lon="3.270132">
<ele>161.6</ele>
<time>2013-05-08T17:01:48.999Z</time>
</trkpt>
<trkpt lat="43.514541" lon="3.270204">
<ele>162.2</ele>
<time>2013-05-08T17:01:49.999Z</time>
</trkpt>
<trkpt lat="43.514475" lon="3.270282">
<ele>162.9</ele>
<time>2013-05-08T17:01:50.999Z</time>
</trkpt>
<trkpt lat="43.514407" lon="3.270365">
<ele>162.9</ele>
<time>2013-05-08T17:01:51.999Z</time>
</trkpt>
<trkpt lat="43.514335" lon="3.270456">
<ele>162.5</ele>
<time>2013-05-08T17:01:52.999Z</time>
</trkpt>
<trkpt lat="43.514254" lon="3.270562">
<ele>162.3</ele>
<time>2013-05-08T17:01:53.999Z</time>
</trkpt>
<trkpt lat="43.514175" lon="3.270669">
<ele>161.8</ele>
<time>2013-05-08T17:01:54.999Z</time>
</trkpt>
<trkpt lat="43.514091" lon="3.270776">
<ele>161.6</ele>
<time>2013-05-08T17:01:55.999Z</time>
</trkpt>
<trkpt lat="43.514009" lon="3.270885">
<ele>161.3</ele>
<time>2013-05-08T17:01:56.999Z</time>
</trkpt>
<trkpt lat="43.513927" lon="3.270994">
<ele>161.1</ele>
<time>2013-05-08T17:01:57.999Z</time>
</trkpt>
<trkpt lat="43.513848" lon="3.271103">
<ele>160.6</ele>
<time>2013-05-08T17:01:58.999Z</time>
</trkpt>
<trkpt lat="43.513762" lon="3.271216">
<ele>160.7</ele>
<time>2013-05-08T17:01:59.999Z</time>
</trkpt>
<trkpt lat="43.513678" lon="3.271326">
<ele>160.8</ele>
<time>2013-05-08T17:02:00.999Z</time>
</trkpt>
<trkpt lat="43.513599" lon="3.271423">
<ele>161</ele>
<time>2013-05-08T17:02:01.999Z</time>
</trkpt>
<trkpt lat="43.513521" lon="3.271522">
<ele>160.8</ele>
<time>2013-05-08T17:02:02.999Z</time>
</trkpt>
<trkpt lat="43.513445" lon="3.271618">
<ele>160.6</ele>
<time>2013-05-08T17:02:03.999Z</time>
</trkpt>
<trkpt lat="43.513369" lon="3.271712">
<ele>160.3</ele>
<time>2013-05-08T17:02:04.999Z</time>
</trkpt>
<trkpt lat="43.513302" lon="3.271794">
<ele>159.7</ele>
<time>2013-05-08T17:02:05.999Z</time>
</trkpt>
<trkpt lat="43.513236" lon="3.271873">
<ele>159.2</ele>
<time>2013-05-08T17:02:06.999Z</time>
</trkpt>
<trkpt lat="43.51317" lon="3.271944">
<ele>159</ele>
<time>2013-05-08T17:02:07.999Z</time>
</trkpt>
<trkpt lat="43.513104" lon="3.272018">
<ele>158.6</ele>
<time>2013-05-08T17:02:08.999Z</time>
</trkpt>
<trkpt lat="43.513039" lon="3.272096">
<ele>158.9</ele>
<time>2013-05-08T17:02:09.999Z</time>
</trkpt>
<trkpt lat="43.512982" lon="3.272167">
<ele>158.9</ele>
<time>2013-05-08T17:02:10.999Z</time>
</trkpt>
<trkpt lat="43.512934" lon="3.272234">
<ele>159</ele>
<time>2013-05-08T17:02:11.999Z</time>
</trkpt>
<trkpt lat="43.51289" lon="3.272294">
<ele>159.2</ele>
<time>2013-05-08T17:02:12.999Z</time>
</trkpt>
<trkpt lat="43.51285" lon="3.272343">
<ele>159.3</ele>
<time>2013-05-08T17:02:13.999Z</time>
</trkpt>
<trkpt lat="43.512817" lon="3.272381">
<ele>159.4</ele>
<time>2013-05-08T17:02:14.999Z</time>
</trkpt>
<trkpt lat="43.512774" lon="3.272427">
<ele>159.7</ele>
<time>2013-05-08T17:02:15.999Z</time>
</trkpt>
<trkpt lat="43.51273" lon="3.272477">
<ele>159.8</ele>
<time>2013-05-08T17:02:16.999Z</time>
</trkpt>
<trkpt lat="43.512689" lon="3.272527">
<ele>160.2</ele>
<time>2013-05-08T17:02:17.999Z</time>
</trkpt>
<trkpt lat="43.512644" lon="3.27258">
<ele>160.8</ele>
<time>2013-05-08T17:02:18.999Z</time>
</trkpt>
<trkpt lat="43.512603" lon="3.272631">
<ele>160.8</ele>
<time>2013-05-08T17:02:19.999Z</time>
</trkpt>
<trkpt lat="43.51255" lon="3.272698">
<ele>160.7</ele>
<time>2013-05-08T17:02:20.999Z</time>
</trkpt>
<trkpt lat="43.512493" lon="3.272768">
<ele>160.5</ele>
<time>2013-05-08T17:02:21.999Z</time>
</trkpt>
<trkpt lat="43.512407" lon="3.272868">
<ele>160.3</ele>
<time>2013-05-08T17:02:22.999Z</time>
</trkpt>
<trkpt lat="43.512308" lon="3.272988">
<ele>160</ele>
<time>2013-05-08T17:02:23.999Z</time>
</trkpt>
<trkpt lat="43.512228" lon="3.273096">
<ele>159.3</ele>
<time>2013-05-08T17:02:24.999Z</time>
</trkpt>
<trkpt lat="43.512157" lon="3.273192">
<ele>158.8</ele>
<time>2013-05-08T17:02:25.999Z</time>
</trkpt>
<trkpt lat="43.512086" lon="3.273289">
<ele>158.6</ele>
<time>2013-05-08T17:02:26.999Z</time>
</trkpt>
<trkpt lat="43.512018" lon="3.273377">
<ele>158.6</ele>
<time>2013-05-08T17:02:27.999Z</time>
</trkpt>
<trkpt lat="43.511951" lon="3.273462">
<ele>158.3</ele>
<time>2013-05-08T17:02:28.999Z</time>
</trkpt>
<trkpt lat="43.511885" lon="3.273544">
<ele>158.2</ele>
<time>2013-05-08T17:02:29.999Z</time>
</trkpt>
<trkpt lat="43.511812" lon="3.273633">
<ele>158.1</ele>
<time>2013-05-08T17:02:30.999Z</time>
</trkpt>
<trkpt lat="43.511742" lon="3.273721">
<ele>157.8</ele>
<time>2013-05-08T17:02:31.999Z</time>
</trkpt>
<trkpt lat="43.511671" lon="3.273816">
<ele>157.4</ele>
<time>2013-05-08T17:02:32.999Z</time>
</trkpt>
<trkpt lat="43.511599" lon="3.273906">
<ele>157.1</ele>
<time>2013-05-08T17:02:33.999Z</time>
</trkpt>
<trkpt lat="43.511517" lon="3.274008">
<ele>156.9</ele>
<time>2013-05-08T17:02:34.999Z</time>
</trkpt>
<trkpt lat="43.511429" lon="3.27412">
<ele>156.5</ele>
<time>2013-05-08T17:02:35.999Z</time>
</trkpt>
<trkpt lat="43.511337" lon="3.274242">
<ele>155.8</ele>
<time>2013-05-08T17:02:36.999Z</time>
</trkpt>
<trkpt lat="43.511221" lon="3.274388">
<ele>155</ele>
<time>2013-05-08T17:02:37.999Z</time>
</trkpt>
<trkpt lat="43.511091" lon="3.274559">
<ele>154.1</ele>
<time>2013-05-08T17:02:38.999Z</time>
</trkpt>
<trkpt lat="43.510964" lon="3.274724">
<ele>153.5</ele>
<time>2013-05-08T17:02:39.999Z</time>
</trkpt>
<trkpt lat="43.510851" lon="3.274873">
<ele>153</ele>
<time>2013-05-08T17:02:40.999Z</time>
</trkpt>
<trkpt lat="43.51075" lon="3.275">
<ele>152.7</ele>
<time>2013-05-08T17:02:41.999Z</time>
</trkpt>
<trkpt lat="43.510656" lon="3.275123">
<ele>152.5</ele>
<time>2013-05-08T17:02:42.999Z</time>
</trkpt>
<trkpt lat="43.510567" lon="3.275239">
<ele>152</ele>
<time>2013-05-08T17:02:43.999Z</time>
</trkpt>
<trkpt lat="43.510483" lon="3.275347">
<ele>151.3</ele>
<time>2013-05-08T17:02:44.999Z</time>
</trkpt>
<trkpt lat="43.510399" lon="3.275458">
<ele>150.8</ele>
<time>2013-05-08T17:02:45.999Z</time>
</trkpt>
<trkpt lat="43.510325" lon="3.275564">
<ele>150.4</ele>
<time>2013-05-08T17:02:46.999Z</time>
</trkpt>
<trkpt lat="43.510253" lon="3.275678">
<ele>150.1</ele>
<time>2013-05-08T17:02:47.999Z</time>
</trkpt>
<trkpt lat="43.510207" lon="3.27581">
<ele>149.8</ele>
<time>2013-05-08T17:02:48.999Z</time>
</trkpt>
<trkpt lat="43.51017" lon="3.275936">
<ele>149.5</ele>
<time>2013-05-08T17:02:49.999Z</time>
</trkpt>
<trkpt lat="43.510141" lon="3.276068">
<ele>149.3</ele>
<time>2013-05-08T17:02:50.999Z</time>
</trkpt>
<trkpt lat="43.510108" lon="3.276228">
<ele>149.4</ele>
<time>2013-05-08T17:02:51.999Z</time>
</trkpt>
<trkpt lat="43.510076" lon="3.2764">
<ele>149.6</ele>
<time>2013-05-08T17:02:52.999Z</time>
</trkpt>
<trkpt lat="43.510053" lon="3.27655">
<ele>149.6</ele>
<time>2013-05-08T17:02:53.999Z</time>
</trkpt>
<trkpt lat="43.510033" lon="3.276705">
<ele>149.7</ele>
<time>2013-05-08T17:02:54.999Z</time>
</trkpt>
<trkpt lat="43.510011" lon="3.276873">
<ele>149.8</ele>
<time>2013-05-08T17:02:55.999Z</time>
</trkpt>
<trkpt lat="43.509994" lon="3.277077">
<ele>149.7</ele>
<time>2013-05-08T17:02:56.999Z</time>
</trkpt>
<trkpt lat="43.50997" lon="3.277307">
<ele>149.9</ele>
<time>2013-05-08T17:02:57.999Z</time>
</trkpt>
<trkpt lat="43.509941" lon="3.277536">
<ele>150.5</ele>
<time>2013-05-08T17:02:58.999Z</time>
</trkpt>
<trkpt lat="43.509917" lon="3.27776">
<ele>151.1</ele>
<time>2013-05-08T17:02:59.999Z</time>
</trkpt>
<trkpt lat="43.509893" lon="3.277968">
<ele>151.4</ele>
<time>2013-05-08T17:03:00.999Z</time>
</trkpt>
<trkpt lat="43.509865" lon="3.278194">
<ele>151.9</ele>
<time>2013-05-08T17:03:01.999Z</time>
</trkpt>
<trkpt lat="43.509838" lon="3.278418">
<ele>152.4</ele>
<time>2013-05-08T17:03:02.999Z</time>
</trkpt>
<trkpt lat="43.509809" lon="3.278649">
<ele>153</ele>
<time>2013-05-08T17:03:03.999Z</time>
</trkpt>
<trkpt lat="43.50977" lon="3.278885">
<ele>153.8</ele>
<time>2013-05-08T17:03:04.999Z</time>
</trkpt>
<trkpt lat="43.509722" lon="3.27911">
<ele>154.8</ele>
<time>2013-05-08T17:03:05.999Z</time>
</trkpt>
<trkpt lat="43.509664" lon="3.279349">
<ele>155.6</ele>
<time>2013-05-08T17:03:06.999Z</time>
</trkpt>
<trkpt lat="43.5096" lon="3.279587">
<ele>156.4</ele>
<time>2013-05-08T17:03:07.999Z</time>
</trkpt>
<trkpt lat="43.509533" lon="3.279806">
<ele>157.1</ele>
<time>2013-05-08T17:03:08.999Z</time>
</trkpt>
<trkpt lat="43.509469" lon="3.280017">
<ele>158</ele>
<time>2013-05-08T17:03:09.999Z</time>
</trkpt>
<trkpt lat="43.509396" lon="3.280235">
<ele>159.1</ele>
<time>2013-05-08T17:03:10.999Z</time>
</trkpt>
<trkpt lat="43.509322" lon="3.280459">
<ele>160.2</ele>
<time>2013-05-08T17:03:11.999Z</time>
</trkpt>
<trkpt lat="43.509244" lon="3.280684">
<ele>161.6</ele>
<time>2013-05-08T17:03:12.999Z</time>
</trkpt>
<trkpt lat="43.509167" lon="3.2809">
<ele>162.8</ele>
<time>2013-05-08T17:03:13.999Z</time>
</trkpt>
<trkpt lat="43.509091" lon="3.281105">
<ele>163.8</ele>
<time>2013-05-08T17:03:14.999Z</time>
</trkpt>
<trkpt lat="43.509019" lon="3.281302">
<ele>164.3</ele>
<time>2013-05-08T17:03:15.999Z</time>
</trkpt>
<trkpt lat="43.508947" lon="3.281502">
<ele>164.7</ele>
<time>2013-05-08T17:03:16.999Z</time>
</trkpt>
<trkpt lat="43.508874" lon="3.281709">
<ele>165.3</ele>
<time>2013-05-08T17:03:17.999Z</time>
</trkpt>
<trkpt lat="43.508807" lon="3.281923">
<ele>166.1</ele>
<time>2013-05-08T17:03:18.999Z</time>
</trkpt>
<trkpt lat="43.508746" lon="3.282136">
<ele>167.1</ele>
<time>2013-05-08T17:03:19.999Z</time>
</trkpt>
<trkpt lat="43.508694" lon="3.282351">
<ele>168.2</ele>
<time>2013-05-08T17:03:20.999Z</time>
</trkpt>
<trkpt lat="43.508659" lon="3.282562">
<ele>169.3</ele>
<time>2013-05-08T17:03:21.999Z</time>
</trkpt>
<trkpt lat="43.508646" lon="3.282771">
<ele>170.4</ele>
<time>2013-05-08T17:03:22.999Z</time>
</trkpt>
<trkpt lat="43.508635" lon="3.282977">
<ele>171.3</ele>
<time>2013-05-08T17:03:23.999Z</time>
</trkpt>
<trkpt lat="43.508638" lon="3.283159">
<ele>171.8</ele>
<time>2013-05-08T17:03:24.999Z</time>
</trkpt>
<trkpt lat="43.508648" lon="3.283385">
<ele>172.5</ele>
<time>2013-05-08T17:03:25.999Z</time>
</trkpt>
<trkpt lat="43.508695" lon="3.283579">
<ele>173.2</ele>
<time>2013-05-08T17:03:26.999Z</time>
</trkpt>
<trkpt lat="43.508742" lon="3.283807">
<ele>173.8</ele>
<time>2013-05-08T17:03:27.999Z</time>
</trkpt>
<trkpt lat="43.5088" lon="3.283997">
<ele>174.3</ele>
<time>2013-05-08T17:03:28.999Z</time>
</trkpt>
<trkpt lat="43.508856" lon="3.284193">
<ele>175</ele>
<time>2013-05-08T17:03:29.999Z</time>
</trkpt>
<trkpt lat="43.508912" lon="3.284373">
<ele>176</ele>
<time>2013-05-08T17:03:30.999Z</time>
</trkpt>
<trkpt lat="43.508969" lon="3.284564">
<ele>176.7</ele>
<time>2013-05-08T17:03:31.999Z</time>
</trkpt>
<trkpt lat="43.509023" lon="3.284749">
<ele>177.4</ele>
<time>2013-05-08T17:03:32.999Z</time>
</trkpt>
<trkpt lat="43.509082" lon="3.284939">
<ele>178</ele>
<time>2013-05-08T17:03:33.999Z</time>
</trkpt>
<trkpt lat="43.509141" lon="3.285135">
<ele>178.6</ele>
<time>2013-05-08T17:03:34.999Z</time>
</trkpt>
<trkpt lat="43.509205" lon="3.285334">
<ele>179.3</ele>
<time>2013-05-08T17:03:35.999Z</time>
</trkpt>
<trkpt lat="43.509265" lon="3.285533">
<ele>179.9</ele>
<time>2013-05-08T17:03:36.999Z</time>
</trkpt>
<trkpt lat="43.509325" lon="3.285724">
<ele>180.5</ele>
<time>2013-05-08T17:03:37.999Z</time>
</trkpt>
<trkpt lat="43.509383" lon="3.285912">
<ele>181.2</ele>
<time>2013-05-08T17:03:38.999Z</time>
</trkpt>
<trkpt lat="43.509437" lon="3.286101">
<ele>181.9</ele>
<time>2013-05-08T17:03:39.999Z</time>
</trkpt>
<trkpt lat="43.509487" lon="3.286279">
<ele>182.5</ele>
<time>2013-05-08T17:03:40.999Z</time>
</trkpt>
<trkpt lat="43.509536" lon="3.286452">
<ele>183.2</ele>
<time>2013-05-08T17:03:41.999Z</time>
</trkpt>
<trkpt lat="43.50958" lon="3.28661">
<ele>184.1</ele>
<time>2013-05-08T17:03:42.999Z</time>
</trkpt>
<trkpt lat="43.509619" lon="3.286769">
<ele>185</ele>
<time>2013-05-08T17:03:43.999Z</time>
</trkpt>
<trkpt lat="43.509655" lon="3.286933">
<ele>186</ele>
<time>2013-05-08T17:03:44.999Z</time>
</trkpt>
<trkpt lat="43.509686" lon="3.287124">
<ele>186.9</ele>
<time>2013-05-08T17:03:45.999Z</time>
</trkpt>
<trkpt lat="43.509705" lon="3.287306">
<ele>187.8</ele>
<time>2013-05-08T17:03:46.999Z</time>
</trkpt>
<trkpt lat="43.509721" lon="3.287497">
<ele>188.7</ele>
<time>2013-05-08T17:03:47.999Z</time>
</trkpt>
<trkpt lat="43.509725" lon="3.287669">
<ele>189.6</ele>
<time>2013-05-08T17:03:48.999Z</time>
</trkpt>
<trkpt lat="43.509727" lon="3.287839">
<ele>190.4</ele>
<time>2013-05-08T17:03:49.999Z</time>
</trkpt>
<trkpt lat="43.509726" lon="3.288006">
<ele>191.2</ele>
<time>2013-05-08T17:03:50.999Z</time>
</trkpt>
<trkpt lat="43.509722" lon="3.288163">
<ele>191.9</ele>
<time>2013-05-08T17:03:51.999Z</time>
</trkpt>
<trkpt lat="43.509714" lon="3.288308">
<ele>192.7</ele>
<time>2013-05-08T17:03:52.999Z</time>
</trkpt>
<trkpt lat="43.509703" lon="3.28844">
<ele>193.4</ele>
<time>2013-05-08T17:03:53.999Z</time>
</trkpt>
<trkpt lat="43.509692" lon="3.288544">
<ele>194.1</ele>
<time>2013-05-08T17:03:54.999Z</time>
</trkpt>
<trkpt lat="43.509679" lon="3.288635">
<ele>194.6</ele>
<time>2013-05-08T17:03:55.999Z</time>
</trkpt>
<trkpt lat="43.509667" lon="3.288706">
<ele>194.9</ele>
<time>2013-05-08T17:03:56.999Z</time>
</trkpt>
<trkpt lat="43.509652" lon="3.288769">
<ele>195.1</ele>
<time>2013-05-08T17:03:57.999Z</time>
</trkpt>
<trkpt lat="43.509613" lon="3.288816">
<ele>195</ele>
<time>2013-05-08T17:03:58.999Z</time>
</trkpt>
<trkpt lat="43.509556" lon="3.288827">
<ele>194.9</ele>
<time>2013-05-08T17:03:59.999Z</time>
</trkpt>
<trkpt lat="43.509499" lon="3.288839">
<ele>194.8</ele>
<time>2013-05-08T17:04:00.999Z</time>
</trkpt>
<trkpt lat="43.509451" lon="3.288866">
<ele>194.8</ele>
<time>2013-05-08T17:04:01.999Z</time>
</trkpt>
<trkpt lat="43.509407" lon="3.288898">
<ele>195.4</ele>
<time>2013-05-08T17:04:02.999Z</time>
</trkpt>
<trkpt lat="43.509375" lon="3.288925">
<ele>195.9</ele>
<time>2013-05-08T17:04:03.999Z</time>
</trkpt>
<trkpt lat="43.509352" lon="3.288957">
<ele>196</ele>
<time>2013-05-08T17:04:04.999Z</time>
</trkpt>
<trkpt lat="43.509341" lon="3.288993">
<ele>196</ele>
<time>2013-05-08T17:04:05.999Z</time>
</trkpt>
<trkpt lat="43.50934" lon="3.289026">
<ele>196.1</ele>
<time>2013-05-08T17:04:06.999Z</time>
</trkpt>
<trkpt lat="43.509383" lon="3.289022">
<ele>195.9</ele>
<time>2013-05-08T17:09:17.999Z</time>
</trkpt>
<trkpt lat="43.509386" lon="3.289027">
<ele>195.9</ele>
<time>2013-05-08T17:09:18.999Z</time>
</trkpt>
<trkpt lat="43.509349" lon="3.289062">
<ele>195.6</ele>
<time>2013-05-08T17:11:40.999Z</time>
</trkpt>
<trkpt lat="43.509348" lon="3.28906">
<ele>195.6</ele>
<time>2013-05-08T17:11:41.999Z</time>
</trkpt>
<trkpt lat="43.509387" lon="3.289049">
<ele>195.5</ele>
<time>2013-05-08T17:11:55.999Z</time>
</trkpt>
<trkpt lat="43.509391" lon="3.289044">
<ele>195.5</ele>
<time>2013-05-08T17:11:56.999Z</time>
</trkpt>
<trkpt lat="43.509423" lon="3.289059">
<ele>195.9</ele>
<time>2013-05-08T17:13:26.999Z</time>
</trkpt>
<trkpt lat="43.509452" lon="3.289048">
<ele>195.9</ele>
<time>2013-05-08T17:13:27.999Z</time>
</trkpt>
<trkpt lat="43.509486" lon="3.288996">
<ele>195.7</ele>
<time>2013-05-08T17:13:28.999Z</time>
</trkpt>
<trkpt lat="43.50949" lon="3.288936">
<ele>195.6</ele>
<time>2013-05-08T17:13:29.999Z</time>
</trkpt>
<trkpt lat="43.509491" lon="3.288883">
<ele>195.7</ele>
<time>2013-05-08T17:13:30.999Z</time>
</trkpt>
<trkpt lat="43.50951" lon="3.288836">
<ele>195.7</ele>
<time>2013-05-08T17:13:31.999Z</time>
</trkpt>
<trkpt lat="43.509541" lon="3.288801">
<ele>195.8</ele>
<time>2013-05-08T17:13:32.999Z</time>
</trkpt>
<trkpt lat="43.509568" lon="3.288798">
<ele>195.9</ele>
<time>2013-05-08T17:13:33.999Z</time>
</trkpt>
<trkpt lat="43.509585" lon="3.288815">
<ele>195.9</ele>
<time>2013-05-08T17:13:34.999Z</time>
</trkpt>
<trkpt lat="43.509608" lon="3.288876">
<ele>196.8</ele>
<time>2013-05-08T17:13:35.999Z</time>
</trkpt>
<trkpt lat="43.509617" lon="3.288972">
<ele>197.5</ele>
<time>2013-05-08T17:13:36.999Z</time>
</trkpt>
<trkpt lat="43.50962" lon="3.289075">
<ele>198</ele>
<time>2013-05-08T17:13:37.999Z</time>
</trkpt>
<trkpt lat="43.509619" lon="3.289211">
<ele>198.3</ele>
<time>2013-05-08T17:13:38.999Z</time>
</trkpt>
<trkpt lat="43.509617" lon="3.289356">
<ele>198.5</ele>
<time>2013-05-08T17:13:39.999Z</time>
</trkpt>
<trkpt lat="43.509614" lon="3.289527">
<ele>198.5</ele>
<time>2013-05-08T17:13:40.999Z</time>
</trkpt>
<trkpt lat="43.509611" lon="3.289703">
<ele>198.3</ele>
<time>2013-05-08T17:13:41.999Z</time>
</trkpt>
<trkpt lat="43.50961" lon="3.2899">
<ele>198.1</ele>
<time>2013-05-08T17:13:42.999Z</time>
</trkpt>
<trkpt lat="43.509609" lon="3.290114">
<ele>197.7</ele>
<time>2013-05-08T17:13:43.999Z</time>
</trkpt>
<trkpt lat="43.509606" lon="3.290336">
<ele>197.3</ele>
<time>2013-05-08T17:13:44.999Z</time>
</trkpt>
<trkpt lat="43.509613" lon="3.290584">
<ele>197</ele>
<time>2013-05-08T17:13:45.999Z</time>
</trkpt>
<trkpt lat="43.509619" lon="3.290844">
<ele>196.9</ele>
<time>2013-05-08T17:13:46.999Z</time>
</trkpt>
<trkpt lat="43.509632" lon="3.291116">
<ele>197.1</ele>
<time>2013-05-08T17:13:47.999Z</time>
</trkpt>
<trkpt lat="43.509642" lon="3.291399">
<ele>197.2</ele>
<time>2013-05-08T17:13:48.999Z</time>
</trkpt>
<trkpt lat="43.509657" lon="3.29167">
<ele>197.4</ele>
<time>2013-05-08T17:13:49.999Z</time>
</trkpt>
<trkpt lat="43.509676" lon="3.291956">
<ele>197.6</ele>
<time>2013-05-08T17:13:50.999Z</time>
</trkpt>
<trkpt lat="43.509692" lon="3.292267">
<ele>198</ele>
<time>2013-05-08T17:13:51.999Z</time>
</trkpt>
<trkpt lat="43.509708" lon="3.292581">
<ele>198.4</ele>
<time>2013-05-08T17:13:52.999Z</time>
</trkpt>
<trkpt lat="43.509721" lon="3.292904">
<ele>198.7</ele>
<time>2013-05-08T17:13:53.999Z</time>
</trkpt>
<trkpt lat="43.509733" lon="3.293226">
<ele>198.8</ele>
<time>2013-05-08T17:13:54.999Z</time>
</trkpt>
<trkpt lat="43.509747" lon="3.293538">
<ele>198.8</ele>
<time>2013-05-08T17:13:55.999Z</time>
</trkpt>
<trkpt lat="43.509762" lon="3.293832">
<ele>199</ele>
<time>2013-05-08T17:13:56.999Z</time>
</trkpt>
<trkpt lat="43.509777" lon="3.294129">
<ele>199.4</ele>
<time>2013-05-08T17:13:57.999Z</time>
</trkpt>
<trkpt lat="43.509791" lon="3.294434">
<ele>199.5</ele>
<time>2013-05-08T17:13:58.999Z</time>
</trkpt>
<trkpt lat="43.509807" lon="3.294743">
<ele>199.6</ele>
<time>2013-05-08T17:13:59.999Z</time>
</trkpt>
<trkpt lat="43.509822" lon="3.295061">
<ele>199.6</ele>
<time>2013-05-08T17:14:00.999Z</time>
</trkpt>
<trkpt lat="43.509835" lon="3.295372">
<ele>199.5</ele>
<time>2013-05-08T17:14:01.999Z</time>
</trkpt>
<trkpt lat="43.50985" lon="3.295674">
<ele>199.4</ele>
<time>2013-05-08T17:14:02.999Z</time>
</trkpt>
<trkpt lat="43.509858" lon="3.295983">
<ele>199.3</ele>
<time>2013-05-08T17:14:03.999Z</time>
</trkpt>
<trkpt lat="43.50984" lon="3.296305">
<ele>199</ele>
<time>2013-05-08T17:14:04.999Z</time>
</trkpt>
<trkpt lat="43.5098" lon="3.296638">
<ele>198.6</ele>
<time>2013-05-08T17:14:05.999Z</time>
</trkpt>
<trkpt lat="43.509746" lon="3.29699">
<ele>197.9</ele>
<time>2013-05-08T17:14:06.999Z</time>
</trkpt>
<trkpt lat="43.509689" lon="3.297346">
<ele>197.3</ele>
<time>2013-05-08T17:14:07.999Z</time>
</trkpt>
<trkpt lat="43.509632" lon="3.297702">
<ele>196.7</ele>
<time>2013-05-08T17:14:08.999Z</time>
</trkpt>
<trkpt lat="43.509575" lon="3.29806">
<ele>196.1</ele>
<time>2013-05-08T17:14:09.999Z</time>
</trkpt>
<trkpt lat="43.509511" lon="3.298425">
<ele>195.3</ele>
<time>2013-05-08T17:14:10.999Z</time>
</trkpt>
<trkpt lat="43.509446" lon="3.298797">
<ele>194.2</ele>
<time>2013-05-08T17:14:11.999Z</time>
</trkpt>
<trkpt lat="43.50939" lon="3.299173">
<ele>193</ele>
<time>2013-05-08T17:14:12.999Z</time>
</trkpt>
<trkpt lat="43.509337" lon="3.299543">
<ele>191.9</ele>
<time>2013-05-08T17:14:13.999Z</time>
</trkpt>
<trkpt lat="43.509284" lon="3.299901">
<ele>190.9</ele>
<time>2013-05-08T17:14:14.999Z</time>
</trkpt>
<trkpt lat="43.509222" lon="3.300249">
<ele>189.8</ele>
<time>2013-05-08T17:14:15.999Z</time>
</trkpt>
<trkpt lat="43.509169" lon="3.300594">
<ele>188.7</ele>
<time>2013-05-08T17:14:16.999Z</time>
</trkpt>
<trkpt lat="43.509113" lon="3.300933">
<ele>187.8</ele>
<time>2013-05-08T17:14:17.999Z</time>
</trkpt>
<trkpt lat="43.509062" lon="3.301265">
<ele>187.1</ele>
<time>2013-05-08T17:14:18.999Z</time>
</trkpt>
<trkpt lat="43.509009" lon="3.301593">
<ele>187</ele>
<time>2013-05-08T17:14:19.999Z</time>
</trkpt>
<trkpt lat="43.508951" lon="3.301914">
<ele>187.1</ele>
<time>2013-05-08T17:14:20.999Z</time>
</trkpt>
<trkpt lat="43.508886" lon="3.302232">
<ele>187</ele>
<time>2013-05-08T17:14:21.999Z</time>
</trkpt>
<trkpt lat="43.508826" lon="3.302536">
<ele>186.8</ele>
<time>2013-05-08T17:14:22.999Z</time>
</trkpt>
<trkpt lat="43.508773" lon="3.302822">
<ele>186.6</ele>
<time>2013-05-08T17:14:23.999Z</time>
</trkpt>
<trkpt lat="43.508723" lon="3.303093">
<ele>186.6</ele>
<time>2013-05-08T17:14:24.999Z</time>
</trkpt>
<trkpt lat="43.508676" lon="3.303351">
<ele>186.5</ele>
<time>2013-05-08T17:14:25.999Z</time>
</trkpt>
<trkpt lat="43.508628" lon="3.303596">
<ele>186.5</ele>
<time>2013-05-08T17:14:26.999Z</time>
</trkpt>
<trkpt lat="43.508587" lon="3.30383">
<ele>186.5</ele>
<time>2013-05-08T17:14:27.999Z</time>
</trkpt>
<trkpt lat="43.508558" lon="3.304048">
<ele>186.5</ele>
<time>2013-05-08T17:14:28.999Z</time>
</trkpt>
<trkpt lat="43.508531" lon="3.30426">
<ele>186.7</ele>
<time>2013-05-08T17:14:29.999Z</time>
</trkpt>
<trkpt lat="43.508494" lon="3.30444">
<ele>186.9</ele>
<time>2013-05-08T17:14:30.999Z</time>
</trkpt>
<trkpt lat="43.508422" lon="3.304586">
<ele>186.6</ele>
<time>2013-05-08T17:14:31.999Z</time>
</trkpt>
<trkpt lat="43.508347" lon="3.304748">
<ele>187.1</ele>
<time>2013-05-08T17:14:32.999Z</time>
</trkpt>
<trkpt lat="43.508272" lon="3.304932">
<ele>187.9</ele>
<time>2013-05-08T17:14:33.999Z</time>
</trkpt>
<trkpt lat="43.508193" lon="3.305141">
<ele>188.9</ele>
<time>2013-05-08T17:14:34.999Z</time>
</trkpt>
<trkpt lat="43.508115" lon="3.30536">
<ele>189.3</ele>
<time>2013-05-08T17:14:35.999Z</time>
</trkpt>
<trkpt lat="43.508037" lon="3.305574">
<ele>189.5</ele>
<time>2013-05-08T17:14:36.999Z</time>
</trkpt>
<trkpt lat="43.507965" lon="3.305788">
<ele>189.2</ele>
<time>2013-05-08T17:14:37.999Z</time>
</trkpt>
<trkpt lat="43.507889" lon="3.306012">
<ele>188.6</ele>
<time>2013-05-08T17:14:38.999Z</time>
</trkpt>
<trkpt lat="43.507815" lon="3.306235">
<ele>188.1</ele>
<time>2013-05-08T17:14:39.999Z</time>
</trkpt>
<trkpt lat="43.507743" lon="3.306459">
<ele>187.4</ele>
<time>2013-05-08T17:14:40.999Z</time>
</trkpt>
<trkpt lat="43.507655" lon="3.306664">
<ele>186.6</ele>
<time>2013-05-08T17:14:41.999Z</time>
</trkpt>
<trkpt lat="43.507551" lon="3.306858">
<ele>186</ele>
<time>2013-05-08T17:14:42.999Z</time>
</trkpt>
<trkpt lat="43.507436" lon="3.307034">
<ele>185.9</ele>
<time>2013-05-08T17:14:43.999Z</time>
</trkpt>
<trkpt lat="43.507317" lon="3.307186">
<ele>185.9</ele>
<time>2013-05-08T17:14:44.999Z</time>
</trkpt>
<trkpt lat="43.507176" lon="3.307292">
<ele>185.7</ele>
<time>2013-05-08T17:14:45.999Z</time>
</trkpt>
<trkpt lat="43.507035" lon="3.307391">
<ele>185.7</ele>
<time>2013-05-08T17:14:46.999Z</time>
</trkpt>
<trkpt lat="43.506898" lon="3.307474">
<ele>185.6</ele>
<time>2013-05-08T17:14:47.999Z</time>
</trkpt>
<trkpt lat="43.506765" lon="3.307541">
<ele>185.4</ele>
<time>2013-05-08T17:14:48.999Z</time>
</trkpt>
<trkpt lat="43.506628" lon="3.307593">
<ele>185.6</ele>
<time>2013-05-08T17:14:49.999Z</time>
</trkpt>
<trkpt lat="43.50649" lon="3.307639">
<ele>185.6</ele>
<time>2013-05-08T17:14:50.999Z</time>
</trkpt>
<trkpt lat="43.506362" lon="3.307678">
<ele>185.7</ele>
<time>2013-05-08T17:14:51.999Z</time>
</trkpt>
<trkpt lat="43.506237" lon="3.307718">
<ele>185.9</ele>
<time>2013-05-08T17:14:52.999Z</time>
</trkpt>
<trkpt lat="43.506129" lon="3.307759">
<ele>185.7</ele>
<time>2013-05-08T17:14:53.999Z</time>
</trkpt>
<trkpt lat="43.506039" lon="3.307802">
<ele>185</ele>
<time>2013-05-08T17:14:54.999Z</time>
</trkpt>
<trkpt lat="43.505964" lon="3.307875">
<ele>184.3</ele>
<time>2013-05-08T17:14:55.999Z</time>
</trkpt>
<trkpt lat="43.505885" lon="3.30796">
<ele>183.8</ele>
<time>2013-05-08T17:14:56.999Z</time>
</trkpt>
<trkpt lat="43.505804" lon="3.308051">
<ele>183.3</ele>
<time>2013-05-08T17:14:57.999Z</time>
</trkpt>
<trkpt lat="43.505724" lon="3.308141">
<ele>182.7</ele>
<time>2013-05-08T17:14:58.999Z</time>
</trkpt>
<trkpt lat="43.50564" lon="3.308241">
<ele>182</ele>
<time>2013-05-08T17:14:59.999Z</time>
</trkpt>
<trkpt lat="43.505556" lon="3.308345">
<ele>181.1</ele>
<time>2013-05-08T17:15:00.999Z</time>
</trkpt>
<trkpt lat="43.505475" lon="3.308454">
<ele>180.3</ele>
<time>2013-05-08T17:15:01.999Z</time>
</trkpt>
<trkpt lat="43.505398" lon="3.308569">
<ele>179.5</ele>
<time>2013-05-08T17:15:02.999Z</time>
</trkpt>
<trkpt lat="43.505335" lon="3.308687">
<ele>178.6</ele>
<time>2013-05-08T17:15:03.999Z</time>
</trkpt>
<trkpt lat="43.505299" lon="3.308809">
<ele>177.8</ele>
<time>2013-05-08T17:15:04.999Z</time>
</trkpt>
<trkpt lat="43.505263" lon="3.308962">
<ele>177.3</ele>
<time>2013-05-08T17:15:05.999Z</time>
</trkpt>
<trkpt lat="43.505232" lon="3.309089">
<ele>176.9</ele>
<time>2013-05-08T17:15:06.999Z</time>
</trkpt>
<trkpt lat="43.505203" lon="3.309223">
<ele>176.7</ele>
<time>2013-05-08T17:15:07.999Z</time>
</trkpt>
<trkpt lat="43.505175" lon="3.309398">
<ele>176.4</ele>
<time>2013-05-08T17:15:08.999Z</time>
</trkpt>
<trkpt lat="43.505155" lon="3.309568">
<ele>176.3</ele>
<time>2013-05-08T17:15:09.999Z</time>
</trkpt>
<trkpt lat="43.505138" lon="3.309704">
<ele>176.1</ele>
<time>2013-05-08T17:15:10.999Z</time>
</trkpt>
<trkpt lat="43.505116" lon="3.309819">
<ele>176.1</ele>
<time>2013-05-08T17:15:11.999Z</time>
</trkpt>
<trkpt lat="43.505083" lon="3.309936">
<ele>176.1</ele>
<time>2013-05-08T17:15:12.999Z</time>
</trkpt>
<trkpt lat="43.505044" lon="3.310041">
<ele>176.3</ele>
<time>2013-05-08T17:15:13.999Z</time>
</trkpt>
<trkpt lat="43.504999" lon="3.310148">
<ele>176.2</ele>
<time>2013-05-08T17:15:14.999Z</time>
</trkpt>
<trkpt lat="43.504958" lon="3.310236">
<ele>175.6</ele>
<time>2013-05-08T17:15:15.999Z</time>
</trkpt>
<trkpt lat="43.504916" lon="3.310329">
<ele>174.8</ele>
<time>2013-05-08T17:15:16.999Z</time>
</trkpt>
<trkpt lat="43.504883" lon="3.310382">
<ele>174</ele>
<time>2013-05-08T17:15:17.999Z</time>
</trkpt>
<trkpt lat="43.504846" lon="3.310444">
<ele>173.2</ele>
<time>2013-05-08T17:15:18.999Z</time>
</trkpt>
<trkpt lat="43.504804" lon="3.310512">
<ele>172.9</ele>
<time>2013-05-08T17:15:19.999Z</time>
</trkpt>
<trkpt lat="43.504748" lon="3.310598">
<ele>172.4</ele>
<time>2013-05-08T17:15:20.999Z</time>
</trkpt>
<trkpt lat="43.50467" lon="3.310705">
<ele>172.1</ele>
<time>2013-05-08T17:15:21.999Z</time>
</trkpt>
<trkpt lat="43.50459" lon="3.310795">
<ele>171.8</ele>
<time>2013-05-08T17:15:22.999Z</time>
</trkpt>
<trkpt lat="43.504509" lon="3.310876">
<ele>171.2</ele>
<time>2013-05-08T17:15:23.999Z</time>
</trkpt>
<trkpt lat="43.504427" lon="3.310956">
<ele>170.3</ele>
<time>2013-05-08T17:15:24.999Z</time>
</trkpt>
<trkpt lat="43.504346" lon="3.311038">
<ele>169.3</ele>
<time>2013-05-08T17:15:25.999Z</time>
</trkpt>
<trkpt lat="43.504267" lon="3.311125">
<ele>168.2</ele>
<time>2013-05-08T17:15:26.999Z</time>
</trkpt>
<trkpt lat="43.504197" lon="3.311208">
<ele>167.1</ele>
<time>2013-05-08T17:15:27.999Z</time>
</trkpt>
<trkpt lat="43.504135" lon="3.3113">
<ele>166</ele>
<time>2013-05-08T17:15:28.999Z</time>
</trkpt>
<trkpt lat="43.504079" lon="3.311396">
<ele>164.8</ele>
<time>2013-05-08T17:15:29.999Z</time>
</trkpt>
<trkpt lat="43.504029" lon="3.311498">
<ele>163.8</ele>
<time>2013-05-08T17:15:30.999Z</time>
</trkpt>
<trkpt lat="43.50399" lon="3.311592">
<ele>163.2</ele>
<time>2013-05-08T17:15:31.999Z</time>
</trkpt>
<trkpt lat="43.50395" lon="3.311694">
<ele>163.1</ele>
<time>2013-05-08T17:15:32.999Z</time>
</trkpt>
<trkpt lat="43.503913" lon="3.311788">
<ele>163.1</ele>
<time>2013-05-08T17:15:33.999Z</time>
</trkpt>
<trkpt lat="43.503881" lon="3.311884">
<ele>163.2</ele>
<time>2013-05-08T17:15:34.999Z</time>
</trkpt>
<trkpt lat="43.503849" lon="3.31198">
<ele>163.2</ele>
<time>2013-05-08T17:15:35.999Z</time>
</trkpt>
<trkpt lat="43.503817" lon="3.312073">
<ele>163.4</ele>
<time>2013-05-08T17:15:36.999Z</time>
</trkpt>
<trkpt lat="43.503782" lon="3.312173">
<ele>163.7</ele>
<time>2013-05-08T17:15:37.999Z</time>
</trkpt>
<trkpt lat="43.503757" lon="3.312243">
<ele>163.6</ele>
<time>2013-05-08T17:15:38.999Z</time>
</trkpt>
<trkpt lat="43.503735" lon="3.312304">
<ele>163.2</ele>
<time>2013-05-08T17:15:39.999Z</time>
</trkpt>
<trkpt lat="43.503719" lon="3.312349">
<ele>163.1</ele>
<time>2013-05-08T17:15:40.999Z</time>
</trkpt>
<trkpt lat="43.503692" lon="3.312426">
<ele>162.6</ele>
<time>2013-05-08T17:15:41.999Z</time>
</trkpt>
<trkpt lat="43.503663" lon="3.312499">
<ele>162</ele>
<time>2013-05-08T17:15:42.999Z</time>
</trkpt>
<trkpt lat="43.503626" lon="3.312592">
<ele>161.4</ele>
<time>2013-05-08T17:15:43.999Z</time>
</trkpt>
<trkpt lat="43.503588" lon="3.312693">
<ele>160.8</ele>
<time>2013-05-08T17:15:44.999Z</time>
</trkpt>
<trkpt lat="43.503548" lon="3.312802">
<ele>160.3</ele>
<time>2013-05-08T17:15:45.999Z</time>
</trkpt>
<trkpt lat="43.503497" lon="3.312937">
<ele>159.9</ele>
<time>2013-05-08T17:15:46.999Z</time>
</trkpt>
<trkpt lat="43.503443" lon="3.313077">
<ele>159.4</ele>
<time>2013-05-08T17:15:47.999Z</time>
</trkpt>
<trkpt lat="43.503386" lon="3.313225">
<ele>158.8</ele>
<time>2013-05-08T17:15:48.999Z</time>
</trkpt>
<trkpt lat="43.503335" lon="3.313351">
<ele>158</ele>
<time>2013-05-08T17:15:49.999Z</time>
</trkpt>
<trkpt lat="43.503283" lon="3.313486">
<ele>157.1</ele>
<time>2013-05-08T17:15:50.999Z</time>
</trkpt>
<trkpt lat="43.503233" lon="3.313611">
<ele>156.2</ele>
<time>2013-05-08T17:15:51.999Z</time>
</trkpt>
<trkpt lat="43.503186" lon="3.31374">
<ele>155.2</ele>
<time>2013-05-08T17:15:52.999Z</time>
</trkpt>
<trkpt lat="43.503147" lon="3.313856">
<ele>153.9</ele>
<time>2013-05-08T17:15:53.999Z</time>
</trkpt>
<trkpt lat="43.503113" lon="3.313957">
<ele>152.5</ele>
<time>2013-05-08T17:15:54.999Z</time>
</trkpt>
<trkpt lat="43.503082" lon="3.31404">
<ele>151.3</ele>
<time>2013-05-08T17:15:55.999Z</time>
</trkpt>
<trkpt lat="43.503054" lon="3.314118">
<ele>150.2</ele>
<time>2013-05-08T17:15:56.999Z</time>
</trkpt>
<trkpt lat="43.503032" lon="3.314177">
<ele>149.4</ele>
<time>2013-05-08T17:15:57.999Z</time>
</trkpt>
<trkpt lat="43.503011" lon="3.314234">
<ele>148.8</ele>
<time>2013-05-08T17:15:58.999Z</time>
</trkpt>
<trkpt lat="43.502983" lon="3.314314">
<ele>148.2</ele>
<time>2013-05-08T17:15:59.999Z</time>
</trkpt>
<trkpt lat="43.502958" lon="3.314382">
<ele>147.7</ele>
<time>2013-05-08T17:16:00.999Z</time>
</trkpt>
<trkpt lat="43.502932" lon="3.314453">
<ele>147.3</ele>
<time>2013-05-08T17:16:01.999Z</time>
</trkpt>
<trkpt lat="43.502906" lon="3.314528">
<ele>147.4</ele>
<time>2013-05-08T17:16:02.999Z</time>
</trkpt>
<trkpt lat="43.502868" lon="3.314633">
<ele>147.5</ele>
<time>2013-05-08T17:16:03.999Z</time>
</trkpt>
<trkpt lat="43.502826" lon="3.314749">
<ele>147.8</ele>
<time>2013-05-08T17:16:04.999Z</time>
</trkpt>
<trkpt lat="43.502779" lon="3.314873">
<ele>148.3</ele>
<time>2013-05-08T17:16:05.999Z</time>
</trkpt>
<trkpt lat="43.502727" lon="3.315005">
<ele>149</ele>
<time>2013-05-08T17:16:06.999Z</time>
</trkpt>
<trkpt lat="43.502673" lon="3.315139">
<ele>149.5</ele>
<time>2013-05-08T17:16:07.999Z</time>
</trkpt>
<trkpt lat="43.502618" lon="3.315273">
<ele>149.8</ele>
<time>2013-05-08T17:16:08.999Z</time>
</trkpt>
<trkpt lat="43.502561" lon="3.315406">
<ele>149.9</ele>
<time>2013-05-08T17:16:09.999Z</time>
</trkpt>
<trkpt lat="43.502504" lon="3.31555">
<ele>149.5</ele>
<time>2013-05-08T17:16:10.999Z</time>
</trkpt>
<trkpt lat="43.502452" lon="3.315689">
<ele>148.9</ele>
<time>2013-05-08T17:16:11.999Z</time>
</trkpt>
<trkpt lat="43.502402" lon="3.315833">
<ele>148.4</ele>
<time>2013-05-08T17:16:12.999Z</time>
</trkpt>
<trkpt lat="43.502349" lon="3.315981">
<ele>148</ele>
<time>2013-05-08T17:16:13.999Z</time>
</trkpt>
<trkpt lat="43.502293" lon="3.316136">
<ele>147.6</ele>
<time>2013-05-08T17:16:14.999Z</time>
</trkpt>
<trkpt lat="43.502236" lon="3.316294">
<ele>147.2</ele>
<time>2013-05-08T17:16:15.999Z</time>
</trkpt>
<trkpt lat="43.502173" lon="3.316463">
<ele>147</ele>
<time>2013-05-08T17:16:16.999Z</time>
</trkpt>
<trkpt lat="43.502114" lon="3.316623">
<ele>146.7</ele>
<time>2013-05-08T17:16:17.999Z</time>
</trkpt>
<trkpt lat="43.502053" lon="3.316787">
<ele>146.3</ele>
<time>2013-05-08T17:16:18.999Z</time>
</trkpt>
<trkpt lat="43.501991" lon="3.316954">
<ele>146.3</ele>
<time>2013-05-08T17:16:19.999Z</time>
</trkpt>
<trkpt lat="43.501935" lon="3.317103">
<ele>146.1</ele>
<time>2013-05-08T17:16:20.999Z</time>
</trkpt>
<trkpt lat="43.501885" lon="3.317236">
<ele>145.7</ele>
<time>2013-05-08T17:16:21.999Z</time>
</trkpt>
<trkpt lat="43.50184" lon="3.317369">
<ele>145</ele>
<time>2013-05-08T17:16:22.999Z</time>
</trkpt>
<trkpt lat="43.501789" lon="3.317519">
<ele>144.3</ele>
<time>2013-05-08T17:16:23.999Z</time>
</trkpt>
<trkpt lat="43.501739" lon="3.317662">
<ele>143.8</ele>
<time>2013-05-08T17:16:24.999Z</time>
</trkpt>
<trkpt lat="43.501689" lon="3.317806">
<ele>143.5</ele>
<time>2013-05-08T17:16:25.999Z</time>
</trkpt>
<trkpt lat="43.501647" lon="3.317932">
<ele>143.1</ele>
<time>2013-05-08T17:16:26.999Z</time>
</trkpt>
<trkpt lat="43.501606" lon="3.318042">
<ele>142.7</ele>
<time>2013-05-08T17:16:27.999Z</time>
</trkpt>
<trkpt lat="43.501566" lon="3.318131">
<ele>142.3</ele>
<time>2013-05-08T17:16:28.999Z</time>
</trkpt>
<trkpt lat="43.50152" lon="3.31822">
<ele>142.1</ele>
<time>2013-05-08T17:16:29.999Z</time>
</trkpt>
<trkpt lat="43.501467" lon="3.318312">
<ele>142.2</ele>
<time>2013-05-08T17:16:30.999Z</time>
</trkpt>
<trkpt lat="43.501432" lon="3.318423">
<ele>142.6</ele>
<time>2013-05-08T17:16:31.999Z</time>
</trkpt>
<trkpt lat="43.501401" lon="3.318539">
<ele>142.5</ele>
<time>2013-05-08T17:16:32.999Z</time>
</trkpt>
<trkpt lat="43.501365" lon="3.318669">
<ele>142</ele>
<time>2013-05-08T17:16:33.999Z</time>
</trkpt>
<trkpt lat="43.501316" lon="3.318821">
<ele>141.1</ele>
<time>2013-05-08T17:16:34.999Z</time>
</trkpt>
<trkpt lat="43.501258" lon="3.318979">
<ele>140.4</ele>
<time>2013-05-08T17:16:35.999Z</time>
</trkpt>
<trkpt lat="43.501195" lon="3.319139">
<ele>139.9</ele>
<time>2013-05-08T17:16:36.999Z</time>
</trkpt>
<trkpt lat="43.501133" lon="3.319298">
<ele>139.6</ele>
<time>2013-05-08T17:16:37.999Z</time>
</trkpt>
<trkpt lat="43.501066" lon="3.319463">
<ele>139.4</ele>
<time>2013-05-08T17:16:38.999Z</time>
</trkpt>
<trkpt lat="43.501002" lon="3.319626">
<ele>139.3</ele>
<time>2013-05-08T17:16:39.999Z</time>
</trkpt>
<trkpt lat="43.500939" lon="3.31978">
<ele>139.4</ele>
<time>2013-05-08T17:16:40.999Z</time>
</trkpt>
<trkpt lat="43.500885" lon="3.319914">
<ele>139.3</ele>
<time>2013-05-08T17:16:41.999Z</time>
</trkpt>
<trkpt lat="43.500833" lon="3.320028">
<ele>139.3</ele>
<time>2013-05-08T17:16:42.999Z</time>
</trkpt>
<trkpt lat="43.500762" lon="3.320127">
<ele>139.6</ele>
<time>2013-05-08T17:16:43.999Z</time>
</trkpt>
<trkpt lat="43.500693" lon="3.320229">
<ele>139.7</ele>
<time>2013-05-08T17:16:44.999Z</time>
</trkpt>
<trkpt lat="43.500667" lon="3.320339">
<ele>139.8</ele>
<time>2013-05-08T17:16:45.999Z</time>
</trkpt>
<trkpt lat="43.500633" lon="3.320482">
<ele>139.9</ele>
<time>2013-05-08T17:16:46.999Z</time>
</trkpt>
<trkpt lat="43.500589" lon="3.320656">
<ele>139.7</ele>
<time>2013-05-08T17:16:47.999Z</time>
</trkpt>
<trkpt lat="43.500542" lon="3.320816">
<ele>139</ele>
<time>2013-05-08T17:16:48.999Z</time>
</trkpt>
<trkpt lat="43.500477" lon="3.32101">
<ele>138.5</ele>
<time>2013-05-08T17:16:49.999Z</time>
</trkpt>
<trkpt lat="43.50041" lon="3.321197">
<ele>138.2</ele>
<time>2013-05-08T17:16:50.999Z</time>
</trkpt>
<trkpt lat="43.500337" lon="3.321387">
<ele>137.9</ele>
<time>2013-05-08T17:16:51.999Z</time>
</trkpt>
<trkpt lat="43.500261" lon="3.321583">
<ele>137.6</ele>
<time>2013-05-08T17:16:52.999Z</time>
</trkpt>
<trkpt lat="43.500191" lon="3.321762">
<ele>137.3</ele>
<time>2013-05-08T17:16:53.999Z</time>
</trkpt>
<trkpt lat="43.500118" lon="3.321951">
<ele>137.2</ele>
<time>2013-05-08T17:16:54.999Z</time>
</trkpt>
<trkpt lat="43.500044" lon="3.322143">
<ele>137.3</ele>
<time>2013-05-08T17:16:55.999Z</time>
</trkpt>
<trkpt lat="43.499973" lon="3.322333">
<ele>137.1</ele>
<time>2013-05-08T17:16:56.999Z</time>
</trkpt>
<trkpt lat="43.499899" lon="3.322528">
<ele>136.5</ele>
<time>2013-05-08T17:16:57.999Z</time>
</trkpt>
<trkpt lat="43.499818" lon="3.322742">
<ele>136</ele>
<time>2013-05-08T17:16:58.999Z</time>
</trkpt>
<trkpt lat="43.499734" lon="3.322964">
<ele>135.6</ele>
<time>2013-05-08T17:16:59.999Z</time>
</trkpt>
<trkpt lat="43.499641" lon="3.323213">
<ele>135.5</ele>
<time>2013-05-08T17:17:00.999Z</time>
</trkpt>
<trkpt lat="43.499543" lon="3.323475">
<ele>135.7</ele>
<time>2013-05-08T17:17:01.999Z</time>
</trkpt>
<trkpt lat="43.499449" lon="3.323727">
<ele>135.7</ele>
<time>2013-05-08T17:17:02.999Z</time>
</trkpt>
<trkpt lat="43.499352" lon="3.323983">
<ele>135.8</ele>
<time>2013-05-08T17:17:03.999Z</time>
</trkpt>
<trkpt lat="43.499255" lon="3.324243">
<ele>135.7</ele>
<time>2013-05-08T17:17:04.999Z</time>
</trkpt>
<trkpt lat="43.499155" lon="3.324512">
<ele>135.6</ele>
<time>2013-05-08T17:17:05.999Z</time>
</trkpt>
<trkpt lat="43.499051" lon="3.324784">
<ele>135.4</ele>
<time>2013-05-08T17:17:06.999Z</time>
</trkpt>
<trkpt lat="43.498948" lon="3.325061">
<ele>135.2</ele>
<time>2013-05-08T17:17:07.999Z</time>
</trkpt>
<trkpt lat="43.498836" lon="3.325354">
<ele>135</ele>
<time>2013-05-08T17:17:08.999Z</time>
</trkpt>
<trkpt lat="43.498718" lon="3.325669">
<ele>134.8</ele>
<time>2013-05-08T17:17:09.999Z</time>
</trkpt>
<trkpt lat="43.498599" lon="3.326003">
<ele>134.6</ele>
<time>2013-05-08T17:17:10.999Z</time>
</trkpt>
<trkpt lat="43.498477" lon="3.326343">
<ele>134.2</ele>
<time>2013-05-08T17:17:11.999Z</time>
</trkpt>
<trkpt lat="43.498348" lon="3.326699">
<ele>133.5</ele>
<time>2013-05-08T17:17:12.999Z</time>
</trkpt>
<trkpt lat="43.498203" lon="3.327079">
<ele>132.5</ele>
<time>2013-05-08T17:17:13.999Z</time>
</trkpt>
<trkpt lat="43.498047" lon="3.32748">
<ele>131.5</ele>
<time>2013-05-08T17:17:14.999Z</time>
</trkpt>
<trkpt lat="43.497892" lon="3.327889">
<ele>130.6</ele>
<time>2013-05-08T17:17:15.999Z</time>
</trkpt>
<trkpt lat="43.497741" lon="3.328288">
<ele>129.7</ele>
<time>2013-05-08T17:17:16.999Z</time>
</trkpt>
<trkpt lat="43.497574" lon="3.328719">
<ele>129.1</ele>
<time>2013-05-08T17:17:17.999Z</time>
</trkpt>
<trkpt lat="43.497411" lon="3.329166">
<ele>128.7</ele>
<time>2013-05-08T17:17:18.999Z</time>
</trkpt>
<trkpt lat="43.497244" lon="3.329605">
<ele>128.7</ele>
<time>2013-05-08T17:17:19.999Z</time>
</trkpt>
<trkpt lat="43.497076" lon="3.330042">
<ele>129</ele>
<time>2013-05-08T17:17:20.999Z</time>
</trkpt>
<trkpt lat="43.496902" lon="3.33048">
<ele>129.1</ele>
<time>2013-05-08T17:17:21.999Z</time>
</trkpt>
<trkpt lat="43.496733" lon="3.330905">
<ele>129.2</ele>
<time>2013-05-08T17:17:22.999Z</time>
</trkpt>
<trkpt lat="43.496569" lon="3.331312">
<ele>129.5</ele>
<time>2013-05-08T17:17:23.999Z</time>
</trkpt>
<trkpt lat="43.496419" lon="3.33169">
<ele>130.1</ele>
<time>2013-05-08T17:17:24.999Z</time>
</trkpt>
<trkpt lat="43.496272" lon="3.332057">
<ele>130.8</ele>
<time>2013-05-08T17:17:25.999Z</time>
</trkpt>
<trkpt lat="43.496134" lon="3.332407">
<ele>131.4</ele>
<time>2013-05-08T17:17:26.999Z</time>
</trkpt>
<trkpt lat="43.496009" lon="3.332737">
<ele>131.5</ele>
<time>2013-05-08T17:17:27.999Z</time>
</trkpt>
<trkpt lat="43.495882" lon="3.33307">
<ele>131.5</ele>
<time>2013-05-08T17:17:28.999Z</time>
</trkpt>
<trkpt lat="43.495754" lon="3.333399">
<ele>131.3</ele>
<time>2013-05-08T17:17:29.999Z</time>
</trkpt>
<trkpt lat="43.495641" lon="3.333698">
<ele>130.8</ele>
<time>2013-05-08T17:17:30.999Z</time>
</trkpt>
<trkpt lat="43.495526" lon="3.333997">
<ele>130.3</ele>
<time>2013-05-08T17:17:31.999Z</time>
</trkpt>
<trkpt lat="43.495415" lon="3.334288">
<ele>129.9</ele>
<time>2013-05-08T17:17:32.999Z</time>
</trkpt>
<trkpt lat="43.495302" lon="3.334582">
<ele>129.5</ele>
<time>2013-05-08T17:17:33.999Z</time>
</trkpt>
<trkpt lat="43.495195" lon="3.334866">
<ele>129.1</ele>
<time>2013-05-08T17:17:34.999Z</time>
</trkpt>
<trkpt lat="43.495091" lon="3.335141">
<ele>128.6</ele>
<time>2013-05-08T17:17:35.999Z</time>
</trkpt>
<trkpt lat="43.494986" lon="3.33543">
<ele>128.2</ele>
<time>2013-05-08T17:17:36.999Z</time>
</trkpt>
<trkpt lat="43.494879" lon="3.335723">
<ele>128</ele>
<time>2013-05-08T17:17:37.999Z</time>
</trkpt>
<trkpt lat="43.494777" lon="3.336004">
<ele>127.9</ele>
<time>2013-05-08T17:17:38.999Z</time>
</trkpt>
<trkpt lat="43.494668" lon="3.336295">
<ele>127.8</ele>
<time>2013-05-08T17:17:39.999Z</time>
</trkpt>
<trkpt lat="43.494555" lon="3.336586">
<ele>127.7</ele>
<time>2013-05-08T17:17:40.999Z</time>
</trkpt>
<trkpt lat="43.494448" lon="3.336866">
<ele>127.7</ele>
<time>2013-05-08T17:17:41.999Z</time>
</trkpt>
<trkpt lat="43.49434" lon="3.337145">
<ele>127.9</ele>
<time>2013-05-08T17:17:42.999Z</time>
</trkpt>
<trkpt lat="43.494237" lon="3.337419">
<ele>128</ele>
<time>2013-05-08T17:17:43.999Z</time>
</trkpt>
<trkpt lat="43.494141" lon="3.337684">
<ele>128.1</ele>
<time>2013-05-08T17:17:44.999Z</time>
</trkpt>
<trkpt lat="43.494041" lon="3.337951">
<ele>128</ele>
<time>2013-05-08T17:17:45.999Z</time>
</trkpt>
<trkpt lat="43.493942" lon="3.33823">
<ele>128</ele>
<time>2013-05-08T17:17:46.999Z</time>
</trkpt>
<trkpt lat="43.493845" lon="3.338504">
<ele>127.7</ele>
<time>2013-05-08T17:17:47.999Z</time>
</trkpt>
<trkpt lat="43.493751" lon="3.338774">
<ele>127.3</ele>
<time>2013-05-08T17:17:48.999Z</time>
</trkpt>
<trkpt lat="43.493651" lon="3.339057">
<ele>127</ele>
<time>2013-05-08T17:17:49.999Z</time>
</trkpt>
<trkpt lat="43.49355" lon="3.339346">
<ele>127</ele>
<time>2013-05-08T17:17:50.999Z</time>
</trkpt>
<trkpt lat="43.493448" lon="3.339624">
<ele>126.9</ele>
<time>2013-05-08T17:17:51.999Z</time>
</trkpt>
<trkpt lat="43.493345" lon="3.339898">
<ele>126.9</ele>
<time>2013-05-08T17:17:52.999Z</time>
</trkpt>
<trkpt lat="43.493245" lon="3.340171">
<ele>127</ele>
<time>2013-05-08T17:17:53.999Z</time>
</trkpt>
<trkpt lat="43.493148" lon="3.340444">
<ele>127</ele>
<time>2013-05-08T17:17:54.999Z</time>
</trkpt>
<trkpt lat="43.493048" lon="3.340721">
<ele>126.8</ele>
<time>2013-05-08T17:17:55.999Z</time>
</trkpt>
<trkpt lat="43.492943" lon="3.340999">
<ele>126.7</ele>
<time>2013-05-08T17:17:56.999Z</time>
</trkpt>
<trkpt lat="43.49284" lon="3.341274">
<ele>126.6</ele>
<time>2013-05-08T17:17:57.999Z</time>
</trkpt>
<trkpt lat="43.492733" lon="3.341556">
<ele>126.4</ele>
<time>2013-05-08T17:17:58.999Z</time>
</trkpt>
<trkpt lat="43.492624" lon="3.341834">
<ele>126.3</ele>
<time>2013-05-08T17:17:59.999Z</time>
</trkpt>
<trkpt lat="43.492515" lon="3.342115">
<ele>126.2</ele>
<time>2013-05-08T17:18:00.999Z</time>
</trkpt>
<trkpt lat="43.492407" lon="3.342395">
<ele>126.2</ele>
<time>2013-05-08T17:18:01.999Z</time>
</trkpt>
<trkpt lat="43.492299" lon="3.342676">
<ele>126.2</ele>
<time>2013-05-08T17:18:02.999Z</time>
</trkpt>
<trkpt lat="43.49219" lon="3.342961">
<ele>126.2</ele>
<time>2013-05-08T17:18:03.999Z</time>
</trkpt>
<trkpt lat="43.492078" lon="3.343249">
<ele>126.1</ele>
<time>2013-05-08T17:18:04.999Z</time>
</trkpt>
<trkpt lat="43.491969" lon="3.343537">
<ele>125.9</ele>
<time>2013-05-08T17:18:05.999Z</time>
</trkpt>
<trkpt lat="43.491858" lon="3.343823">
<ele>125.7</ele>
<time>2013-05-08T17:18:06.999Z</time>
</trkpt>
<trkpt lat="43.491747" lon="3.344108">
<ele>125.4</ele>
<time>2013-05-08T17:18:07.999Z</time>
</trkpt>
<trkpt lat="43.491637" lon="3.344395">
<ele>125.1</ele>
<time>2013-05-08T17:18:08.999Z</time>
</trkpt>
<trkpt lat="43.491532" lon="3.344678">
<ele>124.8</ele>
<time>2013-05-08T17:18:09.999Z</time>
</trkpt>
<trkpt lat="43.491425" lon="3.344965">
<ele>124.5</ele>
<time>2013-05-08T17:18:10.999Z</time>
</trkpt>
<trkpt lat="43.49132" lon="3.345247">
<ele>124.2</ele>
<time>2013-05-08T17:18:11.999Z</time>
</trkpt>
<trkpt lat="43.491216" lon="3.34553">
<ele>123.9</ele>
<time>2013-05-08T17:18:12.999Z</time>
</trkpt>
<trkpt lat="43.491111" lon="3.345806">
<ele>123.6</ele>
<time>2013-05-08T17:18:13.999Z</time>
</trkpt>
<trkpt lat="43.491007" lon="3.346081">
<ele>123.3</ele>
<time>2013-05-08T17:18:14.999Z</time>
</trkpt>
<trkpt lat="43.490906" lon="3.346357">
<ele>123</ele>
<time>2013-05-08T17:18:15.999Z</time>
</trkpt>
<trkpt lat="43.490803" lon="3.346636">
<ele>122.5</ele>
<time>2013-05-08T17:18:16.999Z</time>
</trkpt>
<trkpt lat="43.490702" lon="3.346911">
<ele>122.2</ele>
<time>2013-05-08T17:18:17.999Z</time>
</trkpt>
<trkpt lat="43.490599" lon="3.347191">
<ele>121.6</ele>
<time>2013-05-08T17:18:18.999Z</time>
</trkpt>
<trkpt lat="43.490494" lon="3.347474">
<ele>121</ele>
<time>2013-05-08T17:18:19.999Z</time>
</trkpt>
<trkpt lat="43.490386" lon="3.347762">
<ele>120.4</ele>
<time>2013-05-08T17:18:20.999Z</time>
</trkpt>
<trkpt lat="43.490274" lon="3.348051">
<ele>119.7</ele>
<time>2013-05-08T17:18:21.999Z</time>
</trkpt>
<trkpt lat="43.490156" lon="3.348346">
<ele>119.1</ele>
<time>2013-05-08T17:18:22.999Z</time>
</trkpt>
<trkpt lat="43.490036" lon="3.348655">
<ele>118.4</ele>
<time>2013-05-08T17:18:23.999Z</time>
</trkpt>
<trkpt lat="43.489915" lon="3.34897">
<ele>117.8</ele>
<time>2013-05-08T17:18:24.999Z</time>
</trkpt>
<trkpt lat="43.489792" lon="3.349285">
<ele>117.2</ele>
<time>2013-05-08T17:18:25.999Z</time>
</trkpt>
<trkpt lat="43.489673" lon="3.3496">
<ele>116.6</ele>
<time>2013-05-08T17:18:26.999Z</time>
</trkpt>
<trkpt lat="43.489554" lon="3.349912">
<ele>116</ele>
<time>2013-05-08T17:18:27.999Z</time>
</trkpt>
<trkpt lat="43.489431" lon="3.350228">
<ele>115.5</ele>
<time>2013-05-08T17:18:28.999Z</time>
</trkpt>
<trkpt lat="43.489308" lon="3.350543">
<ele>114.8</ele>
<time>2013-05-08T17:18:29.999Z</time>
</trkpt>
<trkpt lat="43.489188" lon="3.350858">
<ele>114</ele>
<time>2013-05-08T17:18:30.999Z</time>
</trkpt>
<trkpt lat="43.48907" lon="3.351173">
<ele>113.4</ele>
<time>2013-05-08T17:18:31.999Z</time>
</trkpt>
<trkpt lat="43.488952" lon="3.351488">
<ele>112.8</ele>
<time>2013-05-08T17:18:32.999Z</time>
</trkpt>
<trkpt lat="43.488834" lon="3.3518">
<ele>112.2</ele>
<time>2013-05-08T17:18:33.999Z</time>
</trkpt>
<trkpt lat="43.488716" lon="3.352109">
<ele>111.7</ele>
<time>2013-05-08T17:18:34.999Z</time>
</trkpt>
<trkpt lat="43.488601" lon="3.352403">
<ele>111.1</ele>
<time>2013-05-08T17:18:35.999Z</time>
</trkpt>
<trkpt lat="43.488474" lon="3.352692">
<ele>110.7</ele>
<time>2013-05-08T17:18:36.999Z</time>
</trkpt>
<trkpt lat="43.488329" lon="3.352972">
<ele>110.4</ele>
<time>2013-05-08T17:18:37.999Z</time>
</trkpt>
<trkpt lat="43.488172" lon="3.353245">
<ele>109.9</ele>
<time>2013-05-08T17:18:38.999Z</time>
</trkpt>
<trkpt lat="43.488017" lon="3.353517">
<ele>109.5</ele>
<time>2013-05-08T17:18:39.999Z</time>
</trkpt>
<trkpt lat="43.487862" lon="3.353787">
<ele>108.8</ele>
<time>2013-05-08T17:18:40.999Z</time>
</trkpt>
<trkpt lat="43.487706" lon="3.354058">
<ele>108.3</ele>
<time>2013-05-08T17:18:41.999Z</time>
</trkpt>
<trkpt lat="43.487555" lon="3.354326">
<ele>107.6</ele>
<time>2013-05-08T17:18:42.999Z</time>
</trkpt>
<trkpt lat="43.487407" lon="3.354588">
<ele>106.9</ele>
<time>2013-05-08T17:18:43.999Z</time>
</trkpt>
<trkpt lat="43.487256" lon="3.35485">
<ele>106.3</ele>
<time>2013-05-08T17:18:44.999Z</time>
</trkpt>
<trkpt lat="43.48711" lon="3.355104">
<ele>105.8</ele>
<time>2013-05-08T17:18:45.999Z</time>
</trkpt>
<trkpt lat="43.486963" lon="3.35535">
<ele>105.5</ele>
<time>2013-05-08T17:18:46.999Z</time>
</trkpt>
<trkpt lat="43.486814" lon="3.355585">
<ele>105.3</ele>
<time>2013-05-08T17:18:47.999Z</time>
</trkpt>
<trkpt lat="43.486653" lon="3.355809">
<ele>105.3</ele>
<time>2013-05-08T17:18:48.999Z</time>
</trkpt>
<trkpt lat="43.486481" lon="3.356027">
<ele>105.2</ele>
<time>2013-05-08T17:18:49.999Z</time>
</trkpt>
<trkpt lat="43.486299" lon="3.356232">
<ele>105</ele>
<time>2013-05-08T17:18:50.999Z</time>
</trkpt>
<trkpt lat="43.486112" lon="3.356423">
<ele>104.8</ele>
<time>2013-05-08T17:18:51.999Z</time>
</trkpt>
<trkpt lat="43.485921" lon="3.356612">
<ele>104.6</ele>
<time>2013-05-08T17:18:52.999Z</time>
</trkpt>
<trkpt lat="43.485706" lon="3.356805">
<ele>103.9</ele>
<time>2013-05-08T17:18:53.999Z</time>
</trkpt>
<trkpt lat="43.485504" lon="3.356992">
<ele>103.2</ele>
<time>2013-05-08T17:18:54.999Z</time>
</trkpt>
<trkpt lat="43.485299" lon="3.357188">
<ele>102.8</ele>
<time>2013-05-08T17:18:55.999Z</time>
</trkpt>
<trkpt lat="43.485099" lon="3.357395">
<ele>102.5</ele>
<time>2013-05-08T17:18:56.999Z</time>
</trkpt>
<trkpt lat="43.484907" lon="3.357619">
<ele>102.2</ele>
<time>2013-05-08T17:18:57.999Z</time>
</trkpt>
<trkpt lat="43.484743" lon="3.357854">
<ele>101.9</ele>
<time>2013-05-08T17:18:58.999Z</time>
</trkpt>
<trkpt lat="43.484601" lon="3.358106">
<ele>101.6</ele>
<time>2013-05-08T17:18:59.999Z</time>
</trkpt>
<trkpt lat="43.484473" lon="3.35837">
<ele>101.2</ele>
<time>2013-05-08T17:19:00.999Z</time>
</trkpt>
<trkpt lat="43.484351" lon="3.358647">
<ele>100.8</ele>
<time>2013-05-08T17:19:01.999Z</time>
</trkpt>
<trkpt lat="43.484226" lon="3.358952">
<ele>100.5</ele>
<time>2013-05-08T17:19:02.999Z</time>
</trkpt>
<trkpt lat="43.484104" lon="3.359276">
<ele>100.7</ele>
<time>2013-05-08T17:19:03.999Z</time>
</trkpt>
<trkpt lat="43.483972" lon="3.359633">
<ele>101.1</ele>
<time>2013-05-08T17:19:04.999Z</time>
</trkpt>
<trkpt lat="43.483827" lon="3.360013">
<ele>101.4</ele>
<time>2013-05-08T17:19:05.999Z</time>
</trkpt>
<trkpt lat="43.483669" lon="3.360398">
<ele>101.8</ele>
<time>2013-05-08T17:19:06.999Z</time>
</trkpt>
<trkpt lat="43.483494" lon="3.360786">
<ele>102.3</ele>
<time>2013-05-08T17:19:07.999Z</time>
</trkpt>
<trkpt lat="43.483297" lon="3.361161">
<ele>102.7</ele>
<time>2013-05-08T17:19:08.999Z</time>
</trkpt>
<trkpt lat="43.483079" lon="3.361526">
<ele>103.2</ele>
<time>2013-05-08T17:19:09.999Z</time>
</trkpt>
<trkpt lat="43.482861" lon="3.361886">
<ele>103.7</ele>
<time>2013-05-08T17:19:10.999Z</time>
</trkpt>
<trkpt lat="43.482625" lon="3.362228">
<ele>104</ele>
<time>2013-05-08T17:19:11.999Z</time>
</trkpt>
<trkpt lat="43.482388" lon="3.362542">
<ele>104.3</ele>
<time>2013-05-08T17:19:12.999Z</time>
</trkpt>
<trkpt lat="43.482145" lon="3.36284">
<ele>104.2</ele>
<time>2013-05-08T17:19:13.999Z</time>
</trkpt>
<trkpt lat="43.48191" lon="3.363126">
<ele>104</ele>
<time>2013-05-08T17:19:14.999Z</time>
</trkpt>
<trkpt lat="43.481675" lon="3.363414">
<ele>103.9</ele>
<time>2013-05-08T17:19:15.999Z</time>
</trkpt>
<trkpt lat="43.481427" lon="3.36371">
<ele>103.7</ele>
<time>2013-05-08T17:19:16.999Z</time>
</trkpt>
<trkpt lat="43.481186" lon="3.363997">
<ele>103.2</ele>
<time>2013-05-08T17:19:17.999Z</time>
</trkpt>
<trkpt lat="43.480945" lon="3.364281">
<ele>102.5</ele>
<time>2013-05-08T17:19:18.999Z</time>
</trkpt>
<trkpt lat="43.480711" lon="3.364558">
<ele>101.7</ele>
<time>2013-05-08T17:19:19.999Z</time>
</trkpt>
<trkpt lat="43.480484" lon="3.364828">
<ele>100.9</ele>
<time>2013-05-08T17:19:20.999Z</time>
</trkpt>
<trkpt lat="43.480263" lon="3.365094">
<ele>100.2</ele>
<time>2013-05-08T17:19:21.999Z</time>
</trkpt>
<trkpt lat="43.480048" lon="3.365351">
<ele>99.5</ele>
<time>2013-05-08T17:19:22.999Z</time>
</trkpt>
<trkpt lat="43.479836" lon="3.365604">
<ele>99</ele>
<time>2013-05-08T17:19:23.999Z</time>
</trkpt>
<trkpt lat="43.479628" lon="3.365855">
<ele>98.6</ele>
<time>2013-05-08T17:19:24.999Z</time>
</trkpt>
<trkpt lat="43.479422" lon="3.3661">
<ele>98.4</ele>
<time>2013-05-08T17:19:25.999Z</time>
</trkpt>
<trkpt lat="43.479221" lon="3.366342">
<ele>98.2</ele>
<time>2013-05-08T17:19:26.999Z</time>
</trkpt>
<trkpt lat="43.479021" lon="3.366577">
<ele>97.9</ele>
<time>2013-05-08T17:19:27.999Z</time>
</trkpt>
<trkpt lat="43.478818" lon="3.366818">
<ele>97.7</ele>
<time>2013-05-08T17:19:28.999Z</time>
</trkpt>
<trkpt lat="43.478608" lon="3.36707">
<ele>97.3</ele>
<time>2013-05-08T17:19:29.999Z</time>
</trkpt>
<trkpt lat="43.478389" lon="3.367337">
<ele>97</ele>
<time>2013-05-08T17:19:30.999Z</time>
</trkpt>
<trkpt lat="43.478173" lon="3.367604">
<ele>96.8</ele>
<time>2013-05-08T17:19:31.999Z</time>
</trkpt>
<trkpt lat="43.477957" lon="3.367874">
<ele>96.6</ele>
<time>2013-05-08T17:19:32.999Z</time>
</trkpt>
<trkpt lat="43.477735" lon="3.368147">
<ele>96.6</ele>
<time>2013-05-08T17:19:33.999Z</time>
</trkpt>
<trkpt lat="43.477516" lon="3.368416">
<ele>96.5</ele>
<time>2013-05-08T17:19:34.999Z</time>
</trkpt>
<trkpt lat="43.477297" lon="3.368684">
<ele>96.5</ele>
<time>2013-05-08T17:19:35.999Z</time>
</trkpt>
<trkpt lat="43.477077" lon="3.368951">
<ele>96.5</ele>
<time>2013-05-08T17:19:36.999Z</time>
</trkpt>
<trkpt lat="43.476863" lon="3.369216">
<ele>96.6</ele>
<time>2013-05-08T17:19:37.999Z</time>
</trkpt>
<trkpt lat="43.476644" lon="3.369482">
<ele>96.8</ele>
<time>2013-05-08T17:19:38.999Z</time>
</trkpt>
<trkpt lat="43.476419" lon="3.369749">
<ele>97</ele>
<time>2013-05-08T17:19:39.999Z</time>
</trkpt>
<trkpt lat="43.476201" lon="3.370014">
<ele>97</ele>
<time>2013-05-08T17:19:40.999Z</time>
</trkpt>
<trkpt lat="43.475986" lon="3.370271">
<ele>96.9</ele>
<time>2013-05-08T17:19:41.999Z</time>
</trkpt>
<trkpt lat="43.475773" lon="3.370528">
<ele>96.8</ele>
<time>2013-05-08T17:19:42.999Z</time>
</trkpt>
<trkpt lat="43.47556" lon="3.370783">
<ele>96.7</ele>
<time>2013-05-08T17:19:43.999Z</time>
</trkpt>
<trkpt lat="43.475358" lon="3.371029">
<ele>96.8</ele>
<time>2013-05-08T17:19:44.999Z</time>
</trkpt>
<trkpt lat="43.475163" lon="3.371267">
<ele>97</ele>
<time>2013-05-08T17:19:45.999Z</time>
</trkpt>
<trkpt lat="43.474978" lon="3.371495">
<ele>97.2</ele>
<time>2013-05-08T17:19:46.999Z</time>
</trkpt>
<trkpt lat="43.474793" lon="3.37172">
<ele>97.5</ele>
<time>2013-05-08T17:19:47.999Z</time>
</trkpt>
<trkpt lat="43.474608" lon="3.371938">
<ele>97.7</ele>
<time>2013-05-08T17:19:48.999Z</time>
</trkpt>
<trkpt lat="43.474427" lon="3.372159">
<ele>97.8</ele>
<time>2013-05-08T17:19:49.999Z</time>
</trkpt>
<trkpt lat="43.474244" lon="3.372381">
<ele>97.8</ele>
<time>2013-05-08T17:19:50.999Z</time>
</trkpt>
<trkpt lat="43.474049" lon="3.372609">
<ele>97.3</ele>
<time>2013-05-08T17:19:51.999Z</time>
</trkpt>
<trkpt lat="43.473869" lon="3.372827">
<ele>96.9</ele>
<time>2013-05-08T17:19:52.999Z</time>
</trkpt>
<trkpt lat="43.473692" lon="3.373044">
<ele>96.7</ele>
<time>2013-05-08T17:19:53.999Z</time>
</trkpt>
<trkpt lat="43.473519" lon="3.373261">
<ele>96.5</ele>
<time>2013-05-08T17:19:54.999Z</time>
</trkpt>
<trkpt lat="43.473343" lon="3.373479">
<ele>96.6</ele>
<time>2013-05-08T17:19:55.999Z</time>
</trkpt>
<trkpt lat="43.473166" lon="3.373699">
<ele>96.6</ele>
<time>2013-05-08T17:19:56.999Z</time>
</trkpt>
<trkpt lat="43.47299" lon="3.37392">
<ele>96.6</ele>
<time>2013-05-08T17:19:57.999Z</time>
</trkpt>
<trkpt lat="43.472815" lon="3.374137">
<ele>96.5</ele>
<time>2013-05-08T17:19:58.999Z</time>
</trkpt>
<trkpt lat="43.472636" lon="3.374345">
<ele>96.2</ele>
<time>2013-05-08T17:19:59.999Z</time>
</trkpt>
<trkpt lat="43.472463" lon="3.37455">
<ele>95.9</ele>
<time>2013-05-08T17:20:00.999Z</time>
</trkpt>
<trkpt lat="43.47229" lon="3.374754">
<ele>96.1</ele>
<time>2013-05-08T17:20:01.999Z</time>
</trkpt>
<trkpt lat="43.472131" lon="3.374939">
<ele>96</ele>
<time>2013-05-08T17:20:02.999Z</time>
</trkpt>
<trkpt lat="43.471976" lon="3.375109">
<ele>95.9</ele>
<time>2013-05-08T17:20:03.999Z</time>
</trkpt>
<trkpt lat="43.471826" lon="3.375273">
<ele>95.7</ele>
<time>2013-05-08T17:20:04.999Z</time>
</trkpt>
<trkpt lat="43.471675" lon="3.375441">
<ele>95.6</ele>
<time>2013-05-08T17:20:05.999Z</time>
</trkpt>
<trkpt lat="43.471524" lon="3.375616">
<ele>95.3</ele>
<time>2013-05-08T17:20:06.999Z</time>
</trkpt>
<trkpt lat="43.471377" lon="3.375795">
<ele>95.1</ele>
<time>2013-05-08T17:20:07.999Z</time>
</trkpt>
<trkpt lat="43.471228" lon="3.375984">
<ele>94.8</ele>
<time>2013-05-08T17:20:08.999Z</time>
</trkpt>
<trkpt lat="43.471077" lon="3.376174">
<ele>94.7</ele>
<time>2013-05-08T17:20:09.999Z</time>
</trkpt>
<trkpt lat="43.470925" lon="3.376366">
<ele>94.5</ele>
<time>2013-05-08T17:20:10.999Z</time>
</trkpt>
<trkpt lat="43.47077" lon="3.37656">
<ele>94.6</ele>
<time>2013-05-08T17:20:11.999Z</time>
</trkpt>
<trkpt lat="43.470612" lon="3.376754">
<ele>94.7</ele>
<time>2013-05-08T17:20:12.999Z</time>
</trkpt>
<trkpt lat="43.470454" lon="3.376951">
<ele>94.8</ele>
<time>2013-05-08T17:20:13.999Z</time>
</trkpt>
<trkpt lat="43.470296" lon="3.37715">
<ele>95</ele>
<time>2013-05-08T17:20:14.999Z</time>
</trkpt>
<trkpt lat="43.470136" lon="3.377342">
<ele>95.2</ele>
<time>2013-05-08T17:20:15.999Z</time>
</trkpt>
<trkpt lat="43.469966" lon="3.37754">
<ele>95.8</ele>
<time>2013-05-08T17:20:16.999Z</time>
</trkpt>
<trkpt lat="43.469804" lon="3.37772">
<ele>96.4</ele>
<time>2013-05-08T17:20:17.999Z</time>
</trkpt>
<trkpt lat="43.469645" lon="3.377905">
<ele>97</ele>
<time>2013-05-08T17:20:18.999Z</time>
</trkpt>
<trkpt lat="43.469494" lon="3.378083">
<ele>97.7</ele>
<time>2013-05-08T17:20:19.999Z</time>
</trkpt>
<trkpt lat="43.469358" lon="3.378242">
<ele>98.3</ele>
<time>2013-05-08T17:20:20.999Z</time>
</trkpt>
<trkpt lat="43.469214" lon="3.378394">
<ele>98.5</ele>
<time>2013-05-08T17:20:21.999Z</time>
</trkpt>
<trkpt lat="43.469073" lon="3.37856">
<ele>98.7</ele>
<time>2013-05-08T17:20:22.999Z</time>
</trkpt>
<trkpt lat="43.468946" lon="3.378729">
<ele>98.8</ele>
<time>2013-05-08T17:20:23.999Z</time>
</trkpt>
<trkpt lat="43.468833" lon="3.378895">
<ele>98.7</ele>
<time>2013-05-08T17:20:24.999Z</time>
</trkpt>
<trkpt lat="43.468726" lon="3.379075">
<ele>98.6</ele>
<time>2013-05-08T17:20:25.999Z</time>
</trkpt>
<trkpt lat="43.468637" lon="3.37929">
<ele>98.5</ele>
<time>2013-05-08T17:20:26.999Z</time>
</trkpt>
<trkpt lat="43.468611" lon="3.379529">
<ele>98.4</ele>
<time>2013-05-08T17:20:27.999Z</time>
</trkpt>
<trkpt lat="43.468624" lon="3.379786">
<ele>98</ele>
<time>2013-05-08T17:20:28.999Z</time>
</trkpt>
<trkpt lat="43.468632" lon="3.380054">
<ele>97.6</ele>
<time>2013-05-08T17:20:29.999Z</time>
</trkpt>
<trkpt lat="43.46864" lon="3.380309">
<ele>97.1</ele>
<time>2013-05-08T17:20:30.999Z</time>
</trkpt>
<trkpt lat="43.46865" lon="3.380561">
<ele>96.7</ele>
<time>2013-05-08T17:20:31.999Z</time>
</trkpt>
<trkpt lat="43.468661" lon="3.380808">
<ele>96.2</ele>
<time>2013-05-08T17:20:32.999Z</time>
</trkpt>
<trkpt lat="43.46867" lon="3.381066">
<ele>95.8</ele>
<time>2013-05-08T17:20:33.999Z</time>
</trkpt>
<trkpt lat="43.468674" lon="3.381333">
<ele>95.4</ele>
<time>2013-05-08T17:20:34.999Z</time>
</trkpt>
<trkpt lat="43.468674" lon="3.3816">
<ele>94.9</ele>
<time>2013-05-08T17:20:35.999Z</time>
</trkpt>
<trkpt lat="43.468671" lon="3.381878">
<ele>94.3</ele>
<time>2013-05-08T17:20:36.999Z</time>
</trkpt>
<trkpt lat="43.468667" lon="3.382164">
<ele>93.8</ele>
<time>2013-05-08T17:20:37.999Z</time>
</trkpt>
<trkpt lat="43.468672" lon="3.382455">
<ele>93</ele>
<time>2013-05-08T17:20:38.999Z</time>
</trkpt>
<trkpt lat="43.468671" lon="3.382772">
<ele>92.3</ele>
<time>2013-05-08T17:20:39.999Z</time>
</trkpt>
<trkpt lat="43.468668" lon="3.383084">
<ele>91.5</ele>
<time>2013-05-08T17:20:40.999Z</time>
</trkpt>
<trkpt lat="43.468649" lon="3.383445">
<ele>91.1</ele>
<time>2013-05-08T17:20:41.999Z</time>
</trkpt>
<trkpt lat="43.468636" lon="3.383778">
<ele>90.7</ele>
<time>2013-05-08T17:20:42.999Z</time>
</trkpt>
<trkpt lat="43.468629" lon="3.384097">
<ele>90.5</ele>
<time>2013-05-08T17:20:43.999Z</time>
</trkpt>
<trkpt lat="43.468624" lon="3.384412">
<ele>90.2</ele>
<time>2013-05-08T17:20:44.999Z</time>
</trkpt>
<trkpt lat="43.468619" lon="3.384726">
<ele>90</ele>
<time>2013-05-08T17:20:45.999Z</time>
</trkpt>
<trkpt lat="43.468615" lon="3.385034">
<ele>89.7</ele>
<time>2013-05-08T17:20:46.999Z</time>
</trkpt>
<trkpt lat="43.468609" lon="3.385338">
<ele>89.4</ele>
<time>2013-05-08T17:20:47.999Z</time>
</trkpt>
<trkpt lat="43.468603" lon="3.385636">
<ele>89</ele>
<time>2013-05-08T17:20:48.999Z</time>
</trkpt>
<trkpt lat="43.468599" lon="3.385921">
<ele>88.7</ele>
<time>2013-05-08T17:20:49.999Z</time>
</trkpt>
<trkpt lat="43.468591" lon="3.386197">
<ele>88.3</ele>
<time>2013-05-08T17:20:50.999Z</time>
</trkpt>
<trkpt lat="43.468585" lon="3.386462">
<ele>87.9</ele>
<time>2013-05-08T17:20:51.999Z</time>
</trkpt>
<trkpt lat="43.468571" lon="3.386719">
<ele>87.5</ele>
<time>2013-05-08T17:20:52.999Z</time>
</trkpt>
<trkpt lat="43.468554" lon="3.386985">
<ele>87.2</ele>
<time>2013-05-08T17:20:53.999Z</time>
</trkpt>
<trkpt lat="43.468538" lon="3.38725">
<ele>86.9</ele>
<time>2013-05-08T17:20:54.999Z</time>
</trkpt>
<trkpt lat="43.4685" lon="3.387521">
<ele>86.7</ele>
<time>2013-05-08T17:20:55.999Z</time>
</trkpt>
<trkpt lat="43.468463" lon="3.387789">
<ele>86.7</ele>
<time>2013-05-08T17:20:56.999Z</time>
</trkpt>
<trkpt lat="43.468424" lon="3.388052">
<ele>86.8</ele>
<time>2013-05-08T17:20:57.999Z</time>
</trkpt>
<trkpt lat="43.46838" lon="3.38831">
<ele>87</ele>
<time>2013-05-08T17:20:58.999Z</time>
</trkpt>
<trkpt lat="43.468333" lon="3.388559">
<ele>87.2</ele>
<time>2013-05-08T17:20:59.999Z</time>
</trkpt>
<trkpt lat="43.468285" lon="3.388807">
<ele>87.5</ele>
<time>2013-05-08T17:21:00.999Z</time>
</trkpt>
<trkpt lat="43.468233" lon="3.38905">
<ele>87.7</ele>
<time>2013-05-08T17:21:01.999Z</time>
</trkpt>
<trkpt lat="43.468187" lon="3.389288">
<ele>87.8</ele>
<time>2013-05-08T17:21:02.999Z</time>
</trkpt>
<trkpt lat="43.468124" lon="3.389517">
<ele>88.1</ele>
<time>2013-05-08T17:21:03.999Z</time>
</trkpt>
<trkpt lat="43.468058" lon="3.38975">
<ele>88.3</ele>
<time>2013-05-08T17:21:04.999Z</time>
</trkpt>
<trkpt lat="43.467991" lon="3.389986">
<ele>88.2</ele>
<time>2013-05-08T17:21:05.999Z</time>
</trkpt>
<trkpt lat="43.467916" lon="3.390231">
<ele>88.2</ele>
<time>2013-05-08T17:21:06.999Z</time>
</trkpt>
<trkpt lat="43.467843" lon="3.390476">
<ele>88</ele>
<time>2013-05-08T17:21:07.999Z</time>
</trkpt>
<trkpt lat="43.467757" lon="3.390723">
<ele>87.8</ele>
<time>2013-05-08T17:21:08.999Z</time>
</trkpt>
<trkpt lat="43.467673" lon="3.39098">
<ele>87.6</ele>
<time>2013-05-08T17:21:09.999Z</time>
</trkpt>
<trkpt lat="43.467581" lon="3.391247">
<ele>87.6</ele>
<time>2013-05-08T17:21:10.999Z</time>
</trkpt>
<trkpt lat="43.467497" lon="3.391512">
<ele>87.6</ele>
<time>2013-05-08T17:21:11.999Z</time>
</trkpt>
<trkpt lat="43.467413" lon="3.391772">
<ele>87.6</ele>
<time>2013-05-08T17:21:12.999Z</time>
</trkpt>
<trkpt lat="43.467333" lon="3.39203">
<ele>87.6</ele>
<time>2013-05-08T17:21:13.999Z</time>
</trkpt>
<trkpt lat="43.467252" lon="3.392311">
<ele>87.3</ele>
<time>2013-05-08T17:21:14.999Z</time>
</trkpt>
<trkpt lat="43.467188" lon="3.392612">
<ele>86.8</ele>
<time>2013-05-08T17:21:15.999Z</time>
</trkpt>
<trkpt lat="43.467136" lon="3.39291">
<ele>86.4</ele>
<time>2013-05-08T17:21:16.999Z</time>
</trkpt>
<trkpt lat="43.467089" lon="3.393211">
<ele>86</ele>
<time>2013-05-08T17:21:17.999Z</time>
</trkpt>
<trkpt lat="43.467053" lon="3.393513">
<ele>85.5</ele>
<time>2013-05-08T17:21:18.999Z</time>
</trkpt>
<trkpt lat="43.467021" lon="3.393805">
<ele>85</ele>
<time>2013-05-08T17:21:19.999Z</time>
</trkpt>
<trkpt lat="43.466999" lon="3.394082">
<ele>84.6</ele>
<time>2013-05-08T17:21:20.999Z</time>
</trkpt>
<trkpt lat="43.46697" lon="3.394332">
<ele>84.3</ele>
<time>2013-05-08T17:21:21.999Z</time>
</trkpt>
<trkpt lat="43.466942" lon="3.394571">
<ele>84.1</ele>
<time>2013-05-08T17:21:22.999Z</time>
</trkpt>
<trkpt lat="43.466913" lon="3.394801">
<ele>83.9</ele>
<time>2013-05-08T17:21:23.999Z</time>
</trkpt>
<trkpt lat="43.466889" lon="3.39504">
<ele>83.6</ele>
<time>2013-05-08T17:21:24.999Z</time>
</trkpt>
<trkpt lat="43.466867" lon="3.395271">
<ele>83.3</ele>
<time>2013-05-08T17:21:25.999Z</time>
</trkpt>
<trkpt lat="43.466839" lon="3.395492">
<ele>83.1</ele>
<time>2013-05-08T17:21:26.999Z</time>
</trkpt>
<trkpt lat="43.46681" lon="3.395719">
<ele>82.8</ele>
<time>2013-05-08T17:21:27.999Z</time>
</trkpt>
<trkpt lat="43.466772" lon="3.395947">
<ele>82.7</ele>
<time>2013-05-08T17:21:28.999Z</time>
</trkpt>
<trkpt lat="43.466723" lon="3.396178">
<ele>82.6</ele>
<time>2013-05-08T17:21:29.999Z</time>
</trkpt>
<trkpt lat="43.466662" lon="3.396418">
<ele>82.5</ele>
<time>2013-05-08T17:21:30.999Z</time>
</trkpt>
<trkpt lat="43.466556" lon="3.396652">
<ele>82.3</ele>
<time>2013-05-08T17:21:31.999Z</time>
</trkpt>
<trkpt lat="43.466443" lon="3.396863">
<ele>82.2</ele>
<time>2013-05-08T17:21:32.999Z</time>
</trkpt>
<trkpt lat="43.466299" lon="3.397056">
<ele>82.2</ele>
<time>2013-05-08T17:21:33.999Z</time>
</trkpt>
<trkpt lat="43.466167" lon="3.397255">
<ele>82.2</ele>
<time>2013-05-08T17:21:34.999Z</time>
</trkpt>
<trkpt lat="43.466032" lon="3.397458">
<ele>82.1</ele>
<time>2013-05-08T17:21:35.999Z</time>
</trkpt>
<trkpt lat="43.465905" lon="3.397647">
<ele>82.1</ele>
<time>2013-05-08T17:21:36.999Z</time>
</trkpt>
<trkpt lat="43.46578" lon="3.397834">
<ele>82.6</ele>
<time>2013-05-08T17:21:37.999Z</time>
</trkpt>
<trkpt lat="43.465649" lon="3.398021">
<ele>83.1</ele>
<time>2013-05-08T17:21:38.999Z</time>
</trkpt>
<trkpt lat="43.465518" lon="3.398213">
<ele>83.5</ele>
<time>2013-05-08T17:21:39.999Z</time>
</trkpt>
<trkpt lat="43.465401" lon="3.398415">
<ele>83.9</ele>
<time>2013-05-08T17:21:40.999Z</time>
</trkpt>
<trkpt lat="43.465301" lon="3.398639">
<ele>84.1</ele>
<time>2013-05-08T17:21:41.999Z</time>
</trkpt>
<trkpt lat="43.465201" lon="3.398861">
<ele>84.1</ele>
<time>2013-05-08T17:21:42.999Z</time>
</trkpt>
<trkpt lat="43.465104" lon="3.39909">
<ele>84</ele>
<time>2013-05-08T17:21:43.999Z</time>
</trkpt>
<trkpt lat="43.465012" lon="3.399337">
<ele>83.8</ele>
<time>2013-05-08T17:21:44.999Z</time>
</trkpt>
<trkpt lat="43.46494" lon="3.399597">
<ele>83.9</ele>
<time>2013-05-08T17:21:45.999Z</time>
</trkpt>
<trkpt lat="43.464876" lon="3.399879">
<ele>83.6</ele>
<time>2013-05-08T17:21:46.999Z</time>
</trkpt>
<trkpt lat="43.464824" lon="3.400158">
<ele>83.1</ele>
<time>2013-05-08T17:21:47.999Z</time>
</trkpt>
<trkpt lat="43.464788" lon="3.400437">
<ele>82.7</ele>
<time>2013-05-08T17:21:48.999Z</time>
</trkpt>
<trkpt lat="43.46475" lon="3.400717">
<ele>82.4</ele>
<time>2013-05-08T17:21:49.999Z</time>
</trkpt>
<trkpt lat="43.464729" lon="3.401019">
<ele>82.1</ele>
<time>2013-05-08T17:21:50.999Z</time>
</trkpt>
<trkpt lat="43.464735" lon="3.401351">
<ele>81.9</ele>
<time>2013-05-08T17:21:51.999Z</time>
</trkpt>
<trkpt lat="43.464754" lon="3.401713">
<ele>81.5</ele>
<time>2013-05-08T17:21:52.999Z</time>
</trkpt>
<trkpt lat="43.464796" lon="3.402072">
<ele>81</ele>
<time>2013-05-08T17:21:53.999Z</time>
</trkpt>
<trkpt lat="43.464847" lon="3.402419">
<ele>80.6</ele>
<time>2013-05-08T17:21:54.999Z</time>
</trkpt>
<trkpt lat="43.464909" lon="3.402751">
<ele>80.1</ele>
<time>2013-05-08T17:21:55.999Z</time>
</trkpt>
<trkpt lat="43.464965" lon="3.403065">
<ele>80</ele>
<time>2013-05-08T17:21:56.999Z</time>
</trkpt>
<trkpt lat="43.465003" lon="3.403365">
<ele>80.1</ele>
<time>2013-05-08T17:21:57.999Z</time>
</trkpt>
<trkpt lat="43.465031" lon="3.403657">
<ele>80.1</ele>
<time>2013-05-08T17:21:58.999Z</time>
</trkpt>
<trkpt lat="43.465027" lon="3.403966">
<ele>79.9</ele>
<time>2013-05-08T17:21:59.999Z</time>
</trkpt>
<trkpt lat="43.464988" lon="3.404295">
<ele>79.7</ele>
<time>2013-05-08T17:22:00.999Z</time>
</trkpt>
<trkpt lat="43.46493" lon="3.404647">
<ele>79.8</ele>
<time>2013-05-08T17:22:01.999Z</time>
</trkpt>
<trkpt lat="43.464877" lon="3.404993">
<ele>79.8</ele>
<time>2013-05-08T17:22:02.999Z</time>
</trkpt>
<trkpt lat="43.464828" lon="3.405334">
<ele>79.9</ele>
<time>2013-05-08T17:22:03.999Z</time>
</trkpt>
<trkpt lat="43.464781" lon="3.405676">
<ele>80</ele>
<time>2013-05-08T17:22:04.999Z</time>
</trkpt>
<trkpt lat="43.464732" lon="3.406002">
<ele>80</ele>
<time>2013-05-08T17:22:05.999Z</time>
</trkpt>
<trkpt lat="43.464683" lon="3.406318">
<ele>79.9</ele>
<time>2013-05-08T17:22:06.999Z</time>
</trkpt>
<trkpt lat="43.464632" lon="3.406626">
<ele>79.7</ele>
<time>2013-05-08T17:22:07.999Z</time>
</trkpt>
<trkpt lat="43.464588" lon="3.40693">
<ele>79.4</ele>
<time>2013-05-08T17:22:08.999Z</time>
</trkpt>
<trkpt lat="43.464551" lon="3.407222">
<ele>79.1</ele>
<time>2013-05-08T17:22:09.999Z</time>
</trkpt>
<trkpt lat="43.464517" lon="3.407497">
<ele>78.9</ele>
<time>2013-05-08T17:22:10.999Z</time>
</trkpt>
<trkpt lat="43.46448" lon="3.407754">
<ele>78.7</ele>
<time>2013-05-08T17:22:11.999Z</time>
</trkpt>
<trkpt lat="43.464434" lon="3.40801">
<ele>78.7</ele>
<time>2013-05-08T17:22:12.999Z</time>
</trkpt>
<trkpt lat="43.464392" lon="3.408235">
<ele>78.8</ele>
<time>2013-05-08T17:22:13.999Z</time>
</trkpt>
<trkpt lat="43.464349" lon="3.408448">
<ele>78.6</ele>
<time>2013-05-08T17:22:14.999Z</time>
</trkpt>
<trkpt lat="43.464298" lon="3.408642">
<ele>78.2</ele>
<time>2013-05-08T17:22:15.999Z</time>
</trkpt>
<trkpt lat="43.464241" lon="3.408822">
<ele>77.9</ele>
<time>2013-05-08T17:22:16.999Z</time>
</trkpt>
<trkpt lat="43.46418" lon="3.408997">
<ele>77.6</ele>
<time>2013-05-08T17:22:17.999Z</time>
</trkpt>
<trkpt lat="43.46412" lon="3.409168">
<ele>77.1</ele>
<time>2013-05-08T17:22:18.999Z</time>
</trkpt>
<trkpt lat="43.464057" lon="3.409319">
<ele>76.5</ele>
<time>2013-05-08T17:22:19.999Z</time>
</trkpt>
<trkpt lat="43.463991" lon="3.40945">
<ele>76</ele>
<time>2013-05-08T17:22:20.999Z</time>
</trkpt>
<trkpt lat="43.463918" lon="3.409542">
<ele>75.4</ele>
<time>2013-05-08T17:22:21.999Z</time>
</trkpt>
<trkpt lat="43.463848" lon="3.409635">
<ele>75</ele>
<time>2013-05-08T17:22:22.999Z</time>
</trkpt>
<trkpt lat="43.463787" lon="3.409711">
<ele>74.7</ele>
<time>2013-05-08T17:22:23.999Z</time>
</trkpt>
<trkpt lat="43.463729" lon="3.409785">
<ele>74.6</ele>
<time>2013-05-08T17:22:24.999Z</time>
</trkpt>
<trkpt lat="43.463712" lon="3.409874">
<ele>74.6</ele>
<time>2013-05-08T17:22:25.999Z</time>
</trkpt>
<trkpt lat="43.463722" lon="3.409981">
<ele>74.4</ele>
<time>2013-05-08T17:22:26.999Z</time>
</trkpt>
<trkpt lat="43.463731" lon="3.410111">
<ele>74.3</ele>
<time>2013-05-08T17:22:27.999Z</time>
</trkpt>
<trkpt lat="43.463714" lon="3.410248">
<ele>74.2</ele>
<time>2013-05-08T17:22:28.999Z</time>
</trkpt>
<trkpt lat="43.463691" lon="3.410384">
<ele>74.3</ele>
<time>2013-05-08T17:22:29.999Z</time>
</trkpt>
<trkpt lat="43.463648" lon="3.410509">
<ele>74.3</ele>
<time>2013-05-08T17:22:30.999Z</time>
</trkpt>
<trkpt lat="43.463607" lon="3.410611">
<ele>74.5</ele>
<time>2013-05-08T17:22:31.999Z</time>
</trkpt>
<trkpt lat="43.463565" lon="3.41071">
<ele>74.8</ele>
<time>2013-05-08T17:22:32.999Z</time>
</trkpt>
<trkpt lat="43.463525" lon="3.410804">
<ele>74.8</ele>
<time>2013-05-08T17:22:33.999Z</time>
</trkpt>
<trkpt lat="43.463489" lon="3.410898">
<ele>74.8</ele>
<time>2013-05-08T17:22:34.999Z</time>
</trkpt>
<trkpt lat="43.463453" lon="3.411006">
<ele>74.9</ele>
<time>2013-05-08T17:22:35.999Z</time>
</trkpt>
<trkpt lat="43.463425" lon="3.411107">
<ele>75.1</ele>
<time>2013-05-08T17:22:36.999Z</time>
</trkpt>
<trkpt lat="43.4634" lon="3.411213">
<ele>75.4</ele>
<time>2013-05-08T17:22:37.999Z</time>
</trkpt>
<trkpt lat="43.463375" lon="3.411323">
<ele>75.9</ele>
<time>2013-05-08T17:22:38.999Z</time>
</trkpt>
<trkpt lat="43.463345" lon="3.41146">
<ele>76.4</ele>
<time>2013-05-08T17:22:39.999Z</time>
</trkpt>
<trkpt lat="43.463317" lon="3.41161">
<ele>76.6</ele>
<time>2013-05-08T17:22:40.999Z</time>
</trkpt>
<trkpt lat="43.463288" lon="3.411785">
<ele>77.2</ele>
<time>2013-05-08T17:22:41.999Z</time>
</trkpt>
<trkpt lat="43.463263" lon="3.411953">
<ele>77.7</ele>
<time>2013-05-08T17:22:42.999Z</time>
</trkpt>
<trkpt lat="43.463231" lon="3.412133">
<ele>77.8</ele>
<time>2013-05-08T17:22:43.999Z</time>
</trkpt>
<trkpt lat="43.463202" lon="3.412312">
<ele>77.7</ele>
<time>2013-05-08T17:22:44.999Z</time>
</trkpt>
<trkpt lat="43.463175" lon="3.412492">
<ele>77.5</ele>
<time>2013-05-08T17:22:45.999Z</time>
</trkpt>
<trkpt lat="43.463149" lon="3.412674">
<ele>77.4</ele>
<time>2013-05-08T17:22:46.999Z</time>
</trkpt>
<trkpt lat="43.463126" lon="3.412849">
<ele>77.6</ele>
<time>2013-05-08T17:22:47.999Z</time>
</trkpt>
<trkpt lat="43.463107" lon="3.413009">
<ele>77.7</ele>
<time>2013-05-08T17:22:48.999Z</time>
</trkpt>
<trkpt lat="43.463086" lon="3.413175">
<ele>77.9</ele>
<time>2013-05-08T17:22:49.999Z</time>
</trkpt>
<trkpt lat="43.463057" lon="3.413362">
<ele>78.3</ele>
<time>2013-05-08T17:22:50.999Z</time>
</trkpt>
<trkpt lat="43.463027" lon="3.413556">
<ele>78.7</ele>
<time>2013-05-08T17:22:51.999Z</time>
</trkpt>
<trkpt lat="43.462995" lon="3.413769">
<ele>78.6</ele>
<time>2013-05-08T17:22:52.999Z</time>
</trkpt>
<trkpt lat="43.462965" lon="3.413974">
<ele>78.3</ele>
<time>2013-05-08T17:22:53.999Z</time>
</trkpt>
<trkpt lat="43.462937" lon="3.414175">
<ele>77.4</ele>
<time>2013-05-08T17:22:54.999Z</time>
</trkpt>
<trkpt lat="43.462905" lon="3.414378">
<ele>76.6</ele>
<time>2013-05-08T17:22:55.999Z</time>
</trkpt>
<trkpt lat="43.46287" lon="3.414579">
<ele>76</ele>
<time>2013-05-08T17:22:56.999Z</time>
</trkpt>
<trkpt lat="43.462835" lon="3.414786">
<ele>75.6</ele>
<time>2013-05-08T17:22:57.999Z</time>
</trkpt>
<trkpt lat="43.462803" lon="3.414974">
<ele>75.1</ele>
<time>2013-05-08T17:22:58.999Z</time>
</trkpt>
<trkpt lat="43.462771" lon="3.415172">
<ele>74.7</ele>
<time>2013-05-08T17:22:59.999Z</time>
</trkpt>
<trkpt lat="43.462734" lon="3.415377">
<ele>74.3</ele>
<time>2013-05-08T17:23:00.999Z</time>
</trkpt>
<trkpt lat="43.4627" lon="3.415576">
<ele>73.9</ele>
<time>2013-05-08T17:23:01.999Z</time>
</trkpt>
<trkpt lat="43.462672" lon="3.415764">
<ele>73.6</ele>
<time>2013-05-08T17:23:02.999Z</time>
</trkpt>
<trkpt lat="43.462642" lon="3.415959">
<ele>73.4</ele>
<time>2013-05-08T17:23:03.999Z</time>
</trkpt>
<trkpt lat="43.462612" lon="3.416157">
<ele>73.4</ele>
<time>2013-05-08T17:23:04.999Z</time>
</trkpt>
<trkpt lat="43.462581" lon="3.416337">
<ele>73.7</ele>
<time>2013-05-08T17:23:05.999Z</time>
</trkpt>
<trkpt lat="43.462552" lon="3.4165">
<ele>73.5</ele>
<time>2013-05-08T17:23:06.999Z</time>
</trkpt>
<trkpt lat="43.462525" lon="3.416663">
<ele>73.3</ele>
<time>2013-05-08T17:23:07.999Z</time>
</trkpt>
<trkpt lat="43.46249" lon="3.416838">
<ele>72.7</ele>
<time>2013-05-08T17:23:08.999Z</time>
</trkpt>
<trkpt lat="43.46245" lon="3.417007">
<ele>72.3</ele>
<time>2013-05-08T17:23:09.999Z</time>
</trkpt>
<trkpt lat="43.462403" lon="3.41718">
<ele>72.1</ele>
<time>2013-05-08T17:23:10.999Z</time>
</trkpt>
<trkpt lat="43.462347" lon="3.417366">
<ele>72.1</ele>
<time>2013-05-08T17:23:12.000Z</time>
</trkpt>
<trkpt lat="43.462286" lon="3.417533">
<ele>72.3</ele>
<time>2013-05-08T17:23:13.000Z</time>
</trkpt>
<trkpt lat="43.462215" lon="3.417697">
<ele>72.4</ele>
<time>2013-05-08T17:23:14.000Z</time>
</trkpt>
<trkpt lat="43.462131" lon="3.417861">
<ele>72.4</ele>
<time>2013-05-08T17:23:15.000Z</time>
</trkpt>
<trkpt lat="43.462041" lon="3.418015">
<ele>72.1</ele>
<time>2013-05-08T17:23:16.000Z</time>
</trkpt>
<trkpt lat="43.461945" lon="3.418161">
<ele>72</ele>
<time>2013-05-08T17:23:17.000Z</time>
</trkpt>
<trkpt lat="43.461851" lon="3.418299">
<ele>71.7</ele>
<time>2013-05-08T17:23:18.000Z</time>
</trkpt>
<trkpt lat="43.461756" lon="3.418429">
<ele>71.6</ele>
<time>2013-05-08T17:23:19.000Z</time>
</trkpt>
<trkpt lat="43.461657" lon="3.418563">
<ele>71.5</ele>
<time>2013-05-08T17:23:20.000Z</time>
</trkpt>
<trkpt lat="43.461564" lon="3.418686">
<ele>71.8</ele>
<time>2013-05-08T17:23:21.000Z</time>
</trkpt>
<trkpt lat="43.461472" lon="3.418808">
<ele>72.1</ele>
<time>2013-05-08T17:23:22.000Z</time>
</trkpt>
<trkpt lat="43.461397" lon="3.418912">
<ele>72.4</ele>
<time>2013-05-08T17:23:23.000Z</time>
</trkpt>
<trkpt lat="43.461322" lon="3.419013">
<ele>72.8</ele>
<time>2013-05-08T17:23:24.000Z</time>
</trkpt>
<trkpt lat="43.461255" lon="3.419094">
<ele>73</ele>
<time>2013-05-08T17:23:25.000Z</time>
</trkpt>
<trkpt lat="43.46121" lon="3.419156">
<ele>73.7</ele>
<time>2013-05-08T17:23:26.000Z</time>
</trkpt>
<trkpt lat="43.461162" lon="3.419228">
<ele>74.4</ele>
<time>2013-05-08T17:23:27.000Z</time>
</trkpt>
<trkpt lat="43.461116" lon="3.419321">
<ele>74.8</ele>
<time>2013-05-08T17:23:28.000Z</time>
</trkpt>
<trkpt lat="43.461098" lon="3.419448">
<ele>75.4</ele>
<time>2013-05-08T17:23:29.000Z</time>
</trkpt>
<trkpt lat="43.461115" lon="3.41959">
<ele>76</ele>
<time>2013-05-08T17:23:30.000Z</time>
</trkpt>
<trkpt lat="43.461149" lon="3.41975">
<ele>76.5</ele>
<time>2013-05-08T17:23:31.000Z</time>
</trkpt>
<trkpt lat="43.461182" lon="3.419896">
<ele>77.1</ele>
<time>2013-05-08T17:23:32.000Z</time>
</trkpt>
<trkpt lat="43.461215" lon="3.42003">
<ele>77.7</ele>
<time>2013-05-08T17:23:33.000Z</time>
</trkpt>
<trkpt lat="43.461249" lon="3.420147">
<ele>78</ele>
<time>2013-05-08T17:23:34.000Z</time>
</trkpt>
<trkpt lat="43.461284" lon="3.420248">
<ele>78</ele>
<time>2013-05-08T17:23:35.000Z</time>
</trkpt>
<trkpt lat="43.461318" lon="3.420332">
<ele>77.7</ele>
<time>2013-05-08T17:23:36.000Z</time>
</trkpt>
<trkpt lat="43.461349" lon="3.420409">
<ele>77.6</ele>
<time>2013-05-08T17:23:37.000Z</time>
</trkpt>
<trkpt lat="43.46138" lon="3.420483">
<ele>77.4</ele>
<time>2013-05-08T17:23:38.000Z</time>
</trkpt>
<trkpt lat="43.46142" lon="3.420546">
<ele>77</ele>
<time>2013-05-08T17:23:39.000Z</time>
</trkpt>
<trkpt lat="43.461484" lon="3.420561">
<ele>76.5</ele>
<time>2013-05-08T17:23:40.000Z</time>
</trkpt>
<trkpt lat="43.46155" lon="3.420578">
<ele>76.1</ele>
<time>2013-05-08T17:23:41.000Z</time>
</trkpt>
<trkpt lat="43.461627" lon="3.420574">
<ele>76</ele>
<time>2013-05-08T17:23:42.000Z</time>
</trkpt>
<trkpt lat="43.461704" lon="3.420574">
<ele>75.9</ele>
<time>2013-05-08T17:23:43.000Z</time>
</trkpt>
<trkpt lat="43.461799" lon="3.42058">
<ele>75.8</ele>
<time>2013-05-08T17:23:44.000Z</time>
</trkpt>
<trkpt lat="43.461894" lon="3.420638">
<ele>75.8</ele>
<time>2013-05-08T17:23:45.000Z</time>
</trkpt>
<trkpt lat="43.461978" lon="3.420715">
<ele>76.1</ele>
<time>2013-05-08T17:23:46.000Z</time>
</trkpt>
<trkpt lat="43.462062" lon="3.420796">
<ele>76.4</ele>
<time>2013-05-08T17:23:47.000Z</time>
</trkpt>
<trkpt lat="43.462137" lon="3.420872">
<ele>76.8</ele>
<time>2013-05-08T17:23:48.000Z</time>
</trkpt>
<trkpt lat="43.462217" lon="3.420956">
<ele>76.8</ele>
<time>2013-05-08T17:23:49.000Z</time>
</trkpt>
<trkpt lat="43.462285" lon="3.421021">
<ele>76.3</ele>
<time>2013-05-08T17:23:50.000Z</time>
</trkpt>
<trkpt lat="43.462342" lon="3.421068">
<ele>75.6</ele>
<time>2013-05-08T17:23:51.000Z</time>
</trkpt>
<trkpt lat="43.462383" lon="3.421114">
<ele>75.2</ele>
<time>2013-05-08T17:23:52.000Z</time>
</trkpt>
<trkpt lat="43.46243" lon="3.421173">
<ele>74.7</ele>
<time>2013-05-08T17:23:53.000Z</time>
</trkpt>
<trkpt lat="43.462477" lon="3.421244">
<ele>74.5</ele>
<time>2013-05-08T17:23:54.000Z</time>
</trkpt>
<trkpt lat="43.462523" lon="3.421325">
<ele>74.6</ele>
<time>2013-05-08T17:23:55.000Z</time>
</trkpt>
<trkpt lat="43.46257" lon="3.421412">
<ele>74.7</ele>
<time>2013-05-08T17:23:56.000Z</time>
</trkpt>
<trkpt lat="43.462615" lon="3.421497">
<ele>75.1</ele>
<time>2013-05-08T17:23:57.000Z</time>
</trkpt>
<trkpt lat="43.462654" lon="3.421572">
<ele>75.7</ele>
<time>2013-05-08T17:23:58.000Z</time>
</trkpt>
<trkpt lat="43.462685" lon="3.421637">
<ele>76.3</ele>
<time>2013-05-08T17:23:59.000Z</time>
</trkpt>
<trkpt lat="43.462715" lon="3.421701">
<ele>76.8</ele>
<time>2013-05-08T17:24:00.000Z</time>
</trkpt>
<trkpt lat="43.462741" lon="3.42177">
<ele>77.3</ele>
<time>2013-05-08T17:24:01.000Z</time>
</trkpt>
<trkpt lat="43.462764" lon="3.421837">
<ele>77.3</ele>
<time>2013-05-08T17:24:02.000Z</time>
</trkpt>
<trkpt lat="43.46278" lon="3.421904">
<ele>77</ele>
<time>2013-05-08T17:24:03.000Z</time>
</trkpt>
<trkpt lat="43.462773" lon="3.421986">
<ele>76.4</ele>
<time>2013-05-08T17:24:04.000Z</time>
</trkpt>
<trkpt lat="43.462767" lon="3.422078">
<ele>76</ele>
<time>2013-05-08T17:24:05.000Z</time>
</trkpt>
<trkpt lat="43.462763" lon="3.422163">
<ele>75.6</ele>
<time>2013-05-08T17:24:06.000Z</time>
</trkpt>
<trkpt lat="43.462759" lon="3.42223">
<ele>75.7</ele>
<time>2013-05-08T17:24:07.000Z</time>
</trkpt>
<trkpt lat="43.462755" lon="3.422311">
<ele>75.4</ele>
<time>2013-05-08T17:24:08.000Z</time>
</trkpt>
<trkpt lat="43.462751" lon="3.422402">
<ele>75.1</ele>
<time>2013-05-08T17:24:09.000Z</time>
</trkpt>
<trkpt lat="43.462744" lon="3.422492">
<ele>75</ele>
<time>2013-05-08T17:24:10.000Z</time>
</trkpt>
<trkpt lat="43.462734" lon="3.422592">
<ele>74.7</ele>
<time>2013-05-08T17:24:11.000Z</time>
</trkpt>
<trkpt lat="43.462716" lon="3.422694">
<ele>74.5</ele>
<time>2013-05-08T17:24:12.000Z</time>
</trkpt>
<trkpt lat="43.462689" lon="3.422784">
<ele>74.5</ele>
<time>2013-05-08T17:24:13.000Z</time>
</trkpt>
<trkpt lat="43.462657" lon="3.422874">
<ele>74.5</ele>
<time>2013-05-08T17:24:14.000Z</time>
</trkpt>
<trkpt lat="43.462619" lon="3.42296">
<ele>74.5</ele>
<time>2013-05-08T17:24:15.000Z</time>
</trkpt>
<trkpt lat="43.462576" lon="3.423051">
<ele>74.1</ele>
<time>2013-05-08T17:24:16.000Z</time>
</trkpt>
<trkpt lat="43.462532" lon="3.423132">
<ele>73.8</ele>
<time>2013-05-08T17:24:17.000Z</time>
</trkpt>
<trkpt lat="43.462479" lon="3.423199">
<ele>73.5</ele>
<time>2013-05-08T17:24:18.000Z</time>
</trkpt>
<trkpt lat="43.462438" lon="3.423249">
<ele>73.2</ele>
<time>2013-05-08T17:24:19.000Z</time>
</trkpt>
<trkpt lat="43.462403" lon="3.423291">
<ele>73</ele>
<time>2013-05-08T17:24:20.000Z</time>
</trkpt>
<trkpt lat="43.462375" lon="3.423323">
<ele>72.9</ele>
<time>2013-05-08T17:24:21.000Z</time>
</trkpt>
<trkpt lat="43.462346" lon="3.423354">
<ele>72.9</ele>
<time>2013-05-08T17:24:22.000Z</time>
</trkpt>
<trkpt lat="43.462308" lon="3.423397">
<ele>72.8</ele>
<time>2013-05-08T17:24:23.000Z</time>
</trkpt>
<trkpt lat="43.462271" lon="3.423452">
<ele>72.5</ele>
<time>2013-05-08T17:24:24.000Z</time>
</trkpt>
<trkpt lat="43.462238" lon="3.423499">
<ele>72.3</ele>
<time>2013-05-08T17:24:25.000Z</time>
</trkpt>
<trkpt lat="43.462205" lon="3.423552">
<ele>72.4</ele>
<time>2013-05-08T17:24:26.000Z</time>
</trkpt>
<trkpt lat="43.462191" lon="3.423579">
<ele>72.4</ele>
<time>2013-05-08T17:24:27.000Z</time>
</trkpt>
<trkpt lat="43.462181" lon="3.42361">
<ele>72.3</ele>
<time>2013-05-08T17:24:28.000Z</time>
</trkpt>
<trkpt lat="43.462169" lon="3.423658">
<ele>72.3</ele>
<time>2013-05-08T17:24:30.000Z</time>
</trkpt>
<trkpt lat="43.462166" lon="3.423674">
<ele>72.2</ele>
<time>2013-05-08T17:24:31.000Z</time>
</trkpt>
<trkpt lat="43.462168" lon="3.423735">
<ele>72.5</ele>
<time>2013-05-08T17:24:42.000Z</time>
</trkpt>
<trkpt lat="43.462168" lon="3.423787">
<ele>72.6</ele>
<time>2013-05-08T17:24:43.000Z</time>
</trkpt>
<trkpt lat="43.462166" lon="3.423829">
<ele>72.7</ele>
<time>2013-05-08T17:24:44.000Z</time>
</trkpt>
<trkpt lat="43.462163" lon="3.423862">
<ele>72.8</ele>
<time>2013-05-08T17:24:45.000Z</time>
</trkpt>
<trkpt lat="43.462158" lon="3.423918">
<ele>73</ele>
<time>2013-05-08T17:24:47.000Z</time>
</trkpt>
<trkpt lat="43.462157" lon="3.423941">
<ele>73.1</ele>
<time>2013-05-08T17:24:48.000Z</time>
</trkpt>
<trkpt lat="43.462155" lon="3.423983">
<ele>73.3</ele>
<time>2013-05-08T17:24:53.000Z</time>
</trkpt>
<trkpt lat="43.462147" lon="3.424036">
<ele>73.3</ele>
<time>2013-05-08T17:24:54.000Z</time>
</trkpt>
<trkpt lat="43.462135" lon="3.424073">
<ele>73.4</ele>
<time>2013-05-08T17:24:55.000Z</time>
</trkpt>
<trkpt lat="43.462124" lon="3.424106">
<ele>73.4</ele>
<time>2013-05-08T17:24:56.000Z</time>
</trkpt>
<trkpt lat="43.462104" lon="3.424131">
<ele>73.4</ele>
<time>2013-05-08T17:24:57.000Z</time>
</trkpt>
<trkpt lat="43.462057" lon="3.424144">
<ele>74</ele>
<time>2013-05-08T17:24:58.000Z</time>
</trkpt>
<trkpt lat="43.461994" lon="3.42415">
<ele>74.3</ele>
<time>2013-05-08T17:24:59.000Z</time>
</trkpt>
<trkpt lat="43.461942" lon="3.424155">
<ele>74.2</ele>
<time>2013-05-08T17:25:00.000Z</time>
</trkpt>
<trkpt lat="43.461891" lon="3.424173">
<ele>74.3</ele>
<time>2013-05-08T17:25:01.000Z</time>
</trkpt>
<trkpt lat="43.461839" lon="3.424197">
<ele>74.2</ele>
<time>2013-05-08T17:25:02.000Z</time>
</trkpt>
<trkpt lat="43.461786" lon="3.424221">
<ele>74.3</ele>
<time>2013-05-08T17:25:03.000Z</time>
</trkpt>
<trkpt lat="43.46174" lon="3.424244">
<ele>74.2</ele>
<time>2013-05-08T17:25:04.000Z</time>
</trkpt>
<trkpt lat="43.461696" lon="3.424267">
<ele>74.4</ele>
<time>2013-05-08T17:25:05.000Z</time>
</trkpt>
<trkpt lat="43.461666" lon="3.424283">
<ele>74.4</ele>
<time>2013-05-08T17:25:06.000Z</time>
</trkpt>
<trkpt lat="43.46164" lon="3.424301">
<ele>74.4</ele>
<time>2013-05-08T17:25:07.000Z</time>
</trkpt>
<trkpt lat="43.461617" lon="3.424317">
<ele>74.3</ele>
<time>2013-05-08T17:25:08.000Z</time>
</trkpt>
<trkpt lat="43.461588" lon="3.424322">
<ele>74.3</ele>
<time>2013-05-08T17:25:09.000Z</time>
</trkpt>
<trkpt lat="43.461561" lon="3.424315">
<ele>74.3</ele>
<time>2013-05-08T17:25:10.000Z</time>
</trkpt>
<trkpt lat="43.461541" lon="3.424293">
<ele>74.3</ele>
<time>2013-05-08T17:25:11.000Z</time>
</trkpt>
<trkpt lat="43.461518" lon="3.424263">
<ele>74.2</ele>
<time>2013-05-08T17:25:12.000Z</time>
</trkpt>
<trkpt lat="43.461498" lon="3.424235">
<ele>74.2</ele>
<time>2013-05-08T17:25:13.000Z</time>
</trkpt>
<trkpt lat="43.46148" lon="3.424209">
<ele>74.2</ele>
<time>2013-05-08T17:25:14.000Z</time>
</trkpt>
<trkpt lat="43.461461" lon="3.424192">
<ele>74.2</ele>
<time>2013-05-08T17:25:15.000Z</time>
</trkpt>
<trkpt lat="43.461438" lon="3.424202">
<ele>74.2</ele>
<time>2013-05-08T17:25:16.000Z</time>
</trkpt>
<trkpt lat="43.461408" lon="3.424225">
<ele>74.2</ele>
<time>2013-05-08T17:25:17.000Z</time>
</trkpt>
<trkpt lat="43.461376" lon="3.424253">
<ele>74.2</ele>
<time>2013-05-08T17:25:18.000Z</time>
</trkpt>
<trkpt lat="43.46135" lon="3.424279">
<ele>74.1</ele>
<time>2013-05-08T17:25:19.000Z</time>
</trkpt>
<trkpt lat="43.461323" lon="3.424308">
<ele>74</ele>
<time>2013-05-08T17:25:20.000Z</time>
</trkpt>
<trkpt lat="43.461294" lon="3.424338">
<ele>74</ele>
<time>2013-05-08T17:25:21.000Z</time>
</trkpt>
<trkpt lat="43.461259" lon="3.424376">
<ele>73.9</ele>
<time>2013-05-08T17:25:22.000Z</time>
</trkpt>
<trkpt lat="43.461222" lon="3.424421">
<ele>73.9</ele>
<time>2013-05-08T17:25:23.000Z</time>
</trkpt>
<trkpt lat="43.461187" lon="3.424464">
<ele>73.8</ele>
<time>2013-05-08T17:25:24.000Z</time>
</trkpt>
<trkpt lat="43.461147" lon="3.42451">
<ele>72.9</ele>
<time>2013-05-08T17:25:25.000Z</time>
</trkpt>
<trkpt lat="43.461112" lon="3.42455">
<ele>72.3</ele>
<time>2013-05-08T17:25:26.000Z</time>
</trkpt>
<trkpt lat="43.461072" lon="3.424592">
<ele>72.1</ele>
<time>2013-05-08T17:25:27.000Z</time>
</trkpt>
<trkpt lat="43.46104" lon="3.424622">
<ele>72.1</ele>
<time>2013-05-08T17:25:28.000Z</time>
</trkpt>
<trkpt lat="43.461012" lon="3.42465">
<ele>72.1</ele>
<time>2013-05-08T17:25:29.000Z</time>
</trkpt>
<trkpt lat="43.460993" lon="3.42467">
<ele>72.1</ele>
<time>2013-05-08T17:25:30.000Z</time>
</trkpt>
<trkpt lat="43.460973" lon="3.424695">
<ele>72.2</ele>
<time>2013-05-08T17:25:31.000Z</time>
</trkpt>
<trkpt lat="43.460942" lon="3.42473">
<ele>72.3</ele>
<time>2013-05-08T17:25:33.000Z</time>
</trkpt>
<trkpt lat="43.460932" lon="3.42474">
<ele>72.4</ele>
<time>2013-05-08T17:25:34.000Z</time>
</trkpt>
<trkpt lat="43.46091" lon="3.424778">
<ele>72.7</ele>
<time>2013-05-08T17:25:42.000Z</time>
</trkpt>
<trkpt lat="43.460901" lon="3.424791">
<ele>72.7</ele>
<time>2013-05-08T17:25:43.000Z</time>
</trkpt>
<trkpt lat="43.460867" lon="3.424817">
<ele>72.7</ele>
<time>2013-05-08T17:25:46.000Z</time>
</trkpt>
<trkpt lat="43.460852" lon="3.424828">
<ele>72.8</ele>
<time>2013-05-08T17:25:47.000Z</time>
</trkpt>
<trkpt lat="43.460852" lon="3.424828">
<ele>73</ele>
<time>2013-05-08T17:25:53.000Z</time>
</trkpt>
<trkpt lat="43.460848" lon="3.424896">
<ele>73</ele>
<time>2013-05-08T17:25:54.000Z</time>
</trkpt>
<trkpt lat="43.460844" lon="3.424917">
<ele>73</ele>
<time>2013-05-08T17:25:56.000Z</time>
</trkpt>
<trkpt lat="43.460821" lon="3.424977">
<ele>72.9</ele>
<time>2013-05-08T17:25:57.000Z</time>
</trkpt>
<trkpt lat="43.460794" lon="3.425024">
<ele>72</ele>
<time>2013-05-08T17:29:28.000Z</time>
</trkpt>
<trkpt lat="43.46079" lon="3.425028">
<ele>72</ele>
<time>2013-05-08T17:29:29.000Z</time>
</trkpt>
<trkpt lat="43.460751" lon="3.425054">
<ele>72</ele>
<time>2013-05-08T17:29:46.000Z</time>
</trkpt>
<trkpt lat="43.460748" lon="3.425055">
<ele>72</ele>
<time>2013-05-08T17:29:47.000Z</time>
</trkpt>
<trkpt lat="43.460703" lon="3.425049">
<ele>72.1</ele>
<time>2013-05-08T17:30:38.000Z</time>
</trkpt>
<trkpt lat="43.460701" lon="3.425047">
<ele>72.1</ele>
<time>2013-05-08T17:30:39.000Z</time>
</trkpt>
<trkpt lat="43.460739" lon="3.425021">
<ele>73</ele>
<time>2013-05-08T17:32:20.000Z</time>
</trkpt>
<trkpt lat="43.460742" lon="3.425021">
<ele>73.1</ele>
<time>2013-05-08T17:32:21.000Z</time>
</trkpt>
<trkpt lat="43.460781" lon="3.425035">
<ele>74.2</ele>
<time>2013-05-08T17:32:29.000Z</time>
</trkpt>
<trkpt lat="43.460786" lon="3.425037">
<ele>74.3</ele>
<time>2013-05-08T17:32:30.000Z</time>
</trkpt>
<trkpt lat="43.460745" lon="3.42502">
<ele>74.8</ele>
<time>2013-05-08T17:33:00.000Z</time>
</trkpt>
<trkpt lat="43.460741" lon="3.42502">
<ele>74.8</ele>
<time>2013-05-08T17:33:01.000Z</time>
</trkpt>
<trkpt lat="43.460785" lon="3.425019">
<ele>75.6</ele>
<time>2013-05-08T17:34:09.000Z</time>
</trkpt>
<trkpt lat="43.460789" lon="3.42503">
<ele>75.7</ele>
<time>2013-05-08T17:34:10.000Z</time>
</trkpt>
<trkpt lat="43.460748" lon="3.425042">
<ele>74.1</ele>
<time>2013-05-08T17:34:33.000Z</time>
</trkpt>
<trkpt lat="43.460741" lon="3.425043">
<ele>73.9</ele>
<time>2013-05-08T17:34:34.000Z</time>
</trkpt>
<trkpt lat="43.460785" lon="3.425037">
<ele>74.4</ele>
<time>2013-05-08T17:35:28.000Z</time>
</trkpt>
<trkpt lat="43.460791" lon="3.425034">
<ele>74.5</ele>
<time>2013-05-08T17:35:29.000Z</time>
</trkpt>
<trkpt lat="43.460747" lon="3.425044">
<ele>75.6</ele>
<time>2013-05-08T17:36:25.000Z</time>
</trkpt>
<trkpt lat="43.460744" lon="3.425042">
<ele>75.6</ele>
<time>2013-05-08T17:36:26.000Z</time>
</trkpt>
<trkpt lat="43.4607" lon="3.425034">
<ele>70.5</ele>
<time>2013-05-08T17:39:52.000Z</time>
</trkpt>
<trkpt lat="43.460698" lon="3.425036">
<ele>70.5</ele>
<time>2013-05-08T17:39:53.000Z</time>
</trkpt>
<trkpt lat="43.460734" lon="3.425062">
<ele>70.2</ele>
<time>2013-05-08T17:40:20.000Z</time>
</trkpt>
<trkpt lat="43.460739" lon="3.425069">
<ele>70.4</ele>
<time>2013-05-08T17:40:21.000Z</time>
</trkpt>
<trkpt lat="43.460781" lon="3.425057">
<ele>70.1</ele>
<time>2013-05-08T17:41:12.000Z</time>
</trkpt>
<trkpt lat="43.460782" lon="3.425053">
<ele>70.2</ele>
<time>2013-05-08T17:41:13.000Z</time>
</trkpt>
<trkpt lat="43.460744" lon="3.425063">
<ele>70.7</ele>
<time>2013-05-08T17:41:43.000Z</time>
</trkpt>
<trkpt lat="43.460736" lon="3.425064">
<ele>70.7</ele>
<time>2013-05-08T17:41:44.000Z</time>
</trkpt>
<trkpt lat="43.460738" lon="3.425003">
<ele>70.9</ele>
<time>2013-05-08T17:42:22.000Z</time>
</trkpt>
<trkpt lat="43.460737" lon="3.424997">
<ele>70.9</ele>
<time>2013-05-08T17:42:23.000Z</time>
</trkpt>
<trkpt lat="43.460767" lon="3.425042">
<ele>72.4</ele>
<time>2013-05-08T17:43:07.000Z</time>
</trkpt>
<trkpt lat="43.460768" lon="3.425045">
<ele>72.3</ele>
<time>2013-05-08T17:43:08.000Z</time>
</trkpt>
<trkpt lat="43.460738" lon="3.425023">
<ele>72.2</ele>
<time>2013-05-08T17:43:15.000Z</time>
</trkpt>
<trkpt lat="43.460722" lon="3.425018">
<ele>72.2</ele>
<time>2013-05-08T17:43:16.000Z</time>
</trkpt>
<trkpt lat="43.46068" lon="3.42501">
<ele>72.3</ele>
<time>2013-05-08T17:43:28.000Z</time>
</trkpt>
<trkpt lat="43.460676" lon="3.425011">
<ele>72.3</ele>
<time>2013-05-08T17:43:29.000Z</time>
</trkpt>
<trkpt lat="43.460633" lon="3.424994">
<ele>71</ele>
<time>2013-05-08T17:45:14.000Z</time>
</trkpt>
<trkpt lat="43.46063" lon="3.424995">
<ele>71</ele>
<time>2013-05-08T17:45:15.000Z</time>
</trkpt>
<trkpt lat="43.460649" lon="3.425042">
<ele>69.3</ele>
<time>2013-05-08T17:46:25.000Z</time>
</trkpt>
<trkpt lat="43.460655" lon="3.425046">
<ele>69.3</ele>
<time>2013-05-08T17:46:26.000Z</time>
</trkpt>
<trkpt lat="43.460697" lon="3.425047">
<ele>69.1</ele>
<time>2013-05-08T17:46:35.000Z</time>
</trkpt>
<trkpt lat="43.4607" lon="3.425045">
<ele>69.1</ele>
<time>2013-05-08T17:46:36.000Z</time>
</trkpt>
<trkpt lat="43.460742" lon="3.425043">
<ele>70</ele>
<time>2013-05-08T17:47:08.000Z</time>
</trkpt>
<trkpt lat="43.460751" lon="3.42505">
<ele>70.2</ele>
<time>2013-05-08T17:47:09.000Z</time>
</trkpt>
<trkpt lat="43.460791" lon="3.425038">
<ele>73.1</ele>
<time>2013-05-08T17:47:33.999Z</time>
</trkpt>
<trkpt lat="43.460796" lon="3.425037">
<ele>73.2</ele>
<time>2013-05-08T17:47:34.999Z</time>
</trkpt>
<trkpt lat="43.460753" lon="3.425047">
<ele>73.4</ele>
<time>2013-05-08T17:47:46.999Z</time>
</trkpt>
<trkpt lat="43.460747" lon="3.425053">
<ele>73.4</ele>
<time>2013-05-08T17:47:47.999Z</time>
</trkpt>
<trkpt lat="43.460731" lon="3.424995">
<ele>72.4</ele>
<time>2013-05-08T17:49:32.999Z</time>
</trkpt>
<trkpt lat="43.46073" lon="3.424991">
<ele>72.4</ele>
<time>2013-05-08T17:49:33.999Z</time>
</trkpt>
<trkpt lat="43.460745" lon="3.42504">
<ele>70.8</ele>
<time>2013-05-08T17:50:05.999Z</time>
</trkpt>
<trkpt lat="43.460759" lon="3.425064">
<ele>70.5</ele>
<time>2013-05-08T17:50:06.999Z</time>
</trkpt>
<trkpt lat="43.460797" lon="3.425036">
<ele>70.8</ele>
<time>2013-05-08T17:50:16.999Z</time>
</trkpt>
<trkpt lat="43.460799" lon="3.425034">
<ele>70.8</ele>
<time>2013-05-08T17:50:17.999Z</time>
</trkpt>
<trkpt lat="43.460838" lon="3.425025">
<ele>71</ele>
<time>2013-05-08T17:50:29.999Z</time>
</trkpt>
<trkpt lat="43.460846" lon="3.425023">
<ele>71</ele>
<time>2013-05-08T17:50:41.999Z</time>
</trkpt>
<trkpt lat="43.460825" lon="3.425046">
<ele>71.2</ele>
<time>2013-05-08T17:50:55.999Z</time>
</trkpt>
<trkpt lat="43.460813" lon="3.425072">
<ele>71.2</ele>
<time>2013-05-08T17:50:56.999Z</time>
</trkpt>
<trkpt lat="43.460784" lon="3.425111">
<ele>71.2</ele>
<time>2013-05-08T17:51:03.999Z</time>
</trkpt>
<trkpt lat="43.460776" lon="3.425127">
<ele>71.2</ele>
<time>2013-05-08T17:51:04.999Z</time>
</trkpt>
<trkpt lat="43.460742" lon="3.425093">
<ele>71.3</ele>
<time>2013-05-08T17:51:18.999Z</time>
</trkpt>
<trkpt lat="43.460741" lon="3.425087">
<ele>71.3</ele>
<time>2013-05-08T17:51:20.999Z</time>
</trkpt>
<trkpt lat="43.460767" lon="3.425039">
<ele>71.6</ele>
<time>2013-05-08T17:51:33.999Z</time>
</trkpt>
<trkpt lat="43.460769" lon="3.425035">
<ele>71.6</ele>
<time>2013-05-08T17:51:34.999Z</time>
</trkpt>
<trkpt lat="43.460726" lon="3.425052">
<ele>73.8</ele>
<time>2013-05-08T17:52:25.999Z</time>
</trkpt>
<trkpt lat="43.460718" lon="3.425056">
<ele>73.8</ele>
<time>2013-05-08T17:52:26.999Z</time>
</trkpt>
<trkpt lat="43.460741" lon="3.425006">
<ele>71.9</ele>
<time>2013-05-08T17:53:04.999Z</time>
</trkpt>
<trkpt lat="43.460744" lon="3.425002">
<ele>71.9</ele>
<time>2013-05-08T17:53:05.999Z</time>
</trkpt>
<trkpt lat="43.460702" lon="3.425014">
<ele>71.3</ele>
<time>2013-05-08T17:53:32.999Z</time>
</trkpt>
<trkpt lat="43.460693" lon="3.425017">
<ele>71.3</ele>
<time>2013-05-08T17:53:33.999Z</time>
</trkpt>
<trkpt lat="43.460655" lon="3.425041">
<ele>70.7</ele>
<time>2013-05-08T17:54:45.999Z</time>
</trkpt>
<trkpt lat="43.460648" lon="3.425043">
<ele>70.7</ele>
<time>2013-05-08T17:54:46.999Z</time>
</trkpt>
<trkpt lat="43.46068" lon="3.425001">
<ele>69.8</ele>
<time>2013-05-08T17:55:39.999Z</time>
</trkpt>
<trkpt lat="43.46068" lon="3.424999">
<ele>69.8</ele>
<time>2013-05-08T17:55:40.999Z</time>
</trkpt>
<trkpt lat="43.460719" lon="3.425023">
<ele>70</ele>
<time>2013-05-08T17:56:30.999Z</time>
</trkpt>
<trkpt lat="43.460714" lon="3.425041">
<ele>70.1</ele>
<time>2013-05-08T17:56:31.999Z</time>
</trkpt>
<trkpt lat="43.460751" lon="3.425013">
<ele>70.6</ele>
<time>2013-05-08T17:56:46.999Z</time>
</trkpt>
<trkpt lat="43.460753" lon="3.42501">
<ele>70.6</ele>
<time>2013-05-08T17:56:47.999Z</time>
</trkpt>
<trkpt lat="43.460739" lon="3.424953">
<ele>70.7</ele>
<time>2013-05-08T17:57:18.999Z</time>
</trkpt>
<trkpt lat="43.460738" lon="3.424951">
<ele>70.7</ele>
<time>2013-05-08T17:57:19.999Z</time>
</trkpt>
<trkpt lat="43.460701" lon="3.424919">
<ele>69.9</ele>
<time>2013-05-08T17:57:30.999Z</time>
</trkpt>
<trkpt lat="43.460699" lon="3.424916">
<ele>69.6</ele>
<time>2013-05-08T17:57:31.999Z</time>
</trkpt>
<trkpt lat="43.460655" lon="3.424903">
<ele>69.2</ele>
<time>2013-05-08T17:57:36.999Z</time>
</trkpt>
<trkpt lat="43.460653" lon="3.424901">
<ele>69.2</ele>
<time>2013-05-08T17:57:37.999Z</time>
</trkpt>
<trkpt lat="43.460686" lon="3.424942">
<ele>67.6</ele>
<time>2013-05-08T17:58:17.999Z</time>
</trkpt>
<trkpt lat="43.46069" lon="3.424954">
<ele>67.7</ele>
<time>2013-05-08T17:58:18.999Z</time>
</trkpt>
<trkpt lat="43.460728" lon="3.424979">
<ele>67.8</ele>
<time>2013-05-08T17:58:27.999Z</time>
</trkpt>
<trkpt lat="43.460731" lon="3.424983">
<ele>67.8</ele>
<time>2013-05-08T17:58:28.999Z</time>
</trkpt>
<trkpt lat="43.460773" lon="3.424974">
<ele>68.3</ele>
<time>2013-05-08T17:58:41.999Z</time>
</trkpt>
<trkpt lat="43.460781" lon="3.424972">
<ele>68.4</ele>
<time>2013-05-08T17:58:42.999Z</time>
</trkpt>
<trkpt lat="43.460775" lon="3.425032">
<ele>69.7</ele>
<time>2013-05-08T17:59:11.999Z</time>
</trkpt>
<trkpt lat="43.460772" lon="3.425033">
<ele>69.8</ele>
<time>2013-05-08T17:59:12.999Z</time>
</trkpt>
<trkpt lat="43.460739" lon="3.425074">
<ele>69.6</ele>
<time>2013-05-08T17:59:21.999Z</time>
</trkpt>
<trkpt lat="43.460738" lon="3.425076">
<ele>69.6</ele>
<time>2013-05-08T17:59:22.999Z</time>
</trkpt>
<trkpt lat="43.460777" lon="3.425049">
<ele>71.1</ele>
<time>2013-05-08T18:00:09.999Z</time>
</trkpt>
<trkpt lat="43.46078" lon="3.425049">
<ele>71.1</ele>
<time>2013-05-08T18:00:10.999Z</time>
</trkpt>
<trkpt lat="43.460738" lon="3.425057">
<ele>71.9</ele>
<time>2013-05-08T18:01:04.999Z</time>
</trkpt>
<trkpt lat="43.460734" lon="3.425057">
<ele>71.9</ele>
<time>2013-05-08T18:01:05.999Z</time>
</trkpt>
<trkpt lat="43.460695" lon="3.42504">
<ele>72</ele>
<time>2013-05-08T18:01:17.999Z</time>
</trkpt>
<trkpt lat="43.46069" lon="3.425038">
<ele>71.9</ele>
<time>2013-05-08T18:01:18.999Z</time>
</trkpt>
<trkpt lat="43.460656" lon="3.425036">
<ele>72</ele>
<time>2013-05-08T18:01:27.999Z</time>
</trkpt>
<trkpt lat="43.460642" lon="3.425038">
<ele>72.1</ele>
<time>2013-05-08T18:01:28.999Z</time>
</trkpt>
<trkpt lat="43.4606" lon="3.425049">
<ele>71.2</ele>
<time>2013-05-08T18:01:42.999Z</time>
</trkpt>
<trkpt lat="43.460595" lon="3.42504">
<ele>70.9</ele>
<time>2013-05-08T18:01:43.999Z</time>
</trkpt>
<trkpt lat="43.460604" lon="3.424979">
<ele>69.1</ele>
<time>2013-05-08T18:01:51.999Z</time>
</trkpt>
<trkpt lat="43.460602" lon="3.424975">
<ele>68.8</ele>
<time>2013-05-08T18:01:52.999Z</time>
</trkpt>
<trkpt lat="43.460608" lon="3.424927">
<ele>67.9</ele>
<time>2013-05-08T18:03:12.999Z</time>
</trkpt>
<trkpt lat="43.460632" lon="3.42492">
<ele>67.9</ele>
<time>2013-05-08T18:03:21.999Z</time>
</trkpt>
<trkpt lat="43.460659" lon="3.424914">
<ele>67.9</ele>
<time>2013-05-08T18:03:34.999Z</time>
</trkpt>
<trkpt lat="43.460694" lon="3.424935">
<ele>67.9</ele>
<time>2013-05-08T18:03:43.999Z</time>
</trkpt>
<trkpt lat="43.460704" lon="3.424974">
<ele>67.9</ele>
<time>2013-05-08T18:03:47.999Z</time>
</trkpt>
<trkpt lat="43.460737" lon="3.424816">
<ele>67.8</ele>
<time>2013-05-08T18:04:05.999Z</time>
</trkpt>
<trkpt lat="43.460694" lon="3.424859">
<ele>67.8</ele>
<time>2013-05-08T18:04:07.999Z</time>
</trkpt>
<trkpt lat="43.460711" lon="3.424909">
<ele>67.7</ele>
<time>2013-05-08T18:04:29.999Z</time>
</trkpt>
<trkpt lat="43.460713" lon="3.424942">
<ele>67.7</ele>
<time>2013-05-08T18:04:30.999Z</time>
</trkpt>
<trkpt lat="43.460714" lon="3.424971">
<ele>67.8</ele>
<time>2013-05-08T18:04:31.999Z</time>
</trkpt>
<trkpt lat="43.460714" lon="3.425005">
<ele>67.8</ele>
<time>2013-05-08T18:04:32.999Z</time>
</trkpt>
<trkpt lat="43.460709" lon="3.425047">
<ele>67.8</ele>
<time>2013-05-08T18:04:33.999Z</time>
</trkpt>
<trkpt lat="43.460707" lon="3.425084">
<ele>67.9</ele>
<time>2013-05-08T18:04:34.999Z</time>
</trkpt>
<trkpt lat="43.460708" lon="3.425128">
<ele>67.9</ele>
<time>2013-05-08T18:04:37.999Z</time>
</trkpt>
<trkpt lat="43.460714" lon="3.425146">
<ele>67.9</ele>
<time>2013-05-08T18:04:38.999Z</time>
</trkpt>
<trkpt lat="43.460753" lon="3.425168">
<ele>68.1</ele>
<time>2013-05-08T18:04:44.999Z</time>
</trkpt>
<trkpt lat="43.460758" lon="3.425169">
<ele>68.2</ele>
<time>2013-05-08T18:04:45.999Z</time>
</trkpt>
<trkpt lat="43.460767" lon="3.425111">
<ele>68.4</ele>
<time>2013-05-08T18:04:53.999Z</time>
</trkpt>
<trkpt lat="43.460765" lon="3.425102">
<ele>68.4</ele>
<time>2013-05-08T18:04:54.999Z</time>
</trkpt>
<trkpt lat="43.460742" lon="3.425055">
<ele>68.5</ele>
<time>2013-05-08T18:05:01.999Z</time>
</trkpt>
<trkpt lat="43.460738" lon="3.425051">
<ele>68.5</ele>
<time>2013-05-08T18:05:02.999Z</time>
</trkpt>
<trkpt lat="43.460708" lon="3.425008">
<ele>68.7</ele>
<time>2013-05-08T18:05:15.999Z</time>
</trkpt>
<trkpt lat="43.460706" lon="3.425004">
<ele>68.7</ele>
<time>2013-05-08T18:05:16.999Z</time>
</trkpt>
<trkpt lat="43.460665" lon="3.425029">
<ele>68.7</ele>
<time>2013-05-08T18:05:54.999Z</time>
</trkpt>
<trkpt lat="43.460659" lon="3.425027">
<ele>68.7</ele>
<time>2013-05-08T18:05:55.999Z</time>
</trkpt>
<trkpt lat="43.460702" lon="3.425034">
<ele>68.8</ele>
<time>2013-05-08T18:06:36.999Z</time>
</trkpt>
<trkpt lat="43.460703" lon="3.425036">
<ele>68.8</ele>
<time>2013-05-08T18:06:37.999Z</time>
</trkpt>
<trkpt lat="43.460667" lon="3.424998">
<ele>69.9</ele>
<time>2013-05-08T18:08:33.999Z</time>
</trkpt>
<trkpt lat="43.460665" lon="3.424996">
<ele>69.9</ele>
<time>2013-05-08T18:08:34.999Z</time>
</trkpt>
<trkpt lat="43.460642" lon="3.424946">
<ele>69.5</ele>
<time>2013-05-08T18:09:20.999Z</time>
</trkpt>
<trkpt lat="43.46064" lon="3.424943">
<ele>69.4</ele>
<time>2013-05-08T18:09:21.999Z</time>
</trkpt>
<trkpt lat="43.460616" lon="3.424904">
<ele>69.2</ele>
<time>2013-05-08T18:09:49.999Z</time>
</trkpt>
<trkpt lat="43.460611" lon="3.424886">
<ele>69.2</ele>
<time>2013-05-08T18:09:50.999Z</time>
</trkpt>
<trkpt lat="43.460623" lon="3.424935">
<ele>69</ele>
<time>2013-05-08T18:10:05.999Z</time>
</trkpt>
<trkpt lat="43.46063" lon="3.424953">
<ele>68.9</ele>
<time>2013-05-08T18:10:06.999Z</time>
</trkpt>
<trkpt lat="43.46066" lon="3.424997">
<ele>68.8</ele>
<time>2013-05-08T18:10:09.999Z</time>
</trkpt>
<trkpt lat="43.460662" lon="3.425002">
<ele>68.8</ele>
<time>2013-05-08T18:10:10.999Z</time>
</trkpt>
<trkpt lat="43.46063" lon="3.425034">
<ele>68.5</ele>
<time>2013-05-08T18:10:18.999Z</time>
</trkpt>
<trkpt lat="43.460624" lon="3.425039">
<ele>68.5</ele>
<time>2013-05-08T18:10:19.999Z</time>
</trkpt>
<trkpt lat="43.46058" lon="3.425046">
<ele>68.2</ele>
<time>2013-05-08T18:10:31.999Z</time>
</trkpt>
<trkpt lat="43.460577" lon="3.42505">
<ele>68.2</ele>
<time>2013-05-08T18:10:32.999Z</time>
</trkpt>
<trkpt lat="43.460537" lon="3.425069">
<ele>67.3</ele>
<time>2013-05-08T18:11:12.999Z</time>
</trkpt>
<trkpt lat="43.460533" lon="3.425066">
<ele>67.3</ele>
<time>2013-05-08T18:11:13.999Z</time>
</trkpt>
<trkpt lat="43.460532" lon="3.425126">
<ele>67.1</ele>
<time>2013-05-08T18:11:34.999Z</time>
</trkpt>
<trkpt lat="43.460535" lon="3.425127">
<ele>67.1</ele>
<time>2013-05-08T18:11:35.999Z</time>
</trkpt>
<trkpt lat="43.460574" lon="3.425109">
<ele>66.9</ele>
<time>2013-05-08T18:11:46.999Z</time>
</trkpt>
<trkpt lat="43.460578" lon="3.425105">
<ele>66.9</ele>
<time>2013-05-08T18:11:47.999Z</time>
</trkpt>
<trkpt lat="43.460622" lon="3.425102">
<ele>66.2</ele>
<time>2013-05-08T18:12:08.999Z</time>
</trkpt>
<trkpt lat="43.460624" lon="3.425104">
<ele>66.2</ele>
<time>2013-05-08T18:12:09.999Z</time>
</trkpt>
<trkpt lat="43.460665" lon="3.425097">
<ele>66</ele>
<time>2013-05-08T18:12:28.999Z</time>
</trkpt>
<trkpt lat="43.460669" lon="3.425091">
<ele>66</ele>
<time>2013-05-08T18:12:29.999Z</time>
</trkpt>
<trkpt lat="43.460709" lon="3.425068">
<ele>66.2</ele>
<time>2013-05-08T18:12:40.999Z</time>
</trkpt>
<trkpt lat="43.460714" lon="3.425069">
<ele>66.2</ele>
<time>2013-05-08T18:12:41.999Z</time>
</trkpt>
<trkpt lat="43.460757" lon="3.425065">
<ele>66.2</ele>
<time>2013-05-08T18:12:49.999Z</time>
</trkpt>
<trkpt lat="43.460761" lon="3.425067">
<ele>66.2</ele>
<time>2013-05-08T18:12:50.999Z</time>
</trkpt>
<trkpt lat="43.460718" lon="3.425058">
<ele>66.3</ele>
<time>2013-05-08T18:13:32.999Z</time>
</trkpt>
<trkpt lat="43.460711" lon="3.425061">
<ele>66.3</ele>
<time>2013-05-08T18:13:33.999Z</time>
</trkpt>
<trkpt lat="43.460667" lon="3.42507">
<ele>66.2</ele>
<time>2013-05-08T18:13:49.999Z</time>
</trkpt>
<trkpt lat="43.460666" lon="3.425065">
<ele>66.1</ele>
<time>2013-05-08T18:13:50.999Z</time>
</trkpt>
<trkpt lat="43.460701" lon="3.42504">
<ele>65.7</ele>
<time>2013-05-08T18:14:10.999Z</time>
</trkpt>
<trkpt lat="43.460707" lon="3.425036">
<ele>65.7</ele>
<time>2013-05-08T18:14:11.999Z</time>
</trkpt>
<trkpt lat="43.460742" lon="3.425001">
<ele>65.7</ele>
<time>2013-05-08T18:14:21.999Z</time>
</trkpt>
<trkpt lat="43.460744" lon="3.424996">
<ele>65.7</ele>
<time>2013-05-08T18:14:22.999Z</time>
</trkpt>
<trkpt lat="43.460788" lon="3.425003">
<ele>65.8</ele>
<time>2013-05-08T18:14:38.999Z</time>
</trkpt>
<trkpt lat="43.460793" lon="3.425004">
<ele>65.8</ele>
<time>2013-05-08T18:14:39.999Z</time>
</trkpt>
<trkpt lat="43.460834" lon="3.424993">
<ele>67.5</ele>
<time>2013-05-08T18:16:06.999Z</time>
</trkpt>
<trkpt lat="43.460838" lon="3.424989">
<ele>67.5</ele>
<time>2013-05-08T18:16:07.999Z</time>
</trkpt>
<trkpt lat="43.460853" lon="3.42504">
<ele>73.3</ele>
<time>2013-05-08T18:18:34.999Z</time>
</trkpt>
<trkpt lat="43.460855" lon="3.425047">
<ele>73.3</ele>
<time>2013-05-08T18:18:35.999Z</time>
</trkpt>
<trkpt lat="43.460892" lon="3.425078">
<ele>74.2</ele>
<time>2013-05-08T18:18:46.999Z</time>
</trkpt>
<trkpt lat="43.460899" lon="3.425081">
<ele>74.4</ele>
<time>2013-05-08T18:18:47.999Z</time>
</trkpt>
<trkpt lat="43.460921" lon="3.425126">
<ele>76.2</ele>
<time>2013-05-08T18:18:59.000Z</time>
</trkpt>
<trkpt lat="43.460922" lon="3.425134">
<ele>76.3</ele>
<time>2013-05-08T18:19:00.000Z</time>
</trkpt>
<trkpt lat="43.460881" lon="3.425143">
<ele>75.9</ele>
<time>2013-05-08T18:19:13.000Z</time>
</trkpt>
<trkpt lat="43.460868" lon="3.425146">
<ele>75.9</ele>
<time>2013-05-08T18:19:14.000Z</time>
</trkpt>
<trkpt lat="43.460836" lon="3.425169">
<ele>75.7</ele>
<time>2013-05-08T18:19:16.000Z</time>
</trkpt>
<trkpt lat="43.460823" lon="3.425204">
<ele>75.7</ele>
<time>2013-05-08T18:19:17.000Z</time>
</trkpt>
<trkpt lat="43.460806" lon="3.425244">
<ele>75.6</ele>
<time>2013-05-08T18:19:18.000Z</time>
</trkpt>
<trkpt lat="43.460794" lon="3.42527">
<ele>75.6</ele>
<time>2013-05-08T18:19:19.000Z</time>
</trkpt>
<trkpt lat="43.460769" lon="3.425304">
<ele>75.5</ele>
<time>2013-05-08T18:19:21.000Z</time>
</trkpt>
<trkpt lat="43.46076" lon="3.42532">
<ele>75.5</ele>
<time>2013-05-08T18:19:22.000Z</time>
</trkpt>
<trkpt lat="43.460739" lon="3.425367">
<ele>75.4</ele>
<time>2013-05-08T18:19:24.000Z</time>
</trkpt>
<trkpt lat="43.460733" lon="3.425384">
<ele>75.3</ele>
<time>2013-05-08T18:19:25.000Z</time>
</trkpt>
<trkpt lat="43.460718" lon="3.425435">
<ele>75.4</ele>
<time>2013-05-08T18:19:28.000Z</time>
</trkpt>
<trkpt lat="43.460717" lon="3.425459">
<ele>75.5</ele>
<time>2013-05-08T18:19:29.000Z</time>
</trkpt>
<trkpt lat="43.460714" lon="3.425483">
<ele>75.6</ele>
<time>2013-05-08T18:19:30.000Z</time>
</trkpt>
<trkpt lat="43.460694" lon="3.42552">
<ele>75.7</ele>
<time>2013-05-08T18:19:31.000Z</time>
</trkpt>
<trkpt lat="43.460669" lon="3.425576">
<ele>77.1</ele>
<time>2013-05-08T18:19:32.000Z</time>
</trkpt>
<trkpt lat="43.460633" lon="3.42563">
<ele>78.1</ele>
<time>2013-05-08T18:19:33.000Z</time>
</trkpt>
<trkpt lat="43.460581" lon="3.425687">
<ele>79.1</ele>
<time>2013-05-08T18:19:34.000Z</time>
</trkpt>
<trkpt lat="43.460512" lon="3.425738">
<ele>79.8</ele>
<time>2013-05-08T18:19:35.000Z</time>
</trkpt>
<trkpt lat="43.460459" lon="3.425805">
<ele>79.8</ele>
<time>2013-05-08T18:19:36.000Z</time>
</trkpt>
<trkpt lat="43.460408" lon="3.425867">
<ele>79.4</ele>
<time>2013-05-08T18:19:37.000Z</time>
</trkpt>
<trkpt lat="43.46036" lon="3.42593">
<ele>79.2</ele>
<time>2013-05-08T18:19:38.000Z</time>
</trkpt>
<trkpt lat="43.460311" lon="3.425988">
<ele>78.5</ele>
<time>2013-05-08T18:19:39.000Z</time>
</trkpt>
<trkpt lat="43.460262" lon="3.426053">
<ele>78.4</ele>
<time>2013-05-08T18:19:40.000Z</time>
</trkpt>
<trkpt lat="43.460212" lon="3.426121">
<ele>78.5</ele>
<time>2013-05-08T18:19:41.000Z</time>
</trkpt>
<trkpt lat="43.460149" lon="3.426203">
<ele>78.5</ele>
<time>2013-05-08T18:19:42.000Z</time>
</trkpt>
<trkpt lat="43.460086" lon="3.426288">
<ele>78.6</ele>
<time>2013-05-08T18:19:43.000Z</time>
</trkpt>
<trkpt lat="43.460019" lon="3.426378">
<ele>78.8</ele>
<time>2013-05-08T18:19:44.000Z</time>
</trkpt>
<trkpt lat="43.459948" lon="3.426472">
<ele>79</ele>
<time>2013-05-08T18:19:45.000Z</time>
</trkpt>
<trkpt lat="43.459879" lon="3.426561">
<ele>79.2</ele>
<time>2013-05-08T18:19:46.000Z</time>
</trkpt>
<trkpt lat="43.459813" lon="3.426643">
<ele>79.8</ele>
<time>2013-05-08T18:19:47.000Z</time>
</trkpt>
<trkpt lat="43.459749" lon="3.426725">
<ele>80.2</ele>
<time>2013-05-08T18:19:48.000Z</time>
</trkpt>
<trkpt lat="43.459682" lon="3.426818">
<ele>80.5</ele>
<time>2013-05-08T18:19:49.000Z</time>
</trkpt>
<trkpt lat="43.459633" lon="3.426881">
<ele>80.7</ele>
<time>2013-05-08T18:19:50.000Z</time>
</trkpt>
<trkpt lat="43.459578" lon="3.426937">
<ele>80.7</ele>
<time>2013-05-08T18:19:51.000Z</time>
</trkpt>
<trkpt lat="43.459502" lon="3.42699">
<ele>80.3</ele>
<time>2013-05-08T18:19:52.000Z</time>
</trkpt>
<trkpt lat="43.459431" lon="3.427018">
<ele>79.7</ele>
<time>2013-05-08T18:19:53.000Z</time>
</trkpt>
<trkpt lat="43.459364" lon="3.427025">
<ele>78.8</ele>
<time>2013-05-08T18:19:54.000Z</time>
</trkpt>
<trkpt lat="43.4593" lon="3.427035">
<ele>77.7</ele>
<time>2013-05-08T18:19:55.000Z</time>
</trkpt>
<trkpt lat="43.45923" lon="3.427038">
<ele>76.4</ele>
<time>2013-05-08T18:19:56.000Z</time>
</trkpt>
<trkpt lat="43.459155" lon="3.427017">
<ele>75.2</ele>
<time>2013-05-08T18:19:57.000Z</time>
</trkpt>
<trkpt lat="43.459091" lon="3.426955">
<ele>73.9</ele>
<time>2013-05-08T18:19:58.000Z</time>
</trkpt>
<trkpt lat="43.459023" lon="3.426887">
<ele>72.5</ele>
<time>2013-05-08T18:19:59.000Z</time>
</trkpt>
<trkpt lat="43.45895" lon="3.426806">
<ele>71.3</ele>
<time>2013-05-08T18:20:00.000Z</time>
</trkpt>
<trkpt lat="43.458881" lon="3.426718">
<ele>70.8</ele>
<time>2013-05-08T18:20:01.000Z</time>
</trkpt>
<trkpt lat="43.458817" lon="3.426638">
<ele>71.2</ele>
<time>2013-05-08T18:20:02.000Z</time>
</trkpt>
<trkpt lat="43.458745" lon="3.426553">
<ele>71.9</ele>
<time>2013-05-08T18:20:03.000Z</time>
</trkpt>
<trkpt lat="43.458677" lon="3.42647">
<ele>72.4</ele>
<time>2013-05-08T18:20:04.000Z</time>
</trkpt>
<trkpt lat="43.458609" lon="3.42638">
<ele>73</ele>
<time>2013-05-08T18:20:05.000Z</time>
</trkpt>
<trkpt lat="43.458547" lon="3.426291">
<ele>73.8</ele>
<time>2013-05-08T18:20:06.000Z</time>
</trkpt>
<trkpt lat="43.458476" lon="3.426213">
<ele>74.7</ele>
<time>2013-05-08T18:20:07.000Z</time>
</trkpt>
<trkpt lat="43.458401" lon="3.426139">
<ele>75.6</ele>
<time>2013-05-08T18:20:08.000Z</time>
</trkpt>
<trkpt lat="43.458323" lon="3.426073">
<ele>76.8</ele>
<time>2013-05-08T18:20:09.000Z</time>
</trkpt>
<trkpt lat="43.458249" lon="3.426008">
<ele>78.2</ele>
<time>2013-05-08T18:20:10.000Z</time>
</trkpt>
<trkpt lat="43.458157" lon="3.425957">
<ele>79.4</ele>
<time>2013-05-08T18:20:11.000Z</time>
</trkpt>
<trkpt lat="43.458088" lon="3.425912">
<ele>80.4</ele>
<time>2013-05-08T18:20:12.000Z</time>
</trkpt>
<trkpt lat="43.458042" lon="3.425875">
<ele>81.3</ele>
<time>2013-05-08T18:20:13.000Z</time>
</trkpt>
<trkpt lat="43.457993" lon="3.425839">
<ele>82</ele>
<time>2013-05-08T18:20:14.000Z</time>
</trkpt>
<trkpt lat="43.457966" lon="3.425809">
<ele>82</ele>
<time>2013-05-08T18:20:15.000Z</time>
</trkpt>
<trkpt lat="43.457924" lon="3.425776">
<ele>82.9</ele>
<time>2013-05-08T18:20:16.000Z</time>
</trkpt>
<trkpt lat="43.457888" lon="3.425746">
<ele>83.3</ele>
<time>2013-05-08T18:20:17.000Z</time>
</trkpt>
<trkpt lat="43.457843" lon="3.425713">
<ele>83</ele>
<time>2013-05-08T18:20:18.000Z</time>
</trkpt>
<trkpt lat="43.457797" lon="3.425682">
<ele>83</ele>
<time>2013-05-08T18:20:19.000Z</time>
</trkpt>
<trkpt lat="43.457748" lon="3.425653">
<ele>82.8</ele>
<time>2013-05-08T18:20:20.000Z</time>
</trkpt>
<trkpt lat="43.457694" lon="3.425618">
<ele>82.9</ele>
<time>2013-05-08T18:20:21.000Z</time>
</trkpt>
<trkpt lat="43.457653" lon="3.425579">
<ele>82.6</ele>
<time>2013-05-08T18:20:22.000Z</time>
</trkpt>
<trkpt lat="43.457617" lon="3.425545">
<ele>82.3</ele>
<time>2013-05-08T18:20:23.000Z</time>
</trkpt>
<trkpt lat="43.457581" lon="3.425512">
<ele>82.2</ele>
<time>2013-05-08T18:20:24.000Z</time>
</trkpt>
<trkpt lat="43.457547" lon="3.425481">
<ele>82.3</ele>
<time>2013-05-08T18:20:25.000Z</time>
</trkpt>
<trkpt lat="43.457513" lon="3.425455">
<ele>82.3</ele>
<time>2013-05-08T18:20:26.000Z</time>
</trkpt>
<trkpt lat="43.45749" lon="3.425437">
<ele>82.3</ele>
<time>2013-05-08T18:20:27.000Z</time>
</trkpt>
<trkpt lat="43.457455" lon="3.425418">
<ele>82.4</ele>
<time>2013-05-08T18:20:28.000Z</time>
</trkpt>
<trkpt lat="43.457431" lon="3.425406">
<ele>82.5</ele>
<time>2013-05-08T18:20:29.000Z</time>
</trkpt>
<trkpt lat="43.457411" lon="3.425398">
<ele>82.5</ele>
<time>2013-05-08T18:20:30.000Z</time>
</trkpt>
<trkpt lat="43.457376" lon="3.425387">
<ele>82.6</ele>
<time>2013-05-08T18:20:34.000Z</time>
</trkpt>
<trkpt lat="43.457327" lon="3.425387">
<ele>82.6</ele>
<time>2013-05-08T18:20:35.000Z</time>
</trkpt>
<trkpt lat="43.457315" lon="3.425421">
<ele>82.4</ele>
<time>2013-05-08T18:20:38.000Z</time>
</trkpt>
<trkpt lat="43.457353" lon="3.425448">
<ele>81.8</ele>
<time>2013-05-08T18:20:39.000Z</time>
</trkpt>
<trkpt lat="43.457402" lon="3.425472">
<ele>81.1</ele>
<time>2013-05-08T18:20:40.000Z</time>
</trkpt>
<trkpt lat="43.457452" lon="3.425498">
<ele>80.4</ele>
<time>2013-05-08T18:20:41.000Z</time>
</trkpt>
<trkpt lat="43.457513" lon="3.425529">
<ele>79.9</ele>
<time>2013-05-08T18:20:42.000Z</time>
</trkpt>
<trkpt lat="43.457573" lon="3.425558">
<ele>79.5</ele>
<time>2013-05-08T18:20:43.000Z</time>
</trkpt>
<trkpt lat="43.457758" lon="3.425651">
<ele>79</ele>
<time>2013-05-08T18:20:46.000Z</time>
</trkpt>
<trkpt lat="43.457844" lon="3.425709">
<ele>79.4</ele>
<time>2013-05-08T18:20:47.000Z</time>
</trkpt>
<trkpt lat="43.457935" lon="3.42577">
<ele>79.9</ele>
<time>2013-05-08T18:20:48.000Z</time>
</trkpt>
<trkpt lat="43.458054" lon="3.425851">
<ele>80</ele>
<time>2013-05-08T18:20:49.000Z</time>
</trkpt>
<trkpt lat="43.458152" lon="3.425918">
<ele>80</ele>
<time>2013-05-08T18:20:50.000Z</time>
</trkpt>
<trkpt lat="43.458243" lon="3.425984">
<ele>79.9</ele>
<time>2013-05-08T18:20:51.000Z</time>
</trkpt>
<trkpt lat="43.458332" lon="3.426056">
<ele>79.9</ele>
<time>2013-05-08T18:20:52.000Z</time>
</trkpt>
<trkpt lat="43.45841" lon="3.426124">
<ele>80</ele>
<time>2013-05-08T18:20:53.000Z</time>
</trkpt>
<trkpt lat="43.458497" lon="3.426214">
<ele>79.2</ele>
<time>2013-05-08T18:20:54.000Z</time>
</trkpt>
<trkpt lat="43.458583" lon="3.426309">
<ele>78.2</ele>
<time>2013-05-08T18:20:55.000Z</time>
</trkpt>
<trkpt lat="43.458672" lon="3.426406">
<ele>77.2</ele>
<time>2013-05-08T18:20:56.000Z</time>
</trkpt>
<trkpt lat="43.458759" lon="3.426501">
<ele>76.1</ele>
<time>2013-05-08T18:20:57.000Z</time>
</trkpt>
<trkpt lat="43.458847" lon="3.426598">
<ele>75</ele>
<time>2013-05-08T18:20:58.000Z</time>
</trkpt>
<trkpt lat="43.458931" lon="3.426705">
<ele>73.8</ele>
<time>2013-05-08T18:20:59.000Z</time>
</trkpt>
<trkpt lat="43.459011" lon="3.426808">
<ele>72.9</ele>
<time>2013-05-08T18:21:00.000Z</time>
</trkpt>
<trkpt lat="43.459083" lon="3.426905">
<ele>72.4</ele>
<time>2013-05-08T18:21:01.000Z</time>
</trkpt>
<trkpt lat="43.459148" lon="3.426992">
<ele>72</ele>
<time>2013-05-08T18:21:02.000Z</time>
</trkpt>
<trkpt lat="43.459204" lon="3.427059">
<ele>71.8</ele>
<time>2013-05-08T18:21:03.000Z</time>
</trkpt>
<trkpt lat="43.459276" lon="3.427094">
<ele>71.5</ele>
<time>2013-05-08T18:21:04.000Z</time>
</trkpt>
<trkpt lat="43.459351" lon="3.427118">
<ele>71</ele>
<time>2013-05-08T18:21:05.000Z</time>
</trkpt>
<trkpt lat="43.459435" lon="3.427134">
<ele>70.7</ele>
<time>2013-05-08T18:21:06.000Z</time>
</trkpt>
<trkpt lat="43.459524" lon="3.427135">
<ele>70.8</ele>
<time>2013-05-08T18:21:07.000Z</time>
</trkpt>
<trkpt lat="43.459608" lon="3.427016">
<ele>70.5</ele>
<time>2013-05-08T18:21:08.000Z</time>
</trkpt>
<trkpt lat="43.459707" lon="3.426888">
<ele>70.7</ele>
<time>2013-05-08T18:21:09.000Z</time>
</trkpt>
<trkpt lat="43.459818" lon="3.426724">
<ele>70.9</ele>
<time>2013-05-08T18:21:10.000Z</time>
</trkpt>
<trkpt lat="43.459934" lon="3.426553">
<ele>70</ele>
<time>2013-05-08T18:21:11.000Z</time>
</trkpt>
<trkpt lat="43.460049" lon="3.426396">
<ele>69.7</ele>
<time>2013-05-08T18:21:12.000Z</time>
</trkpt>
<trkpt lat="43.460171" lon="3.426239">
<ele>69.9</ele>
<time>2013-05-08T18:21:13.000Z</time>
</trkpt>
<trkpt lat="43.460294" lon="3.426089">
<ele>70.5</ele>
<time>2013-05-08T18:21:14.000Z</time>
</trkpt>
<trkpt lat="43.460416" lon="3.425937">
<ele>71.4</ele>
<time>2013-05-08T18:21:15.000Z</time>
</trkpt>
<trkpt lat="43.460538" lon="3.425796">
<ele>72.2</ele>
<time>2013-05-08T18:21:16.000Z</time>
</trkpt>
<trkpt lat="43.460656" lon="3.42566">
<ele>72.8</ele>
<time>2013-05-08T18:21:17.000Z</time>
</trkpt>
<trkpt lat="43.460769" lon="3.425525">
<ele>73</ele>
<time>2013-05-08T18:21:18.000Z</time>
</trkpt>
<trkpt lat="43.460877" lon="3.425392">
<ele>72.6</ele>
<time>2013-05-08T18:21:19.000Z</time>
</trkpt>
<trkpt lat="43.460982" lon="3.425264">
<ele>72.2</ele>
<time>2013-05-08T18:21:20.000Z</time>
</trkpt>
<trkpt lat="43.461087" lon="3.425135">
<ele>71.9</ele>
<time>2013-05-08T18:21:21.000Z</time>
</trkpt>
<trkpt lat="43.461185" lon="3.425014">
<ele>71.7</ele>
<time>2013-05-08T18:21:22.000Z</time>
</trkpt>
<trkpt lat="43.461277" lon="3.424903">
<ele>71.6</ele>
<time>2013-05-08T18:21:23.000Z</time>
</trkpt>
<trkpt lat="43.461351" lon="3.424811">
<ele>71.5</ele>
<time>2013-05-08T18:21:24.000Z</time>
</trkpt>
<trkpt lat="43.461418" lon="3.424728">
<ele>71.4</ele>
<time>2013-05-08T18:21:25.000Z</time>
</trkpt>
<trkpt lat="43.461478" lon="3.424652">
<ele>71.3</ele>
<time>2013-05-08T18:21:26.000Z</time>
</trkpt>
<trkpt lat="43.461533" lon="3.424583">
<ele>71.5</ele>
<time>2013-05-08T18:21:27.000Z</time>
</trkpt>
<trkpt lat="43.461591" lon="3.424517">
<ele>71.6</ele>
<time>2013-05-08T18:21:28.000Z</time>
</trkpt>
<trkpt lat="43.461654" lon="3.424445">
<ele>71.7</ele>
<time>2013-05-08T18:21:29.000Z</time>
</trkpt>
<trkpt lat="43.461718" lon="3.424381">
<ele>71.7</ele>
<time>2013-05-08T18:21:30.000Z</time>
</trkpt>
<trkpt lat="43.46178" lon="3.424317">
<ele>72.1</ele>
<time>2013-05-08T18:21:31.000Z</time>
</trkpt>
<trkpt lat="43.461836" lon="3.424262">
<ele>72.6</ele>
<time>2013-05-08T18:21:32.000Z</time>
</trkpt>
<trkpt lat="43.461885" lon="3.424215">
<ele>73.2</ele>
<time>2013-05-08T18:21:33.000Z</time>
</trkpt>
<trkpt lat="43.461932" lon="3.424181">
<ele>73.7</ele>
<time>2013-05-08T18:21:34.000Z</time>
</trkpt>
<trkpt lat="43.461984" lon="3.424169">
<ele>74.2</ele>
<time>2013-05-08T18:21:35.000Z</time>
</trkpt>
<trkpt lat="43.462046" lon="3.42418">
<ele>74.8</ele>
<time>2013-05-08T18:21:36.000Z</time>
</trkpt>
<trkpt lat="43.462101" lon="3.424211">
<ele>75.5</ele>
<time>2013-05-08T18:21:37.000Z</time>
</trkpt>
<trkpt lat="43.462146" lon="3.424245">
<ele>75.7</ele>
<time>2013-05-08T18:21:38.000Z</time>
</trkpt>
<trkpt lat="43.462192" lon="3.424308">
<ele>75.7</ele>
<time>2013-05-08T18:21:39.000Z</time>
</trkpt>
<trkpt lat="43.462251" lon="3.424395">
<ele>75.5</ele>
<time>2013-05-08T18:21:40.000Z</time>
</trkpt>
<trkpt lat="43.462315" lon="3.424495">
<ele>75.4</ele>
<time>2013-05-08T18:21:41.000Z</time>
</trkpt>
<trkpt lat="43.462386" lon="3.424623">
<ele>75.2</ele>
<time>2013-05-08T18:21:42.000Z</time>
</trkpt>
<trkpt lat="43.462469" lon="3.424778">
<ele>75.2</ele>
<time>2013-05-08T18:21:43.000Z</time>
</trkpt>
<trkpt lat="43.462554" lon="3.424949">
<ele>75.4</ele>
<time>2013-05-08T18:21:44.000Z</time>
</trkpt>
<trkpt lat="43.462651" lon="3.425148">
<ele>75.9</ele>
<time>2013-05-08T18:21:45.000Z</time>
</trkpt>
<trkpt lat="43.462734" lon="3.425332">
<ele>76</ele>
<time>2013-05-08T18:21:46.000Z</time>
</trkpt>
<trkpt lat="43.462819" lon="3.425523">
<ele>75.9</ele>
<time>2013-05-08T18:21:47.000Z</time>
</trkpt>
<trkpt lat="43.462907" lon="3.425721">
<ele>75.8</ele>
<time>2013-05-08T18:21:48.000Z</time>
</trkpt>
<trkpt lat="43.462993" lon="3.425914">
<ele>75.7</ele>
<time>2013-05-08T18:21:49.000Z</time>
</trkpt>
<trkpt lat="43.463077" lon="3.426096">
<ele>75.5</ele>
<time>2013-05-08T18:21:50.000Z</time>
</trkpt>
<trkpt lat="43.463159" lon="3.426275">
<ele>75.1</ele>
<time>2013-05-08T18:21:51.000Z</time>
</trkpt>
<trkpt lat="43.46324" lon="3.426437">
<ele>74.3</ele>
<time>2013-05-08T18:21:52.000Z</time>
</trkpt>
<trkpt lat="43.463324" lon="3.426592">
<ele>73.4</ele>
<time>2013-05-08T18:21:53.000Z</time>
</trkpt>
<trkpt lat="43.463427" lon="3.426757">
<ele>72.6</ele>
<time>2013-05-08T18:21:54.000Z</time>
</trkpt>
<trkpt lat="43.463536" lon="3.426913">
<ele>72.1</ele>
<time>2013-05-08T18:21:55.000Z</time>
</trkpt>
<trkpt lat="43.46365" lon="3.427054">
<ele>71.8</ele>
<time>2013-05-08T18:21:56.000Z</time>
</trkpt>
<trkpt lat="43.463771" lon="3.427186">
<ele>71.4</ele>
<time>2013-05-08T18:21:57.000Z</time>
</trkpt>
<trkpt lat="43.463902" lon="3.427308">
<ele>70.9</ele>
<time>2013-05-08T18:21:58.000Z</time>
</trkpt>
<trkpt lat="43.464035" lon="3.427417">
<ele>70.6</ele>
<time>2013-05-08T18:21:59.000Z</time>
</trkpt>
<trkpt lat="43.464167" lon="3.427518">
<ele>70.2</ele>
<time>2013-05-08T18:22:00.000Z</time>
</trkpt>
<trkpt lat="43.464308" lon="3.427618">
<ele>70.2</ele>
<time>2013-05-08T18:22:01.000Z</time>
</trkpt>
<trkpt lat="43.464473" lon="3.427736">
<ele>70.6</ele>
<time>2013-05-08T18:22:02.000Z</time>
</trkpt>
<trkpt lat="43.464643" lon="3.427864">
<ele>70.9</ele>
<time>2013-05-08T18:22:03.000Z</time>
</trkpt>
<trkpt lat="43.464849" lon="3.42801">
<ele>70.9</ele>
<time>2013-05-08T18:22:04.000Z</time>
</trkpt>
<trkpt lat="43.46504" lon="3.428141">
<ele>71.5</ele>
<time>2013-05-08T18:22:05.000Z</time>
</trkpt>
<trkpt lat="43.465239" lon="3.428287">
<ele>72.2</ele>
<time>2013-05-08T18:22:06.000Z</time>
</trkpt>
<trkpt lat="43.465442" lon="3.428428">
<ele>72.6</ele>
<time>2013-05-08T18:22:07.000Z</time>
</trkpt>
<trkpt lat="43.465649" lon="3.42857">
<ele>72.3</ele>
<time>2013-05-08T18:22:08.000Z</time>
</trkpt>
<trkpt lat="43.465866" lon="3.42872">
<ele>72.3</ele>
<time>2013-05-08T18:22:09.000Z</time>
</trkpt>
<trkpt lat="43.466082" lon="3.428873">
<ele>72.3</ele>
<time>2013-05-08T18:22:10.000Z</time>
</trkpt>
<trkpt lat="43.466299" lon="3.42903">
<ele>72.1</ele>
<time>2013-05-08T18:22:11.000Z</time>
</trkpt>
<trkpt lat="43.466518" lon="3.429192">
<ele>72</ele>
<time>2013-05-08T18:22:12.000Z</time>
</trkpt>
<trkpt lat="43.466729" lon="3.42935">
<ele>71.9</ele>
<time>2013-05-08T18:22:13.000Z</time>
</trkpt>
<trkpt lat="43.466933" lon="3.429502">
<ele>71.8</ele>
<time>2013-05-08T18:22:14.000Z</time>
</trkpt>
<trkpt lat="43.467131" lon="3.429656">
<ele>71.5</ele>
<time>2013-05-08T18:22:15.000Z</time>
</trkpt>
<trkpt lat="43.467318" lon="3.429799">
<ele>71.1</ele>
<time>2013-05-08T18:22:16.000Z</time>
</trkpt>
<trkpt lat="43.46751" lon="3.429947">
<ele>70.9</ele>
<time>2013-05-08T18:22:17.000Z</time>
</trkpt>
<trkpt lat="43.4677" lon="3.430091">
<ele>70.6</ele>
<time>2013-05-08T18:22:18.000Z</time>
</trkpt>
<trkpt lat="43.467891" lon="3.430241">
<ele>70.4</ele>
<time>2013-05-08T18:22:19.000Z</time>
</trkpt>
<trkpt lat="43.468085" lon="3.430392">
<ele>70.4</ele>
<time>2013-05-08T18:22:20.000Z</time>
</trkpt>
<trkpt lat="43.468276" lon="3.430527">
<ele>70.5</ele>
<time>2013-05-08T18:22:21.000Z</time>
</trkpt>
<trkpt lat="43.468468" lon="3.430666">
<ele>70.6</ele>
<time>2013-05-08T18:22:22.000Z</time>
</trkpt>
<trkpt lat="43.468665" lon="3.430811">
<ele>71</ele>
<time>2013-05-08T18:22:23.000Z</time>
</trkpt>
<trkpt lat="43.468854" lon="3.430964">
<ele>71.3</ele>
<time>2013-05-08T18:22:24.000Z</time>
</trkpt>
<trkpt lat="43.469043" lon="3.431118">
<ele>71.4</ele>
<time>2013-05-08T18:22:25.000Z</time>
</trkpt>
<trkpt lat="43.46923" lon="3.431269">
<ele>71.5</ele>
<time>2013-05-08T18:22:26.000Z</time>
</trkpt>
<trkpt lat="43.46942" lon="3.431413">
<ele>71.4</ele>
<time>2013-05-08T18:22:27.000Z</time>
</trkpt>
<trkpt lat="43.469615" lon="3.431555">
<ele>71.3</ele>
<time>2013-05-08T18:22:28.000Z</time>
</trkpt>
<trkpt lat="43.469815" lon="3.431672">
<ele>71.3</ele>
<time>2013-05-08T18:22:29.000Z</time>
</trkpt>
<trkpt lat="43.470011" lon="3.431754">
<ele>71.3</ele>
<time>2013-05-08T18:22:30.000Z</time>
</trkpt>
<trkpt lat="43.470196" lon="3.431801">
<ele>71.1</ele>
<time>2013-05-08T18:22:31.000Z</time>
</trkpt>
<trkpt lat="43.470379" lon="3.431819">
<ele>70.9</ele>
<time>2013-05-08T18:22:32.000Z</time>
</trkpt>
<trkpt lat="43.470568" lon="3.431811">
<ele>71</ele>
<time>2013-05-08T18:22:33.000Z</time>
</trkpt>
<trkpt lat="43.470764" lon="3.431781">
<ele>70.9</ele>
<time>2013-05-08T18:22:34.000Z</time>
</trkpt>
<trkpt lat="43.470964" lon="3.431746">
<ele>70.7</ele>
<time>2013-05-08T18:22:35.000Z</time>
</trkpt>
<trkpt lat="43.471161" lon="3.431651">
<ele>70.6</ele>
<time>2013-05-08T18:22:36.000Z</time>
</trkpt>
<trkpt lat="43.471353" lon="3.431504">
<ele>70.9</ele>
<time>2013-05-08T18:22:37.000Z</time>
</trkpt>
<trkpt lat="43.471548" lon="3.431367">
<ele>71.3</ele>
<time>2013-05-08T18:22:38.000Z</time>
</trkpt>
<trkpt lat="43.471751" lon="3.431238">
<ele>71.9</ele>
<time>2013-05-08T18:22:39.000Z</time>
</trkpt>
<trkpt lat="43.471949" lon="3.431111">
<ele>72.4</ele>
<time>2013-05-08T18:22:40.000Z</time>
</trkpt>
<trkpt lat="43.472143" lon="3.43099">
<ele>72.7</ele>
<time>2013-05-08T18:22:41.000Z</time>
</trkpt>
<trkpt lat="43.472331" lon="3.430884">
<ele>73.1</ele>
<time>2013-05-08T18:22:42.000Z</time>
</trkpt>
<trkpt lat="43.472516" lon="3.430799">
<ele>73.5</ele>
<time>2013-05-08T18:22:43.000Z</time>
</trkpt>
<trkpt lat="43.472695" lon="3.430738">
<ele>73.8</ele>
<time>2013-05-08T18:22:44.000Z</time>
</trkpt>
<trkpt lat="43.472883" lon="3.430723">
<ele>74.5</ele>
<time>2013-05-08T18:22:45.000Z</time>
</trkpt>
<trkpt lat="43.473069" lon="3.430747">
<ele>75.3</ele>
<time>2013-05-08T18:22:46.000Z</time>
</trkpt>
<trkpt lat="43.473254" lon="3.430815">
<ele>75.9</ele>
<time>2013-05-08T18:22:47.000Z</time>
</trkpt>
<trkpt lat="43.473442" lon="3.430919">
<ele>76</ele>
<time>2013-05-08T18:22:48.000Z</time>
</trkpt>
<trkpt lat="43.473617" lon="3.431053">
<ele>75.9</ele>
<time>2013-05-08T18:22:49.000Z</time>
</trkpt>
<trkpt lat="43.473791" lon="3.431225">
<ele>76.1</ele>
<time>2013-05-08T18:22:50.000Z</time>
</trkpt>
<trkpt lat="43.473958" lon="3.431429">
<ele>76.4</ele>
<time>2013-05-08T18:22:51.000Z</time>
</trkpt>
<trkpt lat="43.47412" lon="3.431655">
<ele>76.4</ele>
<time>2013-05-08T18:22:52.000Z</time>
</trkpt>
<trkpt lat="43.474285" lon="3.431899">
<ele>76.2</ele>
<time>2013-05-08T18:22:53.000Z</time>
</trkpt>
<trkpt lat="43.47445" lon="3.432144">
<ele>76</ele>
<time>2013-05-08T18:22:54.000Z</time>
</trkpt>
<trkpt lat="43.474625" lon="3.432428">
<ele>75.9</ele>
<time>2013-05-08T18:22:55.000Z</time>
</trkpt>
<trkpt lat="43.474779" lon="3.432702">
<ele>75.2</ele>
<time>2013-05-08T18:22:56.000Z</time>
</trkpt>
<trkpt lat="43.474957" lon="3.432998">
<ele>74.5</ele>
<time>2013-05-08T18:22:57.000Z</time>
</trkpt>
<trkpt lat="43.475148" lon="3.433273">
<ele>74.4</ele>
<time>2013-05-08T18:22:58.000Z</time>
</trkpt>
<trkpt lat="43.475333" lon="3.433539">
<ele>74.5</ele>
<time>2013-05-08T18:22:59.000Z</time>
</trkpt>
<trkpt lat="43.475517" lon="3.433798">
<ele>74.8</ele>
<time>2013-05-08T18:23:00.000Z</time>
</trkpt>
<trkpt lat="43.47568" lon="3.434043">
<ele>74.8</ele>
<time>2013-05-08T18:23:01.000Z</time>
</trkpt>
<trkpt lat="43.475834" lon="3.434281">
<ele>74.7</ele>
<time>2013-05-08T18:23:02.000Z</time>
</trkpt>
<trkpt lat="43.475973" lon="3.4345">
<ele>74.6</ele>
<time>2013-05-08T18:23:03.000Z</time>
</trkpt>
<trkpt lat="43.476085" lon="3.434702">
<ele>74.4</ele>
<time>2013-05-08T18:23:04.000Z</time>
</trkpt>
<trkpt lat="43.47617" lon="3.43489">
<ele>74.2</ele>
<time>2013-05-08T18:23:05.000Z</time>
</trkpt>
<trkpt lat="43.476245" lon="3.43507">
<ele>74.2</ele>
<time>2013-05-08T18:23:06.000Z</time>
</trkpt>
<trkpt lat="43.476306" lon="3.435241">
<ele>74.4</ele>
<time>2013-05-08T18:23:07.000Z</time>
</trkpt>
<trkpt lat="43.476357" lon="3.435398">
<ele>74.6</ele>
<time>2013-05-08T18:23:08.000Z</time>
</trkpt>
<trkpt lat="43.476379" lon="3.435544">
<ele>74.7</ele>
<time>2013-05-08T18:23:09.000Z</time>
</trkpt>
<trkpt lat="43.476368" lon="3.435689">
<ele>74.7</ele>
<time>2013-05-08T18:23:10.000Z</time>
</trkpt>
<trkpt lat="43.47635" lon="3.435816">
<ele>75</ele>
<time>2013-05-08T18:23:11.000Z</time>
</trkpt>
<trkpt lat="43.476325" lon="3.435949">
<ele>75.1</ele>
<time>2013-05-08T18:23:12.000Z</time>
</trkpt>
<trkpt lat="43.476293" lon="3.436067">
<ele>74.9</ele>
<time>2013-05-08T18:23:13.000Z</time>
</trkpt>
<trkpt lat="43.476293" lon="3.436184">
<ele>74.5</ele>
<time>2013-05-08T18:23:14.000Z</time>
</trkpt>
<trkpt lat="43.476307" lon="3.436324">
<ele>73.9</ele>
<time>2013-05-08T18:23:15.000Z</time>
</trkpt>
<trkpt lat="43.476331" lon="3.43648">
<ele>73.6</ele>
<time>2013-05-08T18:23:16.000Z</time>
</trkpt>
<trkpt lat="43.476351" lon="3.436655">
<ele>73</ele>
<time>2013-05-08T18:23:17.000Z</time>
</trkpt>
<trkpt lat="43.476333" lon="3.436843">
<ele>72.4</ele>
<time>2013-05-08T18:23:18.000Z</time>
</trkpt>
<trkpt lat="43.476316" lon="3.437014">
<ele>71.5</ele>
<time>2013-05-08T18:23:19.000Z</time>
</trkpt>
<trkpt lat="43.476301" lon="3.4372">
<ele>70.9</ele>
<time>2013-05-08T18:23:20.000Z</time>
</trkpt>
<trkpt lat="43.476284" lon="3.437385">
<ele>70.6</ele>
<time>2013-05-08T18:23:21.000Z</time>
</trkpt>
<trkpt lat="43.476266" lon="3.437558">
<ele>70.1</ele>
<time>2013-05-08T18:23:22.000Z</time>
</trkpt>
<trkpt lat="43.476228" lon="3.437708">
<ele>69.6</ele>
<time>2013-05-08T18:23:23.000Z</time>
</trkpt>
<trkpt lat="43.476172" lon="3.437837">
<ele>69.7</ele>
<time>2013-05-08T18:23:24.000Z</time>
</trkpt>
<trkpt lat="43.476092" lon="3.43793">
<ele>69.3</ele>
<time>2013-05-08T18:23:25.000Z</time>
</trkpt>
<trkpt lat="43.476005" lon="3.438022">
<ele>69.3</ele>
<time>2013-05-08T18:23:26.000Z</time>
</trkpt>
<trkpt lat="43.475939" lon="3.438129">
<ele>69.3</ele>
<time>2013-05-08T18:23:27.000Z</time>
</trkpt>
<trkpt lat="43.475914" lon="3.438246">
<ele>69.5</ele>
<time>2013-05-08T18:23:28.000Z</time>
</trkpt>
<trkpt lat="43.475915" lon="3.438369">
<ele>69.9</ele>
<time>2013-05-08T18:23:29.000Z</time>
</trkpt>
<trkpt lat="43.475928" lon="3.438509">
<ele>70.4</ele>
<time>2013-05-08T18:23:30.000Z</time>
</trkpt>
<trkpt lat="43.475946" lon="3.438689">
<ele>71.1</ele>
<time>2013-05-08T18:23:31.000Z</time>
</trkpt>
<trkpt lat="43.475954" lon="3.438891">
<ele>71.3</ele>
<time>2013-05-08T18:23:32.000Z</time>
</trkpt>
<trkpt lat="43.475919" lon="3.439118">
<ele>71.4</ele>
<time>2013-05-08T18:23:33.000Z</time>
</trkpt>
<trkpt lat="43.475882" lon="3.43937">
<ele>71.5</ele>
<time>2013-05-08T18:23:34.000Z</time>
</trkpt>
<trkpt lat="43.475839" lon="3.43964">
<ele>71.5</ele>
<time>2013-05-08T18:23:35.000Z</time>
</trkpt>
<trkpt lat="43.475792" lon="3.439936">
<ele>71.4</ele>
<time>2013-05-08T18:23:36.000Z</time>
</trkpt>
<trkpt lat="43.475732" lon="3.440242">
<ele>71.6</ele>
<time>2013-05-08T18:23:37.000Z</time>
</trkpt>
<trkpt lat="43.475669" lon="3.440554">
<ele>71.8</ele>
<time>2013-05-08T18:23:38.000Z</time>
</trkpt>
<trkpt lat="43.475602" lon="3.440876">
<ele>72.1</ele>
<time>2013-05-08T18:23:39.000Z</time>
</trkpt>
<trkpt lat="43.475535" lon="3.441205">
<ele>72.4</ele>
<time>2013-05-08T18:23:40.000Z</time>
</trkpt>
<trkpt lat="43.47547" lon="3.441531">
<ele>72.8</ele>
<time>2013-05-08T18:23:41.000Z</time>
</trkpt>
<trkpt lat="43.47541" lon="3.441866">
<ele>72.6</ele>
<time>2013-05-08T18:23:42.000Z</time>
</trkpt>
<trkpt lat="43.475351" lon="3.442196">
<ele>72.5</ele>
<time>2013-05-08T18:23:43.000Z</time>
</trkpt>
<trkpt lat="43.475293" lon="3.442528">
<ele>72.2</ele>
<time>2013-05-08T18:23:44.000Z</time>
</trkpt>
<trkpt lat="43.475235" lon="3.442858">
<ele>72.1</ele>
<time>2013-05-08T18:23:45.000Z</time>
</trkpt>
<trkpt lat="43.475177" lon="3.443179">
<ele>72.1</ele>
<time>2013-05-08T18:23:46.000Z</time>
</trkpt>
<trkpt lat="43.475117" lon="3.443502">
<ele>72.1</ele>
<time>2013-05-08T18:23:47.000Z</time>
</trkpt>
<trkpt lat="43.475055" lon="3.443832">
<ele>72.1</ele>
<time>2013-05-08T18:23:48.000Z</time>
</trkpt>
<trkpt lat="43.474995" lon="3.444154">
<ele>72.3</ele>
<time>2013-05-08T18:23:49.000Z</time>
</trkpt>
<trkpt lat="43.474941" lon="3.444475">
<ele>72.5</ele>
<time>2013-05-08T18:23:50.000Z</time>
</trkpt>
<trkpt lat="43.474889" lon="3.444809">
<ele>72.7</ele>
<time>2013-05-08T18:23:51.000Z</time>
</trkpt>
<trkpt lat="43.474837" lon="3.445144">
<ele>72.7</ele>
<time>2013-05-08T18:23:52.000Z</time>
</trkpt>
<trkpt lat="43.474786" lon="3.445465">
<ele>72.8</ele>
<time>2013-05-08T18:23:53.000Z</time>
</trkpt>
<trkpt lat="43.474734" lon="3.445788">
<ele>72.7</ele>
<time>2013-05-08T18:23:54.000Z</time>
</trkpt>
<trkpt lat="43.474674" lon="3.446116">
<ele>72.5</ele>
<time>2013-05-08T18:23:55.000Z</time>
</trkpt>
<trkpt lat="43.474612" lon="3.446448">
<ele>72.2</ele>
<time>2013-05-08T18:23:56.000Z</time>
</trkpt>
<trkpt lat="43.474545" lon="3.446784">
<ele>71.9</ele>
<time>2013-05-08T18:23:57.000Z</time>
</trkpt>
<trkpt lat="43.474476" lon="3.447129">
<ele>71.4</ele>
<time>2013-05-08T18:23:58.000Z</time>
</trkpt>
<trkpt lat="43.474405" lon="3.447482">
<ele>70.9</ele>
<time>2013-05-08T18:23:59.000Z</time>
</trkpt>
<trkpt lat="43.474332" lon="3.447844">
<ele>70.7</ele>
<time>2013-05-08T18:24:00.000Z</time>
</trkpt>
<trkpt lat="43.474258" lon="3.448203">
<ele>70.5</ele>
<time>2013-05-08T18:24:01.000Z</time>
</trkpt>
<trkpt lat="43.474183" lon="3.448558">
<ele>70.4</ele>
<time>2013-05-08T18:24:02.000Z</time>
</trkpt>
<trkpt lat="43.474105" lon="3.448914">
<ele>70.5</ele>
<time>2013-05-08T18:24:03.000Z</time>
</trkpt>
<trkpt lat="43.474031" lon="3.44926">
<ele>70.6</ele>
<time>2013-05-08T18:24:04.000Z</time>
</trkpt>
<trkpt lat="43.473964" lon="3.449591">
<ele>70.6</ele>
<time>2013-05-08T18:24:05.000Z</time>
</trkpt>
<trkpt lat="43.4739" lon="3.449911">
<ele>70.5</ele>
<time>2013-05-08T18:24:06.000Z</time>
</trkpt>
<trkpt lat="43.473839" lon="3.450217">
<ele>70.3</ele>
<time>2013-05-08T18:24:07.000Z</time>
</trkpt>
<trkpt lat="43.473778" lon="3.450515">
<ele>70.1</ele>
<time>2013-05-08T18:24:08.000Z</time>
</trkpt>
<trkpt lat="43.473725" lon="3.450801">
<ele>70</ele>
<time>2013-05-08T18:24:09.000Z</time>
</trkpt>
<trkpt lat="43.473682" lon="3.451083">
<ele>70.1</ele>
<time>2013-05-08T18:24:10.000Z</time>
</trkpt>
<trkpt lat="43.473644" lon="3.451359">
<ele>70</ele>
<time>2013-05-08T18:24:11.000Z</time>
</trkpt>
<trkpt lat="43.473607" lon="3.451628">
<ele>69.9</ele>
<time>2013-05-08T18:24:12.000Z</time>
</trkpt>
<trkpt lat="43.47363" lon="3.451923">
<ele>70.3</ele>
<time>2013-05-08T18:24:13.000Z</time>
</trkpt>
<trkpt lat="43.473693" lon="3.452199">
<ele>70.5</ele>
<time>2013-05-08T18:24:14.000Z</time>
</trkpt>
<trkpt lat="43.473756" lon="3.452482">
<ele>70.1</ele>
<time>2013-05-08T18:24:15.000Z</time>
</trkpt>
<trkpt lat="43.473884" lon="3.452732">
<ele>69.2</ele>
<time>2013-05-08T18:24:16.000Z</time>
</trkpt>
<trkpt lat="43.474034" lon="3.452945">
<ele>67.8</ele>
<time>2013-05-08T18:24:17.000Z</time>
</trkpt>
<trkpt lat="43.474199" lon="3.453151">
<ele>67.1</ele>
<time>2013-05-08T18:24:18.000Z</time>
</trkpt>
<trkpt lat="43.474382" lon="3.45338">
<ele>66</ele>
<time>2013-05-08T18:24:19.000Z</time>
</trkpt>
<trkpt lat="43.474585" lon="3.453614">
<ele>65.2</ele>
<time>2013-05-08T18:24:20.000Z</time>
</trkpt>
<trkpt lat="43.474804" lon="3.453868">
<ele>65.9</ele>
<time>2013-05-08T18:24:21.000Z</time>
</trkpt>
<trkpt lat="43.475009" lon="3.454117">
<ele>66.6</ele>
<time>2013-05-08T18:24:22.000Z</time>
</trkpt>
<trkpt lat="43.475214" lon="3.454369">
<ele>67.2</ele>
<time>2013-05-08T18:24:23.000Z</time>
</trkpt>
<trkpt lat="43.475427" lon="3.454629">
<ele>67.8</ele>
<time>2013-05-08T18:24:24.000Z</time>
</trkpt>
<trkpt lat="43.475641" lon="3.454896">
<ele>68.6</ele>
<time>2013-05-08T18:24:25.000Z</time>
</trkpt>
<trkpt lat="43.475849" lon="3.455155">
<ele>69.3</ele>
<time>2013-05-08T18:24:26.000Z</time>
</trkpt>
<trkpt lat="43.476044" lon="3.455404">
<ele>69.6</ele>
<time>2013-05-08T18:24:27.000Z</time>
</trkpt>
<trkpt lat="43.47624" lon="3.455652">
<ele>69.9</ele>
<time>2013-05-08T18:24:28.000Z</time>
</trkpt>
<trkpt lat="43.476434" lon="3.455889">
<ele>70.4</ele>
<time>2013-05-08T18:24:29.000Z</time>
</trkpt>
<trkpt lat="43.476622" lon="3.456122">
<ele>70.8</ele>
<time>2013-05-08T18:24:30.000Z</time>
</trkpt>
<trkpt lat="43.476805" lon="3.456349">
<ele>71.1</ele>
<time>2013-05-08T18:24:31.000Z</time>
</trkpt>
<trkpt lat="43.476983" lon="3.456569">
<ele>71.5</ele>
<time>2013-05-08T18:24:32.000Z</time>
</trkpt>
<trkpt lat="43.477152" lon="3.456782">
<ele>71.8</ele>
<time>2013-05-08T18:24:33.000Z</time>
</trkpt>
<trkpt lat="43.477318" lon="3.456989">
<ele>72.2</ele>
<time>2013-05-08T18:24:34.000Z</time>
</trkpt>
<trkpt lat="43.477472" lon="3.457182">
<ele>72.5</ele>
<time>2013-05-08T18:24:35.000Z</time>
</trkpt>
<trkpt lat="43.47762" lon="3.457371">
<ele>72.8</ele>
<time>2013-05-08T18:24:36.000Z</time>
</trkpt>
<trkpt lat="43.477772" lon="3.457559">
<ele>73</ele>
<time>2013-05-08T18:24:37.000Z</time>
</trkpt>
<trkpt lat="43.477911" lon="3.457746">
<ele>73.2</ele>
<time>2013-05-08T18:24:38.000Z</time>
</trkpt>
<trkpt lat="43.478035" lon="3.457955">
<ele>73.4</ele>
<time>2013-05-08T18:24:39.000Z</time>
</trkpt>
<trkpt lat="43.47816" lon="3.458171">
<ele>73.5</ele>
<time>2013-05-08T18:24:40.000Z</time>
</trkpt>
<trkpt lat="43.478251" lon="3.458406">
<ele>73.4</ele>
<time>2013-05-08T18:24:41.000Z</time>
</trkpt>
<trkpt lat="43.478332" lon="3.45866">
<ele>73.9</ele>
<time>2013-05-08T18:24:42.000Z</time>
</trkpt>
<trkpt lat="43.478407" lon="3.458924">
<ele>74.4</ele>
<time>2013-05-08T18:24:43.000Z</time>
</trkpt>
<trkpt lat="43.47846" lon="3.459214">
<ele>74.8</ele>
<time>2013-05-08T18:24:44.000Z</time>
</trkpt>
<trkpt lat="43.478494" lon="3.459532">
<ele>75</ele>
<time>2013-05-08T18:24:45.000Z</time>
</trkpt>
<trkpt lat="43.478516" lon="3.459859">
<ele>75.1</ele>
<time>2013-05-08T18:24:46.000Z</time>
</trkpt>
<trkpt lat="43.478533" lon="3.460182">
<ele>75.2</ele>
<time>2013-05-08T18:24:47.000Z</time>
</trkpt>
<trkpt lat="43.478555" lon="3.460501">
<ele>74.9</ele>
<time>2013-05-08T18:24:48.000Z</time>
</trkpt>
<trkpt lat="43.478582" lon="3.460825">
<ele>74.3</ele>
<time>2013-05-08T18:24:49.000Z</time>
</trkpt>
<trkpt lat="43.478609" lon="3.461128">
<ele>74.5</ele>
<time>2013-05-08T18:24:50.000Z</time>
</trkpt>
<trkpt lat="43.478633" lon="3.461439">
<ele>73.9</ele>
<time>2013-05-08T18:24:51.000Z</time>
</trkpt>
<trkpt lat="43.478664" lon="3.461739">
<ele>73.1</ele>
<time>2013-05-08T18:24:52.000Z</time>
</trkpt>
<trkpt lat="43.4787" lon="3.462067">
<ele>72.9</ele>
<time>2013-05-08T18:24:53.000Z</time>
</trkpt>
<trkpt lat="43.478741" lon="3.462394">
<ele>72.6</ele>
<time>2013-05-08T18:24:54.000Z</time>
</trkpt>
<trkpt lat="43.478768" lon="3.462731">
<ele>73</ele>
<time>2013-05-08T18:24:55.000Z</time>
</trkpt>
<trkpt lat="43.478813" lon="3.463076">
<ele>73.2</ele>
<time>2013-05-08T18:24:56.000Z</time>
</trkpt>
<trkpt lat="43.478849" lon="3.463442">
<ele>72.6</ele>
<time>2013-05-08T18:24:57.000Z</time>
</trkpt>
<trkpt lat="43.478898" lon="3.46382">
<ele>71.4</ele>
<time>2013-05-08T18:24:58.000Z</time>
</trkpt>
<trkpt lat="43.478961" lon="3.464192">
<ele>70.5</ele>
<time>2013-05-08T18:24:59.000Z</time>
</trkpt>
<trkpt lat="43.479035" lon="3.464581">
<ele>70.7</ele>
<time>2013-05-08T18:25:00.000Z</time>
</trkpt>
<trkpt lat="43.479107" lon="3.464961">
<ele>71.2</ele>
<time>2013-05-08T18:25:01.000Z</time>
</trkpt>
<trkpt lat="43.479179" lon="3.465337">
<ele>71.4</ele>
<time>2013-05-08T18:25:02.000Z</time>
</trkpt>
<trkpt lat="43.479253" lon="3.465724">
<ele>71.6</ele>
<time>2013-05-08T18:25:03.000Z</time>
</trkpt>
<trkpt lat="43.479327" lon="3.466106">
<ele>71.6</ele>
<time>2013-05-08T18:25:04.000Z</time>
</trkpt>
<trkpt lat="43.4794" lon="3.466486">
<ele>71.6</ele>
<time>2013-05-08T18:25:05.000Z</time>
</trkpt>
<trkpt lat="43.479459" lon="3.466874">
<ele>71.6</ele>
<time>2013-05-08T18:25:06.000Z</time>
</trkpt>
<trkpt lat="43.479541" lon="3.467249">
<ele>71.6</ele>
<time>2013-05-08T18:25:07.000Z</time>
</trkpt>
<trkpt lat="43.479619" lon="3.467636">
<ele>71.8</ele>
<time>2013-05-08T18:25:08.000Z</time>
</trkpt>
<trkpt lat="43.479696" lon="3.468009">
<ele>71.7</ele>
<time>2013-05-08T18:25:09.000Z</time>
</trkpt>
<trkpt lat="43.479774" lon="3.468386">
<ele>71.7</ele>
<time>2013-05-08T18:25:10.000Z</time>
</trkpt>
<trkpt lat="43.479853" lon="3.46876">
<ele>71.3</ele>
<time>2013-05-08T18:25:11.000Z</time>
</trkpt>
<trkpt lat="43.47993" lon="3.469128">
<ele>71.1</ele>
<time>2013-05-08T18:25:12.000Z</time>
</trkpt>
<trkpt lat="43.480004" lon="3.469478">
<ele>71.3</ele>
<time>2013-05-08T18:25:13.000Z</time>
</trkpt>
<trkpt lat="43.480079" lon="3.469823">
<ele>71.7</ele>
<time>2013-05-08T18:25:14.000Z</time>
</trkpt>
<trkpt lat="43.480158" lon="3.470173">
<ele>72.3</ele>
<time>2013-05-08T18:25:15.000Z</time>
</trkpt>
<trkpt lat="43.480241" lon="3.470537">
<ele>73.2</ele>
<time>2013-05-08T18:25:16.000Z</time>
</trkpt>
<trkpt lat="43.480314" lon="3.470888">
<ele>73.8</ele>
<time>2013-05-08T18:25:17.000Z</time>
</trkpt>
<trkpt lat="43.480391" lon="3.47123">
<ele>74.2</ele>
<time>2013-05-08T18:25:18.000Z</time>
</trkpt>
<trkpt lat="43.480464" lon="3.471563">
<ele>74.4</ele>
<time>2013-05-08T18:25:19.000Z</time>
</trkpt>
<trkpt lat="43.480526" lon="3.471894">
<ele>74.2</ele>
<time>2013-05-08T18:25:20.000Z</time>
</trkpt>
<trkpt lat="43.480578" lon="3.472257">
<ele>74.3</ele>
<time>2013-05-08T18:25:21.000Z</time>
</trkpt>
<trkpt lat="43.48063" lon="3.472642">
<ele>74.5</ele>
<time>2013-05-08T18:25:22.000Z</time>
</trkpt>
<trkpt lat="43.480681" lon="3.473042">
<ele>74.9</ele>
<time>2013-05-08T18:25:23.000Z</time>
</trkpt>
<trkpt lat="43.480727" lon="3.473449">
<ele>75.6</ele>
<time>2013-05-08T18:25:24.000Z</time>
</trkpt>
<trkpt lat="43.480767" lon="3.473857">
<ele>76.1</ele>
<time>2013-05-08T18:25:25.000Z</time>
</trkpt>
<trkpt lat="43.480806" lon="3.474257">
<ele>76.8</ele>
<time>2013-05-08T18:25:26.000Z</time>
</trkpt>
<trkpt lat="43.480846" lon="3.474651">
<ele>77.4</ele>
<time>2013-05-08T18:25:27.000Z</time>
</trkpt>
<trkpt lat="43.480884" lon="3.475028">
<ele>77.9</ele>
<time>2013-05-08T18:25:28.000Z</time>
</trkpt>
<trkpt lat="43.480923" lon="3.475395">
<ele>78.8</ele>
<time>2013-05-08T18:25:29.000Z</time>
</trkpt>
<trkpt lat="43.480967" lon="3.475767">
<ele>79.5</ele>
<time>2013-05-08T18:25:30.000Z</time>
</trkpt>
<trkpt lat="43.481006" lon="3.476104">
<ele>80.4</ele>
<time>2013-05-08T18:25:31.000Z</time>
</trkpt>
<trkpt lat="43.481043" lon="3.476438">
<ele>81.3</ele>
<time>2013-05-08T18:25:32.000Z</time>
</trkpt>
<trkpt lat="43.48108" lon="3.476754">
<ele>82.2</ele>
<time>2013-05-08T18:25:33.000Z</time>
</trkpt>
<trkpt lat="43.481115" lon="3.477053">
<ele>82.9</ele>
<time>2013-05-08T18:25:34.000Z</time>
</trkpt>
<trkpt lat="43.48115" lon="3.477345">
<ele>83.6</ele>
<time>2013-05-08T18:25:35.000Z</time>
</trkpt>
<trkpt lat="43.481183" lon="3.477612">
<ele>84.1</ele>
<time>2013-05-08T18:25:36.000Z</time>
</trkpt>
<trkpt lat="43.48122" lon="3.477879">
<ele>84.6</ele>
<time>2013-05-08T18:25:37.000Z</time>
</trkpt>
<trkpt lat="43.481255" lon="3.478127">
<ele>85</ele>
<time>2013-05-08T18:25:38.000Z</time>
</trkpt>
<trkpt lat="43.481288" lon="3.478362">
<ele>85.7</ele>
<time>2013-05-08T18:25:39.000Z</time>
</trkpt>
<trkpt lat="43.481318" lon="3.478586">
<ele>86.9</ele>
<time>2013-05-08T18:25:40.000Z</time>
</trkpt>
<trkpt lat="43.481349" lon="3.47881">
<ele>87.8</ele>
<time>2013-05-08T18:25:41.000Z</time>
</trkpt>
<trkpt lat="43.481372" lon="3.479017">
<ele>88.8</ele>
<time>2013-05-08T18:25:42.000Z</time>
</trkpt>
<trkpt lat="43.48139" lon="3.479223">
<ele>89.9</ele>
<time>2013-05-08T18:25:43.000Z</time>
</trkpt>
<trkpt lat="43.481403" lon="3.479402">
<ele>90.6</ele>
<time>2013-05-08T18:25:44.000Z</time>
</trkpt>
<trkpt lat="43.481417" lon="3.479557">
<ele>91.3</ele>
<time>2013-05-08T18:25:45.000Z</time>
</trkpt>
<trkpt lat="43.48143" lon="3.479685">
<ele>91.9</ele>
<time>2013-05-08T18:25:46.000Z</time>
</trkpt>
<trkpt lat="43.481439" lon="3.479794">
<ele>92.3</ele>
<time>2013-05-08T18:25:47.000Z</time>
</trkpt>
<trkpt lat="43.481444" lon="3.479882">
<ele>92.7</ele>
<time>2013-05-08T18:25:48.000Z</time>
</trkpt>
<trkpt lat="43.481444" lon="3.479957">
<ele>93</ele>
<time>2013-05-08T18:25:49.000Z</time>
</trkpt>
<trkpt lat="43.481444" lon="3.480021">
<ele>93.1</ele>
<time>2013-05-08T18:25:50.000Z</time>
</trkpt>
<trkpt lat="43.481443" lon="3.480074">
<ele>93</ele>
<time>2013-05-08T18:25:51.000Z</time>
</trkpt>
<trkpt lat="43.48144" lon="3.48011">
<ele>93</ele>
<time>2013-05-08T18:25:52.000Z</time>
</trkpt>
<trkpt lat="43.481437" lon="3.480127">
<ele>93</ele>
<time>2013-05-08T18:26:12.000Z</time>
</trkpt>
<trkpt lat="43.481434" lon="3.480174">
<ele>92.9</ele>
<time>2013-05-08T18:26:13.000Z</time>
</trkpt>
<trkpt lat="43.481442" lon="3.48024">
<ele>92.3</ele>
<time>2013-05-08T18:26:14.000Z</time>
</trkpt>
<trkpt lat="43.481451" lon="3.480329">
<ele>91.7</ele>
<time>2013-05-08T18:26:15.000Z</time>
</trkpt>
<trkpt lat="43.48146" lon="3.480443">
<ele>91.2</ele>
<time>2013-05-08T18:26:16.000Z</time>
</trkpt>
<trkpt lat="43.481466" lon="3.480559">
<ele>91</ele>
<time>2013-05-08T18:26:17.000Z</time>
</trkpt>
<trkpt lat="43.48147" lon="3.480681">
<ele>90.7</ele>
<time>2013-05-08T18:26:18.000Z</time>
</trkpt>
<trkpt lat="43.481447" lon="3.480801">
<ele>90.5</ele>
<time>2013-05-08T18:26:19.000Z</time>
</trkpt>
<trkpt lat="43.481423" lon="3.480925">
<ele>90.3</ele>
<time>2013-05-08T18:26:20.000Z</time>
</trkpt>
<trkpt lat="43.481395" lon="3.481048">
<ele>90.1</ele>
<time>2013-05-08T18:26:21.000Z</time>
</trkpt>
<trkpt lat="43.48136" lon="3.481178">
<ele>90.1</ele>
<time>2013-05-08T18:26:22.000Z</time>
</trkpt>
<trkpt lat="43.481321" lon="3.481306">
<ele>90.4</ele>
<time>2013-05-08T18:26:23.000Z</time>
</trkpt>
<trkpt lat="43.481279" lon="3.481428">
<ele>90.9</ele>
<time>2013-05-08T18:26:24.000Z</time>
</trkpt>
<trkpt lat="43.481239" lon="3.481544">
<ele>91.5</ele>
<time>2013-05-08T18:26:25.000Z</time>
</trkpt>
<trkpt lat="43.481194" lon="3.481664">
<ele>92</ele>
<time>2013-05-08T18:26:26.000Z</time>
</trkpt>
<trkpt lat="43.481146" lon="3.481786">
<ele>92.4</ele>
<time>2013-05-08T18:26:27.000Z</time>
</trkpt>
<trkpt lat="43.481097" lon="3.481911">
<ele>92.7</ele>
<time>2013-05-08T18:26:28.000Z</time>
</trkpt>
<trkpt lat="43.481049" lon="3.482033">
<ele>92.9</ele>
<time>2013-05-08T18:26:29.000Z</time>
</trkpt>
<trkpt lat="43.481001" lon="3.482145">
<ele>93.1</ele>
<time>2013-05-08T18:26:30.000Z</time>
</trkpt>
<trkpt lat="43.480954" lon="3.482254">
<ele>93.2</ele>
<time>2013-05-08T18:26:31.000Z</time>
</trkpt>
<trkpt lat="43.48091" lon="3.48235">
<ele>93.5</ele>
<time>2013-05-08T18:26:32.000Z</time>
</trkpt>
<trkpt lat="43.480875" lon="3.482439">
<ele>93.7</ele>
<time>2013-05-08T18:26:33.000Z</time>
</trkpt>
<trkpt lat="43.480845" lon="3.48252">
<ele>93.9</ele>
<time>2013-05-08T18:26:34.000Z</time>
</trkpt>
<trkpt lat="43.480818" lon="3.48259">
<ele>93.8</ele>
<time>2013-05-08T18:26:35.000Z</time>
</trkpt>
<trkpt lat="43.480798" lon="3.482645">
<ele>93.7</ele>
<time>2013-05-08T18:26:36.000Z</time>
</trkpt>
<trkpt lat="43.48078" lon="3.482692">
<ele>93.7</ele>
<time>2013-05-08T18:26:37.000Z</time>
</trkpt>
<trkpt lat="43.480763" lon="3.482731">
<ele>93.6</ele>
<time>2013-05-08T18:26:38.000Z</time>
</trkpt>
<trkpt lat="43.480749" lon="3.482763">
<ele>93.6</ele>
<time>2013-05-08T18:26:39.000Z</time>
</trkpt>
<trkpt lat="43.480722" lon="3.482808">
<ele>93.6</ele>
<time>2013-05-08T18:26:42.000Z</time>
</trkpt>
<trkpt lat="43.480713" lon="3.482825">
<ele>93.6</ele>
<time>2013-05-08T18:26:43.000Z</time>
</trkpt>
<trkpt lat="43.480703" lon="3.48286">
<ele>93.7</ele>
<time>2013-05-08T18:26:44.000Z</time>
</trkpt>
<trkpt lat="43.480684" lon="3.482919">
<ele>94.3</ele>
<time>2013-05-08T18:26:45.000Z</time>
</trkpt>
<trkpt lat="43.480659" lon="3.482995">
<ele>94.9</ele>
<time>2013-05-08T18:26:46.000Z</time>
</trkpt>
<trkpt lat="43.480631" lon="3.483079">
<ele>95.5</ele>
<time>2013-05-08T18:26:47.000Z</time>
</trkpt>
<trkpt lat="43.480621" lon="3.483172">
<ele>96.2</ele>
<time>2013-05-08T18:26:48.000Z</time>
</trkpt>
<trkpt lat="43.480639" lon="3.483272">
<ele>96.7</ele>
<time>2013-05-08T18:26:49.000Z</time>
</trkpt>
<trkpt lat="43.480685" lon="3.483356">
<ele>97.1</ele>
<time>2013-05-08T18:26:50.000Z</time>
</trkpt>
<trkpt lat="43.480734" lon="3.48344">
<ele>97.4</ele>
<time>2013-05-08T18:26:51.000Z</time>
</trkpt>
<trkpt lat="43.480783" lon="3.48352">
<ele>97.6</ele>
<time>2013-05-08T18:26:52.000Z</time>
</trkpt>
<trkpt lat="43.480833" lon="3.483615">
<ele>98.1</ele>
<time>2013-05-08T18:26:53.000Z</time>
</trkpt>
<trkpt lat="43.480842" lon="3.483745">
<ele>98.4</ele>
<time>2013-05-08T18:26:54.000Z</time>
</trkpt>
<trkpt lat="43.480849" lon="3.483889">
<ele>98.7</ele>
<time>2013-05-08T18:26:55.000Z</time>
</trkpt>
<trkpt lat="43.48085" lon="3.484045">
<ele>98.5</ele>
<time>2013-05-08T18:26:56.000Z</time>
</trkpt>
<trkpt lat="43.48082" lon="3.4842">
<ele>98.3</ele>
<time>2013-05-08T18:26:57.000Z</time>
</trkpt>
<trkpt lat="43.480788" lon="3.484358">
<ele>98.5</ele>
<time>2013-05-08T18:26:58.000Z</time>
</trkpt>
<trkpt lat="43.480756" lon="3.484494">
<ele>98.7</ele>
<time>2013-05-08T18:26:59.000Z</time>
</trkpt>
<trkpt lat="43.48072" lon="3.484615">
<ele>98.6</ele>
<time>2013-05-08T18:27:00.000Z</time>
</trkpt>
<trkpt lat="43.480686" lon="3.484711">
<ele>98.9</ele>
<time>2013-05-08T18:27:01.000Z</time>
</trkpt>
<trkpt lat="43.480636" lon="3.484796">
<ele>99.2</ele>
<time>2013-05-08T18:27:02.000Z</time>
</trkpt>
<trkpt lat="43.480587" lon="3.484879">
<ele>99.5</ele>
<time>2013-05-08T18:27:03.000Z</time>
</trkpt>
<trkpt lat="43.480538" lon="3.484964">
<ele>99.9</ele>
<time>2013-05-08T18:27:04.000Z</time>
</trkpt>
<trkpt lat="43.480481" lon="3.485054">
<ele>100.4</ele>
<time>2013-05-08T18:27:05.000Z</time>
</trkpt>
<trkpt lat="43.480408" lon="3.485153">
<ele>100.7</ele>
<time>2013-05-08T18:27:06.000Z</time>
</trkpt>
<trkpt lat="43.480324" lon="3.485258">
<ele>101.1</ele>
<time>2013-05-08T18:27:07.000Z</time>
</trkpt>
<trkpt lat="43.480226" lon="3.485364">
<ele>101.5</ele>
<time>2013-05-08T18:27:08.000Z</time>
</trkpt>
<trkpt lat="43.480116" lon="3.485471">
<ele>101.7</ele>
<time>2013-05-08T18:27:09.000Z</time>
</trkpt>
<trkpt lat="43.479998" lon="3.485578">
<ele>101.8</ele>
<time>2013-05-08T18:27:10.000Z</time>
</trkpt>
<trkpt lat="43.479865" lon="3.485689">
<ele>101.6</ele>
<time>2013-05-08T18:27:11.000Z</time>
</trkpt>
<trkpt lat="43.479731" lon="3.485801">
<ele>101.3</ele>
<time>2013-05-08T18:27:12.000Z</time>
</trkpt>
<trkpt lat="43.479591" lon="3.48591">
<ele>101</ele>
<time>2013-05-08T18:27:13.000Z</time>
</trkpt>
<trkpt lat="43.479452" lon="3.486018">
<ele>100.7</ele>
<time>2013-05-08T18:27:14.000Z</time>
</trkpt>
<trkpt lat="43.479305" lon="3.486129">
<ele>100.6</ele>
<time>2013-05-08T18:27:15.000Z</time>
</trkpt>
<trkpt lat="43.479135" lon="3.486248">
<ele>100.3</ele>
<time>2013-05-08T18:27:16.000Z</time>
</trkpt>
<trkpt lat="43.478976" lon="3.486372">
<ele>99.9</ele>
<time>2013-05-08T18:27:17.000Z</time>
</trkpt>
<trkpt lat="43.478824" lon="3.486498">
<ele>99.7</ele>
<time>2013-05-08T18:27:18.000Z</time>
</trkpt>
<trkpt lat="43.478674" lon="3.486623">
<ele>99.4</ele>
<time>2013-05-08T18:27:19.000Z</time>
</trkpt>
<trkpt lat="43.478522" lon="3.48675">
<ele>99.1</ele>
<time>2013-05-08T18:27:20.000Z</time>
</trkpt>
<trkpt lat="43.478358" lon="3.486873">
<ele>99.1</ele>
<time>2013-05-08T18:27:21.000Z</time>
</trkpt>
<trkpt lat="43.478192" lon="3.486998">
<ele>99.3</ele>
<time>2013-05-08T18:27:22.000Z</time>
</trkpt>
<trkpt lat="43.478023" lon="3.487127">
<ele>99.6</ele>
<time>2013-05-08T18:27:23.000Z</time>
</trkpt>
<trkpt lat="43.477862" lon="3.487253">
<ele>100.1</ele>
<time>2013-05-08T18:27:24.000Z</time>
</trkpt>
<trkpt lat="43.4777" lon="3.487383">
<ele>100.4</ele>
<time>2013-05-08T18:27:25.000Z</time>
</trkpt>
<trkpt lat="43.477542" lon="3.487514">
<ele>101</ele>
<time>2013-05-08T18:27:26.000Z</time>
</trkpt>
<trkpt lat="43.477386" lon="3.487645">
<ele>101.7</ele>
<time>2013-05-08T18:27:27.000Z</time>
</trkpt>
<trkpt lat="43.477225" lon="3.487774">
<ele>102.6</ele>
<time>2013-05-08T18:27:28.000Z</time>
</trkpt>
<trkpt lat="43.477068" lon="3.487905">
<ele>103.6</ele>
<time>2013-05-08T18:27:29.000Z</time>
</trkpt>
<trkpt lat="43.47691" lon="3.488038">
<ele>104.4</ele>
<time>2013-05-08T18:27:30.000Z</time>
</trkpt>
<trkpt lat="43.476756" lon="3.488168">
<ele>105.2</ele>
<time>2013-05-08T18:27:31.000Z</time>
</trkpt>
<trkpt lat="43.476601" lon="3.488302">
<ele>106</ele>
<time>2013-05-08T18:27:32.000Z</time>
</trkpt>
<trkpt lat="43.476451" lon="3.488442">
<ele>106.9</ele>
<time>2013-05-08T18:27:33.000Z</time>
</trkpt>
<trkpt lat="43.4763" lon="3.488593">
<ele>107.5</ele>
<time>2013-05-08T18:27:34.000Z</time>
</trkpt>
<trkpt lat="43.476153" lon="3.488772">
<ele>107.9</ele>
<time>2013-05-08T18:27:35.000Z</time>
</trkpt>
<trkpt lat="43.476012" lon="3.488961">
<ele>108.4</ele>
<time>2013-05-08T18:27:36.000Z</time>
</trkpt>
<trkpt lat="43.475875" lon="3.489164">
<ele>108.7</ele>
<time>2013-05-08T18:27:37.000Z</time>
</trkpt>
<trkpt lat="43.475737" lon="3.489368">
<ele>108.9</ele>
<time>2013-05-08T18:27:38.000Z</time>
</trkpt>
<trkpt lat="43.475598" lon="3.489584">
<ele>109.2</ele>
<time>2013-05-08T18:27:39.000Z</time>
</trkpt>
<trkpt lat="43.475454" lon="3.489816">
<ele>109.8</ele>
<time>2013-05-08T18:27:40.000Z</time>
</trkpt>
<trkpt lat="43.475302" lon="3.490054">
<ele>110.3</ele>
<time>2013-05-08T18:27:41.000Z</time>
</trkpt>
<trkpt lat="43.475146" lon="3.490307">
<ele>110.9</ele>
<time>2013-05-08T18:27:42.000Z</time>
</trkpt>
<trkpt lat="43.474988" lon="3.490564">
<ele>111.3</ele>
<time>2013-05-08T18:27:43.000Z</time>
</trkpt>
<trkpt lat="43.474824" lon="3.490827">
<ele>111.8</ele>
<time>2013-05-08T18:27:44.000Z</time>
</trkpt>
<trkpt lat="43.474663" lon="3.491094">
<ele>112.2</ele>
<time>2013-05-08T18:27:45.000Z</time>
</trkpt>
<trkpt lat="43.474498" lon="3.49136">
<ele>112.5</ele>
<time>2013-05-08T18:27:46.000Z</time>
</trkpt>
<trkpt lat="43.474328" lon="3.49163">
<ele>112.7</ele>
<time>2013-05-08T18:27:47.000Z</time>
</trkpt>
<trkpt lat="43.474152" lon="3.491903">
<ele>112.7</ele>
<time>2013-05-08T18:27:48.000Z</time>
</trkpt>
<trkpt lat="43.473979" lon="3.49218">
<ele>112.5</ele>
<time>2013-05-08T18:27:49.000Z</time>
</trkpt>
<trkpt lat="43.473805" lon="3.492458">
<ele>112.5</ele>
<time>2013-05-08T18:27:50.000Z</time>
</trkpt>
<trkpt lat="43.473629" lon="3.492737">
<ele>112.5</ele>
<time>2013-05-08T18:27:51.000Z</time>
</trkpt>
<trkpt lat="43.473451" lon="3.493021">
<ele>112.4</ele>
<time>2013-05-08T18:27:52.000Z</time>
</trkpt>
<trkpt lat="43.473268" lon="3.493313">
<ele>112.8</ele>
<time>2013-05-08T18:27:53.000Z</time>
</trkpt>
<trkpt lat="43.473091" lon="3.493599">
<ele>113.3</ele>
<time>2013-05-08T18:27:54.000Z</time>
</trkpt>
<trkpt lat="43.472905" lon="3.493884">
<ele>114</ele>
<time>2013-05-08T18:27:55.000Z</time>
</trkpt>
<trkpt lat="43.472716" lon="3.494176">
<ele>114.6</ele>
<time>2013-05-08T18:27:56.000Z</time>
</trkpt>
<trkpt lat="43.472525" lon="3.494475">
<ele>115.2</ele>
<time>2013-05-08T18:27:57.000Z</time>
</trkpt>
<trkpt lat="43.472333" lon="3.494775">
<ele>116</ele>
<time>2013-05-08T18:27:58.000Z</time>
</trkpt>
<trkpt lat="43.47214" lon="3.495077">
<ele>116.7</ele>
<time>2013-05-08T18:27:59.000Z</time>
</trkpt>
<trkpt lat="43.471942" lon="3.495383">
<ele>117.4</ele>
<time>2013-05-08T18:28:00.000Z</time>
</trkpt>
<trkpt lat="43.471744" lon="3.495692">
<ele>118.2</ele>
<time>2013-05-08T18:28:01.000Z</time>
</trkpt>
<trkpt lat="43.471545" lon="3.496004">
<ele>119</ele>
<time>2013-05-08T18:28:02.000Z</time>
</trkpt>
<trkpt lat="43.471344" lon="3.496321">
<ele>119.8</ele>
<time>2013-05-08T18:28:03.000Z</time>
</trkpt>
<trkpt lat="43.471137" lon="3.496641">
<ele>120.9</ele>
<time>2013-05-08T18:28:04.000Z</time>
</trkpt>
<trkpt lat="43.470931" lon="3.496958">
<ele>122</ele>
<time>2013-05-08T18:28:05.000Z</time>
</trkpt>
<trkpt lat="43.470733" lon="3.497282">
<ele>123.3</ele>
<time>2013-05-08T18:28:06.000Z</time>
</trkpt>
<trkpt lat="43.470526" lon="3.4976">
<ele>124.5</ele>
<time>2013-05-08T18:28:07.000Z</time>
</trkpt>
<trkpt lat="43.470318" lon="3.497918">
<ele>125.7</ele>
<time>2013-05-08T18:28:08.000Z</time>
</trkpt>
<trkpt lat="43.470112" lon="3.498236">
<ele>126.8</ele>
<time>2013-05-08T18:28:09.000Z</time>
</trkpt>
<trkpt lat="43.469908" lon="3.498555">
<ele>127.9</ele>
<time>2013-05-08T18:28:10.000Z</time>
</trkpt>
<trkpt lat="43.469711" lon="3.498877">
<ele>129.2</ele>
<time>2013-05-08T18:28:11.000Z</time>
</trkpt>
<trkpt lat="43.469519" lon="3.499202">
<ele>130.7</ele>
<time>2013-05-08T18:28:12.000Z</time>
</trkpt>
<trkpt lat="43.469321" lon="3.499521">
<ele>131.9</ele>
<time>2013-05-08T18:28:13.000Z</time>
</trkpt>
<trkpt lat="43.469114" lon="3.499839">
<ele>133.2</ele>
<time>2013-05-08T18:28:14.000Z</time>
</trkpt>
<trkpt lat="43.468907" lon="3.500156">
<ele>134.5</ele>
<time>2013-05-08T18:28:15.000Z</time>
</trkpt>
<trkpt lat="43.468725" lon="3.50049">
<ele>135.7</ele>
<time>2013-05-08T18:28:16.000Z</time>
</trkpt>
<trkpt lat="43.468558" lon="3.500836">
<ele>136.9</ele>
<time>2013-05-08T18:28:17.000Z</time>
</trkpt>
<trkpt lat="43.468411" lon="3.50119">
<ele>138.2</ele>
<time>2013-05-08T18:28:18.000Z</time>
</trkpt>
<trkpt lat="43.468275" lon="3.501536">
<ele>139.3</ele>
<time>2013-05-08T18:28:19.000Z</time>
</trkpt>
<trkpt lat="43.468138" lon="3.501871">
<ele>140.5</ele>
<time>2013-05-08T18:28:20.000Z</time>
</trkpt>
<trkpt lat="43.468006" lon="3.502198">
<ele>141.8</ele>
<time>2013-05-08T18:28:21.000Z</time>
</trkpt>
<trkpt lat="43.467869" lon="3.502525">
<ele>142.8</ele>
<time>2013-05-08T18:28:22.000Z</time>
</trkpt>
<trkpt lat="43.467733" lon="3.502851">
<ele>143.4</ele>
<time>2013-05-08T18:28:23.000Z</time>
</trkpt>
<trkpt lat="43.467594" lon="3.503177">
<ele>143.9</ele>
<time>2013-05-08T18:28:24.000Z</time>
</trkpt>
<trkpt lat="43.46746" lon="3.503502">
<ele>144.5</ele>
<time>2013-05-08T18:28:25.000Z</time>
</trkpt>
<trkpt lat="43.467327" lon="3.503824">
<ele>145.1</ele>
<time>2013-05-08T18:28:26.000Z</time>
</trkpt>
<trkpt lat="43.467191" lon="3.504153">
<ele>145.5</ele>
<time>2013-05-08T18:28:27.000Z</time>
</trkpt>
<trkpt lat="43.467057" lon="3.504476">
<ele>145.7</ele>
<time>2013-05-08T18:28:28.000Z</time>
</trkpt>
<trkpt lat="43.46693" lon="3.504797">
<ele>145.8</ele>
<time>2013-05-08T18:28:29.000Z</time>
</trkpt>
<trkpt lat="43.466803" lon="3.505115">
<ele>145.7</ele>
<time>2013-05-08T18:28:30.000Z</time>
</trkpt>
<trkpt lat="43.46668" lon="3.505432">
<ele>145.6</ele>
<time>2013-05-08T18:28:31.000Z</time>
</trkpt>
<trkpt lat="43.466557" lon="3.505745">
<ele>145.4</ele>
<time>2013-05-08T18:28:32.000Z</time>
</trkpt>
<trkpt lat="43.466431" lon="3.506059">
<ele>145</ele>
<time>2013-05-08T18:28:33.000Z</time>
</trkpt>
<trkpt lat="43.466304" lon="3.506372">
<ele>144.5</ele>
<time>2013-05-08T18:28:34.000Z</time>
</trkpt>
<trkpt lat="43.466173" lon="3.506691">
<ele>144</ele>
<time>2013-05-08T18:28:35.000Z</time>
</trkpt>
<trkpt lat="43.466041" lon="3.507013">
<ele>143.7</ele>
<time>2013-05-08T18:28:36.000Z</time>
</trkpt>
<trkpt lat="43.465907" lon="3.50733">
<ele>143.2</ele>
<time>2013-05-08T18:28:37.000Z</time>
</trkpt>
<trkpt lat="43.465774" lon="3.507647">
<ele>142.6</ele>
<time>2013-05-08T18:28:38.000Z</time>
</trkpt>
<trkpt lat="43.465625" lon="3.507953">
<ele>142.3</ele>
<time>2013-05-08T18:28:39.000Z</time>
</trkpt>
<trkpt lat="43.465461" lon="3.508247">
<ele>141.9</ele>
<time>2013-05-08T18:28:40.000Z</time>
</trkpt>
<trkpt lat="43.465289" lon="3.508529">
<ele>141.5</ele>
<time>2013-05-08T18:28:41.000Z</time>
</trkpt>
<trkpt lat="43.465104" lon="3.508797">
<ele>141.3</ele>
<time>2013-05-08T18:28:42.000Z</time>
</trkpt>
<trkpt lat="43.464906" lon="3.509048">
<ele>141</ele>
<time>2013-05-08T18:28:43.000Z</time>
</trkpt>
<trkpt lat="43.464689" lon="3.509269">
<ele>140.2</ele>
<time>2013-05-08T18:28:44.000Z</time>
</trkpt>
<trkpt lat="43.464468" lon="3.509471">
<ele>139.7</ele>
<time>2013-05-08T18:28:45.000Z</time>
</trkpt>
<trkpt lat="43.464239" lon="3.509672">
<ele>138.4</ele>
<time>2013-05-08T18:28:46.000Z</time>
</trkpt>
<trkpt lat="43.464011" lon="3.509854">
<ele>137.1</ele>
<time>2013-05-08T18:28:47.000Z</time>
</trkpt>
<trkpt lat="43.463778" lon="3.510036">
<ele>135.4</ele>
<time>2013-05-08T18:28:48.000Z</time>
</trkpt>
<trkpt lat="43.463558" lon="3.510215">
<ele>133.6</ele>
<time>2013-05-08T18:28:49.000Z</time>
</trkpt>
<trkpt lat="43.463345" lon="3.510391">
<ele>131.9</ele>
<time>2013-05-08T18:28:50.000Z</time>
</trkpt>
<trkpt lat="43.463133" lon="3.510568">
<ele>130.4</ele>
<time>2013-05-08T18:28:51.000Z</time>
</trkpt>
<trkpt lat="43.46292" lon="3.510762">
<ele>128.8</ele>
<time>2013-05-08T18:28:52.000Z</time>
</trkpt>
<trkpt lat="43.462707" lon="3.510963">
<ele>127.6</ele>
<time>2013-05-08T18:28:53.000Z</time>
</trkpt>
<trkpt lat="43.462495" lon="3.511168">
<ele>126.6</ele>
<time>2013-05-08T18:28:54.000Z</time>
</trkpt>
<trkpt lat="43.462292" lon="3.511371">
<ele>125.7</ele>
<time>2013-05-08T18:28:55.000Z</time>
</trkpt>
<trkpt lat="43.46209" lon="3.511571">
<ele>125</ele>
<time>2013-05-08T18:28:56.000Z</time>
</trkpt>
<trkpt lat="43.461891" lon="3.511762">
<ele>124.2</ele>
<time>2013-05-08T18:28:57.000Z</time>
</trkpt>
<trkpt lat="43.461701" lon="3.511938">
<ele>123.3</ele>
<time>2013-05-08T18:28:58.000Z</time>
</trkpt>
<trkpt lat="43.461521" lon="3.512101">
<ele>122.1</ele>
<time>2013-05-08T18:28:59.000Z</time>
</trkpt>
<trkpt lat="43.461347" lon="3.512259">
<ele>120.8</ele>
<time>2013-05-08T18:29:00.000Z</time>
</trkpt>
<trkpt lat="43.461172" lon="3.512414">
<ele>119.5</ele>
<time>2013-05-08T18:29:01.000Z</time>
</trkpt>
<trkpt lat="43.460999" lon="3.512562">
<ele>118</ele>
<time>2013-05-08T18:29:02.000Z</time>
</trkpt>
<trkpt lat="43.460826" lon="3.512713">
<ele>116.9</ele>
<time>2013-05-08T18:29:03.000Z</time>
</trkpt>
<trkpt lat="43.460654" lon="3.512865">
<ele>116</ele>
<time>2013-05-08T18:29:04.000Z</time>
</trkpt>
<trkpt lat="43.460487" lon="3.513013">
<ele>115.3</ele>
<time>2013-05-08T18:29:05.000Z</time>
</trkpt>
<trkpt lat="43.460323" lon="3.513156">
<ele>115</ele>
<time>2013-05-08T18:29:06.000Z</time>
</trkpt>
<trkpt lat="43.460162" lon="3.513309">
<ele>115</ele>
<time>2013-05-08T18:29:07.000Z</time>
</trkpt>
<trkpt lat="43.459999" lon="3.513465">
<ele>114.8</ele>
<time>2013-05-08T18:29:08.000Z</time>
</trkpt>
<trkpt lat="43.459845" lon="3.513639">
<ele>114.9</ele>
<time>2013-05-08T18:29:09.000Z</time>
</trkpt>
<trkpt lat="43.459699" lon="3.513836">
<ele>115</ele>
<time>2013-05-08T18:29:10.000Z</time>
</trkpt>
<trkpt lat="43.459567" lon="3.514055">
<ele>115.1</ele>
<time>2013-05-08T18:29:11.000Z</time>
</trkpt>
<trkpt lat="43.45946" lon="3.514293">
<ele>114.7</ele>
<time>2013-05-08T18:29:12.000Z</time>
</trkpt>
<trkpt lat="43.459375" lon="3.514556">
<ele>114.3</ele>
<time>2013-05-08T18:29:13.000Z</time>
</trkpt>
<trkpt lat="43.459301" lon="3.514823">
<ele>113.7</ele>
<time>2013-05-08T18:29:14.000Z</time>
</trkpt>
<trkpt lat="43.459254" lon="3.515108">
<ele>112.7</ele>
<time>2013-05-08T18:29:15.000Z</time>
</trkpt>
<trkpt lat="43.459219" lon="3.51541">
<ele>111.8</ele>
<time>2013-05-08T18:29:16.000Z</time>
</trkpt>
<trkpt lat="43.459183" lon="3.515715">
<ele>110.7</ele>
<time>2013-05-08T18:29:17.000Z</time>
</trkpt>
<trkpt lat="43.459154" lon="3.51604">
<ele>109.5</ele>
<time>2013-05-08T18:29:18.000Z</time>
</trkpt>
<trkpt lat="43.459125" lon="3.516381">
<ele>109</ele>
<time>2013-05-08T18:29:19.000Z</time>
</trkpt>
<trkpt lat="43.45909" lon="3.516726">
<ele>108.6</ele>
<time>2013-05-08T18:29:20.000Z</time>
</trkpt>
<trkpt lat="43.459063" lon="3.517077">
<ele>107.9</ele>
<time>2013-05-08T18:29:21.000Z</time>
</trkpt>
<trkpt lat="43.459037" lon="3.517452">
<ele>107.6</ele>
<time>2013-05-08T18:29:22.000Z</time>
</trkpt>
<trkpt lat="43.459011" lon="3.517834">
<ele>107.7</ele>
<time>2013-05-08T18:29:23.000Z</time>
</trkpt>
<trkpt lat="43.458986" lon="3.518213">
<ele>107.7</ele>
<time>2013-05-08T18:29:24.000Z</time>
</trkpt>
<trkpt lat="43.458958" lon="3.518597">
<ele>107.6</ele>
<time>2013-05-08T18:29:25.000Z</time>
</trkpt>
<trkpt lat="43.458929" lon="3.518995">
<ele>107.5</ele>
<time>2013-05-08T18:29:26.000Z</time>
</trkpt>
<trkpt lat="43.458898" lon="3.519406">
<ele>107.4</ele>
<time>2013-05-08T18:29:27.000Z</time>
</trkpt>
<trkpt lat="43.45887" lon="3.519823">
<ele>107.3</ele>
<time>2013-05-08T18:29:28.000Z</time>
</trkpt>
<trkpt lat="43.458837" lon="3.520258">
<ele>107.1</ele>
<time>2013-05-08T18:29:29.000Z</time>
</trkpt>
<trkpt lat="43.458797" lon="3.520687">
<ele>106.7</ele>
<time>2013-05-08T18:29:30.000Z</time>
</trkpt>
<trkpt lat="43.45876" lon="3.521112">
<ele>106.1</ele>
<time>2013-05-08T18:29:31.000Z</time>
</trkpt>
<trkpt lat="43.458721" lon="3.521529">
<ele>105.5</ele>
<time>2013-05-08T18:29:32.000Z</time>
</trkpt>
<trkpt lat="43.458678" lon="3.521931">
<ele>105</ele>
<time>2013-05-08T18:29:33.000Z</time>
</trkpt>
<trkpt lat="43.458639" lon="3.522327">
<ele>104.6</ele>
<time>2013-05-08T18:29:34.000Z</time>
</trkpt>
<trkpt lat="43.458609" lon="3.522712">
<ele>104.2</ele>
<time>2013-05-08T18:29:35.000Z</time>
</trkpt>
<trkpt lat="43.458583" lon="3.523073">
<ele>103.7</ele>
<time>2013-05-08T18:29:36.000Z</time>
</trkpt>
<trkpt lat="43.458558" lon="3.523424">
<ele>103.3</ele>
<time>2013-05-08T18:29:37.000Z</time>
</trkpt>
<trkpt lat="43.458527" lon="3.523768">
<ele>103.1</ele>
<time>2013-05-08T18:29:38.000Z</time>
</trkpt>
<trkpt lat="43.458499" lon="3.524108">
<ele>103</ele>
<time>2013-05-08T18:29:39.000Z</time>
</trkpt>
<trkpt lat="43.458473" lon="3.524432">
<ele>102.7</ele>
<time>2013-05-08T18:29:40.000Z</time>
</trkpt>
<trkpt lat="43.458446" lon="3.524771">
<ele>102.2</ele>
<time>2013-05-08T18:29:41.000Z</time>
</trkpt>
<trkpt lat="43.458414" lon="3.525122">
<ele>101.7</ele>
<time>2013-05-08T18:29:42.000Z</time>
</trkpt>
<trkpt lat="43.458379" lon="3.525489">
<ele>101.1</ele>
<time>2013-05-08T18:29:43.000Z</time>
</trkpt>
<trkpt lat="43.458346" lon="3.525861">
<ele>100.3</ele>
<time>2013-05-08T18:29:44.000Z</time>
</trkpt>
<trkpt lat="43.458313" lon="3.526252">
<ele>99.5</ele>
<time>2013-05-08T18:29:45.000Z</time>
</trkpt>
<trkpt lat="43.45828" lon="3.526648">
<ele>98.5</ele>
<time>2013-05-08T18:29:46.000Z</time>
</trkpt>
<trkpt lat="43.458243" lon="3.527047">
<ele>97.5</ele>
<time>2013-05-08T18:29:47.000Z</time>
</trkpt>
<trkpt lat="43.458206" lon="3.527446">
<ele>96.6</ele>
<time>2013-05-08T18:29:48.000Z</time>
</trkpt>
<trkpt lat="43.458171" lon="3.527847">
<ele>95.5</ele>
<time>2013-05-08T18:29:49.000Z</time>
</trkpt>
<trkpt lat="43.458136" lon="3.528247">
<ele>94.5</ele>
<time>2013-05-08T18:29:50.000Z</time>
</trkpt>
<trkpt lat="43.458102" lon="3.528647">
<ele>93.4</ele>
<time>2013-05-08T18:29:51.000Z</time>
</trkpt>
<trkpt lat="43.458076" lon="3.529047">
<ele>92.5</ele>
<time>2013-05-08T18:29:52.000Z</time>
</trkpt>
<trkpt lat="43.458041" lon="3.52945">
<ele>91.8</ele>
<time>2013-05-08T18:29:53.000Z</time>
</trkpt>
<trkpt lat="43.458004" lon="3.52985">
<ele>91.4</ele>
<time>2013-05-08T18:29:54.000Z</time>
</trkpt>
<trkpt lat="43.45797" lon="3.530248">
<ele>90.9</ele>
<time>2013-05-08T18:29:55.000Z</time>
</trkpt>
<trkpt lat="43.457937" lon="3.530643">
<ele>90.6</ele>
<time>2013-05-08T18:29:56.000Z</time>
</trkpt>
<trkpt lat="43.45791" lon="3.53104">
<ele>90.1</ele>
<time>2013-05-08T18:29:57.000Z</time>
</trkpt>
<trkpt lat="43.45788" lon="3.531436">
<ele>89.8</ele>
<time>2013-05-08T18:29:58.000Z</time>
</trkpt>
<trkpt lat="43.457851" lon="3.531832">
<ele>89.5</ele>
<time>2013-05-08T18:29:59.000Z</time>
</trkpt>
<trkpt lat="43.457823" lon="3.53223">
<ele>89.1</ele>
<time>2013-05-08T18:30:00.000Z</time>
</trkpt>
<trkpt lat="43.457793" lon="3.532626">
<ele>88.8</ele>
<time>2013-05-08T18:30:01.000Z</time>
</trkpt>
<trkpt lat="43.457762" lon="3.533022">
<ele>88.7</ele>
<time>2013-05-08T18:30:02.000Z</time>
</trkpt>
<trkpt lat="43.457732" lon="3.533416">
<ele>88.5</ele>
<time>2013-05-08T18:30:03.000Z</time>
</trkpt>
<trkpt lat="43.457704" lon="3.53381">
<ele>88.6</ele>
<time>2013-05-08T18:30:04.000Z</time>
</trkpt>
<trkpt lat="43.457675" lon="3.534204">
<ele>88.7</ele>
<time>2013-05-08T18:30:05.000Z</time>
</trkpt>
<trkpt lat="43.457647" lon="3.534598">
<ele>88.8</ele>
<time>2013-05-08T18:30:06.000Z</time>
</trkpt>
<trkpt lat="43.457613" lon="3.534987">
<ele>89.4</ele>
<time>2013-05-08T18:30:07.000Z</time>
</trkpt>
<trkpt lat="43.457583" lon="3.535375">
<ele>90</ele>
<time>2013-05-08T18:30:08.000Z</time>
</trkpt>
<trkpt lat="43.457555" lon="3.535759">
<ele>90.4</ele>
<time>2013-05-08T18:30:09.000Z</time>
</trkpt>
<trkpt lat="43.457525" lon="3.536132">
<ele>91.1</ele>
<time>2013-05-08T18:30:10.000Z</time>
</trkpt>
<trkpt lat="43.457494" lon="3.536508">
<ele>91.8</ele>
<time>2013-05-08T18:30:11.000Z</time>
</trkpt>
<trkpt lat="43.457462" lon="3.536886">
<ele>92.3</ele>
<time>2013-05-08T18:30:12.000Z</time>
</trkpt>
<trkpt lat="43.45743" lon="3.53727">
<ele>92.8</ele>
<time>2013-05-08T18:30:13.000Z</time>
</trkpt>
<trkpt lat="43.457398" lon="3.537659">
<ele>93.2</ele>
<time>2013-05-08T18:30:14.000Z</time>
</trkpt>
<trkpt lat="43.457364" lon="3.538056">
<ele>93.5</ele>
<time>2013-05-08T18:30:15.000Z</time>
</trkpt>
<trkpt lat="43.457332" lon="3.538454">
<ele>93.7</ele>
<time>2013-05-08T18:30:16.000Z</time>
</trkpt>
<trkpt lat="43.457298" lon="3.538856">
<ele>93.9</ele>
<time>2013-05-08T18:30:17.000Z</time>
</trkpt>
<trkpt lat="43.457264" lon="3.539262">
<ele>94</ele>
<time>2013-05-08T18:30:18.000Z</time>
</trkpt>
<trkpt lat="43.45723" lon="3.539669">
<ele>94.2</ele>
<time>2013-05-08T18:30:19.000Z</time>
</trkpt>
<trkpt lat="43.457195" lon="3.540076">
<ele>94.2</ele>
<time>2013-05-08T18:30:20.000Z</time>
</trkpt>
<trkpt lat="43.457163" lon="3.540483">
<ele>94.3</ele>
<time>2013-05-08T18:30:21.000Z</time>
</trkpt>
<trkpt lat="43.457129" lon="3.540891">
<ele>94.4</ele>
<time>2013-05-08T18:30:22.000Z</time>
</trkpt>
<trkpt lat="43.457096" lon="3.541298">
<ele>94.4</ele>
<time>2013-05-08T18:30:23.000Z</time>
</trkpt>
<trkpt lat="43.457066" lon="3.541704">
<ele>94.2</ele>
<time>2013-05-08T18:30:24.000Z</time>
</trkpt>
<trkpt lat="43.45704" lon="3.542098">
<ele>93.9</ele>
<time>2013-05-08T18:30:25.000Z</time>
</trkpt>
<trkpt lat="43.457015" lon="3.542483">
<ele>93.5</ele>
<time>2013-05-08T18:30:26.000Z</time>
</trkpt>
<trkpt lat="43.456983" lon="3.542857">
<ele>93.1</ele>
<time>2013-05-08T18:30:27.000Z</time>
</trkpt>
<trkpt lat="43.456937" lon="3.543221">
<ele>93.1</ele>
<time>2013-05-08T18:30:28.000Z</time>
</trkpt>
<trkpt lat="43.456862" lon="3.543572">
<ele>93.5</ele>
<time>2013-05-08T18:30:29.000Z</time>
</trkpt>
<trkpt lat="43.456779" lon="3.543909">
<ele>93.7</ele>
<time>2013-05-08T18:30:30.000Z</time>
</trkpt>
<trkpt lat="43.456672" lon="3.544229">
<ele>94</ele>
<time>2013-05-08T18:30:31.000Z</time>
</trkpt>
<trkpt lat="43.456545" lon="3.544529">
<ele>95</ele>
<time>2013-05-08T18:30:32.000Z</time>
</trkpt>
<trkpt lat="43.456388" lon="3.54482">
<ele>96.2</ele>
<time>2013-05-08T18:30:33.000Z</time>
</trkpt>
<trkpt lat="43.45622" lon="3.545105">
<ele>96.9</ele>
<time>2013-05-08T18:30:34.000Z</time>
</trkpt>
<trkpt lat="43.45603" lon="3.545396">
<ele>97.9</ele>
<time>2013-05-08T18:30:35.000Z</time>
</trkpt>
<trkpt lat="43.455825" lon="3.545689">
<ele>98.9</ele>
<time>2013-05-08T18:30:36.000Z</time>
</trkpt>
<trkpt lat="43.455619" lon="3.545989">
<ele>99.8</ele>
<time>2013-05-08T18:30:37.000Z</time>
</trkpt>
<trkpt lat="43.455412" lon="3.546293">
<ele>100.6</ele>
<time>2013-05-08T18:30:38.000Z</time>
</trkpt>
<trkpt lat="43.455202" lon="3.546598">
<ele>101.5</ele>
<time>2013-05-08T18:30:39.000Z</time>
</trkpt>
<trkpt lat="43.454978" lon="3.5469">
<ele>102.5</ele>
<time>2013-05-08T18:30:40.000Z</time>
</trkpt>
<trkpt lat="43.454754" lon="3.547201">
<ele>103.3</ele>
<time>2013-05-08T18:30:41.000Z</time>
</trkpt>
<trkpt lat="43.45454" lon="3.547502">
<ele>104.1</ele>
<time>2013-05-08T18:30:42.000Z</time>
</trkpt>
<trkpt lat="43.454334" lon="3.547799">
<ele>104.9</ele>
<time>2013-05-08T18:30:43.000Z</time>
</trkpt>
<trkpt lat="43.454146" lon="3.548088">
<ele>105.6</ele>
<time>2013-05-08T18:30:44.000Z</time>
</trkpt>
<trkpt lat="43.453963" lon="3.548371">
<ele>106.5</ele>
<time>2013-05-08T18:30:45.000Z</time>
</trkpt>
<trkpt lat="43.45379" lon="3.548645">
<ele>107.3</ele>
<time>2013-05-08T18:30:46.000Z</time>
</trkpt>
<trkpt lat="43.453618" lon="3.548913">
<ele>108</ele>
<time>2013-05-08T18:30:47.000Z</time>
</trkpt>
<trkpt lat="43.453454" lon="3.549178">
<ele>108.7</ele>
<time>2013-05-08T18:30:48.000Z</time>
</trkpt>
<trkpt lat="43.453294" lon="3.54944">
<ele>109.4</ele>
<time>2013-05-08T18:30:49.000Z</time>
</trkpt>
<trkpt lat="43.453139" lon="3.549708">
<ele>109.7</ele>
<time>2013-05-08T18:30:50.000Z</time>
</trkpt>
<trkpt lat="43.452985" lon="3.549973">
<ele>109.8</ele>
<time>2013-05-08T18:30:51.000Z</time>
</trkpt>
<trkpt lat="43.45283" lon="3.550238">
<ele>109.8</ele>
<time>2013-05-08T18:30:52.000Z</time>
</trkpt>
<trkpt lat="43.452671" lon="3.550505">
<ele>109.6</ele>
<time>2013-05-08T18:30:53.000Z</time>
</trkpt>
<trkpt lat="43.452513" lon="3.550773">
<ele>109.2</ele>
<time>2013-05-08T18:30:54.000Z</time>
</trkpt>
<trkpt lat="43.452359" lon="3.551043">
<ele>108.6</ele>
<time>2013-05-08T18:30:55.000Z</time>
</trkpt>
<trkpt lat="43.45221" lon="3.551313">
<ele>107.8</ele>
<time>2013-05-08T18:30:56.000Z</time>
</trkpt>
<trkpt lat="43.452056" lon="3.551583">
<ele>107.2</ele>
<time>2013-05-08T18:30:57.000Z</time>
</trkpt>
<trkpt lat="43.451905" lon="3.551847">
<ele>106.5</ele>
<time>2013-05-08T18:30:58.000Z</time>
</trkpt>
<trkpt lat="43.451755" lon="3.55211">
<ele>105.6</ele>
<time>2013-05-08T18:30:59.000Z</time>
</trkpt>
<trkpt lat="43.451606" lon="3.552378">
<ele>104.8</ele>
<time>2013-05-08T18:31:00.000Z</time>
</trkpt>
<trkpt lat="43.451453" lon="3.552647">
<ele>104</ele>
<time>2013-05-08T18:31:01.000Z</time>
</trkpt>
<trkpt lat="43.451306" lon="3.552913">
<ele>103.7</ele>
<time>2013-05-08T18:31:02.000Z</time>
</trkpt>
<trkpt lat="43.45115" lon="3.553187">
<ele>103</ele>
<time>2013-05-08T18:31:03.000Z</time>
</trkpt>
<trkpt lat="43.45099" lon="3.55346">
<ele>102.5</ele>
<time>2013-05-08T18:31:04.000Z</time>
</trkpt>
<trkpt lat="43.450827" lon="3.553738">
<ele>101.9</ele>
<time>2013-05-08T18:31:05.000Z</time>
</trkpt>
<trkpt lat="43.450663" lon="3.554019">
<ele>101.6</ele>
<time>2013-05-08T18:31:06.000Z</time>
</trkpt>
<trkpt lat="43.450495" lon="3.554305">
<ele>101.2</ele>
<time>2013-05-08T18:31:07.000Z</time>
</trkpt>
<trkpt lat="43.450325" lon="3.554592">
<ele>100.7</ele>
<time>2013-05-08T18:31:08.000Z</time>
</trkpt>
<trkpt lat="43.450157" lon="3.554873">
<ele>100.5</ele>
<time>2013-05-08T18:31:09.000Z</time>
</trkpt>
<trkpt lat="43.449985" lon="3.555159">
<ele>100.3</ele>
<time>2013-05-08T18:31:10.000Z</time>
</trkpt>
<trkpt lat="43.449811" lon="3.555443">
<ele>100.2</ele>
<time>2013-05-08T18:31:11.000Z</time>
</trkpt>
<trkpt lat="43.449646" lon="3.555724">
<ele>100.2</ele>
<time>2013-05-08T18:31:12.000Z</time>
</trkpt>
<trkpt lat="43.449477" lon="3.556005">
<ele>100.4</ele>
<time>2013-05-08T18:31:13.000Z</time>
</trkpt>
<trkpt lat="43.449313" lon="3.556293">
<ele>100.7</ele>
<time>2013-05-08T18:31:14.000Z</time>
</trkpt>
<trkpt lat="43.449153" lon="3.556584">
<ele>101</ele>
<time>2013-05-08T18:31:15.000Z</time>
</trkpt>
<trkpt lat="43.448997" lon="3.556864">
<ele>101.4</ele>
<time>2013-05-08T18:31:16.000Z</time>
</trkpt>
<trkpt lat="43.448841" lon="3.55715">
<ele>101.8</ele>
<time>2013-05-08T18:31:17.000Z</time>
</trkpt>
<trkpt lat="43.448684" lon="3.557435">
<ele>101.9</ele>
<time>2013-05-08T18:31:18.000Z</time>
</trkpt>
<trkpt lat="43.448531" lon="3.557725">
<ele>102.2</ele>
<time>2013-05-08T18:31:19.000Z</time>
</trkpt>
<trkpt lat="43.448382" lon="3.558017">
<ele>102.3</ele>
<time>2013-05-08T18:31:20.000Z</time>
</trkpt>
<trkpt lat="43.448235" lon="3.558311">
<ele>102.3</ele>
<time>2013-05-08T18:31:21.000Z</time>
</trkpt>
<trkpt lat="43.448087" lon="3.558606">
<ele>102.2</ele>
<time>2013-05-08T18:31:22.000Z</time>
</trkpt>
<trkpt lat="43.447947" lon="3.558902">
<ele>102</ele>
<time>2013-05-08T18:31:23.000Z</time>
</trkpt>
<trkpt lat="43.44781" lon="3.559204">
<ele>101.9</ele>
<time>2013-05-08T18:31:24.000Z</time>
</trkpt>
<trkpt lat="43.447672" lon="3.559511">
<ele>101.9</ele>
<time>2013-05-08T18:31:25.000Z</time>
</trkpt>
<trkpt lat="43.447533" lon="3.559825">
<ele>101.7</ele>
<time>2013-05-08T18:31:26.000Z</time>
</trkpt>
<trkpt lat="43.447393" lon="3.56014">
<ele>101.5</ele>
<time>2013-05-08T18:31:27.000Z</time>
</trkpt>
<trkpt lat="43.447249" lon="3.56046">
<ele>101.4</ele>
<time>2013-05-08T18:31:28.000Z</time>
</trkpt>
<trkpt lat="43.447106" lon="3.560787">
<ele>101</ele>
<time>2013-05-08T18:31:29.000Z</time>
</trkpt>
<trkpt lat="43.446964" lon="3.561117">
<ele>100.7</ele>
<time>2013-05-08T18:31:30.000Z</time>
</trkpt>
<trkpt lat="43.446825" lon="3.561451">
<ele>100.6</ele>
<time>2013-05-08T18:31:31.000Z</time>
</trkpt>
<trkpt lat="43.446685" lon="3.561792">
<ele>100.5</ele>
<time>2013-05-08T18:31:32.000Z</time>
</trkpt>
<trkpt lat="43.446542" lon="3.562137">
<ele>100.3</ele>
<time>2013-05-08T18:31:33.000Z</time>
</trkpt>
<trkpt lat="43.446401" lon="3.56248">
<ele>100.1</ele>
<time>2013-05-08T18:31:34.000Z</time>
</trkpt>
<trkpt lat="43.446252" lon="3.562824">
<ele>100</ele>
<time>2013-05-08T18:31:35.000Z</time>
</trkpt>
<trkpt lat="43.446106" lon="3.56317">
<ele>99.7</ele>
<time>2013-05-08T18:31:36.000Z</time>
</trkpt>
<trkpt lat="43.445954" lon="3.563518">
<ele>98.8</ele>
<time>2013-05-08T18:31:37.000Z</time>
</trkpt>
<trkpt lat="43.445797" lon="3.563864">
<ele>97.9</ele>
<time>2013-05-08T18:31:38.000Z</time>
</trkpt>
<trkpt lat="43.445638" lon="3.564217">
<ele>96.9</ele>
<time>2013-05-08T18:31:39.000Z</time>
</trkpt>
<trkpt lat="43.445484" lon="3.564567">
<ele>96</ele>
<time>2013-05-08T18:31:40.000Z</time>
</trkpt>
<trkpt lat="43.445328" lon="3.564919">
<ele>95.3</ele>
<time>2013-05-08T18:31:41.000Z</time>
</trkpt>
<trkpt lat="43.445174" lon="3.565273">
<ele>94.6</ele>
<time>2013-05-08T18:31:42.000Z</time>
</trkpt>
<trkpt lat="43.445019" lon="3.565626">
<ele>93.8</ele>
<time>2013-05-08T18:31:43.000Z</time>
</trkpt>
<trkpt lat="43.444864" lon="3.565973">
<ele>93</ele>
<time>2013-05-08T18:31:44.000Z</time>
</trkpt>
<trkpt lat="43.444714" lon="3.566312">
<ele>92.1</ele>
<time>2013-05-08T18:31:45.000Z</time>
</trkpt>
<trkpt lat="43.444565" lon="3.566648">
<ele>91.1</ele>
<time>2013-05-08T18:31:46.000Z</time>
</trkpt>
<trkpt lat="43.444419" lon="3.566984">
<ele>90.2</ele>
<time>2013-05-08T18:31:47.000Z</time>
</trkpt>
<trkpt lat="43.444271" lon="3.567317">
<ele>89.5</ele>
<time>2013-05-08T18:31:48.000Z</time>
</trkpt>
<trkpt lat="43.444119" lon="3.567649">
<ele>89.1</ele>
<time>2013-05-08T18:31:49.000Z</time>
</trkpt>
<trkpt lat="43.443967" lon="3.567979">
<ele>88.9</ele>
<time>2013-05-08T18:31:50.000Z</time>
</trkpt>
<trkpt lat="43.443815" lon="3.568309">
<ele>88.8</ele>
<time>2013-05-08T18:31:51.000Z</time>
</trkpt>
<trkpt lat="43.443666" lon="3.568632">
<ele>88.7</ele>
<time>2013-05-08T18:31:52.000Z</time>
</trkpt>
<trkpt lat="43.443516" lon="3.568953">
<ele>88.5</ele>
<time>2013-05-08T18:31:53.000Z</time>
</trkpt>
<trkpt lat="43.443365" lon="3.569274">
<ele>88.4</ele>
<time>2013-05-08T18:31:54.000Z</time>
</trkpt>
<trkpt lat="43.443213" lon="3.569598">
<ele>88.3</ele>
<time>2013-05-08T18:31:55.000Z</time>
</trkpt>
<trkpt lat="43.443063" lon="3.569923">
<ele>88.2</ele>
<time>2013-05-08T18:31:56.000Z</time>
</trkpt>
<trkpt lat="43.442919" lon="3.570242">
<ele>88.2</ele>
<time>2013-05-08T18:31:57.000Z</time>
</trkpt>
<trkpt lat="43.442772" lon="3.570571">
<ele>88.3</ele>
<time>2013-05-08T18:31:58.000Z</time>
</trkpt>
<trkpt lat="43.442624" lon="3.570904">
<ele>88.2</ele>
<time>2013-05-08T18:31:59.000Z</time>
</trkpt>
<trkpt lat="43.442474" lon="3.571239">
<ele>88.1</ele>
<time>2013-05-08T18:32:00.000Z</time>
</trkpt>
<trkpt lat="43.442328" lon="3.571578">
<ele>88.2</ele>
<time>2013-05-08T18:32:01.000Z</time>
</trkpt>
<trkpt lat="43.442179" lon="3.571917">
<ele>88.1</ele>
<time>2013-05-08T18:32:02.000Z</time>
</trkpt>
<trkpt lat="43.442028" lon="3.572251">
<ele>87.9</ele>
<time>2013-05-08T18:32:03.000Z</time>
</trkpt>
<trkpt lat="43.441882" lon="3.572578">
<ele>87.6</ele>
<time>2013-05-08T18:32:04.000Z</time>
</trkpt>
<trkpt lat="43.441736" lon="3.572901">
<ele>87.3</ele>
<time>2013-05-08T18:32:05.000Z</time>
</trkpt>
<trkpt lat="43.441592" lon="3.573219">
<ele>86.6</ele>
<time>2013-05-08T18:32:06.000Z</time>
</trkpt>
<trkpt lat="43.441457" lon="3.573537">
<ele>86</ele>
<time>2013-05-08T18:32:07.000Z</time>
</trkpt>
<trkpt lat="43.441331" lon="3.57384">
<ele>85.1</ele>
<time>2013-05-08T18:32:08.000Z</time>
</trkpt>
<trkpt lat="43.441206" lon="3.574133">
<ele>84.1</ele>
<time>2013-05-08T18:32:09.000Z</time>
</trkpt>
<trkpt lat="43.44109" lon="3.57442">
<ele>83.1</ele>
<time>2013-05-08T18:32:10.000Z</time>
</trkpt>
<trkpt lat="43.440978" lon="3.574693">
<ele>82</ele>
<time>2013-05-08T18:32:11.000Z</time>
</trkpt>
<trkpt lat="43.440869" lon="3.574949">
<ele>81</ele>
<time>2013-05-08T18:32:12.000Z</time>
</trkpt>
<trkpt lat="43.440765" lon="3.575187">
<ele>80.1</ele>
<time>2013-05-08T18:32:13.000Z</time>
</trkpt>
<trkpt lat="43.440664" lon="3.575415">
<ele>79.3</ele>
<time>2013-05-08T18:32:14.000Z</time>
</trkpt>
<trkpt lat="43.440561" lon="3.575631">
<ele>78.5</ele>
<time>2013-05-08T18:32:15.000Z</time>
</trkpt>
<trkpt lat="43.440464" lon="3.575836">
<ele>77.9</ele>
<time>2013-05-08T18:32:16.000Z</time>
</trkpt>
<trkpt lat="43.440373" lon="3.576032">
<ele>77.2</ele>
<time>2013-05-08T18:32:17.000Z</time>
</trkpt>
<trkpt lat="43.440282" lon="3.576216">
<ele>76.6</ele>
<time>2013-05-08T18:32:18.000Z</time>
</trkpt>
<trkpt lat="43.440186" lon="3.576393">
<ele>75.9</ele>
<time>2013-05-08T18:32:19.000Z</time>
</trkpt>
<trkpt lat="43.440093" lon="3.576541">
<ele>75.4</ele>
<time>2013-05-08T18:32:20.000Z</time>
</trkpt>
<trkpt lat="43.439976" lon="3.576644">
<ele>74.9</ele>
<time>2013-05-08T18:32:21.000Z</time>
</trkpt>
<trkpt lat="43.439869" lon="3.576729">
<ele>74.3</ele>
<time>2013-05-08T18:32:22.000Z</time>
</trkpt>
<trkpt lat="43.439769" lon="3.576813">
<ele>73.8</ele>
<time>2013-05-08T18:32:23.000Z</time>
</trkpt>
<trkpt lat="43.439687" lon="3.576939">
<ele>73.4</ele>
<time>2013-05-08T18:32:24.000Z</time>
</trkpt>
<trkpt lat="43.439646" lon="3.577093">
<ele>73</ele>
<time>2013-05-08T18:32:25.000Z</time>
</trkpt>
<trkpt lat="43.439634" lon="3.57724">
<ele>72.4</ele>
<time>2013-05-08T18:32:26.000Z</time>
</trkpt>
<trkpt lat="43.439623" lon="3.577415">
<ele>71.9</ele>
<time>2013-05-08T18:32:27.000Z</time>
</trkpt>
<trkpt lat="43.439616" lon="3.577604">
<ele>71.1</ele>
<time>2013-05-08T18:32:28.000Z</time>
</trkpt>
<trkpt lat="43.439569" lon="3.577793">
<ele>70.1</ele>
<time>2013-05-08T18:32:29.000Z</time>
</trkpt>
<trkpt lat="43.439507" lon="3.577995">
<ele>69.2</ele>
<time>2013-05-08T18:32:30.000Z</time>
</trkpt>
<trkpt lat="43.439431" lon="3.578207">
<ele>68.9</ele>
<time>2013-05-08T18:32:31.000Z</time>
</trkpt>
<trkpt lat="43.439335" lon="3.578445">
<ele>68.7</ele>
<time>2013-05-08T18:32:32.000Z</time>
</trkpt>
<trkpt lat="43.439231" lon="3.578697">
<ele>68.7</ele>
<time>2013-05-08T18:32:33.000Z</time>
</trkpt>
<trkpt lat="43.439098" lon="3.578959">
<ele>68.8</ele>
<time>2013-05-08T18:32:34.000Z</time>
</trkpt>
<trkpt lat="43.438964" lon="3.579246">
<ele>68.9</ele>
<time>2013-05-08T18:32:35.000Z</time>
</trkpt>
<trkpt lat="43.438826" lon="3.579551">
<ele>69</ele>
<time>2013-05-08T18:32:36.000Z</time>
</trkpt>
<trkpt lat="43.438684" lon="3.579868">
<ele>69.2</ele>
<time>2013-05-08T18:32:37.000Z</time>
</trkpt>
<trkpt lat="43.438539" lon="3.580194">
<ele>69.3</ele>
<time>2013-05-08T18:32:38.000Z</time>
</trkpt>
<trkpt lat="43.438391" lon="3.580522">
<ele>69.4</ele>
<time>2013-05-08T18:32:39.000Z</time>
</trkpt>
<trkpt lat="43.438243" lon="3.58086">
<ele>69.3</ele>
<time>2013-05-08T18:32:40.000Z</time>
</trkpt>
<trkpt lat="43.438093" lon="3.581202">
<ele>69.1</ele>
<time>2013-05-08T18:32:41.000Z</time>
</trkpt>
<trkpt lat="43.437939" lon="3.581549">
<ele>68.7</ele>
<time>2013-05-08T18:32:42.000Z</time>
</trkpt>
<trkpt lat="43.437784" lon="3.581902">
<ele>68.1</ele>
<time>2013-05-08T18:32:43.000Z</time>
</trkpt>
<trkpt lat="43.437623" lon="3.582262">
<ele>67.5</ele>
<time>2013-05-08T18:32:44.000Z</time>
</trkpt>
<trkpt lat="43.437461" lon="3.582625">
<ele>66.9</ele>
<time>2013-05-08T18:32:45.000Z</time>
</trkpt>
<trkpt lat="43.437299" lon="3.582991">
<ele>66.3</ele>
<time>2013-05-08T18:32:46.000Z</time>
</trkpt>
<trkpt lat="43.437137" lon="3.583358">
<ele>65.8</ele>
<time>2013-05-08T18:32:47.000Z</time>
</trkpt>
<trkpt lat="43.436976" lon="3.583729">
<ele>65.6</ele>
<time>2013-05-08T18:32:48.000Z</time>
</trkpt>
<trkpt lat="43.436819" lon="3.584096">
<ele>65</ele>
<time>2013-05-08T18:32:49.000Z</time>
</trkpt>
<trkpt lat="43.436659" lon="3.584463">
<ele>64.6</ele>
<time>2013-05-08T18:32:50.000Z</time>
</trkpt>
<trkpt lat="43.436495" lon="3.58483">
<ele>64.4</ele>
<time>2013-05-08T18:32:51.000Z</time>
</trkpt>
<trkpt lat="43.43633" lon="3.585196">
<ele>64.3</ele>
<time>2013-05-08T18:32:52.000Z</time>
</trkpt>
<trkpt lat="43.436168" lon="3.585562">
<ele>64.5</ele>
<time>2013-05-08T18:32:53.000Z</time>
</trkpt>
<trkpt lat="43.436007" lon="3.585929">
<ele>64.9</ele>
<time>2013-05-08T18:32:54.000Z</time>
</trkpt>
<trkpt lat="43.435848" lon="3.586294">
<ele>65.4</ele>
<time>2013-05-08T18:32:55.000Z</time>
</trkpt>
<trkpt lat="43.435689" lon="3.586652">
<ele>65.9</ele>
<time>2013-05-08T18:32:56.000Z</time>
</trkpt>
<trkpt lat="43.435531" lon="3.587008">
<ele>66.3</ele>
<time>2013-05-08T18:32:57.000Z</time>
</trkpt>
<trkpt lat="43.435373" lon="3.587362">
<ele>66.7</ele>
<time>2013-05-08T18:32:58.000Z</time>
</trkpt>
<trkpt lat="43.435214" lon="3.587717">
<ele>67.1</ele>
<time>2013-05-08T18:32:59.000Z</time>
</trkpt>
<trkpt lat="43.435056" lon="3.588068">
<ele>67.7</ele>
<time>2013-05-08T18:33:00.000Z</time>
</trkpt>
<trkpt lat="43.434901" lon="3.588416">
<ele>68.4</ele>
<time>2013-05-08T18:33:01.000Z</time>
</trkpt>
<trkpt lat="43.434746" lon="3.588764">
<ele>69.1</ele>
<time>2013-05-08T18:33:02.000Z</time>
</trkpt>
<trkpt lat="43.434594" lon="3.589106">
<ele>70</ele>
<time>2013-05-08T18:33:03.000Z</time>
</trkpt>
<trkpt lat="43.434442" lon="3.589449">
<ele>70.8</ele>
<time>2013-05-08T18:33:04.000Z</time>
</trkpt>
<trkpt lat="43.434288" lon="3.589791">
<ele>71.3</ele>
<time>2013-05-08T18:33:05.000Z</time>
</trkpt>
<trkpt lat="43.434135" lon="3.590127">
<ele>71.9</ele>
<time>2013-05-08T18:33:06.000Z</time>
</trkpt>
<trkpt lat="43.433988" lon="3.590456">
<ele>72.4</ele>
<time>2013-05-08T18:33:07.000Z</time>
</trkpt>
<trkpt lat="43.433847" lon="3.59078">
<ele>73.1</ele>
<time>2013-05-08T18:33:08.000Z</time>
</trkpt>
<trkpt lat="43.433706" lon="3.591098">
<ele>73.6</ele>
<time>2013-05-08T18:33:09.000Z</time>
</trkpt>
<trkpt lat="43.433566" lon="3.591413">
<ele>74</ele>
<time>2013-05-08T18:33:10.000Z</time>
</trkpt>
<trkpt lat="43.433428" lon="3.591725">
<ele>74.5</ele>
<time>2013-05-08T18:33:11.000Z</time>
</trkpt>
<trkpt lat="43.433292" lon="3.592036">
<ele>74.9</ele>
<time>2013-05-08T18:33:12.000Z</time>
</trkpt>
<trkpt lat="43.433159" lon="3.592345">
<ele>75.4</ele>
<time>2013-05-08T18:33:13.000Z</time>
</trkpt>
<trkpt lat="43.433023" lon="3.592654">
<ele>76.2</ele>
<time>2013-05-08T18:33:14.000Z</time>
</trkpt>
<trkpt lat="43.432893" lon="3.592952">
<ele>76.8</ele>
<time>2013-05-08T18:33:15.000Z</time>
</trkpt>
<trkpt lat="43.432768" lon="3.593236">
<ele>77.2</ele>
<time>2013-05-08T18:33:16.000Z</time>
</trkpt>
<trkpt lat="43.432648" lon="3.593507">
<ele>77.7</ele>
<time>2013-05-08T18:33:17.000Z</time>
</trkpt>
<trkpt lat="43.432536" lon="3.593764">
<ele>78</ele>
<time>2013-05-08T18:33:18.000Z</time>
</trkpt>
<trkpt lat="43.432429" lon="3.594005">
<ele>78.3</ele>
<time>2013-05-08T18:33:19.000Z</time>
</trkpt>
<trkpt lat="43.432329" lon="3.594234">
<ele>78.4</ele>
<time>2013-05-08T18:33:20.000Z</time>
</trkpt>
<trkpt lat="43.432233" lon="3.59446">
<ele>78.2</ele>
<time>2013-05-08T18:33:21.000Z</time>
</trkpt>
<trkpt lat="43.432142" lon="3.594671">
<ele>78.1</ele>
<time>2013-05-08T18:33:22.000Z</time>
</trkpt>
<trkpt lat="43.43205" lon="3.594872">
<ele>78</ele>
<time>2013-05-08T18:33:23.000Z</time>
</trkpt>
<trkpt lat="43.431954" lon="3.595061">
<ele>77.8</ele>
<time>2013-05-08T18:33:24.000Z</time>
</trkpt>
<trkpt lat="43.431868" lon="3.595246">
<ele>77.5</ele>
<time>2013-05-08T18:33:25.000Z</time>
</trkpt>
<trkpt lat="43.431787" lon="3.595429">
<ele>77.4</ele>
<time>2013-05-08T18:33:26.000Z</time>
</trkpt>
<trkpt lat="43.431709" lon="3.595601">
<ele>77.4</ele>
<time>2013-05-08T18:33:27.000Z</time>
</trkpt>
<trkpt lat="43.431638" lon="3.595761">
<ele>77.4</ele>
<time>2013-05-08T18:33:28.000Z</time>
</trkpt>
<trkpt lat="43.431574" lon="3.595903">
<ele>77.4</ele>
<time>2013-05-08T18:33:29.000Z</time>
</trkpt>
<trkpt lat="43.431508" lon="3.596036">
<ele>77.3</ele>
<time>2013-05-08T18:33:30.000Z</time>
</trkpt>
<trkpt lat="43.431447" lon="3.596151">
<ele>77.4</ele>
<time>2013-05-08T18:33:31.000Z</time>
</trkpt>
<trkpt lat="43.431379" lon="3.596258">
<ele>77.3</ele>
<time>2013-05-08T18:33:32.000Z</time>
</trkpt>
<trkpt lat="43.431297" lon="3.596338">
<ele>77.1</ele>
<time>2013-05-08T18:33:33.000Z</time>
</trkpt>
<trkpt lat="43.431202" lon="3.596385">
<ele>76.6</ele>
<time>2013-05-08T18:33:34.000Z</time>
</trkpt>
<trkpt lat="43.431095" lon="3.596421">
<ele>76.1</ele>
<time>2013-05-08T18:33:35.000Z</time>
</trkpt>
<trkpt lat="43.430996" lon="3.596452">
<ele>75.5</ele>
<time>2013-05-08T18:33:36.000Z</time>
</trkpt>
<trkpt lat="43.430899" lon="3.596516">
<ele>75</ele>
<time>2013-05-08T18:33:37.000Z</time>
</trkpt>
<trkpt lat="43.430843" lon="3.596603">
<ele>74.6</ele>
<time>2013-05-08T18:33:38.000Z</time>
</trkpt>
<trkpt lat="43.430816" lon="3.596712">
<ele>74.3</ele>
<time>2013-05-08T18:33:39.000Z</time>
</trkpt>
<trkpt lat="43.43081" lon="3.596831">
<ele>73.8</ele>
<time>2013-05-08T18:33:40.000Z</time>
</trkpt>
<trkpt lat="43.430818" lon="3.596958">
<ele>73.6</ele>
<time>2013-05-08T18:33:41.000Z</time>
</trkpt>
<trkpt lat="43.430835" lon="3.597102">
<ele>73.3</ele>
<time>2013-05-08T18:33:42.000Z</time>
</trkpt>
<trkpt lat="43.430851" lon="3.597238">
<ele>73</ele>
<time>2013-05-08T18:33:43.000Z</time>
</trkpt>
<trkpt lat="43.430845" lon="3.597387">
<ele>72.7</ele>
<time>2013-05-08T18:33:44.000Z</time>
</trkpt>
<trkpt lat="43.430834" lon="3.597535">
<ele>72.1</ele>
<time>2013-05-08T18:33:45.000Z</time>
</trkpt>
<trkpt lat="43.430794" lon="3.597681">
<ele>71.8</ele>
<time>2013-05-08T18:33:46.000Z</time>
</trkpt>
<trkpt lat="43.430742" lon="3.597845">
<ele>71.8</ele>
<time>2013-05-08T18:33:47.000Z</time>
</trkpt>
<trkpt lat="43.430681" lon="3.598017">
<ele>71.8</ele>
<time>2013-05-08T18:33:48.000Z</time>
</trkpt>
<trkpt lat="43.430617" lon="3.598181">
<ele>72</ele>
<time>2013-05-08T18:33:49.000Z</time>
</trkpt>
<trkpt lat="43.43055" lon="3.598349">
<ele>72</ele>
<time>2013-05-08T18:33:50.000Z</time>
</trkpt>
<trkpt lat="43.430478" lon="3.598521">
<ele>72</ele>
<time>2013-05-08T18:33:51.000Z</time>
</trkpt>
<trkpt lat="43.430403" lon="3.598699">
<ele>72</ele>
<time>2013-05-08T18:33:52.000Z</time>
</trkpt>
<trkpt lat="43.430329" lon="3.598874">
<ele>72</ele>
<time>2013-05-08T18:33:53.000Z</time>
</trkpt>
<trkpt lat="43.430251" lon="3.599052">
<ele>71.9</ele>
<time>2013-05-08T18:33:54.000Z</time>
</trkpt>
<trkpt lat="43.430175" lon="3.59923">
<ele>71.9</ele>
<time>2013-05-08T18:33:55.000Z</time>
</trkpt>
<trkpt lat="43.430097" lon="3.599408">
<ele>72.4</ele>
<time>2013-05-08T18:33:56.000Z</time>
</trkpt>
<trkpt lat="43.43002" lon="3.599568">
<ele>72.3</ele>
<time>2013-05-08T18:33:57.000Z</time>
</trkpt>
<trkpt lat="43.429946" lon="3.599723">
<ele>72</ele>
<time>2013-05-08T18:33:58.000Z</time>
</trkpt>
<trkpt lat="43.429879" lon="3.599865">
<ele>71.5</ele>
<time>2013-05-08T18:33:59.000Z</time>
</trkpt>
<trkpt lat="43.429823" lon="3.599983">
<ele>70.9</ele>
<time>2013-05-08T18:34:00.000Z</time>
</trkpt>
<trkpt lat="43.42977" lon="3.600088">
<ele>71</ele>
<time>2013-05-08T18:34:01.000Z</time>
</trkpt>
<trkpt lat="43.429727" lon="3.600178">
<ele>70.7</ele>
<time>2013-05-08T18:34:02.000Z</time>
</trkpt>
<trkpt lat="43.429685" lon="3.600267">
<ele>70.2</ele>
<time>2013-05-08T18:34:03.000Z</time>
</trkpt>
<trkpt lat="43.429643" lon="3.60035">
<ele>69.8</ele>
<time>2013-05-08T18:34:04.000Z</time>
</trkpt>
<trkpt lat="43.4296" lon="3.600426">
<ele>69.6</ele>
<time>2013-05-08T18:34:05.000Z</time>
</trkpt>
<trkpt lat="43.429559" lon="3.600489">
<ele>69.4</ele>
<time>2013-05-08T18:34:06.000Z</time>
</trkpt>
<trkpt lat="43.429527" lon="3.600542">
<ele>69.1</ele>
<time>2013-05-08T18:34:07.000Z</time>
</trkpt>
<trkpt lat="43.429509" lon="3.600572">
<ele>69</ele>
<time>2013-05-08T18:34:08.000Z</time>
</trkpt>
<trkpt lat="43.429499" lon="3.600591">
<ele>69</ele>
<time>2013-05-08T18:34:09.000Z</time>
</trkpt>
<trkpt lat="43.429489" lon="3.600611">
<ele>68.7</ele>
<time>2013-05-08T18:34:21.000Z</time>
</trkpt>
<trkpt lat="43.429454" lon="3.600683">
<ele>67.9</ele>
<time>2013-05-08T18:34:22.000Z</time>
</trkpt>
<trkpt lat="43.429409" lon="3.600775">
<ele>67.3</ele>
<time>2013-05-08T18:34:23.000Z</time>
</trkpt>
<trkpt lat="43.429359" lon="3.600886">
<ele>66.7</ele>
<time>2013-05-08T18:34:24.000Z</time>
</trkpt>
<trkpt lat="43.429306" lon="3.601001">
<ele>65.8</ele>
<time>2013-05-08T18:34:25.000Z</time>
</trkpt>
<trkpt lat="43.429245" lon="3.601136">
<ele>65.5</ele>
<time>2013-05-08T18:34:26.000Z</time>
</trkpt>
<trkpt lat="43.429184" lon="3.601275">
<ele>65</ele>
<time>2013-05-08T18:34:27.000Z</time>
</trkpt>
<trkpt lat="43.429122" lon="3.601422">
<ele>64.9</ele>
<time>2013-05-08T18:34:28.000Z</time>
</trkpt>
<trkpt lat="43.429053" lon="3.601584">
<ele>64.6</ele>
<time>2013-05-08T18:34:29.000Z</time>
</trkpt>
<trkpt lat="43.428982" lon="3.601756">
<ele>64.9</ele>
<time>2013-05-08T18:34:30.000Z</time>
</trkpt>
<trkpt lat="43.428908" lon="3.601932">
<ele>65.3</ele>
<time>2013-05-08T18:34:31.000Z</time>
</trkpt>
<trkpt lat="43.428836" lon="3.602102">
<ele>65.7</ele>
<time>2013-05-08T18:34:32.000Z</time>
</trkpt>
<trkpt lat="43.428762" lon="3.60227">
<ele>66.2</ele>
<time>2013-05-08T18:34:33.000Z</time>
</trkpt>
<trkpt lat="43.428684" lon="3.60245">
<ele>66.4</ele>
<time>2013-05-08T18:34:34.000Z</time>
</trkpt>
<trkpt lat="43.428604" lon="3.602635">
<ele>66.3</ele>
<time>2013-05-08T18:34:35.000Z</time>
</trkpt>
<trkpt lat="43.428526" lon="3.602816">
<ele>66</ele>
<time>2013-05-08T18:34:36.000Z</time>
</trkpt>
<trkpt lat="43.42845" lon="3.602993">
<ele>65.6</ele>
<time>2013-05-08T18:34:37.000Z</time>
</trkpt>
<trkpt lat="43.428376" lon="3.603169">
<ele>65</ele>
<time>2013-05-08T18:34:38.000Z</time>
</trkpt>
<trkpt lat="43.428306" lon="3.603337">
<ele>64.5</ele>
<time>2013-05-08T18:34:39.000Z</time>
</trkpt>
<trkpt lat="43.428234" lon="3.603513">
<ele>64.5</ele>
<time>2013-05-08T18:34:40.000Z</time>
</trkpt>
<trkpt lat="43.428161" lon="3.603688">
<ele>64.9</ele>
<time>2013-05-08T18:34:41.000Z</time>
</trkpt>
<trkpt lat="43.428086" lon="3.603868">
<ele>65.1</ele>
<time>2013-05-08T18:34:42.000Z</time>
</trkpt>
<trkpt lat="43.428022" lon="3.604024">
<ele>65.2</ele>
<time>2013-05-08T18:34:43.000Z</time>
</trkpt>
<trkpt lat="43.42796" lon="3.604171">
<ele>65.2</ele>
<time>2013-05-08T18:34:44.000Z</time>
</trkpt>
<trkpt lat="43.427903" lon="3.604305">
<ele>65</ele>
<time>2013-05-08T18:34:45.000Z</time>
</trkpt>
<trkpt lat="43.427853" lon="3.604422">
<ele>64.8</ele>
<time>2013-05-08T18:34:46.000Z</time>
</trkpt>
<trkpt lat="43.427803" lon="3.604539">
<ele>64.7</ele>
<time>2013-05-08T18:34:47.000Z</time>
</trkpt>
<trkpt lat="43.427755" lon="3.604651">
<ele>64.5</ele>
<time>2013-05-08T18:34:48.000Z</time>
</trkpt>
<trkpt lat="43.4277" lon="3.604769">
<ele>63.5</ele>
<time>2013-05-08T18:34:49.000Z</time>
</trkpt>
<trkpt lat="43.427659" lon="3.60485">
<ele>62.4</ele>
<time>2013-05-08T18:34:50.000Z</time>
</trkpt>
<trkpt lat="43.427636" lon="3.604895">
<ele>61.4</ele>
<time>2013-05-08T18:34:51.000Z</time>
</trkpt>
<trkpt lat="43.42762" lon="3.604925">
<ele>61.4</ele>
<time>2013-05-08T18:34:52.000Z</time>
</trkpt>
<trkpt lat="43.427584" lon="3.60496">
<ele>61.2</ele>
<time>2013-05-08T18:34:54.000Z</time>
</trkpt>
<trkpt lat="43.427551" lon="3.604973">
<ele>61.2</ele>
<time>2013-05-08T18:34:55.000Z</time>
</trkpt>
<trkpt lat="43.427503" lon="3.604995">
<ele>60.8</ele>
<time>2013-05-08T18:34:56.000Z</time>
</trkpt>
<trkpt lat="43.427472" lon="3.605048">
<ele>61.1</ele>
<time>2013-05-08T18:34:57.000Z</time>
</trkpt>
<trkpt lat="43.427465" lon="3.605113">
<ele>61.6</ele>
<time>2013-05-08T18:34:58.000Z</time>
</trkpt>
<trkpt lat="43.427482" lon="3.605183">
<ele>62</ele>
<time>2013-05-08T18:34:59.000Z</time>
</trkpt>
<trkpt lat="43.427521" lon="3.605243">
<ele>62.1</ele>
<time>2013-05-08T18:35:00.000Z</time>
</trkpt>
<trkpt lat="43.427575" lon="3.605295">
<ele>62.1</ele>
<time>2013-05-08T18:35:01.000Z</time>
</trkpt>
<trkpt lat="43.42763" lon="3.605349">
<ele>62.6</ele>
<time>2013-05-08T18:35:02.000Z</time>
</trkpt>
<trkpt lat="43.427687" lon="3.605439">
<ele>62.6</ele>
<time>2013-05-08T18:35:03.000Z</time>
</trkpt>
<trkpt lat="43.427749" lon="3.605539">
<ele>62.6</ele>
<time>2013-05-08T18:35:04.000Z</time>
</trkpt>
<trkpt lat="43.427815" lon="3.605652">
<ele>62.6</ele>
<time>2013-05-08T18:35:05.000Z</time>
</trkpt>
<trkpt lat="43.427884" lon="3.605768">
<ele>62.6</ele>
<time>2013-05-08T18:35:06.000Z</time>
</trkpt>
<trkpt lat="43.427953" lon="3.605884">
<ele>62.4</ele>
<time>2013-05-08T18:35:07.000Z</time>
</trkpt>
<trkpt lat="43.428018" lon="3.606002">
<ele>62.1</ele>
<time>2013-05-08T18:35:08.000Z</time>
</trkpt>
<trkpt lat="43.428077" lon="3.60611">
<ele>61.8</ele>
<time>2013-05-08T18:35:09.000Z</time>
</trkpt>
<trkpt lat="43.428147" lon="3.606236">
<ele>61.2</ele>
<time>2013-05-08T18:35:10.000Z</time>
</trkpt>
<trkpt lat="43.428218" lon="3.606356">
<ele>60.5</ele>
<time>2013-05-08T18:35:11.000Z</time>
</trkpt>
<trkpt lat="43.428285" lon="3.606471">
<ele>60</ele>
<time>2013-05-08T18:35:12.000Z</time>
</trkpt>
<trkpt lat="43.428352" lon="3.606586">
<ele>59.9</ele>
<time>2013-05-08T18:35:13.000Z</time>
</trkpt>
<trkpt lat="43.428418" lon="3.606703">
<ele>59.9</ele>
<time>2013-05-08T18:35:14.000Z</time>
</trkpt>
<trkpt lat="43.428485" lon="3.606822">
<ele>60</ele>
<time>2013-05-08T18:35:15.000Z</time>
</trkpt>
<trkpt lat="43.428547" lon="3.606928">
<ele>59.8</ele>
<time>2013-05-08T18:35:16.000Z</time>
</trkpt>
<trkpt lat="43.428609" lon="3.607032">
<ele>59.7</ele>
<time>2013-05-08T18:35:17.000Z</time>
</trkpt>
<trkpt lat="43.428667" lon="3.607133">
<ele>59.4</ele>
<time>2013-05-08T18:35:18.000Z</time>
</trkpt>
<trkpt lat="43.428739" lon="3.607253">
<ele>58.9</ele>
<time>2013-05-08T18:35:19.000Z</time>
</trkpt>
<trkpt lat="43.428816" lon="3.607376">
<ele>58.5</ele>
<time>2013-05-08T18:35:20.000Z</time>
</trkpt>
<trkpt lat="43.428886" lon="3.607497">
<ele>57.9</ele>
<time>2013-05-08T18:35:21.000Z</time>
</trkpt>
<trkpt lat="43.428959" lon="3.607624">
<ele>57.6</ele>
<time>2013-05-08T18:35:22.000Z</time>
</trkpt>
<trkpt lat="43.429036" lon="3.607758">
<ele>57.3</ele>
<time>2013-05-08T18:35:23.000Z</time>
</trkpt>
<trkpt lat="43.429112" lon="3.60789">
<ele>57</ele>
<time>2013-05-08T18:35:24.000Z</time>
</trkpt>
<trkpt lat="43.429188" lon="3.60802">
<ele>57</ele>
<time>2013-05-08T18:35:25.000Z</time>
</trkpt>
<trkpt lat="43.429265" lon="3.608156">
<ele>57.3</ele>
<time>2013-05-08T18:35:26.000Z</time>
</trkpt>
<trkpt lat="43.429341" lon="3.608287">
<ele>57.3</ele>
<time>2013-05-08T18:35:27.000Z</time>
</trkpt>
<trkpt lat="43.429413" lon="3.608405">
<ele>56.9</ele>
<time>2013-05-08T18:35:28.000Z</time>
</trkpt>
<trkpt lat="43.429478" lon="3.608516">
<ele>56.3</ele>
<time>2013-05-08T18:35:29.000Z</time>
</trkpt>
<trkpt lat="43.429527" lon="3.608612">
<ele>55.9</ele>
<time>2013-05-08T18:35:30.000Z</time>
</trkpt>
<trkpt lat="43.42955" lon="3.60872">
<ele>55.5</ele>
<time>2013-05-08T18:35:31.000Z</time>
</trkpt>
<trkpt lat="43.429549" lon="3.608834">
<ele>55.3</ele>
<time>2013-05-08T18:35:32.000Z</time>
</trkpt>
<trkpt lat="43.429544" lon="3.608944">
<ele>55.7</ele>
<time>2013-05-08T18:35:33.000Z</time>
</trkpt>
<trkpt lat="43.429541" lon="3.609049">
<ele>55.6</ele>
<time>2013-05-08T18:35:34.000Z</time>
</trkpt>
<trkpt lat="43.429561" lon="3.609152">
<ele>55.5</ele>
<time>2013-05-08T18:35:35.000Z</time>
</trkpt>
<trkpt lat="43.429585" lon="3.609248">
<ele>55.2</ele>
<time>2013-05-08T18:35:36.000Z</time>
</trkpt>
<trkpt lat="43.42963" lon="3.609312">
<ele>55.2</ele>
<time>2013-05-08T18:35:37.000Z</time>
</trkpt>
<trkpt lat="43.429677" lon="3.609353">
<ele>55.4</ele>
<time>2013-05-08T18:35:38.000Z</time>
</trkpt>
<trkpt lat="43.429735" lon="3.609391">
<ele>55.9</ele>
<time>2013-05-08T18:35:39.000Z</time>
</trkpt>
<trkpt lat="43.429806" lon="3.60943">
<ele>56.1</ele>
<time>2013-05-08T18:35:40.000Z</time>
</trkpt>
<trkpt lat="43.429893" lon="3.609478">
<ele>56.4</ele>
<time>2013-05-08T18:35:41.000Z</time>
</trkpt>
<trkpt lat="43.429999" lon="3.609546">
<ele>56.5</ele>
<time>2013-05-08T18:35:42.000Z</time>
</trkpt>
<trkpt lat="43.430108" lon="3.609632">
<ele>56.6</ele>
<time>2013-05-08T18:35:43.000Z</time>
</trkpt>
<trkpt lat="43.430206" lon="3.609766">
<ele>57</ele>
<time>2013-05-08T18:35:44.000Z</time>
</trkpt>
<trkpt lat="43.430312" lon="3.609916">
<ele>57.2</ele>
<time>2013-05-08T18:35:45.000Z</time>
</trkpt>
<trkpt lat="43.43042" lon="3.610075">
<ele>57.3</ele>
<time>2013-05-08T18:35:46.000Z</time>
</trkpt>
<trkpt lat="43.430526" lon="3.610242">
<ele>57.3</ele>
<time>2013-05-08T18:35:47.000Z</time>
</trkpt>
<trkpt lat="43.43063" lon="3.610415">
<ele>57.3</ele>
<time>2013-05-08T18:35:48.000Z</time>
</trkpt>
<trkpt lat="43.43074" lon="3.6106">
<ele>57.5</ele>
<time>2013-05-08T18:35:49.000Z</time>
</trkpt>
<trkpt lat="43.430848" lon="3.610788">
<ele>57.6</ele>
<time>2013-05-08T18:35:50.000Z</time>
</trkpt>
<trkpt lat="43.430951" lon="3.610968">
<ele>57.5</ele>
<time>2013-05-08T18:35:51.000Z</time>
</trkpt>
<trkpt lat="43.431051" lon="3.611146">
<ele>57.4</ele>
<time>2013-05-08T18:35:52.000Z</time>
</trkpt>
<trkpt lat="43.431155" lon="3.611331">
<ele>57.3</ele>
<time>2013-05-08T18:35:53.000Z</time>
</trkpt>
<trkpt lat="43.431263" lon="3.611519">
<ele>57.2</ele>
<time>2013-05-08T18:35:54.000Z</time>
</trkpt>
<trkpt lat="43.431375" lon="3.611712">
<ele>57.1</ele>
<time>2013-05-08T18:35:55.000Z</time>
</trkpt>
<trkpt lat="43.431494" lon="3.611917">
<ele>57</ele>
<time>2013-05-08T18:35:56.000Z</time>
</trkpt>
<trkpt lat="43.431609" lon="3.612132">
<ele>56.9</ele>
<time>2013-05-08T18:35:57.000Z</time>
</trkpt>
<trkpt lat="43.431722" lon="3.612351">
<ele>57</ele>
<time>2013-05-08T18:35:58.000Z</time>
</trkpt>
<trkpt lat="43.431847" lon="3.612573">
<ele>57.1</ele>
<time>2013-05-08T18:35:59.000Z</time>
</trkpt>
<trkpt lat="43.43198" lon="3.612799">
<ele>57.2</ele>
<time>2013-05-08T18:36:00.000Z</time>
</trkpt>
<trkpt lat="43.432116" lon="3.613027">
<ele>57.4</ele>
<time>2013-05-08T18:36:01.000Z</time>
</trkpt>
<trkpt lat="43.432249" lon="3.613253">
<ele>57.5</ele>
<time>2013-05-08T18:36:02.000Z</time>
</trkpt>
<trkpt lat="43.432387" lon="3.613468">
<ele>57.6</ele>
<time>2013-05-08T18:36:03.000Z</time>
</trkpt>
<trkpt lat="43.432519" lon="3.613677">
<ele>57.8</ele>
<time>2013-05-08T18:36:04.000Z</time>
</trkpt>
<trkpt lat="43.432648" lon="3.613886">
<ele>58.1</ele>
<time>2013-05-08T18:36:05.000Z</time>
</trkpt>
<trkpt lat="43.432768" lon="3.614095">
<ele>58.4</ele>
<time>2013-05-08T18:36:06.000Z</time>
</trkpt>
<trkpt lat="43.432884" lon="3.614294">
<ele>58.7</ele>
<time>2013-05-08T18:36:07.000Z</time>
</trkpt>
<trkpt lat="43.432996" lon="3.614484">
<ele>59.1</ele>
<time>2013-05-08T18:36:08.000Z</time>
</trkpt>
<trkpt lat="43.4331" lon="3.61466">
<ele>59.4</ele>
<time>2013-05-08T18:36:09.000Z</time>
</trkpt>
<trkpt lat="43.433203" lon="3.614837">
<ele>59.6</ele>
<time>2013-05-08T18:36:10.000Z</time>
</trkpt>
<trkpt lat="43.433316" lon="3.615023">
<ele>59.4</ele>
<time>2013-05-08T18:36:11.000Z</time>
</trkpt>
<trkpt lat="43.43344" lon="3.615226">
<ele>59.1</ele>
<time>2013-05-08T18:36:12.000Z</time>
</trkpt>
<trkpt lat="43.433569" lon="3.615437">
<ele>58.8</ele>
<time>2013-05-08T18:36:13.000Z</time>
</trkpt>
<trkpt lat="43.4337" lon="3.615653">
<ele>58.6</ele>
<time>2013-05-08T18:36:14.000Z</time>
</trkpt>
<trkpt lat="43.433834" lon="3.615866">
<ele>58.4</ele>
<time>2013-05-08T18:36:15.000Z</time>
</trkpt>
<trkpt lat="43.433968" lon="3.616084">
<ele>58.2</ele>
<time>2013-05-08T18:36:16.000Z</time>
</trkpt>
<trkpt lat="43.434103" lon="3.616315">
<ele>58.2</ele>
<time>2013-05-08T18:36:17.000Z</time>
</trkpt>
<trkpt lat="43.434239" lon="3.616545">
<ele>58.2</ele>
<time>2013-05-08T18:36:18.000Z</time>
</trkpt>
<trkpt lat="43.434374" lon="3.616771">
<ele>58.1</ele>
<time>2013-05-08T18:36:19.000Z</time>
</trkpt>
<trkpt lat="43.434503" lon="3.61699">
<ele>58.1</ele>
<time>2013-05-08T18:36:20.000Z</time>
</trkpt>
<trkpt lat="43.43463" lon="3.617204">
<ele>58.2</ele>
<time>2013-05-08T18:36:21.000Z</time>
</trkpt>
<trkpt lat="43.434753" lon="3.617406">
<ele>58.4</ele>
<time>2013-05-08T18:36:22.000Z</time>
</trkpt>
<trkpt lat="43.434872" lon="3.617606">
<ele>58.7</ele>
<time>2013-05-08T18:36:23.000Z</time>
</trkpt>
<trkpt lat="43.434992" lon="3.617814">
<ele>58.9</ele>
<time>2013-05-08T18:36:24.000Z</time>
</trkpt>
<trkpt lat="43.435122" lon="3.618037">
<ele>58.6</ele>
<time>2013-05-08T18:36:25.000Z</time>
</trkpt>
<trkpt lat="43.435262" lon="3.618257">
<ele>58</ele>
<time>2013-05-08T18:36:26.000Z</time>
</trkpt>
<trkpt lat="43.435398" lon="3.61847">
<ele>57.4</ele>
<time>2013-05-08T18:36:27.000Z</time>
</trkpt>
<trkpt lat="43.435532" lon="3.618677">
<ele>56.9</ele>
<time>2013-05-08T18:36:28.000Z</time>
</trkpt>
<trkpt lat="43.435669" lon="3.618891">
<ele>56.4</ele>
<time>2013-05-08T18:36:29.000Z</time>
</trkpt>
<trkpt lat="43.435809" lon="3.619113">
<ele>55.9</ele>
<time>2013-05-08T18:36:30.000Z</time>
</trkpt>
<trkpt lat="43.435953" lon="3.619341">
<ele>55.7</ele>
<time>2013-05-08T18:36:31.000Z</time>
</trkpt>
<trkpt lat="43.436103" lon="3.619586">
<ele>55.6</ele>
<time>2013-05-08T18:36:32.000Z</time>
</trkpt>
<trkpt lat="43.436259" lon="3.619857">
<ele>55.8</ele>
<time>2013-05-08T18:36:33.000Z</time>
</trkpt>
<trkpt lat="43.436424" lon="3.620137">
<ele>55.8</ele>
<time>2013-05-08T18:36:34.000Z</time>
</trkpt>
<trkpt lat="43.436594" lon="3.620428">
<ele>56.2</ele>
<time>2013-05-08T18:36:35.000Z</time>
</trkpt>
<trkpt lat="43.43678" lon="3.620739">
<ele>56.8</ele>
<time>2013-05-08T18:36:36.000Z</time>
</trkpt>
<trkpt lat="43.436981" lon="3.621076">
<ele>57.3</ele>
<time>2013-05-08T18:36:37.000Z</time>
</trkpt>
<trkpt lat="43.43717" lon="3.621404">
<ele>58</ele>
<time>2013-05-08T18:36:38.000Z</time>
</trkpt>
<trkpt lat="43.437355" lon="3.621721">
<ele>58.1</ele>
<time>2013-05-08T18:36:39.000Z</time>
</trkpt>
<trkpt lat="43.437535" lon="3.622027">
<ele>58</ele>
<time>2013-05-08T18:36:40.000Z</time>
</trkpt>
<trkpt lat="43.437709" lon="3.622319">
<ele>57.9</ele>
<time>2013-05-08T18:36:41.000Z</time>
</trkpt>
<trkpt lat="43.437869" lon="3.622588">
<ele>57.6</ele>
<time>2013-05-08T18:36:42.000Z</time>
</trkpt>
<trkpt lat="43.438033" lon="3.622867">
<ele>57.6</ele>
<time>2013-05-08T18:36:43.000Z</time>
</trkpt>
<trkpt lat="43.438197" lon="3.623154">
<ele>57.8</ele>
<time>2013-05-08T18:36:44.000Z</time>
</trkpt>
<trkpt lat="43.438365" lon="3.623442">
<ele>57.9</ele>
<time>2013-05-08T18:36:45.000Z</time>
</trkpt>
<trkpt lat="43.438535" lon="3.62374">
<ele>57.9</ele>
<time>2013-05-08T18:36:46.000Z</time>
</trkpt>
<trkpt lat="43.438722" lon="3.624053">
<ele>57.8</ele>
<time>2013-05-08T18:36:47.000Z</time>
</trkpt>
<trkpt lat="43.43891" lon="3.624365">
<ele>57.9</ele>
<time>2013-05-08T18:36:48.000Z</time>
</trkpt>
<trkpt lat="43.439101" lon="3.624684">
<ele>58.2</ele>
<time>2013-05-08T18:36:49.000Z</time>
</trkpt>
<trkpt lat="43.439295" lon="3.625002">
<ele>58.6</ele>
<time>2013-05-08T18:36:50.000Z</time>
</trkpt>
<trkpt lat="43.43949" lon="3.625323">
<ele>59</ele>
<time>2013-05-08T18:36:51.000Z</time>
</trkpt>
<trkpt lat="43.439688" lon="3.625646">
<ele>59.2</ele>
<time>2013-05-08T18:36:52.000Z</time>
</trkpt>
<trkpt lat="43.43988" lon="3.625966">
<ele>59.2</ele>
<time>2013-05-08T18:36:53.000Z</time>
</trkpt>
<trkpt lat="43.440068" lon="3.626279">
<ele>59.2</ele>
<time>2013-05-08T18:36:54.000Z</time>
</trkpt>
<trkpt lat="43.440252" lon="3.626586">
<ele>59.3</ele>
<time>2013-05-08T18:36:55.000Z</time>
</trkpt>
<trkpt lat="43.440436" lon="3.626895">
<ele>59.6</ele>
<time>2013-05-08T18:36:56.000Z</time>
</trkpt>
<trkpt lat="43.440622" lon="3.627205">
<ele>59.8</ele>
<time>2013-05-08T18:36:57.000Z</time>
</trkpt>
<trkpt lat="43.440806" lon="3.62751">
<ele>60</ele>
<time>2013-05-08T18:36:58.000Z</time>
</trkpt>
<trkpt lat="43.440985" lon="3.627816">
<ele>60.1</ele>
<time>2013-05-08T18:36:59.000Z</time>
</trkpt>
<trkpt lat="43.441168" lon="3.628123">
<ele>60.2</ele>
<time>2013-05-08T18:37:00.000Z</time>
</trkpt>
<trkpt lat="43.441351" lon="3.628426">
<ele>60.5</ele>
<time>2013-05-08T18:37:01.000Z</time>
</trkpt>
<trkpt lat="43.441535" lon="3.628729">
<ele>60.9</ele>
<time>2013-05-08T18:37:02.000Z</time>
</trkpt>
<trkpt lat="43.441717" lon="3.629029">
<ele>61</ele>
<time>2013-05-08T18:37:03.000Z</time>
</trkpt>
<trkpt lat="43.441897" lon="3.629327">
<ele>61</ele>
<time>2013-05-08T18:37:04.000Z</time>
</trkpt>
<trkpt lat="43.442075" lon="3.629623">
<ele>60.9</ele>
<time>2013-05-08T18:37:05.000Z</time>
</trkpt>
<trkpt lat="43.442256" lon="3.629927">
<ele>60.9</ele>
<time>2013-05-08T18:37:06.000Z</time>
</trkpt>
<trkpt lat="43.442439" lon="3.630232">
<ele>60.9</ele>
<time>2013-05-08T18:37:07.000Z</time>
</trkpt>
<trkpt lat="43.442623" lon="3.630539">
<ele>60.9</ele>
<time>2013-05-08T18:37:08.000Z</time>
</trkpt>
<trkpt lat="43.442814" lon="3.630854">
<ele>60.6</ele>
<time>2013-05-08T18:37:09.000Z</time>
</trkpt>
<trkpt lat="43.443" lon="3.631164">
<ele>60.8</ele>
<time>2013-05-08T18:37:10.000Z</time>
</trkpt>
<trkpt lat="43.44319" lon="3.631485">
<ele>61</ele>
<time>2013-05-08T18:37:11.000Z</time>
</trkpt>
<trkpt lat="43.443379" lon="3.6318">
<ele>61.1</ele>
<time>2013-05-08T18:37:12.000Z</time>
</trkpt>
<trkpt lat="43.443561" lon="3.632105">
<ele>61.5</ele>
<time>2013-05-08T18:37:13.000Z</time>
</trkpt>
<trkpt lat="43.44374" lon="3.632405">
<ele>62.2</ele>
<time>2013-05-08T18:37:14.000Z</time>
</trkpt>
<trkpt lat="43.443913" lon="3.632695">
<ele>63.1</ele>
<time>2013-05-08T18:37:15.000Z</time>
</trkpt>
<trkpt lat="43.444084" lon="3.632982">
<ele>64</ele>
<time>2013-05-08T18:37:16.000Z</time>
</trkpt>
<trkpt lat="43.44425" lon="3.633257">
<ele>64.6</ele>
<time>2013-05-08T18:37:17.000Z</time>
</trkpt>
<trkpt lat="43.444405" lon="3.633527">
<ele>65.2</ele>
<time>2013-05-08T18:37:18.000Z</time>
</trkpt>
<trkpt lat="43.444551" lon="3.633803">
<ele>65.8</ele>
<time>2013-05-08T18:37:19.000Z</time>
</trkpt>
<trkpt lat="43.444683" lon="3.63409">
<ele>66.5</ele>
<time>2013-05-08T18:37:20.000Z</time>
</trkpt>
<trkpt lat="43.444794" lon="3.634378">
<ele>67.3</ele>
<time>2013-05-08T18:37:21.000Z</time>
</trkpt>
<trkpt lat="43.444906" lon="3.634666">
<ele>67.9</ele>
<time>2013-05-08T18:37:22.000Z</time>
</trkpt>
<trkpt lat="43.445014" lon="3.63497">
<ele>68.4</ele>
<time>2013-05-08T18:37:23.000Z</time>
</trkpt>
<trkpt lat="43.445123" lon="3.635281">
<ele>69.1</ele>
<time>2013-05-08T18:37:24.000Z</time>
</trkpt>
<trkpt lat="43.445235" lon="3.635597">
<ele>69.7</ele>
<time>2013-05-08T18:37:25.000Z</time>
</trkpt>
<trkpt lat="43.445351" lon="3.63592">
<ele>70.1</ele>
<time>2013-05-08T18:37:26.000Z</time>
</trkpt>
<trkpt lat="43.445467" lon="3.636248">
<ele>70.5</ele>
<time>2013-05-08T18:37:27.000Z</time>
</trkpt>
<trkpt lat="43.445584" lon="3.636577">
<ele>70.6</ele>
<time>2013-05-08T18:37:28.000Z</time>
</trkpt>
<trkpt lat="43.4457" lon="3.636901">
<ele>70.8</ele>
<time>2013-05-08T18:37:29.000Z</time>
</trkpt>
<trkpt lat="43.445816" lon="3.637225">
<ele>70.9</ele>
<time>2013-05-08T18:37:30.000Z</time>
</trkpt>
<trkpt lat="43.44593" lon="3.637548">
<ele>70.9</ele>
<time>2013-05-08T18:37:31.000Z</time>
</trkpt>
<trkpt lat="43.44604" lon="3.637872">
<ele>70.8</ele>
<time>2013-05-08T18:37:32.000Z</time>
</trkpt>
<trkpt lat="43.44615" lon="3.63819">
<ele>70.6</ele>
<time>2013-05-08T18:37:33.000Z</time>
</trkpt>
<trkpt lat="43.446259" lon="3.638499">
<ele>70.4</ele>
<time>2013-05-08T18:37:34.000Z</time>
</trkpt>
<trkpt lat="43.446369" lon="3.638812">
<ele>70.1</ele>
<time>2013-05-08T18:37:35.000Z</time>
</trkpt>
<trkpt lat="43.44648" lon="3.639124">
<ele>69.7</ele>
<time>2013-05-08T18:37:36.000Z</time>
</trkpt>
<trkpt lat="43.44659" lon="3.639435">
<ele>69.2</ele>
<time>2013-05-08T18:37:37.000Z</time>
</trkpt>
<trkpt lat="43.446699" lon="3.639746">
<ele>68.8</ele>
<time>2013-05-08T18:37:38.000Z</time>
</trkpt>
<trkpt lat="43.446813" lon="3.640054">
<ele>68.5</ele>
<time>2013-05-08T18:37:39.000Z</time>
</trkpt>
<trkpt lat="43.446923" lon="3.640366">
<ele>68.4</ele>
<time>2013-05-08T18:37:40.000Z</time>
</trkpt>
<trkpt lat="43.447032" lon="3.640683">
<ele>68.2</ele>
<time>2013-05-08T18:37:41.000Z</time>
</trkpt>
<trkpt lat="43.447152" lon="3.640995">
<ele>68.2</ele>
<time>2013-05-08T18:37:42.000Z</time>
</trkpt>
<trkpt lat="43.447276" lon="3.641298">
<ele>68.3</ele>
<time>2013-05-08T18:37:43.000Z</time>
</trkpt>
<trkpt lat="43.447405" lon="3.641596">
<ele>68.4</ele>
<time>2013-05-08T18:37:44.000Z</time>
</trkpt>
<trkpt lat="43.447535" lon="3.641879">
<ele>68.5</ele>
<time>2013-05-08T18:37:45.000Z</time>
</trkpt>
<trkpt lat="43.447655" lon="3.642149">
<ele>68.6</ele>
<time>2013-05-08T18:37:46.000Z</time>
</trkpt>
<trkpt lat="43.447766" lon="3.642405">
<ele>68.6</ele>
<time>2013-05-08T18:37:47.000Z</time>
</trkpt>
<trkpt lat="43.447876" lon="3.642646">
<ele>68.4</ele>
<time>2013-05-08T18:37:48.000Z</time>
</trkpt>
<trkpt lat="43.447987" lon="3.642879">
<ele>68.2</ele>
<time>2013-05-08T18:37:49.000Z</time>
</trkpt>
<trkpt lat="43.448093" lon="3.643097">
<ele>67.9</ele>
<time>2013-05-08T18:37:50.000Z</time>
</trkpt>
<trkpt lat="43.448192" lon="3.643299">
<ele>67.5</ele>
<time>2013-05-08T18:37:51.000Z</time>
</trkpt>
<trkpt lat="43.448287" lon="3.643492">
<ele>67.1</ele>
<time>2013-05-08T18:37:52.000Z</time>
</trkpt>
<trkpt lat="43.44838" lon="3.64368">
<ele>66.7</ele>
<time>2013-05-08T18:37:53.000Z</time>
</trkpt>
<trkpt lat="43.448467" lon="3.643853">
<ele>66.1</ele>
<time>2013-05-08T18:37:54.000Z</time>
</trkpt>
<trkpt lat="43.448544" lon="3.644008">
<ele>65.6</ele>
<time>2013-05-08T18:37:55.000Z</time>
</trkpt>
<trkpt lat="43.448614" lon="3.644152">
<ele>65.1</ele>
<time>2013-05-08T18:37:56.000Z</time>
</trkpt>
<trkpt lat="43.448679" lon="3.644292">
<ele>64.7</ele>
<time>2013-05-08T18:37:57.000Z</time>
</trkpt>
<trkpt lat="43.448749" lon="3.644441">
<ele>64.2</ele>
<time>2013-05-08T18:37:58.000Z</time>
</trkpt>
<trkpt lat="43.448818" lon="3.644588">
<ele>63.5</ele>
<time>2013-05-08T18:37:59.000Z</time>
</trkpt>
<trkpt lat="43.448877" lon="3.644726">
<ele>63.3</ele>
<time>2013-05-08T18:38:00.000Z</time>
</trkpt>
<trkpt lat="43.448914" lon="3.644872">
<ele>62.9</ele>
<time>2013-05-08T18:38:01.000Z</time>
</trkpt>
<trkpt lat="43.448922" lon="3.645004">
<ele>62.2</ele>
<time>2013-05-08T18:38:02.000Z</time>
</trkpt>
<trkpt lat="43.448929" lon="3.645126">
<ele>61.9</ele>
<time>2013-05-08T18:38:03.000Z</time>
</trkpt>
<trkpt lat="43.448938" lon="3.645245">
<ele>62.1</ele>
<time>2013-05-08T18:38:04.000Z</time>
</trkpt>
<trkpt lat="43.448989" lon="3.645347">
<ele>62.5</ele>
<time>2013-05-08T18:38:05.000Z</time>
</trkpt>
<trkpt lat="43.449066" lon="3.645412">
<ele>62.5</ele>
<time>2013-05-08T18:38:06.000Z</time>
</trkpt>
<trkpt lat="43.449159" lon="3.645485">
<ele>62.3</ele>
<time>2013-05-08T18:38:07.000Z</time>
</trkpt>
<trkpt lat="43.449271" lon="3.645584">
<ele>62.1</ele>
<time>2013-05-08T18:38:08.000Z</time>
</trkpt>
<trkpt lat="43.449359" lon="3.645733">
<ele>61.8</ele>
<time>2013-05-08T18:38:09.000Z</time>
</trkpt>
<trkpt lat="43.44945" lon="3.645907">
<ele>61.5</ele>
<time>2013-05-08T18:38:10.000Z</time>
</trkpt>
<trkpt lat="43.449538" lon="3.646087">
<ele>61.1</ele>
<time>2013-05-08T18:38:11.000Z</time>
</trkpt>
<trkpt lat="43.449629" lon="3.646275">
<ele>60.6</ele>
<time>2013-05-08T18:38:12.000Z</time>
</trkpt>
<trkpt lat="43.449729" lon="3.646478">
<ele>60</ele>
<time>2013-05-08T18:38:13.000Z</time>
</trkpt>
<trkpt lat="43.449831" lon="3.646687">
<ele>59.9</ele>
<time>2013-05-08T18:38:14.000Z</time>
</trkpt>
<trkpt lat="43.449932" lon="3.646895">
<ele>59.8</ele>
<time>2013-05-08T18:38:15.000Z</time>
</trkpt>
<trkpt lat="43.450023" lon="3.647103">
<ele>60.5</ele>
<time>2013-05-08T18:38:16.000Z</time>
</trkpt>
<trkpt lat="43.450124" lon="3.647331">
<ele>61.1</ele>
<time>2013-05-08T18:38:17.000Z</time>
</trkpt>
<trkpt lat="43.450225" lon="3.647572">
<ele>61.7</ele>
<time>2013-05-08T18:38:18.000Z</time>
</trkpt>
<trkpt lat="43.450333" lon="3.647815">
<ele>62.8</ele>
<time>2013-05-08T18:38:19.000Z</time>
</trkpt>
<trkpt lat="43.450451" lon="3.648072">
<ele>64.1</ele>
<time>2013-05-08T18:38:20.000Z</time>
</trkpt>
<trkpt lat="43.450578" lon="3.64835">
<ele>65</ele>
<time>2013-05-08T18:38:21.000Z</time>
</trkpt>
<trkpt lat="43.450715" lon="3.648641">
<ele>65.3</ele>
<time>2013-05-08T18:38:22.000Z</time>
</trkpt>
<trkpt lat="43.450849" lon="3.648927">
<ele>65.5</ele>
<time>2013-05-08T18:38:23.000Z</time>
</trkpt>
<trkpt lat="43.450984" lon="3.64921">
<ele>65.7</ele>
<time>2013-05-08T18:38:24.000Z</time>
</trkpt>
<trkpt lat="43.451118" lon="3.649491">
<ele>65.9</ele>
<time>2013-05-08T18:38:25.000Z</time>
</trkpt>
<trkpt lat="43.451247" lon="3.649769">
<ele>66.4</ele>
<time>2013-05-08T18:38:26.000Z</time>
</trkpt>
<trkpt lat="43.451378" lon="3.650047">
<ele>66.8</ele>
<time>2013-05-08T18:38:27.000Z</time>
</trkpt>
<trkpt lat="43.45151" lon="3.650326">
<ele>67</ele>
<time>2013-05-08T18:38:28.000Z</time>
</trkpt>
<trkpt lat="43.451639" lon="3.650604">
<ele>67.3</ele>
<time>2013-05-08T18:38:29.000Z</time>
</trkpt>
<trkpt lat="43.451762" lon="3.650862">
<ele>67.5</ele>
<time>2013-05-08T18:38:30.000Z</time>
</trkpt>
<trkpt lat="43.45188" lon="3.651111">
<ele>67.4</ele>
<time>2013-05-08T18:38:31.000Z</time>
</trkpt>
<trkpt lat="43.451991" lon="3.651349">
<ele>67.3</ele>
<time>2013-05-08T18:38:32.000Z</time>
</trkpt>
<trkpt lat="43.452096" lon="3.65157">
<ele>66.9</ele>
<time>2013-05-08T18:38:33.000Z</time>
</trkpt>
<trkpt lat="43.452198" lon="3.651781">
<ele>66.4</ele>
<time>2013-05-08T18:38:34.000Z</time>
</trkpt>
<trkpt lat="43.452294" lon="3.651986">
<ele>65.9</ele>
<time>2013-05-08T18:38:35.000Z</time>
</trkpt>
<trkpt lat="43.45238" lon="3.652175">
<ele>66</ele>
<time>2013-05-08T18:38:36.000Z</time>
</trkpt>
<trkpt lat="43.45246" lon="3.652356">
<ele>66.3</ele>
<time>2013-05-08T18:38:37.000Z</time>
</trkpt>
<trkpt lat="43.452541" lon="3.652526">
<ele>66.3</ele>
<time>2013-05-08T18:38:38.000Z</time>
</trkpt>
<trkpt lat="43.452614" lon="3.652688">
<ele>66.7</ele>
<time>2013-05-08T18:38:39.000Z</time>
</trkpt>
<trkpt lat="43.452677" lon="3.652841">
<ele>67.2</ele>
<time>2013-05-08T18:38:40.000Z</time>
</trkpt>
<trkpt lat="43.452737" lon="3.652986">
<ele>67.6</ele>
<time>2013-05-08T18:38:41.000Z</time>
</trkpt>
<trkpt lat="43.452801" lon="3.653128">
<ele>67.9</ele>
<time>2013-05-08T18:38:42.000Z</time>
</trkpt>
<trkpt lat="43.452863" lon="3.653266">
<ele>67.8</ele>
<time>2013-05-08T18:38:43.000Z</time>
</trkpt>
<trkpt lat="43.452923" lon="3.653396">
<ele>67.8</ele>
<time>2013-05-08T18:38:44.000Z</time>
</trkpt>
<trkpt lat="43.452969" lon="3.653508">
<ele>68</ele>
<time>2013-05-08T18:38:45.000Z</time>
</trkpt>
<trkpt lat="43.453012" lon="3.653618">
<ele>68.2</ele>
<time>2013-05-08T18:38:46.000Z</time>
</trkpt>
<trkpt lat="43.453049" lon="3.653721">
<ele>68.4</ele>
<time>2013-05-08T18:38:47.000Z</time>
</trkpt>
<trkpt lat="43.45308" lon="3.653822">
<ele>68.7</ele>
<time>2013-05-08T18:38:48.000Z</time>
</trkpt>
<trkpt lat="43.4531" lon="3.653943">
<ele>68.7</ele>
<time>2013-05-08T18:38:49.000Z</time>
</trkpt>
<trkpt lat="43.453114" lon="3.654061">
<ele>68.8</ele>
<time>2013-05-08T18:38:50.000Z</time>
</trkpt>
<trkpt lat="43.453131" lon="3.654171">
<ele>68.9</ele>
<time>2013-05-08T18:38:51.000Z</time>
</trkpt>
<trkpt lat="43.453177" lon="3.654246">
<ele>69.5</ele>
<time>2013-05-08T18:38:52.000Z</time>
</trkpt>
<trkpt lat="43.45324" lon="3.654309">
<ele>70.3</ele>
<time>2013-05-08T18:38:53.000Z</time>
</trkpt>
<trkpt lat="43.453318" lon="3.654381">
<ele>71.1</ele>
<time>2013-05-08T18:38:54.000Z</time>
</trkpt>
<trkpt lat="43.453401" lon="3.654461">
<ele>71.8</ele>
<time>2013-05-08T18:38:55.000Z</time>
</trkpt>
<trkpt lat="43.453485" lon="3.654599">
<ele>72.2</ele>
<time>2013-05-08T18:38:56.000Z</time>
</trkpt>
<trkpt lat="43.453569" lon="3.65475">
<ele>72.4</ele>
<time>2013-05-08T18:38:57.000Z</time>
</trkpt>
<trkpt lat="43.45365" lon="3.654905">
<ele>72.8</ele>
<time>2013-05-08T18:38:58.000Z</time>
</trkpt>
<trkpt lat="43.453737" lon="3.655081">
<ele>73.2</ele>
<time>2013-05-08T18:38:59.000Z</time>
</trkpt>
<trkpt lat="43.453828" lon="3.655271">
<ele>73.5</ele>
<time>2013-05-08T18:39:00.000Z</time>
</trkpt>
<trkpt lat="43.453918" lon="3.655468">
<ele>73.9</ele>
<time>2013-05-08T18:39:01.000Z</time>
</trkpt>
<trkpt lat="43.454011" lon="3.65568">
<ele>74</ele>
<time>2013-05-08T18:39:02.000Z</time>
</trkpt>
<trkpt lat="43.454107" lon="3.655894">
<ele>74.1</ele>
<time>2013-05-08T18:39:03.000Z</time>
</trkpt>
<trkpt lat="43.454206" lon="3.656116">
<ele>74.1</ele>
<time>2013-05-08T18:39:04.000Z</time>
</trkpt>
<trkpt lat="43.454306" lon="3.656336">
<ele>74.3</ele>
<time>2013-05-08T18:39:05.000Z</time>
</trkpt>
<trkpt lat="43.454407" lon="3.656559">
<ele>74.4</ele>
<time>2013-05-08T18:39:06.000Z</time>
</trkpt>
<trkpt lat="43.454508" lon="3.656781">
<ele>74.5</ele>
<time>2013-05-08T18:39:07.000Z</time>
</trkpt>
<trkpt lat="43.454611" lon="3.657003">
<ele>74.6</ele>
<time>2013-05-08T18:39:08.000Z</time>
</trkpt>
<trkpt lat="43.454718" lon="3.657233">
<ele>74.5</ele>
<time>2013-05-08T18:39:09.000Z</time>
</trkpt>
<trkpt lat="43.454832" lon="3.657461">
<ele>74.1</ele>
<time>2013-05-08T18:39:10.000Z</time>
</trkpt>
<trkpt lat="43.454953" lon="3.657703">
<ele>74</ele>
<time>2013-05-08T18:39:11.000Z</time>
</trkpt>
<trkpt lat="43.455075" lon="3.65795">
<ele>74.1</ele>
<time>2013-05-08T18:39:12.000Z</time>
</trkpt>
<trkpt lat="43.455191" lon="3.658189">
<ele>74.3</ele>
<time>2013-05-08T18:39:13.000Z</time>
</trkpt>
<trkpt lat="43.455295" lon="3.658417">
<ele>74.8</ele>
<time>2013-05-08T18:39:14.000Z</time>
</trkpt>
<trkpt lat="43.455399" lon="3.658637">
<ele>75.6</ele>
<time>2013-05-08T18:39:15.000Z</time>
</trkpt>
<trkpt lat="43.455507" lon="3.658865">
<ele>76.7</ele>
<time>2013-05-08T18:39:16.000Z</time>
</trkpt>
<trkpt lat="43.455619" lon="3.659103">
<ele>77.4</ele>
<time>2013-05-08T18:39:17.000Z</time>
</trkpt>
<trkpt lat="43.455741" lon="3.65932">
<ele>78.2</ele>
<time>2013-05-08T18:39:18.000Z</time>
</trkpt>
<trkpt lat="43.455868" lon="3.659534">
<ele>78.9</ele>
<time>2013-05-08T18:39:19.000Z</time>
</trkpt>
<trkpt lat="43.456009" lon="3.659744">
<ele>79.4</ele>
<time>2013-05-08T18:39:20.000Z</time>
</trkpt>
<trkpt lat="43.456165" lon="3.659959">
<ele>80.1</ele>
<time>2013-05-08T18:39:21.000Z</time>
</trkpt>
<trkpt lat="43.456335" lon="3.660177">
<ele>80.9</ele>
<time>2013-05-08T18:39:22.000Z</time>
</trkpt>
<trkpt lat="43.456517" lon="3.66039">
<ele>81.7</ele>
<time>2013-05-08T18:39:23.000Z</time>
</trkpt>
<trkpt lat="43.456705" lon="3.66059">
<ele>82.2</ele>
<time>2013-05-08T18:39:24.000Z</time>
</trkpt>
<trkpt lat="43.456906" lon="3.660782">
<ele>82.6</ele>
<time>2013-05-08T18:39:25.000Z</time>
</trkpt>
<trkpt lat="43.457122" lon="3.660983">
<ele>82.7</ele>
<time>2013-05-08T18:39:26.000Z</time>
</trkpt>
<trkpt lat="43.457346" lon="3.661209">
<ele>83</ele>
<time>2013-05-08T18:39:27.000Z</time>
</trkpt>
<trkpt lat="43.457578" lon="3.661443">
<ele>83.1</ele>
<time>2013-05-08T18:39:28.000Z</time>
</trkpt>
<trkpt lat="43.457811" lon="3.661673">
<ele>83.1</ele>
<time>2013-05-08T18:39:29.000Z</time>
</trkpt>
<trkpt lat="43.458039" lon="3.66189">
<ele>82.8</ele>
<time>2013-05-08T18:39:30.000Z</time>
</trkpt>
<trkpt lat="43.458266" lon="3.662096">
<ele>82.4</ele>
<time>2013-05-08T18:39:31.000Z</time>
</trkpt>
<trkpt lat="43.458488" lon="3.662303">
<ele>82.2</ele>
<time>2013-05-08T18:39:32.000Z</time>
</trkpt>
<trkpt lat="43.458705" lon="3.662503">
<ele>81.6</ele>
<time>2013-05-08T18:39:33.000Z</time>
</trkpt>
<trkpt lat="43.458914" lon="3.662699">
<ele>81</ele>
<time>2013-05-08T18:39:34.000Z</time>
</trkpt>
<trkpt lat="43.459114" lon="3.662887">
<ele>80.1</ele>
<time>2013-05-08T18:39:35.000Z</time>
</trkpt>
<trkpt lat="43.459311" lon="3.663071">
<ele>79.1</ele>
<time>2013-05-08T18:39:36.000Z</time>
</trkpt>
<trkpt lat="43.459504" lon="3.663251">
<ele>77.9</ele>
<time>2013-05-08T18:39:37.000Z</time>
</trkpt>
<trkpt lat="43.459698" lon="3.663432">
<ele>77</ele>
<time>2013-05-08T18:39:38.000Z</time>
</trkpt>
<trkpt lat="43.459893" lon="3.663615">
<ele>75.9</ele>
<time>2013-05-08T18:39:39.000Z</time>
</trkpt>
<trkpt lat="43.460084" lon="3.663793">
<ele>75</ele>
<time>2013-05-08T18:39:40.000Z</time>
</trkpt>
<trkpt lat="43.460273" lon="3.66397">
<ele>74</ele>
<time>2013-05-08T18:39:41.000Z</time>
</trkpt>
<trkpt lat="43.46046" lon="3.664144">
<ele>72.9</ele>
<time>2013-05-08T18:39:42.000Z</time>
</trkpt>
<trkpt lat="43.460653" lon="3.664317">
<ele>71.8</ele>
<time>2013-05-08T18:39:43.000Z</time>
</trkpt>
<trkpt lat="43.460846" lon="3.664492">
<ele>70.5</ele>
<time>2013-05-08T18:39:44.000Z</time>
</trkpt>
<trkpt lat="43.461034" lon="3.664666">
<ele>69.6</ele>
<time>2013-05-08T18:39:45.000Z</time>
</trkpt>
<trkpt lat="43.461221" lon="3.66484">
<ele>68.6</ele>
<time>2013-05-08T18:39:46.000Z</time>
</trkpt>
<trkpt lat="43.461407" lon="3.665018">
<ele>67.6</ele>
<time>2013-05-08T18:39:47.000Z</time>
</trkpt>
<trkpt lat="43.461596" lon="3.665199">
<ele>66.5</ele>
<time>2013-05-08T18:39:48.000Z</time>
</trkpt>
<trkpt lat="43.461786" lon="3.665383">
<ele>65.6</ele>
<time>2013-05-08T18:39:49.000Z</time>
</trkpt>
<trkpt lat="43.461976" lon="3.665561">
<ele>64.7</ele>
<time>2013-05-08T18:39:50.000Z</time>
</trkpt>
<trkpt lat="43.46216" lon="3.665732">
<ele>63.8</ele>
<time>2013-05-08T18:39:51.000Z</time>
</trkpt>
<trkpt lat="43.462349" lon="3.665906">
<ele>62.8</ele>
<time>2013-05-08T18:39:52.000Z</time>
</trkpt>
<trkpt lat="43.462555" lon="3.666084">
<ele>61.8</ele>
<time>2013-05-08T18:39:53.000Z</time>
</trkpt>
<trkpt lat="43.462777" lon="3.666279">
<ele>60.9</ele>
<time>2013-05-08T18:39:54.000Z</time>
</trkpt>
<trkpt lat="43.463011" lon="3.666495">
<ele>60.1</ele>
<time>2013-05-08T18:39:55.000Z</time>
</trkpt>
<trkpt lat="43.463246" lon="3.666724">
<ele>59.6</ele>
<time>2013-05-08T18:39:56.000Z</time>
</trkpt>
<trkpt lat="43.463471" lon="3.666945">
<ele>59.1</ele>
<time>2013-05-08T18:39:57.000Z</time>
</trkpt>
<trkpt lat="43.463694" lon="3.667162">
<ele>58.6</ele>
<time>2013-05-08T18:39:58.000Z</time>
</trkpt>
<trkpt lat="43.463917" lon="3.667371">
<ele>58.1</ele>
<time>2013-05-08T18:39:59.000Z</time>
</trkpt>
<trkpt lat="43.46414" lon="3.667578">
<ele>57.7</ele>
<time>2013-05-08T18:40:00.000Z</time>
</trkpt>
<trkpt lat="43.464363" lon="3.667785">
<ele>57.3</ele>
<time>2013-05-08T18:40:01.000Z</time>
</trkpt>
<trkpt lat="43.46458" lon="3.667992">
<ele>56.9</ele>
<time>2013-05-08T18:40:02.000Z</time>
</trkpt>
<trkpt lat="43.464788" lon="3.668204">
<ele>56.6</ele>
<time>2013-05-08T18:40:03.000Z</time>
</trkpt>
<trkpt lat="43.464993" lon="3.668414">
<ele>56.4</ele>
<time>2013-05-08T18:40:04.000Z</time>
</trkpt>
<trkpt lat="43.465191" lon="3.668632">
<ele>56.3</ele>
<time>2013-05-08T18:40:05.000Z</time>
</trkpt>
<trkpt lat="43.465375" lon="3.668848">
<ele>56.5</ele>
<time>2013-05-08T18:40:06.000Z</time>
</trkpt>
<trkpt lat="43.465552" lon="3.669053">
<ele>56.6</ele>
<time>2013-05-08T18:40:07.000Z</time>
</trkpt>
<trkpt lat="43.465726" lon="3.669251">
<ele>56.6</ele>
<time>2013-05-08T18:40:08.000Z</time>
</trkpt>
<trkpt lat="43.465896" lon="3.669446">
<ele>56.4</ele>
<time>2013-05-08T18:40:09.000Z</time>
</trkpt>
<trkpt lat="43.466066" lon="3.669642">
<ele>56.3</ele>
<time>2013-05-08T18:40:10.000Z</time>
</trkpt>
<trkpt lat="43.466236" lon="3.669836">
<ele>56.2</ele>
<time>2013-05-08T18:40:11.000Z</time>
</trkpt>
<trkpt lat="43.466406" lon="3.670031">
<ele>56.1</ele>
<time>2013-05-08T18:40:12.000Z</time>
</trkpt>
<trkpt lat="43.466577" lon="3.670227">
<ele>55.9</ele>
<time>2013-05-08T18:40:13.000Z</time>
</trkpt>
<trkpt lat="43.466747" lon="3.670428">
<ele>55.7</ele>
<time>2013-05-08T18:40:14.000Z</time>
</trkpt>
<trkpt lat="43.466921" lon="3.670644">
<ele>55.8</ele>
<time>2013-05-08T18:40:15.000Z</time>
</trkpt>
<trkpt lat="43.467074" lon="3.670886">
<ele>55.9</ele>
<time>2013-05-08T18:40:16.000Z</time>
</trkpt>
<trkpt lat="43.467226" lon="3.671145">
<ele>55.8</ele>
<time>2013-05-08T18:40:17.000Z</time>
</trkpt>
<trkpt lat="43.467387" lon="3.671435">
<ele>55.7</ele>
<time>2013-05-08T18:40:18.000Z</time>
</trkpt>
<trkpt lat="43.467561" lon="3.671752">
<ele>55.6</ele>
<time>2013-05-08T18:40:19.000Z</time>
</trkpt>
<trkpt lat="43.467732" lon="3.672054">
<ele>55.5</ele>
<time>2013-05-08T18:40:20.000Z</time>
</trkpt>
<trkpt lat="43.467911" lon="3.672354">
<ele>55.4</ele>
<time>2013-05-08T18:40:21.000Z</time>
</trkpt>
<trkpt lat="43.468091" lon="3.672657">
<ele>55.5</ele>
<time>2013-05-08T18:40:22.000Z</time>
</trkpt>
<trkpt lat="43.46827" lon="3.672972">
<ele>55.9</ele>
<time>2013-05-08T18:40:23.000Z</time>
</trkpt>
<trkpt lat="43.468436" lon="3.673288">
<ele>56.3</ele>
<time>2013-05-08T18:40:24.000Z</time>
</trkpt>
<trkpt lat="43.468601" lon="3.673602">
<ele>56.6</ele>
<time>2013-05-08T18:40:25.000Z</time>
</trkpt>
<trkpt lat="43.468763" lon="3.673909">
<ele>56.9</ele>
<time>2013-05-08T18:40:26.000Z</time>
</trkpt>
<trkpt lat="43.468917" lon="3.674198">
<ele>57.2</ele>
<time>2013-05-08T18:40:27.000Z</time>
</trkpt>
<trkpt lat="43.469066" lon="3.674467">
<ele>57.5</ele>
<time>2013-05-08T18:40:28.000Z</time>
</trkpt>
<trkpt lat="43.469208" lon="3.674722">
<ele>57.7</ele>
<time>2013-05-08T18:40:29.000Z</time>
</trkpt>
<trkpt lat="43.469352" lon="3.674979">
<ele>58</ele>
<time>2013-05-08T18:40:30.000Z</time>
</trkpt>
<trkpt lat="43.469498" lon="3.675238">
<ele>58.2</ele>
<time>2013-05-08T18:40:31.000Z</time>
</trkpt>
<trkpt lat="43.469648" lon="3.675504">
<ele>58.5</ele>
<time>2013-05-08T18:40:32.000Z</time>
</trkpt>
<trkpt lat="43.469805" lon="3.675773">
<ele>58.7</ele>
<time>2013-05-08T18:40:33.000Z</time>
</trkpt>
<trkpt lat="43.469971" lon="3.676046">
<ele>58.8</ele>
<time>2013-05-08T18:40:34.000Z</time>
</trkpt>
<trkpt lat="43.470139" lon="3.676326">
<ele>58.9</ele>
<time>2013-05-08T18:40:35.000Z</time>
</trkpt>
<trkpt lat="43.470302" lon="3.67662">
<ele>59.1</ele>
<time>2013-05-08T18:40:36.000Z</time>
</trkpt>
<trkpt lat="43.470457" lon="3.676914">
<ele>59.1</ele>
<time>2013-05-08T18:40:37.000Z</time>
</trkpt>
<trkpt lat="43.470598" lon="3.677221">
<ele>59.1</ele>
<time>2013-05-08T18:40:38.000Z</time>
</trkpt>
<trkpt lat="43.47073" lon="3.677545">
<ele>59</ele>
<time>2013-05-08T18:40:39.000Z</time>
</trkpt>
<trkpt lat="43.470847" lon="3.677865">
<ele>58.9</ele>
<time>2013-05-08T18:40:40.000Z</time>
</trkpt>
<trkpt lat="43.470954" lon="3.678191">
<ele>58.9</ele>
<time>2013-05-08T18:40:41.000Z</time>
</trkpt>
<trkpt lat="43.471054" lon="3.678503">
<ele>59</ele>
<time>2013-05-08T18:40:42.000Z</time>
</trkpt>
<trkpt lat="43.471148" lon="3.678794">
<ele>58.9</ele>
<time>2013-05-08T18:40:43.000Z</time>
</trkpt>
<trkpt lat="43.471233" lon="3.679081">
<ele>59</ele>
<time>2013-05-08T18:40:44.000Z</time>
</trkpt>
<trkpt lat="43.471316" lon="3.679357">
<ele>59.1</ele>
<time>2013-05-08T18:40:45.000Z</time>
</trkpt>
<trkpt lat="43.471393" lon="3.679618">
<ele>59.2</ele>
<time>2013-05-08T18:40:46.000Z</time>
</trkpt>
<trkpt lat="43.471467" lon="3.679886">
<ele>59.3</ele>
<time>2013-05-08T18:40:47.000Z</time>
</trkpt>
<trkpt lat="43.471534" lon="3.680141">
<ele>59.2</ele>
<time>2013-05-08T18:40:48.000Z</time>
</trkpt>
<trkpt lat="43.471596" lon="3.680423">
<ele>59.4</ele>
<time>2013-05-08T18:40:49.000Z</time>
</trkpt>
<trkpt lat="43.47166" lon="3.680724">
<ele>59.8</ele>
<time>2013-05-08T18:40:50.000Z</time>
</trkpt>
<trkpt lat="43.471727" lon="3.681032">
<ele>60.3</ele>
<time>2013-05-08T18:40:51.000Z</time>
</trkpt>
<trkpt lat="43.471806" lon="3.681339">
<ele>60.5</ele>
<time>2013-05-08T18:40:52.000Z</time>
</trkpt>
<trkpt lat="43.471891" lon="3.681657">
<ele>60.5</ele>
<time>2013-05-08T18:40:53.000Z</time>
</trkpt>
<trkpt lat="43.471978" lon="3.681986">
<ele>60.6</ele>
<time>2013-05-08T18:40:54.000Z</time>
</trkpt>
<trkpt lat="43.472066" lon="3.682322">
<ele>60.7</ele>
<time>2013-05-08T18:40:55.000Z</time>
</trkpt>
<trkpt lat="43.472158" lon="3.682665">
<ele>60.8</ele>
<time>2013-05-08T18:40:56.000Z</time>
</trkpt>
<trkpt lat="43.472251" lon="3.683018">
<ele>60.9</ele>
<time>2013-05-08T18:40:57.000Z</time>
</trkpt>
<trkpt lat="43.472346" lon="3.683381">
<ele>61</ele>
<time>2013-05-08T18:40:58.000Z</time>
</trkpt>
<trkpt lat="43.472441" lon="3.683755">
<ele>61.3</ele>
<time>2013-05-08T18:40:59.000Z</time>
</trkpt>
<trkpt lat="43.472538" lon="3.684132">
<ele>61.6</ele>
<time>2013-05-08T18:41:00.000Z</time>
</trkpt>
<trkpt lat="43.472635" lon="3.684515">
<ele>61.9</ele>
<time>2013-05-08T18:41:01.000Z</time>
</trkpt>
<trkpt lat="43.472733" lon="3.6849">
<ele>62.3</ele>
<time>2013-05-08T18:41:02.000Z</time>
</trkpt>
<trkpt lat="43.472831" lon="3.685278">
<ele>62.6</ele>
<time>2013-05-08T18:41:03.000Z</time>
</trkpt>
<trkpt lat="43.472938" lon="3.685663">
<ele>63.2</ele>
<time>2013-05-08T18:41:04.000Z</time>
</trkpt>
<trkpt lat="43.473047" lon="3.686046">
<ele>63.8</ele>
<time>2013-05-08T18:41:05.000Z</time>
</trkpt>
<trkpt lat="43.473169" lon="3.686425">
<ele>64.4</ele>
<time>2013-05-08T18:41:06.000Z</time>
</trkpt>
<trkpt lat="43.473295" lon="3.686813">
<ele>65</ele>
<time>2013-05-08T18:41:07.000Z</time>
</trkpt>
<trkpt lat="43.473432" lon="3.687176">
<ele>65.2</ele>
<time>2013-05-08T18:41:08.000Z</time>
</trkpt>
<trkpt lat="43.473599" lon="3.687534">
<ele>65.6</ele>
<time>2013-05-08T18:41:09.000Z</time>
</trkpt>
<trkpt lat="43.47377" lon="3.687895">
<ele>65.9</ele>
<time>2013-05-08T18:41:10.000Z</time>
</trkpt>
<trkpt lat="43.473948" lon="3.688236">
<ele>66.3</ele>
<time>2013-05-08T18:41:11.000Z</time>
</trkpt>
<trkpt lat="43.474138" lon="3.688567">
<ele>66.6</ele>
<time>2013-05-08T18:41:12.000Z</time>
</trkpt>
<trkpt lat="43.474335" lon="3.688893">
<ele>66.9</ele>
<time>2013-05-08T18:41:13.000Z</time>
</trkpt>
<trkpt lat="43.474538" lon="3.689208">
<ele>67.3</ele>
<time>2013-05-08T18:41:14.000Z</time>
</trkpt>
<trkpt lat="43.474751" lon="3.689514">
<ele>67.8</ele>
<time>2013-05-08T18:41:15.000Z</time>
</trkpt>
<trkpt lat="43.474976" lon="3.689811">
<ele>68.3</ele>
<time>2013-05-08T18:41:16.000Z</time>
</trkpt>
<trkpt lat="43.475205" lon="3.690109">
<ele>68.8</ele>
<time>2013-05-08T18:41:17.000Z</time>
</trkpt>
<trkpt lat="43.475444" lon="3.690394">
<ele>69.2</ele>
<time>2013-05-08T18:41:18.000Z</time>
</trkpt>
<trkpt lat="43.475688" lon="3.690674">
<ele>69.5</ele>
<time>2013-05-08T18:41:19.000Z</time>
</trkpt>
<trkpt lat="43.47593" lon="3.690955">
<ele>69.9</ele>
<time>2013-05-08T18:41:20.000Z</time>
</trkpt>
<trkpt lat="43.476171" lon="3.691239">
<ele>70.2</ele>
<time>2013-05-08T18:41:21.000Z</time>
</trkpt>
<trkpt lat="43.476413" lon="3.691524">
<ele>70.7</ele>
<time>2013-05-08T18:41:22.000Z</time>
</trkpt>
<trkpt lat="43.476651" lon="3.691804">
<ele>70.9</ele>
<time>2013-05-08T18:41:23.000Z</time>
</trkpt>
<trkpt lat="43.476889" lon="3.692087">
<ele>71.2</ele>
<time>2013-05-08T18:41:24.000Z</time>
</trkpt>
<trkpt lat="43.477125" lon="3.692369">
<ele>71.4</ele>
<time>2013-05-08T18:41:25.000Z</time>
</trkpt>
<trkpt lat="43.47736" lon="3.692644">
<ele>71.6</ele>
<time>2013-05-08T18:41:26.000Z</time>
</trkpt>
<trkpt lat="43.477595" lon="3.692924">
<ele>71.8</ele>
<time>2013-05-08T18:41:27.000Z</time>
</trkpt>
<trkpt lat="43.477826" lon="3.693204">
<ele>72.1</ele>
<time>2013-05-08T18:41:28.000Z</time>
</trkpt>
<trkpt lat="43.478055" lon="3.69348">
<ele>72.4</ele>
<time>2013-05-08T18:41:29.000Z</time>
</trkpt>
<trkpt lat="43.478285" lon="3.693752">
<ele>72.5</ele>
<time>2013-05-08T18:41:30.000Z</time>
</trkpt>
<trkpt lat="43.478513" lon="3.694024">
<ele>72.6</ele>
<time>2013-05-08T18:41:31.000Z</time>
</trkpt>
<trkpt lat="43.478742" lon="3.694297">
<ele>72.7</ele>
<time>2013-05-08T18:41:32.000Z</time>
</trkpt>
<trkpt lat="43.47897" lon="3.694568">
<ele>72.6</ele>
<time>2013-05-08T18:41:33.000Z</time>
</trkpt>
<trkpt lat="43.4792" lon="3.694839">
<ele>72.6</ele>
<time>2013-05-08T18:41:34.000Z</time>
</trkpt>
<trkpt lat="43.47943" lon="3.695115">
<ele>72.4</ele>
<time>2013-05-08T18:41:35.000Z</time>
</trkpt>
<trkpt lat="43.479664" lon="3.695392">
<ele>72.1</ele>
<time>2013-05-08T18:41:36.000Z</time>
</trkpt>
<trkpt lat="43.479899" lon="3.695672">
<ele>71.9</ele>
<time>2013-05-08T18:41:37.000Z</time>
</trkpt>
<trkpt lat="43.480139" lon="3.695958">
<ele>71.7</ele>
<time>2013-05-08T18:41:38.000Z</time>
</trkpt>
<trkpt lat="43.480381" lon="3.696245">
<ele>71.3</ele>
<time>2013-05-08T18:41:39.000Z</time>
</trkpt>
<trkpt lat="43.480624" lon="3.696531">
<ele>71</ele>
<time>2013-05-08T18:41:40.000Z</time>
</trkpt>
<trkpt lat="43.480866" lon="3.696815">
<ele>70.5</ele>
<time>2013-05-08T18:41:41.000Z</time>
</trkpt>
<trkpt lat="43.481111" lon="3.697101">
<ele>70.2</ele>
<time>2013-05-08T18:41:42.000Z</time>
</trkpt>
<trkpt lat="43.481358" lon="3.697379">
<ele>69.9</ele>
<time>2013-05-08T18:41:43.000Z</time>
</trkpt>
<trkpt lat="43.481597" lon="3.697647">
<ele>69.6</ele>
<time>2013-05-08T18:41:44.000Z</time>
</trkpt>
<trkpt lat="43.481846" lon="3.697893">
<ele>69.2</ele>
<time>2013-05-08T18:41:45.000Z</time>
</trkpt>
<trkpt lat="43.482092" lon="3.69813">
<ele>69</ele>
<time>2013-05-08T18:41:46.000Z</time>
</trkpt>
<trkpt lat="43.482338" lon="3.698348">
<ele>68.8</ele>
<time>2013-05-08T18:41:47.000Z</time>
</trkpt>
<trkpt lat="43.482593" lon="3.698544">
<ele>68.8</ele>
<time>2013-05-08T18:41:48.000Z</time>
</trkpt>
<trkpt lat="43.482837" lon="3.698727">
<ele>68.6</ele>
<time>2013-05-08T18:41:49.000Z</time>
</trkpt>
<trkpt lat="43.483076" lon="3.698906">
<ele>68.7</ele>
<time>2013-05-08T18:41:50.000Z</time>
</trkpt>
<trkpt lat="43.483308" lon="3.699061">
<ele>68.8</ele>
<time>2013-05-08T18:41:51.000Z</time>
</trkpt>
<trkpt lat="43.483531" lon="3.699212">
<ele>69.2</ele>
<time>2013-05-08T18:41:52.000Z</time>
</trkpt>
<trkpt lat="43.483756" lon="3.699353">
<ele>69.9</ele>
<time>2013-05-08T18:41:53.000Z</time>
</trkpt>
<trkpt lat="43.483979" lon="3.699492">
<ele>70.6</ele>
<time>2013-05-08T18:41:54.000Z</time>
</trkpt>
<trkpt lat="43.484196" lon="3.699633">
<ele>71.1</ele>
<time>2013-05-08T18:41:55.000Z</time>
</trkpt>
<trkpt lat="43.484404" lon="3.699764">
<ele>71.5</ele>
<time>2013-05-08T18:41:56.000Z</time>
</trkpt>
<trkpt lat="43.484619" lon="3.699896">
<ele>71.6</ele>
<time>2013-05-08T18:41:57.000Z</time>
</trkpt>
<trkpt lat="43.484831" lon="3.700027">
<ele>71.5</ele>
<time>2013-05-08T18:41:58.000Z</time>
</trkpt>
<trkpt lat="43.485027" lon="3.700148">
<ele>71.6</ele>
<time>2013-05-08T18:41:59.000Z</time>
</trkpt>
<trkpt lat="43.485228" lon="3.700273">
<ele>71.9</ele>
<time>2013-05-08T18:42:00.000Z</time>
</trkpt>
<trkpt lat="43.48544" lon="3.700409">
<ele>72.1</ele>
<time>2013-05-08T18:42:01.000Z</time>
</trkpt>
<trkpt lat="43.485654" lon="3.700558">
<ele>72.2</ele>
<time>2013-05-08T18:42:02.000Z</time>
</trkpt>
<trkpt lat="43.485873" lon="3.700727">
<ele>72.8</ele>
<time>2013-05-08T18:42:03.000Z</time>
</trkpt>
<trkpt lat="43.486089" lon="3.70089">
<ele>73.7</ele>
<time>2013-05-08T18:42:04.000Z</time>
</trkpt>
<trkpt lat="43.486305" lon="3.70106">
<ele>74.7</ele>
<time>2013-05-08T18:42:05.000Z</time>
</trkpt>
<trkpt lat="43.486514" lon="3.701228">
<ele>75.6</ele>
<time>2013-05-08T18:42:06.000Z</time>
</trkpt>
<trkpt lat="43.486718" lon="3.701387">
<ele>76.4</ele>
<time>2013-05-08T18:42:07.000Z</time>
</trkpt>
<trkpt lat="43.486915" lon="3.701542">
<ele>77.2</ele>
<time>2013-05-08T18:42:08.000Z</time>
</trkpt>
<trkpt lat="43.48711" lon="3.701701">
<ele>78.2</ele>
<time>2013-05-08T18:42:09.000Z</time>
</trkpt>
<trkpt lat="43.487299" lon="3.701863">
<ele>79</ele>
<time>2013-05-08T18:42:10.000Z</time>
</trkpt>
<trkpt lat="43.487493" lon="3.702026">
<ele>79.8</ele>
<time>2013-05-08T18:42:11.000Z</time>
</trkpt>
<trkpt lat="43.487682" lon="3.702197">
<ele>80.6</ele>
<time>2013-05-08T18:42:12.000Z</time>
</trkpt>
<trkpt lat="43.487861" lon="3.702383">
<ele>81.1</ele>
<time>2013-05-08T18:42:13.000Z</time>
</trkpt>
<trkpt lat="43.488035" lon="3.702571">
<ele>81.7</ele>
<time>2013-05-08T18:42:14.000Z</time>
</trkpt>
<trkpt lat="43.488196" lon="3.702755">
<ele>82.1</ele>
<time>2013-05-08T18:42:15.000Z</time>
</trkpt>
<trkpt lat="43.488351" lon="3.70293">
<ele>82.3</ele>
<time>2013-05-08T18:42:16.000Z</time>
</trkpt>
<trkpt lat="43.488497" lon="3.703099">
<ele>82.7</ele>
<time>2013-05-08T18:42:17.000Z</time>
</trkpt>
<trkpt lat="43.488629" lon="3.703262">
<ele>83</ele>
<time>2013-05-08T18:42:18.000Z</time>
</trkpt>
<trkpt lat="43.488746" lon="3.703419">
<ele>83.3</ele>
<time>2013-05-08T18:42:19.000Z</time>
</trkpt>
<trkpt lat="43.488861" lon="3.703578">
<ele>83.3</ele>
<time>2013-05-08T18:42:20.000Z</time>
</trkpt>
<trkpt lat="43.488963" lon="3.70372">
<ele>83.2</ele>
<time>2013-05-08T18:42:21.000Z</time>
</trkpt>
<trkpt lat="43.489051" lon="3.703843">
<ele>83.2</ele>
<time>2013-05-08T18:42:22.000Z</time>
</trkpt>
<trkpt lat="43.48913" lon="3.703951">
<ele>83.2</ele>
<time>2013-05-08T18:42:23.000Z</time>
</trkpt>
<trkpt lat="43.489201" lon="3.704049">
<ele>83.3</ele>
<time>2013-05-08T18:42:24.000Z</time>
</trkpt>
<trkpt lat="43.489239" lon="3.704166">
<ele>83.3</ele>
<time>2013-05-08T18:42:25.000Z</time>
</trkpt>
<trkpt lat="43.489254" lon="3.704293">
<ele>83</ele>
<time>2013-05-08T18:42:26.000Z</time>
</trkpt>
<trkpt lat="43.489267" lon="3.704416">
<ele>83.1</ele>
<time>2013-05-08T18:42:27.000Z</time>
</trkpt>
<trkpt lat="43.489286" lon="3.704547">
<ele>83.6</ele>
<time>2013-05-08T18:42:28.000Z</time>
</trkpt>
<trkpt lat="43.489337" lon="3.704658">
<ele>84.2</ele>
<time>2013-05-08T18:42:29.000Z</time>
</trkpt>
<trkpt lat="43.489409" lon="3.704744">
<ele>84.6</ele>
<time>2013-05-08T18:42:30.000Z</time>
</trkpt>
<trkpt lat="43.489496" lon="3.704828">
<ele>84.6</ele>
<time>2013-05-08T18:42:31.000Z</time>
</trkpt>
<trkpt lat="43.489591" lon="3.704866">
<ele>84.5</ele>
<time>2013-05-08T18:42:32.000Z</time>
</trkpt>
<trkpt lat="43.489692" lon="3.704873">
<ele>84.4</ele>
<time>2013-05-08T18:42:33.000Z</time>
</trkpt>
<trkpt lat="43.489788" lon="3.70487">
<ele>84.1</ele>
<time>2013-05-08T18:42:34.000Z</time>
</trkpt>
<trkpt lat="43.489896" lon="3.704869">
<ele>83.6</ele>
<time>2013-05-08T18:42:35.000Z</time>
</trkpt>
<trkpt lat="43.490014" lon="3.704907">
<ele>83</ele>
<time>2013-05-08T18:42:36.000Z</time>
</trkpt>
<trkpt lat="43.49014" lon="3.704993">
<ele>82.5</ele>
<time>2013-05-08T18:42:36.999Z</time>
</trkpt>
<trkpt lat="43.49027" lon="3.705096">
<ele>82.2</ele>
<time>2013-05-08T18:42:37.999Z</time>
</trkpt>
<trkpt lat="43.490385" lon="3.705208">
<ele>82.8</ele>
<time>2013-05-08T18:42:38.999Z</time>
</trkpt>
<trkpt lat="43.490513" lon="3.705342">
<ele>83.5</ele>
<time>2013-05-08T18:42:39.999Z</time>
</trkpt>
<trkpt lat="43.490655" lon="3.705492">
<ele>84.3</ele>
<time>2013-05-08T18:42:40.999Z</time>
</trkpt>
<trkpt lat="43.490805" lon="3.705647">
<ele>84.9</ele>
<time>2013-05-08T18:42:41.999Z</time>
</trkpt>
<trkpt lat="43.490954" lon="3.705813">
<ele>85.2</ele>
<time>2013-05-08T18:42:42.999Z</time>
</trkpt>
<trkpt lat="43.491089" lon="3.705976">
<ele>85.8</ele>
<time>2013-05-08T18:42:43.999Z</time>
</trkpt>
<trkpt lat="43.491219" lon="3.706139">
<ele>86.6</ele>
<time>2013-05-08T18:42:44.999Z</time>
</trkpt>
<trkpt lat="43.491346" lon="3.706296">
<ele>87.4</ele>
<time>2013-05-08T18:42:45.999Z</time>
</trkpt>
<trkpt lat="43.491464" lon="3.706431">
<ele>88.1</ele>
<time>2013-05-08T18:42:46.999Z</time>
</trkpt>
<trkpt lat="43.491574" lon="3.706552">
<ele>88.7</ele>
<time>2013-05-08T18:42:47.999Z</time>
</trkpt>
<trkpt lat="43.491683" lon="3.706664">
<ele>89.4</ele>
<time>2013-05-08T18:42:48.999Z</time>
</trkpt>
<trkpt lat="43.491789" lon="3.706772">
<ele>90</ele>
<time>2013-05-08T18:42:49.999Z</time>
</trkpt>
<trkpt lat="43.491895" lon="3.706873">
<ele>90.5</ele>
<time>2013-05-08T18:42:50.999Z</time>
</trkpt>
<trkpt lat="43.492003" lon="3.706975">
<ele>91.1</ele>
<time>2013-05-08T18:42:51.999Z</time>
</trkpt>
<trkpt lat="43.492111" lon="3.707072">
<ele>91.5</ele>
<time>2013-05-08T18:42:52.999Z</time>
</trkpt>
<trkpt lat="43.492216" lon="3.707162">
<ele>91.8</ele>
<time>2013-05-08T18:42:53.999Z</time>
</trkpt>
<trkpt lat="43.49232" lon="3.707249">
<ele>92</ele>
<time>2013-05-08T18:42:54.999Z</time>
</trkpt>
<trkpt lat="43.492423" lon="3.707334">
<ele>92.1</ele>
<time>2013-05-08T18:42:55.999Z</time>
</trkpt>
<trkpt lat="43.492533" lon="3.707424">
<ele>92.1</ele>
<time>2013-05-08T18:42:56.999Z</time>
</trkpt>
<trkpt lat="43.492635" lon="3.707504">
<ele>92.4</ele>
<time>2013-05-08T18:42:57.999Z</time>
</trkpt>
<trkpt lat="43.492748" lon="3.707591">
<ele>92.7</ele>
<time>2013-05-08T18:42:58.999Z</time>
</trkpt>
<trkpt lat="43.492865" lon="3.707681">
<ele>92.9</ele>
<time>2013-05-08T18:42:59.999Z</time>
</trkpt>
<trkpt lat="43.492993" lon="3.707774">
<ele>92.9</ele>
<time>2013-05-08T18:43:00.999Z</time>
</trkpt>
<trkpt lat="43.493113" lon="3.707864">
<ele>93.2</ele>
<time>2013-05-08T18:43:01.999Z</time>
</trkpt>
<trkpt lat="43.493231" lon="3.707957">
<ele>93.5</ele>
<time>2013-05-08T18:43:02.999Z</time>
</trkpt>
<trkpt lat="43.493346" lon="3.708047">
<ele>93.7</ele>
<time>2013-05-08T18:43:03.999Z</time>
</trkpt>
<trkpt lat="43.493463" lon="3.708139">
<ele>93.8</ele>
<time>2013-05-08T18:43:04.999Z</time>
</trkpt>
<trkpt lat="43.493582" lon="3.708232">
<ele>93.8</ele>
<time>2013-05-08T18:43:05.999Z</time>
</trkpt>
<trkpt lat="43.493693" lon="3.708317">
<ele>93.9</ele>
<time>2013-05-08T18:43:06.999Z</time>
</trkpt>
<trkpt lat="43.493804" lon="3.708402">
<ele>93.9</ele>
<time>2013-05-08T18:43:07.999Z</time>
</trkpt>
<trkpt lat="43.493904" lon="3.708479">
<ele>94</ele>
<time>2013-05-08T18:43:08.999Z</time>
</trkpt>
<trkpt lat="43.493999" lon="3.708552">
<ele>94.4</ele>
<time>2013-05-08T18:43:09.999Z</time>
</trkpt>
<trkpt lat="43.494087" lon="3.708613">
<ele>94.9</ele>
<time>2013-05-08T18:43:10.999Z</time>
</trkpt>
<trkpt lat="43.494188" lon="3.708683">
<ele>95.2</ele>
<time>2013-05-08T18:43:11.999Z</time>
</trkpt>
<trkpt lat="43.494314" lon="3.708774">
<ele>95.4</ele>
<time>2013-05-08T18:43:12.999Z</time>
</trkpt>
<trkpt lat="43.494446" lon="3.708875">
<ele>95.6</ele>
<time>2013-05-08T18:43:13.999Z</time>
</trkpt>
<trkpt lat="43.494579" lon="3.708977">
<ele>95.6</ele>
<time>2013-05-08T18:43:14.999Z</time>
</trkpt>
<trkpt lat="43.494696" lon="3.709066">
<ele>95.7</ele>
<time>2013-05-08T18:43:15.999Z</time>
</trkpt>
<trkpt lat="43.494799" lon="3.709143">
<ele>96</ele>
<time>2013-05-08T18:43:16.999Z</time>
</trkpt>
<trkpt lat="43.49489" lon="3.709211">
<ele>96.3</ele>
<time>2013-05-08T18:43:17.999Z</time>
</trkpt>
<trkpt lat="43.494968" lon="3.709264">
<ele>96.5</ele>
<time>2013-05-08T18:43:18.999Z</time>
</trkpt>
<trkpt lat="43.495037" lon="3.70931">
<ele>96.7</ele>
<time>2013-05-08T18:43:19.999Z</time>
</trkpt>
<trkpt lat="43.495103" lon="3.709355">
<ele>97</ele>
<time>2013-05-08T18:43:20.999Z</time>
</trkpt>
<trkpt lat="43.495147" lon="3.709383">
<ele>97.2</ele>
<time>2013-05-08T18:43:21.999Z</time>
</trkpt>
<trkpt lat="43.495187" lon="3.709411">
<ele>97.4</ele>
<time>2013-05-08T18:43:22.999Z</time>
</trkpt>
<trkpt lat="43.495234" lon="3.709442">
<ele>97.8</ele>
<time>2013-05-08T18:43:23.999Z</time>
</trkpt>
<trkpt lat="43.495293" lon="3.709481">
<ele>98.5</ele>
<time>2013-05-08T18:43:24.999Z</time>
</trkpt>
<trkpt lat="43.495374" lon="3.709529">
<ele>99.1</ele>
<time>2013-05-08T18:43:25.999Z</time>
</trkpt>
<trkpt lat="43.495465" lon="3.709584">
<ele>99.5</ele>
<time>2013-05-08T18:43:26.999Z</time>
</trkpt>
<trkpt lat="43.49557" lon="3.709643">
<ele>99.6</ele>
<time>2013-05-08T18:43:27.999Z</time>
</trkpt>
<trkpt lat="43.495687" lon="3.709711">
<ele>99.7</ele>
<time>2013-05-08T18:43:28.999Z</time>
</trkpt>
<trkpt lat="43.495811" lon="3.709782">
<ele>99.7</ele>
<time>2013-05-08T18:43:29.999Z</time>
</trkpt>
<trkpt lat="43.495935" lon="3.709859">
<ele>99.3</ele>
<time>2013-05-08T18:43:30.999Z</time>
</trkpt>
<trkpt lat="43.496064" lon="3.709947">
<ele>98.5</ele>
<time>2013-05-08T18:43:31.999Z</time>
</trkpt>
<trkpt lat="43.496191" lon="3.710051">
<ele>97.8</ele>
<time>2013-05-08T18:43:32.999Z</time>
</trkpt>
<trkpt lat="43.496301" lon="3.710206">
<ele>96.9</ele>
<time>2013-05-08T18:43:33.999Z</time>
</trkpt>
<trkpt lat="43.496414" lon="3.710364">
<ele>96.1</ele>
<time>2013-05-08T18:43:34.999Z</time>
</trkpt>
<trkpt lat="43.496533" lon="3.71053">
<ele>95.4</ele>
<time>2013-05-08T18:43:35.999Z</time>
</trkpt>
<trkpt lat="43.496646" lon="3.7107">
<ele>94.8</ele>
<time>2013-05-08T18:43:36.999Z</time>
</trkpt>
<trkpt lat="43.496754" lon="3.710864">
<ele>94.2</ele>
<time>2013-05-08T18:43:37.999Z</time>
</trkpt>
<trkpt lat="43.496864" lon="3.711025">
<ele>93.9</ele>
<time>2013-05-08T18:43:38.999Z</time>
</trkpt>
<trkpt lat="43.496969" lon="3.711177">
<ele>93.4</ele>
<time>2013-05-08T18:43:39.999Z</time>
</trkpt>
<trkpt lat="43.497066" lon="3.711322">
<ele>92.9</ele>
<time>2013-05-08T18:43:40.999Z</time>
</trkpt>
<trkpt lat="43.497161" lon="3.711461">
<ele>92.5</ele>
<time>2013-05-08T18:43:41.999Z</time>
</trkpt>
<trkpt lat="43.497243" lon="3.711578">
<ele>92.3</ele>
<time>2013-05-08T18:43:42.999Z</time>
</trkpt>
<trkpt lat="43.497308" lon="3.711673">
<ele>92</ele>
<time>2013-05-08T18:43:43.999Z</time>
</trkpt>
<trkpt lat="43.497367" lon="3.711759">
<ele>91.6</ele>
<time>2013-05-08T18:43:44.999Z</time>
</trkpt>
<trkpt lat="43.497421" lon="3.711835">
<ele>91.3</ele>
<time>2013-05-08T18:43:45.999Z</time>
</trkpt>
<trkpt lat="43.49747" lon="3.711905">
<ele>90.9</ele>
<time>2013-05-08T18:43:46.999Z</time>
</trkpt>
<trkpt lat="43.497515" lon="3.711974">
<ele>90.4</ele>
<time>2013-05-08T18:43:47.999Z</time>
</trkpt>
<trkpt lat="43.497562" lon="3.712047">
<ele>89.7</ele>
<time>2013-05-08T18:43:48.999Z</time>
</trkpt>
<trkpt lat="43.497616" lon="3.712126">
<ele>89.2</ele>
<time>2013-05-08T18:43:49.999Z</time>
</trkpt>
<trkpt lat="43.497676" lon="3.712211">
<ele>88.9</ele>
<time>2013-05-08T18:43:50.999Z</time>
</trkpt>
<trkpt lat="43.497738" lon="3.712299">
<ele>88.7</ele>
<time>2013-05-08T18:43:51.999Z</time>
</trkpt>
<trkpt lat="43.497799" lon="3.712388">
<ele>88.8</ele>
<time>2013-05-08T18:43:52.999Z</time>
</trkpt>
<trkpt lat="43.497855" lon="3.712467">
<ele>88.8</ele>
<time>2013-05-08T18:43:53.999Z</time>
</trkpt>
<trkpt lat="43.497907" lon="3.71254">
<ele>89</ele>
<time>2013-05-08T18:43:54.999Z</time>
</trkpt>
<trkpt lat="43.497954" lon="3.712608">
<ele>89.1</ele>
<time>2013-05-08T18:43:55.999Z</time>
</trkpt>
<trkpt lat="43.498" lon="3.712675">
<ele>89.2</ele>
<time>2013-05-08T18:43:56.999Z</time>
</trkpt>
<trkpt lat="43.498047" lon="3.712742">
<ele>89.4</ele>
<time>2013-05-08T18:43:57.999Z</time>
</trkpt>
<trkpt lat="43.498091" lon="3.712806">
<ele>89.5</ele>
<time>2013-05-08T18:43:58.999Z</time>
</trkpt>
<trkpt lat="43.49814" lon="3.712874">
<ele>89.6</ele>
<time>2013-05-08T18:43:59.999Z</time>
</trkpt>
<trkpt lat="43.498193" lon="3.712943">
<ele>89.7</ele>
<time>2013-05-08T18:44:00.999Z</time>
</trkpt>
<trkpt lat="43.498249" lon="3.713011">
<ele>89.8</ele>
<time>2013-05-08T18:44:01.999Z</time>
</trkpt>
<trkpt lat="43.498312" lon="3.713078">
<ele>90.1</ele>
<time>2013-05-08T18:44:02.999Z</time>
</trkpt>
<trkpt lat="43.49837" lon="3.713134">
<ele>90.4</ele>
<time>2013-05-08T18:44:03.999Z</time>
</trkpt>
<trkpt lat="43.49842" lon="3.713176">
<ele>90.4</ele>
<time>2013-05-08T18:44:04.999Z</time>
</trkpt>
<trkpt lat="43.498474" lon="3.713214">
<ele>90.3</ele>
<time>2013-05-08T18:44:05.999Z</time>
</trkpt>
<trkpt lat="43.498532" lon="3.713254">
<ele>90.1</ele>
<time>2013-05-08T18:44:06.999Z</time>
</trkpt>
<trkpt lat="43.498597" lon="3.7133">
<ele>89.9</ele>
<time>2013-05-08T18:44:07.999Z</time>
</trkpt>
<trkpt lat="43.498669" lon="3.713356">
<ele>89.7</ele>
<time>2013-05-08T18:44:08.999Z</time>
</trkpt>
<trkpt lat="43.498745" lon="3.713421">
<ele>89.5</ele>
<time>2013-05-08T18:44:09.999Z</time>
</trkpt>
<trkpt lat="43.498824" lon="3.713489">
<ele>89.5</ele>
<time>2013-05-08T18:44:10.999Z</time>
</trkpt>
<trkpt lat="43.498901" lon="3.713556">
<ele>89.5</ele>
<time>2013-05-08T18:44:11.999Z</time>
</trkpt>
<trkpt lat="43.498971" lon="3.713622">
<ele>89.5</ele>
<time>2013-05-08T18:44:12.999Z</time>
</trkpt>
<trkpt lat="43.499039" lon="3.713683">
<ele>89.5</ele>
<time>2013-05-08T18:44:13.999Z</time>
</trkpt>
<trkpt lat="43.4991" lon="3.713745">
<ele>89.5</ele>
<time>2013-05-08T18:44:14.999Z</time>
</trkpt>
<trkpt lat="43.499166" lon="3.713808">
<ele>89.6</ele>
<time>2013-05-08T18:44:15.999Z</time>
</trkpt>
<trkpt lat="43.49924" lon="3.713879">
<ele>89.5</ele>
<time>2013-05-08T18:44:16.999Z</time>
</trkpt>
<trkpt lat="43.499328" lon="3.713964">
<ele>89.4</ele>
<time>2013-05-08T18:44:17.999Z</time>
</trkpt>
<trkpt lat="43.499423" lon="3.714055">
<ele>89.3</ele>
<time>2013-05-08T18:44:18.999Z</time>
</trkpt>
<trkpt lat="43.499511" lon="3.714137">
<ele>89.4</ele>
<time>2013-05-08T18:44:19.999Z</time>
</trkpt>
<trkpt lat="43.499607" lon="3.714227">
<ele>89.5</ele>
<time>2013-05-08T18:44:20.999Z</time>
</trkpt>
<trkpt lat="43.499702" lon="3.714315">
<ele>89.7</ele>
<time>2013-05-08T18:44:21.999Z</time>
</trkpt>
<trkpt lat="43.499795" lon="3.7144">
<ele>89.7</ele>
<time>2013-05-08T18:44:22.999Z</time>
</trkpt>
<trkpt lat="43.499885" lon="3.714478">
<ele>89.7</ele>
<time>2013-05-08T18:44:23.999Z</time>
</trkpt>
<trkpt lat="43.499974" lon="3.714551">
<ele>89.7</ele>
<time>2013-05-08T18:44:24.999Z</time>
</trkpt>
<trkpt lat="43.500063" lon="3.714617">
<ele>89.7</ele>
<time>2013-05-08T18:44:25.999Z</time>
</trkpt>
<trkpt lat="43.500152" lon="3.714677">
<ele>89.5</ele>
<time>2013-05-08T18:44:26.999Z</time>
</trkpt>
<trkpt lat="43.500246" lon="3.714733">
<ele>89.2</ele>
<time>2013-05-08T18:44:27.999Z</time>
</trkpt>
<trkpt lat="43.500343" lon="3.714785">
<ele>88.9</ele>
<time>2013-05-08T18:44:28.999Z</time>
</trkpt>
<trkpt lat="43.50045" lon="3.714839">
<ele>88.6</ele>
<time>2013-05-08T18:44:29.999Z</time>
</trkpt>
<trkpt lat="43.500553" lon="3.714891">
<ele>88.2</ele>
<time>2013-05-08T18:44:30.999Z</time>
</trkpt>
<trkpt lat="43.50065" lon="3.714939">
<ele>87.9</ele>
<time>2013-05-08T18:44:31.999Z</time>
</trkpt>
<trkpt lat="43.500736" lon="3.714979">
<ele>87.6</ele>
<time>2013-05-08T18:44:32.999Z</time>
</trkpt>
<trkpt lat="43.50081" lon="3.715014">
<ele>88</ele>
<time>2013-05-08T18:44:33.999Z</time>
</trkpt>
<trkpt lat="43.500879" lon="3.715049">
<ele>88.3</ele>
<time>2013-05-08T18:44:34.999Z</time>
</trkpt>
<trkpt lat="43.500942" lon="3.71508">
<ele>88.3</ele>
<time>2013-05-08T18:44:35.999Z</time>
</trkpt>
<trkpt lat="43.500996" lon="3.715103">
<ele>88.6</ele>
<time>2013-05-08T18:44:36.999Z</time>
</trkpt>
<trkpt lat="43.501041" lon="3.715122">
<ele>88.9</ele>
<time>2013-05-08T18:44:37.999Z</time>
</trkpt>
<trkpt lat="43.50108" lon="3.715137">
<ele>89.3</ele>
<time>2013-05-08T18:44:38.999Z</time>
</trkpt>
<trkpt lat="43.501114" lon="3.715151">
<ele>89.3</ele>
<time>2013-05-08T18:44:39.999Z</time>
</trkpt>
<trkpt lat="43.501152" lon="3.715167">
<ele>89.3</ele>
<time>2013-05-08T18:44:40.999Z</time>
</trkpt>
<trkpt lat="43.501205" lon="3.715192">
<ele>89.4</ele>
<time>2013-05-08T18:44:41.999Z</time>
</trkpt>
<trkpt lat="43.501279" lon="3.71523">
<ele>89.5</ele>
<time>2013-05-08T18:44:42.999Z</time>
</trkpt>
<trkpt lat="43.501359" lon="3.715276">
<ele>89.8</ele>
<time>2013-05-08T18:44:43.999Z</time>
</trkpt>
<trkpt lat="43.501442" lon="3.715323">
<ele>90</ele>
<time>2013-05-08T18:44:44.999Z</time>
</trkpt>
<trkpt lat="43.501527" lon="3.715372">
<ele>90.5</ele>
<time>2013-05-08T18:44:45.999Z</time>
</trkpt>
<trkpt lat="43.501609" lon="3.715422">
<ele>91.2</ele>
<time>2013-05-08T18:44:46.999Z</time>
</trkpt>
<trkpt lat="43.501705" lon="3.715483">
<ele>91.8</ele>
<time>2013-05-08T18:44:47.999Z</time>
</trkpt>
<trkpt lat="43.501809" lon="3.715544">
<ele>92.1</ele>
<time>2013-05-08T18:44:48.999Z</time>
</trkpt>
<trkpt lat="43.501906" lon="3.715597">
<ele>92.7</ele>
<time>2013-05-08T18:44:49.999Z</time>
</trkpt>
<trkpt lat="43.502001" lon="3.715646">
<ele>93.3</ele>
<time>2013-05-08T18:44:50.999Z</time>
</trkpt>
<trkpt lat="43.502103" lon="3.7157">
<ele>93.7</ele>
<time>2013-05-08T18:44:51.999Z</time>
</trkpt>
<trkpt lat="43.502211" lon="3.715759">
<ele>94.1</ele>
<time>2013-05-08T18:44:52.999Z</time>
</trkpt>
<trkpt lat="43.502327" lon="3.71582">
<ele>94.5</ele>
<time>2013-05-08T18:44:53.999Z</time>
</trkpt>
<trkpt lat="43.502466" lon="3.715898">
<ele>94.8</ele>
<time>2013-05-08T18:44:54.999Z</time>
</trkpt>
<trkpt lat="43.502622" lon="3.715986">
<ele>95.1</ele>
<time>2013-05-08T18:44:55.999Z</time>
</trkpt>
<trkpt lat="43.502805" lon="3.716103">
<ele>95.3</ele>
<time>2013-05-08T18:44:56.999Z</time>
</trkpt>
<trkpt lat="43.503005" lon="3.716242">
<ele>95.6</ele>
<time>2013-05-08T18:44:57.999Z</time>
</trkpt>
<trkpt lat="43.503225" lon="3.716396">
<ele>95.8</ele>
<time>2013-05-08T18:44:58.999Z</time>
</trkpt>
<trkpt lat="43.503451" lon="3.716549">
<ele>96.4</ele>
<time>2013-05-08T18:44:59.999Z</time>
</trkpt>
<trkpt lat="43.503672" lon="3.716702">
<ele>97</ele>
<time>2013-05-08T18:45:00.999Z</time>
</trkpt>
<trkpt lat="43.503896" lon="3.716816">
<ele>97.5</ele>
<time>2013-05-08T18:45:01.999Z</time>
</trkpt>
<trkpt lat="43.504123" lon="3.716908">
<ele>97.5</ele>
<time>2013-05-08T18:45:02.999Z</time>
</trkpt>
<trkpt lat="43.504344" lon="3.716989">
<ele>97.4</ele>
<time>2013-05-08T18:45:03.999Z</time>
</trkpt>
<trkpt lat="43.504561" lon="3.717072">
<ele>97.3</ele>
<time>2013-05-08T18:45:04.999Z</time>
</trkpt>
<trkpt lat="43.504765" lon="3.717164">
<ele>97</ele>
<time>2013-05-08T18:45:05.999Z</time>
</trkpt>
<trkpt lat="43.504969" lon="3.717259">
<ele>96.9</ele>
<time>2013-05-08T18:45:06.999Z</time>
</trkpt>
<trkpt lat="43.505166" lon="3.71737">
<ele>96.8</ele>
<time>2013-05-08T18:45:07.999Z</time>
</trkpt>
<trkpt lat="43.505363" lon="3.71749">
<ele>96.7</ele>
<time>2013-05-08T18:45:08.999Z</time>
</trkpt>
<trkpt lat="43.505561" lon="3.717621">
<ele>96.8</ele>
<time>2013-05-08T18:45:09.999Z</time>
</trkpt>
<trkpt lat="43.505759" lon="3.717763">
<ele>96.8</ele>
<time>2013-05-08T18:45:10.999Z</time>
</trkpt>
<trkpt lat="43.505948" lon="3.717911">
<ele>97.1</ele>
<time>2013-05-08T18:45:11.999Z</time>
</trkpt>
<trkpt lat="43.506137" lon="3.718081">
<ele>97.3</ele>
<time>2013-05-08T18:45:12.999Z</time>
</trkpt>
<trkpt lat="43.506323" lon="3.718263">
<ele>97.5</ele>
<time>2013-05-08T18:45:13.999Z</time>
</trkpt>
<trkpt lat="43.506513" lon="3.718455">
<ele>97.6</ele>
<time>2013-05-08T18:45:14.999Z</time>
</trkpt>
<trkpt lat="43.506706" lon="3.718649">
<ele>97.8</ele>
<time>2013-05-08T18:45:15.999Z</time>
</trkpt>
<trkpt lat="43.506904" lon="3.718851">
<ele>98.1</ele>
<time>2013-05-08T18:45:16.999Z</time>
</trkpt>
<trkpt lat="43.507103" lon="3.719063">
<ele>98.6</ele>
<time>2013-05-08T18:45:17.999Z</time>
</trkpt>
<trkpt lat="43.507308" lon="3.719285">
<ele>99.2</ele>
<time>2013-05-08T18:45:18.999Z</time>
</trkpt>
<trkpt lat="43.507513" lon="3.719517">
<ele>99.9</ele>
<time>2013-05-08T18:45:19.999Z</time>
</trkpt>
<trkpt lat="43.507715" lon="3.719759">
<ele>100.5</ele>
<time>2013-05-08T18:45:20.999Z</time>
</trkpt>
<trkpt lat="43.507916" lon="3.720009">
<ele>100.9</ele>
<time>2013-05-08T18:45:21.999Z</time>
</trkpt>
<trkpt lat="43.508122" lon="3.720265">
<ele>101.3</ele>
<time>2013-05-08T18:45:22.999Z</time>
</trkpt>
<trkpt lat="43.508328" lon="3.72052">
<ele>101.6</ele>
<time>2013-05-08T18:45:23.999Z</time>
</trkpt>
<trkpt lat="43.508531" lon="3.720778">
<ele>101.8</ele>
<time>2013-05-08T18:45:24.999Z</time>
</trkpt>
<trkpt lat="43.508735" lon="3.721037">
<ele>102</ele>
<time>2013-05-08T18:45:25.999Z</time>
</trkpt>
<trkpt lat="43.508936" lon="3.721292">
<ele>102</ele>
<time>2013-05-08T18:45:26.999Z</time>
</trkpt>
<trkpt lat="43.509138" lon="3.721549">
<ele>101.9</ele>
<time>2013-05-08T18:45:27.999Z</time>
</trkpt>
<trkpt lat="43.509339" lon="3.721802">
<ele>101.6</ele>
<time>2013-05-08T18:45:28.999Z</time>
</trkpt>
<trkpt lat="43.509543" lon="3.722061">
<ele>101.3</ele>
<time>2013-05-08T18:45:29.999Z</time>
</trkpt>
<trkpt lat="43.509739" lon="3.722318">
<ele>101</ele>
<time>2013-05-08T18:45:30.999Z</time>
</trkpt>
<trkpt lat="43.509936" lon="3.722574">
<ele>100.7</ele>
<time>2013-05-08T18:45:31.999Z</time>
</trkpt>
<trkpt lat="43.510137" lon="3.722823">
<ele>100.7</ele>
<time>2013-05-08T18:45:32.999Z</time>
</trkpt>
<trkpt lat="43.510332" lon="3.72307">
<ele>100.8</ele>
<time>2013-05-08T18:45:33.999Z</time>
</trkpt>
<trkpt lat="43.510524" lon="3.723313">
<ele>100.9</ele>
<time>2013-05-08T18:45:34.999Z</time>
</trkpt>
<trkpt lat="43.510712" lon="3.723549">
<ele>101.1</ele>
<time>2013-05-08T18:45:35.999Z</time>
</trkpt>
<trkpt lat="43.510897" lon="3.72378">
<ele>101.3</ele>
<time>2013-05-08T18:45:36.999Z</time>
</trkpt>
<trkpt lat="43.511081" lon="3.724007">
<ele>101.5</ele>
<time>2013-05-08T18:45:37.999Z</time>
</trkpt>
<trkpt lat="43.511251" lon="3.724214">
<ele>101.7</ele>
<time>2013-05-08T18:45:38.999Z</time>
</trkpt>
<trkpt lat="43.511402" lon="3.72438">
<ele>101.9</ele>
<time>2013-05-08T18:45:39.999Z</time>
</trkpt>
<trkpt lat="43.511535" lon="3.72452">
<ele>102.1</ele>
<time>2013-05-08T18:45:40.999Z</time>
</trkpt>
<trkpt lat="43.511671" lon="3.724669">
<ele>102.1</ele>
<time>2013-05-08T18:45:41.999Z</time>
</trkpt>
<trkpt lat="43.511805" lon="3.724804">
<ele>102</ele>
<time>2013-05-08T18:45:42.999Z</time>
</trkpt>
<trkpt lat="43.511947" lon="3.724937">
<ele>102</ele>
<time>2013-05-08T18:45:43.999Z</time>
</trkpt>
<trkpt lat="43.512106" lon="3.725071">
<ele>101.9</ele>
<time>2013-05-08T18:45:44.999Z</time>
</trkpt>
<trkpt lat="43.512279" lon="3.725207">
<ele>101.8</ele>
<time>2013-05-08T18:45:45.999Z</time>
</trkpt>
<trkpt lat="43.51247" lon="3.725356">
<ele>101.7</ele>
<time>2013-05-08T18:45:46.999Z</time>
</trkpt>
<trkpt lat="43.512691" lon="3.725509">
<ele>101.7</ele>
<time>2013-05-08T18:45:47.999Z</time>
</trkpt>
<trkpt lat="43.512919" lon="3.725668">
<ele>102</ele>
<time>2013-05-08T18:45:48.999Z</time>
</trkpt>
<trkpt lat="43.513172" lon="3.725827">
<ele>102.2</ele>
<time>2013-05-08T18:45:49.999Z</time>
</trkpt>
<trkpt lat="43.513443" lon="3.725985">
<ele>102.3</ele>
<time>2013-05-08T18:45:50.999Z</time>
</trkpt>
<trkpt lat="43.513711" lon="3.726142">
<ele>102.5</ele>
<time>2013-05-08T18:45:51.999Z</time>
</trkpt>
<trkpt lat="43.513978" lon="3.726302">
<ele>103</ele>
<time>2013-05-08T18:45:52.999Z</time>
</trkpt>
<trkpt lat="43.514252" lon="3.72647">
<ele>103.6</ele>
<time>2013-05-08T18:45:53.999Z</time>
</trkpt>
<trkpt lat="43.514535" lon="3.726647">
<ele>104.4</ele>
<time>2013-05-08T18:45:54.999Z</time>
</trkpt>
<trkpt lat="43.514817" lon="3.726819">
<ele>105.1</ele>
<time>2013-05-08T18:45:55.999Z</time>
</trkpt>
<trkpt lat="43.515101" lon="3.727007">
<ele>105.6</ele>
<time>2013-05-08T18:45:56.999Z</time>
</trkpt>
<trkpt lat="43.515377" lon="3.72721">
<ele>105.5</ele>
<time>2013-05-08T18:45:57.999Z</time>
</trkpt>
<trkpt lat="43.515643" lon="3.727426">
<ele>105.6</ele>
<time>2013-05-08T18:45:58.999Z</time>
</trkpt>
<trkpt lat="43.515899" lon="3.727657">
<ele>105.7</ele>
<time>2013-05-08T18:45:59.999Z</time>
</trkpt>
<trkpt lat="43.516153" lon="3.727894">
<ele>105.8</ele>
<time>2013-05-08T18:46:00.999Z</time>
</trkpt>
<trkpt lat="43.516405" lon="3.728133">
<ele>105.9</ele>
<time>2013-05-08T18:46:01.999Z</time>
</trkpt>
<trkpt lat="43.516659" lon="3.728373">
<ele>105.8</ele>
<time>2013-05-08T18:46:02.999Z</time>
</trkpt>
<trkpt lat="43.516917" lon="3.728617">
<ele>105.9</ele>
<time>2013-05-08T18:46:03.999Z</time>
</trkpt>
<trkpt lat="43.517182" lon="3.728868">
<ele>106</ele>
<time>2013-05-08T18:46:04.999Z</time>
</trkpt>
<trkpt lat="43.517445" lon="3.729119">
<ele>106.1</ele>
<time>2013-05-08T18:46:05.999Z</time>
</trkpt>
<trkpt lat="43.517703" lon="3.729367">
<ele>106.1</ele>
<time>2013-05-08T18:46:06.999Z</time>
</trkpt>
<trkpt lat="43.517961" lon="3.72962">
<ele>106.2</ele>
<time>2013-05-08T18:46:07.999Z</time>
</trkpt>
<trkpt lat="43.51822" lon="3.729876">
<ele>106.3</ele>
<time>2013-05-08T18:46:08.999Z</time>
</trkpt>
<trkpt lat="43.518472" lon="3.730123">
<ele>106.4</ele>
<time>2013-05-08T18:46:09.999Z</time>
</trkpt>
<trkpt lat="43.518722" lon="3.730369">
<ele>106.4</ele>
<time>2013-05-08T18:46:10.999Z</time>
</trkpt>
<trkpt lat="43.518976" lon="3.730619">
<ele>106.3</ele>
<time>2013-05-08T18:46:11.999Z</time>
</trkpt>
<trkpt lat="43.519227" lon="3.730862">
<ele>106.2</ele>
<time>2013-05-08T18:46:12.999Z</time>
</trkpt>
<trkpt lat="43.519475" lon="3.731104">
<ele>106.1</ele>
<time>2013-05-08T18:46:13.999Z</time>
</trkpt>
<trkpt lat="43.519724" lon="3.73135">
<ele>105.8</ele>
<time>2013-05-08T18:46:14.999Z</time>
</trkpt>
<trkpt lat="43.519972" lon="3.731596">
<ele>105.5</ele>
<time>2013-05-08T18:46:15.999Z</time>
</trkpt>
<trkpt lat="43.520224" lon="3.731836">
<ele>105.4</ele>
<time>2013-05-08T18:46:16.999Z</time>
</trkpt>
<trkpt lat="43.520473" lon="3.73207">
<ele>105.4</ele>
<time>2013-05-08T18:46:17.999Z</time>
</trkpt>
<trkpt lat="43.520716" lon="3.732295">
<ele>105.7</ele>
<time>2013-05-08T18:46:18.999Z</time>
</trkpt>
<trkpt lat="43.520956" lon="3.732522">
<ele>106</ele>
<time>2013-05-08T18:46:19.999Z</time>
</trkpt>
<trkpt lat="43.521198" lon="3.732758">
<ele>106.4</ele>
<time>2013-05-08T18:46:20.999Z</time>
</trkpt>
<trkpt lat="43.52144" lon="3.733007">
<ele>106.7</ele>
<time>2013-05-08T18:46:21.999Z</time>
</trkpt>
<trkpt lat="43.521674" lon="3.733272">
<ele>106.9</ele>
<time>2013-05-08T18:46:22.999Z</time>
</trkpt>
<trkpt lat="43.521894" lon="3.733555">
<ele>107.2</ele>
<time>2013-05-08T18:46:23.999Z</time>
</trkpt>
<trkpt lat="43.522105" lon="3.73385">
<ele>107.4</ele>
<time>2013-05-08T18:46:24.999Z</time>
</trkpt>
<trkpt lat="43.52231" lon="3.734159">
<ele>107.5</ele>
<time>2013-05-08T18:46:25.999Z</time>
</trkpt>
<trkpt lat="43.522515" lon="3.73447">
<ele>107.4</ele>
<time>2013-05-08T18:46:26.999Z</time>
</trkpt>
<trkpt lat="43.522719" lon="3.734774">
<ele>107.5</ele>
<time>2013-05-08T18:46:27.999Z</time>
</trkpt>
<trkpt lat="43.522925" lon="3.735082">
<ele>107.9</ele>
<time>2013-05-08T18:46:28.999Z</time>
</trkpt>
<trkpt lat="43.52314" lon="3.735396">
<ele>108.1</ele>
<time>2013-05-08T18:46:29.999Z</time>
</trkpt>
<trkpt lat="43.523355" lon="3.735704">
<ele>108.3</ele>
<time>2013-05-08T18:46:30.999Z</time>
</trkpt>
<trkpt lat="43.523576" lon="3.736009">
<ele>108.2</ele>
<time>2013-05-08T18:46:31.999Z</time>
</trkpt>
<trkpt lat="43.523799" lon="3.736314">
<ele>108</ele>
<time>2013-05-08T18:46:32.999Z</time>
</trkpt>
<trkpt lat="43.52402" lon="3.736618">
<ele>107.8</ele>
<time>2013-05-08T18:46:33.999Z</time>
</trkpt>
<trkpt lat="43.524242" lon="3.736925">
<ele>107.7</ele>
<time>2013-05-08T18:46:34.999Z</time>
</trkpt>
<trkpt lat="43.52446" lon="3.737239">
<ele>107.5</ele>
<time>2013-05-08T18:46:35.999Z</time>
</trkpt>
<trkpt lat="43.52467" lon="3.737566">
<ele>107.4</ele>
<time>2013-05-08T18:46:36.999Z</time>
</trkpt>
<trkpt lat="43.524874" lon="3.737907">
<ele>107.3</ele>
<time>2013-05-08T18:46:37.999Z</time>
</trkpt>
<trkpt lat="43.52507" lon="3.738253">
<ele>107.2</ele>
<time>2013-05-08T18:46:38.999Z</time>
</trkpt>
<trkpt lat="43.525267" lon="3.738602">
<ele>107.2</ele>
<time>2013-05-08T18:46:39.999Z</time>
</trkpt>
<trkpt lat="43.525467" lon="3.738956">
<ele>107.1</ele>
<time>2013-05-08T18:46:40.999Z</time>
</trkpt>
<trkpt lat="43.525668" lon="3.739313">
<ele>107.1</ele>
<time>2013-05-08T18:46:41.999Z</time>
</trkpt>
<trkpt lat="43.525872" lon="3.739672">
<ele>107</ele>
<time>2013-05-08T18:46:42.999Z</time>
</trkpt>
<trkpt lat="43.526079" lon="3.740034">
<ele>106.8</ele>
<time>2013-05-08T18:46:43.999Z</time>
</trkpt>
<trkpt lat="43.526284" lon="3.740397">
<ele>106.8</ele>
<time>2013-05-08T18:46:44.999Z</time>
</trkpt>
<trkpt lat="43.526486" lon="3.740762">
<ele>106.9</ele>
<time>2013-05-08T18:46:45.999Z</time>
</trkpt>
<trkpt lat="43.526688" lon="3.741122">
<ele>107.1</ele>
<time>2013-05-08T18:46:46.999Z</time>
</trkpt>
<trkpt lat="43.526889" lon="3.741476">
<ele>107.3</ele>
<time>2013-05-08T18:46:47.999Z</time>
</trkpt>
<trkpt lat="43.527093" lon="3.741835">
<ele>107.4</ele>
<time>2013-05-08T18:46:48.999Z</time>
</trkpt>
<trkpt lat="43.527287" lon="3.742178">
<ele>107.4</ele>
<time>2013-05-08T18:46:49.999Z</time>
</trkpt>
<trkpt lat="43.527475" lon="3.742516">
<ele>107.3</ele>
<time>2013-05-08T18:46:50.999Z</time>
</trkpt>
<trkpt lat="43.527665" lon="3.742851">
<ele>106.7</ele>
<time>2013-05-08T18:46:51.999Z</time>
</trkpt>
<trkpt lat="43.527857" lon="3.743191">
<ele>106.3</ele>
<time>2013-05-08T18:46:52.999Z</time>
</trkpt>
<trkpt lat="43.528051" lon="3.743532">
<ele>105.9</ele>
<time>2013-05-08T18:46:53.999Z</time>
</trkpt>
<trkpt lat="43.528246" lon="3.743876">
<ele>105.6</ele>
<time>2013-05-08T18:46:54.999Z</time>
</trkpt>
<trkpt lat="43.528445" lon="3.744223">
<ele>105.3</ele>
<time>2013-05-08T18:46:55.999Z</time>
</trkpt>
<trkpt lat="43.528642" lon="3.744569">
<ele>105.2</ele>
<time>2013-05-08T18:46:56.999Z</time>
</trkpt>
<trkpt lat="43.528842" lon="3.744919">
<ele>105</ele>
<time>2013-05-08T18:46:57.999Z</time>
</trkpt>
<trkpt lat="43.52904" lon="3.745268">
<ele>105.2</ele>
<time>2013-05-08T18:46:58.999Z</time>
</trkpt>
<trkpt lat="43.529242" lon="3.745629">
<ele>105.4</ele>
<time>2013-05-08T18:46:59.999Z</time>
</trkpt>
<trkpt lat="43.529454" lon="3.746014">
<ele>105.3</ele>
<time>2013-05-08T18:47:00.999Z</time>
</trkpt>
<trkpt lat="43.529667" lon="3.746396">
<ele>105.2</ele>
<time>2013-05-08T18:47:01.999Z</time>
</trkpt>
<trkpt lat="43.529878" lon="3.746779">
<ele>105</ele>
<time>2013-05-08T18:47:02.999Z</time>
</trkpt>
<trkpt lat="43.530078" lon="3.747138">
<ele>104.9</ele>
<time>2013-05-08T18:47:03.999Z</time>
</trkpt>
<trkpt lat="43.530276" lon="3.747491">
<ele>104.8</ele>
<time>2013-05-08T18:47:04.999Z</time>
</trkpt>
<trkpt lat="43.530468" lon="3.747833">
<ele>104.7</ele>
<time>2013-05-08T18:47:05.999Z</time>
</trkpt>
<trkpt lat="43.530662" lon="3.74818">
<ele>104.4</ele>
<time>2013-05-08T18:47:06.999Z</time>
</trkpt>
<trkpt lat="43.530857" lon="3.748521">
<ele>104</ele>
<time>2013-05-08T18:47:07.999Z</time>
</trkpt>
<trkpt lat="43.531049" lon="3.748854">
<ele>103.5</ele>
<time>2013-05-08T18:47:08.999Z</time>
</trkpt>
<trkpt lat="43.531238" lon="3.749182">
<ele>103</ele>
<time>2013-05-08T18:47:09.999Z</time>
</trkpt>
<trkpt lat="43.531427" lon="3.749515">
<ele>102.8</ele>
<time>2013-05-08T18:47:10.999Z</time>
</trkpt>
<trkpt lat="43.531615" lon="3.749846">
<ele>102.6</ele>
<time>2013-05-08T18:47:11.999Z</time>
</trkpt>
<trkpt lat="43.531804" lon="3.75018">
<ele>102.6</ele>
<time>2013-05-08T18:47:12.999Z</time>
</trkpt>
<trkpt lat="43.531992" lon="3.750511">
<ele>102.5</ele>
<time>2013-05-08T18:47:13.999Z</time>
</trkpt>
<trkpt lat="43.532185" lon="3.750847">
<ele>102.2</ele>
<time>2013-05-08T18:47:14.999Z</time>
</trkpt>
<trkpt lat="43.532379" lon="3.75118">
<ele>101.9</ele>
<time>2013-05-08T18:47:15.999Z</time>
</trkpt>
<trkpt lat="43.53257" lon="3.751505">
<ele>101.9</ele>
<time>2013-05-08T18:47:16.999Z</time>
</trkpt>
<trkpt lat="43.532754" lon="3.751836">
<ele>101.7</ele>
<time>2013-05-08T18:47:17.999Z</time>
</trkpt>
<trkpt lat="43.532939" lon="3.752166">
<ele>101.7</ele>
<time>2013-05-08T18:47:18.999Z</time>
</trkpt>
<trkpt lat="43.533124" lon="3.752489">
<ele>101.7</ele>
<time>2013-05-08T18:47:19.999Z</time>
</trkpt>
<trkpt lat="43.533312" lon="3.752812">
<ele>101.8</ele>
<time>2013-05-08T18:47:20.999Z</time>
</trkpt>
<trkpt lat="43.533503" lon="3.753137">
<ele>101.8</ele>
<time>2013-05-08T18:47:21.999Z</time>
</trkpt>
<trkpt lat="43.533696" lon="3.753455">
<ele>102.1</ele>
<time>2013-05-08T18:47:22.999Z</time>
</trkpt>
<trkpt lat="43.533894" lon="3.753769">
<ele>102.3</ele>
<time>2013-05-08T18:47:23.999Z</time>
</trkpt>
<trkpt lat="43.534088" lon="3.754076">
<ele>102.5</ele>
<time>2013-05-08T18:47:24.999Z</time>
</trkpt>
<trkpt lat="43.534276" lon="3.754374">
<ele>102.8</ele>
<time>2013-05-08T18:47:25.999Z</time>
</trkpt>
<trkpt lat="43.53446" lon="3.75466">
<ele>103.1</ele>
<time>2013-05-08T18:47:26.999Z</time>
</trkpt>
<trkpt lat="43.534639" lon="3.754927">
<ele>103.2</ele>
<time>2013-05-08T18:47:27.999Z</time>
</trkpt>
<trkpt lat="43.53481" lon="3.75518">
<ele>103.4</ele>
<time>2013-05-08T18:47:28.999Z</time>
</trkpt>
<trkpt lat="43.534974" lon="3.755424">
<ele>103.5</ele>
<time>2013-05-08T18:47:29.999Z</time>
</trkpt>
<trkpt lat="43.535129" lon="3.755657">
<ele>103.6</ele>
<time>2013-05-08T18:47:30.999Z</time>
</trkpt>
<trkpt lat="43.535273" lon="3.755873">
<ele>103.6</ele>
<time>2013-05-08T18:47:31.999Z</time>
</trkpt>
<trkpt lat="43.535405" lon="3.756069">
<ele>103.6</ele>
<time>2013-05-08T18:47:32.999Z</time>
</trkpt>
<trkpt lat="43.535519" lon="3.756239">
<ele>103.7</ele>
<time>2013-05-08T18:47:33.999Z</time>
</trkpt>
<trkpt lat="43.535616" lon="3.756396">
<ele>103.6</ele>
<time>2013-05-08T18:47:34.999Z</time>
</trkpt>
<trkpt lat="43.535691" lon="3.756534">
<ele>103.5</ele>
<time>2013-05-08T18:47:35.999Z</time>
</trkpt>
<trkpt lat="43.535738" lon="3.75669">
<ele>103.5</ele>
<time>2013-05-08T18:47:36.999Z</time>
</trkpt>
<trkpt lat="43.53578" lon="3.756831">
<ele>103.5</ele>
<time>2013-05-08T18:47:37.999Z</time>
</trkpt>
<trkpt lat="43.535853" lon="3.756929">
<ele>103.8</ele>
<time>2013-05-08T18:47:38.999Z</time>
</trkpt>
<trkpt lat="43.535938" lon="3.757021">
<ele>104.1</ele>
<time>2013-05-08T18:47:39.999Z</time>
</trkpt>
<trkpt lat="43.536035" lon="3.757125">
<ele>104.1</ele>
<time>2013-05-08T18:47:40.999Z</time>
</trkpt>
<trkpt lat="43.53615" lon="3.75727">
<ele>104.2</ele>
<time>2013-05-08T18:47:41.999Z</time>
</trkpt>
<trkpt lat="43.536272" lon="3.757443">
<ele>104.1</ele>
<time>2013-05-08T18:47:42.999Z</time>
</trkpt>
<trkpt lat="43.536403" lon="3.757642">
<ele>104.1</ele>
<time>2013-05-08T18:47:43.999Z</time>
</trkpt>
<trkpt lat="43.536541" lon="3.757862">
<ele>104.2</ele>
<time>2013-05-08T18:47:44.999Z</time>
</trkpt>
<trkpt lat="43.536681" lon="3.7581">
<ele>104.2</ele>
<time>2013-05-08T18:47:45.999Z</time>
</trkpt>
<trkpt lat="43.536832" lon="3.75836">
<ele>104.3</ele>
<time>2013-05-08T18:47:46.999Z</time>
</trkpt>
<trkpt lat="43.536989" lon="3.758621">
<ele>104.3</ele>
<time>2013-05-08T18:47:47.999Z</time>
</trkpt>
<trkpt lat="43.537149" lon="3.758884">
<ele>104.2</ele>
<time>2013-05-08T18:47:48.999Z</time>
</trkpt>
<trkpt lat="43.537312" lon="3.75915">
<ele>104</ele>
<time>2013-05-08T18:47:49.999Z</time>
</trkpt>
<trkpt lat="43.537475" lon="3.759418">
<ele>103.9</ele>
<time>2013-05-08T18:47:50.999Z</time>
</trkpt>
<trkpt lat="43.537633" lon="3.759684">
<ele>104.2</ele>
<time>2013-05-08T18:47:51.999Z</time>
</trkpt>
<trkpt lat="43.537797" lon="3.759956">
<ele>104.3</ele>
<time>2013-05-08T18:47:52.999Z</time>
</trkpt>
<trkpt lat="43.537958" lon="3.760222">
<ele>104.4</ele>
<time>2013-05-08T18:47:53.999Z</time>
</trkpt>
<trkpt lat="43.538119" lon="3.760489">
<ele>104.2</ele>
<time>2013-05-08T18:47:54.999Z</time>
</trkpt>
<trkpt lat="43.538279" lon="3.760753">
<ele>103.9</ele>
<time>2013-05-08T18:47:55.999Z</time>
</trkpt>
<trkpt lat="43.53844" lon="3.761022">
<ele>103.9</ele>
<time>2013-05-08T18:47:56.999Z</time>
</trkpt>
<trkpt lat="43.538602" lon="3.76129">
<ele>103.7</ele>
<time>2013-05-08T18:47:57.999Z</time>
</trkpt>
<trkpt lat="43.538768" lon="3.761556">
<ele>103.6</ele>
<time>2013-05-08T18:47:58.999Z</time>
</trkpt>
<trkpt lat="43.538936" lon="3.761822">
<ele>103.3</ele>
<time>2013-05-08T18:47:59.999Z</time>
</trkpt>
<trkpt lat="43.5391" lon="3.762085">
<ele>103</ele>
<time>2013-05-08T18:48:00.999Z</time>
</trkpt>
<trkpt lat="43.539267" lon="3.762353">
<ele>102.5</ele>
<time>2013-05-08T18:48:01.999Z</time>
</trkpt>
<trkpt lat="43.539433" lon="3.762613">
<ele>101.9</ele>
<time>2013-05-08T18:48:02.999Z</time>
</trkpt>
<trkpt lat="43.539595" lon="3.76287">
<ele>101.4</ele>
<time>2013-05-08T18:48:03.999Z</time>
</trkpt>
<trkpt lat="43.539756" lon="3.76313">
<ele>100.9</ele>
<time>2013-05-08T18:48:04.999Z</time>
</trkpt>
<trkpt lat="43.539915" lon="3.763387">
<ele>100.5</ele>
<time>2013-05-08T18:48:05.999Z</time>
</trkpt>
<trkpt lat="43.540074" lon="3.763646">
<ele>100.1</ele>
<time>2013-05-08T18:48:06.999Z</time>
</trkpt>
<trkpt lat="43.540233" lon="3.763902">
<ele>99.7</ele>
<time>2013-05-08T18:48:07.999Z</time>
</trkpt>
<trkpt lat="43.540391" lon="3.764158">
<ele>99.4</ele>
<time>2013-05-08T18:48:08.999Z</time>
</trkpt>
<trkpt lat="43.540546" lon="3.764406">
<ele>98.9</ele>
<time>2013-05-08T18:48:09.999Z</time>
</trkpt>
<trkpt lat="43.540698" lon="3.764652">
<ele>98.5</ele>
<time>2013-05-08T18:48:10.999Z</time>
</trkpt>
<trkpt lat="43.540848" lon="3.764905">
<ele>97.8</ele>
<time>2013-05-08T18:48:11.999Z</time>
</trkpt>
<trkpt lat="43.540981" lon="3.765179">
<ele>97</ele>
<time>2013-05-08T18:48:12.999Z</time>
</trkpt>
<trkpt lat="43.541105" lon="3.765464">
<ele>96.3</ele>
<time>2013-05-08T18:48:13.999Z</time>
</trkpt>
<trkpt lat="43.541211" lon="3.765767">
<ele>95.9</ele>
<time>2013-05-08T18:48:14.999Z</time>
</trkpt>
<trkpt lat="43.54132" lon="3.766095">
<ele>95.6</ele>
<time>2013-05-08T18:48:15.999Z</time>
</trkpt>
<trkpt lat="43.541429" lon="3.766426">
<ele>95.4</ele>
<time>2013-05-08T18:48:16.999Z</time>
</trkpt>
<trkpt lat="43.541539" lon="3.766761">
<ele>95.2</ele>
<time>2013-05-08T18:48:17.999Z</time>
</trkpt>
<trkpt lat="43.541647" lon="3.76709">
<ele>95</ele>
<time>2013-05-08T18:48:18.999Z</time>
</trkpt>
<trkpt lat="43.541758" lon="3.767424">
<ele>94.5</ele>
<time>2013-05-08T18:48:19.999Z</time>
</trkpt>
<trkpt lat="43.541863" lon="3.767747">
<ele>94.1</ele>
<time>2013-05-08T18:48:20.999Z</time>
</trkpt>
<trkpt lat="43.541966" lon="3.768062">
<ele>93.9</ele>
<time>2013-05-08T18:48:21.999Z</time>
</trkpt>
<trkpt lat="43.542069" lon="3.768372">
<ele>93.7</ele>
<time>2013-05-08T18:48:22.999Z</time>
</trkpt>
<trkpt lat="43.542172" lon="3.768675">
<ele>93.5</ele>
<time>2013-05-08T18:48:23.999Z</time>
</trkpt>
<trkpt lat="43.542275" lon="3.768975">
<ele>93.2</ele>
<time>2013-05-08T18:48:24.999Z</time>
</trkpt>
<trkpt lat="43.542374" lon="3.76927">
<ele>93.1</ele>
<time>2013-05-08T18:48:25.999Z</time>
</trkpt>
<trkpt lat="43.542472" lon="3.769557">
<ele>92.8</ele>
<time>2013-05-08T18:48:26.999Z</time>
</trkpt>
<trkpt lat="43.542569" lon="3.769836">
<ele>92.4</ele>
<time>2013-05-08T18:48:27.999Z</time>
</trkpt>
<trkpt lat="43.542663" lon="3.770106">
<ele>92.1</ele>
<time>2013-05-08T18:48:28.999Z</time>
</trkpt>
<trkpt lat="43.542755" lon="3.770368">
<ele>91.8</ele>
<time>2013-05-08T18:48:29.999Z</time>
</trkpt>
<trkpt lat="43.542847" lon="3.770618">
<ele>91.7</ele>
<time>2013-05-08T18:48:30.999Z</time>
</trkpt>
<trkpt lat="43.542939" lon="3.770853">
<ele>91.6</ele>
<time>2013-05-08T18:48:31.999Z</time>
</trkpt>
<trkpt lat="43.543034" lon="3.771083">
<ele>91.3</ele>
<time>2013-05-08T18:48:32.999Z</time>
</trkpt>
<trkpt lat="43.543129" lon="3.7713">
<ele>91.1</ele>
<time>2013-05-08T18:48:33.999Z</time>
</trkpt>
<trkpt lat="43.54323" lon="3.771516">
<ele>91</ele>
<time>2013-05-08T18:48:34.999Z</time>
</trkpt>
<trkpt lat="43.54333" lon="3.771733">
<ele>90.7</ele>
<time>2013-05-08T18:48:35.999Z</time>
</trkpt>
<trkpt lat="43.543431" lon="3.771948">
<ele>90.3</ele>
<time>2013-05-08T18:48:36.999Z</time>
</trkpt>
<trkpt lat="43.543538" lon="3.772158">
<ele>90</ele>
<time>2013-05-08T18:48:37.999Z</time>
</trkpt>
<trkpt lat="43.543649" lon="3.772365">
<ele>89.6</ele>
<time>2013-05-08T18:48:38.999Z</time>
</trkpt>
<trkpt lat="43.543768" lon="3.772556">
<ele>89.1</ele>
<time>2013-05-08T18:48:39.999Z</time>
</trkpt>
<trkpt lat="43.543882" lon="3.77273">
<ele>88.7</ele>
<time>2013-05-08T18:48:40.999Z</time>
</trkpt>
<trkpt lat="43.544007" lon="3.772905">
<ele>88.5</ele>
<time>2013-05-08T18:48:41.999Z</time>
</trkpt>
<trkpt lat="43.54414" lon="3.773074">
<ele>88.2</ele>
<time>2013-05-08T18:48:42.999Z</time>
</trkpt>
<trkpt lat="43.544271" lon="3.773243">
<ele>87.9</ele>
<time>2013-05-08T18:48:43.999Z</time>
</trkpt>
<trkpt lat="43.544399" lon="3.773405">
<ele>87.6</ele>
<time>2013-05-08T18:48:44.999Z</time>
</trkpt>
<trkpt lat="43.544519" lon="3.773566">
<ele>87.4</ele>
<time>2013-05-08T18:48:45.999Z</time>
</trkpt>
<trkpt lat="43.544638" lon="3.773718">
<ele>87.1</ele>
<time>2013-05-08T18:48:46.999Z</time>
</trkpt>
<trkpt lat="43.544757" lon="3.77387">
<ele>86.7</ele>
<time>2013-05-08T18:48:47.999Z</time>
</trkpt>
<trkpt lat="43.544876" lon="3.774021">
<ele>86.3</ele>
<time>2013-05-08T18:48:48.999Z</time>
</trkpt>
<trkpt lat="43.545001" lon="3.774188">
<ele>86.1</ele>
<time>2013-05-08T18:48:49.999Z</time>
</trkpt>
<trkpt lat="43.545127" lon="3.774367">
<ele>86.2</ele>
<time>2013-05-08T18:48:50.999Z</time>
</trkpt>
<trkpt lat="43.545248" lon="3.774553">
<ele>86.7</ele>
<time>2013-05-08T18:48:51.999Z</time>
</trkpt>
<trkpt lat="43.545365" lon="3.774744">
<ele>87.3</ele>
<time>2013-05-08T18:48:52.999Z</time>
</trkpt>
<trkpt lat="43.545478" lon="3.774948">
<ele>87.9</ele>
<time>2013-05-08T18:48:53.999Z</time>
</trkpt>
<trkpt lat="43.545581" lon="3.775147">
<ele>88.1</ele>
<time>2013-05-08T18:48:54.999Z</time>
</trkpt>
<trkpt lat="43.545685" lon="3.775341">
<ele>88.2</ele>
<time>2013-05-08T18:48:55.999Z</time>
</trkpt>
<trkpt lat="43.545772" lon="3.775521">
<ele>88.2</ele>
<time>2013-05-08T18:48:56.999Z</time>
</trkpt>
<trkpt lat="43.545869" lon="3.77571">
<ele>88.1</ele>
<time>2013-05-08T18:48:57.999Z</time>
</trkpt>
<trkpt lat="43.545951" lon="3.775873">
<ele>88.2</ele>
<time>2013-05-08T18:48:58.999Z</time>
</trkpt>
<trkpt lat="43.546033" lon="3.77603">
<ele>88.2</ele>
<time>2013-05-08T18:48:59.999Z</time>
</trkpt>
<trkpt lat="43.546111" lon="3.776175">
<ele>88.2</ele>
<time>2013-05-08T18:49:00.999Z</time>
</trkpt>
<trkpt lat="43.546182" lon="3.776308">
<ele>88.1</ele>
<time>2013-05-08T18:49:01.999Z</time>
</trkpt>
<trkpt lat="43.546256" lon="3.776442">
<ele>88.1</ele>
<time>2013-05-08T18:49:02.999Z</time>
</trkpt>
<trkpt lat="43.546332" lon="3.776579">
<ele>88.1</ele>
<time>2013-05-08T18:49:03.999Z</time>
</trkpt>
<trkpt lat="43.546406" lon="3.776711">
<ele>88.2</ele>
<time>2013-05-08T18:49:04.999Z</time>
</trkpt>
<trkpt lat="43.546481" lon="3.77684">
<ele>88.3</ele>
<time>2013-05-08T18:49:05.999Z</time>
</trkpt>
<trkpt lat="43.546559" lon="3.77697">
<ele>88.3</ele>
<time>2013-05-08T18:49:06.999Z</time>
</trkpt>
<trkpt lat="43.546638" lon="3.777097">
<ele>88.6</ele>
<time>2013-05-08T18:49:07.999Z</time>
</trkpt>
<trkpt lat="43.546723" lon="3.777224">
<ele>88.9</ele>
<time>2013-05-08T18:49:08.999Z</time>
</trkpt>
<trkpt lat="43.546807" lon="3.777344">
<ele>89</ele>
<time>2013-05-08T18:49:09.999Z</time>
</trkpt>
<trkpt lat="43.546895" lon="3.777462">
<ele>88.9</ele>
<time>2013-05-08T18:49:10.999Z</time>
</trkpt>
<trkpt lat="43.546989" lon="3.777586">
<ele>88.9</ele>
<time>2013-05-08T18:49:11.999Z</time>
</trkpt>
<trkpt lat="43.547083" lon="3.777704">
<ele>89</ele>
<time>2013-05-08T18:49:12.999Z</time>
</trkpt>
<trkpt lat="43.547172" lon="3.777816">
<ele>89</ele>
<time>2013-05-08T18:49:13.999Z</time>
</trkpt>
<trkpt lat="43.547256" lon="3.777919">
<ele>88.9</ele>
<time>2013-05-08T18:49:14.999Z</time>
</trkpt>
<trkpt lat="43.547341" lon="3.778023">
<ele>88.6</ele>
<time>2013-05-08T18:49:15.999Z</time>
</trkpt>
<trkpt lat="43.547425" lon="3.778124">
<ele>88.5</ele>
<time>2013-05-08T18:49:16.999Z</time>
</trkpt>
<trkpt lat="43.547508" lon="3.778227">
<ele>88.5</ele>
<time>2013-05-08T18:49:17.999Z</time>
</trkpt>
<trkpt lat="43.547596" lon="3.778336">
<ele>88.6</ele>
<time>2013-05-08T18:49:18.999Z</time>
</trkpt>
<trkpt lat="43.54769" lon="3.778455">
<ele>88.9</ele>
<time>2013-05-08T18:49:19.999Z</time>
</trkpt>
<trkpt lat="43.54779" lon="3.778577">
<ele>89.4</ele>
<time>2013-05-08T18:49:20.999Z</time>
</trkpt>
<trkpt lat="43.547892" lon="3.778698">
<ele>89.6</ele>
<time>2013-05-08T18:49:21.999Z</time>
</trkpt>
<trkpt lat="43.547992" lon="3.778816">
<ele>89.7</ele>
<time>2013-05-08T18:49:22.999Z</time>
</trkpt>
<trkpt lat="43.548089" lon="3.778935">
<ele>89.8</ele>
<time>2013-05-08T18:49:23.999Z</time>
</trkpt>
<trkpt lat="43.548184" lon="3.779053">
<ele>89.7</ele>
<time>2013-05-08T18:49:24.999Z</time>
</trkpt>
<trkpt lat="43.548283" lon="3.779175">
<ele>90</ele>
<time>2013-05-08T18:49:25.999Z</time>
</trkpt>
<trkpt lat="43.548374" lon="3.779287">
<ele>90.2</ele>
<time>2013-05-08T18:49:26.999Z</time>
</trkpt>
<trkpt lat="43.548461" lon="3.779395">
<ele>90.1</ele>
<time>2013-05-08T18:49:27.999Z</time>
</trkpt>
<trkpt lat="43.548545" lon="3.779499">
<ele>90.1</ele>
<time>2013-05-08T18:49:28.999Z</time>
</trkpt>
<trkpt lat="43.548627" lon="3.779601">
<ele>90.1</ele>
<time>2013-05-08T18:49:29.999Z</time>
</trkpt>
<trkpt lat="43.548704" lon="3.779697">
<ele>90.2</ele>
<time>2013-05-08T18:49:30.999Z</time>
</trkpt>
<trkpt lat="43.548777" lon="3.779789">
<ele>90.2</ele>
<time>2013-05-08T18:49:31.999Z</time>
</trkpt>
<trkpt lat="43.548856" lon="3.779884">
<ele>90.2</ele>
<time>2013-05-08T18:49:32.999Z</time>
</trkpt>
<trkpt lat="43.548941" lon="3.779985">
<ele>90.3</ele>
<time>2013-05-08T18:49:33.999Z</time>
</trkpt>
<trkpt lat="43.549024" lon="3.780084">
<ele>90.5</ele>
<time>2013-05-08T18:49:34.999Z</time>
</trkpt>
<trkpt lat="43.549112" lon="3.780186">
<ele>90.9</ele>
<time>2013-05-08T18:49:35.999Z</time>
</trkpt>
<trkpt lat="43.549204" lon="3.780284">
<ele>91.2</ele>
<time>2013-05-08T18:49:36.999Z</time>
</trkpt>
<trkpt lat="43.549296" lon="3.780385">
<ele>91.5</ele>
<time>2013-05-08T18:49:37.999Z</time>
</trkpt>
<trkpt lat="43.549382" lon="3.780477">
<ele>91.5</ele>
<time>2013-05-08T18:49:38.999Z</time>
</trkpt>
<trkpt lat="43.54947" lon="3.780571">
<ele>91.5</ele>
<time>2013-05-08T18:49:39.999Z</time>
</trkpt>
<trkpt lat="43.549551" lon="3.780656">
<ele>91.2</ele>
<time>2013-05-08T18:49:40.999Z</time>
</trkpt>
<trkpt lat="43.549639" lon="3.780746">
<ele>90.8</ele>
<time>2013-05-08T18:49:41.999Z</time>
</trkpt>
<trkpt lat="43.549728" lon="3.780833">
<ele>90.5</ele>
<time>2013-05-08T18:49:42.999Z</time>
</trkpt>
<trkpt lat="43.549819" lon="3.780924">
<ele>90.2</ele>
<time>2013-05-08T18:49:43.999Z</time>
</trkpt>
<trkpt lat="43.549913" lon="3.781017">
<ele>89.9</ele>
<time>2013-05-08T18:49:44.999Z</time>
</trkpt>
<trkpt lat="43.550008" lon="3.781111">
<ele>89.5</ele>
<time>2013-05-08T18:49:45.999Z</time>
</trkpt>
<trkpt lat="43.550105" lon="3.781207">
<ele>89.2</ele>
<time>2013-05-08T18:49:46.999Z</time>
</trkpt>
<trkpt lat="43.550198" lon="3.781307">
<ele>88.8</ele>
<time>2013-05-08T18:49:47.999Z</time>
</trkpt>
<trkpt lat="43.55029" lon="3.781414">
<ele>88.4</ele>
<time>2013-05-08T18:49:48.999Z</time>
</trkpt>
<trkpt lat="43.550384" lon="3.781533">
<ele>88.3</ele>
<time>2013-05-08T18:49:49.999Z</time>
</trkpt>
<trkpt lat="43.550471" lon="3.781664">
<ele>88.4</ele>
<time>2013-05-08T18:49:50.999Z</time>
</trkpt>
<trkpt lat="43.550555" lon="3.781807">
<ele>88.5</ele>
<time>2013-05-08T18:49:51.999Z</time>
</trkpt>
<trkpt lat="43.550638" lon="3.781963">
<ele>88.5</ele>
<time>2013-05-08T18:49:52.999Z</time>
</trkpt>
<trkpt lat="43.550723" lon="3.782136">
<ele>88.4</ele>
<time>2013-05-08T18:49:53.999Z</time>
</trkpt>
<trkpt lat="43.550811" lon="3.782324">
<ele>87.9</ele>
<time>2013-05-08T18:49:54.999Z</time>
</trkpt>
<trkpt lat="43.550898" lon="3.782516">
<ele>87.4</ele>
<time>2013-05-08T18:49:55.999Z</time>
</trkpt>
<trkpt lat="43.550979" lon="3.782707">
<ele>87</ele>
<time>2013-05-08T18:49:56.999Z</time>
</trkpt>
<trkpt lat="43.55106" lon="3.782891">
<ele>86.6</ele>
<time>2013-05-08T18:49:57.999Z</time>
</trkpt>
<trkpt lat="43.551143" lon="3.783076">
<ele>86.2</ele>
<time>2013-05-08T18:49:58.999Z</time>
</trkpt>
<trkpt lat="43.551228" lon="3.783257">
<ele>85.8</ele>
<time>2013-05-08T18:49:59.999Z</time>
</trkpt>
<trkpt lat="43.551319" lon="3.783446">
<ele>85.1</ele>
<time>2013-05-08T18:50:00.999Z</time>
</trkpt>
<trkpt lat="43.551412" lon="3.783628">
<ele>84.2</ele>
<time>2013-05-08T18:50:01.999Z</time>
</trkpt>
<trkpt lat="43.551504" lon="3.783805">
<ele>83.4</ele>
<time>2013-05-08T18:50:02.999Z</time>
</trkpt>
<trkpt lat="43.551595" lon="3.783982">
<ele>82.7</ele>
<time>2013-05-08T18:50:03.999Z</time>
</trkpt>
<trkpt lat="43.551686" lon="3.784159">
<ele>82.1</ele>
<time>2013-05-08T18:50:04.999Z</time>
</trkpt>
<trkpt lat="43.551776" lon="3.784333">
<ele>81.4</ele>
<time>2013-05-08T18:50:05.999Z</time>
</trkpt>
<trkpt lat="43.551865" lon="3.784503">
<ele>81</ele>
<time>2013-05-08T18:50:06.999Z</time>
</trkpt>
<trkpt lat="43.551955" lon="3.784676">
<ele>80.5</ele>
<time>2013-05-08T18:50:07.999Z</time>
</trkpt>
<trkpt lat="43.552058" lon="3.784873">
<ele>80.2</ele>
<time>2013-05-08T18:50:08.999Z</time>
</trkpt>
<trkpt lat="43.552172" lon="3.785094">
<ele>79.9</ele>
<time>2013-05-08T18:50:09.999Z</time>
</trkpt>
<trkpt lat="43.552299" lon="3.785333">
<ele>79.8</ele>
<time>2013-05-08T18:50:10.999Z</time>
</trkpt>
<trkpt lat="43.552445" lon="3.785596">
<ele>80</ele>
<time>2013-05-08T18:50:11.999Z</time>
</trkpt>
<trkpt lat="43.552594" lon="3.785884">
<ele>79.8</ele>
<time>2013-05-08T18:50:12.999Z</time>
</trkpt>
<trkpt lat="43.552748" lon="3.786184">
<ele>79.7</ele>
<time>2013-05-08T18:50:13.999Z</time>
</trkpt>
<trkpt lat="43.552911" lon="3.786499">
<ele>79.6</ele>
<time>2013-05-08T18:50:14.999Z</time>
</trkpt>
<trkpt lat="43.553075" lon="3.786808">
<ele>79.5</ele>
<time>2013-05-08T18:50:15.999Z</time>
</trkpt>
<trkpt lat="43.553244" lon="3.787127">
<ele>79.4</ele>
<time>2013-05-08T18:50:16.999Z</time>
</trkpt>
<trkpt lat="43.553415" lon="3.787457">
<ele>79</ele>
<time>2013-05-08T18:50:17.999Z</time>
</trkpt>
<trkpt lat="43.553582" lon="3.787793">
<ele>78.9</ele>
<time>2013-05-08T18:50:18.999Z</time>
</trkpt>
<trkpt lat="43.55374" lon="3.788106">
<ele>78.7</ele>
<time>2013-05-08T18:50:19.999Z</time>
</trkpt>
<trkpt lat="43.553894" lon="3.788398">
<ele>78.2</ele>
<time>2013-05-08T18:50:20.999Z</time>
</trkpt>
<trkpt lat="43.554041" lon="3.788689">
<ele>77.8</ele>
<time>2013-05-08T18:50:21.999Z</time>
</trkpt>
<trkpt lat="43.554189" lon="3.788979">
<ele>77.3</ele>
<time>2013-05-08T18:50:22.999Z</time>
</trkpt>
<trkpt lat="43.554343" lon="3.789278">
<ele>76.7</ele>
<time>2013-05-08T18:50:23.999Z</time>
</trkpt>
<trkpt lat="43.554493" lon="3.78957">
<ele>76.2</ele>
<time>2013-05-08T18:50:24.999Z</time>
</trkpt>
<trkpt lat="43.554643" lon="3.789865">
<ele>75.9</ele>
<time>2013-05-08T18:50:25.999Z</time>
</trkpt>
<trkpt lat="43.554795" lon="3.790162">
<ele>75.7</ele>
<time>2013-05-08T18:50:26.999Z</time>
</trkpt>
<trkpt lat="43.55495" lon="3.790457">
<ele>75.2</ele>
<time>2013-05-08T18:50:27.999Z</time>
</trkpt>
<trkpt lat="43.555107" lon="3.790755">
<ele>74.8</ele>
<time>2013-05-08T18:50:28.999Z</time>
</trkpt>
<trkpt lat="43.555264" lon="3.791053">
<ele>74.5</ele>
<time>2013-05-08T18:50:29.999Z</time>
</trkpt>
<trkpt lat="43.555418" lon="3.791348">
<ele>74.3</ele>
<time>2013-05-08T18:50:30.999Z</time>
</trkpt>
<trkpt lat="43.555564" lon="3.791638">
<ele>74.4</ele>
<time>2013-05-08T18:50:31.999Z</time>
</trkpt>
<trkpt lat="43.555713" lon="3.79193">
<ele>74.4</ele>
<time>2013-05-08T18:50:32.999Z</time>
</trkpt>
<trkpt lat="43.555863" lon="3.792221">
<ele>74.4</ele>
<time>2013-05-08T18:50:33.999Z</time>
</trkpt>
<trkpt lat="43.556009" lon="3.792509">
<ele>74.4</ele>
<time>2013-05-08T18:50:34.999Z</time>
</trkpt>
<trkpt lat="43.556154" lon="3.792793">
<ele>74.4</ele>
<time>2013-05-08T18:50:35.999Z</time>
</trkpt>
<trkpt lat="43.556297" lon="3.793075">
<ele>74.5</ele>
<time>2013-05-08T18:50:36.999Z</time>
</trkpt>
<trkpt lat="43.556439" lon="3.793358">
<ele>74.6</ele>
<time>2013-05-08T18:50:37.999Z</time>
</trkpt>
<trkpt lat="43.556582" lon="3.793637">
<ele>74.9</ele>
<time>2013-05-08T18:50:38.999Z</time>
</trkpt>
<trkpt lat="43.556732" lon="3.793894">
<ele>75.3</ele>
<time>2013-05-08T18:50:39.999Z</time>
</trkpt>
<trkpt lat="43.556893" lon="3.794148">
<ele>75.9</ele>
<time>2013-05-08T18:50:40.999Z</time>
</trkpt>
<trkpt lat="43.557063" lon="3.794377">
<ele>76.6</ele>
<time>2013-05-08T18:50:41.999Z</time>
</trkpt>
<trkpt lat="43.557233" lon="3.794602">
<ele>77.3</ele>
<time>2013-05-08T18:50:42.999Z</time>
</trkpt>
<trkpt lat="43.557401" lon="3.794822">
<ele>78</ele>
<time>2013-05-08T18:50:43.999Z</time>
</trkpt>
<trkpt lat="43.557568" lon="3.795033">
<ele>78.6</ele>
<time>2013-05-08T18:50:44.999Z</time>
</trkpt>
<trkpt lat="43.557732" lon="3.795247">
<ele>79.2</ele>
<time>2013-05-08T18:50:45.999Z</time>
</trkpt>
<trkpt lat="43.557891" lon="3.795459">
<ele>79.8</ele>
<time>2013-05-08T18:50:46.999Z</time>
</trkpt>
<trkpt lat="43.558044" lon="3.795672">
<ele>80.5</ele>
<time>2013-05-08T18:50:47.999Z</time>
</trkpt>
<trkpt lat="43.558198" lon="3.795891">
<ele>81</ele>
<time>2013-05-08T18:50:48.999Z</time>
</trkpt>
<trkpt lat="43.558357" lon="3.796113">
<ele>81.3</ele>
<time>2013-05-08T18:50:49.999Z</time>
</trkpt>
<trkpt lat="43.558517" lon="3.796334">
<ele>81.4</ele>
<time>2013-05-08T18:50:50.999Z</time>
</trkpt>
<trkpt lat="43.558681" lon="3.796561">
<ele>81.6</ele>
<time>2013-05-08T18:50:51.999Z</time>
</trkpt>
<trkpt lat="43.558846" lon="3.796782">
<ele>81.6</ele>
<time>2013-05-08T18:50:52.999Z</time>
</trkpt>
<trkpt lat="43.559021" lon="3.797004">
<ele>81.6</ele>
<time>2013-05-08T18:50:53.999Z</time>
</trkpt>
<trkpt lat="43.559197" lon="3.797222">
<ele>81.4</ele>
<time>2013-05-08T18:50:54.999Z</time>
</trkpt>
<trkpt lat="43.559373" lon="3.79743">
<ele>81.4</ele>
<time>2013-05-08T18:50:55.999Z</time>
</trkpt>
<trkpt lat="43.559542" lon="3.797628">
<ele>81.7</ele>
<time>2013-05-08T18:50:56.999Z</time>
</trkpt>
<trkpt lat="43.55972" lon="3.797829">
<ele>81.7</ele>
<time>2013-05-08T18:50:57.999Z</time>
</trkpt>
<trkpt lat="43.559896" lon="3.798014">
<ele>81.6</ele>
<time>2013-05-08T18:50:58.999Z</time>
</trkpt>
<trkpt lat="43.56007" lon="3.798197">
<ele>81.2</ele>
<time>2013-05-08T18:50:59.999Z</time>
</trkpt>
<trkpt lat="43.560244" lon="3.798383">
<ele>80.7</ele>
<time>2013-05-08T18:51:00.999Z</time>
</trkpt>
<trkpt lat="43.560419" lon="3.79858">
<ele>80.1</ele>
<time>2013-05-08T18:51:01.999Z</time>
</trkpt>
<trkpt lat="43.560605" lon="3.798784">
<ele>79.4</ele>
<time>2013-05-08T18:51:02.999Z</time>
</trkpt>
<trkpt lat="43.560801" lon="3.798988">
<ele>78.6</ele>
<time>2013-05-08T18:51:03.999Z</time>
</trkpt>
<trkpt lat="43.561002" lon="3.799197">
<ele>77.8</ele>
<time>2013-05-08T18:51:04.999Z</time>
</trkpt>
<trkpt lat="43.561201" lon="3.799406">
<ele>77.1</ele>
<time>2013-05-08T18:51:05.999Z</time>
</trkpt>
<trkpt lat="43.561399" lon="3.799608">
<ele>76.3</ele>
<time>2013-05-08T18:51:06.999Z</time>
</trkpt>
<trkpt lat="43.561591" lon="3.799806">
<ele>75.5</ele>
<time>2013-05-08T18:51:07.999Z</time>
</trkpt>
<trkpt lat="43.561774" lon="3.800003">
<ele>74.8</ele>
<time>2013-05-08T18:51:08.999Z</time>
</trkpt>
<trkpt lat="43.561949" lon="3.80019">
<ele>74.2</ele>
<time>2013-05-08T18:51:09.999Z</time>
</trkpt>
<trkpt lat="43.562115" lon="3.800365">
<ele>73.6</ele>
<time>2013-05-08T18:51:10.999Z</time>
</trkpt>
<trkpt lat="43.56227" lon="3.800536">
<ele>73.2</ele>
<time>2013-05-08T18:51:11.999Z</time>
</trkpt>
<trkpt lat="43.562419" lon="3.800697">
<ele>72.9</ele>
<time>2013-05-08T18:51:12.999Z</time>
</trkpt>
<trkpt lat="43.562562" lon="3.800853">
<ele>72.7</ele>
<time>2013-05-08T18:51:13.999Z</time>
</trkpt>
<trkpt lat="43.562704" lon="3.801011">
<ele>72.6</ele>
<time>2013-05-08T18:51:14.999Z</time>
</trkpt>
<trkpt lat="43.562847" lon="3.801169">
<ele>72.6</ele>
<time>2013-05-08T18:51:15.999Z</time>
</trkpt>
<trkpt lat="43.562994" lon="3.801333">
<ele>72.6</ele>
<time>2013-05-08T18:51:16.999Z</time>
</trkpt>
<trkpt lat="43.563146" lon="3.801494">
<ele>72.5</ele>
<time>2013-05-08T18:51:17.999Z</time>
</trkpt>
<trkpt lat="43.563296" lon="3.801651">
<ele>72.3</ele>
<time>2013-05-08T18:51:18.999Z</time>
</trkpt>
<trkpt lat="43.563435" lon="3.801821">
<ele>72.1</ele>
<time>2013-05-08T18:51:19.999Z</time>
</trkpt>
<trkpt lat="43.563571" lon="3.801993">
<ele>71.8</ele>
<time>2013-05-08T18:51:20.999Z</time>
</trkpt>
<trkpt lat="43.563701" lon="3.802167">
<ele>71.6</ele>
<time>2013-05-08T18:51:21.999Z</time>
</trkpt>
<trkpt lat="43.563815" lon="3.802331">
<ele>71.5</ele>
<time>2013-05-08T18:51:22.999Z</time>
</trkpt>
<trkpt lat="43.563931" lon="3.802506">
<ele>71.3</ele>
<time>2013-05-08T18:51:23.999Z</time>
</trkpt>
<trkpt lat="43.564044" lon="3.802682">
<ele>71</ele>
<time>2013-05-08T18:51:24.999Z</time>
</trkpt>
<trkpt lat="43.564174" lon="3.802878">
<ele>70.7</ele>
<time>2013-05-08T18:51:25.999Z</time>
</trkpt>
<trkpt lat="43.564304" lon="3.803074">
<ele>70.7</ele>
<time>2013-05-08T18:51:26.999Z</time>
</trkpt>
<trkpt lat="43.564442" lon="3.803284">
<ele>70.6</ele>
<time>2013-05-08T18:51:27.999Z</time>
</trkpt>
<trkpt lat="43.56459" lon="3.803509">
<ele>70.6</ele>
<time>2013-05-08T18:51:28.999Z</time>
</trkpt>
<trkpt lat="43.564744" lon="3.803739">
<ele>70.6</ele>
<time>2013-05-08T18:51:29.999Z</time>
</trkpt>
<trkpt lat="43.564911" lon="3.80397">
<ele>70.7</ele>
<time>2013-05-08T18:51:30.999Z</time>
</trkpt>
<trkpt lat="43.565082" lon="3.804201">
<ele>70.8</ele>
<time>2013-05-08T18:51:31.999Z</time>
</trkpt>
<trkpt lat="43.565257" lon="3.804433">
<ele>71</ele>
<time>2013-05-08T18:51:32.999Z</time>
</trkpt>
<trkpt lat="43.565433" lon="3.804664">
<ele>71.1</ele>
<time>2013-05-08T18:51:33.999Z</time>
</trkpt>
<trkpt lat="43.565606" lon="3.804902">
<ele>71.3</ele>
<time>2013-05-08T18:51:34.999Z</time>
</trkpt>
<trkpt lat="43.565778" lon="3.805146">
<ele>71.4</ele>
<time>2013-05-08T18:51:35.999Z</time>
</trkpt>
<trkpt lat="43.565949" lon="3.805389">
<ele>71.4</ele>
<time>2013-05-08T18:51:36.999Z</time>
</trkpt>
<trkpt lat="43.566121" lon="3.805636">
<ele>71.5</ele>
<time>2013-05-08T18:51:37.999Z</time>
</trkpt>
<trkpt lat="43.566295" lon="3.80589">
<ele>71.4</ele>
<time>2013-05-08T18:51:38.999Z</time>
</trkpt>
<trkpt lat="43.566467" lon="3.806142">
<ele>71.4</ele>
<time>2013-05-08T18:51:39.999Z</time>
</trkpt>
<trkpt lat="43.566639" lon="3.806389">
<ele>71.8</ele>
<time>2013-05-08T18:51:40.999Z</time>
</trkpt>
<trkpt lat="43.566807" lon="3.80664">
<ele>72.4</ele>
<time>2013-05-08T18:51:41.999Z</time>
</trkpt>
<trkpt lat="43.566973" lon="3.806898">
<ele>72.9</ele>
<time>2013-05-08T18:51:42.999Z</time>
</trkpt>
<trkpt lat="43.567135" lon="3.807158">
<ele>73.2</ele>
<time>2013-05-08T18:51:43.999Z</time>
</trkpt>
<trkpt lat="43.567293" lon="3.807423">
<ele>73.3</ele>
<time>2013-05-08T18:51:44.999Z</time>
</trkpt>
<trkpt lat="43.567441" lon="3.807686">
<ele>73.4</ele>
<time>2013-05-08T18:51:45.999Z</time>
</trkpt>
<trkpt lat="43.567591" lon="3.807943">
<ele>73.2</ele>
<time>2013-05-08T18:51:46.999Z</time>
</trkpt>
<trkpt lat="43.567746" lon="3.808187">
<ele>73</ele>
<time>2013-05-08T18:51:47.999Z</time>
</trkpt>
<trkpt lat="43.567904" lon="3.808419">
<ele>73.1</ele>
<time>2013-05-08T18:51:48.999Z</time>
</trkpt>
<trkpt lat="43.568067" lon="3.80865">
<ele>73.3</ele>
<time>2013-05-08T18:51:49.999Z</time>
</trkpt>
<trkpt lat="43.568234" lon="3.808879">
<ele>73.5</ele>
<time>2013-05-08T18:51:50.999Z</time>
</trkpt>
<trkpt lat="43.568405" lon="3.809104">
<ele>73.7</ele>
<time>2013-05-08T18:51:51.999Z</time>
</trkpt>
<trkpt lat="43.568578" lon="3.809332">
<ele>73.6</ele>
<time>2013-05-08T18:51:52.999Z</time>
</trkpt>
<trkpt lat="43.568746" lon="3.809558">
<ele>73.2</ele>
<time>2013-05-08T18:51:53.999Z</time>
</trkpt>
<trkpt lat="43.568912" lon="3.809783">
<ele>72.7</ele>
<time>2013-05-08T18:51:54.999Z</time>
</trkpt>
<trkpt lat="43.569064" lon="3.81001">
<ele>72.4</ele>
<time>2013-05-08T18:51:55.999Z</time>
</trkpt>
<trkpt lat="43.569215" lon="3.81023">
<ele>72.1</ele>
<time>2013-05-08T18:51:56.999Z</time>
</trkpt>
<trkpt lat="43.569369" lon="3.810452">
<ele>71.6</ele>
<time>2013-05-08T18:51:57.999Z</time>
</trkpt>
<trkpt lat="43.569523" lon="3.810674">
<ele>71.2</ele>
<time>2013-05-08T18:51:58.999Z</time>
</trkpt>
<trkpt lat="43.56968" lon="3.810901">
<ele>70.8</ele>
<time>2013-05-08T18:51:59.999Z</time>
</trkpt>
<trkpt lat="43.569828" lon="3.811118">
<ele>70.5</ele>
<time>2013-05-08T18:52:00.999Z</time>
</trkpt>
<trkpt lat="43.569969" lon="3.811329">
<ele>70.5</ele>
<time>2013-05-08T18:52:01.999Z</time>
</trkpt>
<trkpt lat="43.570107" lon="3.81154">
<ele>70.9</ele>
<time>2013-05-08T18:52:02.999Z</time>
</trkpt>
<trkpt lat="43.570254" lon="3.811761">
<ele>70.9</ele>
<time>2013-05-08T18:52:03.999Z</time>
</trkpt>
<trkpt lat="43.570389" lon="3.811974">
<ele>71</ele>
<time>2013-05-08T18:52:04.999Z</time>
</trkpt>
<trkpt lat="43.570528" lon="3.812195">
<ele>71.3</ele>
<time>2013-05-08T18:52:05.999Z</time>
</trkpt>
<trkpt lat="43.570664" lon="3.812402">
<ele>71.7</ele>
<time>2013-05-08T18:52:06.999Z</time>
</trkpt>
<trkpt lat="43.570798" lon="3.812603">
<ele>71.7</ele>
<time>2013-05-08T18:52:07.999Z</time>
</trkpt>
<trkpt lat="43.570927" lon="3.812798">
<ele>72</ele>
<time>2013-05-08T18:52:08.999Z</time>
</trkpt>
<trkpt lat="43.571053" lon="3.812994">
<ele>72.2</ele>
<time>2013-05-08T18:52:09.999Z</time>
</trkpt>
<trkpt lat="43.571171" lon="3.813178">
<ele>72.4</ele>
<time>2013-05-08T18:52:10.999Z</time>
</trkpt>
<trkpt lat="43.571284" lon="3.813355">
<ele>72.7</ele>
<time>2013-05-08T18:52:11.999Z</time>
</trkpt>
<trkpt lat="43.571386" lon="3.813509">
<ele>72.6</ele>
<time>2013-05-08T18:52:12.999Z</time>
</trkpt>
<trkpt lat="43.571482" lon="3.813649">
<ele>72.6</ele>
<time>2013-05-08T18:52:13.999Z</time>
</trkpt>
<trkpt lat="43.571578" lon="3.813787">
<ele>73</ele>
<time>2013-05-08T18:52:14.999Z</time>
</trkpt>
<trkpt lat="43.571671" lon="3.81392">
<ele>72.9</ele>
<time>2013-05-08T18:52:15.999Z</time>
</trkpt>
<trkpt lat="43.571764" lon="3.814051">
<ele>72.9</ele>
<time>2013-05-08T18:52:16.999Z</time>
</trkpt>
<trkpt lat="43.571849" lon="3.81418">
<ele>72.9</ele>
<time>2013-05-08T18:52:17.999Z</time>
</trkpt>
<trkpt lat="43.571949" lon="3.814323">
<ele>73</ele>
<time>2013-05-08T18:52:18.999Z</time>
</trkpt>
<trkpt lat="43.572048" lon="3.814462">
<ele>72.7</ele>
<time>2013-05-08T18:52:19.999Z</time>
</trkpt>
<trkpt lat="43.572149" lon="3.814611">
<ele>72.6</ele>
<time>2013-05-08T18:52:20.999Z</time>
</trkpt>
<trkpt lat="43.57225" lon="3.814758">
<ele>72.5</ele>
<time>2013-05-08T18:52:21.999Z</time>
</trkpt>
<trkpt lat="43.572348" lon="3.814906">
<ele>72.9</ele>
<time>2013-05-08T18:52:22.999Z</time>
</trkpt>
<trkpt lat="43.572444" lon="3.815051">
<ele>73.4</ele>
<time>2013-05-08T18:52:23.999Z</time>
</trkpt>
<trkpt lat="43.572537" lon="3.815198">
<ele>73.7</ele>
<time>2013-05-08T18:52:24.999Z</time>
</trkpt>
<trkpt lat="43.572634" lon="3.81535">
<ele>73.9</ele>
<time>2013-05-08T18:52:25.999Z</time>
</trkpt>
<trkpt lat="43.572729" lon="3.815505">
<ele>74.5</ele>
<time>2013-05-08T18:52:26.999Z</time>
</trkpt>
<trkpt lat="43.572824" lon="3.815677">
<ele>75.1</ele>
<time>2013-05-08T18:52:27.999Z</time>
</trkpt>
<trkpt lat="43.572911" lon="3.815858">
<ele>75.8</ele>
<time>2013-05-08T18:52:28.999Z</time>
</trkpt>
<trkpt lat="43.572986" lon="3.81603">
<ele>76.6</ele>
<time>2013-05-08T18:52:29.999Z</time>
</trkpt>
<trkpt lat="43.573034" lon="3.816178">
<ele>77.3</ele>
<time>2013-05-08T18:52:30.999Z</time>
</trkpt>
<trkpt lat="43.573069" lon="3.816305">
<ele>78</ele>
<time>2013-05-08T18:52:31.999Z</time>
</trkpt>
<trkpt lat="43.573093" lon="3.816413">
<ele>78.7</ele>
<time>2013-05-08T18:52:32.999Z</time>
</trkpt>
<trkpt lat="43.573113" lon="3.816512">
<ele>79.1</ele>
<time>2013-05-08T18:52:33.999Z</time>
</trkpt>
<trkpt lat="43.573133" lon="3.816595">
<ele>79.2</ele>
<time>2013-05-08T18:52:34.999Z</time>
</trkpt>
<trkpt lat="43.573146" lon="3.81669">
<ele>79.4</ele>
<time>2013-05-08T18:52:35.999Z</time>
</trkpt>
<trkpt lat="43.573161" lon="3.816782">
<ele>79.5</ele>
<time>2013-05-08T18:52:36.999Z</time>
</trkpt>
<trkpt lat="43.57318" lon="3.81688">
<ele>79.7</ele>
<time>2013-05-08T18:52:37.999Z</time>
</trkpt>
<trkpt lat="43.573197" lon="3.816985">
<ele>79.9</ele>
<time>2013-05-08T18:52:38.999Z</time>
</trkpt>
<trkpt lat="43.573214" lon="3.817093">
<ele>80.2</ele>
<time>2013-05-08T18:52:39.999Z</time>
</trkpt>
<trkpt lat="43.573229" lon="3.817201">
<ele>80.2</ele>
<time>2013-05-08T18:52:40.999Z</time>
</trkpt>
<trkpt lat="43.573253" lon="3.817314">
<ele>80.5</ele>
<time>2013-05-08T18:52:41.999Z</time>
</trkpt>
<trkpt lat="43.573278" lon="3.817435">
<ele>80.7</ele>
<time>2013-05-08T18:52:42.999Z</time>
</trkpt>
<trkpt lat="43.573307" lon="3.817561">
<ele>81.1</ele>
<time>2013-05-08T18:52:43.999Z</time>
</trkpt>
<trkpt lat="43.573337" lon="3.817694">
<ele>81.3</ele>
<time>2013-05-08T18:52:44.999Z</time>
</trkpt>
<trkpt lat="43.573367" lon="3.817844">
<ele>81.7</ele>
<time>2013-05-08T18:52:45.999Z</time>
</trkpt>
<trkpt lat="43.573401" lon="3.818007">
<ele>81.9</ele>
<time>2013-05-08T18:52:46.999Z</time>
</trkpt>
<trkpt lat="43.573435" lon="3.818173">
<ele>82.1</ele>
<time>2013-05-08T18:52:47.999Z</time>
</trkpt>
<trkpt lat="43.573476" lon="3.818348">
<ele>82.2</ele>
<time>2013-05-08T18:52:48.999Z</time>
</trkpt>
<trkpt lat="43.57352" lon="3.818524">
<ele>82.3</ele>
<time>2013-05-08T18:52:49.999Z</time>
</trkpt>
<trkpt lat="43.573564" lon="3.818699">
<ele>82.5</ele>
<time>2013-05-08T18:52:50.999Z</time>
</trkpt>
<trkpt lat="43.573606" lon="3.818872">
<ele>82.4</ele>
<time>2013-05-08T18:52:51.999Z</time>
</trkpt>
<trkpt lat="43.573643" lon="3.819041">
<ele>82.2</ele>
<time>2013-05-08T18:52:52.999Z</time>
</trkpt>
<trkpt lat="43.573681" lon="3.819214">
<ele>82.4</ele>
<time>2013-05-08T18:52:53.999Z</time>
</trkpt>
<trkpt lat="43.573716" lon="3.819379">
<ele>82.8</ele>
<time>2013-05-08T18:52:54.999Z</time>
</trkpt>
<trkpt lat="43.573749" lon="3.819538">
<ele>82.9</ele>
<time>2013-05-08T18:52:55.999Z</time>
</trkpt>
<trkpt lat="43.573782" lon="3.819696">
<ele>83.3</ele>
<time>2013-05-08T18:52:56.999Z</time>
</trkpt>
<trkpt lat="43.573812" lon="3.819847">
<ele>83.7</ele>
<time>2013-05-08T18:52:57.999Z</time>
</trkpt>
<trkpt lat="43.573842" lon="3.819991">
<ele>84.2</ele>
<time>2013-05-08T18:52:58.999Z</time>
</trkpt>
<trkpt lat="43.573872" lon="3.820126">
<ele>84.5</ele>
<time>2013-05-08T18:52:59.999Z</time>
</trkpt>
<trkpt lat="43.573898" lon="3.820241">
<ele>84.8</ele>
<time>2013-05-08T18:53:00.999Z</time>
</trkpt>
<trkpt lat="43.573923" lon="3.820349">
<ele>85</ele>
<time>2013-05-08T18:53:01.999Z</time>
</trkpt>
<trkpt lat="43.573948" lon="3.82045">
<ele>85.1</ele>
<time>2013-05-08T18:53:02.999Z</time>
</trkpt>
<trkpt lat="43.573969" lon="3.820541">
<ele>85.2</ele>
<time>2013-05-08T18:53:03.999Z</time>
</trkpt>
<trkpt lat="43.573989" lon="3.820628">
<ele>85.4</ele>
<time>2013-05-08T18:53:04.999Z</time>
</trkpt>
<trkpt lat="43.574008" lon="3.820707">
<ele>85.6</ele>
<time>2013-05-08T18:53:05.999Z</time>
</trkpt>
<trkpt lat="43.574024" lon="3.820778">
<ele>85.6</ele>
<time>2013-05-08T18:53:06.999Z</time>
</trkpt>
<trkpt lat="43.57404" lon="3.820844">
<ele>85.7</ele>
<time>2013-05-08T18:53:07.999Z</time>
</trkpt>
<trkpt lat="43.574055" lon="3.820906">
<ele>85.7</ele>
<time>2013-05-08T18:53:08.999Z</time>
</trkpt>
<trkpt lat="43.574068" lon="3.820959">
<ele>85.4</ele>
<time>2013-05-08T18:53:09.999Z</time>
</trkpt>
<trkpt lat="43.574084" lon="3.821018">
<ele>85.3</ele>
<time>2013-05-08T18:53:10.999Z</time>
</trkpt>
<trkpt lat="43.5741" lon="3.821074">
<ele>85.2</ele>
<time>2013-05-08T18:53:11.999Z</time>
</trkpt>
<trkpt lat="43.574118" lon="3.821136">
<ele>84.9</ele>
<time>2013-05-08T18:53:12.999Z</time>
</trkpt>
<trkpt lat="43.574136" lon="3.821206">
<ele>84.8</ele>
<time>2013-05-08T18:53:13.999Z</time>
</trkpt>
<trkpt lat="43.574158" lon="3.821291">
<ele>84.7</ele>
<time>2013-05-08T18:53:14.999Z</time>
</trkpt>
<trkpt lat="43.574183" lon="3.821392">
<ele>84.7</ele>
<time>2013-05-08T18:53:15.999Z</time>
</trkpt>
<trkpt lat="43.574211" lon="3.821506">
<ele>84.8</ele>
<time>2013-05-08T18:53:16.999Z</time>
</trkpt>
<trkpt lat="43.57424" lon="3.821627">
<ele>84.8</ele>
<time>2013-05-08T18:53:17.999Z</time>
</trkpt>
<trkpt lat="43.574266" lon="3.821745">
<ele>85</ele>
<time>2013-05-08T18:53:18.999Z</time>
</trkpt>
<trkpt lat="43.574294" lon="3.821868">
<ele>85.3</ele>
<time>2013-05-08T18:53:19.999Z</time>
</trkpt>
<trkpt lat="43.574326" lon="3.822011">
<ele>85.7</ele>
<time>2013-05-08T18:53:20.999Z</time>
</trkpt>
<trkpt lat="43.57436" lon="3.822156">
<ele>86</ele>
<time>2013-05-08T18:53:21.999Z</time>
</trkpt>
<trkpt lat="43.574392" lon="3.822304">
<ele>86</ele>
<time>2013-05-08T18:53:22.999Z</time>
</trkpt>
<trkpt lat="43.574425" lon="3.822459">
<ele>86.2</ele>
<time>2013-05-08T18:53:23.999Z</time>
</trkpt>
<trkpt lat="43.574456" lon="3.8226">
<ele>86.5</ele>
<time>2013-05-08T18:53:24.999Z</time>
</trkpt>
<trkpt lat="43.574489" lon="3.82275">
<ele>86.6</ele>
<time>2013-05-08T18:53:25.999Z</time>
</trkpt>
<trkpt lat="43.574522" lon="3.822895">
<ele>86.6</ele>
<time>2013-05-08T18:53:26.999Z</time>
</trkpt>
<trkpt lat="43.574554" lon="3.82304">
<ele>86.4</ele>
<time>2013-05-08T18:53:27.999Z</time>
</trkpt>
<trkpt lat="43.574586" lon="3.823176">
<ele>86.3</ele>
<time>2013-05-08T18:53:28.999Z</time>
</trkpt>
<trkpt lat="43.574617" lon="3.823308">
<ele>86.2</ele>
<time>2013-05-08T18:53:29.999Z</time>
</trkpt>
<trkpt lat="43.574645" lon="3.82344">
<ele>86.2</ele>
<time>2013-05-08T18:53:30.999Z</time>
</trkpt>
<trkpt lat="43.57467" lon="3.823566">
<ele>86.3</ele>
<time>2013-05-08T18:53:31.999Z</time>
</trkpt>
<trkpt lat="43.574695" lon="3.823689">
<ele>86.4</ele>
<time>2013-05-08T18:53:32.999Z</time>
</trkpt>
<trkpt lat="43.574719" lon="3.823805">
<ele>86.5</ele>
<time>2013-05-08T18:53:33.999Z</time>
</trkpt>
<trkpt lat="43.574741" lon="3.823919">
<ele>86.5</ele>
<time>2013-05-08T18:53:34.999Z</time>
</trkpt>
<trkpt lat="43.574764" lon="3.824026">
<ele>86.7</ele>
<time>2013-05-08T18:53:35.999Z</time>
</trkpt>
<trkpt lat="43.574786" lon="3.824135">
<ele>86.8</ele>
<time>2013-05-08T18:53:36.999Z</time>
</trkpt>
<trkpt lat="43.574807" lon="3.824239">
<ele>87.1</ele>
<time>2013-05-08T18:53:37.999Z</time>
</trkpt>
<trkpt lat="43.574828" lon="3.824345">
<ele>87.4</ele>
<time>2013-05-08T18:53:38.999Z</time>
</trkpt>
<trkpt lat="43.57485" lon="3.824452">
<ele>87.7</ele>
<time>2013-05-08T18:53:39.999Z</time>
</trkpt>
<trkpt lat="43.574873" lon="3.824548">
<ele>87.8</ele>
<time>2013-05-08T18:53:40.999Z</time>
</trkpt>
<trkpt lat="43.574899" lon="3.824659">
<ele>87.9</ele>
<time>2013-05-08T18:53:41.999Z</time>
</trkpt>
<trkpt lat="43.574927" lon="3.824779">
<ele>87.9</ele>
<time>2013-05-08T18:53:42.999Z</time>
</trkpt>
<trkpt lat="43.574955" lon="3.824902">
<ele>87.9</ele>
<time>2013-05-08T18:53:43.999Z</time>
</trkpt>
<trkpt lat="43.574982" lon="3.825019">
<ele>87.7</ele>
<time>2013-05-08T18:53:44.999Z</time>
</trkpt>
<trkpt lat="43.575011" lon="3.825147">
<ele>87.4</ele>
<time>2013-05-08T18:53:45.999Z</time>
</trkpt>
<trkpt lat="43.57504" lon="3.825276">
<ele>87</ele>
<time>2013-05-08T18:53:46.999Z</time>
</trkpt>
<trkpt lat="43.575072" lon="3.825411">
<ele>87.2</ele>
<time>2013-05-08T18:53:47.999Z</time>
</trkpt>
<trkpt lat="43.575104" lon="3.82555">
<ele>87.7</ele>
<time>2013-05-08T18:53:48.999Z</time>
</trkpt>
<trkpt lat="43.575136" lon="3.825691">
<ele>88.2</ele>
<time>2013-05-08T18:53:49.999Z</time>
</trkpt>
<trkpt lat="43.57517" lon="3.825836">
<ele>88.5</ele>
<time>2013-05-08T18:53:50.999Z</time>
</trkpt>
<trkpt lat="43.575203" lon="3.825975">
<ele>88.8</ele>
<time>2013-05-08T18:53:51.999Z</time>
</trkpt>
<trkpt lat="43.575233" lon="3.826104">
<ele>88.9</ele>
<time>2013-05-08T18:53:52.999Z</time>
</trkpt>
<trkpt lat="43.575263" lon="3.826233">
<ele>89.1</ele>
<time>2013-05-08T18:53:53.999Z</time>
</trkpt>
<trkpt lat="43.575289" lon="3.826352">
<ele>89</ele>
<time>2013-05-08T18:53:54.999Z</time>
</trkpt>
<trkpt lat="43.575312" lon="3.826464">
<ele>89.1</ele>
<time>2013-05-08T18:53:55.999Z</time>
</trkpt>
<trkpt lat="43.575336" lon="3.826575">
<ele>88.9</ele>
<time>2013-05-08T18:53:56.999Z</time>
</trkpt>
<trkpt lat="43.575357" lon="3.826683">
<ele>88.9</ele>
<time>2013-05-08T18:53:57.999Z</time>
</trkpt>
<trkpt lat="43.575377" lon="3.826787">
<ele>89</ele>
<time>2013-05-08T18:53:58.999Z</time>
</trkpt>
<trkpt lat="43.575393" lon="3.826891">
<ele>89</ele>
<time>2013-05-08T18:53:59.999Z</time>
</trkpt>
<trkpt lat="43.575408" lon="3.826997">
<ele>89.1</ele>
<time>2013-05-08T18:54:00.999Z</time>
</trkpt>
<trkpt lat="43.575422" lon="3.827102">
<ele>89.3</ele>
<time>2013-05-08T18:54:01.999Z</time>
</trkpt>
<trkpt lat="43.575434" lon="3.827206">
<ele>89.5</ele>
<time>2013-05-08T18:54:02.999Z</time>
</trkpt>
<trkpt lat="43.575444" lon="3.827311">
<ele>89.5</ele>
<time>2013-05-08T18:54:03.999Z</time>
</trkpt>
<trkpt lat="43.575452" lon="3.82741">
<ele>89.4</ele>
<time>2013-05-08T18:54:04.999Z</time>
</trkpt>
<trkpt lat="43.575455" lon="3.827502">
<ele>89.3</ele>
<time>2013-05-08T18:54:05.999Z</time>
</trkpt>
<trkpt lat="43.575452" lon="3.827589">
<ele>89.1</ele>
<time>2013-05-08T18:54:06.999Z</time>
</trkpt>
<trkpt lat="43.575448" lon="3.827677">
<ele>88.9</ele>
<time>2013-05-08T18:54:07.999Z</time>
</trkpt>
<trkpt lat="43.575443" lon="3.82776">
<ele>88.9</ele>
<time>2013-05-08T18:54:08.999Z</time>
</trkpt>
<trkpt lat="43.575436" lon="3.827851">
<ele>89</ele>
<time>2013-05-08T18:54:09.999Z</time>
</trkpt>
<trkpt lat="43.575428" lon="3.827947">
<ele>89</ele>
<time>2013-05-08T18:54:10.999Z</time>
</trkpt>
<trkpt lat="43.575421" lon="3.82804">
<ele>89</ele>
<time>2013-05-08T18:54:11.999Z</time>
</trkpt>
<trkpt lat="43.575412" lon="3.828131">
<ele>89</ele>
<time>2013-05-08T18:54:12.999Z</time>
</trkpt>
<trkpt lat="43.575402" lon="3.828227">
<ele>88.9</ele>
<time>2013-05-08T18:54:13.999Z</time>
</trkpt>
<trkpt lat="43.575388" lon="3.828338">
<ele>88.8</ele>
<time>2013-05-08T18:54:14.999Z</time>
</trkpt>
<trkpt lat="43.575373" lon="3.828462">
<ele>88.9</ele>
<time>2013-05-08T18:54:15.999Z</time>
</trkpt>
<trkpt lat="43.575357" lon="3.828585">
<ele>89.1</ele>
<time>2013-05-08T18:54:16.999Z</time>
</trkpt>
<trkpt lat="43.575337" lon="3.828695">
<ele>89.3</ele>
<time>2013-05-08T18:54:17.999Z</time>
</trkpt>
<trkpt lat="43.575317" lon="3.828787">
<ele>89.4</ele>
<time>2013-05-08T18:54:18.999Z</time>
</trkpt>
<trkpt lat="43.575301" lon="3.828862">
<ele>89.4</ele>
<time>2013-05-08T18:54:19.999Z</time>
</trkpt>
<trkpt lat="43.575291" lon="3.828903">
<ele>89.4</ele>
<time>2013-05-08T18:54:20.999Z</time>
</trkpt>
<trkpt lat="43.575284" lon="3.828925">
<ele>89.4</ele>
<time>2013-05-08T18:54:21.999Z</time>
</trkpt>
<trkpt lat="43.595085" lon="3.897906">
<ele>64.7</ele>
<time>2013-05-08T19:08:41.203Z</time>
</trkpt>
<trkpt lat="43.59509" lon="3.897846">
<ele>51.5</ele>
<time>2013-05-08T19:09:35.000Z</time>
</trkpt>
<trkpt lat="43.595095" lon="3.897832">
<ele>51.8</ele>
<time>2013-05-08T19:09:36.000Z</time>
</trkpt>
<trkpt lat="43.595118" lon="3.897793">
<ele>58</ele>
<time>2013-05-08T19:09:53.000Z</time>
</trkpt>
<trkpt lat="43.595127" lon="3.897782">
<ele>58.5</ele>
<time>2013-05-08T19:09:54.000Z</time>
</trkpt>
<trkpt lat="43.595142" lon="3.897735">
<ele>60.5</ele>
<time>2013-05-08T19:10:08.000Z</time>
</trkpt>
<trkpt lat="43.595141" lon="3.897719">
<ele>60.6</ele>
<time>2013-05-08T19:10:09.000Z</time>
</trkpt>
<trkpt lat="43.595121" lon="3.897668">
<ele>65.6</ele>
<time>2013-05-08T19:10:49.000Z</time>
</trkpt>
<trkpt lat="43.59511" lon="3.897659">
<ele>65.9</ele>
<time>2013-05-08T19:10:50.000Z</time>
</trkpt>
<trkpt lat="43.595138" lon="3.897689">
<ele>68.8</ele>
<time>2013-05-08T19:11:08.000Z</time>
</trkpt>
<trkpt lat="43.595149" lon="3.897704">
<ele>68.8</ele>
<time>2013-05-08T19:11:09.000Z</time>
</trkpt>
<trkpt lat="43.595191" lon="3.897665">
<ele>69</ele>
<time>2013-05-08T19:11:40.000Z</time>
</trkpt>
</trkseg>
</trk>
</gpx>
